<?xml version='1.0' encoding='UTF-8'?><gpx version="1.1" creator="JPX - https://github.com/jenetics/jpx" xmlns="http://www.topografix.com/GPX/1/1"><trk><trkseg><trkpt lat="41.8774054" lon="12.5772062"><ele>53.00000000000001</ele><time>2026-05-02T10:52:21.983Z</time></trkpt><trkpt lat="41.8774479" lon="12.5771218"><ele>53.0</ele><time>2026-05-02T10:52:55.976Z</time></trkpt><trkpt lat="41.8774863" lon="12.5770485"><ele>53.0</ele><time>2026-05-02T10:53:01.981Z</time></trkpt><trkpt lat="41.877454" lon="12.5771313"><ele>53.0</ele><time>2026-05-02T10:53:35.984Z</time></trkpt><trkpt lat="41.8773831" lon="12.5771888"><ele>53.00000000000001</ele><time>2026-05-02T10:53:44.976Z</time></trkpt><trkpt lat="41.8772473" lon="12.5771509"><ele>53.0</ele><time>2026-05-02T10:53:47.004Z</time></trkpt><trkpt lat="41.8771579" lon="12.5771613"><ele>53.00000000000001</ele><time>2026-05-02T10:53:48.006Z</time></trkpt><trkpt lat="41.8770815" lon="12.5771798"><ele>53.0</ele><time>2026-05-02T10:53:49.001Z</time></trkpt><trkpt lat="41.877015" lon="12.5771964"><ele>53.0</ele><time>2026-05-02T10:53:49.979Z</time></trkpt><trkpt lat="41.8769255" lon="12.5772684"><ele>53.0</ele><time>2026-05-02T10:53:51.979Z</time></trkpt><trkpt lat="41.8768922" lon="12.5774255"><ele>53.00000000000001</ele><time>2026-05-02T10:53:53.978Z</time></trkpt><trkpt lat="41.8768986" lon="12.5775283"><ele>53.0</ele><time>2026-05-02T10:53:54.978Z</time></trkpt><trkpt lat="41.876927" lon="12.5776293"><ele>53.00000000000001</ele><time>2026-05-02T10:53:55.977Z</time></trkpt><trkpt lat="41.8769455" lon="12.5777107"><ele>53.0</ele><time>2026-05-02T10:53:56.974Z</time></trkpt><trkpt lat="41.8769782" lon="12.5778571"><ele>53.0</ele><time>2026-05-02T10:53:58.965Z</time></trkpt><trkpt lat="41.8770218" lon="12.5780131"><ele>53.0</ele><time>2026-05-02T10:54:00.969Z</time></trkpt><trkpt lat="41.8770345" lon="12.5781008"><ele>53.00000000000001</ele><time>2026-05-02T10:54:01.969Z</time></trkpt><trkpt lat="41.8770495" lon="12.5781975"><ele>53.0</ele><time>2026-05-02T10:54:02.97Z</time></trkpt><trkpt lat="41.8770782" lon="12.5782841"><ele>52.50000000000001</ele><time>2026-05-02T10:54:03.967Z</time></trkpt><trkpt lat="41.8771054" lon="12.5783649"><ele>52.0</ele><time>2026-05-02T10:54:04.965Z</time></trkpt><trkpt lat="41.8771206" lon="12.5785061"><ele>51.5</ele><time>2026-05-02T10:54:06.979Z</time></trkpt><trkpt lat="41.8771428" lon="12.5785952"><ele>51.0</ele><time>2026-05-02T10:54:22.981Z</time></trkpt><trkpt lat="41.8772041" lon="12.5786861"><ele>50.50000000000001</ele><time>2026-05-02T10:54:26.978Z</time></trkpt><trkpt lat="41.8772606" lon="12.5787342"><ele>50.0</ele><time>2026-05-02T10:54:27.97Z</time></trkpt><trkpt lat="41.8773283" lon="12.5787761"><ele>49.75</ele><time>2026-05-02T10:54:28.972Z</time></trkpt><trkpt lat="41.8774037" lon="12.5787891"><ele>49.5</ele><time>2026-05-02T10:54:29.971Z</time></trkpt><trkpt lat="41.8775089" lon="12.5787575"><ele>49.25</ele><time>2026-05-02T10:54:30.985Z</time></trkpt><trkpt lat="41.8776417" lon="12.5786931"><ele>49.0</ele><time>2026-05-02T10:54:31.959Z</time></trkpt><trkpt lat="41.8777848" lon="12.5786285"><ele>50.5</ele><time>2026-05-02T10:54:32.977Z</time></trkpt><trkpt lat="41.8779229" lon="12.5785711"><ele>52.0</ele><time>2026-05-02T10:54:33.975Z</time></trkpt><trkpt lat="41.8780512" lon="12.5785131"><ele>53.5</ele><time>2026-05-02T10:54:34.972Z</time></trkpt><trkpt lat="41.8781645" lon="12.5784493"><ele>55.0</ele><time>2026-05-02T10:54:35.977Z</time></trkpt><trkpt lat="41.8782649" lon="12.5783925"><ele>55.0</ele><time>2026-05-02T10:54:36.975Z</time></trkpt><trkpt lat="41.8783582" lon="12.5783462"><ele>55.0</ele><time>2026-05-02T10:54:37.978Z</time></trkpt><trkpt lat="41.8784517" lon="12.5782912"><ele>55.0</ele><time>2026-05-02T10:54:38.987Z</time></trkpt><trkpt lat="41.8785382" lon="12.5782506"><ele>55.0</ele><time>2026-05-02T10:54:39.986Z</time></trkpt><trkpt lat="41.8786097" lon="12.5781981"><ele>55.0</ele><time>2026-05-02T10:54:40.986Z</time></trkpt><trkpt lat="41.8786956" lon="12.5781498"><ele>54.2</ele><time>2026-05-02T10:54:41.987Z</time></trkpt><trkpt lat="41.8787927" lon="12.5781007"><ele>53.4</ele><time>2026-05-02T10:54:42.983Z</time></trkpt><trkpt lat="41.8788834" lon="12.5780531"><ele>52.599999999999994</ele><time>2026-05-02T10:54:43.987Z</time></trkpt><trkpt lat="41.8789683" lon="12.5780129"><ele>51.8</ele><time>2026-05-02T10:54:44.985Z</time></trkpt><trkpt lat="41.8790497" lon="12.5779891"><ele>51.0</ele><time>2026-05-02T10:54:45.991Z</time></trkpt><trkpt lat="41.8791278" lon="12.5779614"><ele>51.0</ele><time>2026-05-02T10:54:46.983Z</time></trkpt><trkpt lat="41.8792217" lon="12.5779198"><ele>51.0</ele><time>2026-05-02T10:54:47.978Z</time></trkpt><trkpt lat="41.8793349" lon="12.577875"><ele>51.0</ele><time>2026-05-02T10:54:48.981Z</time></trkpt><trkpt lat="41.879455" lon="12.5778383"><ele>51.0</ele><time>2026-05-02T10:54:49.983Z</time></trkpt><trkpt lat="41.8795847" lon="12.5778004"><ele>49.75</ele><time>2026-05-02T10:54:50.973Z</time></trkpt><trkpt lat="41.8797143" lon="12.577754"><ele>48.5</ele><time>2026-05-02T10:54:51.979Z</time></trkpt><trkpt lat="41.8798337" lon="12.577722"><ele>47.25</ele><time>2026-05-02T10:54:52.978Z</time></trkpt><trkpt lat="41.8799402" lon="12.5776983"><ele>46.0</ele><time>2026-05-02T10:54:53.977Z</time></trkpt><trkpt lat="41.8800408" lon="12.5776758"><ele>46.0</ele><time>2026-05-02T10:54:54.983Z</time></trkpt><trkpt lat="41.880133" lon="12.5776557"><ele>46.0</ele><time>2026-05-02T10:54:55.983Z</time></trkpt><trkpt lat="41.8802257" lon="12.5776395"><ele>46.0</ele><time>2026-05-02T10:54:56.979Z</time></trkpt><trkpt lat="41.8803211" lon="12.5776149"><ele>46.0</ele><time>2026-05-02T10:54:57.987Z</time></trkpt><trkpt lat="41.880424" lon="12.5775849"><ele>46.0</ele><time>2026-05-02T10:54:58.978Z</time></trkpt><trkpt lat="41.8805243" lon="12.577559"><ele>46.0</ele><time>2026-05-02T10:54:59.991Z</time></trkpt><trkpt lat="41.8806261" lon="12.5775503"><ele>46.0</ele><time>2026-05-02T10:55:00.977Z</time></trkpt><trkpt lat="41.880715" lon="12.5775378"><ele>46.0</ele><time>2026-05-02T10:55:01.974Z</time></trkpt><trkpt lat="41.880791" lon="12.5775185"><ele>46.0</ele><time>2026-05-02T10:55:02.976Z</time></trkpt><trkpt lat="41.8808666" lon="12.5774909"><ele>46.0</ele><time>2026-05-02T10:55:03.981Z</time></trkpt><trkpt lat="41.880931" lon="12.5774628"><ele>46.0</ele><time>2026-05-02T10:55:04.981Z</time></trkpt><trkpt lat="41.8810032" lon="12.5774385"><ele>46.333333333333336</ele><time>2026-05-02T10:55:05.98Z</time></trkpt><trkpt lat="41.8810833" lon="12.5774167"><ele>46.66666666666667</ele><time>2026-05-02T10:55:06.984Z</time></trkpt><trkpt lat="41.8811561" lon="12.5773883"><ele>47.0</ele><time>2026-05-02T10:55:07.981Z</time></trkpt><trkpt lat="41.8812353" lon="12.5773541"><ele>47.333333333333336</ele><time>2026-05-02T10:55:08.98Z</time></trkpt><trkpt lat="41.8812927" lon="12.5773057"><ele>47.666666666666664</ele><time>2026-05-02T10:55:09.978Z</time></trkpt><trkpt lat="41.8813284" lon="12.5772163"><ele>48.0</ele><time>2026-05-02T10:55:10.978Z</time></trkpt><trkpt lat="41.8813708" lon="12.5771211"><ele>47.25</ele><time>2026-05-02T10:55:11.98Z</time></trkpt><trkpt lat="41.8813832" lon="12.5769876"><ele>46.5</ele><time>2026-05-02T10:55:12.968Z</time></trkpt><trkpt lat="41.8813717" lon="12.5768024"><ele>45.75</ele><time>2026-05-02T10:55:13.971Z</time></trkpt><trkpt lat="41.8813282" lon="12.5765757"><ele>45.0</ele><time>2026-05-02T10:55:14.974Z</time></trkpt><trkpt lat="41.881276" lon="12.5763542"><ele>43.75</ele><time>2026-05-02T10:55:15.987Z</time></trkpt><trkpt lat="41.8812373" lon="12.5761532"><ele>42.5</ele><time>2026-05-02T10:55:16.974Z</time></trkpt><trkpt lat="41.8812025" lon="12.5759592"><ele>41.25</ele><time>2026-05-02T10:55:17.984Z</time></trkpt><trkpt lat="41.8811726" lon="12.5757748"><ele>40.0</ele><time>2026-05-02T10:55:18.98Z</time></trkpt><trkpt lat="41.8811442" lon="12.5755906"><ele>40.0</ele><time>2026-05-02T10:55:19.982Z</time></trkpt><trkpt lat="41.8811149" lon="12.5754185"><ele>40.0</ele><time>2026-05-02T10:55:20.979Z</time></trkpt><trkpt lat="41.8810729" lon="12.5752435"><ele>40.0</ele><time>2026-05-02T10:55:21.978Z</time></trkpt><trkpt lat="41.8810269" lon="12.575112"><ele>40.0</ele><time>2026-05-02T10:55:22.985Z</time></trkpt><trkpt lat="41.8809971" lon="12.5749783"><ele>40.0</ele><time>2026-05-02T10:55:23.992Z</time></trkpt><trkpt lat="41.8809744" lon="12.5748308"><ele>40.0</ele><time>2026-05-02T10:55:24.98Z</time></trkpt><trkpt lat="41.8809623" lon="12.574666"><ele>40.0</ele><time>2026-05-02T10:55:25.986Z</time></trkpt><trkpt lat="41.8809481" lon="12.5744686"><ele>40.0</ele><time>2026-05-02T10:55:26.988Z</time></trkpt><trkpt lat="41.8809243" lon="12.574279"><ele>39.2</ele><time>2026-05-02T10:55:27.987Z</time></trkpt><trkpt lat="41.8809033" lon="12.5741165"><ele>38.4</ele><time>2026-05-02T10:55:28.996Z</time></trkpt><trkpt lat="41.8808793" lon="12.5739701"><ele>37.6</ele><time>2026-05-02T10:55:29.99Z</time></trkpt><trkpt lat="41.8808624" lon="12.5738413"><ele>36.8</ele><time>2026-05-02T10:55:30.985Z</time></trkpt><trkpt lat="41.8808514" lon="12.5737349"><ele>36.0</ele><time>2026-05-02T10:55:31.982Z</time></trkpt><trkpt lat="41.8808423" lon="12.5736422"><ele>35.833333333333336</ele><time>2026-05-02T10:55:32.985Z</time></trkpt><trkpt lat="41.8808304" lon="12.573501"><ele>35.666666666666664</ele><time>2026-05-02T10:55:34.979Z</time></trkpt><trkpt lat="41.8808435" lon="12.573383"><ele>35.5</ele><time>2026-05-02T10:55:36.967Z</time></trkpt><trkpt lat="41.8808608" lon="12.573301"><ele>35.33333333333333</ele><time>2026-05-02T10:55:38.983Z</time></trkpt><trkpt lat="41.8808645" lon="12.5732104"><ele>35.166666666666664</ele><time>2026-05-02T10:55:57.98Z</time></trkpt><trkpt lat="41.8809748" lon="12.5731428"><ele>35.0</ele><time>2026-05-02T10:56:00.988Z</time></trkpt><trkpt lat="41.8810749" lon="12.5731618"><ele>35.0</ele><time>2026-05-02T10:56:01.978Z</time></trkpt><trkpt lat="41.8812011" lon="12.5731986"><ele>35.0</ele><time>2026-05-02T10:56:02.983Z</time></trkpt><trkpt lat="41.8813503" lon="12.5732422"><ele>35.0</ele><time>2026-05-02T10:56:03.984Z</time></trkpt><trkpt lat="41.8815115" lon="12.5732921"><ele>35.0</ele><time>2026-05-02T10:56:04.989Z</time></trkpt><trkpt lat="41.8816663" lon="12.5733308"><ele>34.33333333333333</ele><time>2026-05-02T10:56:05.97Z</time></trkpt><trkpt lat="41.8818203" lon="12.5733593"><ele>33.666666666666664</ele><time>2026-05-02T10:56:06.981Z</time></trkpt><trkpt lat="41.8819871" lon="12.5733878"><ele>33.0</ele><time>2026-05-02T10:56:07.972Z</time></trkpt><trkpt lat="41.882169" lon="12.5734151"><ele>33.0</ele><time>2026-05-02T10:56:08.976Z</time></trkpt><trkpt lat="41.8823656" lon="12.573437"><ele>33.0</ele><time>2026-05-02T10:56:09.968Z</time></trkpt><trkpt lat="41.8825773" lon="12.5734594"><ele>33.0</ele><time>2026-05-02T10:56:10.976Z</time></trkpt><trkpt lat="41.8827879" lon="12.573476"><ele>33.0</ele><time>2026-05-02T10:56:11.963Z</time></trkpt><trkpt lat="41.8830149" lon="12.5735156"><ele>33.0</ele><time>2026-05-02T10:56:12.963Z</time></trkpt><trkpt lat="41.883224" lon="12.5735512"><ele>33.0</ele><time>2026-05-02T10:56:13.969Z</time></trkpt><trkpt lat="41.8834015" lon="12.5735825"><ele>33.0</ele><time>2026-05-02T10:56:14.971Z</time></trkpt><trkpt lat="41.8835678" lon="12.5736024"><ele>33.0</ele><time>2026-05-02T10:56:15.968Z</time></trkpt><trkpt lat="41.8837282" lon="12.5736176"><ele>33.0</ele><time>2026-05-02T10:56:16.97Z</time></trkpt><trkpt lat="41.8838786" lon="12.5736277"><ele>33.0</ele><time>2026-05-02T10:56:17.975Z</time></trkpt><trkpt lat="41.8840224" lon="12.5736313"><ele>33.0</ele><time>2026-05-02T10:56:18.965Z</time></trkpt><trkpt lat="41.884145" lon="12.5736357"><ele>33.0</ele><time>2026-05-02T10:56:19.977Z</time></trkpt><trkpt lat="41.8842527" lon="12.573637"><ele>33.0</ele><time>2026-05-02T10:56:20.975Z</time></trkpt><trkpt lat="41.8843527" lon="12.573649"><ele>32.5</ele><time>2026-05-02T10:56:21.979Z</time></trkpt><trkpt lat="41.8844681" lon="12.5736773"><ele>32.0</ele><time>2026-05-02T10:56:22.978Z</time></trkpt><trkpt lat="41.8845949" lon="12.5736859"><ele>31.5</ele><time>2026-05-02T10:56:23.974Z</time></trkpt><trkpt lat="41.884736" lon="12.5736832"><ele>31.0</ele><time>2026-05-02T10:56:24.982Z</time></trkpt><trkpt lat="41.884897" lon="12.573679"><ele>31.0</ele><time>2026-05-02T10:56:25.976Z</time></trkpt><trkpt lat="41.8850693" lon="12.5736835"><ele>31.0</ele><time>2026-05-02T10:56:26.975Z</time></trkpt><trkpt lat="41.8852497" lon="12.5736952"><ele>31.0</ele><time>2026-05-02T10:56:27.982Z</time></trkpt><trkpt lat="41.8854311" lon="12.5737051"><ele>31.0</ele><time>2026-05-02T10:56:28.984Z</time></trkpt><trkpt lat="41.885613" lon="12.5736884"><ele>31.0</ele><time>2026-05-02T10:56:29.989Z</time></trkpt><trkpt lat="41.8857929" lon="12.57369"><ele>31.0</ele><time>2026-05-02T10:56:30.973Z</time></trkpt><trkpt lat="41.8859758" lon="12.5736804"><ele>30.0</ele><time>2026-05-02T10:56:31.978Z</time></trkpt><trkpt lat="41.8861599" lon="12.5736646"><ele>29.0</ele><time>2026-05-02T10:56:32.979Z</time></trkpt><trkpt lat="41.8863334" lon="12.5736454"><ele>28.0</ele><time>2026-05-02T10:56:33.967Z</time></trkpt><trkpt lat="41.8865118" lon="12.5736631"><ele>28.0</ele><time>2026-05-02T10:56:34.976Z</time></trkpt><trkpt lat="41.8867005" lon="12.5736919"><ele>28.0</ele><time>2026-05-02T10:56:35.977Z</time></trkpt><trkpt lat="41.8868975" lon="12.5737245"><ele>28.0</ele><time>2026-05-02T10:56:36.977Z</time></trkpt><trkpt lat="41.8870869" lon="12.5737628"><ele>28.0</ele><time>2026-05-02T10:56:37.976Z</time></trkpt><trkpt lat="41.8872963" lon="12.5737977"><ele>28.0</ele><time>2026-05-02T10:56:38.984Z</time></trkpt><trkpt lat="41.887507" lon="12.5738291"><ele>28.0</ele><time>2026-05-02T10:56:39.973Z</time></trkpt><trkpt lat="41.8877172" lon="12.5738744"><ele>28.666666666666668</ele><time>2026-05-02T10:56:40.979Z</time></trkpt><trkpt lat="41.8879103" lon="12.5739053"><ele>29.333333333333336</ele><time>2026-05-02T10:56:41.979Z</time></trkpt><trkpt lat="41.8880921" lon="12.573934"><ele>30.0</ele><time>2026-05-02T10:56:42.999Z</time></trkpt><trkpt lat="41.8882457" lon="12.5739509"><ele>30.0</ele><time>2026-05-02T10:56:43.974Z</time></trkpt><trkpt lat="41.8883857" lon="12.5739734"><ele>30.0</ele><time>2026-05-02T10:56:44.975Z</time></trkpt><trkpt lat="41.8885271" lon="12.5740069"><ele>30.0</ele><time>2026-05-02T10:56:45.979Z</time></trkpt><trkpt lat="41.8886665" lon="12.5740244"><ele>30.0</ele><time>2026-05-02T10:56:46.974Z</time></trkpt><trkpt lat="41.8887858" lon="12.5740398"><ele>30.4</ele><time>2026-05-02T10:56:47.982Z</time></trkpt><trkpt lat="41.8888814" lon="12.574046"><ele>30.8</ele><time>2026-05-02T10:56:48.976Z</time></trkpt><trkpt lat="41.8889569" lon="12.5740717"><ele>31.200000000000003</ele><time>2026-05-02T10:56:49.978Z</time></trkpt><trkpt lat="41.8890532" lon="12.5741081"><ele>31.6</ele><time>2026-05-02T10:56:50.999Z</time></trkpt><trkpt lat="41.8891631" lon="12.5741407"><ele>32.0</ele><time>2026-05-02T10:56:51.971Z</time></trkpt><trkpt lat="41.8892707" lon="12.5741599"><ele>32.33333333333333</ele><time>2026-05-02T10:56:52.986Z</time></trkpt><trkpt lat="41.8893589" lon="12.5741754"><ele>32.666666666666664</ele><time>2026-05-02T10:56:53.978Z</time></trkpt><trkpt lat="41.889439" lon="12.5741685"><ele>33.0</ele><time>2026-05-02T10:56:54.98Z</time></trkpt><trkpt lat="41.8895224" lon="12.5741505"><ele>33.333333333333336</ele><time>2026-05-02T10:56:56.001Z</time></trkpt><trkpt lat="41.8896201" lon="12.5741452"><ele>33.66666666666667</ele><time>2026-05-02T10:56:56.976Z</time></trkpt><trkpt lat="41.8897153" lon="12.5741611"><ele>34.0</ele><time>2026-05-02T10:56:57.981Z</time></trkpt><trkpt lat="41.8898028" lon="12.5741918"><ele>34.0</ele><time>2026-05-02T10:56:59.009Z</time></trkpt><trkpt lat="41.8898807" lon="12.5742295"><ele>34.0</ele><time>2026-05-02T10:56:59.981Z</time></trkpt><trkpt lat="41.8899475" lon="12.5742669"><ele>34.0</ele><time>2026-05-02T10:57:00.987Z</time></trkpt><trkpt lat="41.8900096" lon="12.5742986"><ele>34.0</ele><time>2026-05-02T10:57:01.986Z</time></trkpt><trkpt lat="41.8901212" lon="12.5743377"><ele>34.0</ele><time>2026-05-02T10:57:03.985Z</time></trkpt><trkpt lat="41.8902436" lon="12.5743864"><ele>34.0</ele><time>2026-05-02T10:57:05.979Z</time></trkpt><trkpt lat="41.8903195" lon="12.5744081"><ele>34.0</ele><time>2026-05-02T10:57:06.981Z</time></trkpt><trkpt lat="41.8904033" lon="12.57443"><ele>34.0</ele><time>2026-05-02T10:57:07.984Z</time></trkpt><trkpt lat="41.8905058" lon="12.5744551"><ele>34.0</ele><time>2026-05-02T10:57:08.985Z</time></trkpt><trkpt lat="41.8906206" lon="12.5744727"><ele>34.0</ele><time>2026-05-02T10:57:09.979Z</time></trkpt><trkpt lat="41.8907488" lon="12.5744923"><ele>34.0</ele><time>2026-05-02T10:57:10.975Z</time></trkpt><trkpt lat="41.8908855" lon="12.5745124"><ele>34.0</ele><time>2026-05-02T10:57:11.978Z</time></trkpt><trkpt lat="41.8910304" lon="12.574539"><ele>34.0</ele><time>2026-05-02T10:57:12.981Z</time></trkpt><trkpt lat="41.891172" lon="12.5745605"><ele>34.0</ele><time>2026-05-02T10:57:13.976Z</time></trkpt><trkpt lat="41.8913164" lon="12.5745835"><ele>34.0</ele><time>2026-05-02T10:57:14.972Z</time></trkpt><trkpt lat="41.8914559" lon="12.57461"><ele>34.0</ele><time>2026-05-02T10:57:15.986Z</time></trkpt><trkpt lat="41.8915849" lon="12.5746421"><ele>34.0</ele><time>2026-05-02T10:57:16.994Z</time></trkpt><trkpt lat="41.891709" lon="12.5746706"><ele>34.0</ele><time>2026-05-02T10:57:17.977Z</time></trkpt><trkpt lat="41.8918277" lon="12.5747113"><ele>34.25</ele><time>2026-05-02T10:57:18.974Z</time></trkpt><trkpt lat="41.891937" lon="12.5747555"><ele>34.5</ele><time>2026-05-02T10:57:19.97Z</time></trkpt><trkpt lat="41.8920483" lon="12.5747823"><ele>34.75</ele><time>2026-05-02T10:57:20.975Z</time></trkpt><trkpt lat="41.8921638" lon="12.5748004"><ele>35.0</ele><time>2026-05-02T10:57:21.974Z</time></trkpt><trkpt lat="41.8922729" lon="12.5748084"><ele>35.0</ele><time>2026-05-02T10:57:22.976Z</time></trkpt><trkpt lat="41.8923821" lon="12.5748131"><ele>35.0</ele><time>2026-05-02T10:57:23.975Z</time></trkpt><trkpt lat="41.8924889" lon="12.5748145"><ele>35.0</ele><time>2026-05-02T10:57:24.988Z</time></trkpt><trkpt lat="41.8925894" lon="12.5748188"><ele>35.0</ele><time>2026-05-02T10:57:25.982Z</time></trkpt><trkpt lat="41.8926924" lon="12.5748219"><ele>35.0</ele><time>2026-05-02T10:57:26.969Z</time></trkpt><trkpt lat="41.892797" lon="12.5748177"><ele>35.25</ele><time>2026-05-02T10:57:27.975Z</time></trkpt><trkpt lat="41.8929137" lon="12.5748146"><ele>35.5</ele><time>2026-05-02T10:57:28.98Z</time></trkpt><trkpt lat="41.8930487" lon="12.5748254"><ele>35.75</ele><time>2026-05-02T10:57:29.975Z</time></trkpt><trkpt lat="41.8932249" lon="12.5748678"><ele>36.0</ele><time>2026-05-02T10:57:30.983Z</time></trkpt><trkpt lat="41.8934523" lon="12.5748945"><ele>35.333333333333336</ele><time>2026-05-02T10:57:31.974Z</time></trkpt><trkpt lat="41.8936796" lon="12.5749104"><ele>34.66666666666667</ele><time>2026-05-02T10:57:32.983Z</time></trkpt><trkpt lat="41.8938713" lon="12.5749243"><ele>34.0</ele><time>2026-05-02T10:57:33.976Z</time></trkpt><trkpt lat="41.894033" lon="12.5749375"><ele>34.0</ele><time>2026-05-02T10:57:34.983Z</time></trkpt><trkpt lat="41.8941759" lon="12.5749562"><ele>34.0</ele><time>2026-05-02T10:57:36.001Z</time></trkpt><trkpt lat="41.8943009" lon="12.5749807"><ele>34.0</ele><time>2026-05-02T10:57:36.979Z</time></trkpt><trkpt lat="41.8944073" lon="12.5750114"><ele>34.0</ele><time>2026-05-02T10:57:38.004Z</time></trkpt><trkpt lat="41.8945223" lon="12.5750312"><ele>32.6</ele><time>2026-05-02T10:57:38.995Z</time></trkpt><trkpt lat="41.8946415" lon="12.5750594"><ele>31.2</ele><time>2026-05-02T10:57:40.004Z</time></trkpt><trkpt lat="41.8947494" lon="12.5750942"><ele>29.800000000000004</ele><time>2026-05-02T10:57:40.984Z</time></trkpt><trkpt lat="41.8948467" lon="12.57513"><ele>28.400000000000002</ele><time>2026-05-02T10:57:42.008Z</time></trkpt><trkpt lat="41.8949348" lon="12.5751796"><ele>27.0</ele><time>2026-05-02T10:57:42.983Z</time></trkpt><trkpt lat="41.8950379" lon="12.5752513"><ele>27.75</ele><time>2026-05-02T10:57:43.973Z</time></trkpt><trkpt lat="41.8951582" lon="12.5753362"><ele>28.5</ele><time>2026-05-02T10:57:44.977Z</time></trkpt><trkpt lat="41.895296" lon="12.5754285"><ele>29.25</ele><time>2026-05-02T10:57:45.982Z</time></trkpt><trkpt lat="41.895438" lon="12.5755129"><ele>30.0</ele><time>2026-05-02T10:57:46.983Z</time></trkpt><trkpt lat="41.8955989" lon="12.5755865"><ele>30.333333333333336</ele><time>2026-05-02T10:57:47.984Z</time></trkpt><trkpt lat="41.8957708" lon="12.5756574"><ele>30.666666666666668</ele><time>2026-05-02T10:57:48.981Z</time></trkpt><trkpt lat="41.8959236" lon="12.5757254"><ele>31.0</ele><time>2026-05-02T10:57:49.977Z</time></trkpt><trkpt lat="41.8960654" lon="12.5757684"><ele>31.25</ele><time>2026-05-02T10:57:50.976Z</time></trkpt><trkpt lat="41.8962047" lon="12.5757997"><ele>31.5</ele><time>2026-05-02T10:57:51.976Z</time></trkpt><trkpt lat="41.8963384" lon="12.5758351"><ele>31.75</ele><time>2026-05-02T10:57:53.023Z</time></trkpt><trkpt lat="41.8964729" lon="12.5758553"><ele>32.0</ele><time>2026-05-02T10:57:54.025Z</time></trkpt><trkpt lat="41.8966226" lon="12.5758468"><ele>31.0</ele><time>2026-05-02T10:57:55.003Z</time></trkpt><trkpt lat="41.8967826" lon="12.5758339"><ele>30.0</ele><time>2026-05-02T10:57:55.98Z</time></trkpt><trkpt lat="41.896947" lon="12.5758358"><ele>29.0</ele><time>2026-05-02T10:57:57.008Z</time></trkpt><trkpt lat="41.8970914" lon="12.5758437"><ele>29.0</ele><time>2026-05-02T10:57:57.98Z</time></trkpt><trkpt lat="41.8972504" lon="12.5758469"><ele>29.0</ele><time>2026-05-02T10:57:58.982Z</time></trkpt><trkpt lat="41.8974275" lon="12.5758554"><ele>29.0</ele><time>2026-05-02T10:57:59.992Z</time></trkpt><trkpt lat="41.8976002" lon="12.5758612"><ele>30.0</ele><time>2026-05-02T10:58:00.994Z</time></trkpt><trkpt lat="41.897779" lon="12.5758598"><ele>31.0</ele><time>2026-05-02T10:58:01.992Z</time></trkpt><trkpt lat="41.8979638" lon="12.5758528"><ele>32.0</ele><time>2026-05-02T10:58:02.99Z</time></trkpt><trkpt lat="41.8981504" lon="12.5758485"><ele>32.0</ele><time>2026-05-02T10:58:03.991Z</time></trkpt><trkpt lat="41.8983427" lon="12.5758448"><ele>32.0</ele><time>2026-05-02T10:58:04.991Z</time></trkpt><trkpt lat="41.8985288" lon="12.5758294"><ele>32.0</ele><time>2026-05-02T10:58:05.986Z</time></trkpt><trkpt lat="41.8987182" lon="12.5758248"><ele>32.33333333333333</ele><time>2026-05-02T10:58:06.991Z</time></trkpt><trkpt lat="41.8989085" lon="12.5758188"><ele>32.666666666666664</ele><time>2026-05-02T10:58:07.994Z</time></trkpt><trkpt lat="41.8990999" lon="12.5758135"><ele>33.0</ele><time>2026-05-02T10:58:08.989Z</time></trkpt><trkpt lat="41.8992977" lon="12.5757962"><ele>32.0</ele><time>2026-05-02T10:58:09.987Z</time></trkpt><trkpt lat="41.8995134" lon="12.5757734"><ele>31.0</ele><time>2026-05-02T10:58:10.995Z</time></trkpt><trkpt lat="41.8997324" lon="12.5757541"><ele>30.0</ele><time>2026-05-02T10:58:11.99Z</time></trkpt><trkpt lat="41.899958" lon="12.5757241"><ele>30.0</ele><time>2026-05-02T10:58:12.986Z</time></trkpt><trkpt lat="41.9001509" lon="12.5757012"><ele>30.0</ele><time>2026-05-02T10:58:13.995Z</time></trkpt><trkpt lat="41.9003239" lon="12.5756752"><ele>30.0</ele><time>2026-05-02T10:58:14.983Z</time></trkpt><trkpt lat="41.9004901" lon="12.5756524"><ele>30.0</ele><time>2026-05-02T10:58:15.993Z</time></trkpt><trkpt lat="41.9006664" lon="12.5756195"><ele>30.0</ele><time>2026-05-02T10:58:16.986Z</time></trkpt><trkpt lat="41.9008438" lon="12.5755871"><ele>30.0</ele><time>2026-05-02T10:58:17.985Z</time></trkpt><trkpt lat="41.9010236" lon="12.5755501"><ele>30.0</ele><time>2026-05-02T10:58:18.988Z</time></trkpt><trkpt lat="41.901189" lon="12.5755078"><ele>30.0</ele><time>2026-05-02T10:58:19.992Z</time></trkpt><trkpt lat="41.9013385" lon="12.575464"><ele>30.0</ele><time>2026-05-02T10:58:20.986Z</time></trkpt><trkpt lat="41.9014658" lon="12.5754294"><ele>30.0</ele><time>2026-05-02T10:58:21.989Z</time></trkpt><trkpt lat="41.9015863" lon="12.5754018"><ele>30.0</ele><time>2026-05-02T10:58:22.984Z</time></trkpt><trkpt lat="41.9016918" lon="12.5753703"><ele>30.0</ele><time>2026-05-02T10:58:23.987Z</time></trkpt><trkpt lat="41.9017994" lon="12.5753541"><ele>30.0</ele><time>2026-05-02T10:58:24.988Z</time></trkpt><trkpt lat="41.9018872" lon="12.5753238"><ele>30.0</ele><time>2026-05-02T10:58:25.992Z</time></trkpt><trkpt lat="41.9019635" lon="12.5752673"><ele>30.25</ele><time>2026-05-02T10:58:26.987Z</time></trkpt><trkpt lat="41.9020636" lon="12.5751898"><ele>30.5</ele><time>2026-05-02T10:58:27.991Z</time></trkpt><trkpt lat="41.9021799" lon="12.575102"><ele>30.75</ele><time>2026-05-02T10:58:28.99Z</time></trkpt><trkpt lat="41.9023263" lon="12.5750248"><ele>31.0</ele><time>2026-05-02T10:58:29.996Z</time></trkpt><trkpt lat="41.9025234" lon="12.5749474"><ele>29.666666666666668</ele><time>2026-05-02T10:58:30.981Z</time></trkpt><trkpt lat="41.9027216" lon="12.5748617"><ele>28.333333333333336</ele><time>2026-05-02T10:58:31.988Z</time></trkpt><trkpt lat="41.90293" lon="12.5747633"><ele>27.0</ele><time>2026-05-02T10:58:32.985Z</time></trkpt><trkpt lat="41.9031472" lon="12.5746487"><ele>27.0</ele><time>2026-05-02T10:58:33.981Z</time></trkpt><trkpt lat="41.903372" lon="12.5745412"><ele>27.0</ele><time>2026-05-02T10:58:34.997Z</time></trkpt><trkpt lat="41.9035879" lon="12.5744421"><ele>28.0</ele><time>2026-05-02T10:58:35.983Z</time></trkpt><trkpt lat="41.9037912" lon="12.5743629"><ele>29.0</ele><time>2026-05-02T10:58:36.982Z</time></trkpt><trkpt lat="41.9039833" lon="12.574301"><ele>30.0</ele><time>2026-05-02T10:58:37.983Z</time></trkpt><trkpt lat="41.9041813" lon="12.5742444"><ele>30.0</ele><time>2026-05-02T10:58:38.986Z</time></trkpt><trkpt lat="41.9043862" lon="12.5741839"><ele>30.0</ele><time>2026-05-02T10:58:39.984Z</time></trkpt><trkpt lat="41.9045829" lon="12.5741215"><ele>30.0</ele><time>2026-05-02T10:58:40.985Z</time></trkpt><trkpt lat="41.904769" lon="12.5740593"><ele>30.0</ele><time>2026-05-02T10:58:41.986Z</time></trkpt><trkpt lat="41.9049543" lon="12.5739948"><ele>30.0</ele><time>2026-05-02T10:58:42.977Z</time></trkpt><trkpt lat="41.9051512" lon="12.5739393"><ele>30.0</ele><time>2026-05-02T10:58:43.984Z</time></trkpt><trkpt lat="41.9053741" lon="12.5738537"><ele>28.0</ele><time>2026-05-02T10:58:44.982Z</time></trkpt><trkpt lat="41.905617" lon="12.573755"><ele>26.0</ele><time>2026-05-02T10:58:46.067Z</time></trkpt><trkpt lat="41.9058651" lon="12.5736864"><ele>25.0</ele><time>2026-05-02T10:58:46.997Z</time></trkpt><trkpt lat="41.9060861" lon="12.5736097"><ele>24.0</ele><time>2026-05-02T10:58:47.994Z</time></trkpt><trkpt lat="41.9063252" lon="12.573552"><ele>24.0</ele><time>2026-05-02T10:58:48.986Z</time></trkpt><trkpt lat="41.9065393" lon="12.5734847"><ele>24.0</ele><time>2026-05-02T10:58:49.975Z</time></trkpt><trkpt lat="41.906764" lon="12.5734311"><ele>24.0</ele><time>2026-05-02T10:58:50.993Z</time></trkpt><trkpt lat="41.9069855" lon="12.5733644"><ele>25.5</ele><time>2026-05-02T10:58:51.99Z</time></trkpt><trkpt lat="41.9072327" lon="12.5732975"><ele>27.0</ele><time>2026-05-02T10:58:52.988Z</time></trkpt><trkpt lat="41.9074344" lon="12.5732413"><ele>28.666666666666664</ele><time>2026-05-02T10:58:53.987Z</time></trkpt><trkpt lat="41.9076357" lon="12.5731866"><ele>30.333333333333332</ele><time>2026-05-02T10:58:54.98Z</time></trkpt><trkpt lat="41.9078465" lon="12.5731739"><ele>32.0</ele><time>2026-05-02T10:58:55.98Z</time></trkpt><trkpt lat="41.9080718" lon="12.5731339"><ele>32.0</ele><time>2026-05-02T10:58:56.981Z</time></trkpt><trkpt lat="41.9082722" lon="12.5730759"><ele>32.0</ele><time>2026-05-02T10:58:57.969Z</time></trkpt><trkpt lat="41.9084534" lon="12.5730034"><ele>32.0</ele><time>2026-05-02T10:58:58.98Z</time></trkpt><trkpt lat="41.9086544" lon="12.5729482"><ele>32.0</ele><time>2026-05-02T10:58:59.984Z</time></trkpt><trkpt lat="41.9088527" lon="12.5729014"><ele>32.0</ele><time>2026-05-02T10:59:00.973Z</time></trkpt><trkpt lat="41.9090396" lon="12.5728457"><ele>32.0</ele><time>2026-05-02T10:59:01.971Z</time></trkpt><trkpt lat="41.909224" lon="12.5727709"><ele>31.333333333333332</ele><time>2026-05-02T10:59:02.977Z</time></trkpt><trkpt lat="41.9093637" lon="12.5727235"><ele>30.666666666666664</ele><time>2026-05-02T10:59:03.98Z</time></trkpt><trkpt lat="41.9095127" lon="12.5727126"><ele>30.0</ele><time>2026-05-02T10:59:04.976Z</time></trkpt><trkpt lat="41.9097013" lon="12.5726941"><ele>30.0</ele><time>2026-05-02T10:59:05.984Z</time></trkpt><trkpt lat="41.9098888" lon="12.5726605"><ele>30.0</ele><time>2026-05-02T10:59:06.981Z</time></trkpt><trkpt lat="41.9100468" lon="12.5725893"><ele>30.0</ele><time>2026-05-02T10:59:07.982Z</time></trkpt><trkpt lat="41.9101853" lon="12.5725547"><ele>30.25</ele><time>2026-05-02T10:59:08.977Z</time></trkpt><trkpt lat="41.9103221" lon="12.5724931"><ele>30.5</ele><time>2026-05-02T10:59:09.983Z</time></trkpt><trkpt lat="41.910442" lon="12.5724417"><ele>30.75</ele><time>2026-05-02T10:59:10.979Z</time></trkpt><trkpt lat="41.9105731" lon="12.5723775"><ele>31.0</ele><time>2026-05-02T10:59:11.984Z</time></trkpt><trkpt lat="41.9107077" lon="12.572333"><ele>31.0</ele><time>2026-05-02T10:59:12.978Z</time></trkpt><trkpt lat="41.9108297" lon="12.572309"><ele>31.0</ele><time>2026-05-02T10:59:13.995Z</time></trkpt><trkpt lat="41.9109185" lon="12.572275"><ele>31.0</ele><time>2026-05-02T10:59:14.972Z</time></trkpt><trkpt lat="41.9110039" lon="12.5722335"><ele>31.0</ele><time>2026-05-02T10:59:15.977Z</time></trkpt><trkpt lat="41.9110717" lon="12.5722069"><ele>31.0</ele><time>2026-05-02T10:59:16.983Z</time></trkpt><trkpt lat="41.911148" lon="12.5721772"><ele>31.75</ele><time>2026-05-02T10:59:17.967Z</time></trkpt><trkpt lat="41.9112408" lon="12.572135"><ele>32.5</ele><time>2026-05-02T10:59:18.962Z</time></trkpt><trkpt lat="41.9113672" lon="12.5720931"><ele>33.25</ele><time>2026-05-02T10:59:19.979Z</time></trkpt><trkpt lat="41.9114985" lon="12.572036"><ele>34.0</ele><time>2026-05-02T10:59:20.978Z</time></trkpt><trkpt lat="41.9116134" lon="12.5719739"><ele>34.0</ele><time>2026-05-02T10:59:21.968Z</time></trkpt><trkpt lat="41.9117256" lon="12.5719103"><ele>34.0</ele><time>2026-05-02T10:59:22.986Z</time></trkpt><trkpt lat="41.9118445" lon="12.5718385"><ele>34.0</ele><time>2026-05-02T10:59:23.974Z</time></trkpt><trkpt lat="41.911989" lon="12.5717689"><ele>34.0</ele><time>2026-05-02T10:59:24.975Z</time></trkpt><trkpt lat="41.9121617" lon="12.5716752"><ele>34.333333333333336</ele><time>2026-05-02T10:59:25.977Z</time></trkpt><trkpt lat="41.9123048" lon="12.5715293"><ele>34.666666666666664</ele><time>2026-05-02T10:59:26.97Z</time></trkpt><trkpt lat="41.9124455" lon="12.5714277"><ele>35.0</ele><time>2026-05-02T10:59:28Z</time></trkpt><trkpt lat="41.9125526" lon="12.5713323"><ele>34.75</ele><time>2026-05-02T10:59:28.965Z</time></trkpt><trkpt lat="41.9126425" lon="12.5712685"><ele>34.5</ele><time>2026-05-02T10:59:29.987Z</time></trkpt><trkpt lat="41.9127537" lon="12.5711895"><ele>34.25</ele><time>2026-05-02T10:59:30.995Z</time></trkpt><trkpt lat="41.9128603" lon="12.5710741"><ele>34.0</ele><time>2026-05-02T10:59:31.991Z</time></trkpt><trkpt lat="41.9129722" lon="12.5709885"><ele>33.4</ele><time>2026-05-02T10:59:32.994Z</time></trkpt><trkpt lat="41.9130957" lon="12.5709705"><ele>32.8</ele><time>2026-05-02T10:59:33.965Z</time></trkpt><trkpt lat="41.9131976" lon="12.5709476"><ele>32.2</ele><time>2026-05-02T10:59:34.977Z</time></trkpt><trkpt lat="41.9132761" lon="12.5709064"><ele>31.6</ele><time>2026-05-02T10:59:35.971Z</time></trkpt><trkpt lat="41.9133382" lon="12.5708704"><ele>31.0</ele><time>2026-05-02T10:59:36.974Z</time></trkpt><trkpt lat="41.9134509" lon="12.5708262"><ele>30.4</ele><time>2026-05-02T10:59:38.987Z</time></trkpt><trkpt lat="41.9135289" lon="12.570794"><ele>29.8</ele><time>2026-05-02T10:59:39.984Z</time></trkpt><trkpt lat="41.9136305" lon="12.5707481"><ele>29.199999999999996</ele><time>2026-05-02T10:59:40.987Z</time></trkpt><trkpt lat="41.9137504" lon="12.5706981"><ele>28.599999999999998</ele><time>2026-05-02T10:59:41.991Z</time></trkpt><trkpt lat="41.9138731" lon="12.5706378"><ele>28.0</ele><time>2026-05-02T10:59:42.987Z</time></trkpt><trkpt lat="41.9139975" lon="12.5705621"><ele>28.0</ele><time>2026-05-02T10:59:44.001Z</time></trkpt><trkpt lat="41.9141381" lon="12.5704889"><ele>28.0</ele><time>2026-05-02T10:59:45.001Z</time></trkpt><trkpt lat="41.9143005" lon="12.5704001"><ele>28.0</ele><time>2026-05-02T10:59:45.985Z</time></trkpt><trkpt lat="41.9144569" lon="12.5703424"><ele>27.666666666666668</ele><time>2026-05-02T10:59:47.006Z</time></trkpt><trkpt lat="41.914645" lon="12.5702789"><ele>27.333333333333336</ele><time>2026-05-02T10:59:47.985Z</time></trkpt><trkpt lat="41.9148331" lon="12.5701942"><ele>27.0</ele><time>2026-05-02T10:59:48.987Z</time></trkpt><trkpt lat="41.9150186" lon="12.5701047"><ele>26.0</ele><time>2026-05-02T10:59:49.978Z</time></trkpt><trkpt lat="41.915177" lon="12.5699797"><ele>25.0</ele><time>2026-05-02T10:59:50.98Z</time></trkpt><trkpt lat="41.9153321" lon="12.5698712"><ele>24.0</ele><time>2026-05-02T10:59:51.987Z</time></trkpt><trkpt lat="41.9154941" lon="12.5698026"><ele>24.0</ele><time>2026-05-02T10:59:52.988Z</time></trkpt><trkpt lat="41.9156505" lon="12.5697355"><ele>24.0</ele><time>2026-05-02T10:59:53.98Z</time></trkpt><trkpt lat="41.9158141" lon="12.569655"><ele>24.0</ele><time>2026-05-02T10:59:54.983Z</time></trkpt><trkpt lat="41.9159788" lon="12.5695442"><ele>24.0</ele><time>2026-05-02T10:59:55.982Z</time></trkpt><trkpt lat="41.9161674" lon="12.5694456"><ele>24.0</ele><time>2026-05-02T10:59:56.982Z</time></trkpt><trkpt lat="41.916399" lon="12.5693124"><ele>24.0</ele><time>2026-05-02T10:59:57.98Z</time></trkpt><trkpt lat="41.9166282" lon="12.5691643"><ele>24.0</ele><time>2026-05-02T10:59:58.993Z</time></trkpt><trkpt lat="41.9168502" lon="12.5690421"><ele>24.0</ele><time>2026-05-02T11:00:00.01Z</time></trkpt><trkpt lat="41.9170706" lon="12.5689199"><ele>24.0</ele><time>2026-05-02T11:00:00.985Z</time></trkpt><trkpt lat="41.9172669" lon="12.568818"><ele>24.0</ele><time>2026-05-02T11:00:01.983Z</time></trkpt><trkpt lat="41.9174404" lon="12.5687049"><ele>24.5</ele><time>2026-05-02T11:00:03.002Z</time></trkpt><trkpt lat="41.9176375" lon="12.5685609"><ele>25.0</ele><time>2026-05-02T11:00:03.999Z</time></trkpt><trkpt lat="41.9178436" lon="12.5684236"><ele>25.0</ele><time>2026-05-02T11:00:04.981Z</time></trkpt><trkpt lat="41.9180881" lon="12.5682947"><ele>25.0</ele><time>2026-05-02T11:00:05.982Z</time></trkpt><trkpt lat="41.9182999" lon="12.5681783"><ele>24.333333333333336</ele><time>2026-05-02T11:00:06.978Z</time></trkpt><trkpt lat="41.918519" lon="12.56809"><ele>23.666666666666668</ele><time>2026-05-02T11:00:07.982Z</time></trkpt><trkpt lat="41.9187084" lon="12.5680016"><ele>23.0</ele><time>2026-05-02T11:00:08.984Z</time></trkpt><trkpt lat="41.9188956" lon="12.5679061"><ele>23.666666666666668</ele><time>2026-05-02T11:00:09.98Z</time></trkpt><trkpt lat="41.9190861" lon="12.5678116"><ele>24.333333333333336</ele><time>2026-05-02T11:00:10.988Z</time></trkpt><trkpt lat="41.9192753" lon="12.5677243"><ele>25.0</ele><time>2026-05-02T11:00:11.983Z</time></trkpt><trkpt lat="41.919452" lon="12.5676393"><ele>26.0</ele><time>2026-05-02T11:00:12.981Z</time></trkpt><trkpt lat="41.9196519" lon="12.5675764"><ele>27.0</ele><time>2026-05-02T11:00:13.984Z</time></trkpt><trkpt lat="41.9198719" lon="12.5675052"><ele>28.0</ele><time>2026-05-02T11:00:14.991Z</time></trkpt><trkpt lat="41.9200939" lon="12.5674129"><ele>26.0</ele><time>2026-05-02T11:00:15.986Z</time></trkpt><trkpt lat="41.9203165" lon="12.5673221"><ele>24.0</ele><time>2026-05-02T11:00:16.978Z</time></trkpt><trkpt lat="41.9205246" lon="12.5672554"><ele>22.0</ele><time>2026-05-02T11:00:17.982Z</time></trkpt><trkpt lat="41.9207368" lon="12.5671884"><ele>20.666666666666664</ele><time>2026-05-02T11:00:18.98Z</time></trkpt><trkpt lat="41.9209286" lon="12.5671612"><ele>19.333333333333332</ele><time>2026-05-02T11:00:19.979Z</time></trkpt><trkpt lat="41.9211057" lon="12.5671505"><ele>18.0</ele><time>2026-05-02T11:00:20.973Z</time></trkpt><trkpt lat="41.9212876" lon="12.567171"><ele>18.0</ele><time>2026-05-02T11:00:21.984Z</time></trkpt><trkpt lat="41.9214615" lon="12.5672259"><ele>18.0</ele><time>2026-05-02T11:00:22.971Z</time></trkpt><trkpt lat="41.9216111" lon="12.5673021"><ele>18.0</ele><time>2026-05-02T11:00:23.977Z</time></trkpt><trkpt lat="41.9217504" lon="12.5673943"><ele>18.5</ele><time>2026-05-02T11:00:24.987Z</time></trkpt><trkpt lat="41.9218828" lon="12.5674762"><ele>19.0</ele><time>2026-05-02T11:00:25.984Z</time></trkpt><trkpt lat="41.9220237" lon="12.5675427"><ele>19.5</ele><time>2026-05-02T11:00:26.997Z</time></trkpt><trkpt lat="41.9221516" lon="12.5676118"><ele>20.0</ele><time>2026-05-02T11:00:27.987Z</time></trkpt><trkpt lat="41.9222521" lon="12.5676983"><ele>20.0</ele><time>2026-05-02T11:00:28.991Z</time></trkpt><trkpt lat="41.9223539" lon="12.5677833"><ele>20.0</ele><time>2026-05-02T11:00:29.994Z</time></trkpt><trkpt lat="41.9224511" lon="12.5678591"><ele>20.0</ele><time>2026-05-02T11:00:30.984Z</time></trkpt><trkpt lat="41.9225741" lon="12.5679509"><ele>20.0</ele><time>2026-05-02T11:00:31.992Z</time></trkpt><trkpt lat="41.9226922" lon="12.5680637"><ele>20.333333333333336</ele><time>2026-05-02T11:00:32.986Z</time></trkpt><trkpt lat="41.922835" lon="12.5681814"><ele>20.666666666666668</ele><time>2026-05-02T11:00:34.078Z</time></trkpt><trkpt lat="41.9229872" lon="12.5683125"><ele>21.0</ele><time>2026-05-02T11:00:34.993Z</time></trkpt><trkpt lat="41.9231366" lon="12.568447"><ele>21.0</ele><time>2026-05-02T11:00:35.985Z</time></trkpt><trkpt lat="41.9233088" lon="12.5685938"><ele>21.0</ele><time>2026-05-02T11:00:36.987Z</time></trkpt><trkpt lat="41.9234654" lon="12.5687232"><ele>21.0</ele><time>2026-05-02T11:00:37.994Z</time></trkpt><trkpt lat="41.9236125" lon="12.5688456"><ele>23.666666666666664</ele><time>2026-05-02T11:00:38.986Z</time></trkpt><trkpt lat="41.9237314" lon="12.5690001"><ele>26.333333333333332</ele><time>2026-05-02T11:00:39.985Z</time></trkpt><trkpt lat="41.9238168" lon="12.5691914"><ele>29.0</ele><time>2026-05-02T11:00:41.011Z</time></trkpt><trkpt lat="41.9239074" lon="12.5694219"><ele>29.666666666666664</ele><time>2026-05-02T11:00:42.011Z</time></trkpt><trkpt lat="41.9239848" lon="12.5696908"><ele>30.333333333333336</ele><time>2026-05-02T11:00:43.005Z</time></trkpt><trkpt lat="41.9240602" lon="12.5699578"><ele>31.0</ele><time>2026-05-02T11:00:43.985Z</time></trkpt><trkpt lat="41.9241349" lon="12.5702254"><ele>31.333333333333336</ele><time>2026-05-02T11:00:44.983Z</time></trkpt><trkpt lat="41.9241914" lon="12.5704928"><ele>31.666666666666664</ele><time>2026-05-02T11:00:45.978Z</time></trkpt><trkpt lat="41.9242441" lon="12.5707559"><ele>32.0</ele><time>2026-05-02T11:00:46.995Z</time></trkpt><trkpt lat="41.9242972" lon="12.5709889"><ele>33.0</ele><time>2026-05-02T11:00:47.982Z</time></trkpt><trkpt lat="41.9243651" lon="12.5712573"><ele>34.0</ele><time>2026-05-02T11:00:48.982Z</time></trkpt><trkpt lat="41.9244285" lon="12.5714862"><ele>35.0</ele><time>2026-05-02T11:00:49.984Z</time></trkpt><trkpt lat="41.9245009" lon="12.5717092"><ele>35.0</ele><time>2026-05-02T11:00:50.984Z</time></trkpt><trkpt lat="41.9245715" lon="12.5718768"><ele>35.0</ele><time>2026-05-02T11:00:51.981Z</time></trkpt><trkpt lat="41.9246034" lon="12.5720664"><ele>35.0</ele><time>2026-05-02T11:00:53.005Z</time></trkpt><trkpt lat="41.9246417" lon="12.5722351"><ele>35.0</ele><time>2026-05-02T11:00:53.978Z</time></trkpt><trkpt lat="41.9246818" lon="12.572411"><ele>34.5</ele><time>2026-05-02T11:00:55.008Z</time></trkpt><trkpt lat="41.9247321" lon="12.5725911"><ele>34.0</ele><time>2026-05-02T11:00:55.98Z</time></trkpt><trkpt lat="41.9248019" lon="12.5727545"><ele>33.5</ele><time>2026-05-02T11:00:56.985Z</time></trkpt><trkpt lat="41.9248667" lon="12.5729093"><ele>33.0</ele><time>2026-05-02T11:00:57.979Z</time></trkpt><trkpt lat="41.9249458" lon="12.5730837"><ele>33.0</ele><time>2026-05-02T11:00:58.985Z</time></trkpt><trkpt lat="41.9250388" lon="12.5732858"><ele>33.0</ele><time>2026-05-02T11:00:59.988Z</time></trkpt><trkpt lat="41.9251183" lon="12.5734532"><ele>33.0</ele><time>2026-05-02T11:01:00.982Z</time></trkpt><trkpt lat="41.9252182" lon="12.5735691"><ele>32.0</ele><time>2026-05-02T11:01:01.98Z</time></trkpt><trkpt lat="41.9253116" lon="12.5736584"><ele>31.0</ele><time>2026-05-02T11:01:02.984Z</time></trkpt><trkpt lat="41.9254298" lon="12.5737322"><ele>30.0</ele><time>2026-05-02T11:01:03.987Z</time></trkpt><trkpt lat="41.9255458" lon="12.573831"><ele>29.0</ele><time>2026-05-02T11:01:04.979Z</time></trkpt><trkpt lat="41.9256677" lon="12.5739002"><ele>28.999999999999996</ele><time>2026-05-02T11:01:05.98Z</time></trkpt><trkpt lat="41.9257478" lon="12.5739551"><ele>29.0</ele><time>2026-05-02T11:01:06.985Z</time></trkpt><trkpt lat="41.9258073" lon="12.5739998"><ele>29.0</ele><time>2026-05-02T11:01:07.984Z</time></trkpt><trkpt lat="41.925897" lon="12.5740468"><ele>29.0</ele><time>2026-05-02T11:01:09.991Z</time></trkpt><trkpt lat="41.925955" lon="12.574107"><ele>28.999999999999996</ele><time>2026-05-02T11:01:11.985Z</time></trkpt><trkpt lat="41.9260221" lon="12.5741757"><ele>29.0</ele><time>2026-05-02T11:01:13.987Z</time></trkpt><trkpt lat="41.9261287" lon="12.5742716"><ele>28.833333333333332</ele><time>2026-05-02T11:01:15.983Z</time></trkpt><trkpt lat="41.9261845" lon="12.574326"><ele>28.666666666666664</ele><time>2026-05-02T11:01:16.987Z</time></trkpt><trkpt lat="41.9262403" lon="12.5743692"><ele>28.5</ele><time>2026-05-02T11:01:17.987Z</time></trkpt><trkpt lat="41.9263225" lon="12.574429"><ele>28.333333333333336</ele><time>2026-05-02T11:01:21.99Z</time></trkpt><trkpt lat="41.9263923" lon="12.5744455"><ele>28.166666666666668</ele><time>2026-05-02T11:01:42.999Z</time></trkpt><trkpt lat="41.9264829" lon="12.5744679"><ele>28.0</ele><time>2026-05-02T11:01:44.986Z</time></trkpt><trkpt lat="41.9265573" lon="12.5745073"><ele>28.5</ele><time>2026-05-02T11:01:45.996Z</time></trkpt><trkpt lat="41.9266418" lon="12.5745623"><ele>29.0</ele><time>2026-05-02T11:01:47.031Z</time></trkpt><trkpt lat="41.9267492" lon="12.5746394"><ele>29.5</ele><time>2026-05-02T11:01:47.99Z</time></trkpt><trkpt lat="41.9268758" lon="12.5747486"><ele>30.0</ele><time>2026-05-02T11:01:48.981Z</time></trkpt><trkpt lat="41.9270516" lon="12.5748926"><ele>30.0</ele><time>2026-05-02T11:01:49.987Z</time></trkpt><trkpt lat="41.9271978" lon="12.5750578"><ele>30.0</ele><time>2026-05-02T11:01:51.011Z</time></trkpt><trkpt lat="41.9273613" lon="12.5752273"><ele>30.0</ele><time>2026-05-02T11:01:51.99Z</time></trkpt><trkpt lat="41.9275272" lon="12.5754113"><ele>31.333333333333336</ele><time>2026-05-02T11:01:52.993Z</time></trkpt><trkpt lat="41.9276895" lon="12.5755821"><ele>32.66666666666667</ele><time>2026-05-02T11:01:53.981Z</time></trkpt><trkpt lat="41.9278335" lon="12.5757584"><ele>34.0</ele><time>2026-05-02T11:01:54.987Z</time></trkpt><trkpt lat="41.9279856" lon="12.5759321"><ele>34.0</ele><time>2026-05-02T11:01:55.983Z</time></trkpt><trkpt lat="41.9281367" lon="12.5761047"><ele>34.0</ele><time>2026-05-02T11:01:56.984Z</time></trkpt><trkpt lat="41.9282845" lon="12.5762902"><ele>34.0</ele><time>2026-05-02T11:01:57.988Z</time></trkpt><trkpt lat="41.9284489" lon="12.5764782"><ele>34.0</ele><time>2026-05-02T11:01:58.992Z</time></trkpt><trkpt lat="41.9286047" lon="12.5766918"><ele>34.0</ele><time>2026-05-02T11:01:59.986Z</time></trkpt><trkpt lat="41.9287817" lon="12.5768819"><ele>34.0</ele><time>2026-05-02T11:02:00.976Z</time></trkpt><trkpt lat="41.9289481" lon="12.577043"><ele>34.333333333333336</ele><time>2026-05-02T11:02:01.98Z</time></trkpt><trkpt lat="41.929145" lon="12.5771442"><ele>34.666666666666664</ele><time>2026-05-02T11:02:02.98Z</time></trkpt><trkpt lat="41.9293441" lon="12.5772297"><ele>35.0</ele><time>2026-05-02T11:02:03.987Z</time></trkpt><trkpt lat="41.9295176" lon="12.5773065"><ele>35.0</ele><time>2026-05-02T11:02:04.98Z</time></trkpt><trkpt lat="41.9296883" lon="12.5773748"><ele>35.0</ele><time>2026-05-02T11:02:05.983Z</time></trkpt><trkpt lat="41.9298727" lon="12.5774542"><ele>35.0</ele><time>2026-05-02T11:02:06.99Z</time></trkpt><trkpt lat="41.9300645" lon="12.5775472"><ele>35.0</ele><time>2026-05-02T11:02:08.001Z</time></trkpt><trkpt lat="41.9302597" lon="12.5776597"><ele>35.0</ele><time>2026-05-02T11:02:09.002Z</time></trkpt><trkpt lat="41.9304486" lon="12.5777815"><ele>35.0</ele><time>2026-05-02T11:02:09.989Z</time></trkpt><trkpt lat="41.9306187" lon="12.5779213"><ele>35.0</ele><time>2026-05-02T11:02:10.983Z</time></trkpt><trkpt lat="41.9307693" lon="12.5781016"><ele>35.0</ele><time>2026-05-02T11:02:11.986Z</time></trkpt><trkpt lat="41.9309218" lon="12.5783022"><ele>35.0</ele><time>2026-05-02T11:02:12.985Z</time></trkpt><trkpt lat="41.9310768" lon="12.5784817"><ele>34.666666666666664</ele><time>2026-05-02T11:02:13.983Z</time></trkpt><trkpt lat="41.9312186" lon="12.5786509"><ele>34.333333333333336</ele><time>2026-05-02T11:02:14.979Z</time></trkpt><trkpt lat="41.9313154" lon="12.5788476"><ele>34.0</ele><time>2026-05-02T11:02:15.987Z</time></trkpt><trkpt lat="41.9313934" lon="12.5790626"><ele>34.66666666666667</ele><time>2026-05-02T11:02:16.987Z</time></trkpt><trkpt lat="41.9314631" lon="12.5792944"><ele>35.333333333333336</ele><time>2026-05-02T11:02:17.983Z</time></trkpt><trkpt lat="41.9315138" lon="12.5795298"><ele>36.0</ele><time>2026-05-02T11:02:18.985Z</time></trkpt><trkpt lat="41.9315732" lon="12.5797586"><ele>36.5</ele><time>2026-05-02T11:02:19.983Z</time></trkpt><trkpt lat="41.931648" lon="12.5800529"><ele>37.0</ele><time>2026-05-02T11:02:20.98Z</time></trkpt><trkpt lat="41.9317354" lon="12.5803681"><ele>37.5</ele><time>2026-05-02T11:02:21.99Z</time></trkpt><trkpt lat="41.9318313" lon="12.5806528"><ele>38.0</ele><time>2026-05-02T11:02:22.978Z</time></trkpt><trkpt lat="41.9319215" lon="12.5809476"><ele>37.0</ele><time>2026-05-02T11:02:23.98Z</time></trkpt><trkpt lat="41.9320029" lon="12.5812564"><ele>36.0</ele><time>2026-05-02T11:02:24.992Z</time></trkpt><trkpt lat="41.9320664" lon="12.5815611"><ele>36.0</ele><time>2026-05-02T11:02:25.985Z</time></trkpt><trkpt lat="41.9321459" lon="12.581852"><ele>36.0</ele><time>2026-05-02T11:02:26.983Z</time></trkpt><trkpt lat="41.9322094" lon="12.5821686"><ele>34.5</ele><time>2026-05-02T11:02:27.985Z</time></trkpt><trkpt lat="41.9322544" lon="12.582485"><ele>33.0</ele><time>2026-05-02T11:02:28.987Z</time></trkpt><trkpt lat="41.9323137" lon="12.5827616"><ele>33.0</ele><time>2026-05-02T11:02:29.978Z</time></trkpt><trkpt lat="41.9323579" lon="12.583054"><ele>33.0</ele><time>2026-05-02T11:02:30.978Z</time></trkpt><trkpt lat="41.9324082" lon="12.5833396"><ele>33.0</ele><time>2026-05-02T11:02:31.977Z</time></trkpt><trkpt lat="41.93243" lon="12.5836067"><ele>32.6</ele><time>2026-05-02T11:02:32.974Z</time></trkpt><trkpt lat="41.9324329" lon="12.5838147"><ele>32.199999999999996</ele><time>2026-05-02T11:02:33.972Z</time></trkpt><trkpt lat="41.9324565" lon="12.5839395"><ele>31.8</ele><time>2026-05-02T11:02:34.97Z</time></trkpt><trkpt lat="41.9324557" lon="12.5840539"><ele>31.4</ele><time>2026-05-02T11:02:35.967Z</time></trkpt><trkpt lat="41.9324491" lon="12.584142"><ele>31.0</ele><time>2026-05-02T11:02:36.977Z</time></trkpt><trkpt lat="41.9324313" lon="12.5842702"><ele>31.0</ele><time>2026-05-02T11:02:38.989Z</time></trkpt><trkpt lat="41.9324192" lon="12.5843704"><ele>31.0</ele><time>2026-05-02T11:02:40.98Z</time></trkpt><trkpt lat="41.9323749" lon="12.5845007"><ele>31.0</ele><time>2026-05-02T11:02:42.986Z</time></trkpt><trkpt lat="41.9323629" lon="12.5846153"><ele>31.0</ele><time>2026-05-02T11:02:44.976Z</time></trkpt><trkpt lat="41.9323752" lon="12.5847317"><ele>31.0</ele><time>2026-05-02T11:02:54.985Z</time></trkpt><trkpt lat="41.932494" lon="12.5848141"><ele>31.0</ele><time>2026-05-02T11:02:56.983Z</time></trkpt><trkpt lat="41.9326083" lon="12.5847984"><ele>31.0</ele><time>2026-05-02T11:02:57.987Z</time></trkpt><trkpt lat="41.932748" lon="12.5847232"><ele>31.0</ele><time>2026-05-02T11:02:58.989Z</time></trkpt><trkpt lat="41.9328707" lon="12.5846199"><ele>31.0</ele><time>2026-05-02T11:02:59.974Z</time></trkpt><trkpt lat="41.9329901" lon="12.5845166"><ele>31.25</ele><time>2026-05-02T11:03:00.993Z</time></trkpt><trkpt lat="41.9331091" lon="12.5844256"><ele>31.5</ele><time>2026-05-02T11:03:01.972Z</time></trkpt><trkpt lat="41.9332308" lon="12.5843415"><ele>31.75</ele><time>2026-05-02T11:03:02.973Z</time></trkpt><trkpt lat="41.933359" lon="12.5842493"><ele>32.0</ele><time>2026-05-02T11:03:03.978Z</time></trkpt><trkpt lat="41.9335183" lon="12.5841056"><ele>32.0</ele><time>2026-05-02T11:03:04.988Z</time></trkpt><trkpt lat="41.9336827" lon="12.5839807"><ele>32.0</ele><time>2026-05-02T11:03:05.974Z</time></trkpt><trkpt lat="41.933811" lon="12.5838813"><ele>32.0</ele><time>2026-05-02T11:03:06.976Z</time></trkpt><trkpt lat="41.9339127" lon="12.5837695"><ele>32.25</ele><time>2026-05-02T11:03:07.979Z</time></trkpt><trkpt lat="41.9340207" lon="12.5836586"><ele>32.5</ele><time>2026-05-02T11:03:08.987Z</time></trkpt><trkpt lat="41.9341223" lon="12.5835638"><ele>32.75</ele><time>2026-05-02T11:03:09.982Z</time></trkpt><trkpt lat="41.9342172" lon="12.583492"><ele>33.0</ele><time>2026-05-02T11:03:10.984Z</time></trkpt><trkpt lat="41.9343121" lon="12.5834123"><ele>34.5</ele><time>2026-05-02T11:03:11.98Z</time></trkpt><trkpt lat="41.9344189" lon="12.5833348"><ele>36.0</ele><time>2026-05-02T11:03:12.977Z</time></trkpt><trkpt lat="41.9345525" lon="12.5832616"><ele>37.5</ele><time>2026-05-02T11:03:13.99Z</time></trkpt><trkpt lat="41.9346846" lon="12.5831742"><ele>39.0</ele><time>2026-05-02T11:03:14.991Z</time></trkpt><trkpt lat="41.9348011" lon="12.5830902"><ele>39.0</ele><time>2026-05-02T11:03:15.986Z</time></trkpt><trkpt lat="41.9349128" lon="12.5830182"><ele>39.0</ele><time>2026-05-02T11:03:16.979Z</time></trkpt><trkpt lat="41.9350442" lon="12.5829008"><ele>39.0</ele><time>2026-05-02T11:03:17.983Z</time></trkpt><trkpt lat="41.9352078" lon="12.5828199"><ele>39.666666666666664</ele><time>2026-05-02T11:03:18.981Z</time></trkpt><trkpt lat="41.9353658" lon="12.582728"><ele>40.33333333333333</ele><time>2026-05-02T11:03:19.974Z</time></trkpt><trkpt lat="41.9355453" lon="12.5826139"><ele>41.0</ele><time>2026-05-02T11:03:20.99Z</time></trkpt><trkpt lat="41.9356907" lon="12.5824798"><ele>41.0</ele><time>2026-05-02T11:03:21.975Z</time></trkpt><trkpt lat="41.9358324" lon="12.5823726"><ele>41.0</ele><time>2026-05-02T11:03:23.015Z</time></trkpt><trkpt lat="41.9359554" lon="12.5823046"><ele>41.0</ele><time>2026-05-02T11:03:23.969Z</time></trkpt><trkpt lat="41.9360668" lon="12.582198"><ele>41.0</ele><time>2026-05-02T11:03:24.971Z</time></trkpt><trkpt lat="41.9361875" lon="12.5821011"><ele>41.0</ele><time>2026-05-02T11:03:25.977Z</time></trkpt><trkpt lat="41.9362751" lon="12.582016"><ele>41.0</ele><time>2026-05-02T11:03:26.981Z</time></trkpt><trkpt lat="41.9363791" lon="12.5819697"><ele>41.0</ele><time>2026-05-02T11:03:28.981Z</time></trkpt><trkpt lat="41.9364666" lon="12.5818454"><ele>41.0</ele><time>2026-05-02T11:03:30.983Z</time></trkpt><trkpt lat="41.9365354" lon="12.581743"><ele>41.0</ele><time>2026-05-02T11:03:32.985Z</time></trkpt><trkpt lat="41.9366039" lon="12.581625"><ele>41.0</ele><time>2026-05-02T11:03:34.988Z</time></trkpt><trkpt lat="41.9366658" lon="12.5814912"><ele>41.0</ele><time>2026-05-02T11:03:36.993Z</time></trkpt><trkpt lat="41.936717" lon="12.5813662"><ele>41.0</ele><time>2026-05-02T11:03:38.993Z</time></trkpt><trkpt lat="41.9367601" lon="12.5812754"><ele>41.0</ele><time>2026-05-02T11:03:39.977Z</time></trkpt><trkpt lat="41.9368182" lon="12.5811869"><ele>41.0</ele><time>2026-05-02T11:03:40.978Z</time></trkpt><trkpt lat="41.9368978" lon="12.5810917"><ele>41.166666666666664</ele><time>2026-05-02T11:03:41.985Z</time></trkpt><trkpt lat="41.9369711" lon="12.5810132"><ele>41.33333333333333</ele><time>2026-05-02T11:03:42.978Z</time></trkpt><trkpt lat="41.9370312" lon="12.5809441"><ele>41.5</ele><time>2026-05-02T11:03:43.987Z</time></trkpt><trkpt lat="41.9370848" lon="12.5808704"><ele>41.666666666666664</ele><time>2026-05-02T11:03:44.978Z</time></trkpt><trkpt lat="41.9371311" lon="12.5807949"><ele>41.833333333333336</ele><time>2026-05-02T11:03:45.982Z</time></trkpt><trkpt lat="41.9371806" lon="12.5807252"><ele>42.0</ele><time>2026-05-02T11:03:46.982Z</time></trkpt><trkpt lat="41.9372531" lon="12.5806197"><ele>42.0</ele><time>2026-05-02T11:03:48.981Z</time></trkpt><trkpt lat="41.9373084" lon="12.5805624"><ele>42.0</ele><time>2026-05-02T11:03:50.971Z</time></trkpt><trkpt lat="41.9374124" lon="12.5806225"><ele>42.0</ele><time>2026-05-02T11:03:52.998Z</time></trkpt><trkpt lat="41.9374936" lon="12.580702"><ele>42.0</ele><time>2026-05-02T11:03:54.026Z</time></trkpt><trkpt lat="41.9375793" lon="12.5808261"><ele>42.0</ele><time>2026-05-02T11:03:54.983Z</time></trkpt><trkpt lat="41.9376632" lon="12.58094"><ele>41.8</ele><time>2026-05-02T11:03:55.985Z</time></trkpt><trkpt lat="41.9377522" lon="12.5810443"><ele>41.6</ele><time>2026-05-02T11:03:56.975Z</time></trkpt><trkpt lat="41.9378343" lon="12.5811459"><ele>41.4</ele><time>2026-05-02T11:03:57.986Z</time></trkpt><trkpt lat="41.9379053" lon="12.581235"><ele>41.199999999999996</ele><time>2026-05-02T11:03:58.986Z</time></trkpt><trkpt lat="41.9379771" lon="12.5813249"><ele>41.0</ele><time>2026-05-02T11:03:59.975Z</time></trkpt><trkpt lat="41.9380461" lon="12.5814181"><ele>41.0</ele><time>2026-05-02T11:04:00.973Z</time></trkpt><trkpt lat="41.9381224" lon="12.5815029"><ele>41.0</ele><time>2026-05-02T11:04:01.969Z</time></trkpt><trkpt lat="41.9381915" lon="12.581577"><ele>41.0</ele><time>2026-05-02T11:04:02.97Z</time></trkpt><trkpt lat="41.9382662" lon="12.5816575"><ele>41.0</ele><time>2026-05-02T11:04:03.965Z</time></trkpt><trkpt lat="41.9383509" lon="12.5817316"><ele>41.0</ele><time>2026-05-02T11:04:04.954Z</time></trkpt><trkpt lat="41.9384118" lon="12.5818105"><ele>40.599999999999994</ele><time>2026-05-02T11:04:05.989Z</time></trkpt><trkpt lat="41.9384676" lon="12.581889"><ele>40.199999999999996</ele><time>2026-05-02T11:04:06.985Z</time></trkpt><trkpt lat="41.938527" lon="12.581979"><ele>39.8</ele><time>2026-05-02T11:04:07.967Z</time></trkpt><trkpt lat="41.9385999" lon="12.5820876"><ele>39.4</ele><time>2026-05-02T11:04:08.972Z</time></trkpt><trkpt lat="41.9386759" lon="12.5821867"><ele>39.0</ele><time>2026-05-02T11:04:10.059Z</time></trkpt><trkpt lat="41.9387475" lon="12.5822908"><ele>39.0</ele><time>2026-05-02T11:04:11.006Z</time></trkpt><trkpt lat="41.9388166" lon="12.5823907"><ele>39.0</ele><time>2026-05-02T11:04:11.979Z</time></trkpt><trkpt lat="41.9388887" lon="12.5824737"><ele>39.0</ele><time>2026-05-02T11:04:12.98Z</time></trkpt><trkpt lat="41.9389633" lon="12.5825566"><ele>39.0</ele><time>2026-05-02T11:04:13.995Z</time></trkpt><trkpt lat="41.9390394" lon="12.5826538"><ele>39.0</ele><time>2026-05-02T11:04:14.979Z</time></trkpt><trkpt lat="41.9391152" lon="12.5827461"><ele>39.0</ele><time>2026-05-02T11:04:15.98Z</time></trkpt><trkpt lat="41.9391907" lon="12.5828255"><ele>39.0</ele><time>2026-05-02T11:04:16.992Z</time></trkpt><trkpt lat="41.9392731" lon="12.582906"><ele>39.0</ele><time>2026-05-02T11:04:17.98Z</time></trkpt><trkpt lat="41.9393613" lon="12.5829955"><ele>39.0</ele><time>2026-05-02T11:04:18.976Z</time></trkpt><trkpt lat="41.9394565" lon="12.5830879"><ele>39.0</ele><time>2026-05-02T11:04:19.97Z</time></trkpt><trkpt lat="41.9395537" lon="12.583191"><ele>38.5</ele><time>2026-05-02T11:04:20.984Z</time></trkpt><trkpt lat="41.9396438" lon="12.5833032"><ele>38.0</ele><time>2026-05-02T11:04:21.984Z</time></trkpt><trkpt lat="41.9397373" lon="12.5834111"><ele>37.5</ele><time>2026-05-02T11:04:22.979Z</time></trkpt><trkpt lat="41.9398217" lon="12.5835131"><ele>37.0</ele><time>2026-05-02T11:04:23.979Z</time></trkpt><trkpt lat="41.9399071" lon="12.5835931"><ele>37.0</ele><time>2026-05-02T11:04:24.979Z</time></trkpt><trkpt lat="41.9399869" lon="12.5836829"><ele>37.0</ele><time>2026-05-02T11:04:25.982Z</time></trkpt><trkpt lat="41.9400672" lon="12.5837722"><ele>37.0</ele><time>2026-05-02T11:04:26.984Z</time></trkpt><trkpt lat="41.9401404" lon="12.5838646"><ele>37.0</ele><time>2026-05-02T11:04:27.985Z</time></trkpt><trkpt lat="41.9402226" lon="12.5839507"><ele>37.0</ele><time>2026-05-02T11:04:28.98Z</time></trkpt><trkpt lat="41.940311" lon="12.5840336"><ele>37.0</ele><time>2026-05-02T11:04:29.976Z</time></trkpt><trkpt lat="41.9403985" lon="12.5841246"><ele>37.0</ele><time>2026-05-02T11:04:30.991Z</time></trkpt><trkpt lat="41.9404817" lon="12.5842113"><ele>37.0</ele><time>2026-05-02T11:04:31.981Z</time></trkpt><trkpt lat="41.9405556" lon="12.5842952"><ele>37.0</ele><time>2026-05-02T11:04:32.98Z</time></trkpt><trkpt lat="41.9406313" lon="12.5843745"><ele>37.0</ele><time>2026-05-02T11:04:33.983Z</time></trkpt><trkpt lat="41.9407151" lon="12.5844504"><ele>37.0</ele><time>2026-05-02T11:04:34.986Z</time></trkpt><trkpt lat="41.9408015" lon="12.584534"><ele>37.0</ele><time>2026-05-02T11:04:35.986Z</time></trkpt><trkpt lat="41.9408841" lon="12.5846109"><ele>37.0</ele><time>2026-05-02T11:04:36.988Z</time></trkpt><trkpt lat="41.9409502" lon="12.5846778"><ele>37.0</ele><time>2026-05-02T11:04:38.007Z</time></trkpt><trkpt lat="41.9410263" lon="12.5847557"><ele>37.0</ele><time>2026-05-02T11:04:38.981Z</time></trkpt><trkpt lat="41.9411138" lon="12.5848484"><ele>38.0</ele><time>2026-05-02T11:04:39.987Z</time></trkpt><trkpt lat="41.9412113" lon="12.5849619"><ele>39.0</ele><time>2026-05-02T11:04:41.022Z</time></trkpt><trkpt lat="41.9413116" lon="12.5850872"><ele>40.0</ele><time>2026-05-02T11:04:42.025Z</time></trkpt><trkpt lat="41.9414589" lon="12.5852558"><ele>39.333333333333336</ele><time>2026-05-02T11:04:43.004Z</time></trkpt><trkpt lat="41.9415817" lon="12.5854417"><ele>38.666666666666664</ele><time>2026-05-02T11:04:43.985Z</time></trkpt><trkpt lat="41.9417094" lon="12.5855938"><ele>38.0</ele><time>2026-05-02T11:04:44.992Z</time></trkpt><trkpt lat="41.9418619" lon="12.5857224"><ele>37.0</ele><time>2026-05-02T11:04:46.134Z</time></trkpt><trkpt lat="41.9421811" lon="12.5858366"><ele>36.0</ele><time>2026-05-02T11:04:47.973Z</time></trkpt><trkpt lat="41.9423615" lon="12.5858359"><ele>36.0</ele><time>2026-05-02T11:04:48.983Z</time></trkpt><trkpt lat="41.9424778" lon="12.5858957"><ele>36.0</ele><time>2026-05-02T11:04:50.011Z</time></trkpt><trkpt lat="41.942564" lon="12.5859381"><ele>36.0</ele><time>2026-05-02T11:04:50.986Z</time></trkpt><trkpt lat="41.9426515" lon="12.5859667"><ele>36.0</ele><time>2026-05-02T11:04:51.987Z</time></trkpt><trkpt lat="41.9427344" lon="12.5859876"><ele>36.0</ele><time>2026-05-02T11:04:52.99Z</time></trkpt><trkpt lat="41.9428211" lon="12.5860287"><ele>36.166666666666664</ele><time>2026-05-02T11:04:53.981Z</time></trkpt><trkpt lat="41.9428846" lon="12.5860629"><ele>36.333333333333336</ele><time>2026-05-02T11:04:54.99Z</time></trkpt><trkpt lat="41.9429649" lon="12.5861099"><ele>36.5</ele><time>2026-05-02T11:04:55.992Z</time></trkpt><trkpt lat="41.9430245" lon="12.58615"><ele>36.66666666666667</ele><time>2026-05-02T11:04:56.993Z</time></trkpt><trkpt lat="41.9430884" lon="12.5861752"><ele>36.833333333333336</ele><time>2026-05-02T11:04:57.992Z</time></trkpt><trkpt lat="41.9431712" lon="12.586189"><ele>37.0</ele><time>2026-05-02T11:04:58.998Z</time></trkpt><trkpt lat="41.9432818" lon="12.5861678"><ele>37.2</ele><time>2026-05-02T11:04:59.986Z</time></trkpt><trkpt lat="41.9433828" lon="12.5861289"><ele>37.400000000000006</ele><time>2026-05-02T11:05:00.988Z</time></trkpt><trkpt lat="41.9434785" lon="12.5860839"><ele>37.599999999999994</ele><time>2026-05-02T11:05:01.982Z</time></trkpt><trkpt lat="41.9435565" lon="12.5860494"><ele>37.8</ele><time>2026-05-02T11:05:02.99Z</time></trkpt><trkpt lat="41.9436405" lon="12.5860425"><ele>38.0</ele><time>2026-05-02T11:05:03.988Z</time></trkpt><trkpt lat="41.943737" lon="12.5860397"><ele>38.0</ele><time>2026-05-02T11:05:05.008Z</time></trkpt><trkpt lat="41.943823" lon="12.586047"><ele>38.0</ele><time>2026-05-02T11:05:05.981Z</time></trkpt><trkpt lat="41.9439018" lon="12.5860535"><ele>38.0</ele><time>2026-05-02T11:05:06.994Z</time></trkpt><trkpt lat="41.9440203" lon="12.5860791"><ele>38.0</ele><time>2026-05-02T11:05:08.988Z</time></trkpt><trkpt lat="41.9441269" lon="12.586138"><ele>38.0</ele><time>2026-05-02T11:05:10.984Z</time></trkpt><trkpt lat="41.9442058" lon="12.5861935"><ele>39.166666666666664</ele><time>2026-05-02T11:05:12.989Z</time></trkpt><trkpt lat="41.9442701" lon="12.5862458"><ele>40.33333333333333</ele><time>2026-05-02T11:05:16.017Z</time></trkpt><trkpt lat="41.9443335" lon="12.5862878"><ele>41.5</ele><time>2026-05-02T11:05:17.989Z</time></trkpt><trkpt lat="41.9443813" lon="12.5863492"><ele>42.666666666666664</ele><time>2026-05-02T11:05:19.982Z</time></trkpt><trkpt lat="41.9444265" lon="12.5864443"><ele>43.833333333333336</ele><time>2026-05-02T11:05:22.976Z</time></trkpt><trkpt lat="41.9444447" lon="12.5865858"><ele>45.0</ele><time>2026-05-02T11:05:24.979Z</time></trkpt><trkpt lat="41.9444595" lon="12.5866693"><ele>45.0</ele><time>2026-05-02T11:05:25.984Z</time></trkpt><trkpt lat="41.9444716" lon="12.5867607"><ele>45.0</ele><time>2026-05-02T11:05:26.991Z</time></trkpt><trkpt lat="41.9444779" lon="12.5869182"><ele>45.0</ele><time>2026-05-02T11:05:28.993Z</time></trkpt><trkpt lat="41.9444633" lon="12.5870912"><ele>45.0</ele><time>2026-05-02T11:05:31.008Z</time></trkpt><trkpt lat="41.94445" lon="12.5871938"><ele>45.0</ele><time>2026-05-02T11:05:32.002Z</time></trkpt><trkpt lat="41.9444301" lon="12.5873062"><ele>44.666666666666664</ele><time>2026-05-02T11:05:32.982Z</time></trkpt><trkpt lat="41.9443849" lon="12.5874255"><ele>44.333333333333336</ele><time>2026-05-02T11:05:33.982Z</time></trkpt><trkpt lat="41.9443365" lon="12.5875223"><ele>44.0</ele><time>2026-05-02T11:05:34.982Z</time></trkpt><trkpt lat="41.9442835" lon="12.587614"><ele>43.66666666666667</ele><time>2026-05-02T11:05:35.975Z</time></trkpt><trkpt lat="41.9442292" lon="12.587715"><ele>43.333333333333336</ele><time>2026-05-02T11:05:36.98Z</time></trkpt><trkpt lat="41.9442166" lon="12.5878263"><ele>43.0</ele><time>2026-05-02T11:05:38.004Z</time></trkpt><trkpt lat="41.9442417" lon="12.5879298"><ele>42.5</ele><time>2026-05-02T11:05:38.992Z</time></trkpt><trkpt lat="41.9442857" lon="12.5880198"><ele>42.0</ele><time>2026-05-02T11:05:39.979Z</time></trkpt><trkpt lat="41.9443438" lon="12.5880847"><ele>41.5</ele><time>2026-05-02T11:05:40.977Z</time></trkpt><trkpt lat="41.9444101" lon="12.5881247"><ele>41.0</ele><time>2026-05-02T11:05:41.978Z</time></trkpt><trkpt lat="41.9444877" lon="12.5881466"><ele>40.5</ele><time>2026-05-02T11:05:43Z</time></trkpt><trkpt lat="41.9445759" lon="12.5881465"><ele>40.0</ele><time>2026-05-02T11:05:44.006Z</time></trkpt><trkpt lat="41.9446711" lon="12.5881368"><ele>40.0</ele><time>2026-05-02T11:05:44.975Z</time></trkpt><trkpt lat="41.9447774" lon="12.5881472"><ele>40.0</ele><time>2026-05-02T11:05:46Z</time></trkpt><trkpt lat="41.9448414" lon="12.5881734"><ele>40.0</ele><time>2026-05-02T11:05:46.976Z</time></trkpt><trkpt lat="41.9449195" lon="12.5882116"><ele>40.0</ele><time>2026-05-02T11:05:47.981Z</time></trkpt><trkpt lat="41.9450415" lon="12.5882612"><ele>40.0</ele><time>2026-05-02T11:05:48.982Z</time></trkpt><trkpt lat="41.9451945" lon="12.5883244"><ele>40.5</ele><time>2026-05-02T11:05:49.988Z</time></trkpt><trkpt lat="41.9453344" lon="12.5884379"><ele>41.0</ele><time>2026-05-02T11:05:50.976Z</time></trkpt><trkpt lat="41.945455" lon="12.588527"><ele>41.5</ele><time>2026-05-02T11:05:51.991Z</time></trkpt><trkpt lat="41.945571" lon="12.5886354"><ele>42.0</ele><time>2026-05-02T11:05:52.981Z</time></trkpt><trkpt lat="41.9457056" lon="12.5887589"><ele>42.0</ele><time>2026-05-02T11:05:53.975Z</time></trkpt><trkpt lat="41.9458385" lon="12.588883"><ele>42.0</ele><time>2026-05-02T11:05:54.982Z</time></trkpt><trkpt lat="41.9459693" lon="12.5890219"><ele>42.0</ele><time>2026-05-02T11:05:56.007Z</time></trkpt><trkpt lat="41.9460765" lon="12.5891262"><ele>41.4</ele><time>2026-05-02T11:05:56.992Z</time></trkpt><trkpt lat="41.9461694" lon="12.5891932"><ele>40.800000000000004</ele><time>2026-05-02T11:05:58.007Z</time></trkpt><trkpt lat="41.9462375" lon="12.58923"><ele>40.2</ele><time>2026-05-02T11:05:58.979Z</time></trkpt><trkpt lat="41.9463027" lon="12.5892635"><ele>39.6</ele><time>2026-05-02T11:06:00.977Z</time></trkpt><trkpt lat="41.9462932" lon="12.5891672"><ele>39.0</ele><time>2026-05-02T11:06:02.986Z</time></trkpt><trkpt lat="41.9461896" lon="12.5890186"><ele>39.0</ele><time>2026-05-02T11:06:04.984Z</time></trkpt><trkpt lat="41.9461059" lon="12.5889049"><ele>39.0</ele><time>2026-05-02T11:06:05.981Z</time></trkpt><trkpt lat="41.9460178" lon="12.588822"><ele>39.0</ele><time>2026-05-02T11:06:06.986Z</time></trkpt><trkpt lat="41.9459209" lon="12.5887441"><ele>39.0</ele><time>2026-05-02T11:06:07.986Z</time></trkpt><trkpt lat="41.9458197" lon="12.5886608"><ele>39.8</ele><time>2026-05-02T11:06:08.978Z</time></trkpt><trkpt lat="41.9457327" lon="12.5885902"><ele>40.599999999999994</ele><time>2026-05-02T11:06:09.985Z</time></trkpt><trkpt lat="41.9456622" lon="12.5885245"><ele>41.4</ele><time>2026-05-02T11:06:10.968Z</time></trkpt><trkpt lat="41.9455884" lon="12.5884697"><ele>42.199999999999996</ele><time>2026-05-02T11:06:11.981Z</time></trkpt><trkpt lat="41.9455008" lon="12.5884148"><ele>43.0</ele><time>2026-05-02T11:06:12.99Z</time></trkpt><trkpt lat="41.9454189" lon="12.5883879"><ele>43.0</ele><time>2026-05-02T11:06:13.985Z</time></trkpt><trkpt lat="41.9453415" lon="12.5883842"><ele>43.0</ele><time>2026-05-02T11:06:14.978Z</time></trkpt><trkpt lat="41.9452499" lon="12.5884249"><ele>43.0</ele><time>2026-05-02T11:06:15.993Z</time></trkpt><trkpt lat="41.945154" lon="12.5885348"><ele>43.0</ele><time>2026-05-02T11:06:16.984Z</time></trkpt><trkpt lat="41.94507" lon="12.5886954"><ele>43.0</ele><time>2026-05-02T11:06:17.983Z</time></trkpt><trkpt lat="41.9449807" lon="12.5888425"><ele>43.25</ele><time>2026-05-02T11:06:19.003Z</time></trkpt><trkpt lat="41.9448838" lon="12.5890119"><ele>43.5</ele><time>2026-05-02T11:06:19.972Z</time></trkpt><trkpt lat="41.9447825" lon="12.5891634"><ele>43.75</ele><time>2026-05-02T11:06:20.982Z</time></trkpt><trkpt lat="41.9446984" lon="12.5892935"><ele>44.0</ele><time>2026-05-02T11:06:21.977Z</time></trkpt><trkpt lat="41.9446645" lon="12.589458"><ele>44.0</ele><time>2026-05-02T11:06:22.975Z</time></trkpt><trkpt lat="41.944649" lon="12.5896447"><ele>44.0</ele><time>2026-05-02T11:06:23.996Z</time></trkpt><trkpt lat="41.944627" lon="12.5898162"><ele>44.0</ele><time>2026-05-02T11:06:24.975Z</time></trkpt><trkpt lat="41.9446222" lon="12.5899546"><ele>44.0</ele><time>2026-05-02T11:06:25.998Z</time></trkpt><trkpt lat="41.9446401" lon="12.5900617"><ele>44.0</ele><time>2026-05-02T11:06:26.98Z</time></trkpt><trkpt lat="41.9446703" lon="12.5901772"><ele>44.0</ele><time>2026-05-02T11:06:27.999Z</time></trkpt><trkpt lat="41.9447055" lon="12.5902615"><ele>44.0</ele><time>2026-05-02T11:06:28.982Z</time></trkpt><trkpt lat="41.9447545" lon="12.590355"><ele>44.0</ele><time>2026-05-02T11:06:30.005Z</time></trkpt><trkpt lat="41.9448134" lon="12.5904408"><ele>44.0</ele><time>2026-05-02T11:06:31.004Z</time></trkpt><trkpt lat="41.9448814" lon="12.5905333"><ele>44.0</ele><time>2026-05-02T11:06:32.013Z</time></trkpt><trkpt lat="41.9449727" lon="12.5906604"><ele>43.33333333333333</ele><time>2026-05-02T11:06:33.007Z</time></trkpt><trkpt lat="41.945075" lon="12.5908352"><ele>42.666666666666664</ele><time>2026-05-02T11:06:33.976Z</time></trkpt><trkpt lat="41.9451779" lon="12.5910602"><ele>42.0</ele><time>2026-05-02T11:06:34.983Z</time></trkpt><trkpt lat="41.9452777" lon="12.5912882"><ele>42.0</ele><time>2026-05-02T11:06:36.024Z</time></trkpt><trkpt lat="41.945397" lon="12.5915379"><ele>42.0</ele><time>2026-05-02T11:06:37.001Z</time></trkpt><trkpt lat="41.9454938" lon="12.5917856"><ele>42.0</ele><time>2026-05-02T11:06:38.007Z</time></trkpt><trkpt lat="41.9456124" lon="12.5920342"><ele>42.0</ele><time>2026-05-02T11:06:39.004Z</time></trkpt><trkpt lat="41.9457166" lon="12.5922814"><ele>42.0</ele><time>2026-05-02T11:06:40.007Z</time></trkpt><trkpt lat="41.94582" lon="12.5925167"><ele>42.0</ele><time>2026-05-02T11:06:40.985Z</time></trkpt><trkpt lat="41.9459304" lon="12.5927352"><ele>41.333333333333336</ele><time>2026-05-02T11:06:41.98Z</time></trkpt><trkpt lat="41.9460134" lon="12.5929615"><ele>40.66666666666667</ele><time>2026-05-02T11:06:42.974Z</time></trkpt><trkpt lat="41.9461257" lon="12.5931184"><ele>40.0</ele><time>2026-05-02T11:06:44.007Z</time></trkpt><trkpt lat="41.9462036" lon="12.5932739"><ele>40.0</ele><time>2026-05-02T11:06:45.001Z</time></trkpt><trkpt lat="41.9462814" lon="12.5934394"><ele>40.0</ele><time>2026-05-02T11:06:45.982Z</time></trkpt><trkpt lat="41.9463556" lon="12.5935975"><ele>40.0</ele><time>2026-05-02T11:06:46.987Z</time></trkpt><trkpt lat="41.9464215" lon="12.5937332"><ele>40.0</ele><time>2026-05-02T11:06:47.981Z</time></trkpt><trkpt lat="41.9464818" lon="12.5938604"><ele>40.0</ele><time>2026-05-02T11:06:48.987Z</time></trkpt><trkpt lat="41.9465635" lon="12.5939921"><ele>40.0</ele><time>2026-05-02T11:06:50.001Z</time></trkpt><trkpt lat="41.9466592" lon="12.5941821"><ele>40.0</ele><time>2026-05-02T11:06:51.031Z</time></trkpt><trkpt lat="41.9467548" lon="12.5943898"><ele>40.333333333333336</ele><time>2026-05-02T11:06:52.006Z</time></trkpt><trkpt lat="41.9468819" lon="12.5946165"><ele>40.666666666666664</ele><time>2026-05-02T11:06:52.983Z</time></trkpt><trkpt lat="41.9470002" lon="12.5948562"><ele>41.0</ele><time>2026-05-02T11:06:53.987Z</time></trkpt><trkpt lat="41.9471162" lon="12.5951145"><ele>40.0</ele><time>2026-05-02T11:06:54.983Z</time></trkpt><trkpt lat="41.9472621" lon="12.5953588"><ele>39.0</ele><time>2026-05-02T11:06:55.979Z</time></trkpt><trkpt lat="41.9473929" lon="12.5956215"><ele>39.0</ele><time>2026-05-02T11:06:56.988Z</time></trkpt><trkpt lat="41.9475314" lon="12.5958607"><ele>39.0</ele><time>2026-05-02T11:06:57.988Z</time></trkpt><trkpt lat="41.9476532" lon="12.5960903"><ele>39.0</ele><time>2026-05-02T11:06:59.016Z</time></trkpt><trkpt lat="41.9477681" lon="12.5963271"><ele>40.0</ele><time>2026-05-02T11:06:59.985Z</time></trkpt><trkpt lat="41.9478639" lon="12.5965721"><ele>41.0</ele><time>2026-05-02T11:07:00.982Z</time></trkpt><trkpt lat="41.9479789" lon="12.5968109"><ele>42.0</ele><time>2026-05-02T11:07:01.985Z</time></trkpt><trkpt lat="41.9481237" lon="12.5970422"><ele>43.5</ele><time>2026-05-02T11:07:02.977Z</time></trkpt><trkpt lat="41.9482509" lon="12.5972984"><ele>45.0</ele><time>2026-05-02T11:07:03.979Z</time></trkpt><trkpt lat="41.9484061" lon="12.5975631"><ele>46.0</ele><time>2026-05-02T11:07:04.986Z</time></trkpt><trkpt lat="41.9485354" lon="12.5978721"><ele>47.0</ele><time>2026-05-02T11:07:05.975Z</time></trkpt><trkpt lat="41.9486735" lon="12.5981065"><ele>47.0</ele><time>2026-05-02T11:07:06.98Z</time></trkpt><trkpt lat="41.948832" lon="12.598333"><ele>47.0</ele><time>2026-05-02T11:07:07.981Z</time></trkpt><trkpt lat="41.9489977" lon="12.5985363"><ele>46.666666666666664</ele><time>2026-05-02T11:07:08.979Z</time></trkpt><trkpt lat="41.9491645" lon="12.5987318"><ele>46.333333333333336</ele><time>2026-05-02T11:07:09.973Z</time></trkpt><trkpt lat="41.9493377" lon="12.5989037"><ele>46.0</ele><time>2026-05-02T11:07:10.976Z</time></trkpt><trkpt lat="41.9494944" lon="12.599075"><ele>46.66666666666667</ele><time>2026-05-02T11:07:11.977Z</time></trkpt><trkpt lat="41.9496802" lon="12.5992307"><ele>47.333333333333336</ele><time>2026-05-02T11:07:13.002Z</time></trkpt><trkpt lat="41.9498596" lon="12.599383"><ele>48.0</ele><time>2026-05-02T11:07:13.981Z</time></trkpt><trkpt lat="41.9500577" lon="12.5995185"><ele>48.33333333333333</ele><time>2026-05-02T11:07:14.973Z</time></trkpt><trkpt lat="41.9502418" lon="12.5996459"><ele>48.666666666666664</ele><time>2026-05-02T11:07:15.984Z</time></trkpt><trkpt lat="41.9504171" lon="12.5997786"><ele>49.0</ele><time>2026-05-02T11:07:16.985Z</time></trkpt><trkpt lat="41.9506178" lon="12.5999269"><ele>49.0</ele><time>2026-05-02T11:07:17.985Z</time></trkpt><trkpt lat="41.9508124" lon="12.6000445"><ele>49.0</ele><time>2026-05-02T11:07:18.987Z</time></trkpt><trkpt lat="41.9509864" lon="12.6001734"><ele>49.0</ele><time>2026-05-02T11:07:19.989Z</time></trkpt><trkpt lat="41.9511891" lon="12.6003137"><ele>49.0</ele><time>2026-05-02T11:07:20.975Z</time></trkpt><trkpt lat="41.9513947" lon="12.6004899"><ele>49.0</ele><time>2026-05-02T11:07:21.983Z</time></trkpt><trkpt lat="41.9516008" lon="12.6006392"><ele>49.5</ele><time>2026-05-02T11:07:22.99Z</time></trkpt><trkpt lat="41.9518263" lon="12.6007829"><ele>50.0</ele><time>2026-05-02T11:07:23.982Z</time></trkpt><trkpt lat="41.9520481" lon="12.600946"><ele>50.0</ele><time>2026-05-02T11:07:24.985Z</time></trkpt><trkpt lat="41.9522621" lon="12.6010917"><ele>50.0</ele><time>2026-05-02T11:07:25.992Z</time></trkpt><trkpt lat="41.9524655" lon="12.601236"><ele>50.5</ele><time>2026-05-02T11:07:26.995Z</time></trkpt><trkpt lat="41.9526779" lon="12.6013846"><ele>51.0</ele><time>2026-05-02T11:07:27.983Z</time></trkpt><trkpt lat="41.9528989" lon="12.601541"><ele>51.0</ele><time>2026-05-02T11:07:28.998Z</time></trkpt><trkpt lat="41.9531292" lon="12.6017055"><ele>51.0</ele><time>2026-05-02T11:07:29.981Z</time></trkpt><trkpt lat="41.9533533" lon="12.6018971"><ele>52.5</ele><time>2026-05-02T11:07:30.993Z</time></trkpt><trkpt lat="41.9535692" lon="12.602062"><ele>54.0</ele><time>2026-05-02T11:07:31.985Z</time></trkpt><trkpt lat="41.9537776" lon="12.6022174"><ele>54.0</ele><time>2026-05-02T11:07:32.982Z</time></trkpt><trkpt lat="41.953998" lon="12.6023536"><ele>54.0</ele><time>2026-05-02T11:07:33.992Z</time></trkpt><trkpt lat="41.9542153" lon="12.6024998"><ele>56.0</ele><time>2026-05-02T11:07:34.988Z</time></trkpt><trkpt lat="41.9544362" lon="12.60265"><ele>58.0</ele><time>2026-05-02T11:07:35.982Z</time></trkpt><trkpt lat="41.9546658" lon="12.6028075"><ele>58.0</ele><time>2026-05-02T11:07:36.984Z</time></trkpt><trkpt lat="41.9549065" lon="12.6029556"><ele>58.0</ele><time>2026-05-02T11:07:38.011Z</time></trkpt><trkpt lat="41.9551503" lon="12.6030448"><ele>58.0</ele><time>2026-05-02T11:07:38.987Z</time></trkpt><trkpt lat="41.9553898" lon="12.6031138"><ele>58.0</ele><time>2026-05-02T11:07:39.988Z</time></trkpt><trkpt lat="41.9556299" lon="12.6031906"><ele>57.5</ele><time>2026-05-02T11:07:40.983Z</time></trkpt><trkpt lat="41.955884" lon="12.6032744"><ele>57.0</ele><time>2026-05-02T11:07:41.977Z</time></trkpt><trkpt lat="41.9561433" lon="12.6033752"><ele>57.0</ele><time>2026-05-02T11:07:42.989Z</time></trkpt><trkpt lat="41.9564171" lon="12.6034686"><ele>57.0</ele><time>2026-05-02T11:07:43.987Z</time></trkpt><trkpt lat="41.9566593" lon="12.603547"><ele>56.0</ele><time>2026-05-02T11:07:44.991Z</time></trkpt><trkpt lat="41.9568916" lon="12.6036084"><ele>55.0</ele><time>2026-05-02T11:07:45.985Z</time></trkpt><trkpt lat="41.9571079" lon="12.6036895"><ele>55.0</ele><time>2026-05-02T11:07:46.985Z</time></trkpt><trkpt lat="41.9573089" lon="12.6038023"><ele>55.0</ele><time>2026-05-02T11:07:47.971Z</time></trkpt><trkpt lat="41.9575117" lon="12.6039147"><ele>55.0</ele><time>2026-05-02T11:07:48.982Z</time></trkpt><trkpt lat="41.9576795" lon="12.6040546"><ele>54.666666666666664</ele><time>2026-05-02T11:07:49.98Z</time></trkpt><trkpt lat="41.9578321" lon="12.6042242"><ele>54.33333333333333</ele><time>2026-05-02T11:07:50.988Z</time></trkpt><trkpt lat="41.9579677" lon="12.6044552"><ele>54.0</ele><time>2026-05-02T11:07:51.988Z</time></trkpt><trkpt lat="41.9580963" lon="12.6047156"><ele>54.0</ele><time>2026-05-02T11:07:52.979Z</time></trkpt><trkpt lat="41.9582256" lon="12.6049984"><ele>54.0</ele><time>2026-05-02T11:07:53.986Z</time></trkpt><trkpt lat="41.9583492" lon="12.6053133"><ele>56.0</ele><time>2026-05-02T11:07:54.986Z</time></trkpt><trkpt lat="41.958475" lon="12.6056244"><ele>58.0</ele><time>2026-05-02T11:07:55.98Z</time></trkpt><trkpt lat="41.9585713" lon="12.6059229"><ele>58.33333333333333</ele><time>2026-05-02T11:07:56.988Z</time></trkpt><trkpt lat="41.9586674" lon="12.6061779"><ele>58.66666666666667</ele><time>2026-05-02T11:07:57.98Z</time></trkpt><trkpt lat="41.9587602" lon="12.6064173"><ele>59.0</ele><time>2026-05-02T11:07:59Z</time></trkpt><trkpt lat="41.958861" lon="12.6066381"><ele>59.0</ele><time>2026-05-02T11:07:59.99Z</time></trkpt><trkpt lat="41.9589583" lon="12.6068813"><ele>59.0</ele><time>2026-05-02T11:08:00.982Z</time></trkpt><trkpt lat="41.9590487" lon="12.6071099"><ele>59.0</ele><time>2026-05-02T11:08:01.982Z</time></trkpt><trkpt lat="41.9591269" lon="12.6072908"><ele>59.25</ele><time>2026-05-02T11:08:02.983Z</time></trkpt><trkpt lat="41.9591916" lon="12.6074465"><ele>59.5</ele><time>2026-05-02T11:08:03.977Z</time></trkpt><trkpt lat="41.9592443" lon="12.6075734"><ele>59.75</ele><time>2026-05-02T11:08:04.978Z</time></trkpt><trkpt lat="41.9592626" lon="12.607717"><ele>60.0</ele><time>2026-05-02T11:08:05.988Z</time></trkpt><trkpt lat="41.9592763" lon="12.6078659"><ele>60.2</ele><time>2026-05-02T11:08:06.978Z</time></trkpt><trkpt lat="41.9592797" lon="12.6080019"><ele>60.4</ele><time>2026-05-02T11:08:07.983Z</time></trkpt><trkpt lat="41.9592846" lon="12.608118"><ele>60.599999999999994</ele><time>2026-05-02T11:08:08.982Z</time></trkpt><trkpt lat="41.9593168" lon="12.6082263"><ele>60.8</ele><time>2026-05-02T11:08:09.983Z</time></trkpt><trkpt lat="41.9593739" lon="12.6083288"><ele>61.0</ele><time>2026-05-02T11:08:11.005Z</time></trkpt><trkpt lat="41.9594602" lon="12.608407"><ele>61.0</ele><time>2026-05-02T11:08:11.998Z</time></trkpt><trkpt lat="41.9595559" lon="12.6085034"><ele>61.0</ele><time>2026-05-02T11:08:13.026Z</time></trkpt><trkpt lat="41.9596504" lon="12.6086185"><ele>61.0</ele><time>2026-05-02T11:08:14.028Z</time></trkpt><trkpt lat="41.959737" lon="12.6087454"><ele>61.0</ele><time>2026-05-02T11:08:14.98Z</time></trkpt><trkpt lat="41.9598141" lon="12.6088937"><ele>61.666666666666664</ele><time>2026-05-02T11:08:15.988Z</time></trkpt><trkpt lat="41.9599049" lon="12.6090616"><ele>62.33333333333333</ele><time>2026-05-02T11:08:16.991Z</time></trkpt><trkpt lat="41.9600432" lon="12.609274"><ele>63.0</ele><time>2026-05-02T11:08:18.03Z</time></trkpt><trkpt lat="41.9602018" lon="12.6094791"><ele>64.0</ele><time>2026-05-02T11:08:19.007Z</time></trkpt><trkpt lat="41.9603636" lon="12.6096678"><ele>65.0</ele><time>2026-05-02T11:08:19.993Z</time></trkpt><trkpt lat="41.9605236" lon="12.6098431"><ele>66.0</ele><time>2026-05-02T11:08:21.02Z</time></trkpt><trkpt lat="41.9606786" lon="12.6099992"><ele>66.0</ele><time>2026-05-02T11:08:21.984Z</time></trkpt><trkpt lat="41.9608477" lon="12.6101299"><ele>66.0</ele><time>2026-05-02T11:08:22.982Z</time></trkpt><trkpt lat="41.96103" lon="12.6102332"><ele>66.0</ele><time>2026-05-02T11:08:24.006Z</time></trkpt><trkpt lat="41.9612274" lon="12.6103325"><ele>64.5</ele><time>2026-05-02T11:08:25.008Z</time></trkpt><trkpt lat="41.9614549" lon="12.6104209"><ele>63.0</ele><time>2026-05-02T11:08:25.985Z</time></trkpt><trkpt lat="41.9616652" lon="12.610513"><ele>63.0</ele><time>2026-05-02T11:08:27.012Z</time></trkpt><trkpt lat="41.9618936" lon="12.6105692"><ele>63.0</ele><time>2026-05-02T11:08:27.978Z</time></trkpt><trkpt lat="41.9621328" lon="12.6105957"><ele>63.0</ele><time>2026-05-02T11:08:28.996Z</time></trkpt><trkpt lat="41.9623665" lon="12.6106217"><ele>63.0</ele><time>2026-05-02T11:08:29.987Z</time></trkpt><trkpt lat="41.962569" lon="12.6106486"><ele>63.0</ele><time>2026-05-02T11:08:30.988Z</time></trkpt><trkpt lat="41.962767" lon="12.6106875"><ele>63.33333333333333</ele><time>2026-05-02T11:08:32.014Z</time></trkpt><trkpt lat="41.9629782" lon="12.6107201"><ele>63.666666666666664</ele><time>2026-05-02T11:08:32.987Z</time></trkpt><trkpt lat="41.9631895" lon="12.6107511"><ele>64.0</ele><time>2026-05-02T11:08:33.996Z</time></trkpt><trkpt lat="41.9633895" lon="12.6107753"><ele>64.66666666666666</ele><time>2026-05-02T11:08:34.984Z</time></trkpt><trkpt lat="41.9635915" lon="12.610799"><ele>65.33333333333333</ele><time>2026-05-02T11:08:35.99Z</time></trkpt><trkpt lat="41.9637857" lon="12.6108271"><ele>66.0</ele><time>2026-05-02T11:08:36.985Z</time></trkpt><trkpt lat="41.9639602" lon="12.6108593"><ele>66.0</ele><time>2026-05-02T11:08:37.987Z</time></trkpt><trkpt lat="41.9641316" lon="12.6108923"><ele>66.0</ele><time>2026-05-02T11:08:38.991Z</time></trkpt><trkpt lat="41.9643106" lon="12.6109104"><ele>66.0</ele><time>2026-05-02T11:08:39.984Z</time></trkpt><trkpt lat="41.9644752" lon="12.6109387"><ele>67.33333333333333</ele><time>2026-05-02T11:08:40.984Z</time></trkpt><trkpt lat="41.9646397" lon="12.6109758"><ele>68.66666666666666</ele><time>2026-05-02T11:08:41.987Z</time></trkpt><trkpt lat="41.9648105" lon="12.6109998"><ele>70.0</ele><time>2026-05-02T11:08:42.987Z</time></trkpt><trkpt lat="41.964971" lon="12.6110317"><ele>71.0</ele><time>2026-05-02T11:08:43.985Z</time></trkpt><trkpt lat="41.9651457" lon="12.6110764"><ele>72.0</ele><time>2026-05-02T11:08:44.985Z</time></trkpt><trkpt lat="41.9653218" lon="12.6111296"><ele>73.0</ele><time>2026-05-02T11:08:45.988Z</time></trkpt><trkpt lat="41.9655228" lon="12.6111938"><ele>73.0</ele><time>2026-05-02T11:08:46.977Z</time></trkpt><trkpt lat="41.9657368" lon="12.6112614"><ele>73.0</ele><time>2026-05-02T11:08:47.989Z</time></trkpt><trkpt lat="41.9659568" lon="12.6113156"><ele>73.0</ele><time>2026-05-02T11:08:48.989Z</time></trkpt><trkpt lat="41.9661661" lon="12.6113603"><ele>73.0</ele><time>2026-05-02T11:08:49.987Z</time></trkpt><trkpt lat="41.966381" lon="12.6114119"><ele>73.0</ele><time>2026-05-02T11:08:50.99Z</time></trkpt><trkpt lat="41.9665841" lon="12.6114761"><ele>73.0</ele><time>2026-05-02T11:08:51.98Z</time></trkpt><trkpt lat="41.9667955" lon="12.6115403"><ele>73.5</ele><time>2026-05-02T11:08:52.988Z</time></trkpt><trkpt lat="41.9670204" lon="12.6116097"><ele>74.0</ele><time>2026-05-02T11:08:53.985Z</time></trkpt><trkpt lat="41.9672327" lon="12.6116814"><ele>74.0</ele><time>2026-05-02T11:08:54.983Z</time></trkpt><trkpt lat="41.9674232" lon="12.6117288"><ele>74.0</ele><time>2026-05-02T11:08:55.988Z</time></trkpt><trkpt lat="41.9676051" lon="12.6117776"><ele>74.0</ele><time>2026-05-02T11:08:56.994Z</time></trkpt><trkpt lat="41.9677764" lon="12.611844"><ele>74.33333333333334</ele><time>2026-05-02T11:08:57.993Z</time></trkpt><trkpt lat="41.9679664" lon="12.6118924"><ele>74.66666666666667</ele><time>2026-05-02T11:08:58.986Z</time></trkpt><trkpt lat="41.9681569" lon="12.6119408"><ele>75.0</ele><time>2026-05-02T11:08:59.991Z</time></trkpt><trkpt lat="41.9683267" lon="12.6119976"><ele>76.0</ele><time>2026-05-02T11:09:00.99Z</time></trkpt><trkpt lat="41.9685005" lon="12.6120467"><ele>77.0</ele><time>2026-05-02T11:09:01.983Z</time></trkpt><trkpt lat="41.9686643" lon="12.6120913"><ele>78.0</ele><time>2026-05-02T11:09:02.992Z</time></trkpt><trkpt lat="41.9688196" lon="12.6121249"><ele>78.0</ele><time>2026-05-02T11:09:03.985Z</time></trkpt><trkpt lat="41.9689872" lon="12.6121633"><ele>78.0</ele><time>2026-05-02T11:09:04.991Z</time></trkpt><trkpt lat="41.9691565" lon="12.6122122"><ele>78.0</ele><time>2026-05-02T11:09:05.986Z</time></trkpt><trkpt lat="41.9693047" lon="12.6122572"><ele>78.5</ele><time>2026-05-02T11:09:06.984Z</time></trkpt><trkpt lat="41.9694176" lon="12.6123429"><ele>79.0</ele><time>2026-05-02T11:09:07.982Z</time></trkpt><trkpt lat="41.9695142" lon="12.6124515"><ele>79.5</ele><time>2026-05-02T11:09:08.99Z</time></trkpt><trkpt lat="41.9696119" lon="12.612584"><ele>80.0</ele><time>2026-05-02T11:09:09.979Z</time></trkpt><trkpt lat="41.9697554" lon="12.6127573"><ele>80.0</ele><time>2026-05-02T11:09:10.983Z</time></trkpt><trkpt lat="41.9698329" lon="12.612897"><ele>80.0</ele><time>2026-05-02T11:09:11.983Z</time></trkpt><trkpt lat="41.9699326" lon="12.6130505"><ele>80.0</ele><time>2026-05-02T11:09:12.984Z</time></trkpt><trkpt lat="41.9700435" lon="12.6131447"><ele>80.0</ele><time>2026-05-02T11:09:13.986Z</time></trkpt><trkpt lat="41.9701908" lon="12.6132142"><ele>80.5</ele><time>2026-05-02T11:09:14.985Z</time></trkpt><trkpt lat="41.9703216" lon="12.6132481"><ele>81.0</ele><time>2026-05-02T11:09:15.995Z</time></trkpt><trkpt lat="41.9704593" lon="12.613274"><ele>81.5</ele><time>2026-05-02T11:09:16.985Z</time></trkpt><trkpt lat="41.9705854" lon="12.6133204"><ele>82.0</ele><time>2026-05-02T11:09:18.008Z</time></trkpt><trkpt lat="41.9707086" lon="12.613354"><ele>82.0</ele><time>2026-05-02T11:09:18.991Z</time></trkpt><trkpt lat="41.9708133" lon="12.6134072"><ele>82.0</ele><time>2026-05-02T11:09:19.988Z</time></trkpt><trkpt lat="41.9709516" lon="12.6134784"><ele>82.0</ele><time>2026-05-02T11:09:20.991Z</time></trkpt><trkpt lat="41.9710853" lon="12.6135719"><ele>82.0</ele><time>2026-05-02T11:09:21.988Z</time></trkpt><trkpt lat="41.971181" lon="12.6137143"><ele>81.75</ele><time>2026-05-02T11:09:22.984Z</time></trkpt><trkpt lat="41.9712537" lon="12.6138636"><ele>81.5</ele><time>2026-05-02T11:09:23.994Z</time></trkpt><trkpt lat="41.9713107" lon="12.6140275"><ele>81.25</ele><time>2026-05-02T11:09:24.983Z</time></trkpt><trkpt lat="41.9713631" lon="12.6142104"><ele>81.0</ele><time>2026-05-02T11:09:25.987Z</time></trkpt><trkpt lat="41.9714137" lon="12.6144118"><ele>81.0</ele><time>2026-05-02T11:09:26.986Z</time></trkpt><trkpt lat="41.9714339" lon="12.6146524"><ele>81.0</ele><time>2026-05-02T11:09:27.986Z</time></trkpt><trkpt lat="41.9714133" lon="12.6148627"><ele>81.0</ele><time>2026-05-02T11:09:28.991Z</time></trkpt><trkpt lat="41.971349" lon="12.6150688"><ele>81.0</ele><time>2026-05-02T11:09:29.984Z</time></trkpt><trkpt lat="41.9712825" lon="12.615234"><ele>81.0</ele><time>2026-05-02T11:09:30.985Z</time></trkpt><trkpt lat="41.9712049" lon="12.6153987"><ele>81.0</ele><time>2026-05-02T11:09:31.978Z</time></trkpt><trkpt lat="41.9710999" lon="12.6155626"><ele>81.0</ele><time>2026-05-02T11:09:32.989Z</time></trkpt><trkpt lat="41.9709812" lon="12.6157045"><ele>80.33333333333333</ele><time>2026-05-02T11:09:33.979Z</time></trkpt><trkpt lat="41.9708361" lon="12.6158565"><ele>79.66666666666666</ele><time>2026-05-02T11:09:35.003Z</time></trkpt><trkpt lat="41.9706741" lon="12.6159705"><ele>79.0</ele><time>2026-05-02T11:09:35.984Z</time></trkpt><trkpt lat="41.9704712" lon="12.6161318"><ele>80.5</ele><time>2026-05-02T11:09:36.988Z</time></trkpt><trkpt lat="41.9702615" lon="12.6162932"><ele>82.0</ele><time>2026-05-02T11:09:37.987Z</time></trkpt><trkpt lat="41.970062" lon="12.61646"><ele>80.5</ele><time>2026-05-02T11:09:38.987Z</time></trkpt><trkpt lat="41.9698407" lon="12.616627"><ele>79.0</ele><time>2026-05-02T11:09:39.992Z</time></trkpt><trkpt lat="41.9696514" lon="12.6167921"><ele>79.0</ele><time>2026-05-02T11:09:40.984Z</time></trkpt><trkpt lat="41.9694947" lon="12.616925"><ele>79.0</ele><time>2026-05-02T11:09:41.986Z</time></trkpt><trkpt lat="41.9693365" lon="12.6170726"><ele>79.0</ele><time>2026-05-02T11:09:42.985Z</time></trkpt><trkpt lat="41.9691843" lon="12.61725"><ele>79.0</ele><time>2026-05-02T11:09:44.006Z</time></trkpt><trkpt lat="41.9690616" lon="12.6174474"><ele>79.0</ele><time>2026-05-02T11:09:44.987Z</time></trkpt><trkpt lat="41.9689796" lon="12.6176463"><ele>79.0</ele><time>2026-05-02T11:09:45.994Z</time></trkpt><trkpt lat="41.9689131" lon="12.6178255"><ele>78.4</ele><time>2026-05-02T11:09:46.991Z</time></trkpt><trkpt lat="41.968881" lon="12.6179917"><ele>77.80000000000001</ele><time>2026-05-02T11:09:47.99Z</time></trkpt><trkpt lat="41.9688506" lon="12.6181357"><ele>77.19999999999999</ele><time>2026-05-02T11:09:48.994Z</time></trkpt><trkpt lat="41.9688315" lon="12.6182378"><ele>76.6</ele><time>2026-05-02T11:09:49.992Z</time></trkpt><trkpt lat="41.9687801" lon="12.6183616"><ele>76.0</ele><time>2026-05-02T11:09:51.985Z</time></trkpt><trkpt lat="41.9687427" lon="12.6184333"><ele>76.0</ele><time>2026-05-02T11:09:53.008Z</time></trkpt><trkpt lat="41.9686125" lon="12.618479"><ele>76.0</ele><time>2026-05-02T11:09:55.014Z</time></trkpt><trkpt lat="41.968558" lon="12.6185496"><ele>76.0</ele><time>2026-05-02T11:09:56.014Z</time></trkpt><trkpt lat="41.968491" lon="12.6186498"><ele>76.0</ele><time>2026-05-02T11:09:56.987Z</time></trkpt><trkpt lat="41.9684056" lon="12.6187473"><ele>76.0</ele><time>2026-05-02T11:09:58.007Z</time></trkpt><trkpt lat="41.968306" lon="12.6188349"><ele>74.33333333333333</ele><time>2026-05-02T11:09:58.99Z</time></trkpt><trkpt lat="41.9681755" lon="12.6189207"><ele>72.66666666666667</ele><time>2026-05-02T11:09:59.987Z</time></trkpt><trkpt lat="41.9680249" lon="12.6190048"><ele>71.0</ele><time>2026-05-02T11:10:00.998Z</time></trkpt><trkpt lat="41.9678392" lon="12.6191203"><ele>71.0</ele><time>2026-05-02T11:10:01.991Z</time></trkpt><trkpt lat="41.9676111" lon="12.6192556"><ele>71.0</ele><time>2026-05-02T11:10:02.99Z</time></trkpt><trkpt lat="41.9673939" lon="12.6194114"><ele>70.0</ele><time>2026-05-02T11:10:04.004Z</time></trkpt><trkpt lat="41.9671947" lon="12.6195718"><ele>69.0</ele><time>2026-05-02T11:10:05.004Z</time></trkpt><trkpt lat="41.9670195" lon="12.6197052"><ele>68.0</ele><time>2026-05-02T11:10:05.98Z</time></trkpt><trkpt lat="41.9668511" lon="12.6198266"><ele>68.0</ele><time>2026-05-02T11:10:06.98Z</time></trkpt><trkpt lat="41.9667031" lon="12.6199404"><ele>68.0</ele><time>2026-05-02T11:10:07.994Z</time></trkpt><trkpt lat="41.9665574" lon="12.620016"><ele>68.0</ele><time>2026-05-02T11:10:09.004Z</time></trkpt><trkpt lat="41.9663968" lon="12.6200617"><ele>67.0</ele><time>2026-05-02T11:10:10.005Z</time></trkpt><trkpt lat="41.9662336" lon="12.6201339"><ele>66.0</ele><time>2026-05-02T11:10:10.985Z</time></trkpt><trkpt lat="41.9660559" lon="12.6201266"><ele>65.0</ele><time>2026-05-02T11:10:11.98Z</time></trkpt><trkpt lat="41.9658479" lon="12.6201107"><ele>63.66666666666667</ele><time>2026-05-02T11:10:12.989Z</time></trkpt><trkpt lat="41.9656597" lon="12.6200462"><ele>62.33333333333333</ele><time>2026-05-02T11:10:13.991Z</time></trkpt><trkpt lat="41.9654812" lon="12.6199699"><ele>61.0</ele><time>2026-05-02T11:10:15.011Z</time></trkpt><trkpt lat="41.9653035" lon="12.6199045"><ele>61.0</ele><time>2026-05-02T11:10:16.012Z</time></trkpt><trkpt lat="41.9651084" lon="12.6198454"><ele>61.0</ele><time>2026-05-02T11:10:17.01Z</time></trkpt><trkpt lat="41.9648819" lon="12.6197734"><ele>61.0</ele><time>2026-05-02T11:10:18.012Z</time></trkpt><trkpt lat="41.9646484" lon="12.619708"><ele>60.33333333333333</ele><time>2026-05-02T11:10:19.012Z</time></trkpt><trkpt lat="41.9644365" lon="12.6196594"><ele>59.66666666666667</ele><time>2026-05-02T11:10:20.013Z</time></trkpt><trkpt lat="41.9642236" lon="12.6196241"><ele>59.0</ele><time>2026-05-02T11:10:21.011Z</time></trkpt><trkpt lat="41.9640231" lon="12.6195767"><ele>58.333333333333336</ele><time>2026-05-02T11:10:22.024Z</time></trkpt><trkpt lat="41.9638295" lon="12.6195662"><ele>57.66666666666667</ele><time>2026-05-02T11:10:23.016Z</time></trkpt><trkpt lat="41.9636436" lon="12.6195299"><ele>57.0</ele><time>2026-05-02T11:10:24.015Z</time></trkpt><trkpt lat="41.9634755" lon="12.6195078"><ele>55.66666666666667</ele><time>2026-05-02T11:10:25.015Z</time></trkpt><trkpt lat="41.9632926" lon="12.6195206"><ele>54.333333333333336</ele><time>2026-05-02T11:10:26.014Z</time></trkpt><trkpt lat="41.9631042" lon="12.6195728"><ele>53.0</ele><time>2026-05-02T11:10:27.011Z</time></trkpt><trkpt lat="41.9629298" lon="12.6196579"><ele>53.0</ele><time>2026-05-02T11:10:28.014Z</time></trkpt><trkpt lat="41.9627552" lon="12.6197783"><ele>53.0</ele><time>2026-05-02T11:10:29.012Z</time></trkpt><trkpt lat="41.9626011" lon="12.619903"><ele>53.0</ele><time>2026-05-02T11:10:29.989Z</time></trkpt><trkpt lat="41.9624558" lon="12.6200356"><ele>51.0</ele><time>2026-05-02T11:10:30.987Z</time></trkpt><trkpt lat="41.9623214" lon="12.6202021"><ele>49.0</ele><time>2026-05-02T11:10:31.99Z</time></trkpt><trkpt lat="41.9622017" lon="12.6203845"><ele>47.0</ele><time>2026-05-02T11:10:32.999Z</time></trkpt><trkpt lat="41.9621077" lon="12.6205756"><ele>47.0</ele><time>2026-05-02T11:10:33.994Z</time></trkpt><trkpt lat="41.9620142" lon="12.6207995"><ele>47.0</ele><time>2026-05-02T11:10:34.997Z</time></trkpt><trkpt lat="41.9619484" lon="12.6210085"><ele>47.0</ele><time>2026-05-02T11:10:35.988Z</time></trkpt><trkpt lat="41.9618987" lon="12.6212291"><ele>46.666666666666664</ele><time>2026-05-02T11:10:36.989Z</time></trkpt><trkpt lat="41.961861" lon="12.6214549"><ele>46.333333333333336</ele><time>2026-05-02T11:10:37.987Z</time></trkpt><trkpt lat="41.9618462" lon="12.621685"><ele>46.0</ele><time>2026-05-02T11:10:38.997Z</time></trkpt><trkpt lat="41.9618198" lon="12.6219297"><ele>45.333333333333336</ele><time>2026-05-02T11:10:39.99Z</time></trkpt><trkpt lat="41.9617986" lon="12.6221508"><ele>44.666666666666664</ele><time>2026-05-02T11:10:40.987Z</time></trkpt><trkpt lat="41.9617908" lon="12.6223408"><ele>44.0</ele><time>2026-05-02T11:10:41.992Z</time></trkpt><trkpt lat="41.9617551" lon="12.6225367"><ele>44.0</ele><time>2026-05-02T11:10:42.988Z</time></trkpt><trkpt lat="41.961682" lon="12.6227312"><ele>44.0</ele><time>2026-05-02T11:10:43.988Z</time></trkpt><trkpt lat="41.9615934" lon="12.6228856"><ele>44.0</ele><time>2026-05-02T11:10:44.991Z</time></trkpt><trkpt lat="41.9614691" lon="12.6230111"><ele>41.666666666666664</ele><time>2026-05-02T11:10:45.987Z</time></trkpt><trkpt lat="41.961374" lon="12.6231599"><ele>39.333333333333336</ele><time>2026-05-02T11:10:46.984Z</time></trkpt><trkpt lat="41.9612365" lon="12.6232793"><ele>37.0</ele><time>2026-05-02T11:10:47.995Z</time></trkpt><trkpt lat="41.9611097" lon="12.6233831"><ele>37.0</ele><time>2026-05-02T11:10:48.992Z</time></trkpt><trkpt lat="41.9609975" lon="12.6234798"><ele>37.0</ele><time>2026-05-02T11:10:49.974Z</time></trkpt><trkpt lat="41.960917" lon="12.6235171"><ele>37.0</ele><time>2026-05-02T11:10:51.017Z</time></trkpt><trkpt lat="41.9608453" lon="12.6235512"><ele>37.0</ele><time>2026-05-02T11:10:51.987Z</time></trkpt><trkpt lat="41.9607453" lon="12.6235593"><ele>37.0</ele><time>2026-05-02T11:10:52.987Z</time></trkpt><trkpt lat="41.9606504" lon="12.6235302"><ele>37.142857142857146</ele><time>2026-05-02T11:10:53.993Z</time></trkpt><trkpt lat="41.9605774" lon="12.6234978"><ele>37.285714285714285</ele><time>2026-05-02T11:10:55.012Z</time></trkpt><trkpt lat="41.9605279" lon="12.6235717"><ele>37.42857142857143</ele><time>2026-05-02T11:10:56.045Z</time></trkpt><trkpt lat="41.9604946" lon="12.6236511"><ele>37.57142857142857</ele><time>2026-05-02T11:10:57.038Z</time></trkpt><trkpt lat="41.9604596" lon="12.623738"><ele>37.714285714285715</ele><time>2026-05-02T11:10:58.01Z</time></trkpt><trkpt lat="41.9604519" lon="12.6238293"><ele>37.857142857142854</ele><time>2026-05-02T11:10:59.02Z</time></trkpt><trkpt lat="41.9604834" lon="12.6239334"><ele>38.0</ele><time>2026-05-02T11:11:00.021Z</time></trkpt><trkpt lat="41.9605518" lon="12.6240386"><ele>38.0</ele><time>2026-05-02T11:11:01.01Z</time></trkpt><trkpt lat="41.9606337" lon="12.6241177"><ele>38.0</ele><time>2026-05-02T11:11:02.03Z</time></trkpt><trkpt lat="41.9607084" lon="12.6242112"><ele>38.0</ele><time>2026-05-02T11:11:02.98Z</time></trkpt><trkpt lat="41.9607686" lon="12.6243392"><ele>38.0</ele><time>2026-05-02T11:11:04.063Z</time></trkpt><trkpt lat="41.9608199" lon="12.6245032"><ele>38.0</ele><time>2026-05-02T11:11:04.984Z</time></trkpt><trkpt lat="41.9608616" lon="12.6246693"><ele>39.5</ele><time>2026-05-02T11:11:05.985Z</time></trkpt><trkpt lat="41.9609083" lon="12.6248354"><ele>41.0</ele><time>2026-05-02T11:11:06.976Z</time></trkpt><trkpt lat="41.9609541" lon="12.6249935"><ele>42.5</ele><time>2026-05-02T11:11:08.009Z</time></trkpt><trkpt lat="41.9609941" lon="12.6251472"><ele>44.0</ele><time>2026-05-02T11:11:08.974Z</time></trkpt><trkpt lat="41.9610352" lon="12.6253004"><ele>43.25</ele><time>2026-05-02T11:11:10Z</time></trkpt><trkpt lat="41.9610855" lon="12.6254695"><ele>42.5</ele><time>2026-05-02T11:11:10.987Z</time></trkpt><trkpt lat="41.961145" lon="12.6256341"><ele>41.75</ele><time>2026-05-02T11:11:11.968Z</time></trkpt><trkpt lat="41.9612043" lon="12.6258193"><ele>41.0</ele><time>2026-05-02T11:11:12.979Z</time></trkpt><trkpt lat="41.9612758" lon="12.6260478"><ele>38.0</ele><time>2026-05-02T11:11:13.981Z</time></trkpt><trkpt lat="41.9613423" lon="12.6262775"><ele>35.0</ele><time>2026-05-02T11:11:14.982Z</time></trkpt><trkpt lat="41.9614239" lon="12.6264435"><ele>32.0</ele><time>2026-05-02T11:11:15.979Z</time></trkpt><trkpt lat="41.9615236" lon="12.6265739"><ele>32.0</ele><time>2026-05-02T11:11:16.983Z</time></trkpt><trkpt lat="41.9616264" lon="12.626717"><ele>32.0</ele><time>2026-05-02T11:11:17.979Z</time></trkpt><trkpt lat="41.9617325" lon="12.6268724"><ele>32.0</ele><time>2026-05-02T11:11:18.979Z</time></trkpt><trkpt lat="41.9618549" lon="12.6269835"><ele>32.0</ele><time>2026-05-02T11:11:20.011Z</time></trkpt><trkpt lat="41.9619887" lon="12.6270532"><ele>32.0</ele><time>2026-05-02T11:11:20.983Z</time></trkpt><trkpt lat="41.9621267" lon="12.6271384"><ele>32.0</ele><time>2026-05-02T11:11:21.989Z</time></trkpt><trkpt lat="41.9622842" lon="12.6271833"><ele>32.0</ele><time>2026-05-02T11:11:23.033Z</time></trkpt><trkpt lat="41.9624397" lon="12.6272095"><ele>32.0</ele><time>2026-05-02T11:11:23.987Z</time></trkpt><trkpt lat="41.9625584" lon="12.627235"><ele>32.0</ele><time>2026-05-02T11:11:25.018Z</time></trkpt><trkpt lat="41.9626791" lon="12.6272546"><ele>32.0</ele><time>2026-05-02T11:11:25.986Z</time></trkpt><trkpt lat="41.9628148" lon="12.6272658"><ele>32.5</ele><time>2026-05-02T11:11:26.991Z</time></trkpt><trkpt lat="41.9629482" lon="12.6272801"><ele>33.0</ele><time>2026-05-02T11:11:27.993Z</time></trkpt><trkpt lat="41.9630843" lon="12.6273067"><ele>33.5</ele><time>2026-05-02T11:11:28.989Z</time></trkpt><trkpt lat="41.9632397" lon="12.6273442"><ele>34.0</ele><time>2026-05-02T11:11:29.986Z</time></trkpt><trkpt lat="41.9633949" lon="12.6273697"><ele>34.66666666666667</ele><time>2026-05-02T11:11:31.016Z</time></trkpt><trkpt lat="41.9635603" lon="12.6273922"><ele>35.333333333333336</ele><time>2026-05-02T11:11:31.989Z</time></trkpt><trkpt lat="41.9637431" lon="12.6274288"><ele>36.0</ele><time>2026-05-02T11:11:33.015Z</time></trkpt><trkpt lat="41.9639301" lon="12.6274784"><ele>36.0</ele><time>2026-05-02T11:11:33.997Z</time></trkpt><trkpt lat="41.9641122" lon="12.6275396"><ele>36.0</ele><time>2026-05-02T11:11:34.994Z</time></trkpt><trkpt lat="41.9643037" lon="12.6275827"><ele>36.0</ele><time>2026-05-02T11:11:35.986Z</time></trkpt><trkpt lat="41.9645088" lon="12.6276142"><ele>36.0</ele><time>2026-05-02T11:11:36.994Z</time></trkpt><trkpt lat="41.9647188" lon="12.6276835"><ele>36.0</ele><time>2026-05-02T11:11:37.99Z</time></trkpt><trkpt lat="41.9649049" lon="12.6278055"><ele>36.0</ele><time>2026-05-02T11:11:38.992Z</time></trkpt><trkpt lat="41.9650854" lon="12.6279294"><ele>35.0</ele><time>2026-05-02T11:11:39.997Z</time></trkpt><trkpt lat="41.9652595" lon="12.6280602"><ele>34.0</ele><time>2026-05-02T11:11:40.988Z</time></trkpt><trkpt lat="41.965438" lon="12.6281772"><ele>33.0</ele><time>2026-05-02T11:11:41.997Z</time></trkpt><trkpt lat="41.9656114" lon="12.6282938"><ele>33.0</ele><time>2026-05-02T11:11:42.991Z</time></trkpt><trkpt lat="41.9657705" lon="12.6284494"><ele>33.0</ele><time>2026-05-02T11:11:43.986Z</time></trkpt><trkpt lat="41.9659404" lon="12.6286422"><ele>33.0</ele><time>2026-05-02T11:11:45Z</time></trkpt><trkpt lat="41.966103" lon="12.6287816"><ele>33.666666666666664</ele><time>2026-05-02T11:11:45.988Z</time></trkpt><trkpt lat="41.9662617" lon="12.6289077"><ele>34.33333333333333</ele><time>2026-05-02T11:11:46.993Z</time></trkpt><trkpt lat="41.9664231" lon="12.6290308"><ele>35.0</ele><time>2026-05-02T11:11:47.987Z</time></trkpt><trkpt lat="41.9665793" lon="12.629169"><ele>35.0</ele><time>2026-05-02T11:11:48.99Z</time></trkpt><trkpt lat="41.9667155" lon="12.6292932"><ele>35.0</ele><time>2026-05-02T11:11:49.991Z</time></trkpt><trkpt lat="41.9668585" lon="12.6294264"><ele>35.0</ele><time>2026-05-02T11:11:50.993Z</time></trkpt><trkpt lat="41.9669764" lon="12.6296105"><ele>35.666666666666664</ele><time>2026-05-02T11:11:51.988Z</time></trkpt><trkpt lat="41.9670776" lon="12.6298377"><ele>36.333333333333336</ele><time>2026-05-02T11:11:52.991Z</time></trkpt><trkpt lat="41.9671688" lon="12.6300435"><ele>37.0</ele><time>2026-05-02T11:11:53.989Z</time></trkpt><trkpt lat="41.9672711" lon="12.6302362"><ele>36.66666666666667</ele><time>2026-05-02T11:11:54.987Z</time></trkpt><trkpt lat="41.9673574" lon="12.630406"><ele>36.333333333333336</ele><time>2026-05-02T11:11:55.987Z</time></trkpt><trkpt lat="41.9674423" lon="12.6305917"><ele>36.0</ele><time>2026-05-02T11:11:56.985Z</time></trkpt><trkpt lat="41.9675469" lon="12.6307764"><ele>36.333333333333336</ele><time>2026-05-02T11:11:57.994Z</time></trkpt><trkpt lat="41.9676493" lon="12.6309667"><ele>36.66666666666667</ele><time>2026-05-02T11:11:58.986Z</time></trkpt><trkpt lat="41.9677458" lon="12.6311488"><ele>37.0</ele><time>2026-05-02T11:11:59.988Z</time></trkpt><trkpt lat="41.9678421" lon="12.6313424"><ele>37.0</ele><time>2026-05-02T11:12:00.986Z</time></trkpt><trkpt lat="41.9679606" lon="12.6315063"><ele>37.0</ele><time>2026-05-02T11:12:01.992Z</time></trkpt><trkpt lat="41.9680567" lon="12.6316825"><ele>37.0</ele><time>2026-05-02T11:12:02.985Z</time></trkpt><trkpt lat="41.9681463" lon="12.6318557"><ele>36.66666666666667</ele><time>2026-05-02T11:12:03.981Z</time></trkpt><trkpt lat="41.9682485" lon="12.6320522"><ele>36.333333333333336</ele><time>2026-05-02T11:12:04.991Z</time></trkpt><trkpt lat="41.9683463" lon="12.6322393"><ele>36.0</ele><time>2026-05-02T11:12:05.979Z</time></trkpt><trkpt lat="41.9684241" lon="12.6324313"><ele>36.0</ele><time>2026-05-02T11:12:06.989Z</time></trkpt><trkpt lat="41.96854" lon="12.6326112"><ele>36.0</ele><time>2026-05-02T11:12:07.99Z</time></trkpt><trkpt lat="41.9686861" lon="12.6327851"><ele>36.0</ele><time>2026-05-02T11:12:09.006Z</time></trkpt><trkpt lat="41.9688351" lon="12.63297"><ele>36.0</ele><time>2026-05-02T11:12:09.988Z</time></trkpt><trkpt lat="41.9690062" lon="12.6331277"><ele>36.0</ele><time>2026-05-02T11:12:10.996Z</time></trkpt><trkpt lat="41.9691698" lon="12.6332994"><ele>36.0</ele><time>2026-05-02T11:12:11.983Z</time></trkpt><trkpt lat="41.9693359" lon="12.6334993"><ele>37.5</ele><time>2026-05-02T11:12:13.006Z</time></trkpt><trkpt lat="41.969504" lon="12.6337196"><ele>39.0</ele><time>2026-05-02T11:12:13.989Z</time></trkpt><trkpt lat="41.9696614" lon="12.6339396"><ele>39.0</ele><time>2026-05-02T11:12:14.989Z</time></trkpt><trkpt lat="41.9697754" lon="12.6341276"><ele>39.0</ele><time>2026-05-02T11:12:15.988Z</time></trkpt><trkpt lat="41.969895" lon="12.6343128"><ele>39.0</ele><time>2026-05-02T11:12:16.991Z</time></trkpt><trkpt lat="41.9700117" lon="12.6344872"><ele>41.0</ele><time>2026-05-02T11:12:17.983Z</time></trkpt><trkpt lat="41.97011" lon="12.6346463"><ele>43.0</ele><time>2026-05-02T11:12:18.982Z</time></trkpt><trkpt lat="41.9702129" lon="12.6348087"><ele>45.0</ele><time>2026-05-02T11:12:19.989Z</time></trkpt><trkpt lat="41.9703124" lon="12.6349812"><ele>45.0</ele><time>2026-05-02T11:12:20.98Z</time></trkpt><trkpt lat="41.9703968" lon="12.6351674"><ele>45.0</ele><time>2026-05-02T11:12:22.015Z</time></trkpt><trkpt lat="41.9704939" lon="12.6353788"><ele>45.0</ele><time>2026-05-02T11:12:22.982Z</time></trkpt><trkpt lat="41.9705911" lon="12.6355721"><ele>46.0</ele><time>2026-05-02T11:12:23.998Z</time></trkpt><trkpt lat="41.9706837" lon="12.6357572"><ele>47.0</ele><time>2026-05-02T11:12:24.991Z</time></trkpt><trkpt lat="41.9707662" lon="12.6359377"><ele>48.0</ele><time>2026-05-02T11:12:25.99Z</time></trkpt><trkpt lat="41.9708591" lon="12.6361423"><ele>48.0</ele><time>2026-05-02T11:12:27.001Z</time></trkpt><trkpt lat="41.9709425" lon="12.6363524"><ele>48.0</ele><time>2026-05-02T11:12:28.017Z</time></trkpt><trkpt lat="41.9710258" lon="12.6365571"><ele>48.0</ele><time>2026-05-02T11:12:28.99Z</time></trkpt><trkpt lat="41.9711131" lon="12.6367518"><ele>48.0</ele><time>2026-05-02T11:12:29.995Z</time></trkpt><trkpt lat="41.971185" lon="12.6369524"><ele>48.0</ele><time>2026-05-02T11:12:30.996Z</time></trkpt><trkpt lat="41.9712735" lon="12.637162"><ele>48.0</ele><time>2026-05-02T11:12:31.984Z</time></trkpt><trkpt lat="41.9713631" lon="12.6373741"><ele>46.0</ele><time>2026-05-02T11:12:33Z</time></trkpt><trkpt lat="41.9714533" lon="12.6375784"><ele>44.0</ele><time>2026-05-02T11:12:33.989Z</time></trkpt><trkpt lat="41.9715311" lon="12.6377692"><ele>42.0</ele><time>2026-05-02T11:12:34.992Z</time></trkpt><trkpt lat="41.971613" lon="12.6379545"><ele>43.0</ele><time>2026-05-02T11:12:35.987Z</time></trkpt><trkpt lat="41.9716934" lon="12.6381819"><ele>44.0</ele><time>2026-05-02T11:12:36.986Z</time></trkpt><trkpt lat="41.9717883" lon="12.638409"><ele>45.0</ele><time>2026-05-02T11:12:37.983Z</time></trkpt><trkpt lat="41.9719013" lon="12.6386588"><ele>45.0</ele><time>2026-05-02T11:12:38.993Z</time></trkpt><trkpt lat="41.9720295" lon="12.6389381"><ele>45.0</ele><time>2026-05-02T11:12:39.99Z</time></trkpt><trkpt lat="41.9721606" lon="12.6392122"><ele>44.333333333333336</ele><time>2026-05-02T11:12:40.986Z</time></trkpt><trkpt lat="41.9722664" lon="12.6394892"><ele>43.66666666666667</ele><time>2026-05-02T11:12:41.988Z</time></trkpt><trkpt lat="41.9723406" lon="12.6397237"><ele>43.0</ele><time>2026-05-02T11:12:42.986Z</time></trkpt><trkpt lat="41.972422" lon="12.639946"><ele>43.0</ele><time>2026-05-02T11:12:43.989Z</time></trkpt><trkpt lat="41.9724989" lon="12.6401673"><ele>43.0</ele><time>2026-05-02T11:12:44.991Z</time></trkpt><trkpt lat="41.9725597" lon="12.6403934"><ele>43.0</ele><time>2026-05-02T11:12:45.996Z</time></trkpt><trkpt lat="41.9726213" lon="12.6406296"><ele>43.333333333333336</ele><time>2026-05-02T11:12:46.982Z</time></trkpt><trkpt lat="41.9726939" lon="12.6408587"><ele>43.666666666666664</ele><time>2026-05-02T11:12:47.989Z</time></trkpt><trkpt lat="41.9727567" lon="12.6410671"><ele>44.0</ele><time>2026-05-02T11:12:48.991Z</time></trkpt><trkpt lat="41.9728418" lon="12.6412796"><ele>44.0</ele><time>2026-05-02T11:12:49.987Z</time></trkpt><trkpt lat="41.9729352" lon="12.6414788"><ele>44.0</ele><time>2026-05-02T11:12:50.988Z</time></trkpt><trkpt lat="41.9730294" lon="12.6416567"><ele>44.0</ele><time>2026-05-02T11:12:51.998Z</time></trkpt><trkpt lat="41.9731352" lon="12.6418231"><ele>43.0</ele><time>2026-05-02T11:12:52.998Z</time></trkpt><trkpt lat="41.9732459" lon="12.6419922"><ele>42.0</ele><time>2026-05-02T11:12:53.999Z</time></trkpt><trkpt lat="41.9733259" lon="12.642155"><ele>41.0</ele><time>2026-05-02T11:12:54.993Z</time></trkpt><trkpt lat="41.9734176" lon="12.64231"><ele>42.5</ele><time>2026-05-02T11:12:56.014Z</time></trkpt><trkpt lat="41.9735004" lon="12.6424654"><ele>44.0</ele><time>2026-05-02T11:12:57.02Z</time></trkpt><trkpt lat="41.973589" lon="12.6426115"><ele>45.5</ele><time>2026-05-02T11:12:58.021Z</time></trkpt><trkpt lat="41.9736742" lon="12.642753"><ele>47.0</ele><time>2026-05-02T11:12:59.012Z</time></trkpt><trkpt lat="41.9737585" lon="12.6428981"><ele>47.0</ele><time>2026-05-02T11:12:59.991Z</time></trkpt><trkpt lat="41.9738197" lon="12.6430224"><ele>47.0</ele><time>2026-05-02T11:13:00.996Z</time></trkpt><trkpt lat="41.9738932" lon="12.6431614"><ele>47.0</ele><time>2026-05-02T11:13:01.99Z</time></trkpt><trkpt lat="41.9739634" lon="12.6432863"><ele>47.0</ele><time>2026-05-02T11:13:02.991Z</time></trkpt><trkpt lat="41.9740152" lon="12.6434061"><ele>47.0</ele><time>2026-05-02T11:13:03.993Z</time></trkpt><trkpt lat="41.9740817" lon="12.6434973"><ele>47.0</ele><time>2026-05-02T11:13:04.984Z</time></trkpt><trkpt lat="41.9741445" lon="12.6435931"><ele>47.0</ele><time>2026-05-02T11:13:05.995Z</time></trkpt><trkpt lat="41.9742048" lon="12.6437056"><ele>47.0</ele><time>2026-05-02T11:13:06.985Z</time></trkpt><trkpt lat="41.9742722" lon="12.6438256"><ele>47.0</ele><time>2026-05-02T11:13:07.989Z</time></trkpt><trkpt lat="41.9743668" lon="12.6439732"><ele>46.75</ele><time>2026-05-02T11:13:09Z</time></trkpt><trkpt lat="41.9744704" lon="12.644132"><ele>46.5</ele><time>2026-05-02T11:13:09.996Z</time></trkpt><trkpt lat="41.9745525" lon="12.6442739"><ele>46.25</ele><time>2026-05-02T11:13:10.987Z</time></trkpt><trkpt lat="41.9746277" lon="12.6443956"><ele>46.0</ele><time>2026-05-02T11:13:11.989Z</time></trkpt><trkpt lat="41.9746887" lon="12.644501"><ele>46.0</ele><time>2026-05-02T11:13:12.993Z</time></trkpt><trkpt lat="41.9747585" lon="12.6446225"><ele>46.0</ele><time>2026-05-02T11:13:13.981Z</time></trkpt><trkpt lat="41.9748536" lon="12.644772"><ele>46.0</ele><time>2026-05-02T11:13:14.983Z</time></trkpt><trkpt lat="41.9749682" lon="12.6449301"><ele>46.0</ele><time>2026-05-02T11:13:15.995Z</time></trkpt><trkpt lat="41.9750902" lon="12.6450974"><ele>45.66666666666667</ele><time>2026-05-02T11:13:16.986Z</time></trkpt><trkpt lat="41.9752109" lon="12.6452873"><ele>45.333333333333336</ele><time>2026-05-02T11:13:18Z</time></trkpt><trkpt lat="41.9753288" lon="12.6454481"><ele>45.0</ele><time>2026-05-02T11:13:18.982Z</time></trkpt><trkpt lat="41.975446" lon="12.6456087"><ele>45.0</ele><time>2026-05-02T11:13:19.98Z</time></trkpt><trkpt lat="41.9755133" lon="12.6457895"><ele>45.0</ele><time>2026-05-02T11:13:20.985Z</time></trkpt><trkpt lat="41.975584" lon="12.645981"><ele>45.0</ele><time>2026-05-02T11:13:21.994Z</time></trkpt><trkpt lat="41.9756189" lon="12.6461385"><ele>45.0</ele><time>2026-05-02T11:13:22.994Z</time></trkpt><trkpt lat="41.975634" lon="12.6462808"><ele>45.5</ele><time>2026-05-02T11:13:23.99Z</time></trkpt><trkpt lat="41.9756113" lon="12.6464367"><ele>46.0</ele><time>2026-05-02T11:13:24.991Z</time></trkpt><trkpt lat="41.9755804" lon="12.6465936"><ele>46.5</ele><time>2026-05-02T11:13:25.99Z</time></trkpt><trkpt lat="41.9755693" lon="12.6467686"><ele>47.0</ele><time>2026-05-02T11:13:26.988Z</time></trkpt><trkpt lat="41.9755204" lon="12.64696"><ele>48.25</ele><time>2026-05-02T11:13:27.988Z</time></trkpt><trkpt lat="41.9754916" lon="12.6471522"><ele>49.5</ele><time>2026-05-02T11:13:29.004Z</time></trkpt><trkpt lat="41.9754586" lon="12.6473197"><ele>50.75</ele><time>2026-05-02T11:13:29.99Z</time></trkpt><trkpt lat="41.9754263" lon="12.647462"><ele>52.0</ele><time>2026-05-02T11:13:30.984Z</time></trkpt><trkpt lat="41.9753978" lon="12.6476007"><ele>52.0</ele><time>2026-05-02T11:13:32.003Z</time></trkpt><trkpt lat="41.9753786" lon="12.6477483"><ele>52.0</ele><time>2026-05-02T11:13:33.01Z</time></trkpt><trkpt lat="41.9753456" lon="12.6479073"><ele>52.0</ele><time>2026-05-02T11:13:34.006Z</time></trkpt><trkpt lat="41.9753294" lon="12.6480697"><ele>52.0</ele><time>2026-05-02T11:13:35.001Z</time></trkpt><trkpt lat="41.9753215" lon="12.6482419"><ele>52.25</ele><time>2026-05-02T11:13:35.99Z</time></trkpt><trkpt lat="41.975314" lon="12.6484293"><ele>52.5</ele><time>2026-05-02T11:13:36.983Z</time></trkpt><trkpt lat="41.9753089" lon="12.6486377"><ele>52.75</ele><time>2026-05-02T11:13:37.982Z</time></trkpt><trkpt lat="41.9753398" lon="12.6488382"><ele>53.0</ele><time>2026-05-02T11:13:38.995Z</time></trkpt><trkpt lat="41.9753756" lon="12.6490144"><ele>52.25</ele><time>2026-05-02T11:13:39.986Z</time></trkpt><trkpt lat="41.9754104" lon="12.6491926"><ele>51.5</ele><time>2026-05-02T11:13:40.988Z</time></trkpt><trkpt lat="41.9754618" lon="12.6493816"><ele>50.75</ele><time>2026-05-02T11:13:41.989Z</time></trkpt><trkpt lat="41.9754788" lon="12.6495379"><ele>50.0</ele><time>2026-05-02T11:13:42.984Z</time></trkpt><trkpt lat="41.9755141" lon="12.6496896"><ele>50.0</ele><time>2026-05-02T11:13:43.989Z</time></trkpt><trkpt lat="41.9755236" lon="12.649845"><ele>50.0</ele><time>2026-05-02T11:13:44.992Z</time></trkpt><trkpt lat="41.9755331" lon="12.6499951"><ele>50.0</ele><time>2026-05-02T11:13:46.007Z</time></trkpt><trkpt lat="41.9755553" lon="12.6501395"><ele>50.0</ele><time>2026-05-02T11:13:47.019Z</time></trkpt><trkpt lat="41.9755712" lon="12.6502961"><ele>49.25</ele><time>2026-05-02T11:13:48.004Z</time></trkpt><trkpt lat="41.975629" lon="12.6504373"><ele>48.5</ele><time>2026-05-02T11:13:49.001Z</time></trkpt><trkpt lat="41.9756792" lon="12.6505673"><ele>47.75</ele><time>2026-05-02T11:13:50.022Z</time></trkpt><trkpt lat="41.9757404" lon="12.6506986"><ele>47.0</ele><time>2026-05-02T11:13:51.004Z</time></trkpt><trkpt lat="41.975817" lon="12.6508168"><ele>47.0</ele><time>2026-05-02T11:13:52.011Z</time></trkpt><trkpt lat="41.9759131" lon="12.6509254"><ele>47.0</ele><time>2026-05-02T11:13:53.011Z</time></trkpt><trkpt lat="41.976023" lon="12.6510215"><ele>47.0</ele><time>2026-05-02T11:13:54.026Z</time></trkpt><trkpt lat="41.9761454" lon="12.651119"><ele>47.0</ele><time>2026-05-02T11:13:55.04Z</time></trkpt><trkpt lat="41.9762737" lon="12.6512127"><ele>47.0</ele><time>2026-05-02T11:13:56.026Z</time></trkpt><trkpt lat="41.9764238" lon="12.6513001"><ele>47.0</ele><time>2026-05-02T11:13:57.034Z</time></trkpt><trkpt lat="41.9765336" lon="12.6513806"><ele>47.0</ele><time>2026-05-02T11:13:58.037Z</time></trkpt><trkpt lat="41.9766503" lon="12.6514617"><ele>47.0</ele><time>2026-05-02T11:13:59.027Z</time></trkpt><trkpt lat="41.9767412" lon="12.6515309"><ele>48.166666666666664</ele><time>2026-05-02T11:14:00.034Z</time></trkpt><trkpt lat="41.9768047" lon="12.6515822"><ele>49.33333333333333</ele><time>2026-05-02T11:14:01.021Z</time></trkpt><trkpt lat="41.9769128" lon="12.6516648"><ele>50.5</ele><time>2026-05-02T11:14:03.042Z</time></trkpt><trkpt lat="41.9769723" lon="12.651718"><ele>51.666666666666664</ele><time>2026-05-02T11:14:04.019Z</time></trkpt><trkpt lat="41.9770406" lon="12.6517737"><ele>52.833333333333336</ele><time>2026-05-02T11:14:05.036Z</time></trkpt><trkpt lat="41.9771238" lon="12.6518343"><ele>54.0</ele><time>2026-05-02T11:14:05.985Z</time></trkpt><trkpt lat="41.977224" lon="12.651914"><ele>52.5</ele><time>2026-05-02T11:14:06.981Z</time></trkpt><trkpt lat="41.9773418" lon="12.6520136"><ele>51.0</ele><time>2026-05-02T11:14:07.979Z</time></trkpt><trkpt lat="41.9774554" lon="12.6521164"><ele>49.5</ele><time>2026-05-02T11:14:08.987Z</time></trkpt><trkpt lat="41.9775796" lon="12.6522385"><ele>48.0</ele><time>2026-05-02T11:14:09.981Z</time></trkpt><trkpt lat="41.9776831" lon="12.6523302"><ele>48.0</ele><time>2026-05-02T11:14:10.984Z</time></trkpt><trkpt lat="41.9777825" lon="12.6524039"><ele>48.0</ele><time>2026-05-02T11:14:11.988Z</time></trkpt><trkpt lat="41.9778792" lon="12.6524683"><ele>48.0</ele><time>2026-05-02T11:14:12.991Z</time></trkpt><trkpt lat="41.977988" lon="12.6525521"><ele>48.0</ele><time>2026-05-02T11:14:13.987Z</time></trkpt><trkpt lat="41.9781226" lon="12.6526557"><ele>48.0</ele><time>2026-05-02T11:14:14.99Z</time></trkpt><trkpt lat="41.9782828" lon="12.6527426"><ele>48.0</ele><time>2026-05-02T11:14:15.982Z</time></trkpt><trkpt lat="41.9784195" lon="12.6528419"><ele>48.0</ele><time>2026-05-02T11:14:16.985Z</time></trkpt><trkpt lat="41.978562" lon="12.6529634"><ele>48.0</ele><time>2026-05-02T11:14:17.984Z</time></trkpt><trkpt lat="41.9787181" lon="12.6530872"><ele>48.0</ele><time>2026-05-02T11:14:18.98Z</time></trkpt><trkpt lat="41.9788431" lon="12.6531887"><ele>48.0</ele><time>2026-05-02T11:14:19.982Z</time></trkpt><trkpt lat="41.9789686" lon="12.653301"><ele>48.0</ele><time>2026-05-02T11:14:20.992Z</time></trkpt><trkpt lat="41.9790898" lon="12.6534215"><ele>48.0</ele><time>2026-05-02T11:14:21.986Z</time></trkpt><trkpt lat="41.979214" lon="12.6535431"><ele>48.0</ele><time>2026-05-02T11:14:23.003Z</time></trkpt><trkpt lat="41.9793269" lon="12.6536678"><ele>47.5</ele><time>2026-05-02T11:14:23.987Z</time></trkpt><trkpt lat="41.9794318" lon="12.6538036"><ele>47.0</ele><time>2026-05-02T11:14:25Z</time></trkpt><trkpt lat="41.9795329" lon="12.6539467"><ele>46.5</ele><time>2026-05-02T11:14:25.986Z</time></trkpt><trkpt lat="41.9796391" lon="12.6540894"><ele>46.0</ele><time>2026-05-02T11:14:26.988Z</time></trkpt><trkpt lat="41.9797417" lon="12.6542118"><ele>46.0</ele><time>2026-05-02T11:14:27.993Z</time></trkpt><trkpt lat="41.9798531" lon="12.6543348"><ele>46.0</ele><time>2026-05-02T11:14:28.989Z</time></trkpt><trkpt lat="41.9799711" lon="12.654455"><ele>46.0</ele><time>2026-05-02T11:14:29.992Z</time></trkpt><trkpt lat="41.9800788" lon="12.6545726"><ele>46.0</ele><time>2026-05-02T11:14:30.986Z</time></trkpt><trkpt lat="41.9801785" lon="12.6546809"><ele>46.5</ele><time>2026-05-02T11:14:31.979Z</time></trkpt><trkpt lat="41.9802895" lon="12.6547968"><ele>47.0</ele><time>2026-05-02T11:14:32.991Z</time></trkpt><trkpt lat="41.9803888" lon="12.6549001"><ele>47.5</ele><time>2026-05-02T11:14:33.988Z</time></trkpt><trkpt lat="41.9804776" lon="12.6550048"><ele>48.0</ele><time>2026-05-02T11:14:34.979Z</time></trkpt><trkpt lat="41.9805725" lon="12.6551177"><ele>48.0</ele><time>2026-05-02T11:14:35.992Z</time></trkpt><trkpt lat="41.9806844" lon="12.6552355"><ele>48.0</ele><time>2026-05-02T11:14:36.983Z</time></trkpt><trkpt lat="41.9807732" lon="12.6553436"><ele>48.0</ele><time>2026-05-02T11:14:37.99Z</time></trkpt><trkpt lat="41.980844" lon="12.655449"><ele>48.0</ele><time>2026-05-02T11:14:38.99Z</time></trkpt><trkpt lat="41.9809228" lon="12.6555465"><ele>49.599999999999994</ele><time>2026-05-02T11:14:39.992Z</time></trkpt><trkpt lat="41.9810046" lon="12.6556432"><ele>51.199999999999996</ele><time>2026-05-02T11:14:40.99Z</time></trkpt><trkpt lat="41.9810887" lon="12.6557378"><ele>52.8</ele><time>2026-05-02T11:14:41.984Z</time></trkpt><trkpt lat="41.9811695" lon="12.6558226"><ele>54.4</ele><time>2026-05-02T11:14:43.006Z</time></trkpt><trkpt lat="41.9812425" lon="12.655905"><ele>56.0</ele><time>2026-05-02T11:14:43.991Z</time></trkpt><trkpt lat="41.981314" lon="12.6559929"><ele>56.00000000000001</ele><time>2026-05-02T11:14:44.991Z</time></trkpt><trkpt lat="41.981383" lon="12.6560801"><ele>56.0</ele><time>2026-05-02T11:14:45.984Z</time></trkpt><trkpt lat="41.9814512" lon="12.6561492"><ele>56.0</ele><time>2026-05-02T11:14:46.988Z</time></trkpt><trkpt lat="41.9815094" lon="12.6562154"><ele>56.0</ele><time>2026-05-02T11:14:47.99Z</time></trkpt><trkpt lat="41.981565" lon="12.6562744"><ele>56.00000000000001</ele><time>2026-05-02T11:14:48.988Z</time></trkpt><trkpt lat="41.9816447" lon="12.6563591"><ele>56.0</ele><time>2026-05-02T11:14:50.995Z</time></trkpt><trkpt lat="41.9817272" lon="12.6564434"><ele>56.66666666666667</ele><time>2026-05-02T11:14:52.99Z</time></trkpt><trkpt lat="41.9818167" lon="12.6565379"><ele>57.333333333333336</ele><time>2026-05-02T11:14:54.993Z</time></trkpt><trkpt lat="41.9818645" lon="12.6565964"><ele>58.0</ele><time>2026-05-02T11:14:55.991Z</time></trkpt><trkpt lat="41.9819181" lon="12.6566468"><ele>58.66666666666667</ele><time>2026-05-02T11:14:56.992Z</time></trkpt><trkpt lat="41.9819726" lon="12.6566896"><ele>59.333333333333336</ele><time>2026-05-02T11:14:57.993Z</time></trkpt><trkpt lat="41.9820285" lon="12.6567364"><ele>60.0</ele><time>2026-05-02T11:14:58.992Z</time></trkpt><trkpt lat="41.9821236" lon="12.6568275"><ele>60.0</ele><time>2026-05-02T11:15:00.991Z</time></trkpt><trkpt lat="41.9822133" lon="12.6568894"><ele>60.0</ele><time>2026-05-02T11:15:03.009Z</time></trkpt><trkpt lat="41.9823156" lon="12.6569532"><ele>60.0</ele><time>2026-05-02T11:15:05.001Z</time></trkpt><trkpt lat="41.9823944" lon="12.6569985"><ele>60.0</ele><time>2026-05-02T11:15:07.005Z</time></trkpt><trkpt lat="41.982504" lon="12.6570601"><ele>60.0</ele><time>2026-05-02T11:15:08.984Z</time></trkpt><trkpt lat="41.9825895" lon="12.6571445"><ele>58.75</ele><time>2026-05-02T11:15:09.988Z</time></trkpt><trkpt lat="41.9826795" lon="12.6572479"><ele>57.5</ele><time>2026-05-02T11:15:10.987Z</time></trkpt><trkpt lat="41.9827914" lon="12.6573566"><ele>56.25</ele><time>2026-05-02T11:15:11.979Z</time></trkpt><trkpt lat="41.9829173" lon="12.6574636"><ele>55.0</ele><time>2026-05-02T11:15:12.989Z</time></trkpt><trkpt lat="41.9830521" lon="12.6575675"><ele>55.0</ele><time>2026-05-02T11:15:13.988Z</time></trkpt><trkpt lat="41.9832191" lon="12.6576709"><ele>55.0</ele><time>2026-05-02T11:15:14.985Z</time></trkpt><trkpt lat="41.9833814" lon="12.6577907"><ele>55.0</ele><time>2026-05-02T11:15:15.993Z</time></trkpt><trkpt lat="41.9835448" lon="12.6579159"><ele>53.75</ele><time>2026-05-02T11:15:17.007Z</time></trkpt><trkpt lat="41.9836982" lon="12.6579942"><ele>52.5</ele><time>2026-05-02T11:15:17.976Z</time></trkpt><trkpt lat="41.9838371" lon="12.6580453"><ele>51.25</ele><time>2026-05-02T11:15:18.989Z</time></trkpt><trkpt lat="41.9839739" lon="12.6580921"><ele>50.0</ele><time>2026-05-02T11:15:19.986Z</time></trkpt><trkpt lat="41.9841151" lon="12.6581542"><ele>50.66666666666667</ele><time>2026-05-02T11:15:20.99Z</time></trkpt><trkpt lat="41.9842778" lon="12.6582163"><ele>51.33333333333333</ele><time>2026-05-02T11:15:21.98Z</time></trkpt><trkpt lat="41.9844432" lon="12.6582892"><ele>52.0</ele><time>2026-05-02T11:15:22.986Z</time></trkpt><trkpt lat="41.9846003" lon="12.6583978"><ele>52.0</ele><time>2026-05-02T11:15:23.976Z</time></trkpt><trkpt lat="41.9847461" lon="12.6584836"><ele>52.0</ele><time>2026-05-02T11:15:24.985Z</time></trkpt><trkpt lat="41.9849073" lon="12.6585402"><ele>52.0</ele><time>2026-05-02T11:15:25.983Z</time></trkpt><trkpt lat="41.9850289" lon="12.6586188"><ele>52.75</ele><time>2026-05-02T11:15:26.981Z</time></trkpt><trkpt lat="41.9851337" lon="12.6586874"><ele>53.5</ele><time>2026-05-02T11:15:27.995Z</time></trkpt><trkpt lat="41.9852495" lon="12.658771"><ele>54.25</ele><time>2026-05-02T11:15:28.993Z</time></trkpt><trkpt lat="41.9853699" lon="12.6588458"><ele>55.0</ele><time>2026-05-02T11:15:29.985Z</time></trkpt><trkpt lat="41.9855171" lon="12.6589352"><ele>55.0</ele><time>2026-05-02T11:15:30.988Z</time></trkpt><trkpt lat="41.9856148" lon="12.6590372"><ele>55.0</ele><time>2026-05-02T11:15:31.982Z</time></trkpt><trkpt lat="41.9857387" lon="12.6591202"><ele>55.0</ele><time>2026-05-02T11:15:32.974Z</time></trkpt><trkpt lat="41.985857" lon="12.6592262"><ele>55.0</ele><time>2026-05-02T11:15:33.98Z</time></trkpt><trkpt lat="41.9859648" lon="12.6593194"><ele>56.25</ele><time>2026-05-02T11:15:34.977Z</time></trkpt><trkpt lat="41.9860942" lon="12.6593537"><ele>57.5</ele><time>2026-05-02T11:15:35.978Z</time></trkpt><trkpt lat="41.9862278" lon="12.6593813"><ele>58.75</ele><time>2026-05-02T11:15:36.972Z</time></trkpt><trkpt lat="41.9863597" lon="12.6594077"><ele>60.0</ele><time>2026-05-02T11:15:38.001Z</time></trkpt><trkpt lat="41.9864837" lon="12.6593995"><ele>60.0</ele><time>2026-05-02T11:15:38.983Z</time></trkpt><trkpt lat="41.9866058" lon="12.6594067"><ele>60.0</ele><time>2026-05-02T11:15:39.978Z</time></trkpt><trkpt lat="41.9867242" lon="12.6594123"><ele>60.0</ele><time>2026-05-02T11:15:40.982Z</time></trkpt><trkpt lat="41.9868518" lon="12.6594362"><ele>60.0</ele><time>2026-05-02T11:15:41.986Z</time></trkpt><trkpt lat="41.9869776" lon="12.6594557"><ele>59.2</ele><time>2026-05-02T11:15:42.987Z</time></trkpt><trkpt lat="41.9870936" lon="12.6594665"><ele>58.4</ele><time>2026-05-02T11:15:43.993Z</time></trkpt><trkpt lat="41.987197" lon="12.6594641"><ele>57.599999999999994</ele><time>2026-05-02T11:15:44.977Z</time></trkpt><trkpt lat="41.9872969" lon="12.659478"><ele>56.8</ele><time>2026-05-02T11:15:45.993Z</time></trkpt><trkpt lat="41.9874062" lon="12.659498"><ele>56.0</ele><time>2026-05-02T11:15:46.983Z</time></trkpt><trkpt lat="41.9875179" lon="12.6595276"><ele>56.0</ele><time>2026-05-02T11:15:47.987Z</time></trkpt><trkpt lat="41.9876378" lon="12.6595694"><ele>56.0</ele><time>2026-05-02T11:15:48.979Z</time></trkpt><trkpt lat="41.987769" lon="12.6596065"><ele>56.0</ele><time>2026-05-02T11:15:49.978Z</time></trkpt><trkpt lat="41.9878915" lon="12.6596575"><ele>56.0</ele><time>2026-05-02T11:15:50.975Z</time></trkpt><trkpt lat="41.9880333" lon="12.6597539"><ele>56.0</ele><time>2026-05-02T11:15:52.061Z</time></trkpt><trkpt lat="41.988202" lon="12.6598843"><ele>56.0</ele><time>2026-05-02T11:15:53.011Z</time></trkpt><trkpt lat="41.9883623" lon="12.6600027"><ele>56.0</ele><time>2026-05-02T11:15:53.979Z</time></trkpt><trkpt lat="41.9885322" lon="12.6601309"><ele>55.75</ele><time>2026-05-02T11:15:55.028Z</time></trkpt><trkpt lat="41.9886723" lon="12.6602289"><ele>55.5</ele><time>2026-05-02T11:15:56.002Z</time></trkpt><trkpt lat="41.9887796" lon="12.6603142"><ele>55.25</ele><time>2026-05-02T11:15:56.981Z</time></trkpt><trkpt lat="41.9889059" lon="12.6604373"><ele>55.0</ele><time>2026-05-02T11:15:58.982Z</time></trkpt><trkpt lat="41.9890219" lon="12.6605207"><ele>55.0</ele><time>2026-05-02T11:15:59.995Z</time></trkpt><trkpt lat="41.9891209" lon="12.660619"><ele>55.0</ele><time>2026-05-02T11:16:00.986Z</time></trkpt><trkpt lat="41.9892601" lon="12.6607541"><ele>55.0</ele><time>2026-05-02T11:16:01.979Z</time></trkpt><trkpt lat="41.9894052" lon="12.6608709"><ele>55.33333333333333</ele><time>2026-05-02T11:16:02.976Z</time></trkpt><trkpt lat="41.9895579" lon="12.6609877"><ele>55.66666666666667</ele><time>2026-05-02T11:16:03.974Z</time></trkpt><trkpt lat="41.9897089" lon="12.6610981"><ele>56.0</ele><time>2026-05-02T11:16:04.975Z</time></trkpt><trkpt lat="41.9898347" lon="12.661213"><ele>56.0</ele><time>2026-05-02T11:16:05.972Z</time></trkpt><trkpt lat="41.9899583" lon="12.6613163"><ele>56.0</ele><time>2026-05-02T11:16:06.979Z</time></trkpt><trkpt lat="41.9900784" lon="12.6614199"><ele>56.0</ele><time>2026-05-02T11:16:07.98Z</time></trkpt><trkpt lat="41.9901979" lon="12.6615343"><ele>56.0</ele><time>2026-05-02T11:16:08.988Z</time></trkpt><trkpt lat="41.9903386" lon="12.6616477"><ele>57.333333333333336</ele><time>2026-05-02T11:16:09.98Z</time></trkpt><trkpt lat="41.9904898" lon="12.661752"><ele>58.66666666666667</ele><time>2026-05-02T11:16:10.989Z</time></trkpt><trkpt lat="41.9906399" lon="12.6618499"><ele>60.0</ele><time>2026-05-02T11:16:11.982Z</time></trkpt><trkpt lat="41.9907804" lon="12.6619412"><ele>60.25</ele><time>2026-05-02T11:16:12.982Z</time></trkpt><trkpt lat="41.9909185" lon="12.6620463"><ele>60.5</ele><time>2026-05-02T11:16:13.99Z</time></trkpt><trkpt lat="41.9910403" lon="12.6621399"><ele>60.75</ele><time>2026-05-02T11:16:14.989Z</time></trkpt><trkpt lat="41.9911457" lon="12.6622428"><ele>61.0</ele><time>2026-05-02T11:16:15.986Z</time></trkpt><trkpt lat="41.9912361" lon="12.6623337"><ele>61.0</ele><time>2026-05-02T11:16:16.989Z</time></trkpt><trkpt lat="41.9913379" lon="12.6624278"><ele>61.0</ele><time>2026-05-02T11:16:17.982Z</time></trkpt><trkpt lat="41.9914586" lon="12.6625184"><ele>61.0</ele><time>2026-05-02T11:16:18.981Z</time></trkpt><trkpt lat="41.9915665" lon="12.6626084"><ele>61.0</ele><time>2026-05-02T11:16:19.982Z</time></trkpt><trkpt lat="41.9916641" lon="12.6626835"><ele>61.0</ele><time>2026-05-02T11:16:20.986Z</time></trkpt><trkpt lat="41.9917643" lon="12.6627382"><ele>60.99999999999999</ele><time>2026-05-02T11:16:21.981Z</time></trkpt><trkpt lat="41.9918566" lon="12.6627915"><ele>60.99999999999999</ele><time>2026-05-02T11:16:22.989Z</time></trkpt><trkpt lat="41.9919372" lon="12.6628531"><ele>61.0</ele><time>2026-05-02T11:16:23.982Z</time></trkpt><trkpt lat="41.9920273" lon="12.6629181"><ele>61.0</ele><time>2026-05-02T11:16:24.987Z</time></trkpt><trkpt lat="41.992108" lon="12.662979"><ele>61.0</ele><time>2026-05-02T11:16:25.985Z</time></trkpt><trkpt lat="41.9921785" lon="12.6630421"><ele>60.99999999999999</ele><time>2026-05-02T11:16:26.979Z</time></trkpt><trkpt lat="41.9922629" lon="12.6631093"><ele>60.99999999999999</ele><time>2026-05-02T11:16:27.985Z</time></trkpt><trkpt lat="41.9923511" lon="12.6631809"><ele>61.0</ele><time>2026-05-02T11:16:28.986Z</time></trkpt><trkpt lat="41.9924473" lon="12.6632588"><ele>61.0</ele><time>2026-05-02T11:16:29.983Z</time></trkpt><trkpt lat="41.9925529" lon="12.6633397"><ele>61.0</ele><time>2026-05-02T11:16:30.996Z</time></trkpt><trkpt lat="41.9926619" lon="12.6634229"><ele>61.0</ele><time>2026-05-02T11:16:31.989Z</time></trkpt><trkpt lat="41.9927705" lon="12.6635042"><ele>61.0</ele><time>2026-05-02T11:16:32.984Z</time></trkpt><trkpt lat="41.992872" lon="12.6635813"><ele>61.0</ele><time>2026-05-02T11:16:33.991Z</time></trkpt><trkpt lat="41.9929762" lon="12.6636683"><ele>61.0</ele><time>2026-05-02T11:16:34.988Z</time></trkpt><trkpt lat="41.9930906" lon="12.6637635"><ele>61.0</ele><time>2026-05-02T11:16:35.99Z</time></trkpt><trkpt lat="41.9931983" lon="12.6638447"><ele>61.0</ele><time>2026-05-02T11:16:36.989Z</time></trkpt><trkpt lat="41.9933047" lon="12.6639222"><ele>61.0</ele><time>2026-05-02T11:16:37.983Z</time></trkpt><trkpt lat="41.993416" lon="12.6640067"><ele>62.0</ele><time>2026-05-02T11:16:38.985Z</time></trkpt><trkpt lat="41.993532" lon="12.6640972"><ele>63.0</ele><time>2026-05-02T11:16:39.98Z</time></trkpt><trkpt lat="41.9936552" lon="12.6641864"><ele>64.0</ele><time>2026-05-02T11:16:40.98Z</time></trkpt><trkpt lat="41.9937716" lon="12.664259"><ele>65.0</ele><time>2026-05-02T11:16:41.985Z</time></trkpt><trkpt lat="41.9938909" lon="12.66439"><ele>64.0</ele><time>2026-05-02T11:16:42.987Z</time></trkpt><trkpt lat="41.9940449" lon="12.6644993"><ele>63.0</ele><time>2026-05-02T11:16:43.98Z</time></trkpt><trkpt lat="41.9941897" lon="12.664628"><ele>62.0</ele><time>2026-05-02T11:16:45.001Z</time></trkpt><trkpt lat="41.9943253" lon="12.6647598"><ele>62.0</ele><time>2026-05-02T11:16:45.982Z</time></trkpt><trkpt lat="41.9944666" lon="12.6649118"><ele>62.0</ele><time>2026-05-02T11:16:47.004Z</time></trkpt><trkpt lat="41.9946042" lon="12.6650206"><ele>62.0</ele><time>2026-05-02T11:16:47.979Z</time></trkpt><trkpt lat="41.9947198" lon="12.6651951"><ele>62.0</ele><time>2026-05-02T11:16:48.977Z</time></trkpt><trkpt lat="41.9948537" lon="12.6653065"><ele>62.0</ele><time>2026-05-02T11:16:49.979Z</time></trkpt><trkpt lat="41.9949867" lon="12.665375"><ele>62.0</ele><time>2026-05-02T11:16:51.001Z</time></trkpt><trkpt lat="41.9951026" lon="12.6654308"><ele>62.0</ele><time>2026-05-02T11:16:51.978Z</time></trkpt><trkpt lat="41.9952006" lon="12.6655072"><ele>62.0</ele><time>2026-05-02T11:16:52.974Z</time></trkpt><trkpt lat="41.9953105" lon="12.6655494"><ele>62.0</ele><time>2026-05-02T11:16:53.979Z</time></trkpt><trkpt lat="41.9954287" lon="12.6656178"><ele>62.0</ele><time>2026-05-02T11:16:55.004Z</time></trkpt><trkpt lat="41.9955582" lon="12.665671"><ele>62.0</ele><time>2026-05-02T11:16:55.974Z</time></trkpt><trkpt lat="41.9957108" lon="12.6657697"><ele>62.66666666666667</ele><time>2026-05-02T11:16:56.983Z</time></trkpt><trkpt lat="41.9958886" lon="12.6658992"><ele>63.33333333333333</ele><time>2026-05-02T11:16:57.985Z</time></trkpt><trkpt lat="41.9960714" lon="12.666042"><ele>64.0</ele><time>2026-05-02T11:16:58.98Z</time></trkpt><trkpt lat="41.9962702" lon="12.6662095"><ele>64.0</ele><time>2026-05-02T11:16:59.986Z</time></trkpt><trkpt lat="41.9964529" lon="12.666338"><ele>64.0</ele><time>2026-05-02T11:17:00.978Z</time></trkpt><trkpt lat="41.9966073" lon="12.6664421"><ele>64.0</ele><time>2026-05-02T11:17:01.975Z</time></trkpt><trkpt lat="41.9967516" lon="12.6665485"><ele>64.66666666666666</ele><time>2026-05-02T11:17:02.99Z</time></trkpt><trkpt lat="41.9968843" lon="12.6666718"><ele>65.33333333333333</ele><time>2026-05-02T11:17:03.98Z</time></trkpt><trkpt lat="41.9970397" lon="12.6667801"><ele>66.0</ele><time>2026-05-02T11:17:04.988Z</time></trkpt><trkpt lat="41.99719" lon="12.6669036"><ele>65.0</ele><time>2026-05-02T11:17:05.986Z</time></trkpt><trkpt lat="41.9973428" lon="12.6670106"><ele>64.0</ele><time>2026-05-02T11:17:06.984Z</time></trkpt><trkpt lat="41.9975082" lon="12.6670802"><ele>63.0</ele><time>2026-05-02T11:17:07.982Z</time></trkpt><trkpt lat="41.9976947" lon="12.6671526"><ele>63.0</ele><time>2026-05-02T11:17:08.988Z</time></trkpt><trkpt lat="41.9978608" lon="12.6672351"><ele>63.0</ele><time>2026-05-02T11:17:10.01Z</time></trkpt><trkpt lat="41.9980294" lon="12.667315"><ele>63.0</ele><time>2026-05-02T11:17:10.985Z</time></trkpt><trkpt lat="41.9981851" lon="12.6673958"><ele>65.33333333333333</ele><time>2026-05-02T11:17:11.983Z</time></trkpt><trkpt lat="41.9983507" lon="12.6674784"><ele>67.66666666666666</ele><time>2026-05-02T11:17:12.982Z</time></trkpt><trkpt lat="41.9985217" lon="12.6675614"><ele>70.0</ele><time>2026-05-02T11:17:13.988Z</time></trkpt><trkpt lat="41.9986708" lon="12.6676421"><ele>70.0</ele><time>2026-05-02T11:17:15.005Z</time></trkpt><trkpt lat="41.9988113" lon="12.6677147"><ele>70.0</ele><time>2026-05-02T11:17:15.992Z</time></trkpt><trkpt lat="41.9989255" lon="12.6677686"><ele>70.0</ele><time>2026-05-02T11:17:16.984Z</time></trkpt><trkpt lat="41.9990373" lon="12.6678322"><ele>70.0</ele><time>2026-05-02T11:17:17.992Z</time></trkpt><trkpt lat="41.9991334" lon="12.6678837"><ele>68.66666666666666</ele><time>2026-05-02T11:17:18.983Z</time></trkpt><trkpt lat="41.9992223" lon="12.6679121"><ele>67.33333333333333</ele><time>2026-05-02T11:17:19.994Z</time></trkpt><trkpt lat="41.9993138" lon="12.66796"><ele>66.0</ele><time>2026-05-02T11:17:20.985Z</time></trkpt><trkpt lat="41.9993776" lon="12.6680157"><ele>64.66666666666667</ele><time>2026-05-02T11:17:22.982Z</time></trkpt><trkpt lat="41.999469" lon="12.66809"><ele>63.333333333333336</ele><time>2026-05-02T11:17:24.986Z</time></trkpt><trkpt lat="41.9995258" lon="12.6681477"><ele>62.0</ele><time>2026-05-02T11:17:25.978Z</time></trkpt><trkpt lat="41.9995909" lon="12.6682258"><ele>62.0</ele><time>2026-05-02T11:17:26.984Z</time></trkpt><trkpt lat="41.999687" lon="12.6683581"><ele>62.0</ele><time>2026-05-02T11:17:27.982Z</time></trkpt><trkpt lat="41.9998173" lon="12.6685123"><ele>62.0</ele><time>2026-05-02T11:17:28.983Z</time></trkpt><trkpt lat="42.0000165" lon="12.6687145"><ele>62.5</ele><time>2026-05-02T11:17:29.971Z</time></trkpt><trkpt lat="42.0002416" lon="12.6689204"><ele>63.0</ele><time>2026-05-02T11:17:30.974Z</time></trkpt><trkpt lat="42.0004439" lon="12.6690408"><ele>63.0</ele><time>2026-05-02T11:17:31.975Z</time></trkpt><trkpt lat="42.0006231" lon="12.669163"><ele>63.0</ele><time>2026-05-02T11:17:32.973Z</time></trkpt><trkpt lat="42.0007932" lon="12.6693361"><ele>63.0</ele><time>2026-05-02T11:17:33.998Z</time></trkpt><trkpt lat="42.0009544" lon="12.6695137"><ele>63.66666666666667</ele><time>2026-05-02T11:17:34.982Z</time></trkpt><trkpt lat="42.0011314" lon="12.6697012"><ele>64.33333333333334</ele><time>2026-05-02T11:17:35.975Z</time></trkpt><trkpt lat="42.0013014" lon="12.6698695"><ele>65.0</ele><time>2026-05-02T11:17:36.982Z</time></trkpt><trkpt lat="42.0014494" lon="12.6700481"><ele>65.0</ele><time>2026-05-02T11:17:37.976Z</time></trkpt><trkpt lat="42.0016135" lon="12.6702355"><ele>65.0</ele><time>2026-05-02T11:17:38.984Z</time></trkpt><trkpt lat="42.0018082" lon="12.6704046"><ele>65.0</ele><time>2026-05-02T11:17:39.982Z</time></trkpt><trkpt lat="42.0019849" lon="12.6705859"><ele>66.66666666666667</ele><time>2026-05-02T11:17:40.999Z</time></trkpt><trkpt lat="42.0021098" lon="12.6707305"><ele>68.33333333333333</ele><time>2026-05-02T11:17:41.976Z</time></trkpt><trkpt lat="42.0022466" lon="12.6708833"><ele>70.0</ele><time>2026-05-02T11:17:42.97Z</time></trkpt><trkpt lat="42.0023924" lon="12.6710375"><ele>69.66666666666666</ele><time>2026-05-02T11:17:43.972Z</time></trkpt><trkpt lat="42.0025199" lon="12.6711879"><ele>69.33333333333333</ele><time>2026-05-02T11:17:44.966Z</time></trkpt><trkpt lat="42.0026416" lon="12.6713235"><ele>69.0</ele><time>2026-05-02T11:17:45.967Z</time></trkpt><trkpt lat="42.0027426" lon="12.6714533"><ele>69.0</ele><time>2026-05-02T11:17:46.974Z</time></trkpt><trkpt lat="42.0028094" lon="12.6715753"><ele>69.0</ele><time>2026-05-02T11:17:47.967Z</time></trkpt><trkpt lat="42.0028602" lon="12.6716633"><ele>69.0</ele><time>2026-05-02T11:17:48.962Z</time></trkpt><trkpt lat="42.0028897" lon="12.6717976"><ele>69.0</ele><time>2026-05-02T11:17:49.979Z</time></trkpt><trkpt lat="42.0029114" lon="12.6719214"><ele>69.0</ele><time>2026-05-02T11:17:50.978Z</time></trkpt><trkpt lat="42.0029641" lon="12.6720173"><ele>68.8</ele><time>2026-05-02T11:17:51.978Z</time></trkpt><trkpt lat="42.0030401" lon="12.6720773"><ele>68.60000000000001</ele><time>2026-05-02T11:17:52.975Z</time></trkpt><trkpt lat="42.0031312" lon="12.6721591"><ele>68.4</ele><time>2026-05-02T11:17:53.971Z</time></trkpt><trkpt lat="42.003238" lon="12.6722367"><ele>68.2</ele><time>2026-05-02T11:17:54.979Z</time></trkpt><trkpt lat="42.003344" lon="12.6723383"><ele>68.0</ele><time>2026-05-02T11:17:55.979Z</time></trkpt><trkpt lat="42.0034344" lon="12.6724512"><ele>68.0</ele><time>2026-05-02T11:17:56.983Z</time></trkpt><trkpt lat="42.0035394" lon="12.6725819"><ele>68.0</ele><time>2026-05-02T11:17:57.973Z</time></trkpt><trkpt lat="42.0036619" lon="12.6727232"><ele>68.0</ele><time>2026-05-02T11:17:58.975Z</time></trkpt><trkpt lat="42.0038566" lon="12.6728877"><ele>68.66666666666667</ele><time>2026-05-02T11:17:59.983Z</time></trkpt><trkpt lat="42.0040316" lon="12.6730147"><ele>69.33333333333333</ele><time>2026-05-02T11:18:00.98Z</time></trkpt><trkpt lat="42.0041834" lon="12.6731405"><ele>70.0</ele><time>2026-05-02T11:18:01.971Z</time></trkpt><trkpt lat="42.0043298" lon="12.6732487"><ele>70.0</ele><time>2026-05-02T11:18:02.981Z</time></trkpt><trkpt lat="42.0044595" lon="12.6733758"><ele>70.0</ele><time>2026-05-02T11:18:03.976Z</time></trkpt><trkpt lat="42.0046045" lon="12.6734808"><ele>70.0</ele><time>2026-05-02T11:18:05.025Z</time></trkpt><trkpt lat="42.0047461" lon="12.6735959"><ele>69.75</ele><time>2026-05-02T11:18:05.994Z</time></trkpt><trkpt lat="42.0048689" lon="12.6736916"><ele>69.5</ele><time>2026-05-02T11:18:06.978Z</time></trkpt><trkpt lat="42.0049598" lon="12.6738137"><ele>69.25</ele><time>2026-05-02T11:18:07.992Z</time></trkpt><trkpt lat="42.0050537" lon="12.6739206"><ele>69.0</ele><time>2026-05-02T11:18:08.979Z</time></trkpt><trkpt lat="42.0051338" lon="12.6740175"><ele>69.0</ele><time>2026-05-02T11:18:09.977Z</time></trkpt><trkpt lat="42.0052159" lon="12.6741131"><ele>69.0</ele><time>2026-05-02T11:18:10.982Z</time></trkpt><trkpt lat="42.0052691" lon="12.6741979"><ele>69.0</ele><time>2026-05-02T11:18:11.976Z</time></trkpt><trkpt lat="42.0053158" lon="12.6742752"><ele>69.0</ele><time>2026-05-02T11:18:12.989Z</time></trkpt><trkpt lat="42.0053739" lon="12.6743566"><ele>69.0</ele><time>2026-05-02T11:18:13.985Z</time></trkpt><trkpt lat="42.005447" lon="12.6744468"><ele>69.0</ele><time>2026-05-02T11:18:15.007Z</time></trkpt><trkpt lat="42.0055133" lon="12.674543"><ele>69.0</ele><time>2026-05-02T11:18:16.006Z</time></trkpt><trkpt lat="42.0055725" lon="12.6746526"><ele>69.0</ele><time>2026-05-02T11:18:16.989Z</time></trkpt><trkpt lat="42.0056344" lon="12.6747639"><ele>69.0</ele><time>2026-05-02T11:18:18.003Z</time></trkpt><trkpt lat="42.005697" lon="12.6748846"><ele>69.0</ele><time>2026-05-02T11:18:18.98Z</time></trkpt><trkpt lat="42.0057571" lon="12.6750183"><ele>69.0</ele><time>2026-05-02T11:18:19.982Z</time></trkpt><trkpt lat="42.0058151" lon="12.6751664"><ele>70.25</ele><time>2026-05-02T11:18:20.982Z</time></trkpt><trkpt lat="42.0058595" lon="12.6753159"><ele>71.5</ele><time>2026-05-02T11:18:21.982Z</time></trkpt><trkpt lat="42.0059019" lon="12.6754935"><ele>72.75</ele><time>2026-05-02T11:18:22.976Z</time></trkpt><trkpt lat="42.0059347" lon="12.6756953"><ele>74.0</ele><time>2026-05-02T11:18:23.976Z</time></trkpt><trkpt lat="42.0059202" lon="12.6759944"><ele>73.0</ele><time>2026-05-02T11:18:25.001Z</time></trkpt><trkpt lat="42.0059119" lon="12.6762423"><ele>72.0</ele><time>2026-05-02T11:18:25.973Z</time></trkpt><trkpt lat="42.0059286" lon="12.6764605"><ele>71.0</ele><time>2026-05-02T11:18:26.979Z</time></trkpt><trkpt lat="42.0059864" lon="12.6766599"><ele>71.0</ele><time>2026-05-02T11:18:28.002Z</time></trkpt><trkpt lat="42.0060593" lon="12.6768744"><ele>71.0</ele><time>2026-05-02T11:18:29.003Z</time></trkpt><trkpt lat="42.0061441" lon="12.6770819"><ele>71.0</ele><time>2026-05-02T11:18:30.007Z</time></trkpt><trkpt lat="42.0062143" lon="12.6772851"><ele>71.0</ele><time>2026-05-02T11:18:30.983Z</time></trkpt><trkpt lat="42.0063082" lon="12.6774798"><ele>71.0</ele><time>2026-05-02T11:18:31.979Z</time></trkpt><trkpt lat="42.0064249" lon="12.6776815"><ele>71.0</ele><time>2026-05-02T11:18:32.986Z</time></trkpt><trkpt lat="42.0065397" lon="12.6778625"><ele>71.0</ele><time>2026-05-02T11:18:33.984Z</time></trkpt><trkpt lat="42.0066528" lon="12.6780554"><ele>71.0</ele><time>2026-05-02T11:18:34.984Z</time></trkpt><trkpt lat="42.0067554" lon="12.678249"><ele>71.0</ele><time>2026-05-02T11:18:35.996Z</time></trkpt><trkpt lat="42.0068601" lon="12.6784476"><ele>71.66666666666667</ele><time>2026-05-02T11:18:36.985Z</time></trkpt><trkpt lat="42.0069578" lon="12.6786257"><ele>72.33333333333333</ele><time>2026-05-02T11:18:37.986Z</time></trkpt><trkpt lat="42.0070678" lon="12.6787987"><ele>73.0</ele><time>2026-05-02T11:18:38.982Z</time></trkpt><trkpt lat="42.0071523" lon="12.6789688"><ele>73.0</ele><time>2026-05-02T11:18:39.984Z</time></trkpt><trkpt lat="42.0072349" lon="12.679158"><ele>73.0</ele><time>2026-05-02T11:18:40.985Z</time></trkpt><trkpt lat="42.0072975" lon="12.6793385"><ele>73.0</ele><time>2026-05-02T11:18:41.985Z</time></trkpt><trkpt lat="42.0073891" lon="12.6795013"><ele>73.25</ele><time>2026-05-02T11:18:42.981Z</time></trkpt><trkpt lat="42.0074431" lon="12.6796566"><ele>73.5</ele><time>2026-05-02T11:18:43.985Z</time></trkpt><trkpt lat="42.0075271" lon="12.6798286"><ele>73.75</ele><time>2026-05-02T11:18:44.978Z</time></trkpt><trkpt lat="42.0076218" lon="12.6799888"><ele>74.0</ele><time>2026-05-02T11:18:45.985Z</time></trkpt><trkpt lat="42.0076702" lon="12.6801596"><ele>74.0</ele><time>2026-05-02T11:18:46.987Z</time></trkpt><trkpt lat="42.0077343" lon="12.6803181"><ele>74.0</ele><time>2026-05-02T11:18:48.006Z</time></trkpt><trkpt lat="42.0078575" lon="12.680399"><ele>74.0</ele><time>2026-05-02T11:18:48.999Z</time></trkpt><trkpt lat="42.007992" lon="12.6804881"><ele>74.0</ele><time>2026-05-02T11:18:49.999Z</time></trkpt><trkpt lat="42.0081477" lon="12.6805432"><ele>75.66666666666667</ele><time>2026-05-02T11:18:50.993Z</time></trkpt><trkpt lat="42.0083725" lon="12.6805666"><ele>77.33333333333333</ele><time>2026-05-02T11:18:51.973Z</time></trkpt><trkpt lat="42.0085399" lon="12.6806069"><ele>79.0</ele><time>2026-05-02T11:18:52.974Z</time></trkpt><trkpt lat="42.0087332" lon="12.6805837"><ele>79.0</ele><time>2026-05-02T11:18:53.975Z</time></trkpt><trkpt lat="42.0089205" lon="12.6805708"><ele>79.0</ele><time>2026-05-02T11:18:54.975Z</time></trkpt><trkpt lat="42.0090857" lon="12.6805936"><ele>79.0</ele><time>2026-05-02T11:18:55.979Z</time></trkpt><trkpt lat="42.0092492" lon="12.6805967"><ele>80.66666666666666</ele><time>2026-05-02T11:18:56.978Z</time></trkpt><trkpt lat="42.0094071" lon="12.6805953"><ele>82.33333333333333</ele><time>2026-05-02T11:18:57.985Z</time></trkpt><trkpt lat="42.0095557" lon="12.6805882"><ele>84.0</ele><time>2026-05-02T11:18:58.979Z</time></trkpt><trkpt lat="42.0097385" lon="12.6806269"><ele>84.0</ele><time>2026-05-02T11:19:00.006Z</time></trkpt><trkpt lat="42.0099016" lon="12.6806414"><ele>84.0</ele><time>2026-05-02T11:19:00.98Z</time></trkpt><trkpt lat="42.0100848" lon="12.6805996"><ele>84.0</ele><time>2026-05-02T11:19:01.981Z</time></trkpt><trkpt lat="42.0102835" lon="12.680563"><ele>84.66666666666667</ele><time>2026-05-02T11:19:02.98Z</time></trkpt><trkpt lat="42.0104781" lon="12.6805488"><ele>85.33333333333334</ele><time>2026-05-02T11:19:03.976Z</time></trkpt><trkpt lat="42.0107042" lon="12.6805104"><ele>86.0</ele><time>2026-05-02T11:19:04.982Z</time></trkpt><trkpt lat="42.0109399" lon="12.6804851"><ele>87.0</ele><time>2026-05-02T11:19:05.976Z</time></trkpt><trkpt lat="42.0111344" lon="12.6804641"><ele>88.0</ele><time>2026-05-02T11:19:06.984Z</time></trkpt><trkpt lat="42.0113143" lon="12.6804487"><ele>89.0</ele><time>2026-05-02T11:19:07.976Z</time></trkpt><trkpt lat="42.0114601" lon="12.6804427"><ele>89.0</ele><time>2026-05-02T11:19:08.985Z</time></trkpt><trkpt lat="42.0116355" lon="12.6804665"><ele>89.0</ele><time>2026-05-02T11:19:09.973Z</time></trkpt><trkpt lat="42.0117992" lon="12.680505"><ele>89.0</ele><time>2026-05-02T11:19:10.99Z</time></trkpt><trkpt lat="42.0119645" lon="12.6805735"><ele>90.66666666666667</ele><time>2026-05-02T11:19:11.984Z</time></trkpt><trkpt lat="42.0121267" lon="12.6807032"><ele>92.33333333333333</ele><time>2026-05-02T11:19:12.982Z</time></trkpt><trkpt lat="42.0122506" lon="12.680838"><ele>94.0</ele><time>2026-05-02T11:19:13.983Z</time></trkpt><trkpt lat="42.0123946" lon="12.6809665"><ele>96.0</ele><time>2026-05-02T11:19:14.979Z</time></trkpt><trkpt lat="42.0125488" lon="12.681092"><ele>98.0</ele><time>2026-05-02T11:19:15.977Z</time></trkpt><trkpt lat="42.0127456" lon="12.6812028"><ele>100.0</ele><time>2026-05-02T11:19:16.978Z</time></trkpt><trkpt lat="42.0129385" lon="12.6813197"><ele>101.66666666666667</ele><time>2026-05-02T11:19:17.974Z</time></trkpt><trkpt lat="42.0131165" lon="12.6814561"><ele>103.33333333333334</ele><time>2026-05-02T11:19:18.98Z</time></trkpt><trkpt lat="42.0132887" lon="12.6816099"><ele>105.0</ele><time>2026-05-02T11:19:19.971Z</time></trkpt><trkpt lat="42.0134732" lon="12.6817836"><ele>108.33333333333334</ele><time>2026-05-02T11:19:20.979Z</time></trkpt><trkpt lat="42.0136579" lon="12.6819541"><ele>111.66666666666667</ele><time>2026-05-02T11:19:21.973Z</time></trkpt><trkpt lat="42.0138335" lon="12.6821174"><ele>115.0</ele><time>2026-05-02T11:19:22.991Z</time></trkpt><trkpt lat="42.0139755" lon="12.6822485"><ele>115.0</ele><time>2026-05-02T11:19:24.004Z</time></trkpt><trkpt lat="42.0140968" lon="12.6823932"><ele>115.0</ele><time>2026-05-02T11:19:24.974Z</time></trkpt><trkpt lat="42.0142171" lon="12.6825356"><ele>115.0</ele><time>2026-05-02T11:19:25.98Z</time></trkpt><trkpt lat="42.0143129" lon="12.6826809"><ele>117.75</ele><time>2026-05-02T11:19:27.008Z</time></trkpt><trkpt lat="42.0143733" lon="12.6828249"><ele>120.5</ele><time>2026-05-02T11:19:27.981Z</time></trkpt><trkpt lat="42.0144008" lon="12.6830276"><ele>123.25</ele><time>2026-05-02T11:19:28.981Z</time></trkpt><trkpt lat="42.0144559" lon="12.6832463"><ele>126.0</ele><time>2026-05-02T11:19:29.982Z</time></trkpt><trkpt lat="42.0144984" lon="12.683436"><ele>126.66666666666666</ele><time>2026-05-02T11:19:30.979Z</time></trkpt><trkpt lat="42.0145494" lon="12.6836033"><ele>127.33333333333333</ele><time>2026-05-02T11:19:31.996Z</time></trkpt><trkpt lat="42.0146147" lon="12.6837852"><ele>128.0</ele><time>2026-05-02T11:19:32.985Z</time></trkpt><trkpt lat="42.0146708" lon="12.6840068"><ele>128.0</ele><time>2026-05-02T11:19:33.982Z</time></trkpt><trkpt lat="42.0147055" lon="12.6842227"><ele>128.0</ele><time>2026-05-02T11:19:34.969Z</time></trkpt><trkpt lat="42.0147091" lon="12.684421"><ele>128.0</ele><time>2026-05-02T11:19:35.974Z</time></trkpt><trkpt lat="42.0146968" lon="12.6845666"><ele>128.0</ele><time>2026-05-02T11:19:36.972Z</time></trkpt><trkpt lat="42.0147114" lon="12.6847087"><ele>128.0</ele><time>2026-05-02T11:19:37.979Z</time></trkpt><trkpt lat="42.0147917" lon="12.6848586"><ele>128.0</ele><time>2026-05-02T11:19:38.973Z</time></trkpt><trkpt lat="42.0149107" lon="12.684981"><ele>128.0</ele><time>2026-05-02T11:19:39.979Z</time></trkpt><trkpt lat="42.0150415" lon="12.685127"><ele>131.0</ele><time>2026-05-02T11:19:40.973Z</time></trkpt><trkpt lat="42.0151902" lon="12.6852501"><ele>134.0</ele><time>2026-05-02T11:19:41.985Z</time></trkpt><trkpt lat="42.0153563" lon="12.6853044"><ele>137.0</ele><time>2026-05-02T11:19:42.975Z</time></trkpt><trkpt lat="42.0155054" lon="12.6853686"><ele>137.0</ele><time>2026-05-02T11:19:43.976Z</time></trkpt><trkpt lat="42.0156898" lon="12.6854391"><ele>137.0</ele><time>2026-05-02T11:19:44.982Z</time></trkpt><trkpt lat="42.0158405" lon="12.6855051"><ele>137.0</ele><time>2026-05-02T11:19:45.986Z</time></trkpt><trkpt lat="42.0159857" lon="12.6855549"><ele>137.75</ele><time>2026-05-02T11:19:46.974Z</time></trkpt><trkpt lat="42.0161191" lon="12.6856239"><ele>138.5</ele><time>2026-05-02T11:19:47.978Z</time></trkpt><trkpt lat="42.0162349" lon="12.685704"><ele>139.25</ele><time>2026-05-02T11:19:48.982Z</time></trkpt><trkpt lat="42.0163594" lon="12.6857693"><ele>140.0</ele><time>2026-05-02T11:19:49.981Z</time></trkpt><trkpt lat="42.0164938" lon="12.6858839"><ele>140.0</ele><time>2026-05-02T11:19:50.98Z</time></trkpt><trkpt lat="42.0166248" lon="12.6860377"><ele>140.0</ele><time>2026-05-02T11:19:52.003Z</time></trkpt><trkpt lat="42.01675" lon="12.6862036"><ele>140.0</ele><time>2026-05-02T11:19:52.984Z</time></trkpt><trkpt lat="42.016874" lon="12.686377"><ele>137.33333333333331</ele><time>2026-05-02T11:19:53.984Z</time></trkpt><trkpt lat="42.0169991" lon="12.6865541"><ele>134.66666666666666</ele><time>2026-05-02T11:19:54.981Z</time></trkpt><trkpt lat="42.0171228" lon="12.6867683"><ele>132.0</ele><time>2026-05-02T11:19:55.982Z</time></trkpt><trkpt lat="42.0172316" lon="12.6869659"><ele>130.0</ele><time>2026-05-02T11:19:56.977Z</time></trkpt><trkpt lat="42.0173427" lon="12.6871677"><ele>128.0</ele><time>2026-05-02T11:19:57.985Z</time></trkpt><trkpt lat="42.017453" lon="12.6873435"><ele>126.0</ele><time>2026-05-02T11:19:58.986Z</time></trkpt><trkpt lat="42.0175782" lon="12.6875"><ele>125.33333333333334</ele><time>2026-05-02T11:19:59.989Z</time></trkpt><trkpt lat="42.0177106" lon="12.6876195"><ele>124.66666666666667</ele><time>2026-05-02T11:20:00.986Z</time></trkpt><trkpt lat="42.0178693" lon="12.6877313"><ele>124.0</ele><time>2026-05-02T11:20:01.984Z</time></trkpt><trkpt lat="42.0180394" lon="12.6878026"><ele>123.0</ele><time>2026-05-02T11:20:02.99Z</time></trkpt><trkpt lat="42.0182269" lon="12.6878492"><ele>122.0</ele><time>2026-05-02T11:20:03.996Z</time></trkpt><trkpt lat="42.0184098" lon="12.6878797"><ele>121.0</ele><time>2026-05-02T11:20:05.008Z</time></trkpt><trkpt lat="42.0185924" lon="12.6879087"><ele>120.0</ele><time>2026-05-02T11:20:05.985Z</time></trkpt><trkpt lat="42.0187699" lon="12.6879295"><ele>119.0</ele><time>2026-05-02T11:20:06.992Z</time></trkpt><trkpt lat="42.0189388" lon="12.6879549"><ele>118.0</ele><time>2026-05-02T11:20:07.989Z</time></trkpt><trkpt lat="42.0191266" lon="12.6879706"><ele>119.0</ele><time>2026-05-02T11:20:08.977Z</time></trkpt><trkpt lat="42.0193266" lon="12.6880126"><ele>120.0</ele><time>2026-05-02T11:20:09.988Z</time></trkpt><trkpt lat="42.0195251" lon="12.6880517"><ele>121.0</ele><time>2026-05-02T11:20:10.988Z</time></trkpt><trkpt lat="42.0197263" lon="12.6880969"><ele>121.0</ele><time>2026-05-02T11:20:11.986Z</time></trkpt><trkpt lat="42.0199223" lon="12.6881718"><ele>121.0</ele><time>2026-05-02T11:20:12.982Z</time></trkpt><trkpt lat="42.0201221" lon="12.6882352"><ele>121.0</ele><time>2026-05-02T11:20:13.986Z</time></trkpt><trkpt lat="42.0203121" lon="12.6883126"><ele>122.33333333333334</ele><time>2026-05-02T11:20:14.98Z</time></trkpt><trkpt lat="42.0204748" lon="12.688359"><ele>123.66666666666666</ele><time>2026-05-02T11:20:15.986Z</time></trkpt><trkpt lat="42.0206675" lon="12.6884252"><ele>125.0</ele><time>2026-05-02T11:20:16.992Z</time></trkpt><trkpt lat="42.020848" lon="12.6885007"><ele>124.66666666666666</ele><time>2026-05-02T11:20:17.977Z</time></trkpt><trkpt lat="42.021035" lon="12.6885811"><ele>124.33333333333334</ele><time>2026-05-02T11:20:18.99Z</time></trkpt><trkpt lat="42.0212065" lon="12.6886545"><ele>124.0</ele><time>2026-05-02T11:20:19.992Z</time></trkpt><trkpt lat="42.0214111" lon="12.6887029"><ele>124.0</ele><time>2026-05-02T11:20:20.994Z</time></trkpt><trkpt lat="42.0216168" lon="12.6887455"><ele>124.0</ele><time>2026-05-02T11:20:21.99Z</time></trkpt><trkpt lat="42.0218348" lon="12.6887957"><ele>124.0</ele><time>2026-05-02T11:20:22.981Z</time></trkpt><trkpt lat="42.0220348" lon="12.6888551"><ele>122.33333333333334</ele><time>2026-05-02T11:20:23.985Z</time></trkpt><trkpt lat="42.0222058" lon="12.6889015"><ele>120.66666666666666</ele><time>2026-05-02T11:20:24.992Z</time></trkpt><trkpt lat="42.0223419" lon="12.6889455"><ele>119.0</ele><time>2026-05-02T11:20:25.992Z</time></trkpt><trkpt lat="42.0225112" lon="12.6889824"><ele>119.0</ele><time>2026-05-02T11:20:26.981Z</time></trkpt><trkpt lat="42.0226885" lon="12.6889954"><ele>119.0</ele><time>2026-05-02T11:20:27.985Z</time></trkpt><trkpt lat="42.0228915" lon="12.6890052"><ele>119.0</ele><time>2026-05-02T11:20:28.99Z</time></trkpt><trkpt lat="42.0231034" lon="12.6890275"><ele>119.0</ele><time>2026-05-02T11:20:29.987Z</time></trkpt><trkpt lat="42.023301" lon="12.6890365"><ele>119.0</ele><time>2026-05-02T11:20:30.989Z</time></trkpt><trkpt lat="42.0234814" lon="12.6890585"><ele>119.0</ele><time>2026-05-02T11:20:31.992Z</time></trkpt><trkpt lat="42.0236569" lon="12.6890721"><ele>118.66666666666666</ele><time>2026-05-02T11:20:32.99Z</time></trkpt><trkpt lat="42.0238235" lon="12.6890867"><ele>118.33333333333334</ele><time>2026-05-02T11:20:33.986Z</time></trkpt><trkpt lat="42.0240018" lon="12.6891113"><ele>118.0</ele><time>2026-05-02T11:20:34.991Z</time></trkpt><trkpt lat="42.0242214" lon="12.689121"><ele>117.0</ele><time>2026-05-02T11:20:35.989Z</time></trkpt><trkpt lat="42.0244313" lon="12.6891337"><ele>116.0</ele><time>2026-05-02T11:20:36.994Z</time></trkpt><trkpt lat="42.0246153" lon="12.6891582"><ele>115.0</ele><time>2026-05-02T11:20:37.994Z</time></trkpt><trkpt lat="42.024801" lon="12.6891757"><ele>115.0</ele><time>2026-05-02T11:20:38.99Z</time></trkpt><trkpt lat="42.0249976" lon="12.6891803"><ele>115.0</ele><time>2026-05-02T11:20:39.996Z</time></trkpt><trkpt lat="42.0252008" lon="12.6892294"><ele>115.0</ele><time>2026-05-02T11:20:40.985Z</time></trkpt><trkpt lat="42.0253983" lon="12.6892827"><ele>115.0</ele><time>2026-05-02T11:20:42.004Z</time></trkpt><trkpt lat="42.0256138" lon="12.6893217"><ele>115.0</ele><time>2026-05-02T11:20:43.003Z</time></trkpt><trkpt lat="42.0258074" lon="12.6893714"><ele>115.0</ele><time>2026-05-02T11:20:43.983Z</time></trkpt><trkpt lat="42.0260057" lon="12.689409"><ele>115.66666666666667</ele><time>2026-05-02T11:20:44.988Z</time></trkpt><trkpt lat="42.0262028" lon="12.6894446"><ele>116.33333333333334</ele><time>2026-05-02T11:20:46.015Z</time></trkpt><trkpt lat="42.0264002" lon="12.6894984"><ele>117.0</ele><time>2026-05-02T11:20:46.992Z</time></trkpt><trkpt lat="42.0265621" lon="12.6895433"><ele>117.66666666666666</ele><time>2026-05-02T11:20:48.01Z</time></trkpt><trkpt lat="42.0267344" lon="12.6895819"><ele>118.33333333333333</ele><time>2026-05-02T11:20:48.99Z</time></trkpt><trkpt lat="42.0269038" lon="12.6896249"><ele>119.0</ele><time>2026-05-02T11:20:49.994Z</time></trkpt><trkpt lat="42.0270531" lon="12.689693"><ele>119.0</ele><time>2026-05-02T11:20:50.986Z</time></trkpt><trkpt lat="42.0272026" lon="12.6897852"><ele>119.0</ele><time>2026-05-02T11:20:51.986Z</time></trkpt><trkpt lat="42.0273411" lon="12.6899135"><ele>119.0</ele><time>2026-05-02T11:20:52.992Z</time></trkpt><trkpt lat="42.027481" lon="12.690057"><ele>120.0</ele><time>2026-05-02T11:20:53.986Z</time></trkpt><trkpt lat="42.0276254" lon="12.690231"><ele>121.0</ele><time>2026-05-02T11:20:54.991Z</time></trkpt><trkpt lat="42.0277563" lon="12.6903943"><ele>122.0</ele><time>2026-05-02T11:20:55.982Z</time></trkpt><trkpt lat="42.0278518" lon="12.6905746"><ele>122.0</ele><time>2026-05-02T11:20:56.994Z</time></trkpt><trkpt lat="42.0279912" lon="12.6907812"><ele>122.0</ele><time>2026-05-02T11:20:57.985Z</time></trkpt><trkpt lat="42.0280972" lon="12.6910035"><ele>122.0</ele><time>2026-05-02T11:20:58.993Z</time></trkpt><trkpt lat="42.0282188" lon="12.6912244"><ele>122.66666666666666</ele><time>2026-05-02T11:20:59.986Z</time></trkpt><trkpt lat="42.0283334" lon="12.6914553"><ele>123.33333333333334</ele><time>2026-05-02T11:21:00.985Z</time></trkpt><trkpt lat="42.0284678" lon="12.6917085"><ele>124.0</ele><time>2026-05-02T11:21:01.987Z</time></trkpt><trkpt lat="42.0286249" lon="12.6919435"><ele>125.0</ele><time>2026-05-02T11:21:03.006Z</time></trkpt><trkpt lat="42.0287702" lon="12.692144"><ele>126.0</ele><time>2026-05-02T11:21:03.99Z</time></trkpt><trkpt lat="42.028921" lon="12.6923228"><ele>127.0</ele><time>2026-05-02T11:21:05.011Z</time></trkpt><trkpt lat="42.0290913" lon="12.6924733"><ele>129.33333333333334</ele><time>2026-05-02T11:21:05.991Z</time></trkpt><trkpt lat="42.0292626" lon="12.6926306"><ele>131.66666666666666</ele><time>2026-05-02T11:21:06.991Z</time></trkpt><trkpt lat="42.0294436" lon="12.692766"><ele>134.0</ele><time>2026-05-02T11:21:07.989Z</time></trkpt><trkpt lat="42.029612" lon="12.6928755"><ele>137.0</ele><time>2026-05-02T11:21:08.987Z</time></trkpt><trkpt lat="42.0297774" lon="12.6929539"><ele>140.0</ele><time>2026-05-02T11:21:09.979Z</time></trkpt><trkpt lat="42.0299238" lon="12.6930324"><ele>143.0</ele><time>2026-05-02T11:21:10.978Z</time></trkpt><trkpt lat="42.0300386" lon="12.6931303"><ele>143.75</ele><time>2026-05-02T11:21:11.982Z</time></trkpt><trkpt lat="42.0301438" lon="12.6932741"><ele>144.5</ele><time>2026-05-02T11:21:12.979Z</time></trkpt><trkpt lat="42.0302759" lon="12.6934046"><ele>145.25</ele><time>2026-05-02T11:21:13.97Z</time></trkpt><trkpt lat="42.0303919" lon="12.6934865"><ele>146.0</ele><time>2026-05-02T11:21:15.012Z</time></trkpt><trkpt lat="42.0305208" lon="12.6935682"><ele>146.66666666666666</ele><time>2026-05-02T11:21:15.981Z</time></trkpt><trkpt lat="42.0306791" lon="12.6936272"><ele>147.33333333333334</ele><time>2026-05-02T11:21:16.992Z</time></trkpt><trkpt lat="42.0308338" lon="12.6936503"><ele>148.0</ele><time>2026-05-02T11:21:17.987Z</time></trkpt><trkpt lat="42.0309745" lon="12.6936758"><ele>149.0</ele><time>2026-05-02T11:21:18.98Z</time></trkpt><trkpt lat="42.0311141" lon="12.6937003"><ele>150.0</ele><time>2026-05-02T11:21:19.996Z</time></trkpt><trkpt lat="42.0313198" lon="12.6936765"><ele>151.0</ele><time>2026-05-02T11:21:20.98Z</time></trkpt><trkpt lat="42.0315225" lon="12.6936588"><ele>152.33333333333334</ele><time>2026-05-02T11:21:21.991Z</time></trkpt><trkpt lat="42.0317168" lon="12.6936599"><ele>153.66666666666666</ele><time>2026-05-02T11:21:22.983Z</time></trkpt><trkpt lat="42.0318897" lon="12.6936244"><ele>155.0</ele><time>2026-05-02T11:21:23.983Z</time></trkpt><trkpt lat="42.032032" lon="12.6936218"><ele>155.0</ele><time>2026-05-02T11:21:24.983Z</time></trkpt><trkpt lat="42.0321397" lon="12.6935896"><ele>155.0</ele><time>2026-05-02T11:21:25.98Z</time></trkpt><trkpt lat="42.0322787" lon="12.6936539"><ele>155.0</ele><time>2026-05-02T11:21:26.983Z</time></trkpt><trkpt lat="42.0324386" lon="12.6937534"><ele>155.0</ele><time>2026-05-02T11:21:27.984Z</time></trkpt><trkpt lat="42.0326074" lon="12.6938672"><ele>156.33333333333331</ele><time>2026-05-02T11:21:28.988Z</time></trkpt><trkpt lat="42.0327931" lon="12.6939638"><ele>157.66666666666666</ele><time>2026-05-02T11:21:29.987Z</time></trkpt><trkpt lat="42.0329732" lon="12.6940577"><ele>159.0</ele><time>2026-05-02T11:21:30.988Z</time></trkpt><trkpt lat="42.0331607" lon="12.6941689"><ele>161.0</ele><time>2026-05-02T11:21:31.988Z</time></trkpt><trkpt lat="42.0333553" lon="12.6943006"><ele>163.0</ele><time>2026-05-02T11:21:32.992Z</time></trkpt><trkpt lat="42.033582" lon="12.6944362"><ele>163.0</ele><time>2026-05-02T11:21:33.993Z</time></trkpt><trkpt lat="42.033805" lon="12.6945731"><ele>163.0</ele><time>2026-05-02T11:21:34.994Z</time></trkpt><trkpt lat="42.0340132" lon="12.694701"><ele>166.5</ele><time>2026-05-02T11:21:35.992Z</time></trkpt><trkpt lat="42.0342261" lon="12.6948243"><ele>170.0</ele><time>2026-05-02T11:21:36.995Z</time></trkpt><trkpt lat="42.0344234" lon="12.6949506"><ele>170.0</ele><time>2026-05-02T11:21:37.996Z</time></trkpt><trkpt lat="42.0346105" lon="12.695066"><ele>170.0</ele><time>2026-05-02T11:21:38.982Z</time></trkpt><trkpt lat="42.0347951" lon="12.6951704"><ele>170.0</ele><time>2026-05-02T11:21:39.994Z</time></trkpt><trkpt lat="42.0349306" lon="12.6952754"><ele>171.5</ele><time>2026-05-02T11:21:41.011Z</time></trkpt><trkpt lat="42.0350642" lon="12.6953933"><ele>173.0</ele><time>2026-05-02T11:21:41.985Z</time></trkpt><trkpt lat="42.0351814" lon="12.6955061"><ele>174.5</ele><time>2026-05-02T11:21:42.989Z</time></trkpt><trkpt lat="42.0353059" lon="12.6955974"><ele>176.0</ele><time>2026-05-02T11:21:43.987Z</time></trkpt><trkpt lat="42.0354257" lon="12.6957046"><ele>176.0</ele><time>2026-05-02T11:21:44.993Z</time></trkpt><trkpt lat="42.0355534" lon="12.6958334"><ele>176.0</ele><time>2026-05-02T11:21:45.987Z</time></trkpt><trkpt lat="42.0357112" lon="12.6959816"><ele>176.0</ele><time>2026-05-02T11:21:46.987Z</time></trkpt><trkpt lat="42.0358829" lon="12.6961244"><ele>176.0</ele><time>2026-05-02T11:21:47.987Z</time></trkpt><trkpt lat="42.0360623" lon="12.6962252"><ele>176.0</ele><time>2026-05-02T11:21:48.987Z</time></trkpt><trkpt lat="42.0362355" lon="12.6962817"><ele>176.0</ele><time>2026-05-02T11:21:49.994Z</time></trkpt><trkpt lat="42.0364178" lon="12.6963455"><ele>176.0</ele><time>2026-05-02T11:21:50.994Z</time></trkpt><trkpt lat="42.036587" lon="12.6963882"><ele>176.0</ele><time>2026-05-02T11:21:52.004Z</time></trkpt><trkpt lat="42.036801" lon="12.6964532"><ele>176.0</ele><time>2026-05-02T11:21:52.984Z</time></trkpt><trkpt lat="42.037022" lon="12.6965327"><ele>176.0</ele><time>2026-05-02T11:21:53.999Z</time></trkpt><trkpt lat="42.0372422" lon="12.6966143"><ele>176.0</ele><time>2026-05-02T11:21:54.992Z</time></trkpt><trkpt lat="42.0374401" lon="12.6966777"><ele>176.0</ele><time>2026-05-02T11:21:55.994Z</time></trkpt><trkpt lat="42.0376299" lon="12.696745"><ele>175.5</ele><time>2026-05-02T11:21:57.022Z</time></trkpt><trkpt lat="42.0378541" lon="12.6967927"><ele>175.0</ele><time>2026-05-02T11:21:58.017Z</time></trkpt><trkpt lat="42.0380832" lon="12.6968401"><ele>176.33333333333334</ele><time>2026-05-02T11:21:58.992Z</time></trkpt><trkpt lat="42.0383107" lon="12.6969043"><ele>177.66666666666666</ele><time>2026-05-02T11:22:00.005Z</time></trkpt><trkpt lat="42.0385227" lon="12.6969656"><ele>179.0</ele><time>2026-05-02T11:22:01Z</time></trkpt><trkpt lat="42.038714" lon="12.6970109"><ele>179.33333333333331</ele><time>2026-05-02T11:22:01.99Z</time></trkpt><trkpt lat="42.0389105" lon="12.6970556"><ele>179.66666666666666</ele><time>2026-05-02T11:22:03Z</time></trkpt><trkpt lat="42.039092" lon="12.6970913"><ele>180.0</ele><time>2026-05-02T11:22:03.999Z</time></trkpt><trkpt lat="42.0392727" lon="12.6971207"><ele>180.0</ele><time>2026-05-02T11:22:04.99Z</time></trkpt><trkpt lat="42.0394597" lon="12.6971872"><ele>180.0</ele><time>2026-05-02T11:22:05.997Z</time></trkpt><trkpt lat="42.0396497" lon="12.6972273"><ele>180.0</ele><time>2026-05-02T11:22:06.994Z</time></trkpt><trkpt lat="42.0398361" lon="12.6972324"><ele>179.0</ele><time>2026-05-02T11:22:07.991Z</time></trkpt><trkpt lat="42.0400336" lon="12.6972346"><ele>178.0</ele><time>2026-05-02T11:22:08.996Z</time></trkpt><trkpt lat="42.0402309" lon="12.6972412"><ele>177.0</ele><time>2026-05-02T11:22:09.998Z</time></trkpt><trkpt lat="42.0404346" lon="12.6972606"><ele>177.0</ele><time>2026-05-02T11:22:11.015Z</time></trkpt><trkpt lat="42.0405982" lon="12.6972592"><ele>177.0</ele><time>2026-05-02T11:22:12.018Z</time></trkpt><trkpt lat="42.040756" lon="12.6972822"><ele>177.0</ele><time>2026-05-02T11:22:13.003Z</time></trkpt><trkpt lat="42.0409273" lon="12.6973147"><ele>176.33333333333334</ele><time>2026-05-02T11:22:14.018Z</time></trkpt><trkpt lat="42.0411016" lon="12.697354"><ele>175.66666666666669</ele><time>2026-05-02T11:22:15.02Z</time></trkpt><trkpt lat="42.0412604" lon="12.697393"><ele>175.0</ele><time>2026-05-02T11:22:15.997Z</time></trkpt><trkpt lat="42.0414298" lon="12.6974629"><ele>175.0</ele><time>2026-05-02T11:22:16.988Z</time></trkpt><trkpt lat="42.0416037" lon="12.6975639"><ele>175.0</ele><time>2026-05-02T11:22:18.001Z</time></trkpt><trkpt lat="42.0417873" lon="12.6976896"><ele>175.0</ele><time>2026-05-02T11:22:18.988Z</time></trkpt><trkpt lat="42.0419915" lon="12.6978037"><ele>171.0</ele><time>2026-05-02T11:22:19.993Z</time></trkpt><trkpt lat="42.0422042" lon="12.6979049"><ele>167.0</ele><time>2026-05-02T11:22:20.99Z</time></trkpt><trkpt lat="42.0424285" lon="12.6980329"><ele>166.66666666666666</ele><time>2026-05-02T11:22:21.994Z</time></trkpt><trkpt lat="42.0426387" lon="12.6981786"><ele>166.33333333333334</ele><time>2026-05-02T11:22:23.002Z</time></trkpt><trkpt lat="42.042818" lon="12.6982914"><ele>166.0</ele><time>2026-05-02T11:22:24.004Z</time></trkpt><trkpt lat="42.042985" lon="12.698419"><ele>166.0</ele><time>2026-05-02T11:22:24.991Z</time></trkpt><trkpt lat="42.0431518" lon="12.698527"><ele>166.0</ele><time>2026-05-02T11:22:26.003Z</time></trkpt><trkpt lat="42.0433348" lon="12.6986102"><ele>166.0</ele><time>2026-05-02T11:22:26.986Z</time></trkpt><trkpt lat="42.0434926" lon="12.6986653"><ele>164.0</ele><time>2026-05-02T11:22:27.992Z</time></trkpt><trkpt lat="42.0436554" lon="12.6987458"><ele>162.0</ele><time>2026-05-02T11:22:28.999Z</time></trkpt><trkpt lat="42.0438441" lon="12.698839"><ele>160.0</ele><time>2026-05-02T11:22:29.994Z</time></trkpt><trkpt lat="42.0440325" lon="12.6989079"><ele>160.0</ele><time>2026-05-02T11:22:31.022Z</time></trkpt><trkpt lat="42.0442233" lon="12.6989592"><ele>160.0</ele><time>2026-05-02T11:22:31.997Z</time></trkpt><trkpt lat="42.0443993" lon="12.6989974"><ele>160.0</ele><time>2026-05-02T11:22:32.984Z</time></trkpt><trkpt lat="42.0445651" lon="12.6990392"><ele>160.0</ele><time>2026-05-02T11:22:34.013Z</time></trkpt><trkpt lat="42.0447343" lon="12.6990709"><ele>160.0</ele><time>2026-05-02T11:22:34.999Z</time></trkpt><trkpt lat="42.0448851" lon="12.6990959"><ele>160.0</ele><time>2026-05-02T11:22:35.987Z</time></trkpt><trkpt lat="42.0450216" lon="12.6991037"><ele>158.66666666666669</ele><time>2026-05-02T11:22:36.993Z</time></trkpt><trkpt lat="42.0452001" lon="12.6990364"><ele>157.33333333333334</ele><time>2026-05-02T11:22:37.986Z</time></trkpt><trkpt lat="42.0453678" lon="12.6989601"><ele>156.0</ele><time>2026-05-02T11:22:38.981Z</time></trkpt><trkpt lat="42.0455336" lon="12.698874"><ele>156.0</ele><time>2026-05-02T11:22:39.993Z</time></trkpt><trkpt lat="42.0456899" lon="12.6987477"><ele>156.0</ele><time>2026-05-02T11:22:40.981Z</time></trkpt><trkpt lat="42.0458187" lon="12.6986699"><ele>156.0</ele><time>2026-05-02T11:22:41.988Z</time></trkpt><trkpt lat="42.0459945" lon="12.6986473"><ele>156.0</ele><time>2026-05-02T11:22:42.975Z</time></trkpt><trkpt lat="42.0461693" lon="12.6986403"><ele>156.0</ele><time>2026-05-02T11:22:43.986Z</time></trkpt><trkpt lat="42.0463645" lon="12.6986848"><ele>156.0</ele><time>2026-05-02T11:22:44.977Z</time></trkpt><trkpt lat="42.046546" lon="12.698736"><ele>154.33333333333334</ele><time>2026-05-02T11:22:45.985Z</time></trkpt><trkpt lat="42.0467339" lon="12.6987924"><ele>152.66666666666669</ele><time>2026-05-02T11:22:46.986Z</time></trkpt><trkpt lat="42.0468796" lon="12.6988595"><ele>151.0</ele><time>2026-05-02T11:22:47.98Z</time></trkpt><trkpt lat="42.0470187" lon="12.6989247"><ele>151.0</ele><time>2026-05-02T11:22:49Z</time></trkpt><trkpt lat="42.0471649" lon="12.6989999"><ele>151.0</ele><time>2026-05-02T11:22:49.973Z</time></trkpt><trkpt lat="42.0473048" lon="12.6991091"><ele>151.0</ele><time>2026-05-02T11:22:50.987Z</time></trkpt><trkpt lat="42.047452" lon="12.69926"><ele>150.33333333333334</ele><time>2026-05-02T11:22:51.989Z</time></trkpt><trkpt lat="42.0476245" lon="12.6993893"><ele>149.66666666666666</ele><time>2026-05-02T11:22:52.988Z</time></trkpt><trkpt lat="42.0477923" lon="12.6995183"><ele>149.0</ele><time>2026-05-02T11:22:53.991Z</time></trkpt><trkpt lat="42.0479895" lon="12.6996476"><ele>149.0</ele><time>2026-05-02T11:22:54.989Z</time></trkpt><trkpt lat="42.0481865" lon="12.6997578"><ele>149.0</ele><time>2026-05-02T11:22:55.985Z</time></trkpt><trkpt lat="42.0484034" lon="12.6998573"><ele>149.0</ele><time>2026-05-02T11:22:56.998Z</time></trkpt><trkpt lat="42.0486183" lon="12.6999646"><ele>147.66666666666666</ele><time>2026-05-02T11:22:57.991Z</time></trkpt><trkpt lat="42.0488097" lon="12.7000685"><ele>146.33333333333334</ele><time>2026-05-02T11:22:58.989Z</time></trkpt><trkpt lat="42.0490087" lon="12.7001883"><ele>145.0</ele><time>2026-05-02T11:22:59.994Z</time></trkpt><trkpt lat="42.0491864" lon="12.7003108"><ele>143.33333333333334</ele><time>2026-05-02T11:23:00.997Z</time></trkpt><trkpt lat="42.0493604" lon="12.7004437"><ele>141.66666666666666</ele><time>2026-05-02T11:23:01.991Z</time></trkpt><trkpt lat="42.0495562" lon="12.7005807"><ele>140.0</ele><time>2026-05-02T11:23:02.997Z</time></trkpt><trkpt lat="42.0497581" lon="12.7007113"><ele>140.0</ele><time>2026-05-02T11:23:03.993Z</time></trkpt><trkpt lat="42.0499542" lon="12.700828"><ele>140.0</ele><time>2026-05-02T11:23:04.993Z</time></trkpt><trkpt lat="42.0501408" lon="12.7009335"><ele>140.0</ele><time>2026-05-02T11:23:05.998Z</time></trkpt><trkpt lat="42.0503119" lon="12.7010436"><ele>137.0</ele><time>2026-05-02T11:23:06.995Z</time></trkpt><trkpt lat="42.0504592" lon="12.701157"><ele>134.0</ele><time>2026-05-02T11:23:07.997Z</time></trkpt><trkpt lat="42.0505983" lon="12.7012709"><ele>131.0</ele><time>2026-05-02T11:23:08.997Z</time></trkpt><trkpt lat="42.0507457" lon="12.7013618"><ele>132.33333333333331</ele><time>2026-05-02T11:23:09.994Z</time></trkpt><trkpt lat="42.0509023" lon="12.7014658"><ele>133.66666666666666</ele><time>2026-05-02T11:23:10.991Z</time></trkpt><trkpt lat="42.051056" lon="12.7015803"><ele>135.0</ele><time>2026-05-02T11:23:11.99Z</time></trkpt><trkpt lat="42.0511895" lon="12.701687"><ele>135.0</ele><time>2026-05-02T11:23:13.015Z</time></trkpt><trkpt lat="42.0513534" lon="12.7017663"><ele>135.0</ele><time>2026-05-02T11:23:13.993Z</time></trkpt><trkpt lat="42.0515341" lon="12.7018405"><ele>135.0</ele><time>2026-05-02T11:23:14.992Z</time></trkpt><trkpt lat="42.0517097" lon="12.7018991"><ele>132.66666666666666</ele><time>2026-05-02T11:23:16.001Z</time></trkpt><trkpt lat="42.0519006" lon="12.7019598"><ele>130.33333333333331</ele><time>2026-05-02T11:23:16.984Z</time></trkpt><trkpt lat="42.052112" lon="12.7020198"><ele>128.0</ele><time>2026-05-02T11:23:18.003Z</time></trkpt><trkpt lat="42.0523314" lon="12.7020749"><ele>127.0</ele><time>2026-05-02T11:23:18.994Z</time></trkpt><trkpt lat="42.0525517" lon="12.7021227"><ele>126.0</ele><time>2026-05-02T11:23:19.995Z</time></trkpt><trkpt lat="42.0527994" lon="12.7021791"><ele>126.0</ele><time>2026-05-02T11:23:21Z</time></trkpt><trkpt lat="42.0530125" lon="12.7022426"><ele>126.0</ele><time>2026-05-02T11:23:21.992Z</time></trkpt><trkpt lat="42.0532103" lon="12.7022841"><ele>126.0</ele><time>2026-05-02T11:23:22.998Z</time></trkpt><trkpt lat="42.0533941" lon="12.7023575"><ele>125.0</ele><time>2026-05-02T11:23:24.019Z</time></trkpt><trkpt lat="42.053615" lon="12.7024134"><ele>124.0</ele><time>2026-05-02T11:23:24.99Z</time></trkpt><trkpt lat="42.0538205" lon="12.7024546"><ele>123.0</ele><time>2026-05-02T11:23:25.997Z</time></trkpt><trkpt lat="42.0540185" lon="12.7025037"><ele>122.66666666666666</ele><time>2026-05-02T11:23:27.002Z</time></trkpt><trkpt lat="42.0542154" lon="12.702541"><ele>122.33333333333333</ele><time>2026-05-02T11:23:27.998Z</time></trkpt><trkpt lat="42.0543966" lon="12.7025818"><ele>122.0</ele><time>2026-05-02T11:23:28.991Z</time></trkpt><trkpt lat="42.0545695" lon="12.7026273"><ele>122.0</ele><time>2026-05-02T11:23:30.003Z</time></trkpt><trkpt lat="42.0547296" lon="12.7026695"><ele>122.0</ele><time>2026-05-02T11:23:30.996Z</time></trkpt><trkpt lat="42.0548758" lon="12.702712"><ele>122.0</ele><time>2026-05-02T11:23:31.992Z</time></trkpt><trkpt lat="42.05504" lon="12.7027463"><ele>122.0</ele><time>2026-05-02T11:23:32.997Z</time></trkpt><trkpt lat="42.0551921" lon="12.7027635"><ele>122.0</ele><time>2026-05-02T11:23:33.987Z</time></trkpt><trkpt lat="42.0553598" lon="12.7027442"><ele>122.0</ele><time>2026-05-02T11:23:34.991Z</time></trkpt><trkpt lat="42.0555299" lon="12.7027343"><ele>122.0</ele><time>2026-05-02T11:23:36.001Z</time></trkpt><trkpt lat="42.0556836" lon="12.7027067"><ele>122.0</ele><time>2026-05-02T11:23:36.998Z</time></trkpt><trkpt lat="42.0558576" lon="12.7026832"><ele>122.0</ele><time>2026-05-02T11:23:37.998Z</time></trkpt><trkpt lat="42.0560362" lon="12.702666"><ele>121.66666666666666</ele><time>2026-05-02T11:23:38.999Z</time></trkpt><trkpt lat="42.0562102" lon="12.7026617"><ele>121.33333333333334</ele><time>2026-05-02T11:23:39.994Z</time></trkpt><trkpt lat="42.0563846" lon="12.7026904"><ele>121.0</ele><time>2026-05-02T11:23:41.015Z</time></trkpt><trkpt lat="42.0565199" lon="12.7027689"><ele>119.33333333333334</ele><time>2026-05-02T11:23:42Z</time></trkpt><trkpt lat="42.0566477" lon="12.7028689"><ele>117.66666666666666</ele><time>2026-05-02T11:23:42.99Z</time></trkpt><trkpt lat="42.0567898" lon="12.7029717"><ele>116.0</ele><time>2026-05-02T11:23:43.997Z</time></trkpt><trkpt lat="42.0569474" lon="12.7030957"><ele>116.0</ele><time>2026-05-02T11:23:45.001Z</time></trkpt><trkpt lat="42.0571027" lon="12.7032089"><ele>116.0</ele><time>2026-05-02T11:23:45.997Z</time></trkpt><trkpt lat="42.0572494" lon="12.7033431"><ele>116.0</ele><time>2026-05-02T11:23:47.013Z</time></trkpt><trkpt lat="42.0573564" lon="12.703541"><ele>116.66666666666666</ele><time>2026-05-02T11:23:47.994Z</time></trkpt><trkpt lat="42.05747" lon="12.7037717"><ele>117.33333333333334</ele><time>2026-05-02T11:23:48.979Z</time></trkpt><trkpt lat="42.0575846" lon="12.7039424"><ele>118.0</ele><time>2026-05-02T11:23:49.989Z</time></trkpt><trkpt lat="42.0577309" lon="12.7041054"><ele>118.0</ele><time>2026-05-02T11:23:50.983Z</time></trkpt><trkpt lat="42.0579019" lon="12.7042662"><ele>118.0</ele><time>2026-05-02T11:23:51.981Z</time></trkpt><trkpt lat="42.0580691" lon="12.7044052"><ele>118.0</ele><time>2026-05-02T11:23:52.986Z</time></trkpt><trkpt lat="42.0582492" lon="12.7045193"><ele>118.0</ele><time>2026-05-02T11:23:53.993Z</time></trkpt><trkpt lat="42.0584468" lon="12.7046196"><ele>118.0</ele><time>2026-05-02T11:23:54.986Z</time></trkpt><trkpt lat="42.0586496" lon="12.70474"><ele>118.0</ele><time>2026-05-02T11:23:55.996Z</time></trkpt><trkpt lat="42.0588321" lon="12.7048338"><ele>118.0</ele><time>2026-05-02T11:23:56.983Z</time></trkpt><trkpt lat="42.0590153" lon="12.7049276"><ele>118.0</ele><time>2026-05-02T11:23:57.996Z</time></trkpt><trkpt lat="42.0591749" lon="12.7050289"><ele>118.0</ele><time>2026-05-02T11:23:58.981Z</time></trkpt><trkpt lat="42.059319" lon="12.7051278"><ele>117.0</ele><time>2026-05-02T11:23:59.986Z</time></trkpt><trkpt lat="42.0594783" lon="12.7052281"><ele>116.0</ele><time>2026-05-02T11:24:00.983Z</time></trkpt><trkpt lat="42.0596125" lon="12.7053131"><ele>115.0</ele><time>2026-05-02T11:24:01.989Z</time></trkpt><trkpt lat="42.0597519" lon="12.705416"><ele>114.66666666666667</ele><time>2026-05-02T11:24:03.008Z</time></trkpt><trkpt lat="42.0598743" lon="12.7055702"><ele>114.33333333333334</ele><time>2026-05-02T11:24:03.993Z</time></trkpt><trkpt lat="42.0600109" lon="12.7057494"><ele>114.0</ele><time>2026-05-02T11:24:05.01Z</time></trkpt><trkpt lat="42.0601114" lon="12.7059271"><ele>114.66666666666666</ele><time>2026-05-02T11:24:05.988Z</time></trkpt><trkpt lat="42.0602113" lon="12.7060856"><ele>115.33333333333333</ele><time>2026-05-02T11:24:06.98Z</time></trkpt><trkpt lat="42.0603081" lon="12.7062494"><ele>116.0</ele><time>2026-05-02T11:24:07.99Z</time></trkpt><trkpt lat="42.0604045" lon="12.7064585"><ele>116.0</ele><time>2026-05-02T11:24:08.988Z</time></trkpt><trkpt lat="42.0604719" lon="12.706682"><ele>116.0</ele><time>2026-05-02T11:24:09.981Z</time></trkpt><trkpt lat="42.0605319" lon="12.7068769"><ele>116.0</ele><time>2026-05-02T11:24:10.992Z</time></trkpt><trkpt lat="42.060597" lon="12.7070554"><ele>117.33333333333333</ele><time>2026-05-02T11:24:11.988Z</time></trkpt><trkpt lat="42.0606569" lon="12.7072462"><ele>118.66666666666666</ele><time>2026-05-02T11:24:12.986Z</time></trkpt><trkpt lat="42.0606982" lon="12.7074551"><ele>120.0</ele><time>2026-05-02T11:24:13.988Z</time></trkpt><trkpt lat="42.0607054" lon="12.7076803"><ele>119.75</ele><time>2026-05-02T11:24:14.975Z</time></trkpt><trkpt lat="42.0606824" lon="12.707891"><ele>119.5</ele><time>2026-05-02T11:24:16Z</time></trkpt><trkpt lat="42.0606555" lon="12.7080292"><ele>119.25</ele><time>2026-05-02T11:24:16.987Z</time></trkpt><trkpt lat="42.0606279" lon="12.7082379"><ele>119.0</ele><time>2026-05-02T11:24:17.974Z</time></trkpt><trkpt lat="42.0606347" lon="12.7084943"><ele>117.33333333333333</ele><time>2026-05-02T11:24:18.978Z</time></trkpt><trkpt lat="42.060622" lon="12.7087498"><ele>115.66666666666666</ele><time>2026-05-02T11:24:19.984Z</time></trkpt><trkpt lat="42.060616" lon="12.7090262"><ele>114.0</ele><time>2026-05-02T11:24:20.982Z</time></trkpt><trkpt lat="42.0606065" lon="12.7092798"><ele>114.0</ele><time>2026-05-02T11:24:21.98Z</time></trkpt><trkpt lat="42.0605779" lon="12.7095326"><ele>114.0</ele><time>2026-05-02T11:24:22.989Z</time></trkpt><trkpt lat="42.060537" lon="12.7097464"><ele>114.0</ele><time>2026-05-02T11:24:23.978Z</time></trkpt><trkpt lat="42.0605038" lon="12.7099703"><ele>114.0</ele><time>2026-05-02T11:24:24.989Z</time></trkpt><trkpt lat="42.0604778" lon="12.7101719"><ele>114.0</ele><time>2026-05-02T11:24:25.984Z</time></trkpt><trkpt lat="42.0604682" lon="12.7103614"><ele>114.0</ele><time>2026-05-02T11:24:26.98Z</time></trkpt><trkpt lat="42.0604484" lon="12.7105291"><ele>114.0</ele><time>2026-05-02T11:24:27.99Z</time></trkpt><trkpt lat="42.060423" lon="12.7106762"><ele>113.75</ele><time>2026-05-02T11:24:28.989Z</time></trkpt><trkpt lat="42.0604117" lon="12.710841"><ele>113.5</ele><time>2026-05-02T11:24:29.982Z</time></trkpt><trkpt lat="42.0603883" lon="12.7110538"><ele>113.25</ele><time>2026-05-02T11:24:30.983Z</time></trkpt><trkpt lat="42.0603693" lon="12.7112452"><ele>113.0</ele><time>2026-05-02T11:24:31.984Z</time></trkpt><trkpt lat="42.0604046" lon="12.7114391"><ele>112.0</ele><time>2026-05-02T11:24:32.977Z</time></trkpt><trkpt lat="42.0604694" lon="12.7116102"><ele>111.0</ele><time>2026-05-02T11:24:33.984Z</time></trkpt><trkpt lat="42.0605361" lon="12.71176"><ele>110.0</ele><time>2026-05-02T11:24:34.993Z</time></trkpt><trkpt lat="42.0606114" lon="12.7119272"><ele>109.0</ele><time>2026-05-02T11:24:36.007Z</time></trkpt><trkpt lat="42.0606753" lon="12.7121122"><ele>107.66666666666667</ele><time>2026-05-02T11:24:37.005Z</time></trkpt><trkpt lat="42.0607496" lon="12.7123044"><ele>106.33333333333334</ele><time>2026-05-02T11:24:38.004Z</time></trkpt><trkpt lat="42.060826" lon="12.7124599"><ele>105.0</ele><time>2026-05-02T11:24:38.983Z</time></trkpt><trkpt lat="42.0609204" lon="12.7126195"><ele>103.0</ele><time>2026-05-02T11:24:39.993Z</time></trkpt><trkpt lat="42.0610004" lon="12.7127954"><ele>101.0</ele><time>2026-05-02T11:24:40.994Z</time></trkpt><trkpt lat="42.0610903" lon="12.7130003"><ele>99.0</ele><time>2026-05-02T11:24:41.99Z</time></trkpt><trkpt lat="42.0611898" lon="12.7131725"><ele>99.0</ele><time>2026-05-02T11:24:42.997Z</time></trkpt><trkpt lat="42.0612986" lon="12.7133382"><ele>99.0</ele><time>2026-05-02T11:24:43.982Z</time></trkpt><trkpt lat="42.0614095" lon="12.7134742"><ele>99.0</ele><time>2026-05-02T11:24:44.99Z</time></trkpt><trkpt lat="42.0615205" lon="12.7136033"><ele>98.33333333333334</ele><time>2026-05-02T11:24:45.992Z</time></trkpt><trkpt lat="42.0616758" lon="12.7136895"><ele>97.66666666666667</ele><time>2026-05-02T11:24:46.989Z</time></trkpt><trkpt lat="42.0618095" lon="12.7137862"><ele>97.0</ele><time>2026-05-02T11:24:47.987Z</time></trkpt><trkpt lat="42.0619498" lon="12.7138755"><ele>97.0</ele><time>2026-05-02T11:24:48.997Z</time></trkpt><trkpt lat="42.0620981" lon="12.7139617"><ele>97.0</ele><time>2026-05-02T11:24:50.012Z</time></trkpt><trkpt lat="42.0622666" lon="12.7140109"><ele>97.0</ele><time>2026-05-02T11:24:51.006Z</time></trkpt><trkpt lat="42.062453" lon="12.7140898"><ele>97.66666666666667</ele><time>2026-05-02T11:24:52.001Z</time></trkpt><trkpt lat="42.0626337" lon="12.7141853"><ele>98.33333333333334</ele><time>2026-05-02T11:24:52.988Z</time></trkpt><trkpt lat="42.0628279" lon="12.7142669"><ele>99.0</ele><time>2026-05-02T11:24:53.984Z</time></trkpt><trkpt lat="42.0630101" lon="12.7143542"><ele>98.33333333333334</ele><time>2026-05-02T11:24:54.985Z</time></trkpt><trkpt lat="42.0631858" lon="12.7144273"><ele>97.66666666666667</ele><time>2026-05-02T11:24:55.979Z</time></trkpt><trkpt lat="42.0633945" lon="12.7145453"><ele>97.0</ele><time>2026-05-02T11:24:56.983Z</time></trkpt><trkpt lat="42.0636189" lon="12.7146433"><ele>97.0</ele><time>2026-05-02T11:24:57.981Z</time></trkpt><trkpt lat="42.0638221" lon="12.7147429"><ele>97.0</ele><time>2026-05-02T11:24:58.99Z</time></trkpt><trkpt lat="42.0640118" lon="12.7148469"><ele>97.0</ele><time>2026-05-02T11:24:59.979Z</time></trkpt><trkpt lat="42.0641755" lon="12.7149657"><ele>97.0</ele><time>2026-05-02T11:25:00.979Z</time></trkpt><trkpt lat="42.0643296" lon="12.7150729"><ele>97.0</ele><time>2026-05-02T11:25:01.984Z</time></trkpt><trkpt lat="42.0644961" lon="12.7151622"><ele>97.0</ele><time>2026-05-02T11:25:02.988Z</time></trkpt><trkpt lat="42.0646504" lon="12.7152445"><ele>96.75</ele><time>2026-05-02T11:25:03.995Z</time></trkpt><trkpt lat="42.0647987" lon="12.7153265"><ele>96.5</ele><time>2026-05-02T11:25:04.99Z</time></trkpt><trkpt lat="42.0649098" lon="12.7153923"><ele>96.25</ele><time>2026-05-02T11:25:06.018Z</time></trkpt><trkpt lat="42.0650141" lon="12.7154457"><ele>96.0</ele><time>2026-05-02T11:25:06.995Z</time></trkpt><trkpt lat="42.0651662" lon="12.715557"><ele>96.0</ele><time>2026-05-02T11:25:07.988Z</time></trkpt><trkpt lat="42.0653294" lon="12.7156603"><ele>96.0</ele><time>2026-05-02T11:25:08.993Z</time></trkpt><trkpt lat="42.0654709" lon="12.7157686"><ele>96.0</ele><time>2026-05-02T11:25:09.991Z</time></trkpt><trkpt lat="42.0656328" lon="12.7158289"><ele>95.0</ele><time>2026-05-02T11:25:10.99Z</time></trkpt><trkpt lat="42.0658003" lon="12.7159151"><ele>94.0</ele><time>2026-05-02T11:25:11.986Z</time></trkpt><trkpt lat="42.0659754" lon="12.7160249"><ele>93.0</ele><time>2026-05-02T11:25:12.986Z</time></trkpt><trkpt lat="42.0661472" lon="12.7161445"><ele>92.66666666666667</ele><time>2026-05-02T11:25:14.016Z</time></trkpt><trkpt lat="42.0663218" lon="12.7162588"><ele>92.33333333333334</ele><time>2026-05-02T11:25:14.994Z</time></trkpt><trkpt lat="42.0664908" lon="12.7163616"><ele>92.0</ele><time>2026-05-02T11:25:15.998Z</time></trkpt><trkpt lat="42.0666332" lon="12.7164422"><ele>92.0</ele><time>2026-05-02T11:25:16.995Z</time></trkpt><trkpt lat="42.0667814" lon="12.7165222"><ele>92.0</ele><time>2026-05-02T11:25:17.992Z</time></trkpt><trkpt lat="42.0669324" lon="12.7166035"><ele>92.0</ele><time>2026-05-02T11:25:18.993Z</time></trkpt><trkpt lat="42.0670958" lon="12.716679"><ele>92.0</ele><time>2026-05-02T11:25:19.997Z</time></trkpt><trkpt lat="42.0672638" lon="12.7167436"><ele>92.0</ele><time>2026-05-02T11:25:20.985Z</time></trkpt><trkpt lat="42.0674426" lon="12.7168037"><ele>92.0</ele><time>2026-05-02T11:25:22.001Z</time></trkpt><trkpt lat="42.0676212" lon="12.7168508"><ele>91.75</ele><time>2026-05-02T11:25:22.99Z</time></trkpt><trkpt lat="42.0677764" lon="12.716889"><ele>91.5</ele><time>2026-05-02T11:25:23.992Z</time></trkpt><trkpt lat="42.0679211" lon="12.7169165"><ele>91.25</ele><time>2026-05-02T11:25:24.996Z</time></trkpt><trkpt lat="42.0680581" lon="12.7169424"><ele>91.0</ele><time>2026-05-02T11:25:25.991Z</time></trkpt><trkpt lat="42.0682075" lon="12.7169707"><ele>93.0</ele><time>2026-05-02T11:25:27.001Z</time></trkpt><trkpt lat="42.0683604" lon="12.7169891"><ele>95.0</ele><time>2026-05-02T11:25:27.992Z</time></trkpt><trkpt lat="42.068517" lon="12.7170108"><ele>97.0</ele><time>2026-05-02T11:25:28.993Z</time></trkpt><trkpt lat="42.0686927" lon="12.7170246"><ele>97.0</ele><time>2026-05-02T11:25:29.997Z</time></trkpt><trkpt lat="42.0688716" lon="12.7170452"><ele>97.0</ele><time>2026-05-02T11:25:30.994Z</time></trkpt><trkpt lat="42.0690056" lon="12.7170698"><ele>97.0</ele><time>2026-05-02T11:25:31.995Z</time></trkpt><trkpt lat="42.069137" lon="12.7170759"><ele>97.0</ele><time>2026-05-02T11:25:32.989Z</time></trkpt><trkpt lat="42.0692733" lon="12.7171047"><ele>96.5</ele><time>2026-05-02T11:25:33.987Z</time></trkpt><trkpt lat="42.0694049" lon="12.717129"><ele>96.0</ele><time>2026-05-02T11:25:34.992Z</time></trkpt><trkpt lat="42.0695329" lon="12.7171438"><ele>95.5</ele><time>2026-05-02T11:25:35.987Z</time></trkpt><trkpt lat="42.0696843" lon="12.7171662"><ele>95.0</ele><time>2026-05-02T11:25:36.99Z</time></trkpt><trkpt lat="42.0698559" lon="12.7172141"><ele>94.0</ele><time>2026-05-02T11:25:37.984Z</time></trkpt><trkpt lat="42.0700258" lon="12.7172737"><ele>93.0</ele><time>2026-05-02T11:25:38.984Z</time></trkpt><trkpt lat="42.0702083" lon="12.7173409"><ele>92.0</ele><time>2026-05-02T11:25:39.984Z</time></trkpt><trkpt lat="42.0703962" lon="12.7174653"><ele>92.0</ele><time>2026-05-02T11:25:40.987Z</time></trkpt><trkpt lat="42.0706059" lon="12.7176372"><ele>92.0</ele><time>2026-05-02T11:25:41.988Z</time></trkpt><trkpt lat="42.0707888" lon="12.7177814"><ele>91.66666666666667</ele><time>2026-05-02T11:25:42.988Z</time></trkpt><trkpt lat="42.0709275" lon="12.7179036"><ele>91.33333333333333</ele><time>2026-05-02T11:25:43.987Z</time></trkpt><trkpt lat="42.0710899" lon="12.7180459"><ele>91.0</ele><time>2026-05-02T11:25:44.986Z</time></trkpt><trkpt lat="42.0712118" lon="12.7181836"><ele>91.0</ele><time>2026-05-02T11:25:45.992Z</time></trkpt><trkpt lat="42.0713369" lon="12.7183512"><ele>91.0</ele><time>2026-05-02T11:25:46.985Z</time></trkpt><trkpt lat="42.0714684" lon="12.7185004"><ele>91.0</ele><time>2026-05-02T11:25:48.008Z</time></trkpt><trkpt lat="42.0716236" lon="12.7186688"><ele>90.66666666666666</ele><time>2026-05-02T11:25:48.993Z</time></trkpt><trkpt lat="42.071776" lon="12.7188568"><ele>90.33333333333333</ele><time>2026-05-02T11:25:49.996Z</time></trkpt><trkpt lat="42.0719241" lon="12.7190125"><ele>90.0</ele><time>2026-05-02T11:25:50.989Z</time></trkpt><trkpt lat="42.0720667" lon="12.719187"><ele>90.0</ele><time>2026-05-02T11:25:51.992Z</time></trkpt><trkpt lat="42.0722121" lon="12.7193692"><ele>90.0</ele><time>2026-05-02T11:25:52.993Z</time></trkpt><trkpt lat="42.0723468" lon="12.7195395"><ele>90.0</ele><time>2026-05-02T11:25:53.994Z</time></trkpt><trkpt lat="42.0724898" lon="12.7197074"><ele>90.66666666666667</ele><time>2026-05-02T11:25:54.988Z</time></trkpt><trkpt lat="42.0726597" lon="12.7198648"><ele>91.33333333333334</ele><time>2026-05-02T11:25:55.985Z</time></trkpt><trkpt lat="42.0728743" lon="12.7200084"><ele>92.0</ele><time>2026-05-02T11:25:56.984Z</time></trkpt><trkpt lat="42.0731016" lon="12.7201505"><ele>93.0</ele><time>2026-05-02T11:25:57.988Z</time></trkpt><trkpt lat="42.073277" lon="12.7202648"><ele>94.0</ele><time>2026-05-02T11:25:58.989Z</time></trkpt><trkpt lat="42.0734097" lon="12.7203658"><ele>95.0</ele><time>2026-05-02T11:25:59.989Z</time></trkpt><trkpt lat="42.0735192" lon="12.7204772"><ele>95.0</ele><time>2026-05-02T11:26:00.988Z</time></trkpt><trkpt lat="42.0736398" lon="12.7205862"><ele>95.0</ele><time>2026-05-02T11:26:01.983Z</time></trkpt><trkpt lat="42.0737606" lon="12.7206796"><ele>95.0</ele><time>2026-05-02T11:26:02.988Z</time></trkpt><trkpt lat="42.0738785" lon="12.7207533"><ele>95.0</ele><time>2026-05-02T11:26:03.985Z</time></trkpt><trkpt lat="42.0739907" lon="12.720819"><ele>95.0</ele><time>2026-05-02T11:26:04.979Z</time></trkpt><trkpt lat="42.0740816" lon="12.7208696"><ele>95.0</ele><time>2026-05-02T11:26:06.009Z</time></trkpt><trkpt lat="42.0741726" lon="12.7209277"><ele>95.0</ele><time>2026-05-02T11:26:07.033Z</time></trkpt><trkpt lat="42.0742582" lon="12.7209977"><ele>95.0</ele><time>2026-05-02T11:26:07.981Z</time></trkpt><trkpt lat="42.0743786" lon="12.7210832"><ele>95.0</ele><time>2026-05-02T11:26:09.008Z</time></trkpt><trkpt lat="42.0745031" lon="12.7211926"><ele>95.0</ele><time>2026-05-02T11:26:09.99Z</time></trkpt><trkpt lat="42.0746293" lon="12.7212818"><ele>95.0</ele><time>2026-05-02T11:26:11.007Z</time></trkpt><trkpt lat="42.0748185" lon="12.7213924"><ele>95.0</ele><time>2026-05-02T11:26:11.984Z</time></trkpt><trkpt lat="42.0750068" lon="12.7215393"><ele>95.33333333333334</ele><time>2026-05-02T11:26:12.984Z</time></trkpt><trkpt lat="42.0751697" lon="12.7216952"><ele>95.66666666666667</ele><time>2026-05-02T11:26:13.984Z</time></trkpt><trkpt lat="42.0753349" lon="12.7218189"><ele>96.0</ele><time>2026-05-02T11:26:14.993Z</time></trkpt><trkpt lat="42.0755266" lon="12.7219381"><ele>97.5</ele><time>2026-05-02T11:26:15.995Z</time></trkpt><trkpt lat="42.0757245" lon="12.7220776"><ele>99.0</ele><time>2026-05-02T11:26:16.993Z</time></trkpt><trkpt lat="42.0759363" lon="12.722227"><ele>99.0</ele><time>2026-05-02T11:26:17.992Z</time></trkpt><trkpt lat="42.0761165" lon="12.7223559"><ele>99.0</ele><time>2026-05-02T11:26:18.995Z</time></trkpt><trkpt lat="42.0762855" lon="12.7224886"><ele>99.0</ele><time>2026-05-02T11:26:19.994Z</time></trkpt><trkpt lat="42.0764647" lon="12.7226222"><ele>99.33333333333334</ele><time>2026-05-02T11:26:20.993Z</time></trkpt><trkpt lat="42.0766416" lon="12.7227569"><ele>99.66666666666667</ele><time>2026-05-02T11:26:21.992Z</time></trkpt><trkpt lat="42.0768412" lon="12.7228787"><ele>100.0</ele><time>2026-05-02T11:26:22.989Z</time></trkpt><trkpt lat="42.0770394" lon="12.7230201"><ele>100.0</ele><time>2026-05-02T11:26:23.991Z</time></trkpt><trkpt lat="42.0772556" lon="12.7231711"><ele>100.0</ele><time>2026-05-02T11:26:24.984Z</time></trkpt><trkpt lat="42.0774562" lon="12.7233039"><ele>100.66666666666667</ele><time>2026-05-02T11:26:26.014Z</time></trkpt><trkpt lat="42.0776286" lon="12.7234446"><ele>101.33333333333334</ele><time>2026-05-02T11:26:26.99Z</time></trkpt><trkpt lat="42.0778196" lon="12.723579"><ele>102.0</ele><time>2026-05-02T11:26:27.986Z</time></trkpt><trkpt lat="42.0780096" lon="12.7237333"><ele>102.0</ele><time>2026-05-02T11:26:28.991Z</time></trkpt><trkpt lat="42.0782079" lon="12.723885"><ele>102.0</ele><time>2026-05-02T11:26:29.987Z</time></trkpt><trkpt lat="42.0783823" lon="12.7240321"><ele>102.0</ele><time>2026-05-02T11:26:30.986Z</time></trkpt><trkpt lat="42.0785431" lon="12.7241575"><ele>102.33333333333334</ele><time>2026-05-02T11:26:31.981Z</time></trkpt><trkpt lat="42.0786929" lon="12.7242565"><ele>102.66666666666667</ele><time>2026-05-02T11:26:32.982Z</time></trkpt><trkpt lat="42.0788476" lon="12.7243782"><ele>103.0</ele><time>2026-05-02T11:26:33.977Z</time></trkpt><trkpt lat="42.0790187" lon="12.7244951"><ele>104.33333333333334</ele><time>2026-05-02T11:26:34.987Z</time></trkpt><trkpt lat="42.0791897" lon="12.7246155"><ele>105.66666666666666</ele><time>2026-05-02T11:26:35.986Z</time></trkpt><trkpt lat="42.079387" lon="12.7247507"><ele>107.0</ele><time>2026-05-02T11:26:36.98Z</time></trkpt><trkpt lat="42.0795925" lon="12.7248782"><ele>107.0</ele><time>2026-05-02T11:26:37.984Z</time></trkpt><trkpt lat="42.0798041" lon="12.7250166"><ele>107.0</ele><time>2026-05-02T11:26:38.984Z</time></trkpt><trkpt lat="42.0800026" lon="12.7251549"><ele>108.0</ele><time>2026-05-02T11:26:39.983Z</time></trkpt><trkpt lat="42.0801747" lon="12.7252848"><ele>109.0</ele><time>2026-05-02T11:26:40.984Z</time></trkpt><trkpt lat="42.0803548" lon="12.7254071"><ele>110.0</ele><time>2026-05-02T11:26:41.98Z</time></trkpt><trkpt lat="42.0805332" lon="12.7255407"><ele>110.0</ele><time>2026-05-02T11:26:42.987Z</time></trkpt><trkpt lat="42.080703" lon="12.7256817"><ele>110.0</ele><time>2026-05-02T11:26:43.983Z</time></trkpt><trkpt lat="42.0808728" lon="12.7258135"><ele>110.0</ele><time>2026-05-02T11:26:44.977Z</time></trkpt><trkpt lat="42.0810236" lon="12.7259156"><ele>110.33333333333333</ele><time>2026-05-02T11:26:46.009Z</time></trkpt><trkpt lat="42.0811601" lon="12.726022"><ele>110.66666666666666</ele><time>2026-05-02T11:26:47.005Z</time></trkpt><trkpt lat="42.0812881" lon="12.7261233"><ele>111.0</ele><time>2026-05-02T11:26:47.983Z</time></trkpt><trkpt lat="42.08142" lon="12.7262146"><ele>111.0</ele><time>2026-05-02T11:26:48.992Z</time></trkpt><trkpt lat="42.0815293" lon="12.7262911"><ele>111.0</ele><time>2026-05-02T11:26:49.979Z</time></trkpt><trkpt lat="42.0816161" lon="12.7263712"><ele>111.0</ele><time>2026-05-02T11:26:50.981Z</time></trkpt><trkpt lat="42.0817084" lon="12.7264802"><ele>111.0</ele><time>2026-05-02T11:26:51.988Z</time></trkpt><trkpt lat="42.081749" lon="12.7265951"><ele>111.0</ele><time>2026-05-02T11:26:52.987Z</time></trkpt><trkpt lat="42.0817861" lon="12.7266985"><ele>111.4</ele><time>2026-05-02T11:26:53.978Z</time></trkpt><trkpt lat="42.081837" lon="12.7267832"><ele>111.8</ele><time>2026-05-02T11:26:54.99Z</time></trkpt><trkpt lat="42.0819234" lon="12.7268255"><ele>112.20000000000002</ele><time>2026-05-02T11:26:55.988Z</time></trkpt><trkpt lat="42.0820347" lon="12.7268358"><ele>112.60000000000001</ele><time>2026-05-02T11:26:56.989Z</time></trkpt><trkpt lat="42.0821593" lon="12.7268555"><ele>113.0</ele><time>2026-05-02T11:26:57.98Z</time></trkpt><trkpt lat="42.0822756" lon="12.7269038"><ele>113.25</ele><time>2026-05-02T11:26:58.981Z</time></trkpt><trkpt lat="42.0824009" lon="12.726967"><ele>113.5</ele><time>2026-05-02T11:26:59.987Z</time></trkpt><trkpt lat="42.0825277" lon="12.7270479"><ele>113.75</ele><time>2026-05-02T11:27:01.001Z</time></trkpt><trkpt lat="42.0826783" lon="12.7271445"><ele>114.0</ele><time>2026-05-02T11:27:01.988Z</time></trkpt><trkpt lat="42.0828006" lon="12.7272527"><ele>115.0</ele><time>2026-05-02T11:27:02.992Z</time></trkpt><trkpt lat="42.0829216" lon="12.7273549"><ele>116.0</ele><time>2026-05-02T11:27:03.989Z</time></trkpt><trkpt lat="42.0830504" lon="12.7274576"><ele>117.0</ele><time>2026-05-02T11:27:04.985Z</time></trkpt><trkpt lat="42.0831992" lon="12.7275632"><ele>116.66666666666666</ele><time>2026-05-02T11:27:05.985Z</time></trkpt><trkpt lat="42.0833606" lon="12.7276771"><ele>116.33333333333333</ele><time>2026-05-02T11:27:06.989Z</time></trkpt><trkpt lat="42.0835345" lon="12.7277858"><ele>116.0</ele><time>2026-05-02T11:27:07.986Z</time></trkpt><trkpt lat="42.0836815" lon="12.7278907"><ele>116.75</ele><time>2026-05-02T11:27:08.992Z</time></trkpt><trkpt lat="42.0838148" lon="12.7279767"><ele>117.5</ele><time>2026-05-02T11:27:09.988Z</time></trkpt><trkpt lat="42.083939" lon="12.7280642"><ele>118.25</ele><time>2026-05-02T11:27:10.987Z</time></trkpt><trkpt lat="42.0840747" lon="12.7281618"><ele>119.0</ele><time>2026-05-02T11:27:11.984Z</time></trkpt><trkpt lat="42.084207" lon="12.7282529"><ele>119.25</ele><time>2026-05-02T11:27:12.994Z</time></trkpt><trkpt lat="42.0843272" lon="12.7283489"><ele>119.5</ele><time>2026-05-02T11:27:13.988Z</time></trkpt><trkpt lat="42.0844337" lon="12.7284504"><ele>119.75</ele><time>2026-05-02T11:27:14.992Z</time></trkpt><trkpt lat="42.0845498" lon="12.7285563"><ele>120.0</ele><time>2026-05-02T11:27:15.984Z</time></trkpt><trkpt lat="42.0846634" lon="12.7286989"><ele>120.33333333333334</ele><time>2026-05-02T11:27:16.982Z</time></trkpt><trkpt lat="42.0847855" lon="12.7288729"><ele>120.66666666666667</ele><time>2026-05-02T11:27:17.987Z</time></trkpt><trkpt lat="42.0849111" lon="12.7290179"><ele>121.0</ele><time>2026-05-02T11:27:18.999Z</time></trkpt><trkpt lat="42.0850264" lon="12.7292006"><ele>122.0</ele><time>2026-05-02T11:27:19.99Z</time></trkpt><trkpt lat="42.0851302" lon="12.7293915"><ele>123.0</ele><time>2026-05-02T11:27:20.989Z</time></trkpt><trkpt lat="42.0852354" lon="12.7295893"><ele>124.0</ele><time>2026-05-02T11:27:21.983Z</time></trkpt><trkpt lat="42.0853524" lon="12.7298089"><ele>124.33333333333334</ele><time>2026-05-02T11:27:22.994Z</time></trkpt><trkpt lat="42.0854554" lon="12.7300139"><ele>124.66666666666666</ele><time>2026-05-02T11:27:23.995Z</time></trkpt><trkpt lat="42.0855331" lon="12.730246"><ele>125.0</ele><time>2026-05-02T11:27:24.981Z</time></trkpt><trkpt lat="42.0856219" lon="12.7304786"><ele>125.33333333333333</ele><time>2026-05-02T11:27:25.983Z</time></trkpt><trkpt lat="42.0857199" lon="12.7307243"><ele>125.66666666666666</ele><time>2026-05-02T11:27:26.987Z</time></trkpt><trkpt lat="42.085786" lon="12.7310061"><ele>126.0</ele><time>2026-05-02T11:27:27.99Z</time></trkpt><trkpt lat="42.0858671" lon="12.7312964"><ele>127.5</ele><time>2026-05-02T11:27:28.986Z</time></trkpt><trkpt lat="42.085935" lon="12.7316119"><ele>129.0</ele><time>2026-05-02T11:27:29.982Z</time></trkpt><trkpt lat="42.0859594" lon="12.7319168"><ele>129.66666666666666</ele><time>2026-05-02T11:27:30.987Z</time></trkpt><trkpt lat="42.0859927" lon="12.7321953"><ele>130.33333333333331</ele><time>2026-05-02T11:27:31.99Z</time></trkpt><trkpt lat="42.0860152" lon="12.7324623"><ele>131.0</ele><time>2026-05-02T11:27:32.988Z</time></trkpt><trkpt lat="42.0860404" lon="12.7327484"><ele>131.33333333333331</ele><time>2026-05-02T11:27:33.985Z</time></trkpt><trkpt lat="42.0860676" lon="12.7330477"><ele>131.66666666666666</ele><time>2026-05-02T11:27:34.98Z</time></trkpt><trkpt lat="42.0861126" lon="12.7333341"><ele>132.0</ele><time>2026-05-02T11:27:36.01Z</time></trkpt><trkpt lat="42.0861495" lon="12.7336489"><ele>132.5</ele><time>2026-05-02T11:27:37.005Z</time></trkpt><trkpt lat="42.0862" lon="12.7339655"><ele>133.0</ele><time>2026-05-02T11:27:38.012Z</time></trkpt><trkpt lat="42.0862396" lon="12.7342882"><ele>134.5</ele><time>2026-05-02T11:27:39.026Z</time></trkpt><trkpt lat="42.0862923" lon="12.7346134"><ele>136.0</ele><time>2026-05-02T11:27:40.028Z</time></trkpt><trkpt lat="42.08637" lon="12.7349225"><ele>136.0</ele><time>2026-05-02T11:27:41.026Z</time></trkpt><trkpt lat="42.086442" lon="12.7351849"><ele>136.0</ele><time>2026-05-02T11:27:42.007Z</time></trkpt><trkpt lat="42.0864991" lon="12.7354177"><ele>136.0</ele><time>2026-05-02T11:27:42.985Z</time></trkpt><trkpt lat="42.086537" lon="12.7356659"><ele>137.25</ele><time>2026-05-02T11:27:43.994Z</time></trkpt><trkpt lat="42.0866074" lon="12.7358618"><ele>138.5</ele><time>2026-05-02T11:27:44.989Z</time></trkpt><trkpt lat="42.0866696" lon="12.7360334"><ele>139.75</ele><time>2026-05-02T11:27:45.986Z</time></trkpt><trkpt lat="42.0867333" lon="12.736177"><ele>141.0</ele><time>2026-05-02T11:27:46.987Z</time></trkpt><trkpt lat="42.0867925" lon="12.7362638"><ele>141.0</ele><time>2026-05-02T11:27:47.981Z</time></trkpt><trkpt lat="42.0868404" lon="12.7363205"><ele>141.0</ele><time>2026-05-02T11:27:49.99Z</time></trkpt><trkpt lat="42.0869105" lon="12.7363089"><ele>141.0</ele><time>2026-05-02T11:27:51.993Z</time></trkpt><trkpt lat="42.0869496" lon="12.7362351"><ele>141.0</ele><time>2026-05-02T11:27:58.179Z</time></trkpt><trkpt lat="42.0868951" lon="12.7361867"><ele>141.0</ele><time>2026-05-02T11:29:11.99Z</time></trkpt><trkpt lat="42.0869491" lon="12.7362402"><ele>141.0</ele><time>2026-05-02T11:33:36.018Z</time></trkpt><trkpt lat="42.0870513" lon="12.7363041"><ele>141.0</ele><time>2026-05-02T11:43:19.019Z</time></trkpt><trkpt lat="42.0871181" lon="12.736338"><ele>141.0</ele><time>2026-05-02T11:43:20.024Z</time></trkpt><trkpt lat="42.0871916" lon="12.7363806"><ele>141.0</ele><time>2026-05-02T11:43:21.024Z</time></trkpt><trkpt lat="42.0872664" lon="12.7364257"><ele>141.0</ele><time>2026-05-02T11:43:22.027Z</time></trkpt><trkpt lat="42.087353" lon="12.736465"><ele>141.0</ele><time>2026-05-02T11:43:23.011Z</time></trkpt><trkpt lat="42.08746" lon="12.7365138"><ele>141.0</ele><time>2026-05-02T11:43:24.02Z</time></trkpt><trkpt lat="42.0875813" lon="12.7365664"><ele>142.0</ele><time>2026-05-02T11:43:25.018Z</time></trkpt><trkpt lat="42.0877089" lon="12.7366165"><ele>143.0</ele><time>2026-05-02T11:43:26.027Z</time></trkpt><trkpt lat="42.087832" lon="12.7366658"><ele>144.0</ele><time>2026-05-02T11:43:27.025Z</time></trkpt><trkpt lat="42.0879447" lon="12.73671"><ele>145.0</ele><time>2026-05-02T11:43:28.023Z</time></trkpt><trkpt lat="42.0880492" lon="12.736753"><ele>145.0</ele><time>2026-05-02T11:43:29.025Z</time></trkpt><trkpt lat="42.0881527" lon="12.7368036"><ele>145.0</ele><time>2026-05-02T11:43:30.019Z</time></trkpt><trkpt lat="42.0882576" lon="12.7368483"><ele>145.0</ele><time>2026-05-02T11:43:31.026Z</time></trkpt><trkpt lat="42.0883565" lon="12.7368904"><ele>145.0</ele><time>2026-05-02T11:43:32.02Z</time></trkpt><trkpt lat="42.0884522" lon="12.7369316"><ele>145.0</ele><time>2026-05-02T11:43:33.027Z</time></trkpt><trkpt lat="42.0885483" lon="12.7369709"><ele>145.4</ele><time>2026-05-02T11:43:34.03Z</time></trkpt><trkpt lat="42.0886417" lon="12.7370105"><ele>145.8</ele><time>2026-05-02T11:43:35.023Z</time></trkpt><trkpt lat="42.0887367" lon="12.7370506"><ele>146.2</ele><time>2026-05-02T11:43:36.023Z</time></trkpt><trkpt lat="42.088828" lon="12.7370882"><ele>146.6</ele><time>2026-05-02T11:43:37.026Z</time></trkpt><trkpt lat="42.0889179" lon="12.7371277"><ele>147.0</ele><time>2026-05-02T11:43:38.026Z</time></trkpt><trkpt lat="42.0890172" lon="12.7371737"><ele>146.6</ele><time>2026-05-02T11:43:39.022Z</time></trkpt><trkpt lat="42.0891304" lon="12.7372186"><ele>146.2</ele><time>2026-05-02T11:43:40.034Z</time></trkpt><trkpt lat="42.0892399" lon="12.7372566"><ele>145.8</ele><time>2026-05-02T11:43:41.02Z</time></trkpt><trkpt lat="42.0893349" lon="12.7372969"><ele>145.4</ele><time>2026-05-02T11:43:42.03Z</time></trkpt><trkpt lat="42.0894278" lon="12.7373344"><ele>145.0</ele><time>2026-05-02T11:43:43.033Z</time></trkpt><trkpt lat="42.089527" lon="12.7373758"><ele>145.0</ele><time>2026-05-02T11:43:44.028Z</time></trkpt><trkpt lat="42.0896228" lon="12.7374148"><ele>145.0</ele><time>2026-05-02T11:43:45.019Z</time></trkpt><trkpt lat="42.089707" lon="12.7374486"><ele>145.0</ele><time>2026-05-02T11:43:46.03Z</time></trkpt><trkpt lat="42.0897831" lon="12.7374856"><ele>145.0</ele><time>2026-05-02T11:43:47.033Z</time></trkpt><trkpt lat="42.0898706" lon="12.7375179"><ele>145.0</ele><time>2026-05-02T11:43:48.023Z</time></trkpt><trkpt lat="42.0899632" lon="12.737552"><ele>144.8</ele><time>2026-05-02T11:43:49.034Z</time></trkpt><trkpt lat="42.0900593" lon="12.7375952"><ele>144.6</ele><time>2026-05-02T11:43:50.02Z</time></trkpt><trkpt lat="42.0901581" lon="12.7376458"><ele>144.4</ele><time>2026-05-02T11:43:51.023Z</time></trkpt><trkpt lat="42.0902675" lon="12.7376995"><ele>144.2</ele><time>2026-05-02T11:43:52.031Z</time></trkpt><trkpt lat="42.090373" lon="12.7377414"><ele>144.0</ele><time>2026-05-02T11:43:53.019Z</time></trkpt><trkpt lat="42.0904755" lon="12.7377758"><ele>144.33333333333334</ele><time>2026-05-02T11:43:54.021Z</time></trkpt><trkpt lat="42.09056" lon="12.7378088"><ele>144.66666666666666</ele><time>2026-05-02T11:43:55.033Z</time></trkpt><trkpt lat="42.0906422" lon="12.7378396"><ele>145.0</ele><time>2026-05-02T11:43:56.028Z</time></trkpt><trkpt lat="42.090705" lon="12.7378703"><ele>145.33333333333331</ele><time>2026-05-02T11:43:57.027Z</time></trkpt><trkpt lat="42.0907603" lon="12.7379163"><ele>145.66666666666666</ele><time>2026-05-02T11:44:04.03Z</time></trkpt><trkpt lat="42.0907991" lon="12.738049"><ele>146.0</ele><time>2026-05-02T11:44:07.018Z</time></trkpt><trkpt lat="42.0907895" lon="12.7381464"><ele>146.0</ele><time>2026-05-02T11:44:08.02Z</time></trkpt><trkpt lat="42.0907632" lon="12.7382785"><ele>146.0</ele><time>2026-05-02T11:44:09.021Z</time></trkpt><trkpt lat="42.0907348" lon="12.7384477"><ele>146.0</ele><time>2026-05-02T11:44:10.024Z</time></trkpt><trkpt lat="42.0907166" lon="12.7386296"><ele>146.0</ele><time>2026-05-02T11:44:11.024Z</time></trkpt><trkpt lat="42.0906955" lon="12.7388149"><ele>147.33333333333331</ele><time>2026-05-02T11:44:12.018Z</time></trkpt><trkpt lat="42.0906716" lon="12.7390179"><ele>148.66666666666666</ele><time>2026-05-02T11:44:13.033Z</time></trkpt><trkpt lat="42.0906339" lon="12.7392397"><ele>150.0</ele><time>2026-05-02T11:44:14.024Z</time></trkpt><trkpt lat="42.0905834" lon="12.7394545"><ele>151.0</ele><time>2026-05-02T11:44:15.02Z</time></trkpt><trkpt lat="42.0905692" lon="12.7396075"><ele>152.0</ele><time>2026-05-02T11:44:16.03Z</time></trkpt><trkpt lat="42.0905886" lon="12.7397672"><ele>153.0</ele><time>2026-05-02T11:44:17.015Z</time></trkpt><trkpt lat="42.0906242" lon="12.7399745"><ele>154.0</ele><time>2026-05-02T11:44:18.029Z</time></trkpt><trkpt lat="42.0906429" lon="12.7401652"><ele>155.0</ele><time>2026-05-02T11:44:19.022Z</time></trkpt><trkpt lat="42.0906601" lon="12.7403574"><ele>156.0</ele><time>2026-05-02T11:44:20.026Z</time></trkpt><trkpt lat="42.0906715" lon="12.740515"><ele>157.0</ele><time>2026-05-02T11:44:21.021Z</time></trkpt><trkpt lat="42.090698" lon="12.7406518"><ele>158.0</ele><time>2026-05-02T11:44:22.021Z</time></trkpt><trkpt lat="42.0907284" lon="12.7408052"><ele>158.0</ele><time>2026-05-02T11:44:23.014Z</time></trkpt><trkpt lat="42.0907406" lon="12.7408903"><ele>158.0</ele><time>2026-05-02T11:44:24.022Z</time></trkpt><trkpt lat="42.0907277" lon="12.7410253"><ele>158.0</ele><time>2026-05-02T11:44:26.02Z</time></trkpt><trkpt lat="42.0907712" lon="12.7410923"><ele>158.0</ele><time>2026-05-02T11:44:35.016Z</time></trkpt><trkpt lat="42.090821" lon="12.7410272"><ele>158.0</ele><time>2026-05-02T11:44:51.024Z</time></trkpt><trkpt lat="42.0908645" lon="12.7409523"><ele>158.0</ele><time>2026-05-02T11:44:53.025Z</time></trkpt><trkpt lat="42.0909665" lon="12.7408323"><ele>157.5</ele><time>2026-05-02T11:44:55.02Z</time></trkpt><trkpt lat="42.091038" lon="12.7407693"><ele>157.0</ele><time>2026-05-02T11:44:56.022Z</time></trkpt><trkpt lat="42.0911074" lon="12.7407032"><ele>156.5</ele><time>2026-05-02T11:44:57.015Z</time></trkpt><trkpt lat="42.0911852" lon="12.7406394"><ele>156.0</ele><time>2026-05-02T11:44:58.009Z</time></trkpt><trkpt lat="42.091262" lon="12.7405828"><ele>155.5</ele><time>2026-05-02T11:44:59.021Z</time></trkpt><trkpt lat="42.091329" lon="12.7405373"><ele>155.0</ele><time>2026-05-02T11:45:00.011Z</time></trkpt><trkpt lat="42.0913861" lon="12.7404747"><ele>155.0</ele><time>2026-05-02T11:45:01.019Z</time></trkpt><trkpt lat="42.091458" lon="12.7403971"><ele>155.0</ele><time>2026-05-02T11:45:02.01Z</time></trkpt><trkpt lat="42.0915252" lon="12.7403315"><ele>155.0</ele><time>2026-05-02T11:45:03.021Z</time></trkpt><trkpt lat="42.0915822" lon="12.7402801"><ele>155.0</ele><time>2026-05-02T11:45:04.008Z</time></trkpt><trkpt lat="42.0916335" lon="12.7402298"><ele>155.0</ele><time>2026-05-02T11:45:05.012Z</time></trkpt><trkpt lat="42.0917389" lon="12.7401285"><ele>155.0</ele><time>2026-05-02T11:45:07.017Z</time></trkpt><trkpt lat="42.0917969" lon="12.7400503"><ele>154.5</ele><time>2026-05-02T11:45:08.01Z</time></trkpt><trkpt lat="42.091857" lon="12.7399697"><ele>154.0</ele><time>2026-05-02T11:45:09.027Z</time></trkpt><trkpt lat="42.0919068" lon="12.7398875"><ele>153.5</ele><time>2026-05-02T11:45:10.012Z</time></trkpt><trkpt lat="42.0919713" lon="12.7397888"><ele>153.0</ele><time>2026-05-02T11:45:11.022Z</time></trkpt><trkpt lat="42.0920319" lon="12.7397059"><ele>152.5</ele><time>2026-05-02T11:45:12.016Z</time></trkpt><trkpt lat="42.0920927" lon="12.7396427"><ele>152.0</ele><time>2026-05-02T11:45:13.016Z</time></trkpt><trkpt lat="42.0921481" lon="12.7395916"><ele>152.0</ele><time>2026-05-02T11:45:14.021Z</time></trkpt><trkpt lat="42.0922268" lon="12.7395261"><ele>152.0</ele><time>2026-05-02T11:45:16.028Z</time></trkpt><trkpt lat="42.0922957" lon="12.7395113"><ele>152.0</ele><time>2026-05-02T11:45:18.024Z</time></trkpt><trkpt lat="42.0923721" lon="12.7395267"><ele>152.0</ele><time>2026-05-02T11:45:20.034Z</time></trkpt><trkpt lat="42.0924639" lon="12.7395848"><ele>152.0</ele><time>2026-05-02T11:45:22.026Z</time></trkpt><trkpt lat="42.0925388" lon="12.7396985"><ele>152.0</ele><time>2026-05-02T11:45:24.023Z</time></trkpt><trkpt lat="42.0925332" lon="12.7398238"><ele>152.0</ele><time>2026-05-02T11:45:26.013Z</time></trkpt><trkpt lat="42.0924931" lon="12.7399026"><ele>152.0</ele><time>2026-05-02T11:45:27.007Z</time></trkpt><trkpt lat="42.0924097" lon="12.7400286"><ele>152.0</ele><time>2026-05-02T11:45:29.01Z</time></trkpt><trkpt lat="42.0923523" lon="12.7401528"><ele>152.0</ele><time>2026-05-02T11:45:31.011Z</time></trkpt><trkpt lat="42.092369" lon="12.7402459"><ele>152.33333333333331</ele><time>2026-05-02T11:45:32.024Z</time></trkpt><trkpt lat="42.0923944" lon="12.740334"><ele>152.66666666666666</ele><time>2026-05-02T11:45:33.009Z</time></trkpt><trkpt lat="42.0924268" lon="12.7404196"><ele>153.0</ele><time>2026-05-02T11:45:34.024Z</time></trkpt><trkpt lat="42.0924667" lon="12.7405422"><ele>153.33333333333334</ele><time>2026-05-02T11:45:36.014Z</time></trkpt><trkpt lat="42.0924687" lon="12.7406579"><ele>153.66666666666669</ele><time>2026-05-02T11:45:40.006Z</time></trkpt><trkpt lat="42.0924938" lon="12.740777"><ele>154.0</ele><time>2026-05-02T11:45:42.007Z</time></trkpt><trkpt lat="42.0925497" lon="12.7408631"><ele>154.4</ele><time>2026-05-02T11:45:44.013Z</time></trkpt><trkpt lat="42.0926491" lon="12.7408677"><ele>154.8</ele><time>2026-05-02T11:45:46.016Z</time></trkpt><trkpt lat="42.0927422" lon="12.740812"><ele>155.2</ele><time>2026-05-02T11:45:48.01Z</time></trkpt><trkpt lat="42.0926548" lon="12.7407992"><ele>155.6</ele><time>2026-05-02T11:46:21.011Z</time></trkpt><trkpt lat="42.0925606" lon="12.7408165"><ele>156.0</ele><time>2026-05-02T11:46:23.008Z</time></trkpt><trkpt lat="42.0924996" lon="12.7407624"><ele>156.0</ele><time>2026-05-02T11:46:25.018Z</time></trkpt><trkpt lat="42.0924879" lon="12.7406435"><ele>156.0</ele><time>2026-05-02T11:46:27.012Z</time></trkpt><trkpt lat="42.0924788" lon="12.7405248"><ele>156.0</ele><time>2026-05-02T11:46:29.02Z</time></trkpt><trkpt lat="42.0924491" lon="12.7404395"><ele>156.0</ele><time>2026-05-02T11:46:30.019Z</time></trkpt><trkpt lat="42.0924034" lon="12.7403484"><ele>156.0</ele><time>2026-05-02T11:46:31.021Z</time></trkpt><trkpt lat="42.0923625" lon="12.7402463"><ele>156.0</ele><time>2026-05-02T11:46:32.024Z</time></trkpt><trkpt lat="42.0923329" lon="12.7401391"><ele>155.57142857142858</ele><time>2026-05-02T11:46:33.015Z</time></trkpt><trkpt lat="42.0923108" lon="12.7400369"><ele>155.14285714285714</ele><time>2026-05-02T11:46:34.016Z</time></trkpt><trkpt lat="42.0923119" lon="12.7399426"><ele>154.71428571428572</ele><time>2026-05-02T11:46:35.021Z</time></trkpt><trkpt lat="42.0923347" lon="12.7398529"><ele>154.28571428571428</ele><time>2026-05-02T11:46:36.016Z</time></trkpt><trkpt lat="42.0923761" lon="12.7397668"><ele>153.85714285714286</ele><time>2026-05-02T11:46:37.021Z</time></trkpt><trkpt lat="42.0924126" lon="12.7396903"><ele>153.42857142857142</ele><time>2026-05-02T11:46:38.01Z</time></trkpt><trkpt lat="42.0924464" lon="12.7396182"><ele>153.0</ele><time>2026-05-02T11:46:39.014Z</time></trkpt><trkpt lat="42.0924321" lon="12.7394961"><ele>152.8</ele><time>2026-05-02T11:46:41.015Z</time></trkpt><trkpt lat="42.0923155" lon="12.7394278"><ele>152.60000000000002</ele><time>2026-05-02T11:46:43.013Z</time></trkpt><trkpt lat="42.0922426" lon="12.7394171"><ele>152.39999999999998</ele><time>2026-05-02T11:46:44.011Z</time></trkpt><trkpt lat="42.0921788" lon="12.73942"><ele>152.2</ele><time>2026-05-02T11:46:45.016Z</time></trkpt><trkpt lat="42.0920857" lon="12.7394632"><ele>152.0</ele><time>2026-05-02T11:46:47.01Z</time></trkpt><trkpt lat="42.091996" lon="12.7395579"><ele>152.0</ele><time>2026-05-02T11:46:49.016Z</time></trkpt><trkpt lat="42.0919513" lon="12.7396287"><ele>152.0</ele><time>2026-05-02T11:46:50.021Z</time></trkpt><trkpt lat="42.0919135" lon="12.7397124"><ele>152.0</ele><time>2026-05-02T11:46:51.017Z</time></trkpt><trkpt lat="42.0918821" lon="12.7398116"><ele>152.0</ele><time>2026-05-02T11:46:52.011Z</time></trkpt><trkpt lat="42.0918347" lon="12.7398925"><ele>152.0</ele><time>2026-05-02T11:46:53.024Z</time></trkpt><trkpt lat="42.0917909" lon="12.7399659"><ele>152.0</ele><time>2026-05-02T11:46:54.012Z</time></trkpt><trkpt lat="42.0917406" lon="12.740048"><ele>152.0</ele><time>2026-05-02T11:46:55.024Z</time></trkpt><trkpt lat="42.0916883" lon="12.740115"><ele>152.0</ele><time>2026-05-02T11:46:56.019Z</time></trkpt><trkpt lat="42.0916232" lon="12.740183"><ele>152.0</ele><time>2026-05-02T11:46:57.021Z</time></trkpt><trkpt lat="42.091565" lon="12.740249"><ele>152.0</ele><time>2026-05-02T11:46:58.023Z</time></trkpt><trkpt lat="42.0915062" lon="12.7403194"><ele>152.0</ele><time>2026-05-02T11:46:59.02Z</time></trkpt><trkpt lat="42.0914496" lon="12.7403947"><ele>152.0</ele><time>2026-05-02T11:47:00.006Z</time></trkpt><trkpt lat="42.0914156" lon="12.7404703"><ele>152.0</ele><time>2026-05-02T11:47:01.023Z</time></trkpt><trkpt lat="42.0913799" lon="12.7405492"><ele>152.6</ele><time>2026-05-02T11:47:02.015Z</time></trkpt><trkpt lat="42.0913075" lon="12.7406727"><ele>153.2</ele><time>2026-05-02T11:47:04.094Z</time></trkpt><trkpt lat="42.091213" lon="12.7407676"><ele>153.8</ele><time>2026-05-02T11:47:06.013Z</time></trkpt><trkpt lat="42.0911582" lon="12.7408159"><ele>154.4</ele><time>2026-05-02T11:47:07.011Z</time></trkpt><trkpt lat="42.0910862" lon="12.7408881"><ele>155.0</ele><time>2026-05-02T11:47:08.024Z</time></trkpt><trkpt lat="42.0910101" lon="12.7409648"><ele>155.0</ele><time>2026-05-02T11:47:09.001Z</time></trkpt><trkpt lat="42.0909584" lon="12.7410239"><ele>155.0</ele><time>2026-05-02T11:47:10.027Z</time></trkpt><trkpt lat="42.0908777" lon="12.7411202"><ele>155.0</ele><time>2026-05-02T11:47:12.018Z</time></trkpt><trkpt lat="42.090841" lon="12.7411929"><ele>155.0</ele><time>2026-05-02T11:47:14.02Z</time></trkpt><trkpt lat="42.0909306" lon="12.7412793"><ele>155.0</ele><time>2026-05-02T11:47:17.014Z</time></trkpt><trkpt lat="42.0910022" lon="12.7413218"><ele>155.0</ele><time>2026-05-02T11:47:18.017Z</time></trkpt><trkpt lat="42.0911006" lon="12.741401"><ele>156.0</ele><time>2026-05-02T11:47:19.019Z</time></trkpt><trkpt lat="42.0912083" lon="12.7415031"><ele>157.0</ele><time>2026-05-02T11:47:20.015Z</time></trkpt><trkpt lat="42.0913277" lon="12.7416156"><ele>158.0</ele><time>2026-05-02T11:47:21.024Z</time></trkpt><trkpt lat="42.0914453" lon="12.7417386"><ele>159.0</ele><time>2026-05-02T11:47:22.019Z</time></trkpt><trkpt lat="42.0915895" lon="12.7418777"><ele>159.75</ele><time>2026-05-02T11:47:23.023Z</time></trkpt><trkpt lat="42.0917119" lon="12.7419894"><ele>160.5</ele><time>2026-05-02T11:47:24.015Z</time></trkpt><trkpt lat="42.0918354" lon="12.7421211"><ele>161.25</ele><time>2026-05-02T11:47:25.016Z</time></trkpt><trkpt lat="42.09194" lon="12.7422067"><ele>162.0</ele><time>2026-05-02T11:47:26.018Z</time></trkpt><trkpt lat="42.0920581" lon="12.7423535"><ele>162.0</ele><time>2026-05-02T11:47:27.01Z</time></trkpt><trkpt lat="42.0921869" lon="12.7424757"><ele>162.0</ele><time>2026-05-02T11:47:28.007Z</time></trkpt><trkpt lat="42.0922654" lon="12.7425767"><ele>162.0</ele><time>2026-05-02T11:47:29.012Z</time></trkpt><trkpt lat="42.092367" lon="12.7426908"><ele>162.0</ele><time>2026-05-02T11:47:30.009Z</time></trkpt><trkpt lat="42.0924947" lon="12.7427815"><ele>162.0</ele><time>2026-05-02T11:47:31.002Z</time></trkpt><trkpt lat="42.0925773" lon="12.7429012"><ele>162.0</ele><time>2026-05-02T11:47:32.01Z</time></trkpt><trkpt lat="42.092654" lon="12.7429988"><ele>162.0</ele><time>2026-05-02T11:47:33.026Z</time></trkpt><trkpt lat="42.0927276" lon="12.7430961"><ele>162.0</ele><time>2026-05-02T11:47:34.018Z</time></trkpt><trkpt lat="42.0928019" lon="12.743202"><ele>162.0</ele><time>2026-05-02T11:47:35.01Z</time></trkpt><trkpt lat="42.0928851" lon="12.743322"><ele>162.0</ele><time>2026-05-02T11:47:36.022Z</time></trkpt><trkpt lat="42.0929732" lon="12.7434594"><ele>162.0</ele><time>2026-05-02T11:47:37.019Z</time></trkpt><trkpt lat="42.0930501" lon="12.7436003"><ele>162.0</ele><time>2026-05-02T11:47:38.011Z</time></trkpt><trkpt lat="42.0931313" lon="12.7437107"><ele>162.0</ele><time>2026-05-02T11:47:39.019Z</time></trkpt><trkpt lat="42.0932128" lon="12.7438091"><ele>161.25</ele><time>2026-05-02T11:47:40.021Z</time></trkpt><trkpt lat="42.0932972" lon="12.7439119"><ele>160.5</ele><time>2026-05-02T11:47:41.006Z</time></trkpt><trkpt lat="42.0933779" lon="12.744022"><ele>159.75</ele><time>2026-05-02T11:47:42.017Z</time></trkpt><trkpt lat="42.09346" lon="12.7441424"><ele>159.0</ele><time>2026-05-02T11:47:43.017Z</time></trkpt><trkpt lat="42.0935446" lon="12.7442777"><ele>160.25</ele><time>2026-05-02T11:47:44.019Z</time></trkpt><trkpt lat="42.0936304" lon="12.7444021"><ele>161.5</ele><time>2026-05-02T11:47:45.013Z</time></trkpt><trkpt lat="42.0937087" lon="12.7445223"><ele>162.75</ele><time>2026-05-02T11:47:46.021Z</time></trkpt><trkpt lat="42.0937843" lon="12.7446369"><ele>164.0</ele><time>2026-05-02T11:47:47.007Z</time></trkpt><trkpt lat="42.0938543" lon="12.7447526"><ele>164.0</ele><time>2026-05-02T11:47:48.021Z</time></trkpt><trkpt lat="42.0939253" lon="12.7448724"><ele>164.0</ele><time>2026-05-02T11:47:49.012Z</time></trkpt><trkpt lat="42.0939926" lon="12.7449997"><ele>164.0</ele><time>2026-05-02T11:47:50.018Z</time></trkpt><trkpt lat="42.0940636" lon="12.7451297"><ele>164.0</ele><time>2026-05-02T11:47:51.016Z</time></trkpt><trkpt lat="42.0941407" lon="12.7452631"><ele>164.0</ele><time>2026-05-02T11:47:52.019Z</time></trkpt><trkpt lat="42.0942049" lon="12.7453918"><ele>164.0</ele><time>2026-05-02T11:47:53.012Z</time></trkpt><trkpt lat="42.0942747" lon="12.745528"><ele>164.0</ele><time>2026-05-02T11:47:54.009Z</time></trkpt><trkpt lat="42.0943428" lon="12.7456623"><ele>164.0</ele><time>2026-05-02T11:47:55.024Z</time></trkpt><trkpt lat="42.0944098" lon="12.7457798"><ele>164.0</ele><time>2026-05-02T11:47:56.007Z</time></trkpt><trkpt lat="42.0944605" lon="12.7458769"><ele>164.0</ele><time>2026-05-02T11:47:57.019Z</time></trkpt><trkpt lat="42.0945126" lon="12.745954"><ele>164.0</ele><time>2026-05-02T11:47:58.014Z</time></trkpt><trkpt lat="42.094601" lon="12.7460614"><ele>164.0</ele><time>2026-05-02T11:48:00.015Z</time></trkpt><trkpt lat="42.094656" lon="12.7461278"><ele>164.0</ele><time>2026-05-02T11:48:01.012Z</time></trkpt><trkpt lat="42.0947126" lon="12.7462211"><ele>164.0</ele><time>2026-05-02T11:48:02.008Z</time></trkpt><trkpt lat="42.094772" lon="12.7463217"><ele>164.79999999999998</ele><time>2026-05-02T11:48:03.012Z</time></trkpt><trkpt lat="42.0948353" lon="12.7464144"><ele>165.6</ele><time>2026-05-02T11:48:04.012Z</time></trkpt><trkpt lat="42.0948988" lon="12.7465082"><ele>166.4</ele><time>2026-05-02T11:48:05.008Z</time></trkpt><trkpt lat="42.0949593" lon="12.7466048"><ele>167.2</ele><time>2026-05-02T11:48:06.011Z</time></trkpt><trkpt lat="42.0950167" lon="12.7467002"><ele>168.0</ele><time>2026-05-02T11:48:07.014Z</time></trkpt><trkpt lat="42.0950534" lon="12.7468071"><ele>168.4</ele><time>2026-05-02T11:48:08.012Z</time></trkpt><trkpt lat="42.0950852" lon="12.7469273"><ele>168.8</ele><time>2026-05-02T11:48:09.014Z</time></trkpt><trkpt lat="42.0951293" lon="12.7470364"><ele>169.2</ele><time>2026-05-02T11:48:10.012Z</time></trkpt><trkpt lat="42.0951886" lon="12.7471312"><ele>169.6</ele><time>2026-05-02T11:48:11.016Z</time></trkpt><trkpt lat="42.0952487" lon="12.7472246"><ele>170.0</ele><time>2026-05-02T11:48:12.008Z</time></trkpt><trkpt lat="42.0953314" lon="12.7473122"><ele>170.0</ele><time>2026-05-02T11:48:13.018Z</time></trkpt><trkpt lat="42.0954173" lon="12.7473859"><ele>170.0</ele><time>2026-05-02T11:48:14.006Z</time></trkpt><trkpt lat="42.095512" lon="12.7474465"><ele>170.0</ele><time>2026-05-02T11:48:15.009Z</time></trkpt><trkpt lat="42.0955971" lon="12.7474967"><ele>170.0</ele><time>2026-05-02T11:48:16.016Z</time></trkpt><trkpt lat="42.0956909" lon="12.7475399"><ele>170.0</ele><time>2026-05-02T11:48:17.017Z</time></trkpt><trkpt lat="42.0957674" lon="12.7475848"><ele>170.5</ele><time>2026-05-02T11:48:18.008Z</time></trkpt><trkpt lat="42.0958355" lon="12.7476217"><ele>171.0</ele><time>2026-05-02T11:48:19.015Z</time></trkpt><trkpt lat="42.0959033" lon="12.7476838"><ele>171.5</ele><time>2026-05-02T11:48:20.011Z</time></trkpt><trkpt lat="42.0959607" lon="12.7477641"><ele>172.0</ele><time>2026-05-02T11:48:21.01Z</time></trkpt><trkpt lat="42.0960242" lon="12.7478567"><ele>172.5</ele><time>2026-05-02T11:48:22.013Z</time></trkpt><trkpt lat="42.0960967" lon="12.7479601"><ele>173.0</ele><time>2026-05-02T11:48:23.01Z</time></trkpt><trkpt lat="42.0961626" lon="12.7480515"><ele>173.60000000000002</ele><time>2026-05-02T11:48:24.008Z</time></trkpt><trkpt lat="42.096224" lon="12.7481324"><ele>174.20000000000002</ele><time>2026-05-02T11:48:25.012Z</time></trkpt><trkpt lat="42.0962746" lon="12.7482218"><ele>174.8</ele><time>2026-05-02T11:48:26.025Z</time></trkpt><trkpt lat="42.096333" lon="12.7483376"><ele>175.4</ele><time>2026-05-02T11:48:27.006Z</time></trkpt><trkpt lat="42.0963934" lon="12.7484813"><ele>176.0</ele><time>2026-05-02T11:48:28.021Z</time></trkpt><trkpt lat="42.096449" lon="12.7486323"><ele>176.0</ele><time>2026-05-02T11:48:29.016Z</time></trkpt><trkpt lat="42.0964962" lon="12.7487938"><ele>176.0</ele><time>2026-05-02T11:48:30.012Z</time></trkpt><trkpt lat="42.0965402" lon="12.748974"><ele>176.0</ele><time>2026-05-02T11:48:31.02Z</time></trkpt><trkpt lat="42.0965898" lon="12.7491711"><ele>176.0</ele><time>2026-05-02T11:48:32.008Z</time></trkpt><trkpt lat="42.0966273" lon="12.7493804"><ele>176.75</ele><time>2026-05-02T11:48:33.012Z</time></trkpt><trkpt lat="42.0966645" lon="12.7495786"><ele>177.5</ele><time>2026-05-02T11:48:34.02Z</time></trkpt><trkpt lat="42.0966888" lon="12.7497439"><ele>178.25</ele><time>2026-05-02T11:48:35.008Z</time></trkpt><trkpt lat="42.0967309" lon="12.7499199"><ele>179.0</ele><time>2026-05-02T11:48:36.013Z</time></trkpt><trkpt lat="42.0967839" lon="12.7500935"><ele>179.2</ele><time>2026-05-02T11:48:37.027Z</time></trkpt><trkpt lat="42.0968059" lon="12.7502347"><ele>179.39999999999998</ele><time>2026-05-02T11:48:38.005Z</time></trkpt><trkpt lat="42.0968434" lon="12.7503741"><ele>179.6</ele><time>2026-05-02T11:48:39.024Z</time></trkpt><trkpt lat="42.0968713" lon="12.750514"><ele>179.8</ele><time>2026-05-02T11:48:40.019Z</time></trkpt><trkpt lat="42.0968569" lon="12.7506375"><ele>180.0</ele><time>2026-05-02T11:48:41.023Z</time></trkpt><trkpt lat="42.0968377" lon="12.7507757"><ele>180.0</ele><time>2026-05-02T11:48:42.014Z</time></trkpt><trkpt lat="42.0968372" lon="12.7509102"><ele>180.0</ele><time>2026-05-02T11:48:43.016Z</time></trkpt><trkpt lat="42.096836" lon="12.7510478"><ele>180.0</ele><time>2026-05-02T11:48:44.019Z</time></trkpt><trkpt lat="42.0968337" lon="12.7511704"><ele>180.0</ele><time>2026-05-02T11:48:45.021Z</time></trkpt><trkpt lat="42.0968377" lon="12.7513004"><ele>180.0</ele><time>2026-05-02T11:48:46.018Z</time></trkpt><trkpt lat="42.096848" lon="12.7514286"><ele>180.2</ele><time>2026-05-02T11:48:47.014Z</time></trkpt><trkpt lat="42.096871" lon="12.7515663"><ele>180.4</ele><time>2026-05-02T11:48:48.011Z</time></trkpt><trkpt lat="42.096911" lon="12.7517076"><ele>180.60000000000002</ele><time>2026-05-02T11:48:49.012Z</time></trkpt><trkpt lat="42.0969664" lon="12.7518397"><ele>180.8</ele><time>2026-05-02T11:48:50.019Z</time></trkpt><trkpt lat="42.0970074" lon="12.7519795"><ele>181.0</ele><time>2026-05-02T11:48:51.014Z</time></trkpt><trkpt lat="42.0970375" lon="12.7521253"><ele>181.75</ele><time>2026-05-02T11:48:52.172Z</time></trkpt><trkpt lat="42.0971187" lon="12.7524187"><ele>182.5</ele><time>2026-05-02T11:48:54.01Z</time></trkpt><trkpt lat="42.0971673" lon="12.7525489"><ele>183.25</ele><time>2026-05-02T11:48:55.101Z</time></trkpt><trkpt lat="42.0972191" lon="12.7526757"><ele>184.0</ele><time>2026-05-02T11:48:56.024Z</time></trkpt><trkpt lat="42.0972591" lon="12.7528043"><ele>184.25</ele><time>2026-05-02T11:48:57.008Z</time></trkpt><trkpt lat="42.097307" lon="12.7529453"><ele>184.5</ele><time>2026-05-02T11:48:58.022Z</time></trkpt><trkpt lat="42.0973663" lon="12.7530915"><ele>184.75</ele><time>2026-05-02T11:48:59.095Z</time></trkpt><trkpt lat="42.0974305" lon="12.7532371"><ele>185.0</ele><time>2026-05-02T11:49:00.021Z</time></trkpt><trkpt lat="42.0974995" lon="12.7533777"><ele>185.75</ele><time>2026-05-02T11:49:01.004Z</time></trkpt><trkpt lat="42.0975884" lon="12.753515"><ele>186.5</ele><time>2026-05-02T11:49:02.019Z</time></trkpt><trkpt lat="42.0976838" lon="12.7536469"><ele>187.25</ele><time>2026-05-02T11:49:03.015Z</time></trkpt><trkpt lat="42.0977906" lon="12.7537761"><ele>188.0</ele><time>2026-05-02T11:49:04.017Z</time></trkpt><trkpt lat="42.097897" lon="12.7539107"><ele>188.75</ele><time>2026-05-02T11:49:05.022Z</time></trkpt><trkpt lat="42.0979856" lon="12.7540501"><ele>189.5</ele><time>2026-05-02T11:49:06.026Z</time></trkpt><trkpt lat="42.0980872" lon="12.7541745"><ele>190.25</ele><time>2026-05-02T11:49:07.009Z</time></trkpt><trkpt lat="42.0981637" lon="12.7543207"><ele>191.0</ele><time>2026-05-02T11:49:08.021Z</time></trkpt><trkpt lat="42.0982482" lon="12.7544543"><ele>192.33333333333331</ele><time>2026-05-02T11:49:09.005Z</time></trkpt><trkpt lat="42.0983238" lon="12.7545561"><ele>193.66666666666666</ele><time>2026-05-02T11:49:10.109Z</time></trkpt><trkpt lat="42.0985303" lon="12.7547536"><ele>195.0</ele><time>2026-05-02T11:49:12.018Z</time></trkpt><trkpt lat="42.0986328" lon="12.7548591"><ele>195.0</ele><time>2026-05-02T11:49:13.016Z</time></trkpt><trkpt lat="42.0987263" lon="12.7549777"><ele>195.0</ele><time>2026-05-02T11:49:14.022Z</time></trkpt><trkpt lat="42.0988088" lon="12.7550954"><ele>195.0</ele><time>2026-05-02T11:49:15.014Z</time></trkpt><trkpt lat="42.0988864" lon="12.7552181"><ele>195.0</ele><time>2026-05-02T11:49:16.019Z</time></trkpt><trkpt lat="42.0989541" lon="12.7553534"><ele>195.4</ele><time>2026-05-02T11:49:17.012Z</time></trkpt><trkpt lat="42.099007" lon="12.7555037"><ele>195.8</ele><time>2026-05-02T11:49:18.029Z</time></trkpt><trkpt lat="42.0990484" lon="12.7556499"><ele>196.2</ele><time>2026-05-02T11:49:19.015Z</time></trkpt><trkpt lat="42.099086" lon="12.7557746"><ele>196.6</ele><time>2026-05-02T11:49:20.028Z</time></trkpt><trkpt lat="42.0990991" lon="12.7559178"><ele>197.0</ele><time>2026-05-02T11:49:22.02Z</time></trkpt><trkpt lat="42.099082" lon="12.7560512"><ele>197.6</ele><time>2026-05-02T11:49:25.02Z</time></trkpt><trkpt lat="42.0990661" lon="12.7561483"><ele>198.2</ele><time>2026-05-02T11:49:26.009Z</time></trkpt><trkpt lat="42.0990426" lon="12.7562554"><ele>198.8</ele><time>2026-05-02T11:49:27.016Z</time></trkpt><trkpt lat="42.0990202" lon="12.7564187"><ele>199.4</ele><time>2026-05-02T11:49:28.016Z</time></trkpt><trkpt lat="42.0990136" lon="12.7565674"><ele>200.0</ele><time>2026-05-02T11:49:29.013Z</time></trkpt><trkpt lat="42.0990163" lon="12.756713"><ele>200.0</ele><time>2026-05-02T11:49:30.014Z</time></trkpt><trkpt lat="42.0990129" lon="12.7568569"><ele>200.0</ele><time>2026-05-02T11:49:31.018Z</time></trkpt><trkpt lat="42.0989878" lon="12.7570318"><ele>200.0</ele><time>2026-05-02T11:49:32.014Z</time></trkpt><trkpt lat="42.0989737" lon="12.7571888"><ele>200.0</ele><time>2026-05-02T11:49:33.012Z</time></trkpt><trkpt lat="42.0989575" lon="12.7573312"><ele>200.5</ele><time>2026-05-02T11:49:34.031Z</time></trkpt><trkpt lat="42.0989431" lon="12.7574898"><ele>201.0</ele><time>2026-05-02T11:49:35.027Z</time></trkpt><trkpt lat="42.0989342" lon="12.7576466"><ele>201.5</ele><time>2026-05-02T11:49:36.018Z</time></trkpt><trkpt lat="42.0989177" lon="12.7578104"><ele>202.0</ele><time>2026-05-02T11:49:37.019Z</time></trkpt><trkpt lat="42.0989113" lon="12.7579585"><ele>202.8</ele><time>2026-05-02T11:49:38.022Z</time></trkpt><trkpt lat="42.0989106" lon="12.7581003"><ele>203.6</ele><time>2026-05-02T11:49:39.015Z</time></trkpt><trkpt lat="42.0989179" lon="12.7582528"><ele>204.4</ele><time>2026-05-02T11:49:40.025Z</time></trkpt><trkpt lat="42.0989027" lon="12.7583974"><ele>205.20000000000002</ele><time>2026-05-02T11:49:41.012Z</time></trkpt><trkpt lat="42.0988707" lon="12.758544"><ele>206.0</ele><time>2026-05-02T11:49:42.023Z</time></trkpt><trkpt lat="42.0988418" lon="12.7587015"><ele>206.25</ele><time>2026-05-02T11:49:43.016Z</time></trkpt><trkpt lat="42.0988051" lon="12.7588565"><ele>206.5</ele><time>2026-05-02T11:49:44.017Z</time></trkpt><trkpt lat="42.0987534" lon="12.7590096"><ele>206.75</ele><time>2026-05-02T11:49:45.007Z</time></trkpt><trkpt lat="42.0987128" lon="12.7591371"><ele>207.0</ele><time>2026-05-02T11:49:46.023Z</time></trkpt><trkpt lat="42.0986678" lon="12.7592999"><ele>207.75</ele><time>2026-05-02T11:49:47.013Z</time></trkpt><trkpt lat="42.0986399" lon="12.7594503"><ele>208.5</ele><time>2026-05-02T11:49:48.025Z</time></trkpt><trkpt lat="42.0986121" lon="12.7595895"><ele>209.25</ele><time>2026-05-02T11:49:49.005Z</time></trkpt><trkpt lat="42.0985744" lon="12.7597217"><ele>210.0</ele><time>2026-05-02T11:49:50.024Z</time></trkpt><trkpt lat="42.0985179" lon="12.7598689"><ele>210.0</ele><time>2026-05-02T11:49:51.01Z</time></trkpt><trkpt lat="42.0984705" lon="12.7600254"><ele>210.0</ele><time>2026-05-02T11:49:52.027Z</time></trkpt><trkpt lat="42.0984292" lon="12.7601727"><ele>210.0</ele><time>2026-05-02T11:49:53.012Z</time></trkpt><trkpt lat="42.0984018" lon="12.7603165"><ele>210.0</ele><time>2026-05-02T11:49:54.017Z</time></trkpt><trkpt lat="42.0983798" lon="12.7604567"><ele>210.8</ele><time>2026-05-02T11:49:55.017Z</time></trkpt><trkpt lat="42.0983645" lon="12.7605876"><ele>211.6</ele><time>2026-05-02T11:49:56.014Z</time></trkpt><trkpt lat="42.0983579" lon="12.7607149"><ele>212.39999999999998</ele><time>2026-05-02T11:49:57.012Z</time></trkpt><trkpt lat="42.0983737" lon="12.7608455"><ele>213.2</ele><time>2026-05-02T11:49:58.012Z</time></trkpt><trkpt lat="42.0983957" lon="12.7609694"><ele>214.0</ele><time>2026-05-02T11:49:59.012Z</time></trkpt><trkpt lat="42.0984221" lon="12.7610788"><ele>214.99999999999997</ele><time>2026-05-02T11:50:00.018Z</time></trkpt><trkpt lat="42.0984639" lon="12.7611827"><ele>216.0</ele><time>2026-05-02T11:50:01.007Z</time></trkpt><trkpt lat="42.0985121" lon="12.7612663"><ele>217.0</ele><time>2026-05-02T11:50:02.014Z</time></trkpt><trkpt lat="42.098556" lon="12.7613369"><ele>218.0</ele><time>2026-05-02T11:50:03.011Z</time></trkpt><trkpt lat="42.0986191" lon="12.7613481"><ele>218.99999999999997</ele><time>2026-05-02T11:50:04.016Z</time></trkpt><trkpt lat="42.0986846" lon="12.761348"><ele>220.0</ele><time>2026-05-02T11:50:05.007Z</time></trkpt><trkpt lat="42.0987594" lon="12.7614079"><ele>220.0</ele><time>2026-05-02T11:50:07.007Z</time></trkpt><trkpt lat="42.0987658" lon="12.7615234"><ele>220.0</ele><time>2026-05-02T11:50:09.013Z</time></trkpt><trkpt lat="42.0987192" lon="12.761615"><ele>220.0</ele><time>2026-05-02T11:50:10.008Z</time></trkpt><trkpt lat="42.0986773" lon="12.7617215"><ele>220.0</ele><time>2026-05-02T11:50:11Z</time></trkpt><trkpt lat="42.0986446" lon="12.761851"><ele>220.0</ele><time>2026-05-02T11:50:12.019Z</time></trkpt><trkpt lat="42.0986238" lon="12.7619939"><ele>219.75</ele><time>2026-05-02T11:50:13.004Z</time></trkpt><trkpt lat="42.0986001" lon="12.7621437"><ele>219.5</ele><time>2026-05-02T11:50:14.013Z</time></trkpt><trkpt lat="42.0985681" lon="12.7623015"><ele>219.25</ele><time>2026-05-02T11:50:15.005Z</time></trkpt><trkpt lat="42.0985331" lon="12.7624835"><ele>219.0</ele><time>2026-05-02T11:50:16.008Z</time></trkpt><trkpt lat="42.0984871" lon="12.7626825"><ele>218.66666666666669</ele><time>2026-05-02T11:50:17.011Z</time></trkpt><trkpt lat="42.0984374" lon="12.7628835"><ele>218.33333333333334</ele><time>2026-05-02T11:50:18.015Z</time></trkpt><trkpt lat="42.0983757" lon="12.7630749"><ele>218.0</ele><time>2026-05-02T11:50:19.008Z</time></trkpt><trkpt lat="42.0982953" lon="12.7632638"><ele>218.33333333333334</ele><time>2026-05-02T11:50:20.013Z</time></trkpt><trkpt lat="42.0982092" lon="12.7634929"><ele>218.66666666666669</ele><time>2026-05-02T11:50:21.005Z</time></trkpt><trkpt lat="42.0981493" lon="12.763746"><ele>219.0</ele><time>2026-05-02T11:50:22.015Z</time></trkpt><trkpt lat="42.0980756" lon="12.7639751"><ele>219.0</ele><time>2026-05-02T11:50:23.008Z</time></trkpt><trkpt lat="42.0980093" lon="12.7642307"><ele>219.0</ele><time>2026-05-02T11:50:24.006Z</time></trkpt><trkpt lat="42.0979466" lon="12.7644679"><ele>219.0</ele><time>2026-05-02T11:50:25.012Z</time></trkpt><trkpt lat="42.0979052" lon="12.7646519"><ele>220.75</ele><time>2026-05-02T11:50:26.011Z</time></trkpt><trkpt lat="42.0978525" lon="12.7648411"><ele>222.5</ele><time>2026-05-02T11:50:27.015Z</time></trkpt><trkpt lat="42.0977879" lon="12.7650324"><ele>224.25</ele><time>2026-05-02T11:50:28.019Z</time></trkpt><trkpt lat="42.0977156" lon="12.7651794"><ele>226.0</ele><time>2026-05-02T11:50:29.015Z</time></trkpt><trkpt lat="42.0976509" lon="12.7653376"><ele>226.0</ele><time>2026-05-02T11:50:30.017Z</time></trkpt><trkpt lat="42.0975736" lon="12.7654988"><ele>226.0</ele><time>2026-05-02T11:50:31.019Z</time></trkpt><trkpt lat="42.0974613" lon="12.7656679"><ele>226.0</ele><time>2026-05-02T11:50:32.015Z</time></trkpt><trkpt lat="42.0973723" lon="12.7658866"><ele>227.0</ele><time>2026-05-02T11:50:33.009Z</time></trkpt><trkpt lat="42.0973053" lon="12.7660384"><ele>228.0</ele><time>2026-05-02T11:50:34.013Z</time></trkpt><trkpt lat="42.0972249" lon="12.766219"><ele>229.0</ele><time>2026-05-02T11:50:35.013Z</time></trkpt><trkpt lat="42.0971616" lon="12.7663839"><ele>230.0</ele><time>2026-05-02T11:50:36.015Z</time></trkpt><trkpt lat="42.0970945" lon="12.7665328"><ele>230.0</ele><time>2026-05-02T11:50:37.01Z</time></trkpt><trkpt lat="42.0969956" lon="12.7666804"><ele>230.0</ele><time>2026-05-02T11:50:38.034Z</time></trkpt><trkpt lat="42.0969147" lon="12.766867"><ele>230.0</ele><time>2026-05-02T11:50:39.015Z</time></trkpt><trkpt lat="42.0968571" lon="12.767027"><ele>230.0</ele><time>2026-05-02T11:50:40.027Z</time></trkpt><trkpt lat="42.0968007" lon="12.767202"><ele>231.0</ele><time>2026-05-02T11:50:41.027Z</time></trkpt><trkpt lat="42.096764" lon="12.7673726"><ele>232.0</ele><time>2026-05-02T11:50:42.025Z</time></trkpt><trkpt lat="42.0967164" lon="12.7674625"><ele>233.0</ele><time>2026-05-02T11:50:43.025Z</time></trkpt><trkpt lat="42.0966653" lon="12.7675892"><ele>234.0</ele><time>2026-05-02T11:50:44.035Z</time></trkpt><trkpt lat="42.0966207" lon="12.7677265"><ele>235.0</ele><time>2026-05-02T11:50:45.023Z</time></trkpt><trkpt lat="42.0965491" lon="12.7678572"><ele>235.0</ele><time>2026-05-02T11:50:46.023Z</time></trkpt><trkpt lat="42.0964947" lon="12.7680278"><ele>235.0</ele><time>2026-05-02T11:50:47.026Z</time></trkpt><trkpt lat="42.0964402" lon="12.7682751"><ele>235.0</ele><time>2026-05-02T11:50:48.017Z</time></trkpt><trkpt lat="42.096411" lon="12.7685258"><ele>235.66666666666666</ele><time>2026-05-02T11:50:49.016Z</time></trkpt><trkpt lat="42.0963979" lon="12.768772"><ele>236.33333333333331</ele><time>2026-05-02T11:50:50.015Z</time></trkpt><trkpt lat="42.0963599" lon="12.7689999"><ele>237.0</ele><time>2026-05-02T11:50:51.025Z</time></trkpt><trkpt lat="42.0963365" lon="12.769225"><ele>237.33333333333331</ele><time>2026-05-02T11:50:52.017Z</time></trkpt><trkpt lat="42.0962904" lon="12.7694632"><ele>237.66666666666666</ele><time>2026-05-02T11:50:53.015Z</time></trkpt><trkpt lat="42.0962583" lon="12.7696777"><ele>238.0</ele><time>2026-05-02T11:50:54.014Z</time></trkpt><trkpt lat="42.0962243" lon="12.7698538"><ele>238.0</ele><time>2026-05-02T11:50:55.021Z</time></trkpt><trkpt lat="42.0961952" lon="12.7699932"><ele>238.0</ele><time>2026-05-02T11:50:56.018Z</time></trkpt><trkpt lat="42.0961543" lon="12.7701639"><ele>238.0</ele><time>2026-05-02T11:50:57.011Z</time></trkpt><trkpt lat="42.0961164" lon="12.7703198"><ele>238.0</ele><time>2026-05-02T11:50:58.096Z</time></trkpt><trkpt lat="42.0960741" lon="12.7705292"><ele>239.0</ele><time>2026-05-02T11:50:59.009Z</time></trkpt><trkpt lat="42.0960689" lon="12.7707088"><ele>240.0</ele><time>2026-05-02T11:51:00.009Z</time></trkpt><trkpt lat="42.0960599" lon="12.7708803"><ele>241.0</ele><time>2026-05-02T11:51:01.02Z</time></trkpt><trkpt lat="42.096037" lon="12.7710616"><ele>242.0</ele><time>2026-05-02T11:51:02.01Z</time></trkpt><trkpt lat="42.0960116" lon="12.771213"><ele>242.75</ele><time>2026-05-02T11:51:03.007Z</time></trkpt><trkpt lat="42.0959831" lon="12.7713572"><ele>243.5</ele><time>2026-05-02T11:51:04.012Z</time></trkpt><trkpt lat="42.0959401" lon="12.7714951"><ele>244.25</ele><time>2026-05-02T11:51:05.001Z</time></trkpt><trkpt lat="42.0958841" lon="12.7716342"><ele>245.0</ele><time>2026-05-02T11:51:06.003Z</time></trkpt><trkpt lat="42.0958111" lon="12.77179"><ele>244.66666666666669</ele><time>2026-05-02T11:51:07.009Z</time></trkpt><trkpt lat="42.0957252" lon="12.7719569"><ele>244.33333333333331</ele><time>2026-05-02T11:51:08.013Z</time></trkpt><trkpt lat="42.0956284" lon="12.7721236"><ele>244.0</ele><time>2026-05-02T11:51:09.008Z</time></trkpt><trkpt lat="42.0955017" lon="12.7723045"><ele>244.0</ele><time>2026-05-02T11:51:10.014Z</time></trkpt><trkpt lat="42.095399" lon="12.7724558"><ele>244.0</ele><time>2026-05-02T11:51:11.016Z</time></trkpt><trkpt lat="42.0953132" lon="12.7725929"><ele>244.0</ele><time>2026-05-02T11:51:12.015Z</time></trkpt><trkpt lat="42.0952453" lon="12.7727256"><ele>244.0</ele><time>2026-05-02T11:51:13.017Z</time></trkpt><trkpt lat="42.0951774" lon="12.7728413"><ele>244.66666666666666</ele><time>2026-05-02T11:51:14.016Z</time></trkpt><trkpt lat="42.0951303" lon="12.7729299"><ele>245.33333333333331</ele><time>2026-05-02T11:51:15.01Z</time></trkpt><trkpt lat="42.0950662" lon="12.7730004"><ele>246.0</ele><time>2026-05-02T11:51:16.016Z</time></trkpt><trkpt lat="42.0950169" lon="12.7730706"><ele>246.66666666666669</ele><time>2026-05-02T11:51:17.017Z</time></trkpt><trkpt lat="42.0949808" lon="12.7731508"><ele>247.33333333333334</ele><time>2026-05-02T11:51:18.009Z</time></trkpt><trkpt lat="42.0949468" lon="12.7732262"><ele>248.0</ele><time>2026-05-02T11:51:19.024Z</time></trkpt><trkpt lat="42.094877" lon="12.7733488"><ele>248.0</ele><time>2026-05-02T11:51:21.018Z</time></trkpt><trkpt lat="42.0948194" lon="12.773431"><ele>248.0</ele><time>2026-05-02T11:51:23.02Z</time></trkpt><trkpt lat="42.0947247" lon="12.7734441"><ele>248.0</ele><time>2026-05-02T11:51:26.016Z</time></trkpt><trkpt lat="42.0946463" lon="12.7733986"><ele>248.0</ele><time>2026-05-02T11:51:27.017Z</time></trkpt><trkpt lat="42.0945423" lon="12.7733515"><ele>248.0</ele><time>2026-05-02T11:51:28.014Z</time></trkpt><trkpt lat="42.0944227" lon="12.7733119"><ele>248.0</ele><time>2026-05-02T11:51:29.017Z</time></trkpt><trkpt lat="42.094303" lon="12.7732463"><ele>248.0</ele><time>2026-05-02T11:51:30.01Z</time></trkpt><trkpt lat="42.0941776" lon="12.773189"><ele>248.0</ele><time>2026-05-02T11:51:31.017Z</time></trkpt><trkpt lat="42.0940579" lon="12.7731384"><ele>248.0</ele><time>2026-05-02T11:51:32.008Z</time></trkpt><trkpt lat="42.0939233" lon="12.7731032"><ele>250.0</ele><time>2026-05-02T11:51:33.007Z</time></trkpt><trkpt lat="42.0938099" lon="12.773117"><ele>252.0</ele><time>2026-05-02T11:51:34.017Z</time></trkpt><trkpt lat="42.0937067" lon="12.773169"><ele>254.0</ele><time>2026-05-02T11:51:35.02Z</time></trkpt><trkpt lat="42.0936107" lon="12.7732594"><ele>256.0</ele><time>2026-05-02T11:51:36.014Z</time></trkpt><trkpt lat="42.0935147" lon="12.7733741"><ele>256.0</ele><time>2026-05-02T11:51:37.006Z</time></trkpt><trkpt lat="42.0934381" lon="12.773496"><ele>256.0</ele><time>2026-05-02T11:51:38.014Z</time></trkpt><trkpt lat="42.0933653" lon="12.773628"><ele>256.0</ele><time>2026-05-02T11:51:39.011Z</time></trkpt><trkpt lat="42.0932944" lon="12.7737748"><ele>256.0</ele><time>2026-05-02T11:51:40.014Z</time></trkpt><trkpt lat="42.0932192" lon="12.7739254"><ele>259.0</ele><time>2026-05-02T11:51:41.018Z</time></trkpt><trkpt lat="42.0931414" lon="12.7740791"><ele>262.0</ele><time>2026-05-02T11:51:42.019Z</time></trkpt><trkpt lat="42.0930505" lon="12.7742312"><ele>265.0</ele><time>2026-05-02T11:51:43.015Z</time></trkpt><trkpt lat="42.0929244" lon="12.774444"><ele>265.0</ele><time>2026-05-02T11:51:44.017Z</time></trkpt><trkpt lat="42.0927906" lon="12.7746053"><ele>265.0</ele><time>2026-05-02T11:51:45.026Z</time></trkpt><trkpt lat="42.0927045" lon="12.7747517"><ele>265.0</ele><time>2026-05-02T11:51:46.001Z</time></trkpt><trkpt lat="42.0925878" lon="12.7749045"><ele>265.0</ele><time>2026-05-02T11:51:47.014Z</time></trkpt><trkpt lat="42.0924512" lon="12.7750619"><ele>265.0</ele><time>2026-05-02T11:51:48.023Z</time></trkpt><trkpt lat="42.0923416" lon="12.7752352"><ele>265.0</ele><time>2026-05-02T11:51:49.018Z</time></trkpt><trkpt lat="42.0922338" lon="12.7753983"><ele>266.75</ele><time>2026-05-02T11:51:50.018Z</time></trkpt><trkpt lat="42.0921399" lon="12.7755616"><ele>268.5</ele><time>2026-05-02T11:51:51.01Z</time></trkpt><trkpt lat="42.092049" lon="12.7757032"><ele>270.25</ele><time>2026-05-02T11:51:52.016Z</time></trkpt><trkpt lat="42.0920066" lon="12.7758292"><ele>272.0</ele><time>2026-05-02T11:51:53.014Z</time></trkpt><trkpt lat="42.0919346" lon="12.7758981"><ele>272.0</ele><time>2026-05-02T11:51:54.016Z</time></trkpt><trkpt lat="42.0918464" lon="12.7759194"><ele>272.0</ele><time>2026-05-02T11:51:55.01Z</time></trkpt><trkpt lat="42.0917214" lon="12.775876"><ele>272.0</ele><time>2026-05-02T11:51:56.006Z</time></trkpt><trkpt lat="42.0916064" lon="12.7757873"><ele>272.0</ele><time>2026-05-02T11:51:56.995Z</time></trkpt><trkpt lat="42.0914673" lon="12.7757294"><ele>274.25</ele><time>2026-05-02T11:51:58.001Z</time></trkpt><trkpt lat="42.0913466" lon="12.7756103"><ele>276.5</ele><time>2026-05-02T11:51:58.997Z</time></trkpt><trkpt lat="42.0912363" lon="12.775526"><ele>278.75</ele><time>2026-05-02T11:51:59.998Z</time></trkpt><trkpt lat="42.0911087" lon="12.7754096"><ele>281.0</ele><time>2026-05-02T11:52:00.998Z</time></trkpt><trkpt lat="42.0910127" lon="12.7752786"><ele>280.75</ele><time>2026-05-02T11:52:02.008Z</time></trkpt><trkpt lat="42.0908846" lon="12.7751811"><ele>280.5</ele><time>2026-05-02T11:52:03.006Z</time></trkpt><trkpt lat="42.0907779" lon="12.7750259"><ele>280.25</ele><time>2026-05-02T11:52:05.003Z</time></trkpt><trkpt lat="42.0906727" lon="12.7749515"><ele>280.0</ele><time>2026-05-02T11:52:06.003Z</time></trkpt><trkpt lat="42.0905974" lon="12.7748694"><ele>279.6</ele><time>2026-05-02T11:52:07.009Z</time></trkpt><trkpt lat="42.0904979" lon="12.7747534"><ele>279.2</ele><time>2026-05-02T11:52:09.01Z</time></trkpt><trkpt lat="42.0904159" lon="12.7747503"><ele>278.8</ele><time>2026-05-02T11:52:10.024Z</time></trkpt><trkpt lat="42.0903442" lon="12.7747867"><ele>278.4</ele><time>2026-05-02T11:52:11.009Z</time></trkpt><trkpt lat="42.0902789" lon="12.7748663"><ele>278.0</ele><time>2026-05-02T11:52:12.018Z</time></trkpt><trkpt lat="42.0902351" lon="12.7749857"><ele>278.0</ele><time>2026-05-02T11:52:13.019Z</time></trkpt><trkpt lat="42.0902049" lon="12.7751258"><ele>278.0</ele><time>2026-05-02T11:52:14.008Z</time></trkpt><trkpt lat="42.090159" lon="12.7752755"><ele>278.0</ele><time>2026-05-02T11:52:15.01Z</time></trkpt><trkpt lat="42.0901282" lon="12.7754304"><ele>278.0</ele><time>2026-05-02T11:52:16Z</time></trkpt><trkpt lat="42.0900986" lon="12.7755947"><ele>278.75</ele><time>2026-05-02T11:52:17.012Z</time></trkpt><trkpt lat="42.090085" lon="12.7757656"><ele>279.5</ele><time>2026-05-02T11:52:18.012Z</time></trkpt><trkpt lat="42.0900662" lon="12.7759302"><ele>280.25</ele><time>2026-05-02T11:52:19.011Z</time></trkpt><trkpt lat="42.0900711" lon="12.7761066"><ele>281.0</ele><time>2026-05-02T11:52:20.01Z</time></trkpt><trkpt lat="42.090059" lon="12.776285"><ele>281.75</ele><time>2026-05-02T11:52:21.01Z</time></trkpt><trkpt lat="42.0900446" lon="12.7764753"><ele>282.5</ele><time>2026-05-02T11:52:22.011Z</time></trkpt><trkpt lat="42.0900196" lon="12.7766677"><ele>283.25</ele><time>2026-05-02T11:52:23.017Z</time></trkpt><trkpt lat="42.0899927" lon="12.7768724"><ele>284.0</ele><time>2026-05-02T11:52:24.009Z</time></trkpt><trkpt lat="42.0899803" lon="12.7771276"><ele>285.0</ele><time>2026-05-02T11:52:25.021Z</time></trkpt><trkpt lat="42.0899644" lon="12.7773761"><ele>286.0</ele><time>2026-05-02T11:52:26.013Z</time></trkpt><trkpt lat="42.0899786" lon="12.7775824"><ele>287.0</ele><time>2026-05-02T11:52:27.01Z</time></trkpt><trkpt lat="42.0899526" lon="12.7777772"><ele>288.33333333333337</ele><time>2026-05-02T11:52:28.017Z</time></trkpt><trkpt lat="42.0899005" lon="12.7780177"><ele>289.6666666666667</ele><time>2026-05-02T11:52:29.008Z</time></trkpt><trkpt lat="42.0898471" lon="12.7782339"><ele>291.0</ele><time>2026-05-02T11:52:30.015Z</time></trkpt><trkpt lat="42.0897598" lon="12.7784158"><ele>291.2</ele><time>2026-05-02T11:52:31.009Z</time></trkpt><trkpt lat="42.0896916" lon="12.7785906"><ele>291.40000000000003</ele><time>2026-05-02T11:52:32.012Z</time></trkpt><trkpt lat="42.0896284" lon="12.778734"><ele>291.6</ele><time>2026-05-02T11:52:33.013Z</time></trkpt><trkpt lat="42.0895601" lon="12.7788309"><ele>291.8</ele><time>2026-05-02T11:52:34.018Z</time></trkpt><trkpt lat="42.0895012" lon="12.7788734"><ele>292.0</ele><time>2026-05-02T11:52:35.007Z</time></trkpt><trkpt lat="42.0894484" lon="12.7789339"><ele>292.0</ele><time>2026-05-02T11:52:36.01Z</time></trkpt><trkpt lat="42.0894409" lon="12.7791463"><ele>292.0</ele><time>2026-05-02T11:52:38.008Z</time></trkpt><trkpt lat="42.0894553" lon="12.7792793"><ele>292.0</ele><time>2026-05-02T11:52:39.012Z</time></trkpt><trkpt lat="42.0894539" lon="12.7793813"><ele>292.0</ele><time>2026-05-02T11:52:40.019Z</time></trkpt><trkpt lat="42.0894636" lon="12.7794863"><ele>292.0</ele><time>2026-05-02T11:52:40.99Z</time></trkpt><trkpt lat="42.0894278" lon="12.7795982"><ele>292.75</ele><time>2026-05-02T11:52:42.012Z</time></trkpt><trkpt lat="42.0893751" lon="12.779702"><ele>293.5</ele><time>2026-05-02T11:52:43.005Z</time></trkpt><trkpt lat="42.0892949" lon="12.7798247"><ele>294.25</ele><time>2026-05-02T11:52:44.008Z</time></trkpt><trkpt lat="42.0892153" lon="12.779955"><ele>295.0</ele><time>2026-05-02T11:52:45.006Z</time></trkpt><trkpt lat="42.0891371" lon="12.7800725"><ele>295.0</ele><time>2026-05-02T11:52:46.012Z</time></trkpt><trkpt lat="42.0890681" lon="12.7801794"><ele>295.0</ele><time>2026-05-02T11:52:47.005Z</time></trkpt><trkpt lat="42.0890033" lon="12.7802651"><ele>295.0</ele><time>2026-05-02T11:52:48.014Z</time></trkpt><trkpt lat="42.0889498" lon="12.780338"><ele>295.0</ele><time>2026-05-02T11:52:49.007Z</time></trkpt><trkpt lat="42.0888988" lon="12.7804195"><ele>295.0</ele><time>2026-05-02T11:52:50.012Z</time></trkpt><trkpt lat="42.0888434" lon="12.7804863"><ele>295.0</ele><time>2026-05-02T11:52:51.006Z</time></trkpt><trkpt lat="42.0887905" lon="12.7805499"><ele>295.4</ele><time>2026-05-02T11:52:52.015Z</time></trkpt><trkpt lat="42.0886985" lon="12.7806648"><ele>295.8</ele><time>2026-05-02T11:52:54.007Z</time></trkpt><trkpt lat="42.0886362" lon="12.7807362"><ele>296.2</ele><time>2026-05-02T11:52:55.012Z</time></trkpt><trkpt lat="42.0885669" lon="12.780833"><ele>296.6</ele><time>2026-05-02T11:52:56.015Z</time></trkpt><trkpt lat="42.0884927" lon="12.7809467"><ele>297.0</ele><time>2026-05-02T11:52:57.01Z</time></trkpt><trkpt lat="42.0884078" lon="12.7810644"><ele>297.0</ele><time>2026-05-02T11:52:58.012Z</time></trkpt><trkpt lat="42.0883346" lon="12.7811844"><ele>297.0</ele><time>2026-05-02T11:52:59.009Z</time></trkpt><trkpt lat="42.0882713" lon="12.781292"><ele>297.0</ele><time>2026-05-02T11:53:00.022Z</time></trkpt><trkpt lat="42.0882122" lon="12.7813855"><ele>297.0</ele><time>2026-05-02T11:53:01.016Z</time></trkpt><trkpt lat="42.0881454" lon="12.7814796"><ele>297.0</ele><time>2026-05-02T11:53:02.015Z</time></trkpt><trkpt lat="42.0880755" lon="12.781572"><ele>297.8333333333333</ele><time>2026-05-02T11:53:03.014Z</time></trkpt><trkpt lat="42.0880151" lon="12.7816524"><ele>298.6666666666667</ele><time>2026-05-02T11:53:04.016Z</time></trkpt><trkpt lat="42.0879589" lon="12.7817287"><ele>299.5</ele><time>2026-05-02T11:53:05.002Z</time></trkpt><trkpt lat="42.087908" lon="12.7817924"><ele>300.33333333333337</ele><time>2026-05-02T11:53:06.016Z</time></trkpt><trkpt lat="42.0878403" lon="12.781851"><ele>301.1666666666667</ele><time>2026-05-02T11:53:07.012Z</time></trkpt><trkpt lat="42.0877774" lon="12.7818926"><ele>302.0</ele><time>2026-05-02T11:53:08.011Z</time></trkpt><trkpt lat="42.0876966" lon="12.7819351"><ele>302.2</ele><time>2026-05-02T11:53:09.01Z</time></trkpt><trkpt lat="42.0876562" lon="12.7820286"><ele>302.4</ele><time>2026-05-02T11:53:11.015Z</time></trkpt><trkpt lat="42.0876732" lon="12.7823239"><ele>302.6</ele><time>2026-05-02T11:53:25.015Z</time></trkpt><trkpt lat="42.08771" lon="12.7823953"><ele>302.8</ele><time>2026-05-02T11:53:26.019Z</time></trkpt><trkpt lat="42.0877591" lon="12.7824651"><ele>303.0</ele><time>2026-05-02T11:53:27.016Z</time></trkpt><trkpt lat="42.0878443" lon="12.782582"><ele>303.6</ele><time>2026-05-02T11:53:29.015Z</time></trkpt><trkpt lat="42.0879232" lon="12.7826996"><ele>304.20000000000005</ele><time>2026-05-02T11:53:31.015Z</time></trkpt><trkpt lat="42.0879712" lon="12.7827563"><ele>304.8</ele><time>2026-05-02T11:53:32.017Z</time></trkpt><trkpt lat="42.088052" lon="12.7828709"><ele>305.40000000000003</ele><time>2026-05-02T11:53:34.022Z</time></trkpt><trkpt lat="42.0881433" lon="12.7829532"><ele>306.0</ele><time>2026-05-02T11:53:36.011Z</time></trkpt><trkpt lat="42.0882184" lon="12.7830254"><ele>303.2</ele><time>2026-05-02T11:53:38.009Z</time></trkpt><trkpt lat="42.0882818" lon="12.7831069"><ele>300.40000000000003</ele><time>2026-05-02T11:53:40.015Z</time></trkpt><trkpt lat="42.0883468" lon="12.7832214"><ele>297.6</ele><time>2026-05-02T11:53:42.015Z</time></trkpt><trkpt lat="42.0883942" lon="12.7833416"><ele>294.8</ele><time>2026-05-02T11:53:44.017Z</time></trkpt><trkpt lat="42.0884363" lon="12.7834608"><ele>292.0</ele><time>2026-05-02T11:53:46.011Z</time></trkpt><trkpt lat="42.0884743" lon="12.7835998"><ele>291.8</ele><time>2026-05-02T11:53:48.016Z</time></trkpt><trkpt lat="42.0884922" lon="12.7836847"><ele>291.6</ele><time>2026-05-02T11:53:49.015Z</time></trkpt><trkpt lat="42.0885232" lon="12.7838275"><ele>291.40000000000003</ele><time>2026-05-02T11:53:51.004Z</time></trkpt><trkpt lat="42.0885522" lon="12.7839694"><ele>291.2</ele><time>2026-05-02T11:53:53.011Z</time></trkpt><trkpt lat="42.0885847" lon="12.7840948"><ele>291.0</ele><time>2026-05-02T11:53:55.009Z</time></trkpt><trkpt lat="42.0885945" lon="12.7842047"><ele>293.0</ele><time>2026-05-02T11:53:57.007Z</time></trkpt><trkpt lat="42.0885817" lon="12.7843541"><ele>295.0</ele><time>2026-05-02T11:53:59.011Z</time></trkpt><trkpt lat="42.0885663" lon="12.7844456"><ele>297.0</ele><time>2026-05-02T11:54:00.013Z</time></trkpt><trkpt lat="42.0885312" lon="12.7845999"><ele>299.0</ele><time>2026-05-02T11:54:02.019Z</time></trkpt><trkpt lat="42.0884935" lon="12.7847173"><ele>301.0</ele><time>2026-05-02T11:54:04.009Z</time></trkpt><trkpt lat="42.0884351" lon="12.784862"><ele>301.0</ele><time>2026-05-02T11:54:06.011Z</time></trkpt><trkpt lat="42.0884103" lon="12.7849417"><ele>301.0</ele><time>2026-05-02T11:54:07.01Z</time></trkpt><trkpt lat="42.0883734" lon="12.7850127"><ele>301.0</ele><time>2026-05-02T11:54:08.005Z</time></trkpt><trkpt lat="42.0883335" lon="12.7850794"><ele>301.0</ele><time>2026-05-02T11:54:09.008Z</time></trkpt><trkpt lat="42.0882596" lon="12.785222"><ele>301.0</ele><time>2026-05-02T11:54:11.006Z</time></trkpt><trkpt lat="42.0882241" lon="12.7852988"><ele>301.0</ele><time>2026-05-02T11:54:12.006Z</time></trkpt><trkpt lat="42.0881943" lon="12.7854477"><ele>302.8</ele><time>2026-05-02T11:54:14.001Z</time></trkpt><trkpt lat="42.0881619" lon="12.7855961"><ele>304.6</ele><time>2026-05-02T11:54:16.009Z</time></trkpt><trkpt lat="42.0880899" lon="12.7857519"><ele>306.4</ele><time>2026-05-02T11:54:18.01Z</time></trkpt><trkpt lat="42.0880526" lon="12.7858391"><ele>308.2</ele><time>2026-05-02T11:54:19.011Z</time></trkpt><trkpt lat="42.0880129" lon="12.7859312"><ele>310.0</ele><time>2026-05-02T11:54:20.01Z</time></trkpt><trkpt lat="42.087971" lon="12.7860229"><ele>311.66666666666663</ele><time>2026-05-02T11:54:21.009Z</time></trkpt><trkpt lat="42.0879362" lon="12.7861277"><ele>313.3333333333333</ele><time>2026-05-02T11:54:22.009Z</time></trkpt><trkpt lat="42.0879016" lon="12.786238"><ele>315.0</ele><time>2026-05-02T11:54:22.999Z</time></trkpt><trkpt lat="42.0878786" lon="12.7863478"><ele>316.6666666666667</ele><time>2026-05-02T11:54:24.008Z</time></trkpt><trkpt lat="42.0878607" lon="12.7864357"><ele>318.33333333333337</ele><time>2026-05-02T11:54:25.006Z</time></trkpt><trkpt lat="42.0878002" lon="12.7865255"><ele>320.0</ele><time>2026-05-02T11:54:27.011Z</time></trkpt><trkpt lat="42.0877359" lon="12.7866115"><ele>320.0</ele><time>2026-05-02T11:54:29.007Z</time></trkpt><trkpt lat="42.0876816" lon="12.7866791"><ele>320.0</ele><time>2026-05-02T11:54:30.003Z</time></trkpt><trkpt lat="42.0876329" lon="12.786742"><ele>320.0</ele><time>2026-05-02T11:54:31.01Z</time></trkpt><trkpt lat="42.0875628" lon="12.7868718"><ele>320.0</ele><time>2026-05-02T11:54:33Z</time></trkpt><trkpt lat="42.0875372" lon="12.7869523"><ele>320.0</ele><time>2026-05-02T11:54:34.012Z</time></trkpt><trkpt lat="42.0875047" lon="12.7871384"><ele>322.2</ele><time>2026-05-02T11:54:36.008Z</time></trkpt><trkpt lat="42.0874921" lon="12.787252"><ele>324.4</ele><time>2026-05-02T11:54:37.021Z</time></trkpt><trkpt lat="42.0874936" lon="12.7873679"><ele>326.6</ele><time>2026-05-02T11:54:38.012Z</time></trkpt><trkpt lat="42.0874868" lon="12.7875236"><ele>328.8</ele><time>2026-05-02T11:54:40.015Z</time></trkpt><trkpt lat="42.0874738" lon="12.7876272"><ele>331.0</ele><time>2026-05-02T11:54:42.001Z</time></trkpt><trkpt lat="42.0874376" lon="12.7877534"><ele>331.5</ele><time>2026-05-02T11:54:44.006Z</time></trkpt><trkpt lat="42.0874041" lon="12.7878328"><ele>332.0</ele><time>2026-05-02T11:54:45.013Z</time></trkpt><trkpt lat="42.0873805" lon="12.7879196"><ele>332.5</ele><time>2026-05-02T11:54:46.008Z</time></trkpt><trkpt lat="42.0873499" lon="12.7880259"><ele>333.0</ele><time>2026-05-02T11:54:47.004Z</time></trkpt><trkpt lat="42.0873096" lon="12.7881322"><ele>333.5</ele><time>2026-05-02T11:54:48Z</time></trkpt><trkpt lat="42.0872753" lon="12.7882506"><ele>334.0</ele><time>2026-05-02T11:54:49.02Z</time></trkpt><trkpt lat="42.0872442" lon="12.7883724"><ele>334.0</ele><time>2026-05-02T11:54:50.006Z</time></trkpt><trkpt lat="42.0872077" lon="12.788483"><ele>334.0</ele><time>2026-05-02T11:54:51.012Z</time></trkpt><trkpt lat="42.0871714" lon="12.7885723"><ele>334.0</ele><time>2026-05-02T11:54:52.016Z</time></trkpt><trkpt lat="42.0871353" lon="12.7886443"><ele>334.0</ele><time>2026-05-02T11:54:52.995Z</time></trkpt><trkpt lat="42.0871004" lon="12.7887317"><ele>334.0</ele><time>2026-05-02T11:54:54.016Z</time></trkpt><trkpt lat="42.0870729" lon="12.7888255"><ele>334.0</ele><time>2026-05-02T11:54:55.015Z</time></trkpt><trkpt lat="42.0870409" lon="12.7889066"><ele>334.0</ele><time>2026-05-02T11:54:56.01Z</time></trkpt><trkpt lat="42.0870199" lon="12.7890073"><ele>335.0</ele><time>2026-05-02T11:54:56.998Z</time></trkpt><trkpt lat="42.0870239" lon="12.7891021"><ele>336.0</ele><time>2026-05-02T11:54:58.014Z</time></trkpt><trkpt lat="42.0870274" lon="12.7891964"><ele>337.0</ele><time>2026-05-02T11:54:59.011Z</time></trkpt><trkpt lat="42.0870431" lon="12.7892981"><ele>338.0</ele><time>2026-05-02T11:55:00Z</time></trkpt><trkpt lat="42.0870389" lon="12.789406"><ele>339.0</ele><time>2026-05-02T11:55:01.002Z</time></trkpt><trkpt lat="42.0870301" lon="12.7895153"><ele>340.0</ele><time>2026-05-02T11:55:02.002Z</time></trkpt><trkpt lat="42.0870187" lon="12.7896246"><ele>341.66666666666663</ele><time>2026-05-02T11:55:02.984Z</time></trkpt><trkpt lat="42.0869911" lon="12.7897257"><ele>343.3333333333333</ele><time>2026-05-02T11:55:04.004Z</time></trkpt><trkpt lat="42.0869546" lon="12.7898373"><ele>345.0</ele><time>2026-05-02T11:55:04.988Z</time></trkpt><trkpt lat="42.0869131" lon="12.7899425"><ele>346.6666666666667</ele><time>2026-05-02T11:55:06.008Z</time></trkpt><trkpt lat="42.0868647" lon="12.7900349"><ele>348.33333333333337</ele><time>2026-05-02T11:55:06.996Z</time></trkpt><trkpt lat="42.0868103" lon="12.7901394"><ele>350.0</ele><time>2026-05-02T11:55:08.011Z</time></trkpt><trkpt lat="42.0867579" lon="12.7902461"><ele>350.83333333333337</ele><time>2026-05-02T11:55:08.998Z</time></trkpt><trkpt lat="42.0867127" lon="12.7903568"><ele>351.6666666666667</ele><time>2026-05-02T11:55:10.014Z</time></trkpt><trkpt lat="42.0866699" lon="12.7904521"><ele>352.5</ele><time>2026-05-02T11:55:11.006Z</time></trkpt><trkpt lat="42.0866217" lon="12.7905362"><ele>353.3333333333333</ele><time>2026-05-02T11:55:11.996Z</time></trkpt><trkpt lat="42.086577" lon="12.7906162"><ele>354.16666666666663</ele><time>2026-05-02T11:55:13.007Z</time></trkpt><trkpt lat="42.0865496" lon="12.7907031"><ele>355.0</ele><time>2026-05-02T11:55:14.004Z</time></trkpt><trkpt lat="42.086518" lon="12.7907883"><ele>355.0</ele><time>2026-05-02T11:55:14.998Z</time></trkpt><trkpt lat="42.0864976" lon="12.7908869"><ele>355.0</ele><time>2026-05-02T11:55:16.003Z</time></trkpt><trkpt lat="42.0864779" lon="12.7909821"><ele>355.0</ele><time>2026-05-02T11:55:17.005Z</time></trkpt><trkpt lat="42.0864573" lon="12.7910878"><ele>355.0</ele><time>2026-05-02T11:55:17.994Z</time></trkpt><trkpt lat="42.0864311" lon="12.7912006"><ele>355.0</ele><time>2026-05-02T11:55:19.004Z</time></trkpt><trkpt lat="42.0863976" lon="12.7913235"><ele>355.0</ele><time>2026-05-02T11:55:20.007Z</time></trkpt><trkpt lat="42.0863615" lon="12.7914505"><ele>356.3333333333333</ele><time>2026-05-02T11:55:20.997Z</time></trkpt><trkpt lat="42.0863308" lon="12.7915752"><ele>357.66666666666663</ele><time>2026-05-02T11:55:22.009Z</time></trkpt><trkpt lat="42.0863062" lon="12.7916994"><ele>359.0</ele><time>2026-05-02T11:55:23.001Z</time></trkpt><trkpt lat="42.0862778" lon="12.7918106"><ele>360.3333333333333</ele><time>2026-05-02T11:55:24.005Z</time></trkpt><trkpt lat="42.0862517" lon="12.7919082"><ele>361.6666666666667</ele><time>2026-05-02T11:55:25.003Z</time></trkpt><trkpt lat="42.0862356" lon="12.792011"><ele>363.0</ele><time>2026-05-02T11:55:25.999Z</time></trkpt><trkpt lat="42.0862255" lon="12.7921249"><ele>364.0</ele><time>2026-05-02T11:55:27.011Z</time></trkpt><trkpt lat="42.0862095" lon="12.7922277"><ele>365.0</ele><time>2026-05-02T11:55:27.999Z</time></trkpt><trkpt lat="42.0861859" lon="12.7923178"><ele>366.0</ele><time>2026-05-02T11:55:28.999Z</time></trkpt><trkpt lat="42.0861634" lon="12.7924242"><ele>367.0</ele><time>2026-05-02T11:55:30.01Z</time></trkpt><trkpt lat="42.0861295" lon="12.7925308"><ele>368.0</ele><time>2026-05-02T11:55:31.002Z</time></trkpt><trkpt lat="42.0861043" lon="12.7926481"><ele>369.0</ele><time>2026-05-02T11:55:32.009Z</time></trkpt><trkpt lat="42.0860806" lon="12.7927702"><ele>369.5</ele><time>2026-05-02T11:55:33.01Z</time></trkpt><trkpt lat="42.0860637" lon="12.792894"><ele>370.0</ele><time>2026-05-02T11:55:34.005Z</time></trkpt><trkpt lat="42.0860461" lon="12.7930064"><ele>370.5</ele><time>2026-05-02T11:55:35.01Z</time></trkpt><trkpt lat="42.0860388" lon="12.7931023"><ele>371.0</ele><time>2026-05-02T11:55:36.01Z</time></trkpt><trkpt lat="42.0860248" lon="12.7932506"><ele>371.5</ele><time>2026-05-02T11:55:38.006Z</time></trkpt><trkpt lat="42.0860336" lon="12.7933549"><ele>372.0</ele><time>2026-05-02T11:55:40.005Z</time></trkpt><trkpt lat="42.0860647" lon="12.7934617"><ele>372.8</ele><time>2026-05-02T11:55:42.018Z</time></trkpt><trkpt lat="42.0861035" lon="12.793593"><ele>373.6</ele><time>2026-05-02T11:55:44.023Z</time></trkpt><trkpt lat="42.0861243" lon="12.7936821"><ele>374.40000000000003</ele><time>2026-05-02T11:55:45.01Z</time></trkpt><trkpt lat="42.0861804" lon="12.7938199"><ele>375.20000000000005</ele><time>2026-05-02T11:55:47.015Z</time></trkpt><trkpt lat="42.0862439" lon="12.793966"><ele>376.0</ele><time>2026-05-02T11:55:49.019Z</time></trkpt><trkpt lat="42.0862856" lon="12.7940352"><ele>376.0</ele><time>2026-05-02T11:55:50.018Z</time></trkpt><trkpt lat="42.0863228" lon="12.7941202"><ele>376.0</ele><time>2026-05-02T11:55:51.015Z</time></trkpt><trkpt lat="42.086357" lon="12.7942004"><ele>376.0</ele><time>2026-05-02T11:55:52.019Z</time></trkpt><trkpt lat="42.0864136" lon="12.7943302"><ele>376.0</ele><time>2026-05-02T11:55:54.018Z</time></trkpt><trkpt lat="42.0864826" lon="12.7944823"><ele>376.0</ele><time>2026-05-02T11:55:56.018Z</time></trkpt><trkpt lat="42.0865484" lon="12.794628"><ele>377.3333333333333</ele><time>2026-05-02T11:55:58.022Z</time></trkpt><trkpt lat="42.0865776" lon="12.7947094"><ele>378.66666666666663</ele><time>2026-05-02T11:55:59.007Z</time></trkpt><trkpt lat="42.0866424" lon="12.7948539"><ele>380.0</ele><time>2026-05-02T11:56:01.018Z</time></trkpt><trkpt lat="42.0866807" lon="12.7949334"><ele>381.3333333333333</ele><time>2026-05-02T11:56:02.016Z</time></trkpt><trkpt lat="42.0867167" lon="12.7950165"><ele>382.6666666666667</ele><time>2026-05-02T11:56:03.017Z</time></trkpt><trkpt lat="42.0867492" lon="12.7951035"><ele>384.0</ele><time>2026-05-02T11:56:04.023Z</time></trkpt><trkpt lat="42.0867822" lon="12.7951941"><ele>386.3333333333333</ele><time>2026-05-02T11:56:05.011Z</time></trkpt><trkpt lat="42.0868207" lon="12.7952806"><ele>388.66666666666663</ele><time>2026-05-02T11:56:06.022Z</time></trkpt><trkpt lat="42.0868658" lon="12.7953594"><ele>391.0</ele><time>2026-05-02T11:56:07.022Z</time></trkpt><trkpt lat="42.0869169" lon="12.7954438"><ele>393.3333333333333</ele><time>2026-05-02T11:56:08.016Z</time></trkpt><trkpt lat="42.0869635" lon="12.795525"><ele>395.66666666666663</ele><time>2026-05-02T11:56:09.015Z</time></trkpt><trkpt lat="42.0870216" lon="12.7955938"><ele>398.0</ele><time>2026-05-02T11:56:10.022Z</time></trkpt><trkpt lat="42.0870845" lon="12.7956611"><ele>397.99999999999994</ele><time>2026-05-02T11:56:11.012Z</time></trkpt><trkpt lat="42.0871364" lon="12.7957279"><ele>398.0</ele><time>2026-05-02T11:56:12.02Z</time></trkpt><trkpt lat="42.0871936" lon="12.7957893"><ele>398.0</ele><time>2026-05-02T11:56:13.015Z</time></trkpt><trkpt lat="42.0872504" lon="12.7958538"><ele>398.0</ele><time>2026-05-02T11:56:14.01Z</time></trkpt><trkpt lat="42.0872904" lon="12.7959238"><ele>398.0</ele><time>2026-05-02T11:56:15.024Z</time></trkpt><trkpt lat="42.0873393" lon="12.7959996"><ele>397.99999999999994</ele><time>2026-05-02T11:56:16.016Z</time></trkpt><trkpt lat="42.0873897" lon="12.796078"><ele>398.0</ele><time>2026-05-02T11:56:17.02Z</time></trkpt><trkpt lat="42.0874767" lon="12.7961909"><ele>400.99999999999994</ele><time>2026-05-02T11:56:19.009Z</time></trkpt><trkpt lat="42.0875388" lon="12.7962939"><ele>404.0</ele><time>2026-05-02T11:56:21.013Z</time></trkpt><trkpt lat="42.0876274" lon="12.7964137"><ele>407.0</ele><time>2026-05-02T11:56:23.018Z</time></trkpt><trkpt lat="42.0876815" lon="12.7964809"><ele>410.0</ele><time>2026-05-02T11:56:24.019Z</time></trkpt><trkpt lat="42.0877414" lon="12.7965422"><ele>412.99999999999994</ele><time>2026-05-02T11:56:25.011Z</time></trkpt><trkpt lat="42.0878022" lon="12.7966044"><ele>416.0</ele><time>2026-05-02T11:56:26.019Z</time></trkpt><trkpt lat="42.0878569" lon="12.7966517"><ele>415.99999999999994</ele><time>2026-05-02T11:56:27.009Z</time></trkpt><trkpt lat="42.087909" lon="12.7967045"><ele>416.0</ele><time>2026-05-02T11:56:28.021Z</time></trkpt><trkpt lat="42.0880143" lon="12.7967835"><ele>416.0</ele><time>2026-05-02T11:56:30.014Z</time></trkpt><trkpt lat="42.0880916" lon="12.7968474"><ele>416.0</ele><time>2026-05-02T11:56:32.008Z</time></trkpt><trkpt lat="42.088122" lon="12.7969437"><ele>415.99999999999994</ele><time>2026-05-02T11:56:35.011Z</time></trkpt><trkpt lat="42.0880765" lon="12.7970326"><ele>416.0</ele><time>2026-05-02T11:56:37.019Z</time></trkpt><trkpt lat="42.0880025" lon="12.7970943"><ele>419.0</ele><time>2026-05-02T11:56:39.008Z</time></trkpt><trkpt lat="42.0878984" lon="12.7971175"><ele>422.0</ele><time>2026-05-02T11:56:41.018Z</time></trkpt><trkpt lat="42.0878038" lon="12.7971391"><ele>425.0</ele><time>2026-05-02T11:56:43.007Z</time></trkpt><trkpt lat="42.0876716" lon="12.7971701"><ele>428.0</ele><time>2026-05-02T11:56:45.01Z</time></trkpt><trkpt lat="42.0875904" lon="12.7971933"><ele>431.0</ele><time>2026-05-02T11:56:46.007Z</time></trkpt><trkpt lat="42.0875168" lon="12.7972111"><ele>430.99999999999994</ele><time>2026-05-02T11:56:47.016Z</time></trkpt><trkpt lat="42.087441" lon="12.7972315"><ele>431.0</ele><time>2026-05-02T11:56:48.015Z</time></trkpt><trkpt lat="42.0873497" lon="12.7972476"><ele>431.0</ele><time>2026-05-02T11:56:49.012Z</time></trkpt><trkpt lat="42.0872628" lon="12.7972594"><ele>431.0</ele><time>2026-05-02T11:56:50.007Z</time></trkpt><trkpt lat="42.0871764" lon="12.7972688"><ele>430.99999999999994</ele><time>2026-05-02T11:56:51.017Z</time></trkpt><trkpt lat="42.0870902" lon="12.7972829"><ele>431.0</ele><time>2026-05-02T11:56:52.015Z</time></trkpt><trkpt lat="42.0870162" lon="12.79728"><ele>431.49999999999994</ele><time>2026-05-02T11:56:53.021Z</time></trkpt><trkpt lat="42.0869348" lon="12.7972832"><ele>432.0</ele><time>2026-05-02T11:56:54.017Z</time></trkpt><trkpt lat="42.0868587" lon="12.7972817"><ele>432.5</ele><time>2026-05-02T11:56:55.023Z</time></trkpt><trkpt lat="42.0867888" lon="12.7972791"><ele>433.0</ele><time>2026-05-02T11:56:56.021Z</time></trkpt><trkpt lat="42.0867213" lon="12.7972776"><ele>433.49999999999994</ele><time>2026-05-02T11:56:57.01Z</time></trkpt><trkpt lat="42.0866531" lon="12.7972699"><ele>434.0</ele><time>2026-05-02T11:56:58.023Z</time></trkpt><trkpt lat="42.0865347" lon="12.7972711"><ele>434.4</ele><time>2026-05-02T11:57:00.016Z</time></trkpt><trkpt lat="42.0864315" lon="12.7973568"><ele>434.79999999999995</ele><time>2026-05-02T11:57:02.017Z</time></trkpt><trkpt lat="42.0863714" lon="12.7974219"><ele>435.20000000000005</ele><time>2026-05-02T11:57:03.009Z</time></trkpt><trkpt lat="42.0863069" lon="12.7975127"><ele>435.6</ele><time>2026-05-02T11:57:04.022Z</time></trkpt><trkpt lat="42.0862569" lon="12.7976033"><ele>436.0</ele><time>2026-05-02T11:57:05.011Z</time></trkpt><trkpt lat="42.0862094" lon="12.7976989"><ele>436.00000000000006</ele><time>2026-05-02T11:57:06.007Z</time></trkpt><trkpt lat="42.0861627" lon="12.7977853"><ele>436.0</ele><time>2026-05-02T11:57:07.023Z</time></trkpt><trkpt lat="42.0861171" lon="12.7978624"><ele>436.0</ele><time>2026-05-02T11:57:08.011Z</time></trkpt><trkpt lat="42.0860799" lon="12.7979529"><ele>436.0</ele><time>2026-05-02T11:57:09.011Z</time></trkpt><trkpt lat="42.086054" lon="12.7980496"><ele>436.00000000000006</ele><time>2026-05-02T11:57:10.017Z</time></trkpt><trkpt lat="42.0860284" lon="12.7981469"><ele>436.0</ele><time>2026-05-02T11:57:11.016Z</time></trkpt><trkpt lat="42.0860211" lon="12.7982457"><ele>436.00000000000006</ele><time>2026-05-02T11:57:12.013Z</time></trkpt><trkpt lat="42.0860283" lon="12.7983413"><ele>436.0</ele><time>2026-05-02T11:57:13.023Z</time></trkpt><trkpt lat="42.0860307" lon="12.7984313"><ele>436.0</ele><time>2026-05-02T11:57:14.02Z</time></trkpt><trkpt lat="42.0860277" lon="12.7985366"><ele>436.0</ele><time>2026-05-02T11:57:15.016Z</time></trkpt><trkpt lat="42.086018" lon="12.7986521"><ele>436.00000000000006</ele><time>2026-05-02T11:57:16.02Z</time></trkpt><trkpt lat="42.0860091" lon="12.7987635"><ele>436.0</ele><time>2026-05-02T11:57:17.028Z</time></trkpt><trkpt lat="42.0859872" lon="12.7988722"><ele>435.8571428571429</ele><time>2026-05-02T11:57:18.014Z</time></trkpt><trkpt lat="42.0859519" lon="12.7989696"><ele>435.7142857142857</ele><time>2026-05-02T11:57:19.022Z</time></trkpt><trkpt lat="42.0859142" lon="12.7990623"><ele>435.57142857142856</ele><time>2026-05-02T11:57:20.012Z</time></trkpt><trkpt lat="42.0858696" lon="12.799137"><ele>435.42857142857144</ele><time>2026-05-02T11:57:21.019Z</time></trkpt><trkpt lat="42.0858216" lon="12.7992098"><ele>435.2857142857143</ele><time>2026-05-02T11:57:22.016Z</time></trkpt><trkpt lat="42.0857743" lon="12.7992724"><ele>435.14285714285717</ele><time>2026-05-02T11:57:23.012Z</time></trkpt><trkpt lat="42.0857286" lon="12.7993314"><ele>435.0</ele><time>2026-05-02T11:57:24.019Z</time></trkpt><trkpt lat="42.0856704" lon="12.799394"><ele>438.3333333333333</ele><time>2026-05-02T11:57:25.015Z</time></trkpt><trkpt lat="42.0856181" lon="12.7994531"><ele>441.66666666666663</ele><time>2026-05-02T11:57:26.008Z</time></trkpt><trkpt lat="42.0855329" lon="12.7995686"><ele>445.0</ele><time>2026-05-02T11:57:28.008Z</time></trkpt><trkpt lat="42.0854746" lon="12.799638"><ele>448.3333333333333</ele><time>2026-05-02T11:57:29.007Z</time></trkpt><trkpt lat="42.0854243" lon="12.7997028"><ele>451.66666666666663</ele><time>2026-05-02T11:57:30.004Z</time></trkpt><trkpt lat="42.0853788" lon="12.7997639"><ele>455.0</ele><time>2026-05-02T11:57:31.003Z</time></trkpt><trkpt lat="42.085337" lon="12.7998314"><ele>455.0</ele><time>2026-05-02T11:57:32.01Z</time></trkpt><trkpt lat="42.0852985" lon="12.7998997"><ele>455.0</ele><time>2026-05-02T11:57:33.002Z</time></trkpt><trkpt lat="42.0852624" lon="12.7999692"><ele>455.0</ele><time>2026-05-02T11:57:34.006Z</time></trkpt><trkpt lat="42.0852235" lon="12.8000401"><ele>455.0</ele><time>2026-05-02T11:57:35.001Z</time></trkpt><trkpt lat="42.0851774" lon="12.8001195"><ele>455.0</ele><time>2026-05-02T11:57:36.014Z</time></trkpt><trkpt lat="42.0851327" lon="12.8001941"><ele>455.0</ele><time>2026-05-02T11:57:37.003Z</time></trkpt><trkpt lat="42.0850773" lon="12.8002694"><ele>455.0</ele><time>2026-05-02T11:57:37.995Z</time></trkpt><trkpt lat="42.0850175" lon="12.8003469"><ele>453.66666666666663</ele><time>2026-05-02T11:57:39.014Z</time></trkpt><trkpt lat="42.0849668" lon="12.8004328"><ele>452.3333333333333</ele><time>2026-05-02T11:57:40.004Z</time></trkpt><trkpt lat="42.0849217" lon="12.8005095"><ele>451.0</ele><time>2026-05-02T11:57:41.001Z</time></trkpt><trkpt lat="42.0848794" lon="12.8005885"><ele>449.66666666666663</ele><time>2026-05-02T11:57:42.006Z</time></trkpt><trkpt lat="42.084831" lon="12.8006801"><ele>448.3333333333333</ele><time>2026-05-02T11:57:43.005Z</time></trkpt><trkpt lat="42.084784" lon="12.8007602"><ele>447.0</ele><time>2026-05-02T11:57:43.996Z</time></trkpt><trkpt lat="42.0847354" lon="12.8008459"><ele>447.0</ele><time>2026-05-02T11:57:45.003Z</time></trkpt><trkpt lat="42.0846847" lon="12.8009439"><ele>447.0</ele><time>2026-05-02T11:57:46.006Z</time></trkpt><trkpt lat="42.0846447" lon="12.8010438"><ele>447.0</ele><time>2026-05-02T11:57:46.995Z</time></trkpt><trkpt lat="42.0846014" lon="12.8011503"><ele>447.0</ele><time>2026-05-02T11:57:48.003Z</time></trkpt><trkpt lat="42.0845591" lon="12.8012602"><ele>447.0</ele><time>2026-05-02T11:57:48.997Z</time></trkpt><trkpt lat="42.0845186" lon="12.8013671"><ele>447.0</ele><time>2026-05-02T11:57:49.996Z</time></trkpt><trkpt lat="42.0844642" lon="12.8015036"><ele>452.0</ele><time>2026-05-02T11:57:50.998Z</time></trkpt><trkpt lat="42.0844097" lon="12.8016264"><ele>457.0</ele><time>2026-05-02T11:57:51.986Z</time></trkpt><trkpt lat="42.0843722" lon="12.8017046"><ele>462.0</ele><time>2026-05-02T11:57:52.991Z</time></trkpt><trkpt lat="42.0844252" lon="12.8016169"><ele>467.0</ele><time>2026-05-02T12:00:54.023Z</time></trkpt><trkpt lat="42.0844899" lon="12.8015451"><ele>472.0</ele><time>2026-05-02T12:00:56.02Z</time></trkpt><trkpt lat="42.0845392" lon="12.8014412"><ele>477.0</ele><time>2026-05-02T12:01:04.023Z</time></trkpt><trkpt lat="42.0845781" lon="12.8013682"><ele>477.0</ele><time>2026-05-02T12:01:13.017Z</time></trkpt><trkpt lat="42.0845912" lon="12.801284"><ele>477.0</ele><time>2026-05-02T12:01:23.011Z</time></trkpt><trkpt lat="42.0845199" lon="12.8013631"><ele>477.0</ele><time>2026-05-02T12:01:59.006Z</time></trkpt><trkpt lat="42.0844629" lon="12.8014266"><ele>477.0</ele><time>2026-05-02T12:02:29.009Z</time></trkpt><trkpt lat="42.0844041" lon="12.8015328"><ele>477.0</ele><time>2026-05-02T12:02:32.002Z</time></trkpt><trkpt lat="42.0843283" lon="12.8016377"><ele>477.0</ele><time>2026-05-02T12:02:34.011Z</time></trkpt><trkpt lat="42.0842698" lon="12.8017009"><ele>477.0</ele><time>2026-05-02T12:02:35.031Z</time></trkpt><trkpt lat="42.0842102" lon="12.8017598"><ele>477.00000000000006</ele><time>2026-05-02T12:02:36.003Z</time></trkpt><trkpt lat="42.0841592" lon="12.8018151"><ele>477.00000000000006</ele><time>2026-05-02T12:02:37.023Z</time></trkpt><trkpt lat="42.0841034" lon="12.8018627"><ele>477.0</ele><time>2026-05-02T12:02:38.025Z</time></trkpt><trkpt lat="42.0840027" lon="12.8019522"><ele>477.0</ele><time>2026-05-02T12:02:40.004Z</time></trkpt><trkpt lat="42.0838996" lon="12.8020478"><ele>476.3333333333333</ele><time>2026-05-02T12:02:42.007Z</time></trkpt><trkpt lat="42.0838158" lon="12.8021609"><ele>475.66666666666663</ele><time>2026-05-02T12:02:44.013Z</time></trkpt><trkpt lat="42.0837735" lon="12.8022265"><ele>475.0</ele><time>2026-05-02T12:02:44.998Z</time></trkpt><trkpt lat="42.0837226" lon="12.8022939"><ele>474.3333333333333</ele><time>2026-05-02T12:02:46.036Z</time></trkpt><trkpt lat="42.0836745" lon="12.8023677"><ele>473.66666666666663</ele><time>2026-05-02T12:02:47.005Z</time></trkpt><trkpt lat="42.0836304" lon="12.8024354"><ele>473.0</ele><time>2026-05-02T12:02:48.004Z</time></trkpt><trkpt lat="42.0835935" lon="12.8025142"><ele>472.99999999999994</ele><time>2026-05-02T12:02:49.025Z</time></trkpt><trkpt lat="42.0835511" lon="12.8025897"><ele>473.0</ele><time>2026-05-02T12:02:50.009Z</time></trkpt><trkpt lat="42.0835156" lon="12.8026746"><ele>473.0</ele><time>2026-05-02T12:02:51.007Z</time></trkpt><trkpt lat="42.0834913" lon="12.8027652"><ele>473.0</ele><time>2026-05-02T12:02:52.003Z</time></trkpt><trkpt lat="42.0834768" lon="12.8028586"><ele>472.99999999999994</ele><time>2026-05-02T12:02:53.008Z</time></trkpt><trkpt lat="42.0834693" lon="12.8029507"><ele>473.0</ele><time>2026-05-02T12:02:54.013Z</time></trkpt><trkpt lat="42.0834743" lon="12.8031154"><ele>475.59999999999997</ele><time>2026-05-02T12:02:56.004Z</time></trkpt><trkpt lat="42.0834888" lon="12.8032247"><ele>478.19999999999993</ele><time>2026-05-02T12:02:57.011Z</time></trkpt><trkpt lat="42.0834954" lon="12.8033363"><ele>480.8</ele><time>2026-05-02T12:02:58.087Z</time></trkpt><trkpt lat="42.0834974" lon="12.803458"><ele>483.4</ele><time>2026-05-02T12:02:59.175Z</time></trkpt><trkpt lat="42.0834795" lon="12.8036869"><ele>486.0</ele><time>2026-05-02T12:03:01.006Z</time></trkpt><trkpt lat="42.0834687" lon="12.8037928"><ele>486.57142857142856</ele><time>2026-05-02T12:03:02.007Z</time></trkpt><trkpt lat="42.0834675" lon="12.8038902"><ele>487.14285714285717</ele><time>2026-05-02T12:03:03.023Z</time></trkpt><trkpt lat="42.083471" lon="12.8039876"><ele>487.7142857142857</ele><time>2026-05-02T12:03:04.033Z</time></trkpt><trkpt lat="42.0834897" lon="12.804081"><ele>488.2857142857143</ele><time>2026-05-02T12:03:05.037Z</time></trkpt><trkpt lat="42.0835123" lon="12.8041747"><ele>488.8571428571429</ele><time>2026-05-02T12:03:06.012Z</time></trkpt><trkpt lat="42.0835421" lon="12.8042634"><ele>489.42857142857144</ele><time>2026-05-02T12:03:06.993Z</time></trkpt><trkpt lat="42.083572" lon="12.8043409"><ele>490.0</ele><time>2026-05-02T12:03:08Z</time></trkpt><trkpt lat="42.0836168" lon="12.804413"><ele>487.6</ele><time>2026-05-02T12:03:09.001Z</time></trkpt><trkpt lat="42.0836682" lon="12.8044848"><ele>485.2</ele><time>2026-05-02T12:03:10.011Z</time></trkpt><trkpt lat="42.0837146" lon="12.8045585"><ele>482.79999999999995</ele><time>2026-05-02T12:03:10.997Z</time></trkpt><trkpt lat="42.0838077" lon="12.804647"><ele>480.4</ele><time>2026-05-02T12:03:12.999Z</time></trkpt><trkpt lat="42.0839225" lon="12.8047272"><ele>478.0</ele><time>2026-05-02T12:03:15.02Z</time></trkpt><trkpt lat="42.0840528" lon="12.8047718"><ele>482.1666666666667</ele><time>2026-05-02T12:03:17.01Z</time></trkpt><trkpt lat="42.0841328" lon="12.8047912"><ele>486.33333333333337</ele><time>2026-05-02T12:03:18.01Z</time></trkpt><trkpt lat="42.0842214" lon="12.8048112"><ele>490.5</ele><time>2026-05-02T12:03:19.006Z</time></trkpt><trkpt lat="42.0843176" lon="12.8048531"><ele>494.66666666666663</ele><time>2026-05-02T12:03:20.006Z</time></trkpt><trkpt lat="42.0843996" lon="12.804892"><ele>498.8333333333333</ele><time>2026-05-02T12:03:20.997Z</time></trkpt><trkpt lat="42.0844639" lon="12.804918"><ele>503.0</ele><time>2026-05-02T12:03:22.025Z</time></trkpt><trkpt lat="42.0845818" lon="12.8049592"><ele>503.0</ele><time>2026-05-02T12:03:23.996Z</time></trkpt><trkpt lat="42.0846551" lon="12.8049598"><ele>503.00000000000006</ele><time>2026-05-02T12:03:26.008Z</time></trkpt><trkpt lat="42.0847275" lon="12.8049609"><ele>503.0</ele><time>2026-05-02T12:03:50.015Z</time></trkpt><trkpt lat="42.0847942" lon="12.8049654"><ele>503.0</ele><time>2026-05-02T12:04:53.997Z</time></trkpt><trkpt lat="42.0848754" lon="12.8049599"><ele>503.00000000000006</ele><time>2026-05-02T12:04:56.007Z</time></trkpt><trkpt lat="42.0849408" lon="12.8049525"><ele>503.0</ele><time>2026-05-02T12:04:57.006Z</time></trkpt><trkpt lat="42.0850067" lon="12.8049387"><ele>503.0</ele><time>2026-05-02T12:04:58.002Z</time></trkpt><trkpt lat="42.0851268" lon="12.8049194"><ele>504.99999999999994</ele><time>2026-05-02T12:05:00.005Z</time></trkpt><trkpt lat="42.0852007" lon="12.8049151"><ele>507.0</ele><time>2026-05-02T12:05:00.99Z</time></trkpt><trkpt lat="42.085309" lon="12.8048936"><ele>509.0</ele><time>2026-05-02T12:05:02.998Z</time></trkpt><trkpt lat="42.0853724" lon="12.8048949"><ele>511.0</ele><time>2026-05-02T12:05:04.005Z</time></trkpt><trkpt lat="42.0854447" lon="12.8048997"><ele>513.0</ele><time>2026-05-02T12:05:05.022Z</time></trkpt><trkpt lat="42.0855219" lon="12.8048945"><ele>515.0</ele><time>2026-05-02T12:05:06.005Z</time></trkpt><trkpt lat="42.0855886" lon="12.8048835"><ele>515.0</ele><time>2026-05-02T12:05:07.004Z</time></trkpt><trkpt lat="42.0857178" lon="12.8048804"><ele>515.0</ele><time>2026-05-02T12:05:08.998Z</time></trkpt><trkpt lat="42.0857817" lon="12.8048815"><ele>515.0</ele><time>2026-05-02T12:05:10Z</time></trkpt><trkpt lat="42.0859087" lon="12.8048887"><ele>515.0</ele><time>2026-05-02T12:05:12.002Z</time></trkpt><trkpt lat="42.0859785" lon="12.8048967"><ele>515.0</ele><time>2026-05-02T12:05:13.005Z</time></trkpt><trkpt lat="42.0860496" lon="12.8049052"><ele>515.5</ele><time>2026-05-02T12:05:14.001Z</time></trkpt><trkpt lat="42.0861288" lon="12.8049229"><ele>516.0</ele><time>2026-05-02T12:05:14.988Z</time></trkpt><trkpt lat="42.0862214" lon="12.8049451"><ele>516.5</ele><time>2026-05-02T12:05:16Z</time></trkpt><trkpt lat="42.0863158" lon="12.8049572"><ele>517.0</ele><time>2026-05-02T12:05:16.998Z</time></trkpt><trkpt lat="42.0863988" lon="12.8049822"><ele>517.5</ele><time>2026-05-02T12:05:18.004Z</time></trkpt><trkpt lat="42.0864864" lon="12.8050073"><ele>518.0</ele><time>2026-05-02T12:05:18.996Z</time></trkpt><trkpt lat="42.0865747" lon="12.8050296"><ele>521.0</ele><time>2026-05-02T12:05:19.999Z</time></trkpt><trkpt lat="42.0866616" lon="12.8050627"><ele>524.0</ele><time>2026-05-02T12:05:21.011Z</time></trkpt><trkpt lat="42.0867481" lon="12.8050977"><ele>527.0</ele><time>2026-05-02T12:05:22.084Z</time></trkpt><trkpt lat="42.0868275" lon="12.8051215"><ele>530.0</ele><time>2026-05-02T12:05:23.02Z</time></trkpt><trkpt lat="42.0869083" lon="12.8051285"><ele>533.0</ele><time>2026-05-02T12:05:24.021Z</time></trkpt><trkpt lat="42.0869909" lon="12.8051409"><ele>536.0</ele><time>2026-05-02T12:05:25.027Z</time></trkpt><trkpt lat="42.0870697" lon="12.8051607"><ele>535.8333333333333</ele><time>2026-05-02T12:05:26.02Z</time></trkpt><trkpt lat="42.0871409" lon="12.8051974"><ele>535.6666666666666</ele><time>2026-05-02T12:05:27.007Z</time></trkpt><trkpt lat="42.0872136" lon="12.8052389"><ele>535.5</ele><time>2026-05-02T12:05:28.02Z</time></trkpt><trkpt lat="42.0872862" lon="12.805279"><ele>535.3333333333334</ele><time>2026-05-02T12:05:29.012Z</time></trkpt><trkpt lat="42.0873619" lon="12.8053117"><ele>535.1666666666667</ele><time>2026-05-02T12:05:29.997Z</time></trkpt><trkpt lat="42.0874409" lon="12.8053362"><ele>535.0</ele><time>2026-05-02T12:05:31Z</time></trkpt><trkpt lat="42.087518" lon="12.8053461"><ele>535.0</ele><time>2026-05-02T12:05:32Z</time></trkpt><trkpt lat="42.087587" lon="12.8053532"><ele>535.0</ele><time>2026-05-02T12:05:32.999Z</time></trkpt><trkpt lat="42.087661" lon="12.8053628"><ele>535.0</ele><time>2026-05-02T12:05:33.999Z</time></trkpt><trkpt lat="42.08773" lon="12.8053652"><ele>535.0</ele><time>2026-05-02T12:05:35.002Z</time></trkpt><trkpt lat="42.0878045" lon="12.8053597"><ele>535.0</ele><time>2026-05-02T12:05:36Z</time></trkpt><trkpt lat="42.0878793" lon="12.8053516"><ele>535.0</ele><time>2026-05-02T12:05:37.004Z</time></trkpt><trkpt lat="42.087964" lon="12.8053349"><ele>535.0</ele><time>2026-05-02T12:05:37.997Z</time></trkpt><trkpt lat="42.0880468" lon="12.8053099"><ele>535.0</ele><time>2026-05-02T12:05:39.002Z</time></trkpt><trkpt lat="42.0881146" lon="12.8052838"><ele>535.0</ele><time>2026-05-02T12:05:40.078Z</time></trkpt><trkpt lat="42.088189" lon="12.8052693"><ele>535.0</ele><time>2026-05-02T12:05:41.015Z</time></trkpt><trkpt lat="42.0882732" lon="12.8052621"><ele>535.0</ele><time>2026-05-02T12:05:42.019Z</time></trkpt><trkpt lat="42.0883575" lon="12.805269"><ele>535.0</ele><time>2026-05-02T12:05:42.997Z</time></trkpt><trkpt lat="42.0884409" lon="12.8052638"><ele>535.0</ele><time>2026-05-02T12:05:44.008Z</time></trkpt><trkpt lat="42.0885202" lon="12.8052557"><ele>537.5</ele><time>2026-05-02T12:05:44.997Z</time></trkpt><trkpt lat="42.0885933" lon="12.8052401"><ele>540.0</ele><time>2026-05-02T12:05:46.007Z</time></trkpt><trkpt lat="42.0886803" lon="12.805226"><ele>542.5</ele><time>2026-05-02T12:05:47.002Z</time></trkpt><trkpt lat="42.0887599" lon="12.8052169"><ele>545.0</ele><time>2026-05-02T12:05:47.993Z</time></trkpt><trkpt lat="42.0888286" lon="12.8052083"><ele>547.5</ele><time>2026-05-02T12:05:49.003Z</time></trkpt><trkpt lat="42.088902" lon="12.8052069"><ele>550.0</ele><time>2026-05-02T12:05:50.003Z</time></trkpt><trkpt lat="42.0889821" lon="12.8052027"><ele>550.0</ele><time>2026-05-02T12:05:50.998Z</time></trkpt><trkpt lat="42.0890695" lon="12.8051949"><ele>550.0</ele><time>2026-05-02T12:05:52.006Z</time></trkpt><trkpt lat="42.0891439" lon="12.8051861"><ele>550.0</ele><time>2026-05-02T12:05:53Z</time></trkpt><trkpt lat="42.0892152" lon="12.8051792"><ele>550.0</ele><time>2026-05-02T12:05:53.997Z</time></trkpt><trkpt lat="42.0892922" lon="12.8051594"><ele>550.0</ele><time>2026-05-02T12:05:55.001Z</time></trkpt><trkpt lat="42.089373" lon="12.8051392"><ele>550.0</ele><time>2026-05-02T12:05:56Z</time></trkpt><trkpt lat="42.0894583" lon="12.8051388"><ele>552.8333333333334</ele><time>2026-05-02T12:05:57.006Z</time></trkpt><trkpt lat="42.0895531" lon="12.8051499"><ele>555.6666666666667</ele><time>2026-05-02T12:05:58.005Z</time></trkpt><trkpt lat="42.0896487" lon="12.8051651"><ele>558.5</ele><time>2026-05-02T12:05:59.024Z</time></trkpt><trkpt lat="42.0897373" lon="12.8051821"><ele>561.3333333333334</ele><time>2026-05-02T12:06:00.027Z</time></trkpt><trkpt lat="42.089814" lon="12.8051972"><ele>564.1666666666666</ele><time>2026-05-02T12:06:01.023Z</time></trkpt><trkpt lat="42.0899002" lon="12.8052255"><ele>567.0</ele><time>2026-05-02T12:06:02.023Z</time></trkpt><trkpt lat="42.0899907" lon="12.8052411"><ele>568.6</ele><time>2026-05-02T12:06:03.017Z</time></trkpt><trkpt lat="42.0900811" lon="12.8052477"><ele>570.2</ele><time>2026-05-02T12:06:04.004Z</time></trkpt><trkpt lat="42.0901701" lon="12.8052575"><ele>571.8</ele><time>2026-05-02T12:06:05.001Z</time></trkpt><trkpt lat="42.0902643" lon="12.8052733"><ele>573.4</ele><time>2026-05-02T12:06:05.999Z</time></trkpt><trkpt lat="42.0903529" lon="12.8052846"><ele>575.0</ele><time>2026-05-02T12:06:07.023Z</time></trkpt><trkpt lat="42.0904432" lon="12.8053037"><ele>575.0</ele><time>2026-05-02T12:06:08.027Z</time></trkpt><trkpt lat="42.0905172" lon="12.8053288"><ele>575.0</ele><time>2026-05-02T12:06:09.022Z</time></trkpt><trkpt lat="42.0905868" lon="12.8053595"><ele>575.0</ele><time>2026-05-02T12:06:10.004Z</time></trkpt><trkpt lat="42.0906688" lon="12.8054024"><ele>575.0</ele><time>2026-05-02T12:06:10.994Z</time></trkpt><trkpt lat="42.0907542" lon="12.8054436"><ele>575.0</ele><time>2026-05-02T12:06:12.005Z</time></trkpt><trkpt lat="42.0908516" lon="12.8054948"><ele>575.0</ele><time>2026-05-02T12:06:12.995Z</time></trkpt><trkpt lat="42.0909363" lon="12.8055442"><ele>575.8333333333333</ele><time>2026-05-02T12:06:13.997Z</time></trkpt><trkpt lat="42.0910139" lon="12.8055929"><ele>576.6666666666666</ele><time>2026-05-02T12:06:14.993Z</time></trkpt><trkpt lat="42.0910815" lon="12.8056415"><ele>577.5</ele><time>2026-05-02T12:06:16.026Z</time></trkpt><trkpt lat="42.09116" lon="12.8056826"><ele>578.3333333333334</ele><time>2026-05-02T12:06:17.017Z</time></trkpt><trkpt lat="42.0912371" lon="12.8057298"><ele>579.1666666666667</ele><time>2026-05-02T12:06:18Z</time></trkpt><trkpt lat="42.0913139" lon="12.805775"><ele>580.0</ele><time>2026-05-02T12:06:19.014Z</time></trkpt><trkpt lat="42.0913852" lon="12.8058152"><ele>580.0</ele><time>2026-05-02T12:06:19.998Z</time></trkpt><trkpt lat="42.0914482" lon="12.8058433"><ele>580.0</ele><time>2026-05-02T12:06:21.006Z</time></trkpt><trkpt lat="42.0915193" lon="12.8058669"><ele>580.0</ele><time>2026-05-02T12:06:21.997Z</time></trkpt><trkpt lat="42.0915858" lon="12.8058963"><ele>580.0</ele><time>2026-05-02T12:06:23.003Z</time></trkpt><trkpt lat="42.0916539" lon="12.8059376"><ele>580.0</ele><time>2026-05-02T12:06:24.006Z</time></trkpt><trkpt lat="42.0917202" lon="12.8059665"><ele>580.0</ele><time>2026-05-02T12:06:25.004Z</time></trkpt><trkpt lat="42.0917891" lon="12.8059901"><ele>580.0</ele><time>2026-05-02T12:06:25.996Z</time></trkpt><trkpt lat="42.091863" lon="12.8060148"><ele>582.3333333333334</ele><time>2026-05-02T12:06:27.003Z</time></trkpt><trkpt lat="42.0919434" lon="12.8060427"><ele>584.6666666666667</ele><time>2026-05-02T12:06:27.997Z</time></trkpt><trkpt lat="42.0920103" lon="12.806067"><ele>587.0</ele><time>2026-05-02T12:06:29.001Z</time></trkpt><trkpt lat="42.0921073" lon="12.8061124"><ele>589.3333333333334</ele><time>2026-05-02T12:06:30.997Z</time></trkpt><trkpt lat="42.0921751" lon="12.8061301"><ele>591.6666666666666</ele><time>2026-05-02T12:06:33.01Z</time></trkpt><trkpt lat="42.0922219" lon="12.8061883"><ele>594.0</ele><time>2026-05-02T12:07:02.989Z</time></trkpt><trkpt lat="42.0922969" lon="12.8062024"><ele>594.0</ele><time>2026-05-02T12:07:55.012Z</time></trkpt><trkpt lat="42.0923778" lon="12.8062458"><ele>594.0</ele><time>2026-05-02T12:07:57.012Z</time></trkpt><trkpt lat="42.0924551" lon="12.8063118"><ele>594.0</ele><time>2026-05-02T12:07:59.008Z</time></trkpt><trkpt lat="42.0925414" lon="12.8063822"><ele>594.0</ele><time>2026-05-02T12:08:01.016Z</time></trkpt><trkpt lat="42.0926295" lon="12.8064365"><ele>594.0</ele><time>2026-05-02T12:08:03.016Z</time></trkpt><trkpt lat="42.0927373" lon="12.806474"><ele>594.2</ele><time>2026-05-02T12:08:05.008Z</time></trkpt><trkpt lat="42.0928356" lon="12.8064877"><ele>594.4</ele><time>2026-05-02T12:08:07.032Z</time></trkpt><trkpt lat="42.0929411" lon="12.8064912"><ele>594.6</ele><time>2026-05-02T12:08:09.033Z</time></trkpt><trkpt lat="42.0930447" lon="12.8064868"><ele>594.8</ele><time>2026-05-02T12:08:11.017Z</time></trkpt><trkpt lat="42.093155" lon="12.8064791"><ele>595.0</ele><time>2026-05-02T12:08:13.004Z</time></trkpt><trkpt lat="42.0932807" lon="12.8064672"><ele>596.4285714285714</ele><time>2026-05-02T12:08:15.006Z</time></trkpt><trkpt lat="42.0933516" lon="12.8064546"><ele>597.8571428571429</ele><time>2026-05-02T12:08:15.997Z</time></trkpt><trkpt lat="42.0934252" lon="12.806429"><ele>599.2857142857142</ele><time>2026-05-02T12:08:17.009Z</time></trkpt><trkpt lat="42.0935006" lon="12.8064001"><ele>600.7142857142858</ele><time>2026-05-02T12:08:18.034Z</time></trkpt><trkpt lat="42.0935624" lon="12.8063623"><ele>602.1428571428571</ele><time>2026-05-02T12:08:19.025Z</time></trkpt><trkpt lat="42.0936235" lon="12.8063184"><ele>603.5714285714286</ele><time>2026-05-02T12:08:20.034Z</time></trkpt><trkpt lat="42.0936835" lon="12.8062658"><ele>605.0</ele><time>2026-05-02T12:08:21.005Z</time></trkpt><trkpt lat="42.0937561" lon="12.806226"><ele>605.0</ele><time>2026-05-02T12:08:22.232Z</time></trkpt><trkpt lat="42.093898" lon="12.8062053"><ele>605.0</ele><time>2026-05-02T12:08:23.994Z</time></trkpt><trkpt lat="42.0939676" lon="12.806171"><ele>605.0</ele><time>2026-05-02T12:08:25.024Z</time></trkpt><trkpt lat="42.0940398" lon="12.8061228"><ele>605.0</ele><time>2026-05-02T12:08:26.027Z</time></trkpt><trkpt lat="42.0941082" lon="12.8060565"><ele>605.0</ele><time>2026-05-02T12:08:26.999Z</time></trkpt><trkpt lat="42.094176" lon="12.8059732"><ele>608.5</ele><time>2026-05-02T12:08:28.008Z</time></trkpt><trkpt lat="42.0942486" lon="12.8058992"><ele>612.0</ele><time>2026-05-02T12:08:29.009Z</time></trkpt><trkpt lat="42.0943135" lon="12.8058316"><ele>615.5</ele><time>2026-05-02T12:08:30.001Z</time></trkpt><trkpt lat="42.0943744" lon="12.8057821"><ele>619.0</ele><time>2026-05-02T12:08:31.004Z</time></trkpt><trkpt lat="42.0944378" lon="12.8057646"><ele>622.5</ele><time>2026-05-02T12:08:32.02Z</time></trkpt><trkpt lat="42.0945064" lon="12.8057661"><ele>626.0</ele><time>2026-05-02T12:08:33.015Z</time></trkpt><trkpt lat="42.0945642" lon="12.80585"><ele>626.0</ele><time>2026-05-02T12:08:35.005Z</time></trkpt><trkpt lat="42.0946268" lon="12.8059912"><ele>626.0</ele><time>2026-05-02T12:08:37.009Z</time></trkpt><trkpt lat="42.0946749" lon="12.8060568"><ele>626.0</ele><time>2026-05-02T12:08:38Z</time></trkpt><trkpt lat="42.0947415" lon="12.8061158"><ele>626.0</ele><time>2026-05-02T12:08:39.004Z</time></trkpt><trkpt lat="42.094811" lon="12.8061586"><ele>626.0</ele><time>2026-05-02T12:08:40.159Z</time></trkpt><trkpt lat="42.0948759" lon="12.8061976"><ele>626.0</ele><time>2026-05-02T12:08:41.048Z</time></trkpt><trkpt lat="42.0949446" lon="12.8062472"><ele>626.1666666666666</ele><time>2026-05-02T12:08:42.022Z</time></trkpt><trkpt lat="42.0950199" lon="12.8062819"><ele>626.3333333333333</ele><time>2026-05-02T12:08:43.037Z</time></trkpt><trkpt lat="42.0950922" lon="12.8063252"><ele>626.5</ele><time>2026-05-02T12:08:44.037Z</time></trkpt><trkpt lat="42.095154" lon="12.8063804"><ele>626.6666666666666</ele><time>2026-05-02T12:08:45.041Z</time></trkpt><trkpt lat="42.0952159" lon="12.8064562"><ele>626.8333333333334</ele><time>2026-05-02T12:08:46.008Z</time></trkpt><trkpt lat="42.0952925" lon="12.8065289"><ele>627.0</ele><time>2026-05-02T12:08:47.021Z</time></trkpt><trkpt lat="42.0953744" lon="12.8065803"><ele>627.0</ele><time>2026-05-02T12:08:48.021Z</time></trkpt><trkpt lat="42.0954511" lon="12.8066293"><ele>627.0</ele><time>2026-05-02T12:08:49.012Z</time></trkpt><trkpt lat="42.0955175" lon="12.8066954"><ele>627.0</ele><time>2026-05-02T12:08:50.026Z</time></trkpt><trkpt lat="42.0955846" lon="12.8067684"><ele>627.0</ele><time>2026-05-02T12:08:51.024Z</time></trkpt><trkpt lat="42.0956506" lon="12.8068331"><ele>627.0</ele><time>2026-05-02T12:08:52.013Z</time></trkpt><trkpt lat="42.0957151" lon="12.8068851"><ele>627.0</ele><time>2026-05-02T12:08:53.024Z</time></trkpt><trkpt lat="42.0957773" lon="12.8069327"><ele>629.3333333333334</ele><time>2026-05-02T12:08:54.015Z</time></trkpt><trkpt lat="42.0958484" lon="12.8069873"><ele>631.6666666666666</ele><time>2026-05-02T12:08:55.016Z</time></trkpt><trkpt lat="42.0959213" lon="12.8070404"><ele>634.0</ele><time>2026-05-02T12:08:56.022Z</time></trkpt><trkpt lat="42.0959873" lon="12.807084"><ele>636.3333333333333</ele><time>2026-05-02T12:08:57.025Z</time></trkpt><trkpt lat="42.0960605" lon="12.8071303"><ele>638.6666666666666</ele><time>2026-05-02T12:08:58.02Z</time></trkpt><trkpt lat="42.0961355" lon="12.8071849"><ele>641.0</ele><time>2026-05-02T12:08:59.044Z</time></trkpt><trkpt lat="42.0961925" lon="12.8072447"><ele>641.0</ele><time>2026-05-02T12:09:00.025Z</time></trkpt><trkpt lat="42.0962446" lon="12.8073122"><ele>641.0</ele><time>2026-05-02T12:09:01.023Z</time></trkpt><trkpt lat="42.0962884" lon="12.807385"><ele>641.0</ele><time>2026-05-02T12:09:02.017Z</time></trkpt><trkpt lat="42.0963423" lon="12.8075428"><ele>641.0</ele><time>2026-05-02T12:09:04.018Z</time></trkpt><trkpt lat="42.0963394" lon="12.8077135"><ele>641.0</ele><time>2026-05-02T12:09:06.005Z</time></trkpt><trkpt lat="42.0963114" lon="12.8078006"><ele>642.5</ele><time>2026-05-02T12:09:07.017Z</time></trkpt><trkpt lat="42.096265" lon="12.8078708"><ele>644.0</ele><time>2026-05-02T12:09:08.014Z</time></trkpt><trkpt lat="42.0962109" lon="12.8079408"><ele>645.5</ele><time>2026-05-02T12:09:09.011Z</time></trkpt><trkpt lat="42.0961491" lon="12.8080236"><ele>647.0</ele><time>2026-05-02T12:09:10.018Z</time></trkpt><trkpt lat="42.0961" lon="12.8081067"><ele>648.5</ele><time>2026-05-02T12:09:11.006Z</time></trkpt><trkpt lat="42.0960673" lon="12.8081855"><ele>650.0</ele><time>2026-05-02T12:09:12.015Z</time></trkpt><trkpt lat="42.0960348" lon="12.8082777"><ele>650.0</ele><time>2026-05-02T12:09:13.016Z</time></trkpt><trkpt lat="42.0959976" lon="12.808384"><ele>650.0</ele><time>2026-05-02T12:09:14.01Z</time></trkpt><trkpt lat="42.095962" lon="12.8085019"><ele>650.0</ele><time>2026-05-02T12:09:15.012Z</time></trkpt><trkpt lat="42.0959319" lon="12.8086383"><ele>650.0</ele><time>2026-05-02T12:09:16.02Z</time></trkpt><trkpt lat="42.0959067" lon="12.8087671"><ele>650.0</ele><time>2026-05-02T12:09:17.053Z</time></trkpt><trkpt lat="42.0958895" lon="12.8088824"><ele>651.8</ele><time>2026-05-02T12:09:18.181Z</time></trkpt><trkpt lat="42.095832" lon="12.8090602"><ele>653.6</ele><time>2026-05-02T12:09:20.004Z</time></trkpt><trkpt lat="42.0957245" lon="12.8091386"><ele>655.4000000000001</ele><time>2026-05-02T12:09:22.022Z</time></trkpt><trkpt lat="42.0956585" lon="12.809157"><ele>657.2</ele><time>2026-05-02T12:09:23.03Z</time></trkpt><trkpt lat="42.0955948" lon="12.8091726"><ele>659.0</ele><time>2026-05-02T12:09:24.007Z</time></trkpt><trkpt lat="42.0955257" lon="12.8091812"><ele>659.0</ele><time>2026-05-02T12:09:25.004Z</time></trkpt><trkpt lat="42.0954099" lon="12.8091486"><ele>659.0</ele><time>2026-05-02T12:09:27.009Z</time></trkpt><trkpt lat="42.0953515" lon="12.8091052"><ele>659.0</ele><time>2026-05-02T12:09:27.999Z</time></trkpt><trkpt lat="42.0952462" lon="12.8089965"><ele>659.0</ele><time>2026-05-02T12:09:29.995Z</time></trkpt><trkpt lat="42.0951751" lon="12.8089453"><ele>659.0</ele><time>2026-05-02T12:09:31.003Z</time></trkpt><trkpt lat="42.0951077" lon="12.8089378"><ele>659.0</ele><time>2026-05-02T12:09:32.035Z</time></trkpt><trkpt lat="42.0950104" lon="12.8090049"><ele>659.0</ele><time>2026-05-02T12:09:34.022Z</time></trkpt><trkpt lat="42.0949969" lon="12.8091709"><ele>659.0</ele><time>2026-05-02T12:09:36.015Z</time></trkpt><trkpt lat="42.0950156" lon="12.8092684"><ele>659.0</ele><time>2026-05-02T12:09:37.011Z</time></trkpt><trkpt lat="42.0950358" lon="12.8093541"><ele>659.0</ele><time>2026-05-02T12:09:38.021Z</time></trkpt><trkpt lat="42.0950454" lon="12.80945"><ele>659.0</ele><time>2026-05-02T12:09:39.001Z</time></trkpt><trkpt lat="42.0950446" lon="12.8095557"><ele>660.0</ele><time>2026-05-02T12:09:40.008Z</time></trkpt><trkpt lat="42.0950322" lon="12.8096692"><ele>661.0</ele><time>2026-05-02T12:09:41.008Z</time></trkpt><trkpt lat="42.0950125" lon="12.809791"><ele>662.0</ele><time>2026-05-02T12:09:41.999Z</time></trkpt><trkpt lat="42.0949872" lon="12.809906"><ele>663.0</ele><time>2026-05-02T12:09:43.001Z</time></trkpt><trkpt lat="42.0949637" lon="12.8099976"><ele>664.0</ele><time>2026-05-02T12:09:43.999Z</time></trkpt><trkpt lat="42.0949432" lon="12.8100901"><ele>665.0</ele><time>2026-05-02T12:09:45.003Z</time></trkpt><trkpt lat="42.0949155" lon="12.8102561"><ele>665.0</ele><time>2026-05-02T12:09:47.003Z</time></trkpt><trkpt lat="42.094898" lon="12.8103402"><ele>665.0</ele><time>2026-05-02T12:09:48.006Z</time></trkpt><trkpt lat="42.0948783" lon="12.8104267"><ele>665.0</ele><time>2026-05-02T12:09:49.008Z</time></trkpt><trkpt lat="42.0948619" lon="12.8105155"><ele>665.0</ele><time>2026-05-02T12:09:50.012Z</time></trkpt><trkpt lat="42.0948492" lon="12.8106079"><ele>665.0</ele><time>2026-05-02T12:09:51.005Z</time></trkpt><trkpt lat="42.0948349" lon="12.8107111"><ele>665.0</ele><time>2026-05-02T12:09:52.019Z</time></trkpt><trkpt lat="42.0948165" lon="12.810811"><ele>665.0</ele><time>2026-05-02T12:09:53.007Z</time></trkpt><trkpt lat="42.0947936" lon="12.8109067"><ele>667.3333333333333</ele><time>2026-05-02T12:09:53.999Z</time></trkpt><trkpt lat="42.0947745" lon="12.8110003"><ele>669.6666666666666</ele><time>2026-05-02T12:09:55.005Z</time></trkpt><trkpt lat="42.0947591" lon="12.8111072"><ele>672.0</ele><time>2026-05-02T12:09:56.004Z</time></trkpt><trkpt lat="42.0947411" lon="12.811221"><ele>674.3333333333334</ele><time>2026-05-02T12:09:57.029Z</time></trkpt><trkpt lat="42.0947161" lon="12.8113324"><ele>676.6666666666667</ele><time>2026-05-02T12:09:58.027Z</time></trkpt><trkpt lat="42.0946879" lon="12.8114389"><ele>679.0</ele><time>2026-05-02T12:09:59.029Z</time></trkpt><trkpt lat="42.0946676" lon="12.8115494"><ele>679.0</ele><time>2026-05-02T12:10:00.029Z</time></trkpt><trkpt lat="42.0946515" lon="12.8116635"><ele>679.0</ele><time>2026-05-02T12:10:01.027Z</time></trkpt><trkpt lat="42.0946353" lon="12.8117782"><ele>679.0</ele><time>2026-05-02T12:10:02.029Z</time></trkpt><trkpt lat="42.0946139" lon="12.8118953"><ele>679.0</ele><time>2026-05-02T12:10:03.025Z</time></trkpt><trkpt lat="42.0945932" lon="12.812008"><ele>679.0</ele><time>2026-05-02T12:10:04.001Z</time></trkpt><trkpt lat="42.0945767" lon="12.812116"><ele>679.0</ele><time>2026-05-02T12:10:05.025Z</time></trkpt><trkpt lat="42.0945513" lon="12.8122246"><ele>681.0</ele><time>2026-05-02T12:10:06.016Z</time></trkpt><trkpt lat="42.0945242" lon="12.8123381"><ele>683.0</ele><time>2026-05-02T12:10:07.005Z</time></trkpt><trkpt lat="42.0944942" lon="12.8124612"><ele>685.0</ele><time>2026-05-02T12:10:08.019Z</time></trkpt><trkpt lat="42.0944618" lon="12.812589"><ele>687.0</ele><time>2026-05-02T12:10:08.996Z</time></trkpt><trkpt lat="42.0944313" lon="12.8127196"><ele>689.0</ele><time>2026-05-02T12:10:10.026Z</time></trkpt><trkpt lat="42.0943962" lon="12.8128404"><ele>690.5</ele><time>2026-05-02T12:10:10.998Z</time></trkpt><trkpt lat="42.0943664" lon="12.8129509"><ele>692.0</ele><time>2026-05-02T12:10:12.003Z</time></trkpt><trkpt lat="42.09433" lon="12.8130491"><ele>693.5</ele><time>2026-05-02T12:10:13.009Z</time></trkpt><trkpt lat="42.0942869" lon="12.8131552"><ele>695.0</ele><time>2026-05-02T12:10:13.998Z</time></trkpt><trkpt lat="42.0942434" lon="12.8132612"><ele>696.5</ele><time>2026-05-02T12:10:14.993Z</time></trkpt><trkpt lat="42.0942079" lon="12.8133393"><ele>698.0</ele><time>2026-05-02T12:10:16.01Z</time></trkpt><trkpt lat="42.0941492" lon="12.8134708"><ele>697.0</ele><time>2026-05-02T12:10:18.012Z</time></trkpt><trkpt lat="42.0941318" lon="12.8136264"><ele>696.0</ele><time>2026-05-02T12:10:20.013Z</time></trkpt><trkpt lat="42.0941832" lon="12.8137649"><ele>695.0</ele><time>2026-05-02T12:10:22.015Z</time></trkpt><trkpt lat="42.094227" lon="12.813836"><ele>694.0</ele><time>2026-05-02T12:10:23.012Z</time></trkpt><trkpt lat="42.0942822" lon="12.8139225"><ele>693.0</ele><time>2026-05-02T12:10:24.007Z</time></trkpt><trkpt lat="42.0943416" lon="12.8139986"><ele>693.0</ele><time>2026-05-02T12:10:25.015Z</time></trkpt><trkpt lat="42.0944178" lon="12.8140657"><ele>693.0</ele><time>2026-05-02T12:10:26.007Z</time></trkpt><trkpt lat="42.0944971" lon="12.8141396"><ele>693.0</ele><time>2026-05-02T12:10:27.012Z</time></trkpt><trkpt lat="42.0945658" lon="12.8141976"><ele>693.0</ele><time>2026-05-02T12:10:28.018Z</time></trkpt><trkpt lat="42.0946291" lon="12.8142625"><ele>693.0</ele><time>2026-05-02T12:10:29.029Z</time></trkpt><trkpt lat="42.0947016" lon="12.8143351"><ele>693.0</ele><time>2026-05-02T12:10:30.021Z</time></trkpt><trkpt lat="42.0947868" lon="12.8144046"><ele>693.4</ele><time>2026-05-02T12:10:31.015Z</time></trkpt><trkpt lat="42.0948689" lon="12.8144608"><ele>693.8</ele><time>2026-05-02T12:10:32.012Z</time></trkpt><trkpt lat="42.0949551" lon="12.8145228"><ele>694.2</ele><time>2026-05-02T12:10:33.009Z</time></trkpt><trkpt lat="42.0950312" lon="12.8145807"><ele>694.6</ele><time>2026-05-02T12:10:34.015Z</time></trkpt><trkpt lat="42.0950922" lon="12.8146249"><ele>695.0</ele><time>2026-05-02T12:10:35.011Z</time></trkpt><trkpt lat="42.0951884" lon="12.8146991"><ele>695.0</ele><time>2026-05-02T12:10:37.006Z</time></trkpt><trkpt lat="42.0952471" lon="12.8147463"><ele>695.0</ele><time>2026-05-02T12:10:38.004Z</time></trkpt><trkpt lat="42.095364" lon="12.8148216"><ele>695.0</ele><time>2026-05-02T12:10:40.014Z</time></trkpt><trkpt lat="42.0954338" lon="12.8148595"><ele>695.0</ele><time>2026-05-02T12:10:41.012Z</time></trkpt><trkpt lat="42.0955133" lon="12.814899"><ele>695.0</ele><time>2026-05-02T12:10:42.003Z</time></trkpt><trkpt lat="42.0956087" lon="12.8149393"><ele>695.0</ele><time>2026-05-02T12:10:43.015Z</time></trkpt><trkpt lat="42.0957045" lon="12.8149881"><ele>695.0</ele><time>2026-05-02T12:10:44.008Z</time></trkpt><trkpt lat="42.0957922" lon="12.8150356"><ele>695.0</ele><time>2026-05-02T12:10:45.009Z</time></trkpt><trkpt lat="42.0958729" lon="12.815088"><ele>695.0</ele><time>2026-05-02T12:10:46.01Z</time></trkpt><trkpt lat="42.0959422" lon="12.8151455"><ele>695.0</ele><time>2026-05-02T12:10:47.01Z</time></trkpt><trkpt lat="42.0960253" lon="12.8151979"><ele>696.0</ele><time>2026-05-02T12:10:49.009Z</time></trkpt><trkpt lat="42.0960943" lon="12.8152162"><ele>697.0</ele><time>2026-05-02T12:11:25.011Z</time></trkpt><trkpt lat="42.0961454" lon="12.8152694"><ele>698.0</ele><time>2026-05-02T12:11:55.005Z</time></trkpt><trkpt lat="42.0962228" lon="12.8153124"><ele>699.0</ele><time>2026-05-02T12:11:57Z</time></trkpt><trkpt lat="42.096318" lon="12.8153818"><ele>700.0</ele><time>2026-05-02T12:11:59.031Z</time></trkpt><trkpt lat="42.0963812" lon="12.8154386"><ele>701.0</ele><time>2026-05-02T12:12:00.003Z</time></trkpt><trkpt lat="42.0964437" lon="12.8154915"><ele>701.0</ele><time>2026-05-02T12:12:00.999Z</time></trkpt><trkpt lat="42.0964929" lon="12.8155496"><ele>701.0</ele><time>2026-05-02T12:12:02.031Z</time></trkpt><trkpt lat="42.0965449" lon="12.8156271"><ele>701.0</ele><time>2026-05-02T12:12:03.025Z</time></trkpt><trkpt lat="42.0965939" lon="12.8157223"><ele>701.0</ele><time>2026-05-02T12:12:04.026Z</time></trkpt><trkpt lat="42.0966246" lon="12.8158095"><ele>701.0</ele><time>2026-05-02T12:12:05.024Z</time></trkpt><trkpt lat="42.0966631" lon="12.8158979"><ele>701.0</ele><time>2026-05-02T12:12:06.024Z</time></trkpt><trkpt lat="42.0967114" lon="12.8160029"><ele>703.8</ele><time>2026-05-02T12:12:07.024Z</time></trkpt><trkpt lat="42.0967634" lon="12.8161175"><ele>706.5999999999999</ele><time>2026-05-02T12:12:08.018Z</time></trkpt><trkpt lat="42.0968062" lon="12.8162295"><ele>709.4</ele><time>2026-05-02T12:12:09.007Z</time></trkpt><trkpt lat="42.0968499" lon="12.8163382"><ele>712.2</ele><time>2026-05-02T12:12:10.01Z</time></trkpt><trkpt lat="42.0969074" lon="12.8164379"><ele>715.0</ele><time>2026-05-02T12:12:11.004Z</time></trkpt><trkpt lat="42.0969677" lon="12.8165616"><ele>715.0</ele><time>2026-05-02T12:12:12.008Z</time></trkpt><trkpt lat="42.0970333" lon="12.8166995"><ele>715.0</ele><time>2026-05-02T12:12:13.004Z</time></trkpt><trkpt lat="42.0970934" lon="12.8168295"><ele>715.0</ele><time>2026-05-02T12:12:13.995Z</time></trkpt><trkpt lat="42.09715" lon="12.816941"><ele>715.0</ele><time>2026-05-02T12:12:15.004Z</time></trkpt><trkpt lat="42.0972039" lon="12.8170509"><ele>715.0</ele><time>2026-05-02T12:12:16.014Z</time></trkpt><trkpt lat="42.0972583" lon="12.817166"><ele>714.5</ele><time>2026-05-02T12:12:17Z</time></trkpt><trkpt lat="42.0973134" lon="12.8172802"><ele>714.0</ele><time>2026-05-02T12:12:18.002Z</time></trkpt><trkpt lat="42.0973455" lon="12.8173783"><ele>713.5</ele><time>2026-05-02T12:12:18.995Z</time></trkpt><trkpt lat="42.0973798" lon="12.8174741"><ele>713.0</ele><time>2026-05-02T12:12:19.999Z</time></trkpt><trkpt lat="42.0974011" lon="12.8175727"><ele>712.5</ele><time>2026-05-02T12:12:20.997Z</time></trkpt><trkpt lat="42.097413" lon="12.817693"><ele>712.0</ele><time>2026-05-02T12:12:21.996Z</time></trkpt><trkpt lat="42.0974179" lon="12.8178308"><ele>715.4000000000001</ele><time>2026-05-02T12:12:22.989Z</time></trkpt><trkpt lat="42.0974044" lon="12.8179607"><ele>718.8000000000001</ele><time>2026-05-02T12:12:24Z</time></trkpt><trkpt lat="42.0973812" lon="12.8180766"><ele>722.2</ele><time>2026-05-02T12:12:25.001Z</time></trkpt><trkpt lat="42.09734" lon="12.8181859"><ele>725.6</ele><time>2026-05-02T12:12:26.011Z</time></trkpt><trkpt lat="42.0972775" lon="12.8182952"><ele>729.0</ele><time>2026-05-02T12:12:26.999Z</time></trkpt><trkpt lat="42.0972142" lon="12.8184035"><ele>733.2</ele><time>2026-05-02T12:12:28.007Z</time></trkpt><trkpt lat="42.0971384" lon="12.8184997"><ele>737.4000000000001</ele><time>2026-05-02T12:12:28.996Z</time></trkpt><trkpt lat="42.0970663" lon="12.8185828"><ele>741.6</ele><time>2026-05-02T12:12:30.004Z</time></trkpt><trkpt lat="42.0970007" lon="12.8186654"><ele>745.8</ele><time>2026-05-02T12:12:30.999Z</time></trkpt><trkpt lat="42.0969312" lon="12.8187515"><ele>750.0</ele><time>2026-05-02T12:12:31.998Z</time></trkpt><trkpt lat="42.0968655" lon="12.8188327"><ele>750.0</ele><time>2026-05-02T12:12:32.998Z</time></trkpt><trkpt lat="42.0968062" lon="12.8189143"><ele>750.0</ele><time>2026-05-02T12:12:34.08Z</time></trkpt><trkpt lat="42.0967377" lon="12.8189944"><ele>750.0</ele><time>2026-05-02T12:12:35.02Z</time></trkpt><trkpt lat="42.0966671" lon="12.8190642"><ele>750.0</ele><time>2026-05-02T12:12:36.019Z</time></trkpt><trkpt lat="42.0966021" lon="12.8191255"><ele>750.0</ele><time>2026-05-02T12:12:36.998Z</time></trkpt><trkpt lat="42.0965426" lon="12.819191"><ele>750.0</ele><time>2026-05-02T12:12:37.999Z</time></trkpt><trkpt lat="42.0965039" lon="12.8192705"><ele>747.1428571428572</ele><time>2026-05-02T12:12:39.02Z</time></trkpt><trkpt lat="42.0964566" lon="12.8193604"><ele>744.2857142857142</ele><time>2026-05-02T12:12:40.005Z</time></trkpt><trkpt lat="42.0963985" lon="12.8194232"><ele>741.4285714285714</ele><time>2026-05-02T12:12:41.002Z</time></trkpt><trkpt lat="42.0963436" lon="12.8194815"><ele>738.5714285714287</ele><time>2026-05-02T12:12:42.006Z</time></trkpt><trkpt lat="42.0963052" lon="12.819555"><ele>735.7142857142858</ele><time>2026-05-02T12:12:43.015Z</time></trkpt><trkpt lat="42.0962912" lon="12.8196389"><ele>732.8571428571429</ele><time>2026-05-02T12:12:44.018Z</time></trkpt><trkpt lat="42.0963051" lon="12.8197333"><ele>730.0</ele><time>2026-05-02T12:12:45.017Z</time></trkpt><trkpt lat="42.0963486" lon="12.8198429"><ele>730.0</ele><time>2026-05-02T12:12:46.015Z</time></trkpt><trkpt lat="42.0964188" lon="12.8199506"><ele>730.0</ele><time>2026-05-02T12:12:47.013Z</time></trkpt><trkpt lat="42.0965092" lon="12.8200518"><ele>730.0</ele><time>2026-05-02T12:12:48.015Z</time></trkpt><trkpt lat="42.0966095" lon="12.8201448"><ele>730.0</ele><time>2026-05-02T12:12:49.009Z</time></trkpt><trkpt lat="42.0967088" lon="12.8202402"><ele>732.25</ele><time>2026-05-02T12:12:50.021Z</time></trkpt><trkpt lat="42.0967885" lon="12.8203509"><ele>734.5</ele><time>2026-05-02T12:12:51.004Z</time></trkpt><trkpt lat="42.0968654" lon="12.8204716"><ele>736.75</ele><time>2026-05-02T12:12:52.256Z</time></trkpt><trkpt lat="42.0969375" lon="12.820586"><ele>739.0</ele><time>2026-05-02T12:12:53.185Z</time></trkpt><trkpt lat="42.0971116" lon="12.8207625"><ele>739.0</ele><time>2026-05-02T12:12:55.057Z</time></trkpt><trkpt lat="42.0972141" lon="12.8208341"><ele>739.0</ele><time>2026-05-02T12:12:56.012Z</time></trkpt><trkpt lat="42.0973308" lon="12.8209129"><ele>739.0</ele><time>2026-05-02T12:12:57.03Z</time></trkpt><trkpt lat="42.0974297" lon="12.8209857"><ele>739.0</ele><time>2026-05-02T12:12:58.037Z</time></trkpt><trkpt lat="42.0975181" lon="12.8210592"><ele>740.8000000000001</ele><time>2026-05-02T12:12:59.035Z</time></trkpt><trkpt lat="42.0975986" lon="12.8211444"><ele>742.6</ele><time>2026-05-02T12:13:00.006Z</time></trkpt><trkpt lat="42.0976698" lon="12.8212555"><ele>744.4</ele><time>2026-05-02T12:13:01.004Z</time></trkpt><trkpt lat="42.0977304" lon="12.8213572"><ele>746.2</ele><time>2026-05-02T12:13:02Z</time></trkpt><trkpt lat="42.0977997" lon="12.8214448"><ele>748.0</ele><time>2026-05-02T12:13:03.011Z</time></trkpt><trkpt lat="42.0978777" lon="12.8215354"><ele>748.0</ele><time>2026-05-02T12:13:04.012Z</time></trkpt><trkpt lat="42.0979602" lon="12.8216355"><ele>748.0</ele><time>2026-05-02T12:13:05.012Z</time></trkpt><trkpt lat="42.0980423" lon="12.8217439"><ele>748.0</ele><time>2026-05-02T12:13:06.009Z</time></trkpt><trkpt lat="42.0981177" lon="12.8218501"><ele>748.0</ele><time>2026-05-02T12:13:07.011Z</time></trkpt><trkpt lat="42.0981853" lon="12.8219627"><ele>748.0</ele><time>2026-05-02T12:13:08.003Z</time></trkpt><trkpt lat="42.0982459" lon="12.8220678"><ele>753.5999999999999</ele><time>2026-05-02T12:13:09.012Z</time></trkpt><trkpt lat="42.0982897" lon="12.8221707"><ele>759.1999999999999</ele><time>2026-05-02T12:13:10.087Z</time></trkpt><trkpt lat="42.0983307" lon="12.8222899"><ele>764.8</ele><time>2026-05-02T12:13:11.045Z</time></trkpt><trkpt lat="42.0983515" lon="12.8224246"><ele>770.4</ele><time>2026-05-02T12:13:12.034Z</time></trkpt><trkpt lat="42.0983704" lon="12.8225411"><ele>776.0</ele><time>2026-05-02T12:13:13.032Z</time></trkpt><trkpt lat="42.0983949" lon="12.8226589"><ele>775.3333333333334</ele><time>2026-05-02T12:13:14.029Z</time></trkpt><trkpt lat="42.0984078" lon="12.8227774"><ele>774.6666666666667</ele><time>2026-05-02T12:13:15.038Z</time></trkpt><trkpt lat="42.0984054" lon="12.8228936"><ele>774.0</ele><time>2026-05-02T12:13:16.031Z</time></trkpt><trkpt lat="42.0983864" lon="12.8230001"><ele>773.3333333333333</ele><time>2026-05-02T12:13:17.028Z</time></trkpt><trkpt lat="42.0983494" lon="12.8230947"><ele>772.6666666666666</ele><time>2026-05-02T12:13:17.996Z</time></trkpt><trkpt lat="42.0983061" lon="12.8231782"><ele>772.0</ele><time>2026-05-02T12:13:19.028Z</time></trkpt><trkpt lat="42.0982449" lon="12.8232473"><ele>772.0</ele><time>2026-05-02T12:13:20.002Z</time></trkpt><trkpt lat="42.0981703" lon="12.8233054"><ele>772.0</ele><time>2026-05-02T12:13:20.997Z</time></trkpt><trkpt lat="42.0980996" lon="12.8233544"><ele>772.0</ele><time>2026-05-02T12:13:21.999Z</time></trkpt><trkpt lat="42.0980121" lon="12.8234311"><ele>772.0</ele><time>2026-05-02T12:13:24.005Z</time></trkpt><trkpt lat="42.0979516" lon="12.8235636"><ele>772.0</ele><time>2026-05-02T12:13:26.018Z</time></trkpt><trkpt lat="42.0979325" lon="12.8236516"><ele>774.4000000000001</ele><time>2026-05-02T12:13:27.01Z</time></trkpt><trkpt lat="42.0979239" lon="12.8237858"><ele>776.8000000000001</ele><time>2026-05-02T12:13:29.033Z</time></trkpt><trkpt lat="42.097907" lon="12.8238739"><ele>779.2</ele><time>2026-05-02T12:13:30.04Z</time></trkpt><trkpt lat="42.0978952" lon="12.8239645"><ele>781.6</ele><time>2026-05-02T12:13:31.03Z</time></trkpt><trkpt lat="42.0979138" lon="12.8241533"><ele>784.0</ele><time>2026-05-02T12:13:33.033Z</time></trkpt><trkpt lat="42.0979159" lon="12.824271"><ele>785.2857142857143</ele><time>2026-05-02T12:13:34.012Z</time></trkpt><trkpt lat="42.0979061" lon="12.8243803"><ele>786.5714285714286</ele><time>2026-05-02T12:13:35.015Z</time></trkpt><trkpt lat="42.0978942" lon="12.824469"><ele>787.8571428571429</ele><time>2026-05-02T12:13:36.015Z</time></trkpt><trkpt lat="42.0979019" lon="12.8245748"><ele>789.1428571428571</ele><time>2026-05-02T12:13:38.023Z</time></trkpt><trkpt lat="42.0979135" lon="12.8246589"><ele>790.4285714285714</ele><time>2026-05-02T12:14:23.019Z</time></trkpt><trkpt lat="42.097968" lon="12.8247103"><ele>791.7142857142858</ele><time>2026-05-02T12:14:48.003Z</time></trkpt><trkpt lat="42.0979444" lon="12.8246204"><ele>793.0</ele><time>2026-05-02T12:15:04.012Z</time></trkpt><trkpt lat="42.0980145" lon="12.824633"><ele>793.0000000000001</ele><time>2026-05-02T12:15:24.012Z</time></trkpt><trkpt lat="42.0979599" lon="12.8245814"><ele>793.0</ele><time>2026-05-02T12:15:32.013Z</time></trkpt><trkpt lat="42.0979254" lon="12.8244916"><ele>793.0</ele><time>2026-05-02T12:15:38.012Z</time></trkpt><trkpt lat="42.0978893" lon="12.824415"><ele>793.0</ele><time>2026-05-02T12:15:43.005Z</time></trkpt><trkpt lat="42.0978386" lon="12.824486"><ele>793.0</ele><time>2026-05-02T12:16:15.983Z</time></trkpt><trkpt lat="42.0978611" lon="12.824362"><ele>793.0000000000001</ele><time>2026-05-02T12:16:24.981Z</time></trkpt><trkpt lat="42.0979031" lon="12.8244293"><ele>793.0</ele><time>2026-05-02T12:16:43.009Z</time></trkpt><trkpt lat="42.0979029" lon="12.8245211"><ele>792.9999999999999</ele><time>2026-05-02T12:17:35.018Z</time></trkpt><trkpt lat="42.0979339" lon="12.8246085"><ele>793.0</ele><time>2026-05-02T12:17:37.015Z</time></trkpt><trkpt lat="42.0979979" lon="12.8247062"><ele>793.0</ele><time>2026-05-02T12:17:39.02Z</time></trkpt><trkpt lat="42.0980866" lon="12.824797"><ele>793.0</ele><time>2026-05-02T12:17:41.012Z</time></trkpt><trkpt lat="42.0981414" lon="12.8248423"><ele>792.9999999999999</ele><time>2026-05-02T12:17:42.011Z</time></trkpt><trkpt lat="42.0981987" lon="12.8249024"><ele>793.0</ele><time>2026-05-02T12:17:43.02Z</time></trkpt><trkpt lat="42.0982531" lon="12.8249753"><ele>792.4999999999999</ele><time>2026-05-02T12:17:44.01Z</time></trkpt><trkpt lat="42.0982996" lon="12.8250478"><ele>792.0</ele><time>2026-05-02T12:17:45.007Z</time></trkpt><trkpt lat="42.0983431" lon="12.8251102"><ele>791.5</ele><time>2026-05-02T12:17:46.008Z</time></trkpt><trkpt lat="42.098395" lon="12.8251776"><ele>791.0</ele><time>2026-05-02T12:17:47.011Z</time></trkpt><trkpt lat="42.0984565" lon="12.8252591"><ele>790.4999999999999</ele><time>2026-05-02T12:17:48.011Z</time></trkpt><trkpt lat="42.0985284" lon="12.8253474"><ele>790.0</ele><time>2026-05-02T12:17:49.012Z</time></trkpt><trkpt lat="42.0985996" lon="12.8254374"><ele>788.2</ele><time>2026-05-02T12:17:50.007Z</time></trkpt><trkpt lat="42.0986731" lon="12.8255318"><ele>786.4</ele><time>2026-05-02T12:17:51.011Z</time></trkpt><trkpt lat="42.0987503" lon="12.8256187"><ele>784.5999999999999</ele><time>2026-05-02T12:17:52.008Z</time></trkpt><trkpt lat="42.0988294" lon="12.8257064"><ele>782.8</ele><time>2026-05-02T12:17:53.007Z</time></trkpt><trkpt lat="42.0989054" lon="12.8257926"><ele>781.0</ele><time>2026-05-02T12:17:54.011Z</time></trkpt><trkpt lat="42.0989814" lon="12.8258704"><ele>781.0</ele><time>2026-05-02T12:17:55.015Z</time></trkpt><trkpt lat="42.0990576" lon="12.8259469"><ele>781.0</ele><time>2026-05-02T12:17:56.008Z</time></trkpt><trkpt lat="42.0991414" lon="12.826024"><ele>781.0</ele><time>2026-05-02T12:17:57.006Z</time></trkpt><trkpt lat="42.099236" lon="12.8261148"><ele>781.0</ele><time>2026-05-02T12:17:58.091Z</time></trkpt><trkpt lat="42.0993358" lon="12.8262012"><ele>781.0</ele><time>2026-05-02T12:17:59.038Z</time></trkpt><trkpt lat="42.0994456" lon="12.8262994"><ele>779.5</ele><time>2026-05-02T12:18:00.038Z</time></trkpt><trkpt lat="42.099557" lon="12.8264112"><ele>778.0</ele><time>2026-05-02T12:18:01.016Z</time></trkpt><trkpt lat="42.099655" lon="12.8265256"><ele>776.5</ele><time>2026-05-02T12:18:02.012Z</time></trkpt><trkpt lat="42.0997495" lon="12.8266371"><ele>775.0</ele><time>2026-05-02T12:18:03.011Z</time></trkpt><trkpt lat="42.0998359" lon="12.8267426"><ele>774.8</ele><time>2026-05-02T12:18:04.009Z</time></trkpt><trkpt lat="42.099917" lon="12.8268439"><ele>774.6</ele><time>2026-05-02T12:18:04.999Z</time></trkpt><trkpt lat="42.0999987" lon="12.8269394"><ele>774.4000000000001</ele><time>2026-05-02T12:18:06.007Z</time></trkpt><trkpt lat="42.1000675" lon="12.8270198"><ele>774.2</ele><time>2026-05-02T12:18:07.003Z</time></trkpt><trkpt lat="42.1001288" lon="12.8270684"><ele>774.0</ele><time>2026-05-02T12:18:07.992Z</time></trkpt><trkpt lat="42.1002528" lon="12.8271129"><ele>774.0</ele><time>2026-05-02T12:18:10.011Z</time></trkpt><trkpt lat="42.1003262" lon="12.8271102"><ele>774.0</ele><time>2026-05-02T12:18:11.008Z</time></trkpt><trkpt lat="42.1004022" lon="12.8271019"><ele>774.0</ele><time>2026-05-02T12:18:12.013Z</time></trkpt><trkpt lat="42.1004793" lon="12.8270833"><ele>774.0</ele><time>2026-05-02T12:18:13.013Z</time></trkpt><trkpt lat="42.1005661" lon="12.8270604"><ele>774.0</ele><time>2026-05-02T12:18:13.996Z</time></trkpt><trkpt lat="42.1006559" lon="12.8270285"><ele>774.0</ele><time>2026-05-02T12:18:15.01Z</time></trkpt><trkpt lat="42.1007424" lon="12.8269936"><ele>773.75</ele><time>2026-05-02T12:18:16.008Z</time></trkpt><trkpt lat="42.100823" lon="12.8269548"><ele>773.5</ele><time>2026-05-02T12:18:17.022Z</time></trkpt><trkpt lat="42.1009058" lon="12.826905"><ele>773.25</ele><time>2026-05-02T12:18:18.159Z</time></trkpt><trkpt lat="42.1010987" lon="12.8267966"><ele>773.0</ele><time>2026-05-02T12:18:19.996Z</time></trkpt><trkpt lat="42.1012232" lon="12.8267414"><ele>772.0</ele><time>2026-05-02T12:18:21.005Z</time></trkpt><trkpt lat="42.1013503" lon="12.8266928"><ele>771.0</ele><time>2026-05-02T12:18:21.993Z</time></trkpt><trkpt lat="42.1014669" lon="12.8266503"><ele>770.0</ele><time>2026-05-02T12:18:23.026Z</time></trkpt><trkpt lat="42.1015515" lon="12.8266294"><ele>769.0</ele><time>2026-05-02T12:18:24.021Z</time></trkpt><trkpt lat="42.101658" lon="12.8266025"><ele>768.0</ele><time>2026-05-02T12:18:26.022Z</time></trkpt><trkpt lat="42.1017384" lon="12.8265548"><ele>768.0</ele><time>2026-05-02T12:18:28.018Z</time></trkpt><trkpt lat="42.1018411" lon="12.8265046"><ele>768.0</ele><time>2026-05-02T12:18:30.002Z</time></trkpt><trkpt lat="42.1019095" lon="12.8264875"><ele>768.0</ele><time>2026-05-02T12:18:31.001Z</time></trkpt><trkpt lat="42.101991" lon="12.8264774"><ele>768.0</ele><time>2026-05-02T12:18:32.041Z</time></trkpt><trkpt lat="42.10208" lon="12.8264828"><ele>768.0</ele><time>2026-05-02T12:18:33.023Z</time></trkpt><trkpt lat="42.1021791" lon="12.8265023"><ele>768.0</ele><time>2026-05-02T12:18:34.174Z</time></trkpt><trkpt lat="42.1023651" lon="12.8265223"><ele>768.0</ele><time>2026-05-02T12:18:36.028Z</time></trkpt><trkpt lat="42.1024702" lon="12.8265155"><ele>768.0</ele><time>2026-05-02T12:18:37.01Z</time></trkpt><trkpt lat="42.1025818" lon="12.826509"><ele>768.0</ele><time>2026-05-02T12:18:38.003Z</time></trkpt><trkpt lat="42.1026901" lon="12.8264999"><ele>767.5999999999999</ele><time>2026-05-02T12:18:39.009Z</time></trkpt><trkpt lat="42.1027952" lon="12.8264991"><ele>767.1999999999999</ele><time>2026-05-02T12:18:40.003Z</time></trkpt><trkpt lat="42.1029005" lon="12.8265141"><ele>766.8</ele><time>2026-05-02T12:18:41.022Z</time></trkpt><trkpt lat="42.1029988" lon="12.8265454"><ele>766.4</ele><time>2026-05-02T12:18:41.998Z</time></trkpt><trkpt lat="42.1030957" lon="12.8265858"><ele>766.0</ele><time>2026-05-02T12:18:43.003Z</time></trkpt><trkpt lat="42.1031995" lon="12.8266384"><ele>766.1666666666667</ele><time>2026-05-02T12:18:44.017Z</time></trkpt><trkpt lat="42.1032995" lon="12.8266869"><ele>766.3333333333334</ele><time>2026-05-02T12:18:45.029Z</time></trkpt><trkpt lat="42.1033962" lon="12.8267279"><ele>766.5</ele><time>2026-05-02T12:18:45.999Z</time></trkpt><trkpt lat="42.1034837" lon="12.8267514"><ele>766.6666666666666</ele><time>2026-05-02T12:18:47.003Z</time></trkpt><trkpt lat="42.1035588" lon="12.8267511"><ele>766.8333333333333</ele><time>2026-05-02T12:18:48.004Z</time></trkpt><trkpt lat="42.1036317" lon="12.8267403"><ele>767.0</ele><time>2026-05-02T12:18:49.002Z</time></trkpt><trkpt lat="42.1037041" lon="12.8267145"><ele>767.0</ele><time>2026-05-02T12:18:50.018Z</time></trkpt><trkpt lat="42.1037795" lon="12.8266764"><ele>767.0</ele><time>2026-05-02T12:18:51.007Z</time></trkpt><trkpt lat="42.1038629" lon="12.8266295"><ele>767.0</ele><time>2026-05-02T12:18:52.004Z</time></trkpt><trkpt lat="42.103952" lon="12.8265662"><ele>767.0</ele><time>2026-05-02T12:18:53.026Z</time></trkpt><trkpt lat="42.1040421" lon="12.8264902"><ele>767.0</ele><time>2026-05-02T12:18:54.048Z</time></trkpt><trkpt lat="42.1041362" lon="12.8264175"><ele>765.25</ele><time>2026-05-02T12:18:55.031Z</time></trkpt><trkpt lat="42.104246" lon="12.8263665"><ele>763.5</ele><time>2026-05-02T12:18:56.004Z</time></trkpt><trkpt lat="42.1043649" lon="12.8263403"><ele>761.75</ele><time>2026-05-02T12:18:57.006Z</time></trkpt><trkpt lat="42.1044963" lon="12.8263399"><ele>760.0</ele><time>2026-05-02T12:18:58.005Z</time></trkpt><trkpt lat="42.1046412" lon="12.8263612"><ele>760.0</ele><time>2026-05-02T12:18:59.016Z</time></trkpt><trkpt lat="42.1047979" lon="12.8264174"><ele>760.0</ele><time>2026-05-02T12:19:00.012Z</time></trkpt><trkpt lat="42.104946" lon="12.8264859"><ele>760.0</ele><time>2026-05-02T12:19:01.015Z</time></trkpt><trkpt lat="42.1050793" lon="12.8265388"><ele>760.75</ele><time>2026-05-02T12:19:02.016Z</time></trkpt><trkpt lat="42.1051933" lon="12.8265748"><ele>761.5</ele><time>2026-05-02T12:19:03.011Z</time></trkpt><trkpt lat="42.1052965" lon="12.8266119"><ele>762.25</ele><time>2026-05-02T12:19:04.004Z</time></trkpt><trkpt lat="42.1054151" lon="12.8266854"><ele>763.0</ele><time>2026-05-02T12:19:05.006Z</time></trkpt><trkpt lat="42.1055382" lon="12.8267857"><ele>763.2</ele><time>2026-05-02T12:19:06.003Z</time></trkpt><trkpt lat="42.105642" lon="12.8268959"><ele>763.4</ele><time>2026-05-02T12:19:07.011Z</time></trkpt><trkpt lat="42.1057302" lon="12.8269903"><ele>763.6</ele><time>2026-05-02T12:19:08.004Z</time></trkpt><trkpt lat="42.1057988" lon="12.8270619"><ele>763.8000000000001</ele><time>2026-05-02T12:19:09.01Z</time></trkpt><trkpt lat="42.1058666" lon="12.8271334"><ele>764.0</ele><time>2026-05-02T12:19:11.013Z</time></trkpt><trkpt lat="42.1059142" lon="12.8271944"><ele>765.0</ele><time>2026-05-02T12:19:32.005Z</time></trkpt><trkpt lat="42.1059773" lon="12.827239"><ele>766.0</ele><time>2026-05-02T12:19:58.984Z</time></trkpt><trkpt lat="42.1060618" lon="12.8273044"><ele>767.0</ele><time>2026-05-02T12:20:00.987Z</time></trkpt><trkpt lat="42.1061425" lon="12.8273717"><ele>768.0</ele><time>2026-05-02T12:20:01.983Z</time></trkpt><trkpt lat="42.1062468" lon="12.8274603"><ele>769.0</ele><time>2026-05-02T12:20:03.001Z</time></trkpt><trkpt lat="42.1063576" lon="12.8275494"><ele>769.0</ele><time>2026-05-02T12:20:03.996Z</time></trkpt><trkpt lat="42.1064732" lon="12.8276263"><ele>769.0</ele><time>2026-05-02T12:20:04.995Z</time></trkpt><trkpt lat="42.1065952" lon="12.8276923"><ele>769.0</ele><time>2026-05-02T12:20:05.997Z</time></trkpt><trkpt lat="42.1067157" lon="12.8277537"><ele>769.0</ele><time>2026-05-02T12:20:07Z</time></trkpt><trkpt lat="42.1068215" lon="12.827803"><ele>769.6666666666666</ele><time>2026-05-02T12:20:07.993Z</time></trkpt><trkpt lat="42.106923" lon="12.8278399"><ele>770.3333333333333</ele><time>2026-05-02T12:20:09.022Z</time></trkpt><trkpt lat="42.1070225" lon="12.8278525"><ele>771.0</ele><time>2026-05-02T12:20:09.999Z</time></trkpt><trkpt lat="42.1071136" lon="12.8278407"><ele>771.6666666666667</ele><time>2026-05-02T12:20:10.997Z</time></trkpt><trkpt lat="42.107191" lon="12.8278146"><ele>772.3333333333334</ele><time>2026-05-02T12:20:11.996Z</time></trkpt><trkpt lat="42.1072572" lon="12.8277918"><ele>773.0</ele><time>2026-05-02T12:20:13.003Z</time></trkpt><trkpt lat="42.1073212" lon="12.8278006"><ele>773.0</ele><time>2026-05-02T12:20:13.99Z</time></trkpt><trkpt lat="42.1073827" lon="12.8278465"><ele>773.0</ele><time>2026-05-02T12:20:15.001Z</time></trkpt><trkpt lat="42.107424" lon="12.8279348"><ele>773.0</ele><time>2026-05-02T12:20:15.996Z</time></trkpt><trkpt lat="42.1074492" lon="12.8280313"><ele>773.0</ele><time>2026-05-02T12:20:16.998Z</time></trkpt><trkpt lat="42.1074652" lon="12.8281255"><ele>773.0</ele><time>2026-05-02T12:20:17.984Z</time></trkpt><trkpt lat="42.1074676" lon="12.8282241"><ele>773.0</ele><time>2026-05-02T12:20:18.993Z</time></trkpt><trkpt lat="42.1074596" lon="12.8283277"><ele>773.0</ele><time>2026-05-02T12:20:19.994Z</time></trkpt><trkpt lat="42.1074479" lon="12.8284347"><ele>774.1666666666667</ele><time>2026-05-02T12:20:20.996Z</time></trkpt><trkpt lat="42.1074308" lon="12.828543"><ele>775.3333333333334</ele><time>2026-05-02T12:20:21.996Z</time></trkpt><trkpt lat="42.1074076" lon="12.8286481"><ele>776.5</ele><time>2026-05-02T12:20:22.989Z</time></trkpt><trkpt lat="42.1073848" lon="12.8287611"><ele>777.6666666666667</ele><time>2026-05-02T12:20:23.992Z</time></trkpt><trkpt lat="42.107355" lon="12.8288705"><ele>778.8333333333334</ele><time>2026-05-02T12:20:24.987Z</time></trkpt><trkpt lat="42.1073198" lon="12.8289774"><ele>780.0</ele><time>2026-05-02T12:20:25.992Z</time></trkpt><trkpt lat="42.1072939" lon="12.8290733"><ele>780.0</ele><time>2026-05-02T12:20:26.987Z</time></trkpt><trkpt lat="42.1072858" lon="12.8291593"><ele>780.0</ele><time>2026-05-02T12:20:27.986Z</time></trkpt><trkpt lat="42.1072839" lon="12.8292769"><ele>780.0</ele><time>2026-05-02T12:20:29.997Z</time></trkpt><trkpt lat="42.107294" lon="12.8293902"><ele>780.0</ele><time>2026-05-02T12:20:32.987Z</time></trkpt><trkpt lat="42.1073016" lon="12.8294776"><ele>780.0</ele><time>2026-05-02T12:20:35.989Z</time></trkpt><trkpt lat="42.1073019" lon="12.8296238"><ele>780.0</ele><time>2026-05-02T12:20:38.981Z</time></trkpt><trkpt lat="42.107303" lon="12.8297145"><ele>781.3333333333334</ele><time>2026-05-02T12:20:39.994Z</time></trkpt><trkpt lat="42.1073002" lon="12.8298066"><ele>782.6666666666667</ele><time>2026-05-02T12:20:41.002Z</time></trkpt><trkpt lat="42.1073079" lon="12.8298913"><ele>784.0</ele><time>2026-05-02T12:20:41.99Z</time></trkpt><trkpt lat="42.1073258" lon="12.8299728"><ele>785.3333333333334</ele><time>2026-05-02T12:20:42.992Z</time></trkpt><trkpt lat="42.1073542" lon="12.8300716"><ele>786.6666666666667</ele><time>2026-05-02T12:20:43.999Z</time></trkpt><trkpt lat="42.107396" lon="12.8301935"><ele>788.0</ele><time>2026-05-02T12:20:44.995Z</time></trkpt><trkpt lat="42.1074429" lon="12.8303203"><ele>788.6666666666667</ele><time>2026-05-02T12:20:46.003Z</time></trkpt><trkpt lat="42.1074875" lon="12.8304328"><ele>789.3333333333334</ele><time>2026-05-02T12:20:47.007Z</time></trkpt><trkpt lat="42.1075292" lon="12.830513"><ele>790.0</ele><time>2026-05-02T12:20:47.996Z</time></trkpt><trkpt lat="42.1075607" lon="12.8305926"><ele>790.6666666666667</ele><time>2026-05-02T12:20:48.991Z</time></trkpt><trkpt lat="42.1075954" lon="12.8306805"><ele>791.3333333333334</ele><time>2026-05-02T12:20:49.992Z</time></trkpt><trkpt lat="42.1076354" lon="12.8307681"><ele>792.0</ele><time>2026-05-02T12:20:50.996Z</time></trkpt><trkpt lat="42.107677" lon="12.8308641"><ele>792.0</ele><time>2026-05-02T12:20:51.987Z</time></trkpt><trkpt lat="42.1077141" lon="12.8309655"><ele>792.0</ele><time>2026-05-02T12:20:52.996Z</time></trkpt><trkpt lat="42.1077577" lon="12.8310721"><ele>792.0</ele><time>2026-05-02T12:20:53.995Z</time></trkpt><trkpt lat="42.1077994" lon="12.8311768"><ele>792.0</ele><time>2026-05-02T12:20:54.994Z</time></trkpt><trkpt lat="42.1078403" lon="12.8312727"><ele>792.0</ele><time>2026-05-02T12:20:55.994Z</time></trkpt><trkpt lat="42.1078774" lon="12.8313642"><ele>792.0</ele><time>2026-05-02T12:20:56.996Z</time></trkpt><trkpt lat="42.1079077" lon="12.8314546"><ele>792.0</ele><time>2026-05-02T12:20:57.988Z</time></trkpt><trkpt lat="42.1079412" lon="12.8315504"><ele>792.0</ele><time>2026-05-02T12:20:59.016Z</time></trkpt><trkpt lat="42.1079804" lon="12.8316503"><ele>792.0</ele><time>2026-05-02T12:20:59.988Z</time></trkpt><trkpt lat="42.1080363" lon="12.8317593"><ele>792.0</ele><time>2026-05-02T12:21:00.997Z</time></trkpt><trkpt lat="42.108106" lon="12.8318645"><ele>792.0</ele><time>2026-05-02T12:21:01.997Z</time></trkpt><trkpt lat="42.1081959" lon="12.8319565"><ele>793.0</ele><time>2026-05-02T12:21:02.991Z</time></trkpt><trkpt lat="42.1082986" lon="12.8320412"><ele>794.0</ele><time>2026-05-02T12:21:03.987Z</time></trkpt><trkpt lat="42.1084042" lon="12.8321087"><ele>795.0</ele><time>2026-05-02T12:21:04.991Z</time></trkpt><trkpt lat="42.1084949" lon="12.8321418"><ele>796.0</ele><time>2026-05-02T12:21:05.978Z</time></trkpt><trkpt lat="42.1085732" lon="12.8321524"><ele>797.0</ele><time>2026-05-02T12:21:06.989Z</time></trkpt><trkpt lat="42.1086674" lon="12.8321466"><ele>797.0000000000001</ele><time>2026-05-02T12:21:07.981Z</time></trkpt><trkpt lat="42.1087643" lon="12.8321313"><ele>797.0</ele><time>2026-05-02T12:21:08.991Z</time></trkpt><trkpt lat="42.1088699" lon="12.8321164"><ele>797.0</ele><time>2026-05-02T12:21:09.982Z</time></trkpt><trkpt lat="42.1089599" lon="12.8320798"><ele>797.0</ele><time>2026-05-02T12:21:10.991Z</time></trkpt><trkpt lat="42.1090275" lon="12.8320178"><ele>797.0000000000001</ele><time>2026-05-02T12:21:11.989Z</time></trkpt><trkpt lat="42.1090799" lon="12.8319575"><ele>797.0</ele><time>2026-05-02T12:21:12.99Z</time></trkpt><trkpt lat="42.1091337" lon="12.8318755"><ele>798.4000000000001</ele><time>2026-05-02T12:21:14.987Z</time></trkpt><trkpt lat="42.1091912" lon="12.8317397"><ele>799.8000000000001</ele><time>2026-05-02T12:21:19.996Z</time></trkpt><trkpt lat="42.1092381" lon="12.8316415"><ele>801.2</ele><time>2026-05-02T12:21:21.987Z</time></trkpt><trkpt lat="42.1093187" lon="12.8317146"><ele>802.6</ele><time>2026-05-02T12:21:24.977Z</time></trkpt><trkpt lat="42.1093551" lon="12.8318067"><ele>804.0</ele><time>2026-05-02T12:21:25.997Z</time></trkpt><trkpt lat="42.1093949" lon="12.8319184"><ele>804.0</ele><time>2026-05-02T12:21:26.993Z</time></trkpt><trkpt lat="42.109445" lon="12.8320317"><ele>804.0</ele><time>2026-05-02T12:21:27.979Z</time></trkpt><trkpt lat="42.1095048" lon="12.8321317"><ele>804.0</ele><time>2026-05-02T12:21:28.991Z</time></trkpt><trkpt lat="42.1095747" lon="12.8322298"><ele>804.0</ele><time>2026-05-02T12:21:29.985Z</time></trkpt><trkpt lat="42.1096608" lon="12.8323362"><ele>804.0</ele><time>2026-05-02T12:21:30.983Z</time></trkpt><trkpt lat="42.1097453" lon="12.8324472"><ele>804.0</ele><time>2026-05-02T12:21:31.99Z</time></trkpt><trkpt lat="42.1098136" lon="12.8325588"><ele>804.0</ele><time>2026-05-02T12:21:32.981Z</time></trkpt><trkpt lat="42.1098796" lon="12.8326801"><ele>804.0</ele><time>2026-05-02T12:21:34.069Z</time></trkpt><trkpt lat="42.1099399" lon="12.8327986"><ele>804.0</ele><time>2026-05-02T12:21:34.994Z</time></trkpt><trkpt lat="42.1099994" lon="12.8329241"><ele>804.0</ele><time>2026-05-02T12:21:35.99Z</time></trkpt><trkpt lat="42.1100666" lon="12.8330304"><ele>806.8000000000001</ele><time>2026-05-02T12:21:36.997Z</time></trkpt><trkpt lat="42.1101522" lon="12.83311"><ele>809.6</ele><time>2026-05-02T12:21:37.998Z</time></trkpt><trkpt lat="42.1102426" lon="12.8331858"><ele>812.4</ele><time>2026-05-02T12:21:38.988Z</time></trkpt><trkpt lat="42.1103372" lon="12.8332799"><ele>815.2</ele><time>2026-05-02T12:21:39.993Z</time></trkpt><trkpt lat="42.1104247" lon="12.8333719"><ele>818.0</ele><time>2026-05-02T12:21:40.991Z</time></trkpt><trkpt lat="42.1104948" lon="12.8334674"><ele>818.8</ele><time>2026-05-02T12:21:41.999Z</time></trkpt><trkpt lat="42.110554" lon="12.8335739"><ele>819.5999999999999</ele><time>2026-05-02T12:21:43.005Z</time></trkpt><trkpt lat="42.1106183" lon="12.8336843"><ele>820.4000000000001</ele><time>2026-05-02T12:21:43.993Z</time></trkpt><trkpt lat="42.1106869" lon="12.8337978"><ele>821.2</ele><time>2026-05-02T12:21:44.993Z</time></trkpt><trkpt lat="42.1107506" lon="12.8339139"><ele>822.0</ele><time>2026-05-02T12:21:45.998Z</time></trkpt><trkpt lat="42.1108085" lon="12.8340323"><ele>824.0</ele><time>2026-05-02T12:21:46.986Z</time></trkpt><trkpt lat="42.1108767" lon="12.8341491"><ele>826.0</ele><time>2026-05-02T12:21:47.988Z</time></trkpt><trkpt lat="42.1109589" lon="12.8342675"><ele>828.0</ele><time>2026-05-02T12:21:48.994Z</time></trkpt><trkpt lat="42.1110569" lon="12.8343885"><ele>830.0</ele><time>2026-05-02T12:21:49.998Z</time></trkpt><trkpt lat="42.1111561" lon="12.8345123"><ele>830.25</ele><time>2026-05-02T12:21:50.99Z</time></trkpt><trkpt lat="42.1112461" lon="12.8346489"><ele>830.5</ele><time>2026-05-02T12:21:51.993Z</time></trkpt><trkpt lat="42.1113343" lon="12.8347888"><ele>830.75</ele><time>2026-05-02T12:21:52.985Z</time></trkpt><trkpt lat="42.1114213" lon="12.8349232"><ele>831.0</ele><time>2026-05-02T12:21:53.997Z</time></trkpt><trkpt lat="42.1115232" lon="12.8350433"><ele>838.0</ele><time>2026-05-02T12:21:54.984Z</time></trkpt><trkpt lat="42.1116369" lon="12.8351529"><ele>845.0</ele><time>2026-05-02T12:21:55.994Z</time></trkpt><trkpt lat="42.1117636" lon="12.8352559"><ele>852.0</ele><time>2026-05-02T12:21:56.998Z</time></trkpt><trkpt lat="42.1119116" lon="12.835368"><ele>852.0</ele><time>2026-05-02T12:21:57.995Z</time></trkpt><trkpt lat="42.1120572" lon="12.8354594"><ele>852.0</ele><time>2026-05-02T12:21:58.989Z</time></trkpt><trkpt lat="42.1121623" lon="12.835518"><ele>852.0</ele><time>2026-05-02T12:21:59.999Z</time></trkpt><trkpt lat="42.1122506" lon="12.8355745"><ele>852.0</ele><time>2026-05-02T12:22:00.995Z</time></trkpt><trkpt lat="42.1123218" lon="12.8356242"><ele>852.0</ele><time>2026-05-02T12:22:02.005Z</time></trkpt><trkpt lat="42.1123766" lon="12.8356893"><ele>852.0</ele><time>2026-05-02T12:22:03.995Z</time></trkpt><trkpt lat="42.112424" lon="12.835768"><ele>852.0</ele><time>2026-05-02T12:22:05.99Z</time></trkpt><trkpt lat="42.1125143" lon="12.835856"><ele>852.0</ele><time>2026-05-02T12:22:07.994Z</time></trkpt><trkpt lat="42.1125908" lon="12.83595"><ele>852.0</ele><time>2026-05-02T12:22:09.988Z</time></trkpt><trkpt lat="42.1126762" lon="12.8360776"><ele>852.6666666666666</ele><time>2026-05-02T12:22:11.986Z</time></trkpt><trkpt lat="42.1127193" lon="12.8361502"><ele>853.3333333333333</ele><time>2026-05-02T12:22:12.991Z</time></trkpt><trkpt lat="42.1127606" lon="12.8362243"><ele>854.0</ele><time>2026-05-02T12:22:13.988Z</time></trkpt><trkpt lat="42.1128105" lon="12.8362969"><ele>854.6666666666666</ele><time>2026-05-02T12:22:14.994Z</time></trkpt><trkpt lat="42.1128735" lon="12.8363757"><ele>855.3333333333333</ele><time>2026-05-02T12:22:16.008Z</time></trkpt><trkpt lat="42.1129423" lon="12.8364431"><ele>856.0</ele><time>2026-05-02T12:22:17.013Z</time></trkpt><trkpt lat="42.1130179" lon="12.8365056"><ele>855.9999999999999</ele><time>2026-05-02T12:22:17.985Z</time></trkpt><trkpt lat="42.1130942" lon="12.8365734"><ele>856.0</ele><time>2026-05-02T12:22:18.98Z</time></trkpt><trkpt lat="42.1131656" lon="12.8366453"><ele>856.0</ele><time>2026-05-02T12:22:19.997Z</time></trkpt><trkpt lat="42.1132349" lon="12.8367195"><ele>856.0</ele><time>2026-05-02T12:22:20.987Z</time></trkpt><trkpt lat="42.1132989" lon="12.8367936"><ele>855.9999999999999</ele><time>2026-05-02T12:22:21.99Z</time></trkpt><trkpt lat="42.1133551" lon="12.8368678"><ele>856.0</ele><time>2026-05-02T12:22:22.991Z</time></trkpt><trkpt lat="42.113406" lon="12.836943"><ele>854.3333333333333</ele><time>2026-05-02T12:22:23.987Z</time></trkpt><trkpt lat="42.1134491" lon="12.8370158"><ele>852.6666666666666</ele><time>2026-05-02T12:22:24.996Z</time></trkpt><trkpt lat="42.1135134" lon="12.8371604"><ele>851.0</ele><time>2026-05-02T12:22:26.996Z</time></trkpt><trkpt lat="42.1135597" lon="12.8372198"><ele>849.3333333333333</ele><time>2026-05-02T12:22:27.985Z</time></trkpt><trkpt lat="42.1136204" lon="12.8372526"><ele>847.6666666666666</ele><time>2026-05-02T12:22:29.015Z</time></trkpt><trkpt lat="42.1136831" lon="12.8372437"><ele>846.0</ele><time>2026-05-02T12:22:29.975Z</time></trkpt><trkpt lat="42.1137499" lon="12.8371981"><ele>846.0</ele><time>2026-05-02T12:22:30.985Z</time></trkpt><trkpt lat="42.1138169" lon="12.8371382"><ele>846.0</ele><time>2026-05-02T12:22:31.985Z</time></trkpt><trkpt lat="42.1138793" lon="12.8370807"><ele>846.0</ele><time>2026-05-02T12:22:32.98Z</time></trkpt><trkpt lat="42.1139381" lon="12.8370362"><ele>846.0</ele><time>2026-05-02T12:22:33.983Z</time></trkpt><trkpt lat="42.1140267" lon="12.8369759"><ele>846.0</ele><time>2026-05-02T12:22:35.989Z</time></trkpt><trkpt lat="42.1141149" lon="12.8369256"><ele>846.0</ele><time>2026-05-02T12:22:37.989Z</time></trkpt><trkpt lat="42.1142183" lon="12.8369164"><ele>847.1666666666666</ele><time>2026-05-02T12:22:39.993Z</time></trkpt><trkpt lat="42.1142922" lon="12.8369347"><ele>848.3333333333333</ele><time>2026-05-02T12:22:40.982Z</time></trkpt><trkpt lat="42.1143662" lon="12.8369619"><ele>849.5</ele><time>2026-05-02T12:22:41.99Z</time></trkpt><trkpt lat="42.1144375" lon="12.836994"><ele>850.6666666666666</ele><time>2026-05-02T12:22:42.999Z</time></trkpt><trkpt lat="42.1145008" lon="12.8370308"><ele>851.8333333333333</ele><time>2026-05-02T12:22:43.994Z</time></trkpt><trkpt lat="42.1145869" lon="12.8371106"><ele>853.0</ele><time>2026-05-02T12:22:45.998Z</time></trkpt><trkpt lat="42.1146338" lon="12.8371757"><ele>853.0</ele><time>2026-05-02T12:23:08.976Z</time></trkpt><trkpt lat="42.1147148" lon="12.8372632"><ele>853.0</ele><time>2026-05-02T12:23:11.988Z</time></trkpt><trkpt lat="42.1148178" lon="12.8373343"><ele>853.0</ele><time>2026-05-02T12:23:13.983Z</time></trkpt><trkpt lat="42.1148846" lon="12.8373245"><ele>853.0</ele><time>2026-05-02T12:23:14.988Z</time></trkpt><trkpt lat="42.1149591" lon="12.8372707"><ele>853.0</ele><time>2026-05-02T12:23:15.986Z</time></trkpt><trkpt lat="42.1150299" lon="12.837208"><ele>851.6666666666666</ele><time>2026-05-02T12:23:16.989Z</time></trkpt><trkpt lat="42.115095" lon="12.8371557"><ele>850.3333333333333</ele><time>2026-05-02T12:23:17.994Z</time></trkpt><trkpt lat="42.1151571" lon="12.8371199"><ele>849.0</ele><time>2026-05-02T12:23:18.987Z</time></trkpt><trkpt lat="42.1152206" lon="12.8371116"><ele>847.6666666666667</ele><time>2026-05-02T12:23:19.984Z</time></trkpt><trkpt lat="42.1152858" lon="12.8371229"><ele>846.3333333333334</ele><time>2026-05-02T12:23:20.976Z</time></trkpt><trkpt lat="42.115394" lon="12.837149"><ele>845.0</ele><time>2026-05-02T12:23:22.98Z</time></trkpt><trkpt lat="42.1154618" lon="12.8371987"><ele>845.0</ele><time>2026-05-02T12:23:24.983Z</time></trkpt><trkpt lat="42.1155258" lon="12.8373291"><ele>845.0</ele><time>2026-05-02T12:23:26.979Z</time></trkpt><trkpt lat="42.1155639" lon="12.837431"><ele>845.0</ele><time>2026-05-02T12:23:27.986Z</time></trkpt><trkpt lat="42.1156045" lon="12.8375423"><ele>845.0</ele><time>2026-05-02T12:23:28.981Z</time></trkpt><trkpt lat="42.1156428" lon="12.8376489"><ele>845.0</ele><time>2026-05-02T12:23:29.99Z</time></trkpt><trkpt lat="42.1156755" lon="12.8377467"><ele>846.3333333333334</ele><time>2026-05-02T12:23:30.982Z</time></trkpt><trkpt lat="42.1157186" lon="12.837828"><ele>847.6666666666667</ele><time>2026-05-02T12:23:31.982Z</time></trkpt><trkpt lat="42.1157696" lon="12.8379003"><ele>849.0</ele><time>2026-05-02T12:23:32.975Z</time></trkpt><trkpt lat="42.1158239" lon="12.8379618"><ele>850.3333333333333</ele><time>2026-05-02T12:23:33.974Z</time></trkpt><trkpt lat="42.1158893" lon="12.8380208"><ele>851.6666666666666</ele><time>2026-05-02T12:23:34.982Z</time></trkpt><trkpt lat="42.1159503" lon="12.8380786"><ele>853.0</ele><time>2026-05-02T12:23:35.978Z</time></trkpt><trkpt lat="42.1160159" lon="12.8381375"><ele>852.9999999999999</ele><time>2026-05-02T12:23:36.98Z</time></trkpt><trkpt lat="42.1160815" lon="12.8381941"><ele>853.0</ele><time>2026-05-02T12:23:37.972Z</time></trkpt><trkpt lat="42.1161487" lon="12.8382649"><ele>853.0</ele><time>2026-05-02T12:23:38.981Z</time></trkpt><trkpt lat="42.1162087" lon="12.8383463"><ele>853.0</ele><time>2026-05-02T12:23:39.977Z</time></trkpt><trkpt lat="42.1162603" lon="12.8384234"><ele>852.9999999999999</ele><time>2026-05-02T12:23:40.975Z</time></trkpt><trkpt lat="42.1162978" lon="12.8385102"><ele>853.0</ele><time>2026-05-02T12:23:41.977Z</time></trkpt><trkpt lat="42.1163476" lon="12.83867"><ele>854.1666666666666</ele><time>2026-05-02T12:23:43.985Z</time></trkpt><trkpt lat="42.1163544" lon="12.8388341"><ele>855.3333333333333</ele><time>2026-05-02T12:23:45.986Z</time></trkpt><trkpt lat="42.1163375" lon="12.8389298"><ele>856.5</ele><time>2026-05-02T12:23:46.978Z</time></trkpt><trkpt lat="42.1163199" lon="12.8390246"><ele>857.6666666666667</ele><time>2026-05-02T12:23:47.972Z</time></trkpt><trkpt lat="42.1162989" lon="12.8391275"><ele>858.8333333333334</ele><time>2026-05-02T12:23:48.973Z</time></trkpt><trkpt lat="42.1162868" lon="12.8392131"><ele>860.0</ele><time>2026-05-02T12:23:49.982Z</time></trkpt><trkpt lat="42.1163132" lon="12.8393544"><ele>860.2</ele><time>2026-05-02T12:23:51.979Z</time></trkpt><trkpt lat="42.1164047" lon="12.8394431"><ele>860.4</ele><time>2026-05-02T12:23:53.979Z</time></trkpt><trkpt lat="42.1164615" lon="12.8394814"><ele>860.5999999999999</ele><time>2026-05-02T12:23:54.97Z</time></trkpt><trkpt lat="42.1165858" lon="12.8395378"><ele>860.8</ele><time>2026-05-02T12:23:56.964Z</time></trkpt><trkpt lat="42.1166673" lon="12.8395618"><ele>861.0</ele><time>2026-05-02T12:23:57.975Z</time></trkpt><trkpt lat="42.1167478" lon="12.8395833"><ele>861.0</ele><time>2026-05-02T12:23:58.994Z</time></trkpt><trkpt lat="42.1168238" lon="12.8396027"><ele>860.9999999999999</ele><time>2026-05-02T12:23:59.982Z</time></trkpt><trkpt lat="42.1169141" lon="12.8396379"><ele>860.9999999999999</ele><time>2026-05-02T12:24:00.987Z</time></trkpt><trkpt lat="42.1170025" lon="12.8396546"><ele>861.0</ele><time>2026-05-02T12:24:01.981Z</time></trkpt><trkpt lat="42.1170892" lon="12.8396852"><ele>861.0</ele><time>2026-05-02T12:24:02.987Z</time></trkpt><trkpt lat="42.1172114" lon="12.8397237"><ele>861.0</ele><time>2026-05-02T12:24:03.982Z</time></trkpt><trkpt lat="42.1173422" lon="12.8397302"><ele>861.0</ele><time>2026-05-02T12:24:04.982Z</time></trkpt><trkpt lat="42.1174703" lon="12.8397308"><ele>861.0</ele><time>2026-05-02T12:24:05.984Z</time></trkpt><trkpt lat="42.1175963" lon="12.8397082"><ele>861.0</ele><time>2026-05-02T12:24:06.982Z</time></trkpt><trkpt lat="42.1177192" lon="12.8396874"><ele>864.25</ele><time>2026-05-02T12:24:07.983Z</time></trkpt><trkpt lat="42.1178521" lon="12.839644"><ele>867.5</ele><time>2026-05-02T12:24:08.979Z</time></trkpt><trkpt lat="42.1179914" lon="12.839606"><ele>870.75</ele><time>2026-05-02T12:24:09.982Z</time></trkpt><trkpt lat="42.1180957" lon="12.8395457"><ele>874.0</ele><time>2026-05-02T12:24:10.984Z</time></trkpt><trkpt lat="42.118205" lon="12.8395202"><ele>876.4000000000001</ele><time>2026-05-02T12:24:11.984Z</time></trkpt><trkpt lat="42.1183075" lon="12.8394992"><ele>878.8000000000001</ele><time>2026-05-02T12:24:12.984Z</time></trkpt><trkpt lat="42.1184135" lon="12.8395007"><ele>881.1999999999999</ele><time>2026-05-02T12:24:13.98Z</time></trkpt><trkpt lat="42.1184952" lon="12.8394914"><ele>883.5999999999999</ele><time>2026-05-02T12:24:14.981Z</time></trkpt><trkpt lat="42.1185752" lon="12.8395159"><ele>886.0</ele><time>2026-05-02T12:24:15.981Z</time></trkpt><trkpt lat="42.1186695" lon="12.8395565"><ele>886.0</ele><time>2026-05-02T12:24:16.979Z</time></trkpt><trkpt lat="42.1187637" lon="12.839594"><ele>886.0</ele><time>2026-05-02T12:24:17.985Z</time></trkpt><trkpt lat="42.1188787" lon="12.8396125"><ele>886.0</ele><time>2026-05-02T12:24:18.983Z</time></trkpt><trkpt lat="42.1189846" lon="12.8395964"><ele>886.0</ele><time>2026-05-02T12:24:19.982Z</time></trkpt><trkpt lat="42.1191167" lon="12.8396192"><ele>887.0</ele><time>2026-05-02T12:24:20.99Z</time></trkpt><trkpt lat="42.1192398" lon="12.8396598"><ele>888.0</ele><time>2026-05-02T12:24:21.989Z</time></trkpt><trkpt lat="42.1193505" lon="12.8397041"><ele>889.0</ele><time>2026-05-02T12:24:22.992Z</time></trkpt><trkpt lat="42.1194663" lon="12.8397647"><ele>890.0</ele><time>2026-05-02T12:24:23.998Z</time></trkpt><trkpt lat="42.1195892" lon="12.8398598"><ele>890.0</ele><time>2026-05-02T12:24:24.997Z</time></trkpt><trkpt lat="42.1196988" lon="12.8399502"><ele>890.0</ele><time>2026-05-02T12:24:25.99Z</time></trkpt><trkpt lat="42.1198114" lon="12.8400327"><ele>890.0</ele><time>2026-05-02T12:24:26.995Z</time></trkpt><trkpt lat="42.1199163" lon="12.8401157"><ele>890.0</ele><time>2026-05-02T12:24:27.989Z</time></trkpt><trkpt lat="42.1200083" lon="12.8401927"><ele>895.5</ele><time>2026-05-02T12:24:28.999Z</time></trkpt><trkpt lat="42.120088" lon="12.8402877"><ele>901.0</ele><time>2026-05-02T12:24:29.996Z</time></trkpt><trkpt lat="42.1201732" lon="12.8403945"><ele>906.5</ele><time>2026-05-02T12:24:30.985Z</time></trkpt><trkpt lat="42.1202741" lon="12.8404896"><ele>912.0</ele><time>2026-05-02T12:24:31.991Z</time></trkpt><trkpt lat="42.1203713" lon="12.8405884"><ele>912.0</ele><time>2026-05-02T12:24:32.983Z</time></trkpt><trkpt lat="42.1204768" lon="12.84069"><ele>912.0</ele><time>2026-05-02T12:24:33.993Z</time></trkpt><trkpt lat="42.1205683" lon="12.8407753"><ele>912.0</ele><time>2026-05-02T12:24:34.992Z</time></trkpt><trkpt lat="42.1206416" lon="12.8408567"><ele>912.0</ele><time>2026-05-02T12:24:35.981Z</time></trkpt><trkpt lat="42.1206993" lon="12.8409242"><ele>912.0</ele><time>2026-05-02T12:24:36.99Z</time></trkpt><trkpt lat="42.1207758" lon="12.8409803"><ele>909.4000000000001</ele><time>2026-05-02T12:24:38.986Z</time></trkpt><trkpt lat="42.1209018" lon="12.8409456"><ele>906.8000000000001</ele><time>2026-05-02T12:24:40.986Z</time></trkpt><trkpt lat="42.1209769" lon="12.8408839"><ele>904.2</ele><time>2026-05-02T12:24:41.993Z</time></trkpt><trkpt lat="42.121052" lon="12.8408081"><ele>901.6</ele><time>2026-05-02T12:24:42.987Z</time></trkpt><trkpt lat="42.1211319" lon="12.8406927"><ele>899.0</ele><time>2026-05-02T12:24:43.986Z</time></trkpt><trkpt lat="42.1212103" lon="12.8405779"><ele>899.0</ele><time>2026-05-02T12:24:44.993Z</time></trkpt><trkpt lat="42.1212825" lon="12.8404619"><ele>899.0000000000001</ele><time>2026-05-02T12:24:45.988Z</time></trkpt><trkpt lat="42.121339" lon="12.8403538"><ele>899.0000000000001</ele><time>2026-05-02T12:24:46.993Z</time></trkpt><trkpt lat="42.1213782" lon="12.8402401"><ele>899.0</ele><time>2026-05-02T12:24:48Z</time></trkpt><trkpt lat="42.1214057" lon="12.8401249"><ele>899.0</ele><time>2026-05-02T12:24:48.997Z</time></trkpt><trkpt lat="42.1214028" lon="12.840004"><ele>896.6666666666667</ele><time>2026-05-02T12:24:49.998Z</time></trkpt><trkpt lat="42.1213872" lon="12.8398834"><ele>894.3333333333334</ele><time>2026-05-02T12:24:50.997Z</time></trkpt><trkpt lat="42.1213569" lon="12.8397762"><ele>892.0</ele><time>2026-05-02T12:24:52.028Z</time></trkpt><trkpt lat="42.1213382" lon="12.8396932"><ele>889.6666666666667</ele><time>2026-05-02T12:24:53.006Z</time></trkpt><trkpt lat="42.1213219" lon="12.8396025"><ele>887.3333333333334</ele><time>2026-05-02T12:24:55.002Z</time></trkpt><trkpt lat="42.1213651" lon="12.8395254"><ele>885.0</ele><time>2026-05-02T12:24:57Z</time></trkpt><trkpt lat="42.1214492" lon="12.8394619"><ele>885.0</ele><time>2026-05-02T12:24:58.998Z</time></trkpt><trkpt lat="42.1215612" lon="12.8394556"><ele>885.0</ele><time>2026-05-02T12:25:00.994Z</time></trkpt><trkpt lat="42.121656" lon="12.8394828"><ele>885.0</ele><time>2026-05-02T12:25:02.992Z</time></trkpt><trkpt lat="42.1217358" lon="12.8395418"><ele>885.0</ele><time>2026-05-02T12:25:05.011Z</time></trkpt><trkpt lat="42.1217941" lon="12.8396352"><ele>885.0</ele><time>2026-05-02T12:25:06.989Z</time></trkpt><trkpt lat="42.1218247" lon="12.8397096"><ele>887.5</ele><time>2026-05-02T12:25:07.993Z</time></trkpt><trkpt lat="42.1218525" lon="12.8397858"><ele>890.0</ele><time>2026-05-02T12:25:08.991Z</time></trkpt><trkpt lat="42.1218718" lon="12.8398776"><ele>892.5</ele><time>2026-05-02T12:25:09.992Z</time></trkpt><trkpt lat="42.1218858" lon="12.8399609"><ele>895.0</ele><time>2026-05-02T12:25:10.99Z</time></trkpt><trkpt lat="42.1218917" lon="12.8400878"><ele>897.5</ele><time>2026-05-02T12:25:12.014Z</time></trkpt><trkpt lat="42.1218934" lon="12.8402002"><ele>900.0</ele><time>2026-05-02T12:25:13.149Z</time></trkpt><trkpt lat="42.1218816" lon="12.8404704"><ele>900.25</ele><time>2026-05-02T12:25:15.157Z</time></trkpt><trkpt lat="42.1218572" lon="12.8405997"><ele>900.5</ele><time>2026-05-02T12:25:16.162Z</time></trkpt><trkpt lat="42.1218238" lon="12.8408372"><ele>900.75</ele><time>2026-05-02T12:25:18.003Z</time></trkpt><trkpt lat="42.1218024" lon="12.840937"><ele>901.0</ele><time>2026-05-02T12:25:18.996Z</time></trkpt><trkpt lat="42.1217633" lon="12.8410659"><ele>900.9999999999999</ele><time>2026-05-02T12:25:20.998Z</time></trkpt><trkpt lat="42.1217445" lon="12.8411492"><ele>901.0</ele><time>2026-05-02T12:26:27.016Z</time></trkpt><trkpt lat="42.1217186" lon="12.8412323"><ele>901.0</ele><time>2026-05-02T12:26:30.008Z</time></trkpt><trkpt lat="42.121684" lon="12.8413161"><ele>901.0</ele><time>2026-05-02T12:26:33.016Z</time></trkpt><trkpt lat="42.1215973" lon="12.841378"><ele>900.9999999999999</ele><time>2026-05-02T12:26:35.003Z</time></trkpt><trkpt lat="42.1215073" lon="12.8415045"><ele>901.0</ele><time>2026-05-02T12:26:37.012Z</time></trkpt><trkpt lat="42.1214665" lon="12.8415964"><ele>904.0</ele><time>2026-05-02T12:26:38.003Z</time></trkpt><trkpt lat="42.1214331" lon="12.8416916"><ele>907.0000000000001</ele><time>2026-05-02T12:26:38.992Z</time></trkpt><trkpt lat="42.1214017" lon="12.8417678"><ele>910.0</ele><time>2026-05-02T12:26:40.013Z</time></trkpt><trkpt lat="42.1213537" lon="12.8418396"><ele>913.0</ele><time>2026-05-02T12:26:40.998Z</time></trkpt><trkpt lat="42.1213008" lon="12.8419026"><ele>916.0000000000001</ele><time>2026-05-02T12:26:41.99Z</time></trkpt><trkpt lat="42.1212452" lon="12.8419633"><ele>919.0</ele><time>2026-05-02T12:26:43.007Z</time></trkpt><trkpt lat="42.1211844" lon="12.8419956"><ele>922.0</ele><time>2026-05-02T12:26:43.988Z</time></trkpt><trkpt lat="42.1210585" lon="12.8420076"><ele>923.0</ele><time>2026-05-02T12:26:46Z</time></trkpt><trkpt lat="42.1209897" lon="12.8419901"><ele>924.0000000000001</ele><time>2026-05-02T12:26:46.997Z</time></trkpt><trkpt lat="42.1209237" lon="12.8419685"><ele>925.0</ele><time>2026-05-02T12:26:47.995Z</time></trkpt><trkpt lat="42.1208516" lon="12.8419314"><ele>926.0</ele><time>2026-05-02T12:26:48.998Z</time></trkpt><trkpt lat="42.1207809" lon="12.8419065"><ele>927.0000000000001</ele><time>2026-05-02T12:26:49.999Z</time></trkpt><trkpt lat="42.1207062" lon="12.8418837"><ele>928.0</ele><time>2026-05-02T12:26:51.003Z</time></trkpt><trkpt lat="42.1206242" lon="12.8418639"><ele>929.0</ele><time>2026-05-02T12:26:52.004Z</time></trkpt><trkpt lat="42.1205435" lon="12.841841"><ele>931.0000000000001</ele><time>2026-05-02T12:26:53.004Z</time></trkpt><trkpt lat="42.1204646" lon="12.841832"><ele>933.0</ele><time>2026-05-02T12:26:53.989Z</time></trkpt><trkpt lat="42.1203915" lon="12.8418133"><ele>935.0</ele><time>2026-05-02T12:26:54.998Z</time></trkpt><trkpt lat="42.120316" lon="12.8417975"><ele>937.0</ele><time>2026-05-02T12:26:55.999Z</time></trkpt><trkpt lat="42.1202337" lon="12.8417635"><ele>939.0000000000001</ele><time>2026-05-02T12:26:56.993Z</time></trkpt><trkpt lat="42.1201472" lon="12.8417413"><ele>941.0</ele><time>2026-05-02T12:26:57.99Z</time></trkpt><trkpt lat="42.1200686" lon="12.8417352"><ele>941.0000000000001</ele><time>2026-05-02T12:26:59.007Z</time></trkpt><trkpt lat="42.1200002" lon="12.8417226"><ele>941.0</ele><time>2026-05-02T12:26:59.988Z</time></trkpt><trkpt lat="42.1199298" lon="12.8417003"><ele>941.0</ele><time>2026-05-02T12:27:00.997Z</time></trkpt><trkpt lat="42.1198457" lon="12.8416891"><ele>941.0</ele><time>2026-05-02T12:27:01.986Z</time></trkpt><trkpt lat="42.119765" lon="12.8416651"><ele>941.0000000000001</ele><time>2026-05-02T12:27:02.99Z</time></trkpt><trkpt lat="42.119703" lon="12.8416354"><ele>941.0</ele><time>2026-05-02T12:27:03.994Z</time></trkpt><trkpt lat="42.1195887" lon="12.8415592"><ele>943.5999999999999</ele><time>2026-05-02T12:27:05.994Z</time></trkpt><trkpt lat="42.1194813" lon="12.8414776"><ele>946.1999999999999</ele><time>2026-05-02T12:27:07.979Z</time></trkpt><trkpt lat="42.1194079" lon="12.8414523"><ele>948.8000000000001</ele><time>2026-05-02T12:27:09.001Z</time></trkpt><trkpt lat="42.1193221" lon="12.8414501"><ele>951.4000000000001</ele><time>2026-05-02T12:27:09.978Z</time></trkpt><trkpt lat="42.1192174" lon="12.8414726"><ele>954.0</ele><time>2026-05-02T12:27:11.062Z</time></trkpt><trkpt lat="42.1191131" lon="12.8415204"><ele>953.0</ele><time>2026-05-02T12:27:11.989Z</time></trkpt><trkpt lat="42.1190147" lon="12.8415822"><ele>952.0000000000001</ele><time>2026-05-02T12:27:12.988Z</time></trkpt><trkpt lat="42.1189156" lon="12.8416543"><ele>951.0000000000001</ele><time>2026-05-02T12:27:13.985Z</time></trkpt><trkpt lat="42.1188279" lon="12.8417167"><ele>950.0</ele><time>2026-05-02T12:27:14.992Z</time></trkpt><trkpt lat="42.1187341" lon="12.8417743"><ele>949.0</ele><time>2026-05-02T12:27:15.993Z</time></trkpt><trkpt lat="42.1186547" lon="12.8418143"><ele>951.8000000000001</ele><time>2026-05-02T12:27:16.982Z</time></trkpt><trkpt lat="42.1185803" lon="12.8418573"><ele>954.6000000000001</ele><time>2026-05-02T12:27:17.99Z</time></trkpt><trkpt lat="42.1185005" lon="12.8419607"><ele>957.4</ele><time>2026-05-02T12:27:19.987Z</time></trkpt><trkpt lat="42.1184734" lon="12.8420706"><ele>960.2</ele><time>2026-05-02T12:27:21.987Z</time></trkpt><trkpt lat="42.1184935" lon="12.8422183"><ele>963.0</ele><time>2026-05-02T12:27:23.987Z</time></trkpt><trkpt lat="42.1185141" lon="12.8423219"><ele>963.0</ele><time>2026-05-02T12:27:24.985Z</time></trkpt><trkpt lat="42.1185431" lon="12.8424302"><ele>963.0</ele><time>2026-05-02T12:27:25.983Z</time></trkpt><trkpt lat="42.118573" lon="12.8425277"><ele>963.0</ele><time>2026-05-02T12:27:26.982Z</time></trkpt><trkpt lat="42.1186029" lon="12.8426441"><ele>963.0</ele><time>2026-05-02T12:27:27.989Z</time></trkpt><trkpt lat="42.1186137" lon="12.8427626"><ele>963.0</ele><time>2026-05-02T12:27:28.993Z</time></trkpt><trkpt lat="42.1186324" lon="12.8428983"><ele>963.0</ele><time>2026-05-02T12:27:29.987Z</time></trkpt><trkpt lat="42.1186478" lon="12.8430101"><ele>964.0</ele><time>2026-05-02T12:27:30.99Z</time></trkpt><trkpt lat="42.1186691" lon="12.8431117"><ele>965.0</ele><time>2026-05-02T12:27:31.992Z</time></trkpt><trkpt lat="42.1186941" lon="12.8432189"><ele>966.0</ele><time>2026-05-02T12:27:32.98Z</time></trkpt><trkpt lat="42.1187234" lon="12.8433436"><ele>967.0</ele><time>2026-05-02T12:27:34Z</time></trkpt><trkpt lat="42.1187425" lon="12.843451"><ele>968.0</ele><time>2026-05-02T12:27:34.997Z</time></trkpt><trkpt lat="42.1187625" lon="12.8435472"><ele>969.0</ele><time>2026-05-02T12:27:35.986Z</time></trkpt><trkpt lat="42.1187621" lon="12.8436733"><ele>969.0</ele><time>2026-05-02T12:27:37.996Z</time></trkpt><trkpt lat="42.1187286" lon="12.8437487"><ele>969.0</ele><time>2026-05-02T12:27:49.992Z</time></trkpt><trkpt lat="42.1187669" lon="12.8436598"><ele>969.0</ele><time>2026-05-02T12:28:14.995Z</time></trkpt><trkpt lat="42.1187846" lon="12.8435428"><ele>969.0</ele><time>2026-05-02T12:31:39.013Z</time></trkpt><trkpt lat="42.1187617" lon="12.8434505"><ele>969.0</ele><time>2026-05-02T12:31:46.997Z</time></trkpt><trkpt lat="42.1187263" lon="12.8433623"><ele>969.0</ele><time>2026-05-02T12:31:49.999Z</time></trkpt><trkpt lat="42.1187074" lon="12.8432396"><ele>969.0</ele><time>2026-05-02T12:31:52.998Z</time></trkpt><trkpt lat="42.1186943" lon="12.8431258"><ele>969.0000000000001</ele><time>2026-05-02T12:31:55Z</time></trkpt><trkpt lat="42.1186674" lon="12.8430029"><ele>969.0000000000001</ele><time>2026-05-02T12:31:56.995Z</time></trkpt><trkpt lat="42.118671" lon="12.8428604"><ele>969.0</ele><time>2026-05-02T12:31:58.994Z</time></trkpt><trkpt lat="42.1186597" lon="12.842758"><ele>969.0</ele><time>2026-05-02T12:32:00.993Z</time></trkpt><trkpt lat="42.1186701" lon="12.8426242"><ele>967.8000000000001</ele><time>2026-05-02T12:32:03.006Z</time></trkpt><trkpt lat="42.1186417" lon="12.8424689"><ele>966.6000000000001</ele><time>2026-05-02T12:32:04.99Z</time></trkpt><trkpt lat="42.1185922" lon="12.8423056"><ele>965.4</ele><time>2026-05-02T12:32:06.995Z</time></trkpt><trkpt lat="42.1185685" lon="12.8422129"><ele>964.2</ele><time>2026-05-02T12:32:07.996Z</time></trkpt><trkpt lat="42.1185452" lon="12.8421186"><ele>963.0</ele><time>2026-05-02T12:32:08.992Z</time></trkpt><trkpt lat="42.1185346" lon="12.842033"><ele>963.0</ele><time>2026-05-02T12:32:09.994Z</time></trkpt><trkpt lat="42.1185319" lon="12.8418835"><ele>963.0</ele><time>2026-05-02T12:32:11.998Z</time></trkpt><trkpt lat="42.1185705" lon="12.8417783"><ele>963.0</ele><time>2026-05-02T12:32:13.995Z</time></trkpt><trkpt lat="42.1186414" lon="12.8417217"><ele>963.0</ele><time>2026-05-02T12:32:15.992Z</time></trkpt><trkpt lat="42.1187116" lon="12.8416809"><ele>963.0</ele><time>2026-05-02T12:32:18Z</time></trkpt><trkpt lat="42.1187978" lon="12.8416555"><ele>963.0</ele><time>2026-05-02T12:32:20.004Z</time></trkpt><trkpt lat="42.1189014" lon="12.8415907"><ele>961.5</ele><time>2026-05-02T12:32:22.001Z</time></trkpt><trkpt lat="42.1189985" lon="12.8415051"><ele>960.0</ele><time>2026-05-02T12:32:23.999Z</time></trkpt><trkpt lat="42.119057" lon="12.8414616"><ele>958.5</ele><time>2026-05-02T12:32:24.989Z</time></trkpt><trkpt lat="42.1191236" lon="12.8414251"><ele>957.0</ele><time>2026-05-02T12:32:25.997Z</time></trkpt><trkpt lat="42.1191959" lon="12.8414027"><ele>955.5</ele><time>2026-05-02T12:32:26.995Z</time></trkpt><trkpt lat="42.1192714" lon="12.8413918"><ele>954.0</ele><time>2026-05-02T12:32:28Z</time></trkpt><trkpt lat="42.119349" lon="12.841403"><ele>954.0</ele><time>2026-05-02T12:32:28.993Z</time></trkpt><trkpt lat="42.1194339" lon="12.8414227"><ele>954.0000000000001</ele><time>2026-05-02T12:32:29.998Z</time></trkpt><trkpt lat="42.1195345" lon="12.8414536"><ele>954.0000000000001</ele><time>2026-05-02T12:32:30.999Z</time></trkpt><trkpt lat="42.1196376" lon="12.8415039"><ele>954.0</ele><time>2026-05-02T12:32:31.996Z</time></trkpt><trkpt lat="42.1197308" lon="12.8415616"><ele>954.0</ele><time>2026-05-02T12:32:32.995Z</time></trkpt><trkpt lat="42.1198238" lon="12.8415992"><ele>951.4000000000001</ele><time>2026-05-02T12:32:33.992Z</time></trkpt><trkpt lat="42.1199134" lon="12.8416205"><ele>948.8000000000001</ele><time>2026-05-02T12:32:35.003Z</time></trkpt><trkpt lat="42.1199988" lon="12.8416378"><ele>946.1999999999999</ele><time>2026-05-02T12:32:35.99Z</time></trkpt><trkpt lat="42.1200958" lon="12.841652"><ele>943.5999999999999</ele><time>2026-05-02T12:32:36.992Z</time></trkpt><trkpt lat="42.1202011" lon="12.8416599"><ele>941.0</ele><time>2026-05-02T12:32:37.996Z</time></trkpt><trkpt lat="42.1203021" lon="12.8416776"><ele>941.0000000000001</ele><time>2026-05-02T12:32:38.993Z</time></trkpt><trkpt lat="42.1203814" lon="12.8417022"><ele>941.0</ele><time>2026-05-02T12:32:39.991Z</time></trkpt><trkpt lat="42.1204582" lon="12.841722"><ele>941.0</ele><time>2026-05-02T12:32:41.004Z</time></trkpt><trkpt lat="42.1205257" lon="12.8417375"><ele>941.0</ele><time>2026-05-02T12:32:41.989Z</time></trkpt><trkpt lat="42.1206164" lon="12.8417362"><ele>941.0000000000001</ele><time>2026-05-02T12:32:43.002Z</time></trkpt><trkpt lat="42.1207041" lon="12.8417284"><ele>941.0</ele><time>2026-05-02T12:32:43.997Z</time></trkpt><trkpt lat="42.1207901" lon="12.8417386"><ele>937.8333333333334</ele><time>2026-05-02T12:32:44.997Z</time></trkpt><trkpt lat="42.1208661" lon="12.8417486"><ele>934.6666666666667</ele><time>2026-05-02T12:32:46.002Z</time></trkpt><trkpt lat="42.1209478" lon="12.8417587"><ele>931.5</ele><time>2026-05-02T12:32:46.995Z</time></trkpt><trkpt lat="42.1210282" lon="12.8417682"><ele>928.3333333333333</ele><time>2026-05-02T12:32:47.994Z</time></trkpt><trkpt lat="42.1211156" lon="12.8417735"><ele>925.1666666666666</ele><time>2026-05-02T12:32:48.995Z</time></trkpt><trkpt lat="42.1212014" lon="12.8417603"><ele>922.0</ele><time>2026-05-02T12:32:49.997Z</time></trkpt><trkpt lat="42.1212727" lon="12.8417378"><ele>921.9999999999999</ele><time>2026-05-02T12:32:50.991Z</time></trkpt><trkpt lat="42.1213488" lon="12.8417035"><ele>922.0</ele><time>2026-05-02T12:32:51.992Z</time></trkpt><trkpt lat="42.12142" lon="12.8416381"><ele>922.0</ele><time>2026-05-02T12:32:52.998Z</time></trkpt><trkpt lat="42.1214558" lon="12.8415161"><ele>922.0</ele><time>2026-05-02T12:32:53.987Z</time></trkpt><trkpt lat="42.121475" lon="12.8414019"><ele>921.9999999999999</ele><time>2026-05-02T12:32:55.015Z</time></trkpt><trkpt lat="42.1214877" lon="12.8412959"><ele>922.0</ele><time>2026-05-02T12:32:56.002Z</time></trkpt><trkpt lat="42.1214995" lon="12.8412096"><ele>918.4999999999999</ele><time>2026-05-02T12:32:56.993Z</time></trkpt><trkpt lat="42.1215718" lon="12.8410783"><ele>915.0</ele><time>2026-05-02T12:32:58.999Z</time></trkpt><trkpt lat="42.1216673" lon="12.8410403"><ele>911.5</ele><time>2026-05-02T12:33:01.008Z</time></trkpt><trkpt lat="42.1217311" lon="12.8410761"><ele>908.0</ele><time>2026-05-02T12:33:03.006Z</time></trkpt><trkpt lat="42.121796" lon="12.8411344"><ele>904.4999999999999</ele><time>2026-05-02T12:33:05.998Z</time></trkpt><trkpt lat="42.1217815" lon="12.8412184"><ele>901.0</ele><time>2026-05-02T12:33:08.008Z</time></trkpt><trkpt lat="42.1217498" lon="12.8412933"><ele>901.0</ele><time>2026-05-02T12:33:09.003Z</time></trkpt><trkpt lat="42.1217041" lon="12.8413835"><ele>900.9999999999999</ele><time>2026-05-02T12:33:10.002Z</time></trkpt><trkpt lat="42.1216443" lon="12.8414754"><ele>900.9999999999999</ele><time>2026-05-02T12:33:10.988Z</time></trkpt><trkpt lat="42.1215736" lon="12.841574"><ele>901.0</ele><time>2026-05-02T12:33:12.001Z</time></trkpt><trkpt lat="42.1214897" lon="12.8416854"><ele>901.0</ele><time>2026-05-02T12:33:12.996Z</time></trkpt><trkpt lat="42.1214196" lon="12.8417915"><ele>906.5999999999999</ele><time>2026-05-02T12:33:13.992Z</time></trkpt><trkpt lat="42.1213628" lon="12.841897"><ele>912.1999999999999</ele><time>2026-05-02T12:33:14.993Z</time></trkpt><trkpt lat="42.121302" lon="12.8420059"><ele>917.8000000000001</ele><time>2026-05-02T12:33:15.992Z</time></trkpt><trkpt lat="42.1212506" lon="12.8421228"><ele>923.4000000000001</ele><time>2026-05-02T12:33:16.995Z</time></trkpt><trkpt lat="42.1212135" lon="12.8422365"><ele>929.0</ele><time>2026-05-02T12:33:17.994Z</time></trkpt><trkpt lat="42.1211789" lon="12.8423511"><ele>929.0</ele><time>2026-05-02T12:33:19Z</time></trkpt><trkpt lat="42.1211361" lon="12.8424703"><ele>929.0000000000001</ele><time>2026-05-02T12:33:19.994Z</time></trkpt><trkpt lat="42.1210964" lon="12.8425822"><ele>929.0000000000001</ele><time>2026-05-02T12:33:20.99Z</time></trkpt><trkpt lat="42.1210728" lon="12.8426981"><ele>929.0</ele><time>2026-05-02T12:33:21.994Z</time></trkpt><trkpt lat="42.1210634" lon="12.8428145"><ele>929.0</ele><time>2026-05-02T12:33:22.99Z</time></trkpt><trkpt lat="42.1210659" lon="12.8429435"><ele>927.4000000000001</ele><time>2026-05-02T12:33:23.98Z</time></trkpt><trkpt lat="42.1210771" lon="12.8430702"><ele>925.8000000000001</ele><time>2026-05-02T12:33:24.99Z</time></trkpt><trkpt lat="42.1210739" lon="12.8431888"><ele>924.1999999999999</ele><time>2026-05-02T12:33:25.985Z</time></trkpt><trkpt lat="42.1210668" lon="12.8433008"><ele>922.5999999999999</ele><time>2026-05-02T12:33:26.991Z</time></trkpt><trkpt lat="42.1210603" lon="12.8434451"><ele>921.0</ele><time>2026-05-02T12:33:27.997Z</time></trkpt><trkpt lat="42.1210327" lon="12.8435714"><ele>917.4</ele><time>2026-05-02T12:33:28.992Z</time></trkpt><trkpt lat="42.1209896" lon="12.8436888"><ele>913.8</ele><time>2026-05-02T12:33:29.989Z</time></trkpt><trkpt lat="42.1209341" lon="12.8437934"><ele>910.1999999999999</ele><time>2026-05-02T12:33:31Z</time></trkpt><trkpt lat="42.1208845" lon="12.8438936"><ele>906.5999999999999</ele><time>2026-05-02T12:33:31.996Z</time></trkpt><trkpt lat="42.120836" lon="12.8440001"><ele>903.0</ele><time>2026-05-02T12:33:32.991Z</time></trkpt><trkpt lat="42.1207988" lon="12.8441015"><ele>903.0</ele><time>2026-05-02T12:33:33.99Z</time></trkpt><trkpt lat="42.1207519" lon="12.8442184"><ele>903.0</ele><time>2026-05-02T12:33:34.995Z</time></trkpt><trkpt lat="42.1207175" lon="12.8443399"><ele>903.0</ele><time>2026-05-02T12:33:35.982Z</time></trkpt><trkpt lat="42.1206848" lon="12.8444577"><ele>903.0</ele><time>2026-05-02T12:33:36.992Z</time></trkpt><trkpt lat="42.1206734" lon="12.8445787"><ele>903.0</ele><time>2026-05-02T12:33:37.994Z</time></trkpt><trkpt lat="42.1206758" lon="12.8446889"><ele>899.8</ele><time>2026-05-02T12:33:38.98Z</time></trkpt><trkpt lat="42.1206852" lon="12.8448015"><ele>896.5999999999999</ele><time>2026-05-02T12:33:39.99Z</time></trkpt><trkpt lat="42.120686" lon="12.8448914"><ele>893.4000000000001</ele><time>2026-05-02T12:33:40.988Z</time></trkpt><trkpt lat="42.1206592" lon="12.8450732"><ele>890.2</ele><time>2026-05-02T12:33:42.991Z</time></trkpt><trkpt lat="42.1205944" lon="12.8452279"><ele>887.0</ele><time>2026-05-02T12:33:45.004Z</time></trkpt><trkpt lat="42.1205366" lon="12.8452977"><ele>887.0000000000001</ele><time>2026-05-02T12:33:45.99Z</time></trkpt><trkpt lat="42.1204734" lon="12.8453638"><ele>887.0</ele><time>2026-05-02T12:33:46.993Z</time></trkpt><trkpt lat="42.1204162" lon="12.8454289"><ele>887.0</ele><time>2026-05-02T12:33:47.992Z</time></trkpt><trkpt lat="42.1203634" lon="12.8455073"><ele>887.0</ele><time>2026-05-02T12:33:48.99Z</time></trkpt><trkpt lat="42.1203018" lon="12.8455879"><ele>887.0000000000001</ele><time>2026-05-02T12:33:49.992Z</time></trkpt><trkpt lat="42.1202285" lon="12.8456656"><ele>887.0</ele><time>2026-05-02T12:33:50.99Z</time></trkpt><trkpt lat="42.1201625" lon="12.8457319"><ele>887.0000000000001</ele><time>2026-05-02T12:33:51.981Z</time></trkpt><trkpt lat="42.1200859" lon="12.8458056"><ele>887.0</ele><time>2026-05-02T12:33:52.997Z</time></trkpt><trkpt lat="42.1200106" lon="12.8458877"><ele>887.0</ele><time>2026-05-02T12:33:53.986Z</time></trkpt><trkpt lat="42.1199372" lon="12.845935"><ele>887.0</ele><time>2026-05-02T12:33:54.993Z</time></trkpt><trkpt lat="42.1198607" lon="12.8459908"><ele>887.0000000000001</ele><time>2026-05-02T12:33:55.992Z</time></trkpt><trkpt lat="42.1197928" lon="12.8460403"><ele>887.0</ele><time>2026-05-02T12:33:56.983Z</time></trkpt><trkpt lat="42.1197218" lon="12.8461062"><ele>884.4000000000001</ele><time>2026-05-02T12:33:57.986Z</time></trkpt><trkpt lat="42.1196428" lon="12.8461697"><ele>881.8000000000001</ele><time>2026-05-02T12:33:58.991Z</time></trkpt><trkpt lat="42.1195745" lon="12.8462648"><ele>879.2</ele><time>2026-05-02T12:33:59.983Z</time></trkpt><trkpt lat="42.1195052" lon="12.8463512"><ele>876.6</ele><time>2026-05-02T12:34:00.988Z</time></trkpt><trkpt lat="42.1194417" lon="12.8464216"><ele>874.0</ele><time>2026-05-02T12:34:01.983Z</time></trkpt><trkpt lat="42.1193649" lon="12.846498"><ele>873.9999999999999</ele><time>2026-05-02T12:34:02.993Z</time></trkpt><trkpt lat="42.1192885" lon="12.8465598"><ele>874.0</ele><time>2026-05-02T12:34:03.984Z</time></trkpt><trkpt lat="42.1192114" lon="12.8466042"><ele>874.0</ele><time>2026-05-02T12:34:04.981Z</time></trkpt><trkpt lat="42.1191404" lon="12.846653"><ele>874.0</ele><time>2026-05-02T12:34:05.989Z</time></trkpt><trkpt lat="42.1190758" lon="12.846683"><ele>873.9999999999999</ele><time>2026-05-02T12:34:06.986Z</time></trkpt><trkpt lat="42.1190049" lon="12.846741"><ele>874.0</ele><time>2026-05-02T12:34:07.988Z</time></trkpt><trkpt lat="42.1189464" lon="12.8468243"><ele>871.4999999999999</ele><time>2026-05-02T12:34:08.987Z</time></trkpt><trkpt lat="42.1188976" lon="12.8469035"><ele>869.0</ele><time>2026-05-02T12:34:09.99Z</time></trkpt><trkpt lat="42.1188448" lon="12.8469628"><ele>866.5</ele><time>2026-05-02T12:34:10.991Z</time></trkpt><trkpt lat="42.118781" lon="12.8470214"><ele>864.0</ele><time>2026-05-02T12:34:11.983Z</time></trkpt><trkpt lat="42.1187089" lon="12.8470699"><ele>861.4999999999999</ele><time>2026-05-02T12:34:12.994Z</time></trkpt><trkpt lat="42.118619" lon="12.8471209"><ele>859.0</ele><time>2026-05-02T12:34:13.991Z</time></trkpt><trkpt lat="42.118512" lon="12.8471837"><ele>859.0</ele><time>2026-05-02T12:34:14.985Z</time></trkpt><trkpt lat="42.1183994" lon="12.8472363"><ele>859.0000000000001</ele><time>2026-05-02T12:34:15.985Z</time></trkpt><trkpt lat="42.1182973" lon="12.8472883"><ele>859.0000000000001</ele><time>2026-05-02T12:34:16.991Z</time></trkpt><trkpt lat="42.1182238" lon="12.8473515"><ele>859.0</ele><time>2026-05-02T12:34:17.987Z</time></trkpt><trkpt lat="42.1181596" lon="12.8474161"><ele>859.0</ele><time>2026-05-02T12:34:19.07Z</time></trkpt><trkpt lat="42.1180934" lon="12.8474771"><ele>859.9999999999999</ele><time>2026-05-02T12:34:19.993Z</time></trkpt><trkpt lat="42.1180235" lon="12.847548"><ele>861.0</ele><time>2026-05-02T12:34:20.987Z</time></trkpt><trkpt lat="42.1179606" lon="12.8476038"><ele>862.0</ele><time>2026-05-02T12:34:21.989Z</time></trkpt><trkpt lat="42.1179" lon="12.8476531"><ele>863.0</ele><time>2026-05-02T12:34:22.987Z</time></trkpt><trkpt lat="42.1178404" lon="12.8476914"><ele>864.0</ele><time>2026-05-02T12:34:23.984Z</time></trkpt><trkpt lat="42.1177765" lon="12.8477212"><ele>864.9999999999999</ele><time>2026-05-02T12:34:24.998Z</time></trkpt><trkpt lat="42.1177099" lon="12.8477552"><ele>866.0</ele><time>2026-05-02T12:34:25.983Z</time></trkpt><trkpt lat="42.1176389" lon="12.8477672"><ele>860.2857142857142</ele><time>2026-05-02T12:34:26.992Z</time></trkpt><trkpt lat="42.1175684" lon="12.8477736"><ele>854.5714285714286</ele><time>2026-05-02T12:34:27.993Z</time></trkpt><trkpt lat="42.1174999" lon="12.8477759"><ele>848.8571428571429</ele><time>2026-05-02T12:34:28.994Z</time></trkpt><trkpt lat="42.1174312" lon="12.8477853"><ele>843.1428571428571</ele><time>2026-05-02T12:34:29.985Z</time></trkpt><trkpt lat="42.1173611" lon="12.8477833"><ele>837.4285714285714</ele><time>2026-05-02T12:34:30.99Z</time></trkpt><trkpt lat="42.1172837" lon="12.8477596"><ele>831.7142857142857</ele><time>2026-05-02T12:34:31.985Z</time></trkpt><trkpt lat="42.1172026" lon="12.8477321"><ele>826.0</ele><time>2026-05-02T12:34:32.99Z</time></trkpt><trkpt lat="42.1171263" lon="12.8477113"><ele>824.1428571428571</ele><time>2026-05-02T12:34:33.996Z</time></trkpt><trkpt lat="42.1170519" lon="12.8476844"><ele>822.2857142857142</ele><time>2026-05-02T12:34:34.986Z</time></trkpt><trkpt lat="42.1169907" lon="12.847647"><ele>820.4285714285714</ele><time>2026-05-02T12:34:35.991Z</time></trkpt><trkpt lat="42.1169215" lon="12.8476223"><ele>818.5714285714286</ele><time>2026-05-02T12:34:36.993Z</time></trkpt><trkpt lat="42.1168538" lon="12.84761"><ele>816.7142857142857</ele><time>2026-05-02T12:34:37.983Z</time></trkpt><trkpt lat="42.1167792" lon="12.8475845"><ele>814.8571428571429</ele><time>2026-05-02T12:34:38.99Z</time></trkpt><trkpt lat="42.1166983" lon="12.8475596"><ele>813.0</ele><time>2026-05-02T12:34:39.994Z</time></trkpt><trkpt lat="42.1166015" lon="12.8475412"><ele>822.5999999999999</ele><time>2026-05-02T12:34:40.993Z</time></trkpt><trkpt lat="42.116488" lon="12.8475261"><ele>832.1999999999999</ele><time>2026-05-02T12:34:41.996Z</time></trkpt><trkpt lat="42.1163885" lon="12.8475043"><ele>841.8</ele><time>2026-05-02T12:34:42.993Z</time></trkpt><trkpt lat="42.1162985" lon="12.8474993"><ele>851.4</ele><time>2026-05-02T12:34:43.997Z</time></trkpt><trkpt lat="42.1162115" lon="12.8475109"><ele>861.0</ele><time>2026-05-02T12:34:44.989Z</time></trkpt><trkpt lat="42.1161314" lon="12.8475257"><ele>861.0</ele><time>2026-05-02T12:34:46.003Z</time></trkpt><trkpt lat="42.1160549" lon="12.8475354"><ele>861.0</ele><time>2026-05-02T12:34:46.995Z</time></trkpt><trkpt lat="42.1159728" lon="12.8475598"><ele>861.0</ele><time>2026-05-02T12:34:47.999Z</time></trkpt><trkpt lat="42.1158783" lon="12.8475815"><ele>861.0</ele><time>2026-05-02T12:34:48.996Z</time></trkpt><trkpt lat="42.1157786" lon="12.8476057"><ele>861.0</ele><time>2026-05-02T12:34:49.995Z</time></trkpt><trkpt lat="42.1156941" lon="12.8476283"><ele>861.0</ele><time>2026-05-02T12:34:51Z</time></trkpt><trkpt lat="42.1156069" lon="12.8476529"><ele>854.1666666666666</ele><time>2026-05-02T12:34:52.003Z</time></trkpt><trkpt lat="42.115525" lon="12.8476921"><ele>847.3333333333333</ele><time>2026-05-02T12:34:53.001Z</time></trkpt><trkpt lat="42.1154529" lon="12.8477194"><ele>840.5</ele><time>2026-05-02T12:34:53.997Z</time></trkpt><trkpt lat="42.1153741" lon="12.8477699"><ele>833.6666666666666</ele><time>2026-05-02T12:34:54.998Z</time></trkpt><trkpt lat="42.1152996" lon="12.8478208"><ele>826.8333333333333</ele><time>2026-05-02T12:34:56Z</time></trkpt><trkpt lat="42.1152291" lon="12.8478676"><ele>820.0</ele><time>2026-05-02T12:34:57.004Z</time></trkpt><trkpt lat="42.1151539" lon="12.8478929"><ele>820.0</ele><time>2026-05-02T12:34:57.998Z</time></trkpt><trkpt lat="42.1150635" lon="12.8478996"><ele>820.0</ele><time>2026-05-02T12:34:59.003Z</time></trkpt><trkpt lat="42.1149561" lon="12.8478901"><ele>820.0</ele><time>2026-05-02T12:35:00.015Z</time></trkpt><trkpt lat="42.1148413" lon="12.8478545"><ele>820.0</ele><time>2026-05-02T12:35:00.992Z</time></trkpt><trkpt lat="42.1147063" lon="12.8478082"><ele>819.4</ele><time>2026-05-02T12:35:02.002Z</time></trkpt><trkpt lat="42.1145847" lon="12.8477802"><ele>818.8</ele><time>2026-05-02T12:35:02.996Z</time></trkpt><trkpt lat="42.114469" lon="12.8477586"><ele>818.2</ele><time>2026-05-02T12:35:04.005Z</time></trkpt><trkpt lat="42.1143614" lon="12.8477402"><ele>817.6</ele><time>2026-05-02T12:35:04.999Z</time></trkpt><trkpt lat="42.1142724" lon="12.8477184"><ele>817.0</ele><time>2026-05-02T12:35:05.996Z</time></trkpt><trkpt lat="42.1141813" lon="12.8476931"><ele>817.0</ele><time>2026-05-02T12:35:06.998Z</time></trkpt><trkpt lat="42.1140981" lon="12.8476921"><ele>817.0</ele><time>2026-05-02T12:35:08.004Z</time></trkpt><trkpt lat="42.1140148" lon="12.8477098"><ele>817.0</ele><time>2026-05-02T12:35:08.998Z</time></trkpt><trkpt lat="42.1139197" lon="12.8477517"><ele>817.0</ele><time>2026-05-02T12:35:09.995Z</time></trkpt><trkpt lat="42.1138272" lon="12.8477996"><ele>817.0</ele><time>2026-05-02T12:35:11.001Z</time></trkpt><trkpt lat="42.1137412" lon="12.8478604"><ele>820.2</ele><time>2026-05-02T12:35:11.991Z</time></trkpt><trkpt lat="42.1136568" lon="12.8479509"><ele>823.4000000000001</ele><time>2026-05-02T12:35:13.003Z</time></trkpt><trkpt lat="42.1135771" lon="12.8480491"><ele>826.5999999999999</ele><time>2026-05-02T12:35:13.998Z</time></trkpt><trkpt lat="42.1134987" lon="12.8481294"><ele>829.8</ele><time>2026-05-02T12:35:15.01Z</time></trkpt><trkpt lat="42.1134195" lon="12.8481814"><ele>833.0</ele><time>2026-05-02T12:35:15.982Z</time></trkpt><trkpt lat="42.1133161" lon="12.8482276"><ele>839.8</ele><time>2026-05-02T12:35:17.001Z</time></trkpt><trkpt lat="42.1132083" lon="12.8482756"><ele>846.5999999999999</ele><time>2026-05-02T12:35:18.007Z</time></trkpt><trkpt lat="42.1131057" lon="12.8483078"><ele>853.4000000000001</ele><time>2026-05-02T12:35:18.991Z</time></trkpt><trkpt lat="42.1130059" lon="12.848338"><ele>860.2</ele><time>2026-05-02T12:35:20.001Z</time></trkpt><trkpt lat="42.1129037" lon="12.8483943"><ele>867.0</ele><time>2026-05-02T12:35:20.994Z</time></trkpt><trkpt lat="42.1128093" lon="12.8484558"><ele>868.5</ele><time>2026-05-02T12:35:22.006Z</time></trkpt><trkpt lat="42.1127209" lon="12.848537"><ele>870.0</ele><time>2026-05-02T12:35:22.995Z</time></trkpt><trkpt lat="42.1126464" lon="12.8486059"><ele>871.5</ele><time>2026-05-02T12:35:23.995Z</time></trkpt><trkpt lat="42.1125663" lon="12.8486512"><ele>873.0</ele><time>2026-05-02T12:35:24.992Z</time></trkpt><trkpt lat="42.1124972" lon="12.8486857"><ele>874.5</ele><time>2026-05-02T12:35:25.998Z</time></trkpt><trkpt lat="42.1124324" lon="12.8487287"><ele>876.0</ele><time>2026-05-02T12:35:26.996Z</time></trkpt><trkpt lat="42.1123715" lon="12.8488091"><ele>876.0</ele><time>2026-05-02T12:35:27.999Z</time></trkpt><trkpt lat="42.112311" lon="12.8489249"><ele>875.9999999999999</ele><time>2026-05-02T12:35:28.995Z</time></trkpt><trkpt lat="42.1122511" lon="12.849051"><ele>875.9999999999999</ele><time>2026-05-02T12:35:29.998Z</time></trkpt><trkpt lat="42.1122082" lon="12.8491528"><ele>876.0</ele><time>2026-05-02T12:35:30.995Z</time></trkpt><trkpt lat="42.1121659" lon="12.8492538"><ele>876.0</ele><time>2026-05-02T12:35:31.995Z</time></trkpt><trkpt lat="42.112132" lon="12.8493583"><ele>869.5999999999999</ele><time>2026-05-02T12:35:32.991Z</time></trkpt><trkpt lat="42.112096" lon="12.8494622"><ele>863.1999999999999</ele><time>2026-05-02T12:35:33.996Z</time></trkpt><trkpt lat="42.1120338" lon="12.8495497"><ele>856.8</ele><time>2026-05-02T12:35:34.992Z</time></trkpt><trkpt lat="42.1119586" lon="12.8496358"><ele>850.4000000000001</ele><time>2026-05-02T12:35:35.988Z</time></trkpt><trkpt lat="42.1118483" lon="12.8497071"><ele>844.0</ele><time>2026-05-02T12:35:36.994Z</time></trkpt><trkpt lat="42.1117454" lon="12.8497863"><ele>844.0</ele><time>2026-05-02T12:35:38Z</time></trkpt><trkpt lat="42.1116519" lon="12.8498726"><ele>844.0</ele><time>2026-05-02T12:35:38.983Z</time></trkpt><trkpt lat="42.1115501" lon="12.8499642"><ele>844.0</ele><time>2026-05-02T12:35:39.999Z</time></trkpt><trkpt lat="42.1114565" lon="12.8500491"><ele>844.0</ele><time>2026-05-02T12:35:40.992Z</time></trkpt><trkpt lat="42.1113662" lon="12.850116"><ele>845.1666666666666</ele><time>2026-05-02T12:35:41.987Z</time></trkpt><trkpt lat="42.1112885" lon="12.8501898"><ele>846.3333333333333</ele><time>2026-05-02T12:35:43.002Z</time></trkpt><trkpt lat="42.1112224" lon="12.8502515"><ele>847.5</ele><time>2026-05-02T12:35:43.988Z</time></trkpt><trkpt lat="42.1111577" lon="12.8503068"><ele>848.6666666666667</ele><time>2026-05-02T12:35:44.991Z</time></trkpt><trkpt lat="42.1110864" lon="12.8503603"><ele>849.8333333333334</ele><time>2026-05-02T12:35:45.993Z</time></trkpt><trkpt lat="42.1110144" lon="12.850414"><ele>851.0</ele><time>2026-05-02T12:35:46.999Z</time></trkpt><trkpt lat="42.110936" lon="12.8504589"><ele>851.0</ele><time>2026-05-02T12:35:47.989Z</time></trkpt><trkpt lat="42.1108393" lon="12.8505119"><ele>851.0</ele><time>2026-05-02T12:35:49.002Z</time></trkpt><trkpt lat="42.1107368" lon="12.8505591"><ele>851.0</ele><time>2026-05-02T12:35:49.986Z</time></trkpt><trkpt lat="42.1106389" lon="12.8506124"><ele>851.0</ele><time>2026-05-02T12:35:50.995Z</time></trkpt><trkpt lat="42.110541" lon="12.8506689"><ele>851.0</ele><time>2026-05-02T12:35:51.99Z</time></trkpt><trkpt lat="42.1104383" lon="12.8507336"><ele>852.5</ele><time>2026-05-02T12:35:52.997Z</time></trkpt><trkpt lat="42.1103238" lon="12.8508"><ele>854.0</ele><time>2026-05-02T12:35:53.992Z</time></trkpt><trkpt lat="42.1102124" lon="12.8508674"><ele>855.5</ele><time>2026-05-02T12:35:54.991Z</time></trkpt><trkpt lat="42.1100807" lon="12.8509216"><ele>857.0</ele><time>2026-05-02T12:35:55.991Z</time></trkpt><trkpt lat="42.1099489" lon="12.8509785"><ele>859.75</ele><time>2026-05-02T12:35:56.978Z</time></trkpt><trkpt lat="42.1098196" lon="12.8510286"><ele>862.5</ele><time>2026-05-02T12:35:58.005Z</time></trkpt><trkpt lat="42.1097005" lon="12.8510784"><ele>865.25</ele><time>2026-05-02T12:35:58.992Z</time></trkpt><trkpt lat="42.1095958" lon="12.8511118"><ele>868.0</ele><time>2026-05-02T12:35:59.987Z</time></trkpt><trkpt lat="42.1094882" lon="12.8511295"><ele>868.0</ele><time>2026-05-02T12:36:01Z</time></trkpt><trkpt lat="42.1094023" lon="12.8511661"><ele>868.0</ele><time>2026-05-02T12:36:01.991Z</time></trkpt><trkpt lat="42.1093363" lon="12.8512103"><ele>868.0</ele><time>2026-05-02T12:36:02.993Z</time></trkpt><trkpt lat="42.1092534" lon="12.8513069"><ele>868.0</ele><time>2026-05-02T12:36:04.996Z</time></trkpt><trkpt lat="42.1092645" lon="12.8514315"><ele>868.0</ele><time>2026-05-02T12:36:06.993Z</time></trkpt><trkpt lat="42.109378" lon="12.8514915"><ele>867.9999999999999</ele><time>2026-05-02T12:36:08.996Z</time></trkpt><trkpt lat="42.1094709" lon="12.8514785"><ele>868.0</ele><time>2026-05-02T12:36:10.992Z</time></trkpt><trkpt lat="42.1095368" lon="12.8514768"><ele>868.0</ele><time>2026-05-02T12:36:11.987Z</time></trkpt><trkpt lat="42.1096106" lon="12.8515077"><ele>868.0</ele><time>2026-05-02T12:36:12.995Z</time></trkpt><trkpt lat="42.109682" lon="12.851538"><ele>867.9999999999999</ele><time>2026-05-02T12:36:13.991Z</time></trkpt><trkpt lat="42.1097549" lon="12.8515466"><ele>868.0</ele><time>2026-05-02T12:36:15.002Z</time></trkpt><trkpt lat="42.1098339" lon="12.8515463"><ele>867.8</ele><time>2026-05-02T12:36:15.99Z</time></trkpt><trkpt lat="42.1099088" lon="12.8515063"><ele>867.5999999999999</ele><time>2026-05-02T12:36:16.996Z</time></trkpt><trkpt lat="42.1100098" lon="12.8514599"><ele>867.4000000000001</ele><time>2026-05-02T12:36:17.992Z</time></trkpt><trkpt lat="42.1101192" lon="12.8514037"><ele>867.2</ele><time>2026-05-02T12:36:18.986Z</time></trkpt><trkpt lat="42.1102364" lon="12.851344"><ele>867.0</ele><time>2026-05-02T12:36:19.993Z</time></trkpt><trkpt lat="42.1103548" lon="12.8512765"><ele>867.0</ele><time>2026-05-02T12:36:20.989Z</time></trkpt><trkpt lat="42.1104718" lon="12.8511931"><ele>867.0</ele><time>2026-05-02T12:36:21.992Z</time></trkpt><trkpt lat="42.1105772" lon="12.8511301"><ele>867.0</ele><time>2026-05-02T12:36:22.991Z</time></trkpt><trkpt lat="42.1106982" lon="12.8510852"><ele>867.0</ele><time>2026-05-02T12:36:23.99Z</time></trkpt><trkpt lat="42.1108323" lon="12.8510314"><ele>867.8</ele><time>2026-05-02T12:36:24.985Z</time></trkpt><trkpt lat="42.1109429" lon="12.8509929"><ele>868.6</ele><time>2026-05-02T12:36:25.988Z</time></trkpt><trkpt lat="42.1110454" lon="12.8509647"><ele>869.3999999999999</ele><time>2026-05-02T12:36:26.987Z</time></trkpt><trkpt lat="42.1111433" lon="12.850931"><ele>870.1999999999999</ele><time>2026-05-02T12:36:27.991Z</time></trkpt><trkpt lat="42.111243" lon="12.8509065"><ele>871.0</ele><time>2026-05-02T12:36:28.993Z</time></trkpt><trkpt lat="42.111331" lon="12.8508912"><ele>867.0</ele><time>2026-05-02T12:36:29.985Z</time></trkpt><trkpt lat="42.1114016" lon="12.8508602"><ele>862.9999999999999</ele><time>2026-05-02T12:36:30.983Z</time></trkpt><trkpt lat="42.1114978" lon="12.8508461"><ele>859.0</ele><time>2026-05-02T12:36:31.988Z</time></trkpt><trkpt lat="42.1115807" lon="12.8508156"><ele>855.0</ele><time>2026-05-02T12:36:32.99Z</time></trkpt><trkpt lat="42.1116941" lon="12.8508111"><ele>851.0</ele><time>2026-05-02T12:36:33.991Z</time></trkpt><trkpt lat="42.1118041" lon="12.8508014"><ele>850.1999999999999</ele><time>2026-05-02T12:36:34.991Z</time></trkpt><trkpt lat="42.1119095" lon="12.8507929"><ele>849.4</ele><time>2026-05-02T12:36:35.985Z</time></trkpt><trkpt lat="42.1120088" lon="12.8507536"><ele>848.6</ele><time>2026-05-02T12:36:36.983Z</time></trkpt><trkpt lat="42.1120966" lon="12.8507244"><ele>847.8</ele><time>2026-05-02T12:36:37.987Z</time></trkpt><trkpt lat="42.1121874" lon="12.8506831"><ele>847.0</ele><time>2026-05-02T12:36:38.997Z</time></trkpt><trkpt lat="42.1122868" lon="12.8506392"><ele>847.0</ele><time>2026-05-02T12:36:39.989Z</time></trkpt><trkpt lat="42.1123796" lon="12.8505739"><ele>847.0</ele><time>2026-05-02T12:36:41.001Z</time></trkpt><trkpt lat="42.1124735" lon="12.8504904"><ele>847.0</ele><time>2026-05-02T12:36:41.994Z</time></trkpt><trkpt lat="42.1125756" lon="12.8504323"><ele>847.0</ele><time>2026-05-02T12:36:42.994Z</time></trkpt><trkpt lat="42.1127003" lon="12.8503822"><ele>845.5</ele><time>2026-05-02T12:36:43.999Z</time></trkpt><trkpt lat="42.1128333" lon="12.8503539"><ele>844.0</ele><time>2026-05-02T12:36:45Z</time></trkpt><trkpt lat="42.1129498" lon="12.8503528"><ele>842.5</ele><time>2026-05-02T12:36:46.002Z</time></trkpt><trkpt lat="42.1130762" lon="12.8503741"><ele>841.0</ele><time>2026-05-02T12:36:47.001Z</time></trkpt><trkpt lat="42.1132179" lon="12.8504044"><ele>839.6666666666666</ele><time>2026-05-02T12:36:47.998Z</time></trkpt><trkpt lat="42.1133671" lon="12.8504287"><ele>838.3333333333333</ele><time>2026-05-02T12:36:48.999Z</time></trkpt><trkpt lat="42.1135194" lon="12.8504475"><ele>837.0</ele><time>2026-05-02T12:36:49.997Z</time></trkpt><trkpt lat="42.1136768" lon="12.8504946"><ele>837.0</ele><time>2026-05-02T12:36:50.992Z</time></trkpt><trkpt lat="42.1138285" lon="12.8506014"><ele>837.0</ele><time>2026-05-02T12:36:51.993Z</time></trkpt><trkpt lat="42.1139037" lon="12.8506918"><ele>837.0</ele><time>2026-05-02T12:36:53.003Z</time></trkpt><trkpt lat="42.114" lon="12.8507339"><ele>837.0</ele><time>2026-05-02T12:36:53.99Z</time></trkpt><trkpt lat="42.1141058" lon="12.8507637"><ele>838.3333333333334</ele><time>2026-05-02T12:36:54.998Z</time></trkpt><trkpt lat="42.1141706" lon="12.8507845"><ele>839.6666666666667</ele><time>2026-05-02T12:36:56.004Z</time></trkpt><trkpt lat="42.1142626" lon="12.8508186"><ele>841.0</ele><time>2026-05-02T12:36:56.993Z</time></trkpt><trkpt lat="42.1143057" lon="12.8508814"><ele>842.3333333333334</ele><time>2026-05-02T12:36:58.005Z</time></trkpt><trkpt lat="42.114344" lon="12.8509545"><ele>843.6666666666667</ele><time>2026-05-02T12:36:58.989Z</time></trkpt><trkpt lat="42.1143841" lon="12.8510352"><ele>845.0</ele><time>2026-05-02T12:36:59.997Z</time></trkpt><trkpt lat="42.1144179" lon="12.8511413"><ele>845.0</ele><time>2026-05-02T12:37:00.998Z</time></trkpt><trkpt lat="42.1144522" lon="12.851268"><ele>845.0</ele><time>2026-05-02T12:37:01.991Z</time></trkpt><trkpt lat="42.114478" lon="12.851397"><ele>845.0</ele><time>2026-05-02T12:37:02.99Z</time></trkpt><trkpt lat="42.1144865" lon="12.8515195"><ele>845.0</ele><time>2026-05-02T12:37:03.99Z</time></trkpt><trkpt lat="42.1145045" lon="12.8516277"><ele>845.0</ele><time>2026-05-02T12:37:04.985Z</time></trkpt><trkpt lat="42.1145429" lon="12.8517319"><ele>847.8</ele><time>2026-05-02T12:37:05.992Z</time></trkpt><trkpt lat="42.1145636" lon="12.8518299"><ele>850.6</ele><time>2026-05-02T12:37:06.984Z</time></trkpt><trkpt lat="42.1146037" lon="12.8519388"><ele>853.4000000000001</ele><time>2026-05-02T12:37:08.992Z</time></trkpt><trkpt lat="42.114686" lon="12.8519408"><ele>856.2</ele><time>2026-05-02T12:37:10.994Z</time></trkpt><trkpt lat="42.1148233" lon="12.8519042"><ele>859.0</ele><time>2026-05-02T12:37:12.992Z</time></trkpt><trkpt lat="42.1149218" lon="12.8518651"><ele>859.0</ele><time>2026-05-02T12:37:13.998Z</time></trkpt><trkpt lat="42.1150146" lon="12.851816"><ele>859.0</ele><time>2026-05-02T12:37:14.995Z</time></trkpt><trkpt lat="42.1151093" lon="12.851741"><ele>859.0</ele><time>2026-05-02T12:37:15.993Z</time></trkpt><trkpt lat="42.1152272" lon="12.8516829"><ele>859.0</ele><time>2026-05-02T12:37:16.995Z</time></trkpt><trkpt lat="42.1153461" lon="12.8516272"><ele>852.75</ele><time>2026-05-02T12:37:18.001Z</time></trkpt><trkpt lat="42.1154763" lon="12.8515801"><ele>846.5</ele><time>2026-05-02T12:37:18.992Z</time></trkpt><trkpt lat="42.1156086" lon="12.851547"><ele>840.25</ele><time>2026-05-02T12:37:20.001Z</time></trkpt><trkpt lat="42.1157443" lon="12.8515306"><ele>834.0</ele><time>2026-05-02T12:37:21.012Z</time></trkpt><trkpt lat="42.1158735" lon="12.8515291"><ele>834.0</ele><time>2026-05-02T12:37:21.99Z</time></trkpt><trkpt lat="42.1159904" lon="12.8515415"><ele>834.0</ele><time>2026-05-02T12:37:23.003Z</time></trkpt><trkpt lat="42.1160844" lon="12.8515691"><ele>834.0</ele><time>2026-05-02T12:37:23.994Z</time></trkpt><trkpt lat="42.116178" lon="12.851621"><ele>834.0</ele><time>2026-05-02T12:37:25.006Z</time></trkpt><trkpt lat="42.1162507" lon="12.851717"><ele>834.0</ele><time>2026-05-02T12:37:25.992Z</time></trkpt><trkpt lat="42.1163075" lon="12.8518284"><ele>839.0</ele><time>2026-05-02T12:37:26.986Z</time></trkpt><trkpt lat="42.1163526" lon="12.8519644"><ele>844.0</ele><time>2026-05-02T12:37:27.991Z</time></trkpt><trkpt lat="42.116381" lon="12.8520799"><ele>849.0000000000001</ele><time>2026-05-02T12:37:28.988Z</time></trkpt><trkpt lat="42.1163853" lon="12.8522024"><ele>854.0</ele><time>2026-05-02T12:37:29.992Z</time></trkpt><trkpt lat="42.1163931" lon="12.8523211"><ele>859.0</ele><time>2026-05-02T12:37:30.999Z</time></trkpt><trkpt lat="42.1164165" lon="12.8524366"><ele>859.0</ele><time>2026-05-02T12:37:31.986Z</time></trkpt><trkpt lat="42.1164339" lon="12.8525754"><ele>859.0000000000001</ele><time>2026-05-02T12:37:32.989Z</time></trkpt><trkpt lat="42.1164472" lon="12.8527183"><ele>859.0000000000001</ele><time>2026-05-02T12:37:34.004Z</time></trkpt><trkpt lat="42.1164442" lon="12.8528474"><ele>859.0</ele><time>2026-05-02T12:37:34.995Z</time></trkpt><trkpt lat="42.11643" lon="12.8529467"><ele>859.0</ele><time>2026-05-02T12:37:35.985Z</time></trkpt><trkpt lat="42.1164022" lon="12.853041"><ele>860.8000000000001</ele><time>2026-05-02T12:37:37.002Z</time></trkpt><trkpt lat="42.1163956" lon="12.8531535"><ele>862.6000000000001</ele><time>2026-05-02T12:37:38.982Z</time></trkpt><trkpt lat="42.1164661" lon="12.8532438"><ele>864.4</ele><time>2026-05-02T12:37:41.986Z</time></trkpt><trkpt lat="42.1165342" lon="12.853301"><ele>866.2</ele><time>2026-05-02T12:37:42.996Z</time></trkpt><trkpt lat="42.1166314" lon="12.8533574"><ele>868.0</ele><time>2026-05-02T12:37:43.998Z</time></trkpt><trkpt lat="42.1167503" lon="12.8533958"><ele>863.4</ele><time>2026-05-02T12:37:44.988Z</time></trkpt><trkpt lat="42.1168654" lon="12.85342"><ele>858.8</ele><time>2026-05-02T12:37:45.997Z</time></trkpt><trkpt lat="42.1169677" lon="12.8534346"><ele>854.2</ele><time>2026-05-02T12:37:46.996Z</time></trkpt><trkpt lat="42.11705" lon="12.8534345"><ele>849.6</ele><time>2026-05-02T12:37:47.986Z</time></trkpt><trkpt lat="42.1171494" lon="12.8534378"><ele>845.0</ele><time>2026-05-02T12:37:49.002Z</time></trkpt><trkpt lat="42.1172388" lon="12.853438"><ele>845.0</ele><time>2026-05-02T12:37:49.995Z</time></trkpt><trkpt lat="42.1173224" lon="12.8534303"><ele>845.0</ele><time>2026-05-02T12:37:50.992Z</time></trkpt><trkpt lat="42.1174085" lon="12.8534155"><ele>845.0</ele><time>2026-05-02T12:37:51.992Z</time></trkpt><trkpt lat="42.1175052" lon="12.8533903"><ele>845.0</ele><time>2026-05-02T12:37:53Z</time></trkpt><trkpt lat="42.1176135" lon="12.8533339"><ele>845.0</ele><time>2026-05-02T12:37:53.992Z</time></trkpt><trkpt lat="42.1177234" lon="12.8532817"><ele>845.0</ele><time>2026-05-02T12:37:54.992Z</time></trkpt><trkpt lat="42.1178512" lon="12.8532252"><ele>845.0</ele><time>2026-05-02T12:37:56.002Z</time></trkpt><trkpt lat="42.1179565" lon="12.8531883"><ele>845.0</ele><time>2026-05-02T12:37:56.996Z</time></trkpt><trkpt lat="42.1180773" lon="12.8531449"><ele>845.0</ele><time>2026-05-02T12:37:57.988Z</time></trkpt><trkpt lat="42.1181876" lon="12.8531183"><ele>846.8</ele><time>2026-05-02T12:37:58.995Z</time></trkpt><trkpt lat="42.1183113" lon="12.8531222"><ele>848.6</ele><time>2026-05-02T12:37:59.999Z</time></trkpt><trkpt lat="42.1184118" lon="12.8531168"><ele>850.4000000000001</ele><time>2026-05-02T12:38:00.997Z</time></trkpt><trkpt lat="42.1184974" lon="12.8531271"><ele>852.2</ele><time>2026-05-02T12:38:02.001Z</time></trkpt><trkpt lat="42.118568" lon="12.8531686"><ele>854.0</ele><time>2026-05-02T12:38:02.987Z</time></trkpt><trkpt lat="42.1186297" lon="12.8532348"><ele>854.0</ele><time>2026-05-02T12:38:03.997Z</time></trkpt><trkpt lat="42.1186802" lon="12.8533182"><ele>854.0000000000001</ele><time>2026-05-02T12:38:04.998Z</time></trkpt><trkpt lat="42.1187372" lon="12.8534107"><ele>854.0000000000001</ele><time>2026-05-02T12:38:05.986Z</time></trkpt><trkpt lat="42.1187901" lon="12.8535034"><ele>854.0</ele><time>2026-05-02T12:38:06.987Z</time></trkpt><trkpt lat="42.1188487" lon="12.8535926"><ele>854.0</ele><time>2026-05-02T12:38:07.987Z</time></trkpt><trkpt lat="42.1189406" lon="12.8536754"><ele>857.5000000000001</ele><time>2026-05-02T12:38:08.991Z</time></trkpt><trkpt lat="42.1190081" lon="12.8537533"><ele>861.0</ele><time>2026-05-02T12:38:09.985Z</time></trkpt><trkpt lat="42.1190743" lon="12.8538232"><ele>864.5</ele><time>2026-05-02T12:38:10.991Z</time></trkpt><trkpt lat="42.1191498" lon="12.853878"><ele>868.0</ele><time>2026-05-02T12:38:11.994Z</time></trkpt><trkpt lat="42.1192312" lon="12.8539147"><ele>871.5000000000001</ele><time>2026-05-02T12:38:12.993Z</time></trkpt><trkpt lat="42.1193177" lon="12.85394"><ele>875.0</ele><time>2026-05-02T12:38:13.991Z</time></trkpt><trkpt lat="42.1194084" lon="12.8539574"><ele>875.0</ele><time>2026-05-02T12:38:14.986Z</time></trkpt><trkpt lat="42.1195068" lon="12.8539553"><ele>875.0</ele><time>2026-05-02T12:38:15.989Z</time></trkpt><trkpt lat="42.1196039" lon="12.8539665"><ele>875.0</ele><time>2026-05-02T12:38:16.987Z</time></trkpt><trkpt lat="42.1197136" lon="12.8539669"><ele>875.0</ele><time>2026-05-02T12:38:17.987Z</time></trkpt><trkpt lat="42.119825" lon="12.8539705"><ele>875.0</ele><time>2026-05-02T12:38:18.993Z</time></trkpt><trkpt lat="42.1199538" lon="12.8539971"><ele>872.75</ele><time>2026-05-02T12:38:19.992Z</time></trkpt><trkpt lat="42.1200838" lon="12.8540618"><ele>870.5</ele><time>2026-05-02T12:38:20.996Z</time></trkpt><trkpt lat="42.1202015" lon="12.8541003"><ele>868.25</ele><time>2026-05-02T12:38:22.001Z</time></trkpt><trkpt lat="42.120332" lon="12.8541361"><ele>866.0</ele><time>2026-05-02T12:38:22.991Z</time></trkpt><trkpt lat="42.1204401" lon="12.8541734"><ele>866.0</ele><time>2026-05-02T12:38:23.997Z</time></trkpt><trkpt lat="42.1205583" lon="12.8541873"><ele>865.9999999999999</ele><time>2026-05-02T12:38:24.992Z</time></trkpt><trkpt lat="42.1206628" lon="12.8541863"><ele>865.9999999999999</ele><time>2026-05-02T12:38:25.994Z</time></trkpt><trkpt lat="42.120772" lon="12.8541618"><ele>866.0</ele><time>2026-05-02T12:38:26.995Z</time></trkpt><trkpt lat="42.1208784" lon="12.8541204"><ele>866.0</ele><time>2026-05-02T12:38:27.992Z</time></trkpt><trkpt lat="42.1209765" lon="12.8540618"><ele>865.75</ele><time>2026-05-02T12:38:28.986Z</time></trkpt><trkpt lat="42.1210865" lon="12.8539736"><ele>865.5</ele><time>2026-05-02T12:38:29.999Z</time></trkpt><trkpt lat="42.1211636" lon="12.8538719"><ele>865.25</ele><time>2026-05-02T12:38:30.996Z</time></trkpt><trkpt lat="42.1212385" lon="12.8537583"><ele>865.0</ele><time>2026-05-02T12:38:31.994Z</time></trkpt><trkpt lat="42.12132" lon="12.8536499"><ele>865.0</ele><time>2026-05-02T12:38:32.997Z</time></trkpt><trkpt lat="42.1214059" lon="12.853538"><ele>865.0</ele><time>2026-05-02T12:38:33.997Z</time></trkpt><trkpt lat="42.1214884" lon="12.8534312"><ele>865.0</ele><time>2026-05-02T12:38:35.005Z</time></trkpt><trkpt lat="42.1215786" lon="12.8533468"><ele>865.0</ele><time>2026-05-02T12:38:36.002Z</time></trkpt><trkpt lat="42.1216713" lon="12.8532827"><ele>865.0</ele><time>2026-05-02T12:38:36.999Z</time></trkpt><trkpt lat="42.1217565" lon="12.8532351"><ele>863.6666666666666</ele><time>2026-05-02T12:38:37.996Z</time></trkpt><trkpt lat="42.1218306" lon="12.8531911"><ele>862.3333333333333</ele><time>2026-05-02T12:38:39.002Z</time></trkpt><trkpt lat="42.1218974" lon="12.8531456"><ele>861.0</ele><time>2026-05-02T12:38:40.091Z</time></trkpt><trkpt lat="42.1219777" lon="12.853103"><ele>859.6666666666667</ele><time>2026-05-02T12:38:40.996Z</time></trkpt><trkpt lat="42.1220763" lon="12.8530847"><ele>858.3333333333334</ele><time>2026-05-02T12:38:42.002Z</time></trkpt><trkpt lat="42.1221733" lon="12.8530657"><ele>857.0</ele><time>2026-05-02T12:38:43.006Z</time></trkpt><trkpt lat="42.1222593" lon="12.8530684"><ele>857.0</ele><time>2026-05-02T12:38:44.002Z</time></trkpt><trkpt lat="42.1223743" lon="12.8531369"><ele>857.0</ele><time>2026-05-02T12:38:45.008Z</time></trkpt><trkpt lat="42.1224918" lon="12.8531881"><ele>857.0</ele><time>2026-05-02T12:38:45.985Z</time></trkpt><trkpt lat="42.1226149" lon="12.8532461"><ele>857.0</ele><time>2026-05-02T12:38:46.998Z</time></trkpt><trkpt lat="42.1227481" lon="12.8532978"><ele>859.75</ele><time>2026-05-02T12:38:47.998Z</time></trkpt><trkpt lat="42.1228886" lon="12.853362"><ele>862.5</ele><time>2026-05-02T12:38:48.985Z</time></trkpt><trkpt lat="42.1230117" lon="12.8534027"><ele>865.25</ele><time>2026-05-02T12:38:49.994Z</time></trkpt><trkpt lat="42.1231269" lon="12.8534371"><ele>868.0</ele><time>2026-05-02T12:38:50.988Z</time></trkpt><trkpt lat="42.1232302" lon="12.8534523"><ele>868.8333333333333</ele><time>2026-05-02T12:38:51.995Z</time></trkpt><trkpt lat="42.123323" lon="12.8534586"><ele>869.6666666666666</ele><time>2026-05-02T12:38:52.99Z</time></trkpt><trkpt lat="42.1234033" lon="12.8534412"><ele>870.5</ele><time>2026-05-02T12:38:54.008Z</time></trkpt><trkpt lat="42.1234905" lon="12.8534157"><ele>871.3333333333333</ele><time>2026-05-02T12:38:54.987Z</time></trkpt><trkpt lat="42.1235802" lon="12.8533914"><ele>872.1666666666666</ele><time>2026-05-02T12:38:56Z</time></trkpt><trkpt lat="42.1236606" lon="12.8533577"><ele>873.0</ele><time>2026-05-02T12:38:56.989Z</time></trkpt><trkpt lat="42.1237353" lon="12.8533273"><ele>873.0</ele><time>2026-05-02T12:38:57.993Z</time></trkpt><trkpt lat="42.1238293" lon="12.8532877"><ele>873.0</ele><time>2026-05-02T12:38:58.994Z</time></trkpt><trkpt lat="42.1239334" lon="12.8532301"><ele>873.0</ele><time>2026-05-02T12:39:00Z</time></trkpt><trkpt lat="42.1240373" lon="12.8531676"><ele>873.0</ele><time>2026-05-02T12:39:00.999Z</time></trkpt><trkpt lat="42.1241346" lon="12.8531139"><ele>873.0</ele><time>2026-05-02T12:39:02.003Z</time></trkpt><trkpt lat="42.1242262" lon="12.8530535"><ele>876.3333333333334</ele><time>2026-05-02T12:39:02.998Z</time></trkpt><trkpt lat="42.1243062" lon="12.8530069"><ele>879.6666666666667</ele><time>2026-05-02T12:39:04.001Z</time></trkpt><trkpt lat="42.1243729" lon="12.8529582"><ele>883.0</ele><time>2026-05-02T12:39:05Z</time></trkpt><trkpt lat="42.124455" lon="12.852901"><ele>886.3333333333334</ele><time>2026-05-02T12:39:06.007Z</time></trkpt><trkpt lat="42.1245365" lon="12.8528432"><ele>889.6666666666667</ele><time>2026-05-02T12:39:07.006Z</time></trkpt><trkpt lat="42.1246132" lon="12.8527988"><ele>893.0</ele><time>2026-05-02T12:39:08Z</time></trkpt><trkpt lat="42.1246851" lon="12.852779"><ele>893.0</ele><time>2026-05-02T12:39:09.001Z</time></trkpt><trkpt lat="42.1247593" lon="12.8527692"><ele>893.0</ele><time>2026-05-02T12:39:10.01Z</time></trkpt><trkpt lat="42.1248353" lon="12.8527722"><ele>893.0</ele><time>2026-05-02T12:39:11.002Z</time></trkpt><trkpt lat="42.1249101" lon="12.8527842"><ele>893.0</ele><time>2026-05-02T12:39:11.998Z</time></trkpt><trkpt lat="42.1249812" lon="12.852789"><ele>893.0</ele><time>2026-05-02T12:39:13Z</time></trkpt><trkpt lat="42.125046" lon="12.852788"><ele>893.0</ele><time>2026-05-02T12:39:13.986Z</time></trkpt><trkpt lat="42.1251139" lon="12.8527716"><ele>893.0</ele><time>2026-05-02T12:39:14.993Z</time></trkpt><trkpt lat="42.1251871" lon="12.852795"><ele>896.0</ele><time>2026-05-02T12:39:15.986Z</time></trkpt><trkpt lat="42.1252768" lon="12.8528512"><ele>899.0</ele><time>2026-05-02T12:39:16.992Z</time></trkpt><trkpt lat="42.125373" lon="12.852899"><ele>902.0</ele><time>2026-05-02T12:39:17.997Z</time></trkpt><trkpt lat="42.1254896" lon="12.8529455"><ele>905.0</ele><time>2026-05-02T12:39:18.988Z</time></trkpt><trkpt lat="42.1256244" lon="12.8529802"><ele>904.0</ele><time>2026-05-02T12:39:19.991Z</time></trkpt><trkpt lat="42.125753" lon="12.8529939"><ele>903.0</ele><time>2026-05-02T12:39:20.994Z</time></trkpt><trkpt lat="42.1258507" lon="12.8530069"><ele>902.0</ele><time>2026-05-02T12:39:21.989Z</time></trkpt><trkpt lat="42.1259487" lon="12.8530256"><ele>901.0</ele><time>2026-05-02T12:39:23.002Z</time></trkpt><trkpt lat="42.1260326" lon="12.85307"><ele>900.0</ele><time>2026-05-02T12:39:23.996Z</time></trkpt><trkpt lat="42.1261059" lon="12.8531227"><ele>900.0</ele><time>2026-05-02T12:39:24.998Z</time></trkpt><trkpt lat="42.126168" lon="12.8531889"><ele>900.0</ele><time>2026-05-02T12:39:26.001Z</time></trkpt><trkpt lat="42.1262015" lon="12.8532787"><ele>900.0</ele><time>2026-05-02T12:39:27.001Z</time></trkpt><trkpt lat="42.1262318" lon="12.8533647"><ele>900.0</ele><time>2026-05-02T12:39:28.002Z</time></trkpt><trkpt lat="42.1262345" lon="12.8534632"><ele>900.0</ele><time>2026-05-02T12:39:28.998Z</time></trkpt><trkpt lat="42.1262267" lon="12.8535648"><ele>900.0</ele><time>2026-05-02T12:39:30.001Z</time></trkpt><trkpt lat="42.1262038" lon="12.8536658"><ele>902.6666666666666</ele><time>2026-05-02T12:39:30.993Z</time></trkpt><trkpt lat="42.1261912" lon="12.8537754"><ele>905.3333333333333</ele><time>2026-05-02T12:39:32.005Z</time></trkpt><trkpt lat="42.1261925" lon="12.8538749"><ele>908.0</ele><time>2026-05-02T12:39:32.999Z</time></trkpt><trkpt lat="42.1261739" lon="12.8539829"><ele>910.6666666666666</ele><time>2026-05-02T12:39:34.081Z</time></trkpt><trkpt lat="42.1261575" lon="12.8540895"><ele>913.3333333333333</ele><time>2026-05-02T12:39:34.998Z</time></trkpt><trkpt lat="42.1261398" lon="12.8541937"><ele>916.0</ele><time>2026-05-02T12:39:35.989Z</time></trkpt><trkpt lat="42.1261358" lon="12.8542884"><ele>915.9999999999999</ele><time>2026-05-02T12:39:37.005Z</time></trkpt><trkpt lat="42.1261405" lon="12.8544666"><ele>916.0</ele><time>2026-05-02T12:39:38.991Z</time></trkpt><trkpt lat="42.1261429" lon="12.8545804"><ele>916.0</ele><time>2026-05-02T12:39:40.003Z</time></trkpt><trkpt lat="42.1261489" lon="12.8546916"><ele>916.0</ele><time>2026-05-02T12:39:40.993Z</time></trkpt><trkpt lat="42.1261652" lon="12.8547931"><ele>915.9999999999999</ele><time>2026-05-02T12:39:41.991Z</time></trkpt><trkpt lat="42.1261711" lon="12.8548819"><ele>916.0</ele><time>2026-05-02T12:39:43.001Z</time></trkpt><trkpt lat="42.1261905" lon="12.8550097"><ele>915.9999999999999</ele><time>2026-05-02T12:39:44.987Z</time></trkpt><trkpt lat="42.1261724" lon="12.8551166"><ele>916.0</ele><time>2026-05-02T12:39:46.988Z</time></trkpt><trkpt lat="42.1260777" lon="12.8552127"><ele>916.0</ele><time>2026-05-02T12:39:48.998Z</time></trkpt><trkpt lat="42.12602" lon="12.8552513"><ele>916.0</ele><time>2026-05-02T12:39:49.991Z</time></trkpt><trkpt lat="42.1259558" lon="12.8552816"><ele>915.9999999999999</ele><time>2026-05-02T12:39:50.989Z</time></trkpt><trkpt lat="42.1258843" lon="12.8553256"><ele>916.0</ele><time>2026-05-02T12:39:52.073Z</time></trkpt><trkpt lat="42.1257953" lon="12.8554338"><ele>919.1666666666666</ele><time>2026-05-02T12:39:53.995Z</time></trkpt><trkpt lat="42.1257536" lon="12.855516"><ele>922.3333333333333</ele><time>2026-05-02T12:39:54.987Z</time></trkpt><trkpt lat="42.1257005" lon="12.8555943"><ele>925.5</ele><time>2026-05-02T12:39:55.989Z</time></trkpt><trkpt lat="42.1256342" lon="12.85566"><ele>928.6666666666667</ele><time>2026-05-02T12:39:56.981Z</time></trkpt><trkpt lat="42.1255773" lon="12.8557312"><ele>931.8333333333334</ele><time>2026-05-02T12:39:57.993Z</time></trkpt><trkpt lat="42.1255296" lon="12.8558084"><ele>935.0</ele><time>2026-05-02T12:39:58.985Z</time></trkpt><trkpt lat="42.1254857" lon="12.8558715"><ele>929.5000000000001</ele><time>2026-05-02T12:39:59.985Z</time></trkpt><trkpt lat="42.1253998" lon="12.855974"><ele>924.0</ele><time>2026-05-02T12:40:01.99Z</time></trkpt><trkpt lat="42.1253481" lon="12.8560306"><ele>918.5</ele><time>2026-05-02T12:40:02.988Z</time></trkpt><trkpt lat="42.1252825" lon="12.8560959"><ele>913.0</ele><time>2026-05-02T12:40:03.993Z</time></trkpt><trkpt lat="42.1252141" lon="12.8561669"><ele>907.5000000000001</ele><time>2026-05-02T12:40:04.987Z</time></trkpt><trkpt lat="42.1251573" lon="12.8562222"><ele>902.0</ele><time>2026-05-02T12:40:05.982Z</time></trkpt><trkpt lat="42.1251045" lon="12.8562786"><ele>902.0</ele><time>2026-05-02T12:40:06.993Z</time></trkpt><trkpt lat="42.1250531" lon="12.8563319"><ele>902.0</ele><time>2026-05-02T12:40:07.99Z</time></trkpt><trkpt lat="42.1249563" lon="12.8564039"><ele>902.0</ele><time>2026-05-02T12:40:09.992Z</time></trkpt><trkpt lat="42.1233152" lon="12.8722953"><ele>899.6</ele><time>2026-05-02T12:45:40.996Z</time></trkpt><trkpt lat="42.1234159" lon="12.8723015"><ele>897.2</ele><time>2026-05-02T12:45:42.996Z</time></trkpt><trkpt lat="42.1234973" lon="12.8723178"><ele>894.8</ele><time>2026-05-02T12:45:44.999Z</time></trkpt><trkpt lat="42.1235676" lon="12.8723036"><ele>892.4</ele><time>2026-05-02T12:45:50.006Z</time></trkpt><trkpt lat="42.1236501" lon="12.8720651"><ele>890.0</ele><time>2026-05-02T12:45:55.014Z</time></trkpt><trkpt lat="42.1236554" lon="12.8719374"><ele>890.0000000000001</ele><time>2026-05-02T12:45:57.011Z</time></trkpt><trkpt lat="42.1236677" lon="12.8717979"><ele>890.0</ele><time>2026-05-02T12:45:59.001Z</time></trkpt><trkpt lat="42.1236771" lon="12.871678"><ele>890.0</ele><time>2026-05-02T12:46:00.007Z</time></trkpt><trkpt lat="42.1236947" lon="12.8715698"><ele>890.0</ele><time>2026-05-02T12:46:00.999Z</time></trkpt><trkpt lat="42.1237106" lon="12.8714834"><ele>890.0000000000001</ele><time>2026-05-02T12:46:02.004Z</time></trkpt><trkpt lat="42.1237775" lon="12.871431"><ele>890.0</ele><time>2026-05-02T12:46:04.012Z</time></trkpt><trkpt lat="42.1238564" lon="12.8714714"><ele>890.0</ele><time>2026-05-02T12:46:06.004Z</time></trkpt><trkpt lat="42.1239013" lon="12.8715859"><ele>890.0</ele><time>2026-05-02T12:46:07.993Z</time></trkpt><trkpt lat="42.1239151" lon="12.8716903"><ele>890.0</ele><time>2026-05-02T12:46:08.987Z</time></trkpt><trkpt lat="42.1239418" lon="12.8717993"><ele>890.0</ele><time>2026-05-02T12:46:09.999Z</time></trkpt><trkpt lat="42.1239777" lon="12.8719134"><ele>890.0</ele><time>2026-05-02T12:46:11.001Z</time></trkpt><trkpt lat="42.1240808" lon="12.8721441"><ele>892.0000000000001</ele><time>2026-05-02T12:46:12.995Z</time></trkpt><trkpt lat="42.1241269" lon="12.8722452"><ele>894.0</ele><time>2026-05-02T12:46:14.007Z</time></trkpt><trkpt lat="42.1241579" lon="12.872344"><ele>896.0</ele><time>2026-05-02T12:46:14.992Z</time></trkpt><trkpt lat="42.1241722" lon="12.8724392"><ele>898.0</ele><time>2026-05-02T12:46:15.997Z</time></trkpt><trkpt lat="42.1241856" lon="12.8725455"><ele>900.0000000000001</ele><time>2026-05-02T12:46:17.002Z</time></trkpt><trkpt lat="42.1242037" lon="12.8726458"><ele>902.0</ele><time>2026-05-02T12:46:18.005Z</time></trkpt><trkpt lat="42.1242395" lon="12.8727481"><ele>903.4000000000001</ele><time>2026-05-02T12:46:19.003Z</time></trkpt><trkpt lat="42.124286" lon="12.8728529"><ele>904.8000000000001</ele><time>2026-05-02T12:46:20.004Z</time></trkpt><trkpt lat="42.1243382" lon="12.8729396"><ele>906.2</ele><time>2026-05-02T12:46:20.998Z</time></trkpt><trkpt lat="42.1243852" lon="12.8730135"><ele>907.6</ele><time>2026-05-02T12:46:21.995Z</time></trkpt><trkpt lat="42.1244484" lon="12.8731276"><ele>909.0</ele><time>2026-05-02T12:46:23.99Z</time></trkpt><trkpt lat="42.1244599" lon="12.8732635"><ele>909.0</ele><time>2026-05-02T12:46:25.991Z</time></trkpt><trkpt lat="42.1244252" lon="12.8733844"><ele>909.0</ele><time>2026-05-02T12:46:28.001Z</time></trkpt><trkpt lat="42.1243498" lon="12.8734758"><ele>909.0</ele><time>2026-05-02T12:46:30.003Z</time></trkpt><trkpt lat="42.1242513" lon="12.8735433"><ele>909.0</ele><time>2026-05-02T12:46:31.995Z</time></trkpt><trkpt lat="42.1241439" lon="12.8737611"><ele>911.2</ele><time>2026-05-02T12:46:35.999Z</time></trkpt><trkpt lat="42.1241839" lon="12.8738757"><ele>913.4000000000001</ele><time>2026-05-02T12:46:37.997Z</time></trkpt><trkpt lat="42.1242295" lon="12.8740001"><ele>915.6</ele><time>2026-05-02T12:46:39.997Z</time></trkpt><trkpt lat="42.1242364" lon="12.8741004"><ele>917.8</ele><time>2026-05-02T12:46:42.003Z</time></trkpt><trkpt lat="42.124216" lon="12.8742351"><ele>920.0</ele><time>2026-05-02T12:46:43.986Z</time></trkpt><trkpt lat="42.1241516" lon="12.8743694"><ele>921.6666666666667</ele><time>2026-05-02T12:46:45.995Z</time></trkpt><trkpt lat="42.1241103" lon="12.8744514"><ele>923.3333333333334</ele><time>2026-05-02T12:46:46.993Z</time></trkpt><trkpt lat="42.1240473" lon="12.8745279"><ele>925.0</ele><time>2026-05-02T12:46:48.001Z</time></trkpt><trkpt lat="42.123994" lon="12.8746008"><ele>926.6666666666667</ele><time>2026-05-02T12:46:48.995Z</time></trkpt><trkpt lat="42.1239464" lon="12.8746626"><ele>928.3333333333334</ele><time>2026-05-02T12:46:49.995Z</time></trkpt><trkpt lat="42.1239034" lon="12.874743"><ele>930.0</ele><time>2026-05-02T12:46:50.994Z</time></trkpt><trkpt lat="42.1238534" lon="12.8748304"><ele>930.0</ele><time>2026-05-02T12:46:51.994Z</time></trkpt><trkpt lat="42.1238198" lon="12.8749137"><ele>930.0</ele><time>2026-05-02T12:46:53Z</time></trkpt><trkpt lat="42.123778" lon="12.8750832"><ele>930.0</ele><time>2026-05-02T12:46:54.998Z</time></trkpt><trkpt lat="42.1237841" lon="12.8751708"><ele>930.0</ele><time>2026-05-02T12:46:55.999Z</time></trkpt><trkpt lat="42.1237946" lon="12.8752583"><ele>930.0</ele><time>2026-05-02T12:46:56.996Z</time></trkpt><trkpt lat="42.1237964" lon="12.8754022"><ele>930.0</ele><time>2026-05-02T12:46:58.991Z</time></trkpt><trkpt lat="42.1237942" lon="12.8754879"><ele>931.8</ele><time>2026-05-02T12:46:59.99Z</time></trkpt><trkpt lat="42.1237749" lon="12.8755766"><ele>933.6</ele><time>2026-05-02T12:47:00.998Z</time></trkpt><trkpt lat="42.1237609" lon="12.8757481"><ele>935.4000000000001</ele><time>2026-05-02T12:47:02.99Z</time></trkpt><trkpt lat="42.1237471" lon="12.8758685"><ele>937.2</ele><time>2026-05-02T12:47:04.997Z</time></trkpt><trkpt lat="42.1237159" lon="12.8759949"><ele>939.0</ele><time>2026-05-02T12:47:06.994Z</time></trkpt><trkpt lat="42.1236788" lon="12.8761574"><ele>941.0</ele><time>2026-05-02T12:47:09.002Z</time></trkpt><trkpt lat="42.1236464" lon="12.8763156"><ele>943.0000000000001</ele><time>2026-05-02T12:47:10.992Z</time></trkpt><trkpt lat="42.123635" lon="12.8764029"><ele>945.0000000000001</ele><time>2026-05-02T12:47:11.993Z</time></trkpt><trkpt lat="42.1236281" lon="12.876502"><ele>947.0</ele><time>2026-05-02T12:47:13.001Z</time></trkpt><trkpt lat="42.1236309" lon="12.8766"><ele>949.0</ele><time>2026-05-02T12:47:13.996Z</time></trkpt><trkpt lat="42.1235743" lon="12.8768671"><ele>951.8333333333333</ele><time>2026-05-02T12:47:17.998Z</time></trkpt><trkpt lat="42.123486" lon="12.8769403"><ele>954.6666666666666</ele><time>2026-05-02T12:47:19.996Z</time></trkpt><trkpt lat="42.1234447" lon="12.8770093"><ele>957.5</ele><time>2026-05-02T12:47:20.998Z</time></trkpt><trkpt lat="42.1233913" lon="12.8770657"><ele>960.3333333333333</ele><time>2026-05-02T12:47:21.998Z</time></trkpt><trkpt lat="42.1233269" lon="12.8771264"><ele>963.1666666666666</ele><time>2026-05-02T12:47:22.996Z</time></trkpt><trkpt lat="42.1232629" lon="12.877183"><ele>966.0</ele><time>2026-05-02T12:47:23.992Z</time></trkpt><trkpt lat="42.1231895" lon="12.8772415"><ele>971.8</ele><time>2026-05-02T12:47:25.006Z</time></trkpt><trkpt lat="42.1231071" lon="12.8772758"><ele>977.5999999999999</ele><time>2026-05-02T12:47:25.996Z</time></trkpt><trkpt lat="42.1230412" lon="12.8773244"><ele>983.4</ele><time>2026-05-02T12:47:26.991Z</time></trkpt><trkpt lat="42.1229549" lon="12.8774258"><ele>989.2</ele><time>2026-05-02T12:47:29.003Z</time></trkpt><trkpt lat="42.1229179" lon="12.8775448"><ele>995.0</ele><time>2026-05-02T12:47:31.006Z</time></trkpt><trkpt lat="42.12291" lon="12.8776956"><ele>995.5</ele><time>2026-05-02T12:47:33Z</time></trkpt><trkpt lat="42.1229112" lon="12.8777823"><ele>996.0</ele><time>2026-05-02T12:47:34.007Z</time></trkpt><trkpt lat="42.1229215" lon="12.8779137"><ele>996.5</ele><time>2026-05-02T12:47:36.001Z</time></trkpt><trkpt lat="42.1229374" lon="12.8781178"><ele>997.0</ele><time>2026-05-02T12:48:14.002Z</time></trkpt><trkpt lat="42.1242111" lon="12.8799149"><ele>997.0</ele><time>2026-05-02T12:49:54.86Z</time></trkpt><trkpt lat="42.123046" lon="12.8780422"><ele>996.9999999999999</ele><time>2026-05-02T12:50:39.642Z</time></trkpt><trkpt lat="42.1229845" lon="12.8780644"><ele>997.0</ele><time>2026-05-02T12:50:55.675Z</time></trkpt><trkpt lat="42.1230035" lon="12.8781459"><ele>996.9999999999999</ele><time>2026-05-02T12:51:40.991Z</time></trkpt><trkpt lat="42.1229518" lon="12.8782053"><ele>996.9999999999999</ele><time>2026-05-02T12:51:55.988Z</time></trkpt><trkpt lat="42.1229002" lon="12.8782742"><ele>997.0</ele><time>2026-05-02T12:51:59.989Z</time></trkpt><trkpt lat="42.1228716" lon="12.8783611"><ele>996.9999999999999</ele><time>2026-05-02T12:52:01.982Z</time></trkpt><trkpt lat="42.1228457" lon="12.8784563"><ele>996.9999999999999</ele><time>2026-05-02T12:52:10.995Z</time></trkpt><trkpt lat="42.122812" lon="12.8785317"><ele>997.4999999999999</ele><time>2026-05-02T12:52:14.985Z</time></trkpt><trkpt lat="42.122789" lon="12.8786258"><ele>998.0</ele><time>2026-05-02T12:52:18.979Z</time></trkpt><trkpt lat="42.1227877" lon="12.8787168"><ele>998.5</ele><time>2026-05-02T12:52:49.984Z</time></trkpt><trkpt lat="42.1227829" lon="12.878833"><ele>999.0</ele><time>2026-05-02T12:53:04.062Z</time></trkpt><trkpt lat="42.1227655" lon="12.8789516"><ele>999.4999999999999</ele><time>2026-05-02T12:53:05.989Z</time></trkpt><trkpt lat="42.1227448" lon="12.8790635"><ele>1000.0</ele><time>2026-05-02T12:53:07.982Z</time></trkpt><trkpt lat="42.1227239" lon="12.8791959"><ele>1000.2</ele><time>2026-05-02T12:53:09.984Z</time></trkpt><trkpt lat="42.1226941" lon="12.879359"><ele>1000.4</ele><time>2026-05-02T12:53:11.98Z</time></trkpt><trkpt lat="42.1226825" lon="12.879503"><ele>1000.5999999999999</ele><time>2026-05-02T12:53:13.98Z</time></trkpt><trkpt lat="42.1226419" lon="12.8796586"><ele>1000.8</ele><time>2026-05-02T12:53:15.984Z</time></trkpt><trkpt lat="42.1226262" lon="12.8797441"><ele>1001.0</ele><time>2026-05-02T12:53:16.987Z</time></trkpt><trkpt lat="42.1226204" lon="12.8798318"><ele>1001.0000000000001</ele><time>2026-05-02T12:53:17.981Z</time></trkpt><trkpt lat="42.1226155" lon="12.8799168"><ele>1001.0</ele><time>2026-05-02T12:53:18.984Z</time></trkpt><trkpt lat="42.1226094" lon="12.8800519"><ele>1001.0</ele><time>2026-05-02T12:53:20.981Z</time></trkpt><trkpt lat="42.1225918" lon="12.8801525"><ele>1001.0</ele><time>2026-05-02T12:53:22.98Z</time></trkpt><trkpt lat="42.1225537" lon="12.8803128"><ele>1001.0000000000001</ele><time>2026-05-02T12:53:24.984Z</time></trkpt><trkpt lat="42.1225314" lon="12.8804101"><ele>1001.0</ele><time>2026-05-02T12:53:25.982Z</time></trkpt><trkpt lat="42.1225048" lon="12.8805034"><ele>1001.1999999999999</ele><time>2026-05-02T12:53:26.988Z</time></trkpt><trkpt lat="42.1224759" lon="12.8806143"><ele>1001.3999999999999</ele><time>2026-05-02T12:53:27.983Z</time></trkpt><trkpt lat="42.1224752" lon="12.8807159"><ele>1001.6</ele><time>2026-05-02T12:53:28.986Z</time></trkpt><trkpt lat="42.1224828" lon="12.8808273"><ele>1001.8</ele><time>2026-05-02T12:53:29.986Z</time></trkpt><trkpt lat="42.1224906" lon="12.8809295"><ele>1002.0</ele><time>2026-05-02T12:53:30.987Z</time></trkpt><trkpt lat="42.1224691" lon="12.8811068"><ele>1002.0</ele><time>2026-05-02T12:53:32.979Z</time></trkpt><trkpt lat="42.1224618" lon="12.8811932"><ele>1002.0</ele><time>2026-05-02T12:53:33.988Z</time></trkpt><trkpt lat="42.1224329" lon="12.8812836"><ele>1002.0</ele><time>2026-05-02T12:53:34.985Z</time></trkpt><trkpt lat="42.1223957" lon="12.8813737"><ele>1002.0</ele><time>2026-05-02T12:53:35.978Z</time></trkpt><trkpt lat="42.1223546" lon="12.8814543"><ele>1002.0</ele><time>2026-05-02T12:53:36.988Z</time></trkpt><trkpt lat="42.122311" lon="12.8815202"><ele>1002.0</ele><time>2026-05-02T12:53:37.999Z</time></trkpt><trkpt lat="42.1222532" lon="12.8815922"><ele>1002.0</ele><time>2026-05-02T12:53:38.974Z</time></trkpt><trkpt lat="42.1221791" lon="12.8816598"><ele>1004.0</ele><time>2026-05-02T12:53:40.066Z</time></trkpt><trkpt lat="42.1221024" lon="12.8817205"><ele>1006.0</ele><time>2026-05-02T12:53:40.992Z</time></trkpt><trkpt lat="42.1220278" lon="12.8817798"><ele>1008.0</ele><time>2026-05-02T12:53:41.982Z</time></trkpt><trkpt lat="42.1219698" lon="12.8818525"><ele>1010.0</ele><time>2026-05-02T12:53:42.99Z</time></trkpt><trkpt lat="42.1219226" lon="12.8819415"><ele>1012.0</ele><time>2026-05-02T12:53:43.983Z</time></trkpt><trkpt lat="42.1218744" lon="12.8820472"><ele>1014.0</ele><time>2026-05-02T12:53:44.986Z</time></trkpt><trkpt lat="42.1218296" lon="12.8821576"><ele>1014.0</ele><time>2026-05-02T12:53:45.993Z</time></trkpt><trkpt lat="42.1217921" lon="12.8822609"><ele>1014.0</ele><time>2026-05-02T12:53:46.983Z</time></trkpt><trkpt lat="42.121756" lon="12.882348"><ele>1014.0</ele><time>2026-05-02T12:53:47.989Z</time></trkpt><trkpt lat="42.1217079" lon="12.8824316"><ele>1014.0</ele><time>2026-05-02T12:53:48.987Z</time></trkpt><trkpt lat="42.1216508" lon="12.8825169"><ele>1014.0</ele><time>2026-05-02T12:53:49.982Z</time></trkpt><trkpt lat="42.1216019" lon="12.8826142"><ele>1014.0</ele><time>2026-05-02T12:53:50.982Z</time></trkpt><trkpt lat="42.121566" lon="12.8826981"><ele>1015.6</ele><time>2026-05-02T12:53:51.99Z</time></trkpt><trkpt lat="42.1215371" lon="12.8827843"><ele>1017.2</ele><time>2026-05-02T12:53:52.989Z</time></trkpt><trkpt lat="42.1214953" lon="12.8829296"><ele>1018.8000000000001</ele><time>2026-05-02T12:53:54.993Z</time></trkpt><trkpt lat="42.1214955" lon="12.8830718"><ele>1020.4000000000001</ele><time>2026-05-02T12:53:56.981Z</time></trkpt><trkpt lat="42.1214801" lon="12.8832229"><ele>1022.0</ele><time>2026-05-02T12:53:58.988Z</time></trkpt><trkpt lat="42.1214182" lon="12.8833725"><ele>1022.6666666666667</ele><time>2026-05-02T12:54:00.987Z</time></trkpt><trkpt lat="42.1213697" lon="12.8834475"><ele>1023.3333333333334</ele><time>2026-05-02T12:54:01.988Z</time></trkpt><trkpt lat="42.1213155" lon="12.8835387"><ele>1024.0</ele><time>2026-05-02T12:54:02.991Z</time></trkpt><trkpt lat="42.1212564" lon="12.883635"><ele>1024.6666666666667</ele><time>2026-05-02T12:54:03.989Z</time></trkpt><trkpt lat="42.1212015" lon="12.8837164"><ele>1025.3333333333333</ele><time>2026-05-02T12:54:04.99Z</time></trkpt><trkpt lat="42.1211356" lon="12.8838063"><ele>1026.0</ele><time>2026-05-02T12:54:05.985Z</time></trkpt><trkpt lat="42.1210594" lon="12.8838943"><ele>1026.0</ele><time>2026-05-02T12:54:06.992Z</time></trkpt><trkpt lat="42.120978" lon="12.8839857"><ele>1026.0</ele><time>2026-05-02T12:54:08Z</time></trkpt><trkpt lat="42.1209081" lon="12.8840701"><ele>1026.0</ele><time>2026-05-02T12:54:08.99Z</time></trkpt><trkpt lat="42.120844" lon="12.8841524"><ele>1026.0</ele><time>2026-05-02T12:54:09.987Z</time></trkpt><trkpt lat="42.1207818" lon="12.8842239"><ele>1026.0</ele><time>2026-05-02T12:54:10.999Z</time></trkpt><trkpt lat="42.1207235" lon="12.8842976"><ele>1027.6666666666667</ele><time>2026-05-02T12:54:11.995Z</time></trkpt><trkpt lat="42.1206627" lon="12.8843821"><ele>1029.3333333333333</ele><time>2026-05-02T12:54:12.994Z</time></trkpt><trkpt lat="42.1205985" lon="12.8844649"><ele>1031.0</ele><time>2026-05-02T12:54:13.994Z</time></trkpt><trkpt lat="42.1205308" lon="12.8845434"><ele>1032.6666666666665</ele><time>2026-05-02T12:54:14.997Z</time></trkpt><trkpt lat="42.1204674" lon="12.8846269"><ele>1034.3333333333333</ele><time>2026-05-02T12:54:15.994Z</time></trkpt><trkpt lat="42.1204114" lon="12.8846929"><ele>1036.0</ele><time>2026-05-02T12:54:16.992Z</time></trkpt><trkpt lat="42.1203313" lon="12.8847811"><ele>1036.0</ele><time>2026-05-02T12:54:18.997Z</time></trkpt><trkpt lat="42.1202882" lon="12.8848654"><ele>1036.0</ele><time>2026-05-02T12:54:20.994Z</time></trkpt><trkpt lat="42.1202416" lon="12.8849309"><ele>1036.0</ele><time>2026-05-02T12:54:32.952Z</time></trkpt><trkpt lat="42.1201712" lon="12.8849513"><ele>1036.0</ele><time>2026-05-02T12:54:38.952Z</time></trkpt><trkpt lat="42.1200914" lon="12.8849024"><ele>1036.0</ele><time>2026-05-02T12:54:41.945Z</time></trkpt><trkpt lat="42.1200024" lon="12.8849531"><ele>1036.0</ele><time>2026-05-02T12:54:51.95Z</time></trkpt><trkpt lat="42.1199021" lon="12.8850495"><ele>1039.5</ele><time>2026-05-02T12:54:53.954Z</time></trkpt><trkpt lat="42.119852" lon="12.8851152"><ele>1043.0</ele><time>2026-05-02T12:54:54.959Z</time></trkpt><trkpt lat="42.119792" lon="12.8851669"><ele>1046.5</ele><time>2026-05-02T12:54:55.969Z</time></trkpt><trkpt lat="42.1197103" lon="12.8852504"><ele>1050.0</ele><time>2026-05-02T12:54:57.953Z</time></trkpt><trkpt lat="42.1196439" lon="12.8853263"><ele>1053.5</ele><time>2026-05-02T12:54:59.952Z</time></trkpt><trkpt lat="42.1195413" lon="12.8854027"><ele>1057.0</ele><time>2026-05-02T12:55:01.949Z</time></trkpt><trkpt lat="42.1194431" lon="12.8854924"><ele>1057.0</ele><time>2026-05-02T12:55:03.945Z</time></trkpt><trkpt lat="42.1193935" lon="12.885567"><ele>1057.0</ele><time>2026-05-02T12:55:04.956Z</time></trkpt><trkpt lat="42.1193466" lon="12.8856593"><ele>1057.0</ele><time>2026-05-02T12:55:05.954Z</time></trkpt><trkpt lat="42.1192939" lon="12.8857605"><ele>1057.0</ele><time>2026-05-02T12:55:06.954Z</time></trkpt><trkpt lat="42.1192637" lon="12.8858601"><ele>1057.0</ele><time>2026-05-02T12:55:07.961Z</time></trkpt><trkpt lat="42.1192219" lon="12.8859616"><ele>1057.0</ele><time>2026-05-02T12:55:08.947Z</time></trkpt><trkpt lat="42.1191681" lon="12.8860699"><ele>1057.8333333333333</ele><time>2026-05-02T12:55:09.95Z</time></trkpt><trkpt lat="42.1191221" lon="12.8861632"><ele>1058.6666666666665</ele><time>2026-05-02T12:55:10.945Z</time></trkpt><trkpt lat="42.1190703" lon="12.8862514"><ele>1059.5</ele><time>2026-05-02T12:55:11.95Z</time></trkpt><trkpt lat="42.1190221" lon="12.8863195"><ele>1060.3333333333333</ele><time>2026-05-02T12:55:12.948Z</time></trkpt><trkpt lat="42.1189646" lon="12.8863781"><ele>1061.1666666666667</ele><time>2026-05-02T12:55:13.952Z</time></trkpt><trkpt lat="42.1189104" lon="12.8864491"><ele>1062.0</ele><time>2026-05-02T12:55:14.946Z</time></trkpt><trkpt lat="42.1188524" lon="12.8865208"><ele>1065.0</ele><time>2026-05-02T12:55:15.95Z</time></trkpt><trkpt lat="42.1187964" lon="12.8865914"><ele>1068.0</ele><time>2026-05-02T12:55:16.947Z</time></trkpt><trkpt lat="42.1187482" lon="12.8866626"><ele>1071.0</ele><time>2026-05-02T12:55:17.943Z</time></trkpt><trkpt lat="42.1187054" lon="12.8867257"><ele>1074.0</ele><time>2026-05-02T12:55:18.946Z</time></trkpt><trkpt lat="42.1186677" lon="12.8868063"><ele>1077.0</ele><time>2026-05-02T12:55:19.948Z</time></trkpt><trkpt lat="42.1186268" lon="12.8868911"><ele>1080.0</ele><time>2026-05-02T12:55:20.943Z</time></trkpt><trkpt lat="42.1185873" lon="12.8869581"><ele>1083.0</ele><time>2026-05-02T12:55:21.949Z</time></trkpt><trkpt lat="42.1185606" lon="12.8870391"><ele>1083.0</ele><time>2026-05-02T12:55:22.95Z</time></trkpt><trkpt lat="42.1185475" lon="12.8871235"><ele>1083.0</ele><time>2026-05-02T12:55:23.95Z</time></trkpt><trkpt lat="42.1185686" lon="12.8872814"><ele>1083.0</ele><time>2026-05-02T12:55:25.954Z</time></trkpt><trkpt lat="42.1186129" lon="12.8874189"><ele>1083.0</ele><time>2026-05-02T12:55:27.962Z</time></trkpt><trkpt lat="42.1185993" lon="12.8875388"><ele>1083.0</ele><time>2026-05-02T12:55:29.953Z</time></trkpt><trkpt lat="42.1184965" lon="12.8875307"><ele>1083.0</ele><time>2026-05-02T12:55:39.956Z</time></trkpt><trkpt lat="42.1184015" lon="12.8874403"><ele>1083.0</ele><time>2026-05-02T12:55:41.964Z</time></trkpt><trkpt lat="42.1183243" lon="12.8873065"><ele>1083.0</ele><time>2026-05-02T12:55:43.956Z</time></trkpt><trkpt lat="42.1182887" lon="12.8872217"><ele>1083.0</ele><time>2026-05-02T12:55:44.957Z</time></trkpt><trkpt lat="42.1182022" lon="12.8870892"><ele>1083.0</ele><time>2026-05-02T12:55:46.945Z</time></trkpt><trkpt lat="42.1181353" lon="12.8870092"><ele>1085.1666666666667</ele><time>2026-05-02T12:55:48.954Z</time></trkpt><trkpt lat="42.118065" lon="12.8869845"><ele>1087.3333333333333</ele><time>2026-05-02T12:55:50.96Z</time></trkpt><trkpt lat="42.1179828" lon="12.887044"><ele>1089.5</ele><time>2026-05-02T12:55:52.953Z</time></trkpt><trkpt lat="42.1179551" lon="12.8871562"><ele>1091.6666666666665</ele><time>2026-05-02T12:55:54.954Z</time></trkpt><trkpt lat="42.1180129" lon="12.8872644"><ele>1093.8333333333333</ele><time>2026-05-02T12:55:56.954Z</time></trkpt><trkpt lat="42.1180888" lon="12.8873395"><ele>1096.0</ele><time>2026-05-02T12:55:58.952Z</time></trkpt><trkpt lat="42.1181498" lon="12.8874723"><ele>1093.0</ele><time>2026-05-02T12:56:00.956Z</time></trkpt><trkpt lat="42.1181577" lon="12.8876369"><ele>1090.0</ele><time>2026-05-02T12:56:02.953Z</time></trkpt><trkpt lat="42.1181375" lon="12.8877365"><ele>1087.0</ele><time>2026-05-02T12:56:03.949Z</time></trkpt><trkpt lat="42.1181136" lon="12.8878284"><ele>1084.0</ele><time>2026-05-02T12:56:04.95Z</time></trkpt><trkpt lat="42.1180817" lon="12.8879115"><ele>1081.0</ele><time>2026-05-02T12:56:05.95Z</time></trkpt><trkpt lat="42.1180384" lon="12.8879888"><ele>1078.0</ele><time>2026-05-02T12:56:06.957Z</time></trkpt><trkpt lat="42.1179893" lon="12.8880539"><ele>1078.0</ele><time>2026-05-02T12:56:07.962Z</time></trkpt><trkpt lat="42.1179009" lon="12.8881549"><ele>1078.0</ele><time>2026-05-02T12:56:09.948Z</time></trkpt><trkpt lat="42.1178183" lon="12.8882109"><ele>1078.0</ele><time>2026-05-02T12:56:12.957Z</time></trkpt><trkpt lat="42.1177906" lon="12.8883356"><ele>1078.0</ele><time>2026-05-02T12:56:14.964Z</time></trkpt><trkpt lat="42.1177659" lon="12.8884319"><ele>1078.0</ele><time>2026-05-02T12:56:16.956Z</time></trkpt><trkpt lat="42.1177406" lon="12.8885119"><ele>1078.0</ele><time>2026-05-02T12:56:33.974Z</time></trkpt><trkpt lat="42.1177148" lon="12.8886022"><ele>1075.1666666666665</ele><time>2026-05-02T12:56:55.952Z</time></trkpt><trkpt lat="42.1176546" lon="12.8886849"><ele>1072.3333333333333</ele><time>2026-05-02T12:56:57.959Z</time></trkpt><trkpt lat="42.1175979" lon="12.8887642"><ele>1069.5</ele><time>2026-05-02T12:57:08.951Z</time></trkpt><trkpt lat="42.1175344" lon="12.8887658"><ele>1066.6666666666667</ele><time>2026-05-02T12:57:34.947Z</time></trkpt><trkpt lat="42.1174676" lon="12.8888055"><ele>1063.8333333333335</ele><time>2026-05-02T12:57:52.952Z</time></trkpt><trkpt lat="42.1174132" lon="12.8888918"><ele>1061.0</ele><time>2026-05-02T12:57:56.945Z</time></trkpt><trkpt lat="42.1173676" lon="12.8889556"><ele>1061.0</ele><time>2026-05-02T12:57:58.943Z</time></trkpt><trkpt lat="42.1174109" lon="12.8890539"><ele>1061.0</ele><time>2026-05-02T12:58:01.938Z</time></trkpt><trkpt lat="42.1174787" lon="12.8891164"><ele>1061.0</ele><time>2026-05-02T12:58:03.947Z</time></trkpt><trkpt lat="42.1175642" lon="12.8891441"><ele>1061.0</ele><time>2026-05-02T12:58:05.947Z</time></trkpt><trkpt lat="42.1176355" lon="12.8891566"><ele>1061.0</ele><time>2026-05-02T12:58:07.949Z</time></trkpt><trkpt lat="42.117752" lon="12.8891953"><ele>1061.0</ele><time>2026-05-02T12:58:09.946Z</time></trkpt><trkpt lat="42.1178575" lon="12.8892482"><ele>1059.3333333333335</ele><time>2026-05-02T12:58:11.946Z</time></trkpt><trkpt lat="42.1179578" lon="12.8893482"><ele>1057.6666666666667</ele><time>2026-05-02T12:58:13.946Z</time></trkpt><trkpt lat="42.1180033" lon="12.8894165"><ele>1056.0</ele><time>2026-05-02T12:58:14.957Z</time></trkpt><trkpt lat="42.1180421" lon="12.8894865"><ele>1054.3333333333333</ele><time>2026-05-02T12:58:15.947Z</time></trkpt><trkpt lat="42.1180799" lon="12.8895654"><ele>1052.6666666666665</ele><time>2026-05-02T12:58:16.948Z</time></trkpt><trkpt lat="42.1180953" lon="12.8896528"><ele>1051.0</ele><time>2026-05-02T12:58:17.946Z</time></trkpt><trkpt lat="42.1181055" lon="12.8898029"><ele>1051.0</ele><time>2026-05-02T12:58:19.942Z</time></trkpt><trkpt lat="42.1181235" lon="12.8899972"><ele>1051.0</ele><time>2026-05-02T12:58:21.945Z</time></trkpt><trkpt lat="42.1181393" lon="12.8901497"><ele>1051.0</ele><time>2026-05-02T12:58:23.94Z</time></trkpt><trkpt lat="42.1181514" lon="12.8902387"><ele>1051.0</ele><time>2026-05-02T12:58:24.95Z</time></trkpt><trkpt lat="42.1181699" lon="12.8903419"><ele>1051.0</ele><time>2026-05-02T12:58:25.947Z</time></trkpt><trkpt lat="42.1181794" lon="12.8904361"><ele>1071.0</ele><time>2026-05-02T12:58:26.949Z</time></trkpt><trkpt lat="42.1187213" lon="12.890864"><ele>1068.0</ele><time>2026-05-02T12:58:28.948Z</time></trkpt><trkpt lat="42.1187522" lon="12.8909769"><ele>1065.0</ele><time>2026-05-02T12:58:29.941Z</time></trkpt><trkpt lat="42.1187894" lon="12.8910976"><ele>1062.0</ele><time>2026-05-02T12:58:30.938Z</time></trkpt><trkpt lat="42.1188046" lon="12.8912249"><ele>1059.0</ele><time>2026-05-02T12:58:31.944Z</time></trkpt><trkpt lat="42.1188151" lon="12.8913385"><ele>1056.0</ele><time>2026-05-02T12:58:32.947Z</time></trkpt><trkpt lat="42.1188492" lon="12.8914467"><ele>1056.0</ele><time>2026-05-02T12:58:33.945Z</time></trkpt><trkpt lat="42.1188833" lon="12.8915477"><ele>1056.0</ele><time>2026-05-02T12:58:34.945Z</time></trkpt><trkpt lat="42.1189165" lon="12.8916372"><ele>1056.0</ele><time>2026-05-02T12:58:35.947Z</time></trkpt><trkpt lat="42.1189613" lon="12.8917299"><ele>1056.0</ele><time>2026-05-02T12:58:36.942Z</time></trkpt><trkpt lat="42.1190015" lon="12.8918001"><ele>1056.0</ele><time>2026-05-02T12:58:37.955Z</time></trkpt><trkpt lat="42.1190344" lon="12.8919335"><ele>1056.0</ele><time>2026-05-02T12:58:39.932Z</time></trkpt><trkpt lat="42.1190756" lon="12.8920806"><ele>1056.8</ele><time>2026-05-02T12:58:41.939Z</time></trkpt><trkpt lat="42.1191133" lon="12.8922399"><ele>1057.6</ele><time>2026-05-02T12:58:43.944Z</time></trkpt><trkpt lat="42.1191149" lon="12.8923812"><ele>1058.4</ele><time>2026-05-02T12:58:45.944Z</time></trkpt><trkpt lat="42.119093" lon="12.8925171"><ele>1059.2</ele><time>2026-05-02T12:58:47.943Z</time></trkpt><trkpt lat="42.1190803" lon="12.8926576"><ele>1060.0</ele><time>2026-05-02T12:58:49.976Z</time></trkpt><trkpt lat="42.1190813" lon="12.8928137"><ele>1057.5</ele><time>2026-05-02T12:58:51.948Z</time></trkpt><trkpt lat="42.1190397" lon="12.8929792"><ele>1055.0</ele><time>2026-05-02T12:58:53.945Z</time></trkpt><trkpt lat="42.1189775" lon="12.8931202"><ele>1052.5</ele><time>2026-05-02T12:58:55.948Z</time></trkpt><trkpt lat="42.1189002" lon="12.893221"><ele>1050.0</ele><time>2026-05-02T12:58:57.946Z</time></trkpt><trkpt lat="42.1188019" lon="12.8932251"><ele>1050.0</ele><time>2026-05-02T12:58:59.938Z</time></trkpt><trkpt lat="42.1187485" lon="12.8931788"><ele>1050.0</ele><time>2026-05-02T12:59:00.94Z</time></trkpt><trkpt lat="42.1187025" lon="12.8931126"><ele>1050.0</ele><time>2026-05-02T12:59:01.941Z</time></trkpt><trkpt lat="42.1186513" lon="12.8929602"><ele>1050.0</ele><time>2026-05-02T12:59:03.948Z</time></trkpt><trkpt lat="42.1186386" lon="12.8928671"><ele>1050.0</ele><time>2026-05-02T12:59:04.948Z</time></trkpt><trkpt lat="42.1186229" lon="12.8927747"><ele>1050.0</ele><time>2026-05-02T12:59:05.94Z</time></trkpt><trkpt lat="42.1185664" lon="12.8926277"><ele>1050.0</ele><time>2026-05-02T12:59:07.967Z</time></trkpt><trkpt lat="42.1184777" lon="12.8925567"><ele>1050.0</ele><time>2026-05-02T12:59:09.951Z</time></trkpt><trkpt lat="42.1183542" lon="12.8926128"><ele>1050.0</ele><time>2026-05-02T12:59:11.945Z</time></trkpt><trkpt lat="42.1183078" lon="12.8926714"><ele>1050.0</ele><time>2026-05-02T12:59:12.951Z</time></trkpt><trkpt lat="42.1182624" lon="12.8927409"><ele>1050.0</ele><time>2026-05-02T12:59:13.945Z</time></trkpt><trkpt lat="42.1182091" lon="12.8928129"><ele>1050.0</ele><time>2026-05-02T12:59:14.949Z</time></trkpt><trkpt lat="42.1181562" lon="12.8928743"><ele>1046.6666666666667</ele><time>2026-05-02T12:59:15.944Z</time></trkpt><trkpt lat="42.1180896" lon="12.8929153"><ele>1043.3333333333333</ele><time>2026-05-02T12:59:16.948Z</time></trkpt><trkpt lat="42.1180262" lon="12.8929439"><ele>1040.0</ele><time>2026-05-02T12:59:17.947Z</time></trkpt><trkpt lat="42.1179649" lon="12.8929748"><ele>1036.6666666666665</ele><time>2026-05-02T12:59:18.95Z</time></trkpt><trkpt lat="42.1179047" lon="12.8929998"><ele>1033.3333333333333</ele><time>2026-05-02T12:59:19.948Z</time></trkpt><trkpt lat="42.1178043" lon="12.8930979"><ele>1030.0</ele><time>2026-05-02T12:59:21.949Z</time></trkpt><trkpt lat="42.1177558" lon="12.8931563"><ele>1030.0</ele><time>2026-05-02T12:59:22.963Z</time></trkpt><trkpt lat="42.117699" lon="12.8932105"><ele>1030.0</ele><time>2026-05-02T12:59:23.972Z</time></trkpt><trkpt lat="42.1176324" lon="12.8932528"><ele>1030.0</ele><time>2026-05-02T12:59:24.94Z</time></trkpt><trkpt lat="42.1175712" lon="12.8932979"><ele>1030.0</ele><time>2026-05-02T12:59:25.944Z</time></trkpt><trkpt lat="42.1175254" lon="12.8933571"><ele>1030.0</ele><time>2026-05-02T12:59:26.949Z</time></trkpt><trkpt lat="42.1174773" lon="12.8934134"><ele>1030.0</ele><time>2026-05-02T12:59:27.945Z</time></trkpt><trkpt lat="42.1174299" lon="12.8934711"><ele>1030.0</ele><time>2026-05-02T12:59:28.944Z</time></trkpt><trkpt lat="42.1173548" lon="12.893585"><ele>1023.4</ele><time>2026-05-02T12:59:30.94Z</time></trkpt><trkpt lat="42.1173021" lon="12.8937248"><ele>1016.8</ele><time>2026-05-02T12:59:32.936Z</time></trkpt><trkpt lat="42.1172543" lon="12.8938469"><ele>1010.2</ele><time>2026-05-02T12:59:34.944Z</time></trkpt><trkpt lat="42.1172353" lon="12.8939861"><ele>1003.6</ele><time>2026-05-02T12:59:36.944Z</time></trkpt><trkpt lat="42.1172299" lon="12.8941248"><ele>997.0</ele><time>2026-05-02T12:59:38.95Z</time></trkpt><trkpt lat="42.1172139" lon="12.8942107"><ele>997.4000000000001</ele><time>2026-05-02T12:59:40.037Z</time></trkpt><trkpt lat="42.1172174" lon="12.8943004"><ele>997.8000000000001</ele><time>2026-05-02T12:59:40.95Z</time></trkpt><trkpt lat="42.1171927" lon="12.8944519"><ele>998.2</ele><time>2026-05-02T12:59:42.953Z</time></trkpt><trkpt lat="42.1171498" lon="12.8946089"><ele>998.6</ele><time>2026-05-02T12:59:44.948Z</time></trkpt><trkpt lat="42.1171107" lon="12.8946864"><ele>999.0</ele><time>2026-05-02T12:59:45.947Z</time></trkpt><trkpt lat="42.117045" lon="12.8948062"><ele>999.0</ele><time>2026-05-02T12:59:47.948Z</time></trkpt><trkpt lat="42.1170116" lon="12.8949286"><ele>999.0000000000001</ele><time>2026-05-02T12:59:49.945Z</time></trkpt><trkpt lat="42.1170068" lon="12.8950557"><ele>999.0000000000001</ele><time>2026-05-02T12:59:51.944Z</time></trkpt><trkpt lat="42.1170631" lon="12.89518"><ele>999.0</ele><time>2026-05-02T12:59:53.943Z</time></trkpt><trkpt lat="42.1171364" lon="12.8952671"><ele>999.0</ele><time>2026-05-02T12:59:55.948Z</time></trkpt><trkpt lat="42.1172248" lon="12.895353"><ele>1000.0</ele><time>2026-05-02T12:59:57.953Z</time></trkpt><trkpt lat="42.1172829" lon="12.8953957"><ele>1001.0</ele><time>2026-05-02T12:59:58.937Z</time></trkpt><trkpt lat="42.1173421" lon="12.8954355"><ele>1002.0</ele><time>2026-05-02T12:59:59.926Z</time></trkpt><trkpt lat="42.1174375" lon="12.8954954"><ele>1003.0</ele><time>2026-05-02T13:00:01.925Z</time></trkpt><trkpt lat="42.117527" lon="12.8955796"><ele>1004.0</ele><time>2026-05-02T13:00:03.929Z</time></trkpt><trkpt lat="42.1175771" lon="12.8956459"><ele>1005.0</ele><time>2026-05-02T13:00:04.92Z</time></trkpt><trkpt lat="42.117616" lon="12.8957183"><ele>1005.0</ele><time>2026-05-02T13:00:05.926Z</time></trkpt><trkpt lat="42.1176628" lon="12.8957953"><ele>1005.0</ele><time>2026-05-02T13:00:06.929Z</time></trkpt><trkpt lat="42.1177114" lon="12.8958751"><ele>1005.0</ele><time>2026-05-02T13:00:07.923Z</time></trkpt><trkpt lat="42.1177574" lon="12.8959522"><ele>1005.0</ele><time>2026-05-02T13:00:08.931Z</time></trkpt><trkpt lat="42.1178127" lon="12.8960335"><ele>1005.0</ele><time>2026-05-02T13:00:09.918Z</time></trkpt><trkpt lat="42.1178942" lon="12.8961436"><ele>1005.0</ele><time>2026-05-02T13:00:11.914Z</time></trkpt><trkpt lat="42.1179367" lon="12.8962232"><ele>1000.8</ele><time>2026-05-02T13:00:12.927Z</time></trkpt><trkpt lat="42.11798" lon="12.8963033"><ele>996.6</ele><time>2026-05-02T13:00:13.92Z</time></trkpt><trkpt lat="42.1180117" lon="12.8964096"><ele>992.4000000000001</ele><time>2026-05-02T13:00:14.92Z</time></trkpt><trkpt lat="42.118046" lon="12.8965039"><ele>988.2</ele><time>2026-05-02T13:00:16.076Z</time></trkpt><trkpt lat="42.1181207" lon="12.8967409"><ele>984.0</ele><time>2026-05-02T13:00:17.96Z</time></trkpt><trkpt lat="42.1181594" lon="12.89684"><ele>984.6666666666666</ele><time>2026-05-02T13:00:18.934Z</time></trkpt><trkpt lat="42.1181984" lon="12.8969402"><ele>985.3333333333333</ele><time>2026-05-02T13:00:19.922Z</time></trkpt><trkpt lat="42.1182323" lon="12.8970453"><ele>986.0</ele><time>2026-05-02T13:00:20.927Z</time></trkpt><trkpt lat="42.1182601" lon="12.8971371"><ele>986.6666666666666</ele><time>2026-05-02T13:00:21.927Z</time></trkpt><trkpt lat="42.1182874" lon="12.8972501"><ele>987.3333333333333</ele><time>2026-05-02T13:00:22.922Z</time></trkpt><trkpt lat="42.1183191" lon="12.8973668"><ele>988.0</ele><time>2026-05-02T13:00:23.927Z</time></trkpt><trkpt lat="42.1183589" lon="12.8974809"><ele>984.9999999999999</ele><time>2026-05-02T13:00:24.919Z</time></trkpt><trkpt lat="42.1184104" lon="12.8975881"><ele>982.0</ele><time>2026-05-02T13:00:25.927Z</time></trkpt><trkpt lat="42.1184737" lon="12.897682"><ele>979.0</ele><time>2026-05-02T13:00:26.95Z</time></trkpt><trkpt lat="42.1185328" lon="12.8977773"><ele>976.0</ele><time>2026-05-02T13:00:27.944Z</time></trkpt><trkpt lat="42.1185931" lon="12.897864"><ele>972.9999999999999</ele><time>2026-05-02T13:00:28.93Z</time></trkpt><trkpt lat="42.1186469" lon="12.8979374"><ele>970.0</ele><time>2026-05-02T13:00:29.919Z</time></trkpt><trkpt lat="42.118698" lon="12.8980233"><ele>969.9999999999999</ele><time>2026-05-02T13:00:30.919Z</time></trkpt><trkpt lat="42.1187576" lon="12.8980969"><ele>970.0</ele><time>2026-05-02T13:00:31.928Z</time></trkpt><trkpt lat="42.1188026" lon="12.8981672"><ele>970.0</ele><time>2026-05-02T13:00:32.952Z</time></trkpt><trkpt lat="42.1188349" lon="12.8982541"><ele>970.0</ele><time>2026-05-02T13:00:33.927Z</time></trkpt><trkpt lat="42.1188469" lon="12.8983491"><ele>969.9999999999999</ele><time>2026-05-02T13:00:34.928Z</time></trkpt><trkpt lat="42.1188626" lon="12.8984404"><ele>970.0</ele><time>2026-05-02T13:00:35.923Z</time></trkpt><trkpt lat="42.1188865" lon="12.898616"><ele>968.9999999999999</ele><time>2026-05-02T13:00:37.929Z</time></trkpt><trkpt lat="42.1188882" lon="12.898751"><ele>968.0</ele><time>2026-05-02T13:00:38.93Z</time></trkpt><trkpt lat="42.1188874" lon="12.8988641"><ele>967.0</ele><time>2026-05-02T13:00:39.932Z</time></trkpt><trkpt lat="42.1188792" lon="12.8989586"><ele>966.0</ele><time>2026-05-02T13:00:40.931Z</time></trkpt><trkpt lat="42.1188669" lon="12.89906"><ele>964.9999999999999</ele><time>2026-05-02T13:00:41.926Z</time></trkpt><trkpt lat="42.1188586" lon="12.8991483"><ele>964.0</ele><time>2026-05-02T13:00:42.93Z</time></trkpt><trkpt lat="42.1188346" lon="12.8993158"><ele>963.9999999999999</ele><time>2026-05-02T13:00:44.93Z</time></trkpt><trkpt lat="42.1187787" lon="12.8994434"><ele>964.0</ele><time>2026-05-02T13:00:46.927Z</time></trkpt><trkpt lat="42.1187357" lon="12.8995097"><ele>964.0</ele><time>2026-05-02T13:00:47.937Z</time></trkpt><trkpt lat="42.1186882" lon="12.8995866"><ele>964.0</ele><time>2026-05-02T13:00:48.936Z</time></trkpt><trkpt lat="42.1186462" lon="12.8996594"><ele>963.9999999999999</ele><time>2026-05-02T13:00:49.94Z</time></trkpt><trkpt lat="42.1185862" lon="12.8997943"><ele>964.0</ele><time>2026-05-02T13:00:51.941Z</time></trkpt><trkpt lat="42.1185605" lon="12.8999529"><ele>963.9999999999999</ele><time>2026-05-02T13:00:53.938Z</time></trkpt><trkpt lat="42.1185484" lon="12.9000402"><ele>964.0</ele><time>2026-05-02T13:00:54.93Z</time></trkpt><trkpt lat="42.1185326" lon="12.9002096"><ele>964.0</ele><time>2026-05-02T13:00:56.936Z</time></trkpt><trkpt lat="42.1185264" lon="12.9002963"><ele>964.0</ele><time>2026-05-02T13:00:57.934Z</time></trkpt><trkpt lat="42.1185298" lon="12.9003845"><ele>963.9999999999999</ele><time>2026-05-02T13:00:58.925Z</time></trkpt><trkpt lat="42.1185271" lon="12.9004719"><ele>964.0</ele><time>2026-05-02T13:00:59.937Z</time></trkpt><trkpt lat="42.1185236" lon="12.9005589"><ele>961.8000000000001</ele><time>2026-05-02T13:01:00.934Z</time></trkpt><trkpt lat="42.1185675" lon="12.9006914"><ele>959.6000000000001</ele><time>2026-05-02T13:01:02.926Z</time></trkpt><trkpt lat="42.1186072" lon="12.9007595"><ele>957.4</ele><time>2026-05-02T13:01:03.956Z</time></trkpt><trkpt lat="42.1187065" lon="12.9008764"><ele>955.2</ele><time>2026-05-02T13:01:05.93Z</time></trkpt><trkpt lat="42.1187693" lon="12.9009151"><ele>953.0</ele><time>2026-05-02T13:01:06.928Z</time></trkpt><trkpt lat="42.118838" lon="12.9009634"><ele>953.2</ele><time>2026-05-02T13:01:07.93Z</time></trkpt><trkpt lat="42.1188956" lon="12.9010157"><ele>953.4</ele><time>2026-05-02T13:01:08.946Z</time></trkpt><trkpt lat="42.1190088" lon="12.9011094"><ele>953.6000000000001</ele><time>2026-05-02T13:01:11.241Z</time></trkpt><trkpt lat="42.1191062" lon="12.9011901"><ele>953.8000000000001</ele><time>2026-05-02T13:01:12.948Z</time></trkpt><trkpt lat="42.1191759" lon="12.9013071"><ele>954.0</ele><time>2026-05-02T13:01:14.927Z</time></trkpt><trkpt lat="42.1192265" lon="12.9014318"><ele>954.0</ele><time>2026-05-02T13:01:16.928Z</time></trkpt><trkpt lat="42.1192168" lon="12.9015387"><ele>954.0</ele><time>2026-05-02T13:01:17.928Z</time></trkpt><trkpt lat="42.1192128" lon="12.9016245"><ele>954.0</ele><time>2026-05-02T13:01:18.914Z</time></trkpt><trkpt lat="42.1192338" lon="12.9017986"><ele>954.0</ele><time>2026-05-02T13:01:20.922Z</time></trkpt><trkpt lat="42.1192598" lon="12.9018765"><ele>954.0</ele><time>2026-05-02T13:01:21.926Z</time></trkpt><trkpt lat="42.1192796" lon="12.9019654"><ele>954.0</ele><time>2026-05-02T13:01:22.932Z</time></trkpt><trkpt lat="42.1193242" lon="12.9020277"><ele>949.5</ele><time>2026-05-02T13:01:23.921Z</time></trkpt><trkpt lat="42.1193741" lon="12.9020962"><ele>945.0</ele><time>2026-05-02T13:01:24.93Z</time></trkpt><trkpt lat="42.1194909" lon="12.9022059"><ele>940.5</ele><time>2026-05-02T13:01:26.925Z</time></trkpt><trkpt lat="42.1195562" lon="12.9022571"><ele>936.0</ele><time>2026-05-02T13:01:27.924Z</time></trkpt><trkpt lat="42.1196153" lon="12.9023154"><ele>931.5</ele><time>2026-05-02T13:01:29.31Z</time></trkpt><trkpt lat="42.119683" lon="12.9023751"><ele>927.0</ele><time>2026-05-02T13:01:30.386Z</time></trkpt><trkpt lat="42.119749" lon="12.9024567"><ele>927.0</ele><time>2026-05-02T13:01:31.39Z</time></trkpt><trkpt lat="42.1198105" lon="12.9025105"><ele>927.0</ele><time>2026-05-02T13:01:32.464Z</time></trkpt><trkpt lat="42.1199096" lon="12.9026139"><ele>927.0</ele><time>2026-05-02T13:01:33.962Z</time></trkpt><trkpt lat="42.1199549" lon="12.9026996"><ele>927.0</ele><time>2026-05-02T13:01:34.948Z</time></trkpt><trkpt lat="42.1200226" lon="12.9028211"><ele>927.0</ele><time>2026-05-02T13:01:36.925Z</time></trkpt><trkpt lat="42.1200818" lon="12.9029921"><ele>927.5</ele><time>2026-05-02T13:01:38.929Z</time></trkpt><trkpt lat="42.1201073" lon="12.9030913"><ele>928.0</ele><time>2026-05-02T13:01:39.936Z</time></trkpt><trkpt lat="42.120133" lon="12.9031738"><ele>928.5</ele><time>2026-05-02T13:01:40.934Z</time></trkpt><trkpt lat="42.120164" lon="12.9032525"><ele>929.0</ele><time>2026-05-02T13:01:41.925Z</time></trkpt><trkpt lat="42.1201989" lon="12.9033967"><ele>929.5</ele><time>2026-05-02T13:01:43.929Z</time></trkpt><trkpt lat="42.1202362" lon="12.9035518"><ele>930.0</ele><time>2026-05-02T13:01:45.935Z</time></trkpt><trkpt lat="42.1202711" lon="12.9036333"><ele>927.1666666666666</ele><time>2026-05-02T13:01:46.951Z</time></trkpt><trkpt lat="42.1203022" lon="12.9037167"><ele>924.3333333333333</ele><time>2026-05-02T13:01:47.951Z</time></trkpt><trkpt lat="42.1203396" lon="12.9037946"><ele>921.5</ele><time>2026-05-02T13:01:48.925Z</time></trkpt><trkpt lat="42.1203639" lon="12.9038781"><ele>918.6666666666666</ele><time>2026-05-02T13:01:49.929Z</time></trkpt><trkpt lat="42.120426" lon="12.9040041"><ele>915.8333333333333</ele><time>2026-05-02T13:01:51.951Z</time></trkpt><trkpt lat="42.1204751" lon="12.9040688"><ele>913.0</ele><time>2026-05-02T13:01:52.952Z</time></trkpt><trkpt lat="42.120533" lon="12.9041399"><ele>912.9999999999999</ele><time>2026-05-02T13:01:53.949Z</time></trkpt><trkpt lat="42.1205964" lon="12.9041769"><ele>913.0</ele><time>2026-05-02T13:01:54.929Z</time></trkpt><trkpt lat="42.1206705" lon="12.9042144"><ele>913.0</ele><time>2026-05-02T13:01:55.924Z</time></trkpt><trkpt lat="42.1207568" lon="12.9042504"><ele>913.0</ele><time>2026-05-02T13:01:56.928Z</time></trkpt><trkpt lat="42.1208473" lon="12.9042767"><ele>912.9999999999999</ele><time>2026-05-02T13:01:57.927Z</time></trkpt><trkpt lat="42.1209313" lon="12.9042919"><ele>913.0</ele><time>2026-05-02T13:01:58.924Z</time></trkpt><trkpt lat="42.121003" lon="12.9043216"><ele>912.4</ele><time>2026-05-02T13:01:59.928Z</time></trkpt><trkpt lat="42.121072" lon="12.9043436"><ele>911.8</ele><time>2026-05-02T13:02:00.924Z</time></trkpt><trkpt lat="42.1211771" lon="12.9043777"><ele>911.2</ele><time>2026-05-02T13:02:02.931Z</time></trkpt><trkpt lat="42.1212748" lon="12.9044625"><ele>910.6</ele><time>2026-05-02T13:02:04.942Z</time></trkpt><trkpt lat="42.1213356" lon="12.9045979"><ele>910.0</ele><time>2026-05-02T13:02:06.925Z</time></trkpt><trkpt lat="42.1213661" lon="12.9046848"><ele>910.0</ele><time>2026-05-02T13:02:07.953Z</time></trkpt><trkpt lat="42.1214093" lon="12.9047571"><ele>910.0</ele><time>2026-05-02T13:02:08.948Z</time></trkpt><trkpt lat="42.1214731" lon="12.9048846"><ele>910.0</ele><time>2026-05-02T13:02:10.957Z</time></trkpt><trkpt lat="42.1215461" lon="12.9049984"><ele>910.0</ele><time>2026-05-02T13:02:12.929Z</time></trkpt><trkpt lat="42.121656" lon="12.9050978"><ele>910.0</ele><time>2026-05-02T13:02:14.922Z</time></trkpt><trkpt lat="42.1217132" lon="12.905162"><ele>908.2857142857142</ele><time>2026-05-02T13:02:15.926Z</time></trkpt><trkpt lat="42.1217734" lon="12.9052265"><ele>906.5714285714286</ele><time>2026-05-02T13:02:16.93Z</time></trkpt><trkpt lat="42.1218277" lon="12.9052853"><ele>904.8571428571429</ele><time>2026-05-02T13:02:17.925Z</time></trkpt><trkpt lat="42.1218726" lon="12.9053538"><ele>903.1428571428571</ele><time>2026-05-02T13:02:18.951Z</time></trkpt><trkpt lat="42.1219128" lon="12.905424"><ele>901.4285714285713</ele><time>2026-05-02T13:02:19.947Z</time></trkpt><trkpt lat="42.1219538" lon="12.9054967"><ele>899.7142857142857</ele><time>2026-05-02T13:02:20.924Z</time></trkpt><trkpt lat="42.1220012" lon="12.9055577"><ele>898.0</ele><time>2026-05-02T13:02:21.924Z</time></trkpt><trkpt lat="42.1220509" lon="12.9056454"><ele>898.0</ele><time>2026-05-02T13:02:22.95Z</time></trkpt><trkpt lat="42.1220897" lon="12.9057194"><ele>898.0</ele><time>2026-05-02T13:02:23.947Z</time></trkpt><trkpt lat="42.1221362" lon="12.9057912"><ele>898.0</ele><time>2026-05-02T13:02:24.945Z</time></trkpt><trkpt lat="42.1221892" lon="12.9058484"><ele>898.0</ele><time>2026-05-02T13:02:25.922Z</time></trkpt><trkpt lat="42.1222912" lon="12.9059193"><ele>898.0</ele><time>2026-05-02T13:02:27.822Z</time></trkpt><trkpt lat="42.1224067" lon="12.9060257"><ele>897.1666666666666</ele><time>2026-05-02T13:02:29.724Z</time></trkpt><trkpt lat="42.1225173" lon="12.9061081"><ele>896.3333333333333</ele><time>2026-05-02T13:02:31.616Z</time></trkpt><trkpt lat="42.1225828" lon="12.90617"><ele>895.5</ele><time>2026-05-02T13:02:32.62Z</time></trkpt><trkpt lat="42.1226361" lon="12.9062295"><ele>894.6666666666667</ele><time>2026-05-02T13:02:33.617Z</time></trkpt><trkpt lat="42.1226788" lon="12.9063039"><ele>893.8333333333334</ele><time>2026-05-02T13:02:34.616Z</time></trkpt><trkpt lat="42.1227202" lon="12.9063815"><ele>893.0</ele><time>2026-05-02T13:02:35.62Z</time></trkpt><trkpt lat="42.1227536" lon="12.9064547"><ele>893.0</ele><time>2026-05-02T13:02:36.618Z</time></trkpt><trkpt lat="42.1227842" lon="12.9065306"><ele>893.0</ele><time>2026-05-02T13:02:37.62Z</time></trkpt><trkpt lat="42.122817" lon="12.9066763"><ele>893.0</ele><time>2026-05-02T13:02:39.621Z</time></trkpt><trkpt lat="42.1228273" lon="12.9068251"><ele>893.0</ele><time>2026-05-02T13:02:41.66Z</time></trkpt><trkpt lat="42.1227919" lon="12.9069878"><ele>893.0</ele><time>2026-05-02T13:02:43.646Z</time></trkpt><trkpt lat="42.1227736" lon="12.9070733"><ele>892.5000000000001</ele><time>2026-05-02T13:02:44.638Z</time></trkpt><trkpt lat="42.1227248" lon="12.9071434"><ele>892.0</ele><time>2026-05-02T13:02:45.617Z</time></trkpt><trkpt lat="42.122679" lon="12.9072086"><ele>891.5</ele><time>2026-05-02T13:02:46.619Z</time></trkpt><trkpt lat="42.1225965" lon="12.9072964"><ele>891.0</ele><time>2026-05-02T13:02:48.619Z</time></trkpt><trkpt lat="42.1226334" lon="12.9073697"><ele>890.5000000000001</ele><time>2026-05-02T13:04:16.924Z</time></trkpt><trkpt lat="42.1227122" lon="12.9074172"><ele>890.0</ele><time>2026-05-02T13:04:20.92Z</time></trkpt><trkpt lat="42.1228223" lon="12.907477"><ele>890.0</ele><time>2026-05-02T13:04:24.921Z</time></trkpt><trkpt lat="42.122919" lon="12.9075023"><ele>890.0</ele><time>2026-05-02T13:04:28.926Z</time></trkpt><trkpt lat="42.1229651" lon="12.9076042"><ele>890.0</ele><time>2026-05-02T13:04:54.94Z</time></trkpt><trkpt lat="42.1228451" lon="12.907666"><ele>890.0</ele><time>2026-05-02T13:04:56.934Z</time></trkpt><trkpt lat="42.1227826" lon="12.9077111"><ele>890.0</ele><time>2026-05-02T13:04:57.954Z</time></trkpt><trkpt lat="42.1227077" lon="12.907735"><ele>891.1666666666667</ele><time>2026-05-02T13:04:58.945Z</time></trkpt><trkpt lat="42.1226497" lon="12.9077705"><ele>892.3333333333334</ele><time>2026-05-02T13:04:59.932Z</time></trkpt><trkpt lat="42.1225831" lon="12.9078074"><ele>893.5</ele><time>2026-05-02T13:05:00.934Z</time></trkpt><trkpt lat="42.1225084" lon="12.9078971"><ele>894.6666666666667</ele><time>2026-05-02T13:05:02.942Z</time></trkpt><trkpt lat="42.122482" lon="12.9079768"><ele>895.8333333333334</ele><time>2026-05-02T13:05:03.932Z</time></trkpt><trkpt lat="42.1224099" lon="12.9081175"><ele>897.0</ele><time>2026-05-02T13:05:05.934Z</time></trkpt><trkpt lat="42.1223925" lon="12.9082015"><ele>896.1666666666666</ele><time>2026-05-02T13:05:06.944Z</time></trkpt><trkpt lat="42.1223899" lon="12.9083022"><ele>895.3333333333333</ele><time>2026-05-02T13:05:07.934Z</time></trkpt><trkpt lat="42.122405" lon="12.9084182"><ele>894.5</ele><time>2026-05-02T13:05:08.94Z</time></trkpt><trkpt lat="42.1224124" lon="12.9085515"><ele>893.6666666666666</ele><time>2026-05-02T13:05:09.94Z</time></trkpt><trkpt lat="42.1224193" lon="12.9086821"><ele>892.8333333333333</ele><time>2026-05-02T13:05:10.958Z</time></trkpt><trkpt lat="42.1224275" lon="12.9087951"><ele>892.0</ele><time>2026-05-02T13:05:11.957Z</time></trkpt><trkpt lat="42.1224378" lon="12.9088929"><ele>891.9999999999999</ele><time>2026-05-02T13:05:12.942Z</time></trkpt><trkpt lat="42.1224534" lon="12.9089865"><ele>892.0</ele><time>2026-05-02T13:05:13.949Z</time></trkpt><trkpt lat="42.1224571" lon="12.9090728"><ele>892.0</ele><time>2026-05-02T13:05:14.937Z</time></trkpt><trkpt lat="42.1224671" lon="12.9091594"><ele>892.0</ele><time>2026-05-02T13:05:15.938Z</time></trkpt><trkpt lat="42.1224819" lon="12.9092579"><ele>891.9999999999999</ele><time>2026-05-02T13:05:16.933Z</time></trkpt><trkpt lat="42.1224582" lon="12.9094299"><ele>892.0</ele><time>2026-05-02T13:05:18.938Z</time></trkpt><trkpt lat="42.1224374" lon="12.909531"><ele>890.0</ele><time>2026-05-02T13:05:19.94Z</time></trkpt><trkpt lat="42.1224081" lon="12.9096443"><ele>888.0</ele><time>2026-05-02T13:05:20.934Z</time></trkpt><trkpt lat="42.1223687" lon="12.9097699"><ele>886.0</ele><time>2026-05-02T13:05:22.014Z</time></trkpt><trkpt lat="42.1223248" lon="12.9098834"><ele>884.0</ele><time>2026-05-02T13:05:22.937Z</time></trkpt><trkpt lat="42.1218897" lon="12.9101788"><ele>878.0000000000001</ele><time>2026-05-02T13:05:23.974Z</time></trkpt><trkpt lat="42.1218642" lon="12.9102773"><ele>872.0</ele><time>2026-05-02T13:05:24.938Z</time></trkpt><trkpt lat="42.1218548" lon="12.9103821"><ele>866.0</ele><time>2026-05-02T13:05:25.978Z</time></trkpt><trkpt lat="42.1218623" lon="12.9104976"><ele>860.0</ele><time>2026-05-02T13:05:26.946Z</time></trkpt><trkpt lat="42.1218688" lon="12.9106078"><ele>854.0000000000001</ele><time>2026-05-02T13:05:27.939Z</time></trkpt><trkpt lat="42.1218744" lon="12.9107029"><ele>848.0</ele><time>2026-05-02T13:05:28.933Z</time></trkpt><trkpt lat="42.1218916" lon="12.910865"><ele>845.4</ele><time>2026-05-02T13:05:30.944Z</time></trkpt><trkpt lat="42.1219302" lon="12.9109945"><ele>842.8</ele><time>2026-05-02T13:05:32.938Z</time></trkpt><trkpt lat="42.1219622" lon="12.9111245"><ele>840.2</ele><time>2026-05-02T13:05:34.945Z</time></trkpt><trkpt lat="42.1220047" lon="12.9112796"><ele>837.6</ele><time>2026-05-02T13:05:36.948Z</time></trkpt><trkpt lat="42.1220233" lon="12.911368"><ele>835.0</ele><time>2026-05-02T13:05:37.949Z</time></trkpt><trkpt lat="42.1220413" lon="12.9114805"><ele>835.0</ele><time>2026-05-02T13:05:38.948Z</time></trkpt><trkpt lat="42.1220581" lon="12.9115947"><ele>835.0</ele><time>2026-05-02T13:05:40.1Z</time></trkpt><trkpt lat="42.1220839" lon="12.9117831"><ele>835.0</ele><time>2026-05-02T13:05:41.946Z</time></trkpt><trkpt lat="42.1220937" lon="12.9119025"><ele>835.0</ele><time>2026-05-02T13:05:42.952Z</time></trkpt><trkpt lat="42.122105" lon="12.9120138"><ele>835.0</ele><time>2026-05-02T13:05:43.946Z</time></trkpt><trkpt lat="42.1221171" lon="12.9121074"><ele>833.3333333333333</ele><time>2026-05-02T13:05:44.944Z</time></trkpt><trkpt lat="42.1221376" lon="12.9122166"><ele>831.6666666666666</ele><time>2026-05-02T13:05:46.968Z</time></trkpt><trkpt lat="42.1221592" lon="12.9123045"><ele>830.0</ele><time>2026-05-02T13:07:00.956Z</time></trkpt><trkpt lat="42.1221756" lon="12.9124028"><ele>828.3333333333333</ele><time>2026-05-02T13:07:02.96Z</time></trkpt><trkpt lat="42.1221898" lon="12.9125717"><ele>826.6666666666666</ele><time>2026-05-02T13:07:04.945Z</time></trkpt><trkpt lat="42.1222044" lon="12.9126669"><ele>825.0</ele><time>2026-05-02T13:07:05.956Z</time></trkpt><trkpt lat="42.1222112" lon="12.9128504"><ele>825.0</ele><time>2026-05-02T13:07:07.951Z</time></trkpt><trkpt lat="42.1222342" lon="12.9129525"><ele>825.0</ele><time>2026-05-02T13:07:08.947Z</time></trkpt><trkpt lat="42.1222672" lon="12.9130528"><ele>825.0</ele><time>2026-05-02T13:07:09.944Z</time></trkpt><trkpt lat="42.1223007" lon="12.9131591"><ele>825.0</ele><time>2026-05-02T13:07:11.021Z</time></trkpt><trkpt lat="42.1223255" lon="12.9132499"><ele>825.0</ele><time>2026-05-02T13:07:12.097Z</time></trkpt><trkpt lat="42.1223601" lon="12.913398"><ele>825.0</ele><time>2026-05-02T13:07:13.953Z</time></trkpt><trkpt lat="42.1223831" lon="12.9134913"><ele>826.2</ele><time>2026-05-02T13:07:21.952Z</time></trkpt><trkpt lat="42.1224315" lon="12.9135849"><ele>827.4</ele><time>2026-05-02T13:07:24.956Z</time></trkpt><trkpt lat="42.1224843" lon="12.9136902"><ele>828.5999999999999</ele><time>2026-05-02T13:07:28.103Z</time></trkpt><trkpt lat="42.1225216" lon="12.9137844"><ele>829.8</ele><time>2026-05-02T13:07:29.943Z</time></trkpt><trkpt lat="42.1225809" lon="12.9139154"><ele>831.0</ele><time>2026-05-02T13:07:31.948Z</time></trkpt><trkpt lat="42.1226324" lon="12.9142141"><ele>829.8</ele><time>2026-05-02T13:07:34.967Z</time></trkpt><trkpt lat="42.1226368" lon="12.9143137"><ele>828.5999999999999</ele><time>2026-05-02T13:07:35.949Z</time></trkpt><trkpt lat="42.1226247" lon="12.9144013"><ele>827.4</ele><time>2026-05-02T13:07:37.096Z</time></trkpt><trkpt lat="42.1227178" lon="12.9146327"><ele>826.2</ele><time>2026-05-02T13:07:40.097Z</time></trkpt><trkpt lat="42.1227733" lon="12.9147207"><ele>825.0</ele><time>2026-05-02T13:07:41.1Z</time></trkpt><trkpt lat="42.1228397" lon="12.914843"><ele>825.0</ele><time>2026-05-02T13:07:42.102Z</time></trkpt><trkpt lat="42.1229551" lon="12.9150515"><ele>825.0</ele><time>2026-05-02T13:07:43.965Z</time></trkpt><trkpt lat="42.1229874" lon="12.9151379"><ele>825.0</ele><time>2026-05-02T13:07:44.996Z</time></trkpt><trkpt lat="42.1230339" lon="12.9153385"><ele>825.0</ele><time>2026-05-02T13:07:47.095Z</time></trkpt><trkpt lat="42.1230544" lon="12.9154616"><ele>824.75</ele><time>2026-05-02T13:07:48.096Z</time></trkpt><trkpt lat="42.1230607" lon="12.9157038"><ele>824.5</ele><time>2026-05-02T13:07:50.102Z</time></trkpt><trkpt lat="42.1230014" lon="12.9159204"><ele>824.25</ele><time>2026-05-02T13:07:51.952Z</time></trkpt><trkpt lat="42.1229478" lon="12.9160303"><ele>824.0</ele><time>2026-05-02T13:07:52.946Z</time></trkpt><trkpt lat="42.1228661" lon="12.9161444"><ele>824.0</ele><time>2026-05-02T13:07:53.944Z</time></trkpt><trkpt lat="42.1227812" lon="12.9162686"><ele>824.0</ele><time>2026-05-02T13:07:55.253Z</time></trkpt><trkpt lat="42.1226126" lon="12.9164905"><ele>824.0</ele><time>2026-05-02T13:07:56.965Z</time></trkpt><trkpt lat="42.122529" lon="12.9166181"><ele>824.0</ele><time>2026-05-02T13:07:58.106Z</time></trkpt><trkpt lat="42.1223822" lon="12.9168854"><ele>824.0</ele><time>2026-05-02T13:07:59.965Z</time></trkpt><trkpt lat="42.1223269" lon="12.9169961"><ele>824.0</ele><time>2026-05-02T13:08:00.953Z</time></trkpt><trkpt lat="42.1222719" lon="12.9171094"><ele>824.0</ele><time>2026-05-02T13:08:01.946Z</time></trkpt><trkpt lat="42.1222197" lon="12.9171902"><ele>824.0</ele><time>2026-05-02T13:08:02.94Z</time></trkpt><trkpt lat="42.1221784" lon="12.9172732"><ele>824.0</ele><time>2026-05-02T13:08:03.995Z</time></trkpt><trkpt lat="42.1223489" lon="12.917118"><ele>824.0</ele><time>2026-05-02T13:08:26.942Z</time></trkpt><trkpt lat="42.1223708" lon="12.917201"><ele>824.0</ele><time>2026-05-02T13:08:34.953Z</time></trkpt><trkpt lat="42.1223314" lon="12.9173128"><ele>824.0</ele><time>2026-05-02T13:08:54.949Z</time></trkpt><trkpt lat="42.1223509" lon="12.9174132"><ele>824.0</ele><time>2026-05-02T13:08:55.949Z</time></trkpt><trkpt lat="42.1223755" lon="12.9175419"><ele>824.0</ele><time>2026-05-02T13:08:56.953Z</time></trkpt><trkpt lat="42.1223768" lon="12.9177099"><ele>824.0</ele><time>2026-05-02T13:08:58.115Z</time></trkpt><trkpt lat="42.1222907" lon="12.918101"><ele>826.5</ele><time>2026-05-02T13:08:59.963Z</time></trkpt><trkpt lat="42.122178" lon="12.9183908"><ele>829.0</ele><time>2026-05-02T13:09:00.974Z</time></trkpt><trkpt lat="42.1220324" lon="12.9186753"><ele>829.0</ele><time>2026-05-02T13:09:01.971Z</time></trkpt><trkpt lat="42.1218823" lon="12.9189243"><ele>829.0</ele><time>2026-05-02T13:09:02.95Z</time></trkpt><trkpt lat="42.1217448" lon="12.9191427"><ele>827.0</ele><time>2026-05-02T13:09:03.948Z</time></trkpt><trkpt lat="42.1216334" lon="12.919368"><ele>825.0</ele><time>2026-05-02T13:09:04.954Z</time></trkpt><trkpt lat="42.1215764" lon="12.919572"><ele>823.0</ele><time>2026-05-02T13:09:05.946Z</time></trkpt><trkpt lat="42.1215124" lon="12.9197683"><ele>828.5</ele><time>2026-05-02T13:09:06.951Z</time></trkpt><trkpt lat="42.1214249" lon="12.9199484"><ele>834.0</ele><time>2026-05-02T13:09:07.941Z</time></trkpt><trkpt lat="42.1213072" lon="12.9200968"><ele>839.5</ele><time>2026-05-02T13:09:08.942Z</time></trkpt><trkpt lat="42.1212239" lon="12.9202069"><ele>845.0</ele><time>2026-05-02T13:09:09.942Z</time></trkpt><trkpt lat="42.1211686" lon="12.9203317"><ele>846.0</ele><time>2026-05-02T13:09:10.937Z</time></trkpt><trkpt lat="42.1211499" lon="12.9204677"><ele>847.0</ele><time>2026-05-02T13:09:11.944Z</time></trkpt><trkpt lat="42.1212126" lon="12.9206207"><ele>848.0</ele><time>2026-05-02T13:09:12.943Z</time></trkpt><trkpt lat="42.1213035" lon="12.9207828"><ele>849.0</ele><time>2026-05-02T13:09:13.931Z</time></trkpt><trkpt lat="42.1214051" lon="12.920935"><ele>851.6666666666667</ele><time>2026-05-02T13:09:14.951Z</time></trkpt><trkpt lat="42.1215162" lon="12.9210794"><ele>854.3333333333334</ele><time>2026-05-02T13:09:15.937Z</time></trkpt><trkpt lat="42.121648" lon="12.9212655"><ele>857.0</ele><time>2026-05-02T13:09:16.936Z</time></trkpt><trkpt lat="42.1217459" lon="12.9214457"><ele>849.0</ele><time>2026-05-02T13:09:17.94Z</time></trkpt><trkpt lat="42.1218018" lon="12.9216238"><ele>841.0</ele><time>2026-05-02T13:09:18.943Z</time></trkpt><trkpt lat="42.1218172" lon="12.9218215"><ele>833.0</ele><time>2026-05-02T13:09:19.938Z</time></trkpt><trkpt lat="42.1217835" lon="12.922053"><ele>833.0</ele><time>2026-05-02T13:09:20.938Z</time></trkpt><trkpt lat="42.1217332" lon="12.9222859"><ele>833.0</ele><time>2026-05-02T13:09:21.937Z</time></trkpt><trkpt lat="42.1216868" lon="12.9225142"><ele>833.0</ele><time>2026-05-02T13:09:22.943Z</time></trkpt><trkpt lat="42.1216476" lon="12.9227052"><ele>832.5</ele><time>2026-05-02T13:09:23.939Z</time></trkpt><trkpt lat="42.1216044" lon="12.9228913"><ele>832.0</ele><time>2026-05-02T13:09:24.949Z</time></trkpt><trkpt lat="42.1215431" lon="12.9230562"><ele>831.5</ele><time>2026-05-02T13:09:25.937Z</time></trkpt><trkpt lat="42.1214449" lon="12.9232333"><ele>831.0</ele><time>2026-05-02T13:09:26.943Z</time></trkpt><trkpt lat="42.1213312" lon="12.9234121"><ele>838.75</ele><time>2026-05-02T13:09:27.941Z</time></trkpt><trkpt lat="42.1212879" lon="12.9235686"><ele>846.5</ele><time>2026-05-02T13:09:28.941Z</time></trkpt><trkpt lat="42.1212786" lon="12.923758"><ele>854.25</ele><time>2026-05-02T13:09:29.938Z</time></trkpt><trkpt lat="42.121327" lon="12.9239104"><ele>862.0</ele><time>2026-05-02T13:09:30.947Z</time></trkpt><trkpt lat="42.1214213" lon="12.9240394"><ele>860.3333333333333</ele><time>2026-05-02T13:09:31.938Z</time></trkpt><trkpt lat="42.1215782" lon="12.9241259"><ele>858.6666666666667</ele><time>2026-05-02T13:09:32.956Z</time></trkpt><trkpt lat="42.1217652" lon="12.9242021"><ele>857.0</ele><time>2026-05-02T13:09:33.952Z</time></trkpt><trkpt lat="42.1219355" lon="12.9242694"><ele>857.0</ele><time>2026-05-02T13:09:34.936Z</time></trkpt><trkpt lat="42.1220897" lon="12.9243563"><ele>857.0</ele><time>2026-05-02T13:09:35.943Z</time></trkpt><trkpt lat="42.1221946" lon="12.9244617"><ele>857.0</ele><time>2026-05-02T13:09:36.944Z</time></trkpt><trkpt lat="42.1222495" lon="12.9245921"><ele>857.0</ele><time>2026-05-02T13:09:37.941Z</time></trkpt><trkpt lat="42.1222695" lon="12.9247656"><ele>857.0</ele><time>2026-05-02T13:09:38.945Z</time></trkpt><trkpt lat="42.1222405" lon="12.9249659"><ele>857.0</ele><time>2026-05-02T13:09:39.945Z</time></trkpt><trkpt lat="42.1222197" lon="12.9251438"><ele>857.0</ele><time>2026-05-02T13:09:40.933Z</time></trkpt><trkpt lat="42.1222168" lon="12.9252958"><ele>857.0</ele><time>2026-05-02T13:09:41.948Z</time></trkpt><trkpt lat="42.1222964" lon="12.925423"><ele>855.3333333333334</ele><time>2026-05-02T13:09:42.941Z</time></trkpt><trkpt lat="42.122431" lon="12.9254986"><ele>853.6666666666667</ele><time>2026-05-02T13:09:43.938Z</time></trkpt><trkpt lat="42.1225595" lon="12.9255626"><ele>852.0</ele><time>2026-05-02T13:09:44.949Z</time></trkpt><trkpt lat="42.1227279" lon="12.9255835"><ele>852.0</ele><time>2026-05-02T13:09:45.941Z</time></trkpt><trkpt lat="42.1229216" lon="12.9255771"><ele>852.0</ele><time>2026-05-02T13:09:46.937Z</time></trkpt><trkpt lat="42.1231106" lon="12.9255921"><ele>852.0</ele><time>2026-05-02T13:09:47.947Z</time></trkpt><trkpt lat="42.1232492" lon="12.9256517"><ele>848.5</ele><time>2026-05-02T13:09:48.945Z</time></trkpt><trkpt lat="42.1233173" lon="12.9257684"><ele>845.0</ele><time>2026-05-02T13:09:49.948Z</time></trkpt><trkpt lat="42.1233341" lon="12.9259439"><ele>841.5</ele><time>2026-05-02T13:09:50.954Z</time></trkpt><trkpt lat="42.1233413" lon="12.926072"><ele>838.0</ele><time>2026-05-02T13:09:51.947Z</time></trkpt><trkpt lat="42.1233028" lon="12.9262254"><ele>841.3333333333333</ele><time>2026-05-02T13:09:52.991Z</time></trkpt><trkpt lat="42.1231917" lon="12.9263992"><ele>844.6666666666667</ele><time>2026-05-02T13:09:53.945Z</time></trkpt><trkpt lat="42.1230432" lon="12.9265595"><ele>848.0</ele><time>2026-05-02T13:09:54.971Z</time></trkpt><trkpt lat="42.1229066" lon="12.926697"><ele>847.5</ele><time>2026-05-02T13:09:55.945Z</time></trkpt><trkpt lat="42.1227818" lon="12.9268441"><ele>847.0</ele><time>2026-05-02T13:09:56.947Z</time></trkpt><trkpt lat="42.1226693" lon="12.9269483"><ele>846.5</ele><time>2026-05-02T13:09:57.942Z</time></trkpt><trkpt lat="42.1225845" lon="12.9270653"><ele>846.0</ele><time>2026-05-02T13:09:58.99Z</time></trkpt><trkpt lat="42.1225214" lon="12.9272032"><ele>846.0</ele><time>2026-05-02T13:09:59.96Z</time></trkpt><trkpt lat="42.1225103" lon="12.9273425"><ele>846.0</ele><time>2026-05-02T13:10:00.965Z</time></trkpt><trkpt lat="42.1225669" lon="12.9274839"><ele>846.0</ele><time>2026-05-02T13:10:01.942Z</time></trkpt><trkpt lat="42.1226346" lon="12.9276138"><ele>846.0</ele><time>2026-05-02T13:10:02.943Z</time></trkpt><trkpt lat="42.1227671" lon="12.9277127"><ele>844.3333333333333</ele><time>2026-05-02T13:10:03.939Z</time></trkpt><trkpt lat="42.1229256" lon="12.9278107"><ele>842.6666666666666</ele><time>2026-05-02T13:10:04.941Z</time></trkpt><trkpt lat="42.1231261" lon="12.9278365"><ele>841.0</ele><time>2026-05-02T13:10:05.932Z</time></trkpt><trkpt lat="42.1233352" lon="12.9279242"><ele>841.0</ele><time>2026-05-02T13:10:06.942Z</time></trkpt><trkpt lat="42.1235266" lon="12.9280149"><ele>841.0</ele><time>2026-05-02T13:10:07.956Z</time></trkpt><trkpt lat="42.1237506" lon="12.9281438"><ele>841.0</ele><time>2026-05-02T13:10:08.959Z</time></trkpt><trkpt lat="42.1239764" lon="12.9282607"><ele>836.0</ele><time>2026-05-02T13:10:09.965Z</time></trkpt><trkpt lat="42.1241977" lon="12.9283881"><ele>831.0</ele><time>2026-05-02T13:10:10.968Z</time></trkpt><trkpt lat="42.1244182" lon="12.9285179"><ele>829.0</ele><time>2026-05-02T13:10:11.938Z</time></trkpt><trkpt lat="42.1246151" lon="12.9286"><ele>827.0</ele><time>2026-05-02T13:10:12.961Z</time></trkpt><trkpt lat="42.1248267" lon="12.9286764"><ele>825.0</ele><time>2026-05-02T13:10:13.942Z</time></trkpt><trkpt lat="42.1250355" lon="12.9287734"><ele>825.0</ele><time>2026-05-02T13:10:14.955Z</time></trkpt><trkpt lat="42.1252271" lon="12.9288487"><ele>825.0</ele><time>2026-05-02T13:10:15.945Z</time></trkpt><trkpt lat="42.1254184" lon="12.9288971"><ele>825.0</ele><time>2026-05-02T13:10:16.948Z</time></trkpt><trkpt lat="42.1255824" lon="12.9289244"><ele>827.0</ele><time>2026-05-02T13:10:17.945Z</time></trkpt><trkpt lat="42.1257392" lon="12.9289551"><ele>829.0</ele><time>2026-05-02T13:10:18.943Z</time></trkpt><trkpt lat="42.1258816" lon="12.929041"><ele>831.0</ele><time>2026-05-02T13:10:19.941Z</time></trkpt><trkpt lat="42.1259859" lon="12.9291933"><ele>827.5</ele><time>2026-05-02T13:10:20.949Z</time></trkpt><trkpt lat="42.1260469" lon="12.9293567"><ele>824.0</ele><time>2026-05-02T13:10:21.939Z</time></trkpt><trkpt lat="42.1260969" lon="12.9295083"><ele>820.5</ele><time>2026-05-02T13:10:22.937Z</time></trkpt><trkpt lat="42.1261846" lon="12.9296564"><ele>817.0</ele><time>2026-05-02T13:10:23.944Z</time></trkpt><trkpt lat="42.1262632" lon="12.9297361"><ele>817.0</ele><time>2026-05-02T13:10:24.948Z</time></trkpt><trkpt lat="42.1263552" lon="12.9298037"><ele>817.0</ele><time>2026-05-02T13:10:25.945Z</time></trkpt><trkpt lat="42.1264395" lon="12.9298255"><ele>817.0</ele><time>2026-05-02T13:10:26.95Z</time></trkpt><trkpt lat="42.1265471" lon="12.9298178"><ele>817.0</ele><time>2026-05-02T13:10:28.963Z</time></trkpt><trkpt lat="42.1264646" lon="12.9298085"><ele>817.0</ele><time>2026-05-02T13:10:35.941Z</time></trkpt><trkpt lat="42.1263938" lon="12.9297948"><ele>817.0</ele><time>2026-05-02T13:10:36.945Z</time></trkpt><trkpt lat="42.126317" lon="12.9297763"><ele>817.0</ele><time>2026-05-02T13:10:37.933Z</time></trkpt><trkpt lat="42.1262424" lon="12.9296976"><ele>817.0</ele><time>2026-05-02T13:10:38.944Z</time></trkpt><trkpt lat="42.1261566" lon="12.9295585"><ele>817.0</ele><time>2026-05-02T13:10:39.94Z</time></trkpt><trkpt lat="42.1260782" lon="12.9293923"><ele>817.0</ele><time>2026-05-02T13:10:40.926Z</time></trkpt><trkpt lat="42.1260124" lon="12.9292425"><ele>817.0</ele><time>2026-05-02T13:10:41.935Z</time></trkpt><trkpt lat="42.1259418" lon="12.9290956"><ele>817.0</ele><time>2026-05-02T13:10:42.937Z</time></trkpt><trkpt lat="42.1258727" lon="12.9289775"><ele>817.0</ele><time>2026-05-02T13:10:43.94Z</time></trkpt><trkpt lat="42.125786" lon="12.9288806"><ele>819.0</ele><time>2026-05-02T13:10:44.949Z</time></trkpt><trkpt lat="42.1256812" lon="12.9288216"><ele>821.0</ele><time>2026-05-02T13:10:45.942Z</time></trkpt><trkpt lat="42.1255602" lon="12.9287899"><ele>823.0</ele><time>2026-05-02T13:10:46.961Z</time></trkpt><trkpt lat="42.1254215" lon="12.9287731"><ele>825.0</ele><time>2026-05-02T13:10:47.96Z</time></trkpt><trkpt lat="42.1252863" lon="12.9287679"><ele>825.0</ele><time>2026-05-02T13:10:48.935Z</time></trkpt><trkpt lat="42.1251722" lon="12.9287597"><ele>825.0</ele><time>2026-05-02T13:10:49.948Z</time></trkpt><trkpt lat="42.1250504" lon="12.9287308"><ele>825.0</ele><time>2026-05-02T13:10:50.936Z</time></trkpt><trkpt lat="42.1249251" lon="12.9286932"><ele>825.0</ele><time>2026-05-02T13:10:51.937Z</time></trkpt><trkpt lat="42.1248075" lon="12.928627"><ele>825.0</ele><time>2026-05-02T13:10:52.931Z</time></trkpt><trkpt lat="42.1247092" lon="12.9285677"><ele>825.0</ele><time>2026-05-02T13:10:53.939Z</time></trkpt><trkpt lat="42.1246381" lon="12.9285339"><ele>825.0</ele><time>2026-05-02T13:10:54.942Z</time></trkpt><trkpt lat="42.1245776" lon="12.928485"><ele>825.0</ele><time>2026-05-02T13:10:55.938Z</time></trkpt><trkpt lat="42.1245235" lon="12.9283553"><ele>825.0</ele><time>2026-05-02T13:10:57.936Z</time></trkpt><trkpt lat="42.1245964" lon="12.9282535"><ele>826.2</ele><time>2026-05-02T13:11:00.936Z</time></trkpt><trkpt lat="42.1246957" lon="12.9282223"><ele>827.4</ele><time>2026-05-02T13:11:02.949Z</time></trkpt><trkpt lat="42.1248303" lon="12.9282445"><ele>828.5999999999999</ele><time>2026-05-02T13:11:04.945Z</time></trkpt><trkpt lat="42.1249254" lon="12.9282643"><ele>829.8</ele><time>2026-05-02T13:11:05.933Z</time></trkpt><trkpt lat="42.1250251" lon="12.9282814"><ele>831.0</ele><time>2026-05-02T13:11:06.941Z</time></trkpt><trkpt lat="42.1251097" lon="12.9283132"><ele>831.1999999999999</ele><time>2026-05-02T13:11:07.937Z</time></trkpt><trkpt lat="42.1251827" lon="12.928354"><ele>831.4</ele><time>2026-05-02T13:11:08.936Z</time></trkpt><trkpt lat="42.1252674" lon="12.9283929"><ele>831.6</ele><time>2026-05-02T13:11:09.941Z</time></trkpt><trkpt lat="42.1253649" lon="12.9284166"><ele>831.8</ele><time>2026-05-02T13:11:10.948Z</time></trkpt><trkpt lat="42.1254806" lon="12.9284213"><ele>832.0</ele><time>2026-05-02T13:11:11.943Z</time></trkpt><trkpt lat="42.1255885" lon="12.9284135"><ele>831.8333333333333</ele><time>2026-05-02T13:11:12.945Z</time></trkpt><trkpt lat="42.125686" lon="12.9284414"><ele>831.6666666666666</ele><time>2026-05-02T13:11:13.949Z</time></trkpt><trkpt lat="42.1257712" lon="12.9284758"><ele>831.5</ele><time>2026-05-02T13:11:14.943Z</time></trkpt><trkpt lat="42.125842" lon="12.9285064"><ele>831.3333333333333</ele><time>2026-05-02T13:11:15.952Z</time></trkpt><trkpt lat="42.1259078" lon="12.9285404"><ele>831.1666666666666</ele><time>2026-05-02T13:11:16.951Z</time></trkpt><trkpt lat="42.1259756" lon="12.9285797"><ele>831.0</ele><time>2026-05-02T13:11:17.967Z</time></trkpt><trkpt lat="42.1260408" lon="12.928615"><ele>831.0</ele><time>2026-05-02T13:11:18.951Z</time></trkpt><trkpt lat="42.1261091" lon="12.9286428"><ele>831.0</ele><time>2026-05-02T13:11:19.947Z</time></trkpt><trkpt lat="42.1261846" lon="12.9286748"><ele>831.0</ele><time>2026-05-02T13:11:20.944Z</time></trkpt><trkpt lat="42.1262632" lon="12.9287233"><ele>831.0</ele><time>2026-05-02T13:11:21.948Z</time></trkpt><trkpt lat="42.1223831" lon="12.9134913"><ele>831.0</ele><time>2026-05-02T13:07:21.952Z</time></trkpt><trkpt lat="42.1224315" lon="12.9135849"><ele>831.0</ele><time>2026-05-02T13:07:24.956Z</time></trkpt><trkpt lat="42.1224843" lon="12.9136902"><ele>831.0</ele><time>2026-05-02T13:07:28.103Z</time></trkpt><trkpt lat="42.1225216" lon="12.9137844"><ele>831.0</ele><time>2026-05-02T13:07:29.943Z</time></trkpt><trkpt lat="42.1225809" lon="12.9139154"><ele>831.0</ele><time>2026-05-02T13:07:31.948Z</time></trkpt><trkpt lat="42.1226324" lon="12.9142141"><ele>829.8</ele><time>2026-05-02T13:07:34.967Z</time></trkpt><trkpt lat="42.1226368" lon="12.9143137"><ele>828.5999999999999</ele><time>2026-05-02T13:07:35.949Z</time></trkpt><trkpt lat="42.1226247" lon="12.9144013"><ele>827.4</ele><time>2026-05-02T13:07:37.096Z</time></trkpt><trkpt lat="42.1227178" lon="12.9146327"><ele>826.2</ele><time>2026-05-02T13:07:40.097Z</time></trkpt><trkpt lat="42.1227733" lon="12.9147207"><ele>825.0</ele><time>2026-05-02T13:07:41.1Z</time></trkpt><trkpt lat="42.1228397" lon="12.914843"><ele>825.0</ele><time>2026-05-02T13:07:42.102Z</time></trkpt><trkpt lat="42.1229551" lon="12.9150515"><ele>825.0</ele><time>2026-05-02T13:07:43.965Z</time></trkpt><trkpt lat="42.1229874" lon="12.9151379"><ele>825.0</ele><time>2026-05-02T13:07:44.996Z</time></trkpt><trkpt lat="42.1230339" lon="12.9153385"><ele>825.0</ele><time>2026-05-02T13:07:47.095Z</time></trkpt><trkpt lat="42.1230544" lon="12.9154616"><ele>824.75</ele><time>2026-05-02T13:07:48.096Z</time></trkpt><trkpt lat="42.1230607" lon="12.9157038"><ele>824.5</ele><time>2026-05-02T13:07:50.102Z</time></trkpt><trkpt lat="42.1230014" lon="12.9159204"><ele>824.25</ele><time>2026-05-02T13:07:51.952Z</time></trkpt><trkpt lat="42.1229478" lon="12.9160303"><ele>824.0</ele><time>2026-05-02T13:07:52.946Z</time></trkpt><trkpt lat="42.1228661" lon="12.9161444"><ele>824.0</ele><time>2026-05-02T13:07:53.944Z</time></trkpt><trkpt lat="42.1227812" lon="12.9162686"><ele>824.0</ele><time>2026-05-02T13:07:55.253Z</time></trkpt><trkpt lat="42.1226126" lon="12.9164905"><ele>824.0</ele><time>2026-05-02T13:07:56.965Z</time></trkpt><trkpt lat="42.122529" lon="12.9166181"><ele>824.0</ele><time>2026-05-02T13:07:58.106Z</time></trkpt><trkpt lat="42.1223822" lon="12.9168854"><ele>824.0</ele><time>2026-05-02T13:07:59.965Z</time></trkpt><trkpt lat="42.1223269" lon="12.9169961"><ele>824.0</ele><time>2026-05-02T13:08:00.953Z</time></trkpt><trkpt lat="42.1222719" lon="12.9171094"><ele>824.0</ele><time>2026-05-02T13:08:01.946Z</time></trkpt><trkpt lat="42.1222197" lon="12.9171902"><ele>824.0</ele><time>2026-05-02T13:08:02.94Z</time></trkpt><trkpt lat="42.1221784" lon="12.9172732"><ele>824.0</ele><time>2026-05-02T13:08:03.995Z</time></trkpt><trkpt lat="42.1223489" lon="12.917118"><ele>824.0</ele><time>2026-05-02T13:08:26.942Z</time></trkpt><trkpt lat="42.1223708" lon="12.917201"><ele>824.0</ele><time>2026-05-02T13:08:34.953Z</time></trkpt><trkpt lat="42.1223314" lon="12.9173128"><ele>824.0</ele><time>2026-05-02T13:08:54.949Z</time></trkpt><trkpt lat="42.1223509" lon="12.9174132"><ele>824.0</ele><time>2026-05-02T13:08:55.949Z</time></trkpt><trkpt lat="42.1223755" lon="12.9175419"><ele>824.0</ele><time>2026-05-02T13:08:56.953Z</time></trkpt><trkpt lat="42.1223768" lon="12.9177099"><ele>824.0</ele><time>2026-05-02T13:08:58.115Z</time></trkpt><trkpt lat="42.1222907" lon="12.918101"><ele>826.5</ele><time>2026-05-02T13:08:59.963Z</time></trkpt><trkpt lat="42.122178" lon="12.9183908"><ele>829.0</ele><time>2026-05-02T13:09:00.974Z</time></trkpt><trkpt lat="42.1220324" lon="12.9186753"><ele>829.0</ele><time>2026-05-02T13:09:01.971Z</time></trkpt><trkpt lat="42.1218823" lon="12.9189243"><ele>829.0</ele><time>2026-05-02T13:09:02.95Z</time></trkpt><trkpt lat="42.1217448" lon="12.9191427"><ele>827.0</ele><time>2026-05-02T13:09:03.948Z</time></trkpt><trkpt lat="42.1216334" lon="12.919368"><ele>825.0</ele><time>2026-05-02T13:09:04.954Z</time></trkpt><trkpt lat="42.1215764" lon="12.919572"><ele>823.0</ele><time>2026-05-02T13:09:05.946Z</time></trkpt><trkpt lat="42.1215124" lon="12.9197683"><ele>828.5</ele><time>2026-05-02T13:09:06.951Z</time></trkpt><trkpt lat="42.1214249" lon="12.9199484"><ele>834.0</ele><time>2026-05-02T13:09:07.941Z</time></trkpt><trkpt lat="42.1213072" lon="12.9200968"><ele>839.5</ele><time>2026-05-02T13:09:08.942Z</time></trkpt><trkpt lat="42.1212239" lon="12.9202069"><ele>845.0</ele><time>2026-05-02T13:09:09.942Z</time></trkpt><trkpt lat="42.1211686" lon="12.9203317"><ele>846.0</ele><time>2026-05-02T13:09:10.937Z</time></trkpt><trkpt lat="42.1211499" lon="12.9204677"><ele>847.0</ele><time>2026-05-02T13:09:11.944Z</time></trkpt><trkpt lat="42.1212126" lon="12.9206207"><ele>848.0</ele><time>2026-05-02T13:09:12.943Z</time></trkpt><trkpt lat="42.1213035" lon="12.9207828"><ele>849.0</ele><time>2026-05-02T13:09:13.931Z</time></trkpt><trkpt lat="42.1214051" lon="12.920935"><ele>851.6666666666667</ele><time>2026-05-02T13:09:14.951Z</time></trkpt><trkpt lat="42.1215162" lon="12.9210794"><ele>854.3333333333334</ele><time>2026-05-02T13:09:15.937Z</time></trkpt><trkpt lat="42.121648" lon="12.9212655"><ele>857.0</ele><time>2026-05-02T13:09:16.936Z</time></trkpt><trkpt lat="42.1217459" lon="12.9214457"><ele>849.0</ele><time>2026-05-02T13:09:17.94Z</time></trkpt><trkpt lat="42.1218018" lon="12.9216238"><ele>841.0</ele><time>2026-05-02T13:09:18.943Z</time></trkpt><trkpt lat="42.1218172" lon="12.9218215"><ele>833.0</ele><time>2026-05-02T13:09:19.938Z</time></trkpt><trkpt lat="42.1217835" lon="12.922053"><ele>833.0</ele><time>2026-05-02T13:09:20.938Z</time></trkpt><trkpt lat="42.1217332" lon="12.9222859"><ele>833.0</ele><time>2026-05-02T13:09:21.937Z</time></trkpt><trkpt lat="42.1216868" lon="12.9225142"><ele>833.0</ele><time>2026-05-02T13:09:22.943Z</time></trkpt><trkpt lat="42.1216476" lon="12.9227052"><ele>832.5</ele><time>2026-05-02T13:09:23.939Z</time></trkpt><trkpt lat="42.1216044" lon="12.9228913"><ele>832.0</ele><time>2026-05-02T13:09:24.949Z</time></trkpt><trkpt lat="42.1215431" lon="12.9230562"><ele>831.5</ele><time>2026-05-02T13:09:25.937Z</time></trkpt><trkpt lat="42.1214449" lon="12.9232333"><ele>831.0</ele><time>2026-05-02T13:09:26.943Z</time></trkpt><trkpt lat="42.1213312" lon="12.9234121"><ele>838.75</ele><time>2026-05-02T13:09:27.941Z</time></trkpt><trkpt lat="42.1212879" lon="12.9235686"><ele>846.5</ele><time>2026-05-02T13:09:28.941Z</time></trkpt><trkpt lat="42.1212786" lon="12.923758"><ele>854.25</ele><time>2026-05-02T13:09:29.938Z</time></trkpt><trkpt lat="42.121327" lon="12.9239104"><ele>862.0</ele><time>2026-05-02T13:09:30.947Z</time></trkpt><trkpt lat="42.1214213" lon="12.9240394"><ele>860.3333333333333</ele><time>2026-05-02T13:09:31.938Z</time></trkpt><trkpt lat="42.1215782" lon="12.9241259"><ele>858.6666666666667</ele><time>2026-05-02T13:09:32.956Z</time></trkpt><trkpt lat="42.1217652" lon="12.9242021"><ele>857.0</ele><time>2026-05-02T13:09:33.952Z</time></trkpt><trkpt lat="42.1219355" lon="12.9242694"><ele>857.0</ele><time>2026-05-02T13:09:34.936Z</time></trkpt><trkpt lat="42.1220897" lon="12.9243563"><ele>857.0</ele><time>2026-05-02T13:09:35.943Z</time></trkpt><trkpt lat="42.1221946" lon="12.9244617"><ele>857.0</ele><time>2026-05-02T13:09:36.944Z</time></trkpt><trkpt lat="42.1222495" lon="12.9245921"><ele>857.0</ele><time>2026-05-02T13:09:37.941Z</time></trkpt><trkpt lat="42.1222695" lon="12.9247656"><ele>857.0</ele><time>2026-05-02T13:09:38.945Z</time></trkpt><trkpt lat="42.1222405" lon="12.9249659"><ele>857.0</ele><time>2026-05-02T13:09:39.945Z</time></trkpt><trkpt lat="42.1222197" lon="12.9251438"><ele>857.0</ele><time>2026-05-02T13:09:40.933Z</time></trkpt><trkpt lat="42.1222168" lon="12.9252958"><ele>857.0</ele><time>2026-05-02T13:09:41.948Z</time></trkpt><trkpt lat="42.1222964" lon="12.925423"><ele>855.3333333333334</ele><time>2026-05-02T13:09:42.941Z</time></trkpt><trkpt lat="42.122431" lon="12.9254986"><ele>853.6666666666667</ele><time>2026-05-02T13:09:43.938Z</time></trkpt><trkpt lat="42.1225595" lon="12.9255626"><ele>852.0</ele><time>2026-05-02T13:09:44.949Z</time></trkpt><trkpt lat="42.1227279" lon="12.9255835"><ele>852.0</ele><time>2026-05-02T13:09:45.941Z</time></trkpt><trkpt lat="42.1229216" lon="12.9255771"><ele>852.0</ele><time>2026-05-02T13:09:46.937Z</time></trkpt><trkpt lat="42.1231106" lon="12.9255921"><ele>852.0</ele><time>2026-05-02T13:09:47.947Z</time></trkpt><trkpt lat="42.1232492" lon="12.9256517"><ele>848.5</ele><time>2026-05-02T13:09:48.945Z</time></trkpt><trkpt lat="42.1233173" lon="12.9257684"><ele>845.0</ele><time>2026-05-02T13:09:49.948Z</time></trkpt><trkpt lat="42.1233341" lon="12.9259439"><ele>841.5</ele><time>2026-05-02T13:09:50.954Z</time></trkpt><trkpt lat="42.1233413" lon="12.926072"><ele>838.0</ele><time>2026-05-02T13:09:51.947Z</time></trkpt><trkpt lat="42.1233028" lon="12.9262254"><ele>841.3333333333333</ele><time>2026-05-02T13:09:52.991Z</time></trkpt><trkpt lat="42.1231917" lon="12.9263992"><ele>844.6666666666667</ele><time>2026-05-02T13:09:53.945Z</time></trkpt><trkpt lat="42.1230432" lon="12.9265595"><ele>848.0</ele><time>2026-05-02T13:09:54.971Z</time></trkpt><trkpt lat="42.1229066" lon="12.926697"><ele>847.5</ele><time>2026-05-02T13:09:55.945Z</time></trkpt><trkpt lat="42.1227818" lon="12.9268441"><ele>847.0</ele><time>2026-05-02T13:09:56.947Z</time></trkpt><trkpt lat="42.1226693" lon="12.9269483"><ele>846.5</ele><time>2026-05-02T13:09:57.942Z</time></trkpt><trkpt lat="42.1225845" lon="12.9270653"><ele>846.0</ele><time>2026-05-02T13:09:58.99Z</time></trkpt><trkpt lat="42.1225214" lon="12.9272032"><ele>846.0</ele><time>2026-05-02T13:09:59.96Z</time></trkpt><trkpt lat="42.1225103" lon="12.9273425"><ele>846.0</ele><time>2026-05-02T13:10:00.965Z</time></trkpt><trkpt lat="42.1225669" lon="12.9274839"><ele>846.0</ele><time>2026-05-02T13:10:01.942Z</time></trkpt><trkpt lat="42.1226346" lon="12.9276138"><ele>846.0</ele><time>2026-05-02T13:10:02.943Z</time></trkpt><trkpt lat="42.1227671" lon="12.9277127"><ele>844.3333333333333</ele><time>2026-05-02T13:10:03.939Z</time></trkpt><trkpt lat="42.1229256" lon="12.9278107"><ele>842.6666666666666</ele><time>2026-05-02T13:10:04.941Z</time></trkpt><trkpt lat="42.1231261" lon="12.9278365"><ele>841.0</ele><time>2026-05-02T13:10:05.932Z</time></trkpt><trkpt lat="42.1233352" lon="12.9279242"><ele>841.0</ele><time>2026-05-02T13:10:06.942Z</time></trkpt><trkpt lat="42.1235266" lon="12.9280149"><ele>841.0</ele><time>2026-05-02T13:10:07.956Z</time></trkpt><trkpt lat="42.1237506" lon="12.9281438"><ele>841.0</ele><time>2026-05-02T13:10:08.959Z</time></trkpt><trkpt lat="42.1239764" lon="12.9282607"><ele>836.0</ele><time>2026-05-02T13:10:09.965Z</time></trkpt><trkpt lat="42.1241977" lon="12.9283881"><ele>831.0</ele><time>2026-05-02T13:10:10.968Z</time></trkpt><trkpt lat="42.1244182" lon="12.9285179"><ele>829.0</ele><time>2026-05-02T13:10:11.938Z</time></trkpt><trkpt lat="42.1246151" lon="12.9286"><ele>827.0</ele><time>2026-05-02T13:10:12.961Z</time></trkpt><trkpt lat="42.1248267" lon="12.9286764"><ele>825.0</ele><time>2026-05-02T13:10:13.942Z</time></trkpt><trkpt lat="42.1250355" lon="12.9287734"><ele>825.0</ele><time>2026-05-02T13:10:14.955Z</time></trkpt><trkpt lat="42.1252271" lon="12.9288487"><ele>825.0</ele><time>2026-05-02T13:10:15.945Z</time></trkpt><trkpt lat="42.1254184" lon="12.9288971"><ele>825.0</ele><time>2026-05-02T13:10:16.948Z</time></trkpt><trkpt lat="42.1255824" lon="12.9289244"><ele>827.0</ele><time>2026-05-02T13:10:17.945Z</time></trkpt><trkpt lat="42.1257392" lon="12.9289551"><ele>829.0</ele><time>2026-05-02T13:10:18.943Z</time></trkpt><trkpt lat="42.1258816" lon="12.929041"><ele>831.0</ele><time>2026-05-02T13:10:19.941Z</time></trkpt><trkpt lat="42.1259859" lon="12.9291933"><ele>827.5</ele><time>2026-05-02T13:10:20.949Z</time></trkpt><trkpt lat="42.1260469" lon="12.9293567"><ele>824.0</ele><time>2026-05-02T13:10:21.939Z</time></trkpt><trkpt lat="42.1260969" lon="12.9295083"><ele>820.5</ele><time>2026-05-02T13:10:22.937Z</time></trkpt><trkpt lat="42.1261846" lon="12.9296564"><ele>817.0</ele><time>2026-05-02T13:10:23.944Z</time></trkpt><trkpt lat="42.1262632" lon="12.9297361"><ele>817.0</ele><time>2026-05-02T13:10:24.948Z</time></trkpt><trkpt lat="42.1263552" lon="12.9298037"><ele>817.0</ele><time>2026-05-02T13:10:25.945Z</time></trkpt><trkpt lat="42.1264395" lon="12.9298255"><ele>817.0</ele><time>2026-05-02T13:10:26.95Z</time></trkpt><trkpt lat="42.1265471" lon="12.9298178"><ele>817.0</ele><time>2026-05-02T13:10:28.963Z</time></trkpt><trkpt lat="42.1264646" lon="12.9298085"><ele>817.0</ele><time>2026-05-02T13:10:35.941Z</time></trkpt><trkpt lat="42.1263938" lon="12.9297948"><ele>817.0</ele><time>2026-05-02T13:10:36.945Z</time></trkpt><trkpt lat="42.126317" lon="12.9297763"><ele>817.0</ele><time>2026-05-02T13:10:37.933Z</time></trkpt><trkpt lat="42.1262424" lon="12.9296976"><ele>817.0</ele><time>2026-05-02T13:10:38.944Z</time></trkpt><trkpt lat="42.1261566" lon="12.9295585"><ele>817.0</ele><time>2026-05-02T13:10:39.94Z</time></trkpt><trkpt lat="42.1260782" lon="12.9293923"><ele>817.0</ele><time>2026-05-02T13:10:40.926Z</time></trkpt><trkpt lat="42.1260124" lon="12.9292425"><ele>817.0</ele><time>2026-05-02T13:10:41.935Z</time></trkpt><trkpt lat="42.1259418" lon="12.9290956"><ele>817.0</ele><time>2026-05-02T13:10:42.937Z</time></trkpt><trkpt lat="42.1258727" lon="12.9289775"><ele>817.0</ele><time>2026-05-02T13:10:43.94Z</time></trkpt><trkpt lat="42.125786" lon="12.9288806"><ele>819.0</ele><time>2026-05-02T13:10:44.949Z</time></trkpt><trkpt lat="42.1256812" lon="12.9288216"><ele>821.0</ele><time>2026-05-02T13:10:45.942Z</time></trkpt><trkpt lat="42.1255602" lon="12.9287899"><ele>823.0</ele><time>2026-05-02T13:10:46.961Z</time></trkpt><trkpt lat="42.1254215" lon="12.9287731"><ele>825.0</ele><time>2026-05-02T13:10:47.96Z</time></trkpt><trkpt lat="42.1252863" lon="12.9287679"><ele>825.0</ele><time>2026-05-02T13:10:48.935Z</time></trkpt><trkpt lat="42.1251722" lon="12.9287597"><ele>825.0</ele><time>2026-05-02T13:10:49.948Z</time></trkpt><trkpt lat="42.1250504" lon="12.9287308"><ele>825.0</ele><time>2026-05-02T13:10:50.936Z</time></trkpt><trkpt lat="42.1249251" lon="12.9286932"><ele>825.0</ele><time>2026-05-02T13:10:51.937Z</time></trkpt><trkpt lat="42.1248075" lon="12.928627"><ele>825.0</ele><time>2026-05-02T13:10:52.931Z</time></trkpt><trkpt lat="42.1247092" lon="12.9285677"><ele>825.0</ele><time>2026-05-02T13:10:53.939Z</time></trkpt><trkpt lat="42.1246381" lon="12.9285339"><ele>825.0</ele><time>2026-05-02T13:10:54.942Z</time></trkpt><trkpt lat="42.1245776" lon="12.928485"><ele>825.0</ele><time>2026-05-02T13:10:55.938Z</time></trkpt><trkpt lat="42.1245235" lon="12.9283553"><ele>825.0</ele><time>2026-05-02T13:10:57.936Z</time></trkpt><trkpt lat="42.1245964" lon="12.9282535"><ele>826.2</ele><time>2026-05-02T13:11:00.936Z</time></trkpt><trkpt lat="42.1246957" lon="12.9282223"><ele>827.4</ele><time>2026-05-02T13:11:02.949Z</time></trkpt><trkpt lat="42.1248303" lon="12.9282445"><ele>828.5999999999999</ele><time>2026-05-02T13:11:04.945Z</time></trkpt><trkpt lat="42.1249254" lon="12.9282643"><ele>829.8</ele><time>2026-05-02T13:11:05.933Z</time></trkpt><trkpt lat="42.1250251" lon="12.9282814"><ele>831.0</ele><time>2026-05-02T13:11:06.941Z</time></trkpt><trkpt lat="42.1251097" lon="12.9283132"><ele>831.1999999999999</ele><time>2026-05-02T13:11:07.937Z</time></trkpt><trkpt lat="42.1251827" lon="12.928354"><ele>831.4</ele><time>2026-05-02T13:11:08.936Z</time></trkpt><trkpt lat="42.1252674" lon="12.9283929"><ele>831.6</ele><time>2026-05-02T13:11:09.941Z</time></trkpt><trkpt lat="42.1253649" lon="12.9284166"><ele>831.8</ele><time>2026-05-02T13:11:10.948Z</time></trkpt><trkpt lat="42.1254806" lon="12.9284213"><ele>832.0</ele><time>2026-05-02T13:11:11.943Z</time></trkpt><trkpt lat="42.1255885" lon="12.9284135"><ele>831.8333333333333</ele><time>2026-05-02T13:11:12.945Z</time></trkpt><trkpt lat="42.125686" lon="12.9284414"><ele>831.6666666666666</ele><time>2026-05-02T13:11:13.949Z</time></trkpt><trkpt lat="42.1257712" lon="12.9284758"><ele>831.5</ele><time>2026-05-02T13:11:14.943Z</time></trkpt><trkpt lat="42.125842" lon="12.9285064"><ele>831.3333333333333</ele><time>2026-05-02T13:11:15.952Z</time></trkpt><trkpt lat="42.1259078" lon="12.9285404"><ele>831.1666666666666</ele><time>2026-05-02T13:11:16.951Z</time></trkpt><trkpt lat="42.1259756" lon="12.9285797"><ele>831.0</ele><time>2026-05-02T13:11:17.967Z</time></trkpt><trkpt lat="42.1260408" lon="12.928615"><ele>831.0</ele><time>2026-05-02T13:11:18.951Z</time></trkpt><trkpt lat="42.1261091" lon="12.9286428"><ele>831.0</ele><time>2026-05-02T13:11:19.947Z</time></trkpt><trkpt lat="42.1261846" lon="12.9286748"><ele>831.0</ele><time>2026-05-02T13:11:20.944Z</time></trkpt><trkpt lat="42.1262632" lon="12.9287233"><ele>831.0</ele><time>2026-05-02T13:11:21.948Z</time></trkpt><trkpt lat="42.1263296" lon="12.9287841"><ele>831.0</ele><time>2026-05-02T13:11:22.945Z</time></trkpt><trkpt lat="42.1263917" lon="12.9288598"><ele>831.0</ele><time>2026-05-02T13:11:23.935Z</time></trkpt><trkpt lat="42.1264474" lon="12.9289661"><ele>831.0</ele><time>2026-05-02T13:11:24.942Z</time></trkpt><trkpt lat="42.1264929" lon="12.9290677"><ele>831.0</ele><time>2026-05-02T13:11:25.946Z</time></trkpt><trkpt lat="42.12654" lon="12.9291547"><ele>831.0</ele><time>2026-05-02T13:11:26.941Z</time></trkpt><trkpt lat="42.1265869" lon="12.9292343"><ele>831.0</ele><time>2026-05-02T13:11:27.94Z</time></trkpt><trkpt lat="42.1266496" lon="12.9292968"><ele>831.0</ele><time>2026-05-02T13:11:28.947Z</time></trkpt><trkpt lat="42.1267278" lon="12.9293367"><ele>831.0</ele><time>2026-05-02T13:11:29.938Z</time></trkpt><trkpt lat="42.1268065" lon="12.9293587"><ele>830.3333333333334</ele><time>2026-05-02T13:11:30.946Z</time></trkpt><trkpt lat="42.1268817" lon="12.9293789"><ele>829.6666666666667</ele><time>2026-05-02T13:11:31.951Z</time></trkpt><trkpt lat="42.1269512" lon="12.9294071"><ele>829.0</ele><time>2026-05-02T13:11:32.938Z</time></trkpt><trkpt lat="42.1270353" lon="12.9294428"><ele>828.3333333333334</ele><time>2026-05-02T13:11:33.947Z</time></trkpt><trkpt lat="42.1271328" lon="12.9294893"><ele>827.6666666666667</ele><time>2026-05-02T13:11:34.944Z</time></trkpt><trkpt lat="42.1272324" lon="12.9295359"><ele>827.0</ele><time>2026-05-02T13:11:35.938Z</time></trkpt><trkpt lat="42.1273316" lon="12.9295756"><ele>829.0000000000001</ele><time>2026-05-02T13:11:36.939Z</time></trkpt><trkpt lat="42.1274253" lon="12.9296185"><ele>831.0</ele><time>2026-05-02T13:11:37.947Z</time></trkpt><trkpt lat="42.1275122" lon="12.9296663"><ele>833.0</ele><time>2026-05-02T13:11:38.939Z</time></trkpt><trkpt lat="42.1275944" lon="12.9297137"><ele>835.0</ele><time>2026-05-02T13:11:40.02Z</time></trkpt><trkpt lat="42.1276553" lon="12.9297605"><ele>837.0000000000001</ele><time>2026-05-02T13:11:40.939Z</time></trkpt><trkpt lat="42.1277184" lon="12.9298222"><ele>839.0</ele><time>2026-05-02T13:11:41.941Z</time></trkpt><trkpt lat="42.1277651" lon="12.9299313"><ele>839.25</ele><time>2026-05-02T13:11:42.944Z</time></trkpt><trkpt lat="42.1277978" lon="12.9300685"><ele>839.5</ele><time>2026-05-02T13:11:44.094Z</time></trkpt><trkpt lat="42.1278122" lon="12.9302085"><ele>839.75</ele><time>2026-05-02T13:11:45.255Z</time></trkpt><trkpt lat="42.1278162" lon="12.9304731"><ele>840.0</ele><time>2026-05-02T13:11:46.954Z</time></trkpt><trkpt lat="42.127799" lon="12.9306389"><ele>840.0</ele><time>2026-05-02T13:11:47.965Z</time></trkpt><trkpt lat="42.1277748" lon="12.9308098"><ele>840.0</ele><time>2026-05-02T13:11:48.963Z</time></trkpt><trkpt lat="42.1277647" lon="12.9309876"><ele>840.0</ele><time>2026-05-02T13:11:49.945Z</time></trkpt><trkpt lat="42.1277558" lon="12.9311641"><ele>840.0</ele><time>2026-05-02T13:11:50.949Z</time></trkpt><trkpt lat="42.1277359" lon="12.9313367"><ele>842.0</ele><time>2026-05-02T13:11:51.946Z</time></trkpt><trkpt lat="42.1277163" lon="12.931525"><ele>844.0</ele><time>2026-05-02T13:11:52.938Z</time></trkpt><trkpt lat="42.127709" lon="12.931718"><ele>846.0</ele><time>2026-05-02T13:11:53.945Z</time></trkpt><trkpt lat="42.1276897" lon="12.9319481"><ele>846.0</ele><time>2026-05-02T13:11:54.946Z</time></trkpt><trkpt lat="42.1277054" lon="12.9321696"><ele>846.0</ele><time>2026-05-02T13:11:55.943Z</time></trkpt><trkpt lat="42.1277018" lon="12.9323646"><ele>846.0</ele><time>2026-05-02T13:11:56.943Z</time></trkpt><trkpt lat="42.1277102" lon="12.932508"><ele>846.0</ele><time>2026-05-02T13:11:57.948Z</time></trkpt><trkpt lat="42.1277449" lon="12.9326068"><ele>846.0</ele><time>2026-05-02T13:11:58.93Z</time></trkpt><trkpt lat="42.1277899" lon="12.9327192"><ele>846.0</ele><time>2026-05-02T13:11:59.948Z</time></trkpt><trkpt lat="42.1278275" lon="12.9328631"><ele>846.0</ele><time>2026-05-02T13:12:00.943Z</time></trkpt><trkpt lat="42.1278606" lon="12.9330167"><ele>846.0</ele><time>2026-05-02T13:12:01.94Z</time></trkpt><trkpt lat="42.1279003" lon="12.9331575"><ele>846.0</ele><time>2026-05-02T13:12:02.934Z</time></trkpt><trkpt lat="42.1279388" lon="12.9332772"><ele>846.0</ele><time>2026-05-02T13:12:03.935Z</time></trkpt><trkpt lat="42.1279814" lon="12.9333711"><ele>846.0</ele><time>2026-05-02T13:12:04.932Z</time></trkpt><trkpt lat="42.1280348" lon="12.933454"><ele>846.0</ele><time>2026-05-02T13:12:05.937Z</time></trkpt><trkpt lat="42.1280962" lon="12.933508"><ele>846.0</ele><time>2026-05-02T13:12:06.947Z</time></trkpt><trkpt lat="42.1281784" lon="12.9335556"><ele>846.0</ele><time>2026-05-02T13:12:07.943Z</time></trkpt><trkpt lat="42.1282851" lon="12.9335984"><ele>846.0</ele><time>2026-05-02T13:12:08.95Z</time></trkpt><trkpt lat="42.1283978" lon="12.933684"><ele>845.75</ele><time>2026-05-02T13:12:09.936Z</time></trkpt><trkpt lat="42.1285005" lon="12.9337357"><ele>845.5</ele><time>2026-05-02T13:12:10.947Z</time></trkpt><trkpt lat="42.1286089" lon="12.9337467"><ele>845.25</ele><time>2026-05-02T13:12:11.941Z</time></trkpt><trkpt lat="42.1287364" lon="12.9337322"><ele>845.0</ele><time>2026-05-02T13:12:12.939Z</time></trkpt><trkpt lat="42.128856" lon="12.9337147"><ele>845.0</ele><time>2026-05-02T13:12:13.942Z</time></trkpt><trkpt lat="42.1289851" lon="12.9337181"><ele>845.0</ele><time>2026-05-02T13:12:14.948Z</time></trkpt><trkpt lat="42.1291064" lon="12.9337359"><ele>845.0</ele><time>2026-05-02T13:12:15.939Z</time></trkpt><trkpt lat="42.1292361" lon="12.9337813"><ele>845.0</ele><time>2026-05-02T13:12:16.943Z</time></trkpt><trkpt lat="42.1293712" lon="12.9338015"><ele>847.6</ele><time>2026-05-02T13:12:17.943Z</time></trkpt><trkpt lat="42.1294947" lon="12.9337982"><ele>850.2</ele><time>2026-05-02T13:12:18.942Z</time></trkpt><trkpt lat="42.129598" lon="12.9337916"><ele>852.8</ele><time>2026-05-02T13:12:19.939Z</time></trkpt><trkpt lat="42.1296923" lon="12.9338015"><ele>855.4</ele><time>2026-05-02T13:12:20.942Z</time></trkpt><trkpt lat="42.129786" lon="12.933818"><ele>858.0</ele><time>2026-05-02T13:12:21.939Z</time></trkpt><trkpt lat="42.129884" lon="12.9338228"><ele>860.5999999999999</ele><time>2026-05-02T13:12:22.947Z</time></trkpt><trkpt lat="42.1299785" lon="12.9338339"><ele>863.1999999999999</ele><time>2026-05-02T13:12:23.943Z</time></trkpt><trkpt lat="42.1300759" lon="12.9338481"><ele>865.8</ele><time>2026-05-02T13:12:24.943Z</time></trkpt><trkpt lat="42.1301824" lon="12.9338658"><ele>868.4</ele><time>2026-05-02T13:12:25.935Z</time></trkpt><trkpt lat="42.1302992" lon="12.9338737"><ele>871.0</ele><time>2026-05-02T13:12:26.944Z</time></trkpt><trkpt lat="42.1304133" lon="12.9338867"><ele>871.0</ele><time>2026-05-02T13:12:27.937Z</time></trkpt><trkpt lat="42.1305095" lon="12.9339086"><ele>870.9999999999999</ele><time>2026-05-02T13:12:28.946Z</time></trkpt><trkpt lat="42.1305964" lon="12.9339305"><ele>870.9999999999999</ele><time>2026-05-02T13:12:29.947Z</time></trkpt><trkpt lat="42.1306948" lon="12.9339501"><ele>871.0</ele><time>2026-05-02T13:12:30.965Z</time></trkpt><trkpt lat="42.1307991" lon="12.9339611"><ele>871.0</ele><time>2026-05-02T13:12:31.959Z</time></trkpt><trkpt lat="42.1308974" lon="12.9339619"><ele>870.1999999999999</ele><time>2026-05-02T13:12:32.945Z</time></trkpt><trkpt lat="42.1309939" lon="12.9339511"><ele>869.3999999999999</ele><time>2026-05-02T13:12:33.935Z</time></trkpt><trkpt lat="42.1310977" lon="12.9339166"><ele>868.6</ele><time>2026-05-02T13:12:34.941Z</time></trkpt><trkpt lat="42.1312009" lon="12.9338691"><ele>867.8</ele><time>2026-05-02T13:12:35.94Z</time></trkpt><trkpt lat="42.1312974" lon="12.9338058"><ele>867.0</ele><time>2026-05-02T13:12:36.943Z</time></trkpt><trkpt lat="42.1313769" lon="12.9337337"><ele>867.0</ele><time>2026-05-02T13:12:37.936Z</time></trkpt><trkpt lat="42.1314541" lon="12.9336603"><ele>867.0</ele><time>2026-05-02T13:12:38.963Z</time></trkpt><trkpt lat="42.1315397" lon="12.9336128"><ele>867.0</ele><time>2026-05-02T13:12:39.944Z</time></trkpt><trkpt lat="42.1316466" lon="12.9335947"><ele>867.0</ele><time>2026-05-02T13:12:40.946Z</time></trkpt><trkpt lat="42.1317375" lon="12.9335845"><ele>867.0</ele><time>2026-05-02T13:12:41.943Z</time></trkpt><trkpt lat="42.1318103" lon="12.9335566"><ele>866.8</ele><time>2026-05-02T13:12:42.936Z</time></trkpt><trkpt lat="42.1318757" lon="12.9335341"><ele>866.6</ele><time>2026-05-02T13:12:43.949Z</time></trkpt><trkpt lat="42.1319415" lon="12.9335194"><ele>866.3999999999999</ele><time>2026-05-02T13:12:44.945Z</time></trkpt><trkpt lat="42.1320396" lon="12.9335001"><ele>866.1999999999999</ele><time>2026-05-02T13:12:46.947Z</time></trkpt><trkpt lat="42.132138" lon="12.9334805"><ele>866.0</ele><time>2026-05-02T13:12:48.944Z</time></trkpt><trkpt lat="42.1322608" lon="12.933442"><ele>866.0000000000001</ele><time>2026-05-02T13:12:50.943Z</time></trkpt><trkpt lat="42.1323399" lon="12.9334051"><ele>866.0</ele><time>2026-05-02T13:12:51.946Z</time></trkpt><trkpt lat="42.1324153" lon="12.9333713"><ele>866.0</ele><time>2026-05-02T13:12:52.965Z</time></trkpt><trkpt lat="42.1324783" lon="12.9333461"><ele>866.0</ele><time>2026-05-02T13:12:53.939Z</time></trkpt><trkpt lat="42.1325535" lon="12.9333203"><ele>866.0000000000001</ele><time>2026-05-02T13:12:55.968Z</time></trkpt><trkpt lat="42.132656" lon="12.9333709"><ele>866.0</ele><time>2026-05-02T13:12:58.94Z</time></trkpt><trkpt lat="42.132811" lon="12.9334286"><ele>864.4</ele><time>2026-05-02T13:13:00.945Z</time></trkpt><trkpt lat="42.1329128" lon="12.9334604"><ele>862.8</ele><time>2026-05-02T13:13:01.961Z</time></trkpt><trkpt lat="42.1330261" lon="12.9335035"><ele>861.1999999999999</ele><time>2026-05-02T13:13:02.965Z</time></trkpt><trkpt lat="42.1331266" lon="12.9335435"><ele>859.5999999999999</ele><time>2026-05-02T13:13:03.938Z</time></trkpt><trkpt lat="42.1332122" lon="12.9335768"><ele>858.0</ele><time>2026-05-02T13:13:04.942Z</time></trkpt><trkpt lat="42.1332909" lon="12.9336145"><ele>856.3333333333334</ele><time>2026-05-02T13:13:05.938Z</time></trkpt><trkpt lat="42.133371" lon="12.9336523"><ele>854.6666666666667</ele><time>2026-05-02T13:13:06.951Z</time></trkpt><trkpt lat="42.1334388" lon="12.9336852"><ele>853.0</ele><time>2026-05-02T13:13:07.944Z</time></trkpt><trkpt lat="42.1335428" lon="12.9337333"><ele>851.3333333333334</ele><time>2026-05-02T13:13:10.016Z</time></trkpt><trkpt lat="42.1336363" lon="12.9337744"><ele>849.6666666666667</ele><time>2026-05-02T13:13:11.966Z</time></trkpt><trkpt lat="42.1337027" lon="12.933833"><ele>848.0</ele><time>2026-05-02T13:13:14.091Z</time></trkpt><trkpt lat="42.1337424" lon="12.9339125"><ele>848.0</ele><time>2026-05-02T13:13:21.938Z</time></trkpt><trkpt lat="42.1338076" lon="12.9339664"><ele>848.0</ele><time>2026-05-02T13:13:24.944Z</time></trkpt><trkpt lat="42.133864" lon="12.9338563"><ele>848.0</ele><time>2026-05-02T13:13:26.947Z</time></trkpt><trkpt lat="42.1338728" lon="12.9337015"><ele>848.0</ele><time>2026-05-02T13:13:27.939Z</time></trkpt><trkpt lat="42.133883" lon="12.9335424"><ele>848.0</ele><time>2026-05-02T13:13:28.968Z</time></trkpt><trkpt lat="42.133888" lon="12.9333619"><ele>849.0</ele><time>2026-05-02T13:13:29.939Z</time></trkpt><trkpt lat="42.1338813" lon="12.9331847"><ele>850.0</ele><time>2026-05-02T13:13:30.955Z</time></trkpt><trkpt lat="42.1338838" lon="12.9329954"><ele>851.0</ele><time>2026-05-02T13:13:31.936Z</time></trkpt><trkpt lat="42.1339058" lon="12.9328254"><ele>852.0</ele><time>2026-05-02T13:13:32.939Z</time></trkpt><trkpt lat="42.1339347" lon="12.932666"><ele>851.25</ele><time>2026-05-02T13:13:33.938Z</time></trkpt><trkpt lat="42.1339512" lon="12.9324985"><ele>850.5</ele><time>2026-05-02T13:13:34.942Z</time></trkpt><trkpt lat="42.1339312" lon="12.9323321"><ele>849.75</ele><time>2026-05-02T13:13:35.943Z</time></trkpt><trkpt lat="42.1338721" lon="12.9321554"><ele>849.0</ele><time>2026-05-02T13:13:36.945Z</time></trkpt><trkpt lat="42.1337899" lon="12.931977"><ele>849.0</ele><time>2026-05-02T13:13:37.934Z</time></trkpt><trkpt lat="42.1337148" lon="12.9317797"><ele>849.0</ele><time>2026-05-02T13:13:38.948Z</time></trkpt><trkpt lat="42.1336621" lon="12.9315804"><ele>849.0</ele><time>2026-05-02T13:13:39.938Z</time></trkpt><trkpt lat="42.133639" lon="12.9313768"><ele>847.75</ele><time>2026-05-02T13:13:40.946Z</time></trkpt><trkpt lat="42.1336134" lon="12.9311779"><ele>846.5</ele><time>2026-05-02T13:13:41.948Z</time></trkpt><trkpt lat="42.1335845" lon="12.9310165"><ele>845.25</ele><time>2026-05-02T13:13:42.939Z</time></trkpt><trkpt lat="42.1335223" lon="12.9308576"><ele>844.0</ele><time>2026-05-02T13:13:43.946Z</time></trkpt><trkpt lat="42.1334781" lon="12.9307055"><ele>842.0</ele><time>2026-05-02T13:13:44.946Z</time></trkpt><trkpt lat="42.1334373" lon="12.93055"><ele>840.0</ele><time>2026-05-02T13:13:45.947Z</time></trkpt><trkpt lat="42.1334004" lon="12.9303923"><ele>838.0</ele><time>2026-05-02T13:13:46.941Z</time></trkpt><trkpt lat="42.1333865" lon="12.9302335"><ele>836.0</ele><time>2026-05-02T13:13:47.932Z</time></trkpt><trkpt lat="42.1333861" lon="12.930071"><ele>835.5</ele><time>2026-05-02T13:13:48.936Z</time></trkpt><trkpt lat="42.1334234" lon="12.929904"><ele>835.0</ele><time>2026-05-02T13:13:49.937Z</time></trkpt><trkpt lat="42.1334819" lon="12.9297523"><ele>834.5</ele><time>2026-05-02T13:13:50.932Z</time></trkpt><trkpt lat="42.1335523" lon="12.9296126"><ele>834.0</ele><time>2026-05-02T13:13:51.936Z</time></trkpt><trkpt lat="42.1336133" lon="12.9294976"><ele>834.0</ele><time>2026-05-02T13:13:52.939Z</time></trkpt><trkpt lat="42.1336579" lon="12.9293837"><ele>834.0</ele><time>2026-05-02T13:13:53.926Z</time></trkpt><trkpt lat="42.1337074" lon="12.9292721"><ele>834.0</ele><time>2026-05-02T13:13:54.937Z</time></trkpt><trkpt lat="42.1337267" lon="12.929171"><ele>834.0</ele><time>2026-05-02T13:13:55.942Z</time></trkpt><trkpt lat="42.1337271" lon="12.9290522"><ele>834.0</ele><time>2026-05-02T13:13:56.941Z</time></trkpt><trkpt lat="42.1337194" lon="12.9289377"><ele>834.0</ele><time>2026-05-02T13:13:57.939Z</time></trkpt><trkpt lat="42.1337096" lon="12.9288267"><ele>833.6666666666666</ele><time>2026-05-02T13:13:58.971Z</time></trkpt><trkpt lat="42.1336853" lon="12.9287201"><ele>833.3333333333333</ele><time>2026-05-02T13:13:59.961Z</time></trkpt><trkpt lat="42.1336538" lon="12.9286166"><ele>833.0</ele><time>2026-05-02T13:14:00.964Z</time></trkpt><trkpt lat="42.1336117" lon="12.9285212"><ele>832.6666666666666</ele><time>2026-05-02T13:14:01.956Z</time></trkpt><trkpt lat="42.1335669" lon="12.9284398"><ele>832.3333333333333</ele><time>2026-05-02T13:14:02.94Z</time></trkpt><trkpt lat="42.1334986" lon="12.928364"><ele>832.0</ele><time>2026-05-02T13:14:03.946Z</time></trkpt><trkpt lat="42.1334069" lon="12.9282799"><ele>830.5</ele><time>2026-05-02T13:14:04.938Z</time></trkpt><trkpt lat="42.1333085" lon="12.9281885"><ele>829.0</ele><time>2026-05-02T13:14:05.945Z</time></trkpt><trkpt lat="42.1331842" lon="12.9280734"><ele>827.5</ele><time>2026-05-02T13:14:06.962Z</time></trkpt><trkpt lat="42.1330838" lon="12.9279574"><ele>826.0</ele><time>2026-05-02T13:14:07.962Z</time></trkpt><trkpt lat="42.1330185" lon="12.9278554"><ele>826.0</ele><time>2026-05-02T13:14:08.952Z</time></trkpt><trkpt lat="42.1329773" lon="12.9277276"><ele>826.0</ele><time>2026-05-02T13:14:09.954Z</time></trkpt><trkpt lat="42.1329635" lon="12.9275972"><ele>826.0</ele><time>2026-05-02T13:14:10.962Z</time></trkpt><trkpt lat="42.1329943" lon="12.9274954"><ele>826.0</ele><time>2026-05-02T13:14:11.936Z</time></trkpt><trkpt lat="42.1330566" lon="12.9274228"><ele>826.0</ele><time>2026-05-02T13:14:12.948Z</time></trkpt><trkpt lat="42.1331638" lon="12.9273977"><ele>821.0</ele><time>2026-05-02T13:14:13.942Z</time></trkpt><trkpt lat="42.1332824" lon="12.9273942"><ele>816.0</ele><time>2026-05-02T13:14:14.949Z</time></trkpt><trkpt lat="42.1334204" lon="12.927376"><ele>811.0</ele><time>2026-05-02T13:14:15.961Z</time></trkpt><trkpt lat="42.1335592" lon="12.9273626"><ele>806.0</ele><time>2026-05-02T13:14:16.941Z</time></trkpt><trkpt lat="42.1336702" lon="12.9273241"><ele>806.0</ele><time>2026-05-02T13:14:17.943Z</time></trkpt><trkpt lat="42.1337652" lon="12.9272587"><ele>806.0</ele><time>2026-05-02T13:14:18.942Z</time></trkpt><trkpt lat="42.1338467" lon="12.9271646"><ele>806.0</ele><time>2026-05-02T13:14:19.96Z</time></trkpt><trkpt lat="42.1339293" lon="12.9270273"><ele>806.0</ele><time>2026-05-02T13:14:20.963Z</time></trkpt><trkpt lat="42.1340244" lon="12.9268854"><ele>802.0</ele><time>2026-05-02T13:14:21.942Z</time></trkpt><trkpt lat="42.1341152" lon="12.9266726"><ele>798.0</ele><time>2026-05-02T13:14:22.944Z</time></trkpt><trkpt lat="42.1342963" lon="12.9264136"><ele>794.0</ele><time>2026-05-02T13:14:23.956Z</time></trkpt><trkpt lat="42.1344632" lon="12.9261678"><ele>794.0</ele><time>2026-05-02T13:14:24.945Z</time></trkpt><trkpt lat="42.1346105" lon="12.9259332"><ele>794.0</ele><time>2026-05-02T13:14:25.935Z</time></trkpt><trkpt lat="42.1347304" lon="12.925723"><ele>794.0</ele><time>2026-05-02T13:14:26.968Z</time></trkpt><trkpt lat="42.1348501" lon="12.9255227"><ele>793.6666666666667</ele><time>2026-05-02T13:14:27.942Z</time></trkpt><trkpt lat="42.1349558" lon="12.9253381"><ele>793.3333333333333</ele><time>2026-05-02T13:14:28.95Z</time></trkpt><trkpt lat="42.1350619" lon="12.9251772"><ele>793.0</ele><time>2026-05-02T13:14:29.942Z</time></trkpt><trkpt lat="42.1351668" lon="12.9250003"><ele>792.5</ele><time>2026-05-02T13:14:30.946Z</time></trkpt><trkpt lat="42.1352602" lon="12.9248377"><ele>792.0</ele><time>2026-05-02T13:14:31.944Z</time></trkpt><trkpt lat="42.1353523" lon="12.9246899"><ele>791.5</ele><time>2026-05-02T13:14:32.945Z</time></trkpt><trkpt lat="42.1354452" lon="12.9245455"><ele>791.0</ele><time>2026-05-02T13:14:33.94Z</time></trkpt><trkpt lat="42.1355165" lon="12.9243825"><ele>791.0</ele><time>2026-05-02T13:14:34.946Z</time></trkpt><trkpt lat="42.1355736" lon="12.9242306"><ele>791.0</ele><time>2026-05-02T13:14:35.94Z</time></trkpt><trkpt lat="42.1356019" lon="12.9240744"><ele>791.0</ele><time>2026-05-02T13:14:36.944Z</time></trkpt><trkpt lat="42.1355924" lon="12.9239136"><ele>791.0</ele><time>2026-05-02T13:14:37.944Z</time></trkpt><trkpt lat="42.1355636" lon="12.9237443"><ele>791.0</ele><time>2026-05-02T13:14:38.94Z</time></trkpt><trkpt lat="42.1355593" lon="12.9236124"><ele>791.0</ele><time>2026-05-02T13:14:39.945Z</time></trkpt><trkpt lat="42.1356195" lon="12.9235193"><ele>791.0</ele><time>2026-05-02T13:14:40.939Z</time></trkpt><trkpt lat="42.1357124" lon="12.9234339"><ele>791.0</ele><time>2026-05-02T13:14:41.938Z</time></trkpt><trkpt lat="42.1358069" lon="12.9233607"><ele>791.0</ele><time>2026-05-02T13:14:42.939Z</time></trkpt><trkpt lat="42.1358909" lon="12.9232772"><ele>791.75</ele><time>2026-05-02T13:14:43.946Z</time></trkpt><trkpt lat="42.1359549" lon="12.923174"><ele>792.5</ele><time>2026-05-02T13:14:44.936Z</time></trkpt><trkpt lat="42.1359922" lon="12.9230367"><ele>793.25</ele><time>2026-05-02T13:14:45.949Z</time></trkpt><trkpt lat="42.1360304" lon="12.922864"><ele>794.0</ele><time>2026-05-02T13:14:46.929Z</time></trkpt><trkpt lat="42.1360686" lon="12.9226526"><ele>795.0</ele><time>2026-05-02T13:14:47.934Z</time></trkpt><trkpt lat="42.1361301" lon="12.9224046"><ele>796.0</ele><time>2026-05-02T13:14:48.935Z</time></trkpt><trkpt lat="42.1362129" lon="12.9221482"><ele>797.0</ele><time>2026-05-02T13:14:49.934Z</time></trkpt><trkpt lat="42.1362947" lon="12.9218938"><ele>797.6666666666667</ele><time>2026-05-02T13:14:50.936Z</time></trkpt><trkpt lat="42.1363691" lon="12.9216505"><ele>798.3333333333333</ele><time>2026-05-02T13:14:51.935Z</time></trkpt><trkpt lat="42.1364369" lon="12.9214308"><ele>799.0</ele><time>2026-05-02T13:14:52.937Z</time></trkpt><trkpt lat="42.1365059" lon="12.9212334"><ele>806.3333333333333</ele><time>2026-05-02T13:14:53.939Z</time></trkpt><trkpt lat="42.1365723" lon="12.9210145"><ele>813.6666666666667</ele><time>2026-05-02T13:14:54.94Z</time></trkpt><trkpt lat="42.1366525" lon="12.920806"><ele>821.0</ele><time>2026-05-02T13:14:55.937Z</time></trkpt><trkpt lat="42.1367063" lon="12.9206219"><ele>821.0</ele><time>2026-05-02T13:14:56.94Z</time></trkpt><trkpt lat="42.1367529" lon="12.9204622"><ele>821.0</ele><time>2026-05-02T13:14:57.941Z</time></trkpt><trkpt lat="42.1367907" lon="12.9202961"><ele>821.0</ele><time>2026-05-02T13:14:58.932Z</time></trkpt><trkpt lat="42.1368133" lon="12.9200588"><ele>821.0</ele><time>2026-05-02T13:14:59.936Z</time></trkpt><trkpt lat="42.1368152" lon="12.9198216"><ele>821.5999999999999</ele><time>2026-05-02T13:15:00.929Z</time></trkpt><trkpt lat="42.1368114" lon="12.9196455"><ele>822.2</ele><time>2026-05-02T13:15:01.929Z</time></trkpt><trkpt lat="42.1368081" lon="12.9195138"><ele>822.8</ele><time>2026-05-02T13:15:02.936Z</time></trkpt><trkpt lat="42.1367939" lon="12.9194044"><ele>823.4000000000001</ele><time>2026-05-02T13:15:03.927Z</time></trkpt><trkpt lat="42.1367612" lon="12.9192482"><ele>824.0</ele><time>2026-05-02T13:15:05.93Z</time></trkpt><trkpt lat="42.1368711" lon="12.9193245"><ele>824.0000000000001</ele><time>2026-05-02T13:15:08.936Z</time></trkpt><trkpt lat="42.1369217" lon="12.919396"><ele>824.0</ele><time>2026-05-02T13:15:09.937Z</time></trkpt><trkpt lat="42.1369669" lon="12.9195071"><ele>824.0</ele><time>2026-05-02T13:15:10.933Z</time></trkpt><trkpt lat="42.1370083" lon="12.9196316"><ele>824.0</ele><time>2026-05-02T13:15:11.936Z</time></trkpt><trkpt lat="42.1370662" lon="12.9197337"><ele>824.0000000000001</ele><time>2026-05-02T13:15:12.936Z</time></trkpt><trkpt lat="42.1371347" lon="12.9197905"><ele>824.0</ele><time>2026-05-02T13:15:13.937Z</time></trkpt><trkpt lat="42.1372077" lon="12.9198121"><ele>824.0</ele><time>2026-05-02T13:15:14.935Z</time></trkpt><trkpt lat="42.1372817" lon="12.9197859"><ele>824.0</ele><time>2026-05-02T13:15:15.946Z</time></trkpt><trkpt lat="42.1373553" lon="12.9196615"><ele>824.0</ele><time>2026-05-02T13:15:17.949Z</time></trkpt><trkpt lat="42.1373279" lon="12.919555"><ele>824.0</ele><time>2026-05-02T13:15:18.962Z</time></trkpt><trkpt lat="42.1372785" lon="12.9194231"><ele>824.0</ele><time>2026-05-02T13:15:19.959Z</time></trkpt><trkpt lat="42.1372496" lon="12.9192791"><ele>826.0</ele><time>2026-05-02T13:15:20.963Z</time></trkpt><trkpt lat="42.137228" lon="12.9190911"><ele>828.0</ele><time>2026-05-02T13:15:21.937Z</time></trkpt><trkpt lat="42.1371992" lon="12.9188821"><ele>830.0</ele><time>2026-05-02T13:15:22.935Z</time></trkpt><trkpt lat="42.1371835" lon="12.9186542"><ele>833.0</ele><time>2026-05-02T13:15:23.957Z</time></trkpt><trkpt lat="42.137145" lon="12.9183608"><ele>836.0</ele><time>2026-05-02T13:15:24.934Z</time></trkpt><trkpt lat="42.137095" lon="12.9180751"><ele>839.0</ele><time>2026-05-02T13:15:25.932Z</time></trkpt><trkpt lat="42.1370378" lon="12.9178125"><ele>842.0</ele><time>2026-05-02T13:15:26.935Z</time></trkpt><trkpt lat="42.1370122" lon="12.9175233"><ele>845.0</ele><time>2026-05-02T13:15:27.949Z</time></trkpt><trkpt lat="42.1370425" lon="12.9173321"><ele>848.0</ele><time>2026-05-02T13:15:28.93Z</time></trkpt><trkpt lat="42.1370439" lon="12.9171288"><ele>848.0</ele><time>2026-05-02T13:15:29.923Z</time></trkpt><trkpt lat="42.1370301" lon="12.9169411"><ele>848.0</ele><time>2026-05-02T13:15:30.943Z</time></trkpt><trkpt lat="42.1370003" lon="12.9167706"><ele>848.0</ele><time>2026-05-02T13:15:31.932Z</time></trkpt><trkpt lat="42.1369899" lon="12.9165878"><ele>848.0</ele><time>2026-05-02T13:15:32.931Z</time></trkpt><trkpt lat="42.1370405" lon="12.9163799"><ele>851.3333333333334</ele><time>2026-05-02T13:15:33.931Z</time></trkpt><trkpt lat="42.1371403" lon="12.9161895"><ele>854.6666666666667</ele><time>2026-05-02T13:15:34.933Z</time></trkpt><trkpt lat="42.1372602" lon="12.9160238"><ele>858.0</ele><time>2026-05-02T13:15:35.93Z</time></trkpt><trkpt lat="42.1373313" lon="12.9158037"><ele>860.0</ele><time>2026-05-02T13:15:36.937Z</time></trkpt><trkpt lat="42.1373836" lon="12.9156132"><ele>862.0</ele><time>2026-05-02T13:15:37.939Z</time></trkpt><trkpt lat="42.1374135" lon="12.9154162"><ele>864.0</ele><time>2026-05-02T13:15:38.939Z</time></trkpt><trkpt lat="42.1374531" lon="12.9151767"><ele>867.6666666666667</ele><time>2026-05-02T13:15:39.94Z</time></trkpt><trkpt lat="42.1374596" lon="12.9149114"><ele>871.3333333333334</ele><time>2026-05-02T13:15:40.941Z</time></trkpt><trkpt lat="42.1374602" lon="12.9146886"><ele>875.0</ele><time>2026-05-02T13:15:41.933Z</time></trkpt><trkpt lat="42.1374674" lon="12.9144853"><ele>875.0</ele><time>2026-05-02T13:15:42.938Z</time></trkpt><trkpt lat="42.1375072" lon="12.9142693"><ele>875.0</ele><time>2026-05-02T13:15:43.96Z</time></trkpt><trkpt lat="42.137556" lon="12.914073"><ele>875.0</ele><time>2026-05-02T13:15:44.936Z</time></trkpt><trkpt lat="42.1375808" lon="12.9138836"><ele>875.75</ele><time>2026-05-02T13:15:45.949Z</time></trkpt><trkpt lat="42.1376238" lon="12.9137056"><ele>876.5</ele><time>2026-05-02T13:15:46.939Z</time></trkpt><trkpt lat="42.1376325" lon="12.9135329"><ele>877.25</ele><time>2026-05-02T13:15:47.943Z</time></trkpt><trkpt lat="42.1376809" lon="12.9133838"><ele>878.0</ele><time>2026-05-02T13:15:48.938Z</time></trkpt><trkpt lat="42.1377337" lon="12.9132082"><ele>878.0</ele><time>2026-05-02T13:15:49.942Z</time></trkpt><trkpt lat="42.1377846" lon="12.9130078"><ele>878.0</ele><time>2026-05-02T13:15:50.936Z</time></trkpt><trkpt lat="42.1378276" lon="12.9127859"><ele>878.0</ele><time>2026-05-02T13:15:51.943Z</time></trkpt><trkpt lat="42.1378641" lon="12.9126102"><ele>878.0</ele><time>2026-05-02T13:15:52.941Z</time></trkpt><trkpt lat="42.1379171" lon="12.9124577"><ele>878.0</ele><time>2026-05-02T13:15:53.965Z</time></trkpt><trkpt lat="42.1379904" lon="12.9123043"><ele>878.0</ele><time>2026-05-02T13:15:54.945Z</time></trkpt><trkpt lat="42.138068" lon="12.9121375"><ele>878.0</ele><time>2026-05-02T13:15:55.946Z</time></trkpt><trkpt lat="42.1381448" lon="12.9119402"><ele>884.0</ele><time>2026-05-02T13:15:56.939Z</time></trkpt><trkpt lat="42.1382256" lon="12.9117232"><ele>890.0</ele><time>2026-05-02T13:15:57.938Z</time></trkpt><trkpt lat="42.1383239" lon="12.9114743"><ele>896.0</ele><time>2026-05-02T13:15:58.943Z</time></trkpt><trkpt lat="42.1384081" lon="12.9112417"><ele>896.0</ele><time>2026-05-02T13:15:59.934Z</time></trkpt><trkpt lat="42.1384859" lon="12.9109992"><ele>896.0</ele><time>2026-05-02T13:16:00.953Z</time></trkpt><trkpt lat="42.1385664" lon="12.9107932"><ele>896.0</ele><time>2026-05-02T13:16:01.945Z</time></trkpt><trkpt lat="42.1386449" lon="12.9106052"><ele>896.3333333333334</ele><time>2026-05-02T13:16:02.939Z</time></trkpt><trkpt lat="42.1386848" lon="12.9104137"><ele>896.6666666666667</ele><time>2026-05-02T13:16:03.947Z</time></trkpt><trkpt lat="42.1387227" lon="12.9102105"><ele>897.0</ele><time>2026-05-02T13:16:04.942Z</time></trkpt><trkpt lat="42.1387451" lon="12.9099812"><ele>897.0</ele><time>2026-05-02T13:16:05.959Z</time></trkpt><trkpt lat="42.1387452" lon="12.909733"><ele>897.0</ele><time>2026-05-02T13:16:06.945Z</time></trkpt><trkpt lat="42.1387423" lon="12.9094901"><ele>897.0</ele><time>2026-05-02T13:16:07.938Z</time></trkpt><trkpt lat="42.1387469" lon="12.9092669"><ele>898.5</ele><time>2026-05-02T13:16:08.949Z</time></trkpt><trkpt lat="42.1387521" lon="12.9090607"><ele>900.0</ele><time>2026-05-02T13:16:09.942Z</time></trkpt><trkpt lat="42.13877" lon="12.9088835"><ele>901.5</ele><time>2026-05-02T13:16:10.946Z</time></trkpt><trkpt lat="42.1387761" lon="12.9087397"><ele>903.0</ele><time>2026-05-02T13:16:11.966Z</time></trkpt><trkpt lat="42.1387393" lon="12.9085931"><ele>903.0</ele><time>2026-05-02T13:16:12.939Z</time></trkpt><trkpt lat="42.1386579" lon="12.9084457"><ele>903.0</ele><time>2026-05-02T13:16:13.944Z</time></trkpt><trkpt lat="42.1385523" lon="12.9082928"><ele>903.0</ele><time>2026-05-02T13:16:14.944Z</time></trkpt><trkpt lat="42.1384431" lon="12.908165"><ele>903.0</ele><time>2026-05-02T13:16:15.945Z</time></trkpt><trkpt lat="42.1383148" lon="12.908052"><ele>904.0</ele><time>2026-05-02T13:16:16.943Z</time></trkpt><trkpt lat="42.1381863" lon="12.9079149"><ele>905.0</ele><time>2026-05-02T13:16:17.939Z</time></trkpt><trkpt lat="42.1380739" lon="12.907812"><ele>906.0</ele><time>2026-05-02T13:16:18.933Z</time></trkpt><trkpt lat="42.1380068" lon="12.9077692"><ele>907.0</ele><time>2026-05-02T13:16:19.944Z</time></trkpt><trkpt lat="42.1379622" lon="12.9077033"><ele>908.0</ele><time>2026-05-02T13:16:20.933Z</time></trkpt><trkpt lat="42.1379203" lon="12.9076227"><ele>909.5000000000001</ele><time>2026-05-02T13:16:21.936Z</time></trkpt><trkpt lat="42.1378777" lon="12.9075232"><ele>911.0</ele><time>2026-05-02T13:16:23.941Z</time></trkpt><trkpt lat="42.1378563" lon="12.9074345"><ele>912.5</ele><time>2026-05-02T13:16:27.95Z</time></trkpt><trkpt lat="42.137854" lon="12.9073232"><ele>914.0</ele><time>2026-05-02T13:17:13.943Z</time></trkpt><trkpt lat="42.1378546" lon="12.9072265"><ele>915.5000000000001</ele><time>2026-05-02T13:18:40.95Z</time></trkpt><trkpt lat="42.1378094" lon="12.9070917"><ele>917.0</ele><time>2026-05-02T13:18:43.952Z</time></trkpt><trkpt lat="42.1377619" lon="12.9070318"><ele>917.0</ele><time>2026-05-02T13:18:44.953Z</time></trkpt><trkpt lat="42.1376903" lon="12.9068869"><ele>917.0</ele><time>2026-05-02T13:18:46.954Z</time></trkpt><trkpt lat="42.1376389" lon="12.9068107"><ele>917.0</ele><time>2026-05-02T13:18:47.95Z</time></trkpt><trkpt lat="42.1375701" lon="12.9067544"><ele>917.0</ele><time>2026-05-02T13:18:48.949Z</time></trkpt><trkpt lat="42.1375192" lon="12.906701"><ele>917.0</ele><time>2026-05-02T13:18:49.95Z</time></trkpt><trkpt lat="42.1374148" lon="12.9066052"><ele>917.3333333333334</ele><time>2026-05-02T13:18:51.947Z</time></trkpt><trkpt lat="42.1373489" lon="12.9065459"><ele>917.6666666666667</ele><time>2026-05-02T13:18:52.956Z</time></trkpt><trkpt lat="42.1372907" lon="12.9065085"><ele>918.0</ele><time>2026-05-02T13:18:53.938Z</time></trkpt><trkpt lat="42.1372279" lon="12.9065"><ele>918.3333333333333</ele><time>2026-05-02T13:18:54.952Z</time></trkpt><trkpt lat="42.137144" lon="12.906518"><ele>918.6666666666666</ele><time>2026-05-02T13:18:56.947Z</time></trkpt><trkpt lat="42.1370807" lon="12.9065492"><ele>919.0</ele><time>2026-05-02T13:18:58.952Z</time></trkpt><trkpt lat="42.137004" lon="12.9064829"><ele>918.9999999999999</ele><time>2026-05-02T13:19:01.944Z</time></trkpt><trkpt lat="42.1369738" lon="12.9063642"><ele>919.0</ele><time>2026-05-02T13:19:03.937Z</time></trkpt><trkpt lat="42.136974" lon="12.9062696"><ele>919.0</ele><time>2026-05-02T13:19:04.939Z</time></trkpt><trkpt lat="42.1369753" lon="12.9061761"><ele>919.0</ele><time>2026-05-02T13:19:05.944Z</time></trkpt><trkpt lat="42.1369804" lon="12.9060903"><ele>918.9999999999999</ele><time>2026-05-02T13:19:06.933Z</time></trkpt><trkpt lat="42.1369834" lon="12.9059215"><ele>919.0</ele><time>2026-05-02T13:19:08.942Z</time></trkpt><trkpt lat="42.1369692" lon="12.9058336"><ele>918.4999999999999</ele><time>2026-05-02T13:19:09.943Z</time></trkpt><trkpt lat="42.1369534" lon="12.9057424"><ele>918.0</ele><time>2026-05-02T13:19:10.939Z</time></trkpt><trkpt lat="42.1369351" lon="12.905658"><ele>917.5</ele><time>2026-05-02T13:19:11.939Z</time></trkpt><trkpt lat="42.1369128" lon="12.9055548"><ele>917.0</ele><time>2026-05-02T13:19:12.942Z</time></trkpt><trkpt lat="42.1368861" lon="12.9054458"><ele>916.4999999999999</ele><time>2026-05-02T13:19:13.937Z</time></trkpt><trkpt lat="42.1368556" lon="12.9053607"><ele>916.0</ele><time>2026-05-02T13:19:14.941Z</time></trkpt><trkpt lat="42.1368014" lon="12.9052397"><ele>915.9999999999999</ele><time>2026-05-02T13:19:16.946Z</time></trkpt><trkpt lat="42.136743" lon="12.9051651"><ele>916.0</ele><time>2026-05-02T13:19:18.949Z</time></trkpt><trkpt lat="42.1366777" lon="12.9050925"><ele>916.0</ele><time>2026-05-02T13:20:06.987Z</time></trkpt><trkpt lat="42.1366116" lon="12.9050579"><ele>916.0</ele><time>2026-05-02T13:20:21.943Z</time></trkpt><trkpt lat="42.1365481" lon="12.9050065"><ele>915.9999999999999</ele><time>2026-05-02T13:20:24.938Z</time></trkpt><trkpt lat="42.136484" lon="12.9048998"><ele>916.0</ele><time>2026-05-02T13:20:36.934Z</time></trkpt><trkpt lat="42.1364467" lon="12.9048275"><ele>916.0</ele><time>2026-05-02T13:24:59.003Z</time></trkpt><trkpt lat="42.1368842" lon="12.9052173"><ele>915.9999999999999</ele><time>2026-05-02T13:28:44.609Z</time></trkpt><trkpt lat="42.1368236" lon="12.9051906"><ele>916.0</ele><time>2026-05-02T13:28:55.632Z</time></trkpt><trkpt lat="42.1367473" lon="12.9052332"><ele>916.0</ele><time>2026-05-02T13:29:15.029Z</time></trkpt><trkpt lat="42.1367604" lon="12.9053291"><ele>916.0</ele><time>2026-05-02T13:29:17.029Z</time></trkpt><trkpt lat="42.1368281" lon="12.9054038"><ele>915.9999999999999</ele><time>2026-05-02T13:29:19.028Z</time></trkpt><trkpt lat="42.1368647" lon="12.9054838"><ele>916.0</ele><time>2026-05-02T13:29:21.034Z</time></trkpt><trkpt lat="42.136844" lon="12.9056062"><ele>915.9999999999999</ele><time>2026-05-02T13:29:24.028Z</time></trkpt><trkpt lat="42.1368218" lon="12.9056872"><ele>916.0</ele><time>2026-05-02T13:29:25.03Z</time></trkpt><trkpt lat="42.1367915" lon="12.9057918"><ele>916.0</ele><time>2026-05-02T13:29:26.035Z</time></trkpt><trkpt lat="42.1367645" lon="12.9058922"><ele>916.0</ele><time>2026-05-02T13:29:27.029Z</time></trkpt><trkpt lat="42.1367349" lon="12.9060088"><ele>915.9999999999999</ele><time>2026-05-02T13:29:28.033Z</time></trkpt><trkpt lat="42.1366967" lon="12.9061393"><ele>916.0</ele><time>2026-05-02T13:29:29.034Z</time></trkpt><trkpt lat="42.1366643" lon="12.9062492"><ele>916.4285714285713</ele><time>2026-05-02T13:29:30.024Z</time></trkpt><trkpt lat="42.1366412" lon="12.9063379"><ele>916.8571428571429</ele><time>2026-05-02T13:29:31.032Z</time></trkpt><trkpt lat="42.1366132" lon="12.9064684"><ele>917.2857142857142</ele><time>2026-05-02T13:29:33.032Z</time></trkpt><trkpt lat="42.1366208" lon="12.906556"><ele>917.7142857142857</ele><time>2026-05-02T13:29:35.027Z</time></trkpt><trkpt lat="42.1366685" lon="12.906632"><ele>918.1428571428571</ele><time>2026-05-02T13:29:37.037Z</time></trkpt><trkpt lat="42.1367177" lon="12.9066963"><ele>918.5714285714286</ele><time>2026-05-02T13:29:49.033Z</time></trkpt><trkpt lat="42.1367782" lon="12.9066646"><ele>919.0</ele><time>2026-05-02T13:29:52.038Z</time></trkpt><trkpt lat="42.1367552" lon="12.9065485"><ele>918.9999999999999</ele><time>2026-05-02T13:29:55.03Z</time></trkpt><trkpt lat="42.1366711" lon="12.9064228"><ele>919.0</ele><time>2026-05-02T13:29:57.026Z</time></trkpt><trkpt lat="42.1366097" lon="12.9063706"><ele>919.0</ele><time>2026-05-02T13:29:58.025Z</time></trkpt><trkpt lat="42.1365352" lon="12.9063352"><ele>919.0</ele><time>2026-05-02T13:29:59.032Z</time></trkpt><trkpt lat="42.1364509" lon="12.9063035"><ele>918.9999999999999</ele><time>2026-05-02T13:30:00.037Z</time></trkpt><trkpt lat="42.136372" lon="12.9062694"><ele>919.0</ele><time>2026-05-02T13:30:01.031Z</time></trkpt><trkpt lat="42.1362967" lon="12.9062264"><ele>918.9999999999999</ele><time>2026-05-02T13:30:02.025Z</time></trkpt><trkpt lat="42.1362139" lon="12.9061648"><ele>919.0</ele><time>2026-05-02T13:30:03.03Z</time></trkpt><trkpt lat="42.1361341" lon="12.9060904"><ele>919.0</ele><time>2026-05-02T13:30:04.034Z</time></trkpt><trkpt lat="42.1360599" lon="12.9060117"><ele>919.0</ele><time>2026-05-02T13:30:05.026Z</time></trkpt><trkpt lat="42.1359919" lon="12.9059419"><ele>918.9999999999999</ele><time>2026-05-02T13:30:06.032Z</time></trkpt><trkpt lat="42.1359369" lon="12.9058887"><ele>919.0</ele><time>2026-05-02T13:30:07.027Z</time></trkpt><trkpt lat="42.1358684" lon="12.9058286"><ele>918.9999999999999</ele><time>2026-05-02T13:30:09.026Z</time></trkpt><trkpt lat="42.1359471" lon="12.9058109"><ele>919.0</ele><time>2026-05-02T13:30:22.022Z</time></trkpt><trkpt lat="42.1360077" lon="12.9058975"><ele>919.0</ele><time>2026-05-02T13:30:24.014Z</time></trkpt><trkpt lat="42.1360511" lon="12.9059918"><ele>919.0</ele><time>2026-05-02T13:30:25.027Z</time></trkpt><trkpt lat="42.1361073" lon="12.9060958"><ele>918.9999999999999</ele><time>2026-05-02T13:30:26.028Z</time></trkpt><trkpt lat="42.1361729" lon="12.9061783"><ele>919.0</ele><time>2026-05-02T13:30:27.03Z</time></trkpt><trkpt lat="42.1362514" lon="12.9062392"><ele>918.9999999999999</ele><time>2026-05-02T13:30:28.03Z</time></trkpt><trkpt lat="42.1363244" lon="12.9062829"><ele>919.0</ele><time>2026-05-02T13:30:29.033Z</time></trkpt><trkpt lat="42.1364063" lon="12.9063123"><ele>919.0</ele><time>2026-05-02T13:30:30.025Z</time></trkpt><trkpt lat="42.1364948" lon="12.9063467"><ele>919.0</ele><time>2026-05-02T13:30:31.029Z</time></trkpt><trkpt lat="42.1365783" lon="12.9063958"><ele>918.9999999999999</ele><time>2026-05-02T13:30:32.016Z</time></trkpt><trkpt lat="42.1366479" lon="12.9064551"><ele>919.0</ele><time>2026-05-02T13:30:33.026Z</time></trkpt><trkpt lat="42.1367174" lon="12.9065169"><ele>918.9999999999999</ele><time>2026-05-02T13:30:34.027Z</time></trkpt><trkpt lat="42.136788" lon="12.9065685"><ele>919.0</ele><time>2026-05-02T13:30:35.019Z</time></trkpt><trkpt lat="42.1368656" lon="12.906577"><ele>919.0</ele><time>2026-05-02T13:30:37.015Z</time></trkpt><trkpt lat="42.1369284" lon="12.9065893"><ele>919.0</ele><time>2026-05-02T13:30:46.016Z</time></trkpt><trkpt lat="42.1369847" lon="12.906631"><ele>918.9999999999999</ele><time>2026-05-02T13:30:53.016Z</time></trkpt><trkpt lat="42.13708" lon="12.90663"><ele>919.0</ele><time>2026-05-02T13:30:56.016Z</time></trkpt><trkpt lat="42.1371447" lon="12.9066002"><ele>918.9999999999999</ele><time>2026-05-02T13:30:57.025Z</time></trkpt><trkpt lat="42.1372122" lon="12.90657"><ele>919.0</ele><time>2026-05-02T13:30:58.024Z</time></trkpt><trkpt lat="42.1373172" lon="12.906535"><ele>919.0</ele><time>2026-05-02T13:31:00.023Z</time></trkpt><trkpt lat="42.1374107" lon="12.906546"><ele>919.0</ele><time>2026-05-02T13:31:02.024Z</time></trkpt><trkpt lat="42.1374733" lon="12.9065666"><ele>918.9999999999999</ele><time>2026-05-02T13:31:04.03Z</time></trkpt><trkpt lat="42.137546" lon="12.9066499"><ele>919.0</ele><time>2026-05-02T13:31:07.027Z</time></trkpt><trkpt lat="42.1375673" lon="12.9067772"><ele>918.6</ele><time>2026-05-02T13:31:09.028Z</time></trkpt><trkpt lat="42.1375699" lon="12.9068953"><ele>918.2</ele><time>2026-05-02T13:31:11.031Z</time></trkpt><trkpt lat="42.1376512" lon="12.9069305"><ele>917.8000000000001</ele><time>2026-05-02T13:31:14.017Z</time></trkpt><trkpt lat="42.1377291" lon="12.906981"><ele>917.4000000000001</ele><time>2026-05-02T13:31:16.02Z</time></trkpt><trkpt lat="42.1377742" lon="12.9071027"><ele>917.0</ele><time>2026-05-02T13:31:18.02Z</time></trkpt><trkpt lat="42.1378305" lon="12.9072116"><ele>917.0</ele><time>2026-05-02T13:31:20.024Z</time></trkpt><trkpt lat="42.1378661" lon="12.9073032"><ele>917.0</ele><time>2026-05-02T13:31:22.018Z</time></trkpt><trkpt lat="42.1378936" lon="12.9073905"><ele>917.0</ele><time>2026-05-02T13:31:53.03Z</time></trkpt><trkpt lat="42.1378743" lon="12.9075159"><ele>917.0</ele><time>2026-05-02T13:32:16.034Z</time></trkpt><trkpt lat="42.1377972" lon="12.9075834"><ele>917.0</ele><time>2026-05-02T13:32:18.025Z</time></trkpt><trkpt lat="42.137658" lon="12.9075711"><ele>917.0</ele><time>2026-05-02T13:32:20.027Z</time></trkpt><trkpt lat="42.1375591" lon="12.9075085"><ele>917.0</ele><time>2026-05-02T13:32:21.017Z</time></trkpt><trkpt lat="42.1374393" lon="12.9074214"><ele>917.0</ele><time>2026-05-02T13:32:22.054Z</time></trkpt><trkpt lat="42.137311" lon="12.907318"><ele>917.0</ele><time>2026-05-02T13:32:23.023Z</time></trkpt><trkpt lat="42.1371747" lon="12.9072075"><ele>917.3333333333334</ele><time>2026-05-02T13:32:24.022Z</time></trkpt><trkpt lat="42.1369705" lon="12.9070517"><ele>917.6666666666667</ele><time>2026-05-02T13:32:25.012Z</time></trkpt><trkpt lat="42.1368064" lon="12.906935"><ele>918.0</ele><time>2026-05-02T13:32:26.02Z</time></trkpt><trkpt lat="42.1366583" lon="12.9068109"><ele>918.25</ele><time>2026-05-02T13:32:27.004Z</time></trkpt><trkpt lat="42.1365463" lon="12.9067042"><ele>918.5</ele><time>2026-05-02T13:32:28.015Z</time></trkpt><trkpt lat="42.1364557" lon="12.9066022"><ele>918.75</ele><time>2026-05-02T13:32:29.012Z</time></trkpt><trkpt lat="42.1363349" lon="12.9065218"><ele>919.0</ele><time>2026-05-02T13:32:30.011Z</time></trkpt><trkpt lat="42.1362047" lon="12.9064113"><ele>919.0</ele><time>2026-05-02T13:32:31.012Z</time></trkpt><trkpt lat="42.1360547" lon="12.9062871"><ele>919.0</ele><time>2026-05-02T13:32:32.012Z</time></trkpt><trkpt lat="42.1359318" lon="12.9061292"><ele>919.0</ele><time>2026-05-02T13:32:33.013Z</time></trkpt><trkpt lat="42.1358456" lon="12.9060062"><ele>919.8000000000001</ele><time>2026-05-02T13:32:34.017Z</time></trkpt><trkpt lat="42.1357726" lon="12.9058878"><ele>920.6000000000001</ele><time>2026-05-02T13:32:35.014Z</time></trkpt><trkpt lat="42.1357139" lon="12.9057839"><ele>921.4</ele><time>2026-05-02T13:32:36.02Z</time></trkpt><trkpt lat="42.1356709" lon="12.9057213"><ele>922.2</ele><time>2026-05-02T13:32:37.017Z</time></trkpt><trkpt lat="42.1356358" lon="12.9055964"><ele>923.0</ele><time>2026-05-02T13:32:39.02Z</time></trkpt><trkpt lat="42.1356154" lon="12.9054821"><ele>923.1666666666667</ele><time>2026-05-02T13:32:41.026Z</time></trkpt><trkpt lat="42.1355741" lon="12.9054041"><ele>923.3333333333334</ele><time>2026-05-02T13:32:43.018Z</time></trkpt><trkpt lat="42.1355458" lon="12.9053015"><ele>923.5</ele><time>2026-05-02T13:32:49.021Z</time></trkpt><trkpt lat="42.1354785" lon="12.9052864"><ele>923.6666666666667</ele><time>2026-05-02T13:32:56.028Z</time></trkpt><trkpt lat="42.1354518" lon="12.9054142"><ele>923.8333333333334</ele><time>2026-05-02T13:32:58.181Z</time></trkpt><trkpt lat="42.135416" lon="12.9055309"><ele>924.0</ele><time>2026-05-02T13:33:00.014Z</time></trkpt><trkpt lat="42.1353502" lon="12.9055846"><ele>924.0</ele><time>2026-05-02T13:33:02.018Z</time></trkpt><trkpt lat="42.135275" lon="12.905587"><ele>924.0000000000001</ele><time>2026-05-02T13:33:04.014Z</time></trkpt><trkpt lat="42.1352244" lon="12.9055149"><ele>924.0000000000001</ele><time>2026-05-02T13:33:06.009Z</time></trkpt><trkpt lat="42.1351779" lon="12.9053626"><ele>924.0</ele><time>2026-05-02T13:33:08.034Z</time></trkpt><trkpt lat="42.1351703" lon="12.9052669"><ele>924.0</ele><time>2026-05-02T13:33:09.016Z</time></trkpt><trkpt lat="42.1351882" lon="12.9051132"><ele>926.2</ele><time>2026-05-02T13:33:11.013Z</time></trkpt><trkpt lat="42.1352454" lon="12.9049438"><ele>928.4000000000001</ele><time>2026-05-02T13:33:13.003Z</time></trkpt><trkpt lat="42.1353056" lon="12.9048491"><ele>930.6</ele><time>2026-05-02T13:33:15.009Z</time></trkpt><trkpt lat="42.1353232" lon="12.9047507"><ele>932.8</ele><time>2026-05-02T13:33:24.015Z</time></trkpt><trkpt lat="42.1352879" lon="12.9045894"><ele>935.0</ele><time>2026-05-02T13:33:26.021Z</time></trkpt><trkpt lat="42.1352361" lon="12.9044523"><ele>935.0</ele><time>2026-05-02T13:33:27.007Z</time></trkpt><trkpt lat="42.1351783" lon="12.9043012"><ele>935.0</ele><time>2026-05-02T13:33:28.01Z</time></trkpt><trkpt lat="42.1351222" lon="12.904131"><ele>935.0</ele><time>2026-05-02T13:33:28.999Z</time></trkpt><trkpt lat="42.1350614" lon="12.903948"><ele>935.0</ele><time>2026-05-02T13:33:30.003Z</time></trkpt><trkpt lat="42.1349765" lon="12.9036776"><ele>937.3333333333334</ele><time>2026-05-02T13:33:31.019Z</time></trkpt><trkpt lat="42.1348934" lon="12.9034186"><ele>939.6666666666667</ele><time>2026-05-02T13:33:32.007Z</time></trkpt><trkpt lat="42.1347915" lon="12.903162"><ele>942.0</ele><time>2026-05-02T13:33:33.015Z</time></trkpt><trkpt lat="42.1346946" lon="12.9028955"><ele>946.0</ele><time>2026-05-02T13:33:34.014Z</time></trkpt><trkpt lat="42.1346115" lon="12.9026498"><ele>950.0</ele><time>2026-05-02T13:33:35.001Z</time></trkpt><trkpt lat="42.1345331" lon="12.9024041"><ele>954.0</ele><time>2026-05-02T13:33:36.005Z</time></trkpt><trkpt lat="42.1344787" lon="12.9021171"><ele>955.3333333333333</ele><time>2026-05-02T13:33:37Z</time></trkpt><trkpt lat="42.1344081" lon="12.9018969"><ele>956.6666666666666</ele><time>2026-05-02T13:33:38.013Z</time></trkpt><trkpt lat="42.1343186" lon="12.9017075"><ele>958.0</ele><time>2026-05-02T13:33:39Z</time></trkpt><trkpt lat="42.1342279" lon="12.901494"><ele>958.6666666666666</ele><time>2026-05-02T13:33:39.993Z</time></trkpt><trkpt lat="42.1341377" lon="12.9012477"><ele>959.3333333333333</ele><time>2026-05-02T13:33:41.007Z</time></trkpt><trkpt lat="42.1340085" lon="12.9010408"><ele>960.0</ele><time>2026-05-02T13:33:42.002Z</time></trkpt><trkpt lat="42.133868" lon="12.9008214"><ele>966.0</ele><time>2026-05-02T13:33:43.017Z</time></trkpt><trkpt lat="42.1337219" lon="12.9006159"><ele>972.0</ele><time>2026-05-02T13:33:44.013Z</time></trkpt><trkpt lat="42.133609" lon="12.9004458"><ele>978.0</ele><time>2026-05-02T13:33:45.018Z</time></trkpt><trkpt lat="42.1334859" lon="12.900283"><ele>978.0</ele><time>2026-05-02T13:33:46.02Z</time></trkpt><trkpt lat="42.1333795" lon="12.9001453"><ele>978.0</ele><time>2026-05-02T13:33:47.014Z</time></trkpt><trkpt lat="42.1333027" lon="12.9000222"><ele>978.0</ele><time>2026-05-02T13:33:48.004Z</time></trkpt><trkpt lat="42.1332444" lon="12.8998983"><ele>978.0</ele><time>2026-05-02T13:33:49.006Z</time></trkpt><trkpt lat="42.133176" lon="12.8997614"><ele>978.0</ele><time>2026-05-02T13:33:50.002Z</time></trkpt><trkpt lat="42.1331071" lon="12.8996369"><ele>978.0</ele><time>2026-05-02T13:33:51.01Z</time></trkpt><trkpt lat="42.1330253" lon="12.8994883"><ele>978.0</ele><time>2026-05-02T13:33:52.079Z</time></trkpt><trkpt lat="42.1329475" lon="12.8993326"><ele>978.0</ele><time>2026-05-02T13:33:53.004Z</time></trkpt><trkpt lat="42.1328617" lon="12.8991923"><ele>978.0</ele><time>2026-05-02T13:33:53.999Z</time></trkpt><trkpt lat="42.1327874" lon="12.89907"><ele>978.0</ele><time>2026-05-02T13:33:55.015Z</time></trkpt><trkpt lat="42.1327027" lon="12.8989624"><ele>978.0</ele><time>2026-05-02T13:33:56.009Z</time></trkpt><trkpt lat="42.1326035" lon="12.8988513"><ele>978.0</ele><time>2026-05-02T13:33:57.013Z</time></trkpt><trkpt lat="42.1325399" lon="12.8987957"><ele>978.0</ele><time>2026-05-02T13:33:58.015Z</time></trkpt><trkpt lat="42.1324535" lon="12.8987379"><ele>978.0</ele><time>2026-05-02T13:33:59.017Z</time></trkpt><trkpt lat="42.1323903" lon="12.8986766"><ele>978.0</ele><time>2026-05-02T13:34:00.008Z</time></trkpt><trkpt lat="42.1323421" lon="12.8985485"><ele>978.0</ele><time>2026-05-02T13:34:01.009Z</time></trkpt><trkpt lat="42.1322836" lon="12.8984384"><ele>978.0</ele><time>2026-05-02T13:34:02.008Z</time></trkpt><trkpt lat="42.1322396" lon="12.8983166"><ele>978.0</ele><time>2026-05-02T13:34:03.012Z</time></trkpt><trkpt lat="42.132198" lon="12.898201"><ele>976.5</ele><time>2026-05-02T13:34:04.009Z</time></trkpt><trkpt lat="42.1321355" lon="12.8980883"><ele>975.0</ele><time>2026-05-02T13:34:05.02Z</time></trkpt><trkpt lat="42.1320383" lon="12.8979763"><ele>973.5</ele><time>2026-05-02T13:34:06.016Z</time></trkpt><trkpt lat="42.131929" lon="12.8978788"><ele>972.0</ele><time>2026-05-02T13:34:07.017Z</time></trkpt><trkpt lat="42.1318064" lon="12.8977732"><ele>972.0</ele><time>2026-05-02T13:34:08.042Z</time></trkpt><trkpt lat="42.1316707" lon="12.8976869"><ele>972.0</ele><time>2026-05-02T13:34:09.012Z</time></trkpt><trkpt lat="42.1315518" lon="12.8976087"><ele>972.0</ele><time>2026-05-02T13:34:10.019Z</time></trkpt><trkpt lat="42.1314388" lon="12.8975231"><ele>972.0</ele><time>2026-05-02T13:34:11.017Z</time></trkpt><trkpt lat="42.1313247" lon="12.8974708"><ele>971.4000000000001</ele><time>2026-05-02T13:34:12.013Z</time></trkpt><trkpt lat="42.1312179" lon="12.8974315"><ele>970.8000000000001</ele><time>2026-05-02T13:34:13.009Z</time></trkpt><trkpt lat="42.131108" lon="12.8974249"><ele>970.2</ele><time>2026-05-02T13:34:14.009Z</time></trkpt><trkpt lat="42.1310307" lon="12.8973454"><ele>969.6</ele><time>2026-05-02T13:34:15.017Z</time></trkpt><trkpt lat="42.1309742" lon="12.8972613"><ele>969.0</ele><time>2026-05-02T13:34:16.009Z</time></trkpt><trkpt lat="42.1309458" lon="12.8971582"><ele>969.0</ele><time>2026-05-02T13:34:17.022Z</time></trkpt><trkpt lat="42.1309514" lon="12.8970373"><ele>969.0</ele><time>2026-05-02T13:34:17.999Z</time></trkpt><trkpt lat="42.1309566" lon="12.8968605"><ele>969.0</ele><time>2026-05-02T13:34:19.004Z</time></trkpt><trkpt lat="42.1309679" lon="12.8966652"><ele>969.0</ele><time>2026-05-02T13:34:19.996Z</time></trkpt><trkpt lat="42.1310127" lon="12.8964038"><ele>967.0</ele><time>2026-05-02T13:34:21.009Z</time></trkpt><trkpt lat="42.1310303" lon="12.8961778"><ele>965.0</ele><time>2026-05-02T13:34:22.011Z</time></trkpt><trkpt lat="42.1310183" lon="12.8959993"><ele>963.0</ele><time>2026-05-02T13:34:23.011Z</time></trkpt><trkpt lat="42.1310006" lon="12.8958252"><ele>961.0</ele><time>2026-05-02T13:34:24.01Z</time></trkpt><trkpt lat="42.1309501" lon="12.8956889"><ele>960.25</ele><time>2026-05-02T13:34:25.012Z</time></trkpt><trkpt lat="42.1308471" lon="12.8955687"><ele>959.5</ele><time>2026-05-02T13:34:26.014Z</time></trkpt><trkpt lat="42.1307167" lon="12.8954835"><ele>958.75</ele><time>2026-05-02T13:34:27.007Z</time></trkpt><trkpt lat="42.1305707" lon="12.8954151"><ele>958.0</ele><time>2026-05-02T13:34:28.021Z</time></trkpt><trkpt lat="42.1304561" lon="12.8953489"><ele>958.75</ele><time>2026-05-02T13:34:29.005Z</time></trkpt><trkpt lat="42.1303552" lon="12.8952873"><ele>959.5</ele><time>2026-05-02T13:34:30.012Z</time></trkpt><trkpt lat="42.1302475" lon="12.8951996"><ele>960.25</ele><time>2026-05-02T13:34:31.006Z</time></trkpt><trkpt lat="42.1301731" lon="12.8951062"><ele>961.0</ele><time>2026-05-02T13:34:32.02Z</time></trkpt><trkpt lat="42.130079" lon="12.8950206"><ele>961.0</ele><time>2026-05-02T13:34:33.008Z</time></trkpt><trkpt lat="42.1300019" lon="12.8949173"><ele>960.9999999999999</ele><time>2026-05-02T13:34:34.021Z</time></trkpt><trkpt lat="42.1299617" lon="12.894787"><ele>960.9999999999999</ele><time>2026-05-02T13:34:35.015Z</time></trkpt><trkpt lat="42.1299338" lon="12.8946449"><ele>961.0</ele><time>2026-05-02T13:34:36.004Z</time></trkpt><trkpt lat="42.1299279" lon="12.8944791"><ele>961.0</ele><time>2026-05-02T13:34:37.015Z</time></trkpt><trkpt lat="42.1299601" lon="12.8942964"><ele>960.75</ele><time>2026-05-02T13:34:38.021Z</time></trkpt><trkpt lat="42.1300083" lon="12.8941173"><ele>960.5</ele><time>2026-05-02T13:34:39.018Z</time></trkpt><trkpt lat="42.1300497" lon="12.8939484"><ele>960.25</ele><time>2026-05-02T13:34:39.999Z</time></trkpt><trkpt lat="42.1300707" lon="12.8937815"><ele>960.0</ele><time>2026-05-02T13:34:41.008Z</time></trkpt><trkpt lat="42.1300537" lon="12.8936274"><ele>960.0</ele><time>2026-05-02T13:34:42.018Z</time></trkpt><trkpt lat="42.1300001" lon="12.8934971"><ele>960.0</ele><time>2026-05-02T13:34:43.012Z</time></trkpt><trkpt lat="42.129913" lon="12.8933984"><ele>960.0</ele><time>2026-05-02T13:34:44.011Z</time></trkpt><trkpt lat="42.1297811" lon="12.8933239"><ele>960.0</ele><time>2026-05-02T13:34:44.998Z</time></trkpt><trkpt lat="42.1296531" lon="12.8932596"><ele>962.4</ele><time>2026-05-02T13:34:46.007Z</time></trkpt><trkpt lat="42.1295385" lon="12.8931948"><ele>964.8</ele><time>2026-05-02T13:34:46.998Z</time></trkpt><trkpt lat="42.1294379" lon="12.8931313"><ele>967.2</ele><time>2026-05-02T13:34:48.007Z</time></trkpt><trkpt lat="42.1293494" lon="12.8930602"><ele>969.6</ele><time>2026-05-02T13:34:49.002Z</time></trkpt><trkpt lat="42.1292695" lon="12.8929725"><ele>972.0</ele><time>2026-05-02T13:34:49.993Z</time></trkpt><trkpt lat="42.1291901" lon="12.8928805"><ele>972.0</ele><time>2026-05-02T13:34:50.997Z</time></trkpt><trkpt lat="42.1291384" lon="12.8927821"><ele>972.0</ele><time>2026-05-02T13:34:52.024Z</time></trkpt><trkpt lat="42.1291405" lon="12.8926669"><ele>972.0</ele><time>2026-05-02T13:34:53.008Z</time></trkpt><trkpt lat="42.1291499" lon="12.8925288"><ele>972.0</ele><time>2026-05-02T13:34:54.004Z</time></trkpt><trkpt lat="42.1291794" lon="12.8923963"><ele>972.0</ele><time>2026-05-02T13:34:55.005Z</time></trkpt><trkpt lat="42.1292187" lon="12.8922802"><ele>971.0</ele><time>2026-05-02T13:34:56.014Z</time></trkpt><trkpt lat="42.1292602" lon="12.8921586"><ele>970.0</ele><time>2026-05-02T13:34:57.009Z</time></trkpt><trkpt lat="42.1293403" lon="12.8920268"><ele>969.0</ele><time>2026-05-02T13:34:58.008Z</time></trkpt><trkpt lat="42.1294213" lon="12.8918993"><ele>968.0</ele><time>2026-05-02T13:34:59.013Z</time></trkpt><trkpt lat="42.1294907" lon="12.8917761"><ele>968.2</ele><time>2026-05-02T13:35:00.016Z</time></trkpt><trkpt lat="42.1295587" lon="12.8916694"><ele>968.4</ele><time>2026-05-02T13:35:01.017Z</time></trkpt><trkpt lat="42.1296152" lon="12.8915796"><ele>968.6000000000001</ele><time>2026-05-02T13:35:02.017Z</time></trkpt><trkpt lat="42.129671" lon="12.8915048"><ele>968.8000000000001</ele><time>2026-05-02T13:35:03.017Z</time></trkpt><trkpt lat="42.1297369" lon="12.8914293"><ele>969.0</ele><time>2026-05-02T13:35:04.021Z</time></trkpt><trkpt lat="42.1298277" lon="12.8913714"><ele>964.25</ele><time>2026-05-02T13:35:05.022Z</time></trkpt><trkpt lat="42.1299251" lon="12.8913323"><ele>959.5</ele><time>2026-05-02T13:35:06.034Z</time></trkpt><trkpt lat="42.1300401" lon="12.8912986"><ele>954.75</ele><time>2026-05-02T13:35:07.016Z</time></trkpt><trkpt lat="42.1301647" lon="12.8912683"><ele>950.0</ele><time>2026-05-02T13:35:08.053Z</time></trkpt><trkpt lat="42.1302898" lon="12.8912404"><ele>950.0</ele><time>2026-05-02T13:35:09.032Z</time></trkpt><trkpt lat="42.1304055" lon="12.8912119"><ele>950.0</ele><time>2026-05-02T13:35:10.014Z</time></trkpt><trkpt lat="42.1305057" lon="12.8911713"><ele>950.0</ele><time>2026-05-02T13:35:11.041Z</time></trkpt><trkpt lat="42.1305818" lon="12.8910726"><ele>950.0</ele><time>2026-05-02T13:35:12.019Z</time></trkpt><trkpt lat="42.1306414" lon="12.8909439"><ele>950.0</ele><time>2026-05-02T13:35:13.015Z</time></trkpt><trkpt lat="42.130672" lon="12.8907913"><ele>952.25</ele><time>2026-05-02T13:35:14.022Z</time></trkpt><trkpt lat="42.1306603" lon="12.8906105"><ele>954.5</ele><time>2026-05-02T13:35:15.008Z</time></trkpt><trkpt lat="42.1306139" lon="12.8904297"><ele>956.75</ele><time>2026-05-02T13:35:16.013Z</time></trkpt><trkpt lat="42.130558" lon="12.890264"><ele>959.0</ele><time>2026-05-02T13:35:17.007Z</time></trkpt><trkpt lat="42.1304921" lon="12.8901139"><ele>958.5</ele><time>2026-05-02T13:35:18.01Z</time></trkpt><trkpt lat="42.1304431" lon="12.8899636"><ele>958.0</ele><time>2026-05-02T13:35:19.023Z</time></trkpt><trkpt lat="42.1304145" lon="12.8898038"><ele>957.5</ele><time>2026-05-02T13:35:20.005Z</time></trkpt><trkpt lat="42.1304152" lon="12.8896341"><ele>957.0</ele><time>2026-05-02T13:35:21.013Z</time></trkpt><trkpt lat="42.1304337" lon="12.8894712"><ele>957.0</ele><time>2026-05-02T13:35:22.005Z</time></trkpt><trkpt lat="42.1304378" lon="12.8893096"><ele>957.0</ele><time>2026-05-02T13:35:23.013Z</time></trkpt><trkpt lat="42.1304376" lon="12.889122"><ele>957.0</ele><time>2026-05-02T13:35:24.013Z</time></trkpt><trkpt lat="42.1304555" lon="12.8889124"><ele>957.0</ele><time>2026-05-02T13:35:25.008Z</time></trkpt><trkpt lat="42.1304813" lon="12.8887592"><ele>955.6</ele><time>2026-05-02T13:35:26.013Z</time></trkpt><trkpt lat="42.1305367" lon="12.8886195"><ele>954.2</ele><time>2026-05-02T13:35:27.002Z</time></trkpt><trkpt lat="42.1306258" lon="12.8885429"><ele>952.8</ele><time>2026-05-02T13:35:28.011Z</time></trkpt><trkpt lat="42.1307108" lon="12.8884764"><ele>951.4</ele><time>2026-05-02T13:35:29.011Z</time></trkpt><trkpt lat="42.1307903" lon="12.8884048"><ele>950.0</ele><time>2026-05-02T13:35:30.003Z</time></trkpt><trkpt lat="42.130871" lon="12.8883382"><ele>946.8</ele><time>2026-05-02T13:35:31.009Z</time></trkpt><trkpt lat="42.1309409" lon="12.8882482"><ele>943.6</ele><time>2026-05-02T13:35:31.999Z</time></trkpt><trkpt lat="42.1309979" lon="12.8881449"><ele>940.4000000000001</ele><time>2026-05-02T13:35:33.005Z</time></trkpt><trkpt lat="42.1310442" lon="12.8880288"><ele>937.2</ele><time>2026-05-02T13:35:34.009Z</time></trkpt><trkpt lat="42.1310784" lon="12.8878974"><ele>934.0</ele><time>2026-05-02T13:35:35.007Z</time></trkpt><trkpt lat="42.1310988" lon="12.8877524"><ele>934.0</ele><time>2026-05-02T13:35:36.01Z</time></trkpt><trkpt lat="42.131113" lon="12.8875969"><ele>934.0000000000001</ele><time>2026-05-02T13:35:37.009Z</time></trkpt><trkpt lat="42.1311213" lon="12.8874495"><ele>934.0000000000001</ele><time>2026-05-02T13:35:38.026Z</time></trkpt><trkpt lat="42.1311121" lon="12.8872987"><ele>934.0</ele><time>2026-05-02T13:35:39Z</time></trkpt><trkpt lat="42.1310959" lon="12.8871621"><ele>934.0</ele><time>2026-05-02T13:35:40Z</time></trkpt><trkpt lat="42.1310735" lon="12.8870494"><ele>933.6666666666666</ele><time>2026-05-02T13:35:41.007Z</time></trkpt><trkpt lat="42.1310522" lon="12.8869443"><ele>933.3333333333333</ele><time>2026-05-02T13:35:41.993Z</time></trkpt><trkpt lat="42.131033" lon="12.8868334"><ele>933.0</ele><time>2026-05-02T13:35:43.004Z</time></trkpt><trkpt lat="42.1310174" lon="12.8867159"><ele>932.6666666666667</ele><time>2026-05-02T13:35:44.007Z</time></trkpt><trkpt lat="42.1310141" lon="12.8865892"><ele>932.3333333333334</ele><time>2026-05-02T13:35:44.997Z</time></trkpt><trkpt lat="42.1309988" lon="12.886457"><ele>932.0</ele><time>2026-05-02T13:35:45.998Z</time></trkpt><trkpt lat="42.1309802" lon="12.8863265"><ele>932.0</ele><time>2026-05-02T13:35:47Z</time></trkpt><trkpt lat="42.1309622" lon="12.8861774"><ele>932.0</ele><time>2026-05-02T13:35:47.991Z</time></trkpt><trkpt lat="42.1309486" lon="12.8860337"><ele>932.0</ele><time>2026-05-02T13:35:49.011Z</time></trkpt><trkpt lat="42.13094" lon="12.8858962"><ele>932.0</ele><time>2026-05-02T13:35:49.998Z</time></trkpt><trkpt lat="42.1309437" lon="12.8857666"><ele>932.0</ele><time>2026-05-02T13:35:50.996Z</time></trkpt><trkpt lat="42.1309511" lon="12.8856405"><ele>932.2</ele><time>2026-05-02T13:35:52.002Z</time></trkpt><trkpt lat="42.1309599" lon="12.8855201"><ele>932.4000000000001</ele><time>2026-05-02T13:35:52.999Z</time></trkpt><trkpt lat="42.1309699" lon="12.8854004"><ele>932.5999999999999</ele><time>2026-05-02T13:35:54.003Z</time></trkpt><trkpt lat="42.1309978" lon="12.8852849"><ele>932.8</ele><time>2026-05-02T13:35:55.006Z</time></trkpt><trkpt lat="42.1310395" lon="12.8851754"><ele>933.0</ele><time>2026-05-02T13:35:56.013Z</time></trkpt><trkpt lat="42.131094" lon="12.8850754"><ele>933.0</ele><time>2026-05-02T13:35:57.002Z</time></trkpt><trkpt lat="42.1311573" lon="12.8849681"><ele>933.0</ele><time>2026-05-02T13:35:58.01Z</time></trkpt><trkpt lat="42.1312121" lon="12.8848512"><ele>933.0</ele><time>2026-05-02T13:35:59.007Z</time></trkpt><trkpt lat="42.1312617" lon="12.8847453"><ele>933.0</ele><time>2026-05-02T13:36:00.001Z</time></trkpt><trkpt lat="42.1313149" lon="12.8846584"><ele>933.0</ele><time>2026-05-02T13:36:01.013Z</time></trkpt><trkpt lat="42.1313711" lon="12.8845828"><ele>933.0</ele><time>2026-05-02T13:36:02.011Z</time></trkpt><trkpt lat="42.1314221" lon="12.8845068"><ele>933.0</ele><time>2026-05-02T13:36:03.002Z</time></trkpt><trkpt lat="42.1314887" lon="12.8844438"><ele>933.0</ele><time>2026-05-02T13:36:04.005Z</time></trkpt><trkpt lat="42.1315777" lon="12.8844072"><ele>933.0</ele><time>2026-05-02T13:36:05.007Z</time></trkpt><trkpt lat="42.1316762" lon="12.8844007"><ele>933.0</ele><time>2026-05-02T13:36:06.007Z</time></trkpt><trkpt lat="42.1317883" lon="12.884397"><ele>930.5999999999999</ele><time>2026-05-02T13:36:07.007Z</time></trkpt><trkpt lat="42.1319039" lon="12.8844042"><ele>928.1999999999999</ele><time>2026-05-02T13:36:08.027Z</time></trkpt><trkpt lat="42.1320072" lon="12.8843983"><ele>925.8</ele><time>2026-05-02T13:36:09.01Z</time></trkpt><trkpt lat="42.1321141" lon="12.8843662"><ele>923.4</ele><time>2026-05-02T13:36:10.013Z</time></trkpt><trkpt lat="42.1322169" lon="12.8843097"><ele>921.0</ele><time>2026-05-02T13:36:11.007Z</time></trkpt><trkpt lat="42.132325" lon="12.8842327"><ele>915.0</ele><time>2026-05-02T13:36:12.013Z</time></trkpt><trkpt lat="42.1324259" lon="12.8841418"><ele>909.0</ele><time>2026-05-02T13:36:13.011Z</time></trkpt><trkpt lat="42.1325147" lon="12.8840397"><ele>903.0</ele><time>2026-05-02T13:36:14Z</time></trkpt><trkpt lat="42.132597" lon="12.8839315"><ele>897.0</ele><time>2026-05-02T13:36:15.014Z</time></trkpt><trkpt lat="42.132673" lon="12.8838215"><ele>897.0</ele><time>2026-05-02T13:36:16.014Z</time></trkpt><trkpt lat="42.1327457" lon="12.8836928"><ele>897.0</ele><time>2026-05-02T13:36:17.008Z</time></trkpt><trkpt lat="42.1328101" lon="12.8835643"><ele>897.0</ele><time>2026-05-02T13:36:18.019Z</time></trkpt><trkpt lat="42.1328583" lon="12.8834438"><ele>897.0</ele><time>2026-05-02T13:36:19.013Z</time></trkpt><trkpt lat="42.1329004" lon="12.8833323"><ele>897.0</ele><time>2026-05-02T13:36:20.023Z</time></trkpt><trkpt lat="42.1329375" lon="12.8832332"><ele>899.6666666666666</ele><time>2026-05-02T13:36:21.005Z</time></trkpt><trkpt lat="42.1329695" lon="12.8831403"><ele>902.3333333333333</ele><time>2026-05-02T13:36:22.008Z</time></trkpt><trkpt lat="42.133006" lon="12.8830396"><ele>905.0</ele><time>2026-05-02T13:36:23.017Z</time></trkpt><trkpt lat="42.1330428" lon="12.8829427"><ele>907.6666666666666</ele><time>2026-05-02T13:36:24.012Z</time></trkpt><trkpt lat="42.1330544" lon="12.882848"><ele>910.3333333333333</ele><time>2026-05-02T13:36:25.019Z</time></trkpt><trkpt lat="42.133057" lon="12.8827516"><ele>913.0</ele><time>2026-05-02T13:36:26.01Z</time></trkpt><trkpt lat="42.1330373" lon="12.8826484"><ele>910.2</ele><time>2026-05-02T13:36:27.013Z</time></trkpt><trkpt lat="42.1329983" lon="12.8825491"><ele>907.4</ele><time>2026-05-02T13:36:28.02Z</time></trkpt><trkpt lat="42.1329278" lon="12.8824658"><ele>904.6000000000001</ele><time>2026-05-02T13:36:29.023Z</time></trkpt><trkpt lat="42.1328354" lon="12.8823982"><ele>901.8000000000001</ele><time>2026-05-02T13:36:30.013Z</time></trkpt><trkpt lat="42.1327263" lon="12.8823557"><ele>899.0</ele><time>2026-05-02T13:36:31.009Z</time></trkpt><trkpt lat="42.1326064" lon="12.8823439"><ele>899.0</ele><time>2026-05-02T13:36:32.011Z</time></trkpt><trkpt lat="42.1324687" lon="12.882371"><ele>899.0</ele><time>2026-05-02T13:36:33.01Z</time></trkpt><trkpt lat="42.1323331" lon="12.8824003"><ele>899.0</ele><time>2026-05-02T13:36:34.002Z</time></trkpt><trkpt lat="42.1322073" lon="12.8824427"><ele>899.0</ele><time>2026-05-02T13:36:34.998Z</time></trkpt><trkpt lat="42.1320886" lon="12.8824968"><ele>897.5</ele><time>2026-05-02T13:36:35.99Z</time></trkpt><trkpt lat="42.131981" lon="12.8825501"><ele>896.0</ele><time>2026-05-02T13:36:37Z</time></trkpt><trkpt lat="42.1318687" lon="12.8826047"><ele>894.5</ele><time>2026-05-02T13:36:38.014Z</time></trkpt><trkpt lat="42.1317624" lon="12.8826587"><ele>893.0</ele><time>2026-05-02T13:36:38.994Z</time></trkpt><trkpt lat="42.1316575" lon="12.8827138"><ele>898.75</ele><time>2026-05-02T13:36:40.001Z</time></trkpt><trkpt lat="42.1315562" lon="12.8827784"><ele>904.5</ele><time>2026-05-02T13:36:41.015Z</time></trkpt><trkpt lat="42.1314513" lon="12.8828332"><ele>910.25</ele><time>2026-05-02T13:36:42.002Z</time></trkpt><trkpt lat="42.131337" lon="12.8828662"><ele>916.0</ele><time>2026-05-02T13:36:43.007Z</time></trkpt><trkpt lat="42.1312089" lon="12.8828792"><ele>916.0</ele><time>2026-05-02T13:36:44Z</time></trkpt><trkpt lat="42.1310833" lon="12.8828682"><ele>916.0</ele><time>2026-05-02T13:36:45.004Z</time></trkpt><trkpt lat="42.1309643" lon="12.8828442"><ele>916.0</ele><time>2026-05-02T13:36:46.022Z</time></trkpt><trkpt lat="42.1308445" lon="12.8827905"><ele>916.0</ele><time>2026-05-02T13:36:47.011Z</time></trkpt><trkpt lat="42.1307263" lon="12.8827161"><ele>916.75</ele><time>2026-05-02T13:36:48.007Z</time></trkpt><trkpt lat="42.1306124" lon="12.8826346"><ele>917.5</ele><time>2026-05-02T13:36:49.003Z</time></trkpt><trkpt lat="42.1305049" lon="12.8825624"><ele>918.25</ele><time>2026-05-02T13:36:50.006Z</time></trkpt><trkpt lat="42.1304098" lon="12.8824961"><ele>919.0</ele><time>2026-05-02T13:36:51.017Z</time></trkpt><trkpt lat="42.1303243" lon="12.882431"><ele>915.2</ele><time>2026-05-02T13:36:52.01Z</time></trkpt><trkpt lat="42.1302573" lon="12.8823666"><ele>911.4000000000001</ele><time>2026-05-02T13:36:53.016Z</time></trkpt><trkpt lat="42.1301778" lon="12.882253"><ele>907.6</ele><time>2026-05-02T13:36:55.015Z</time></trkpt><trkpt lat="42.1301419" lon="12.8821774"><ele>903.8</ele><time>2026-05-02T13:36:56.017Z</time></trkpt><trkpt lat="42.1300979" lon="12.8819932"><ele>900.0</ele><time>2026-05-02T13:36:58.014Z</time></trkpt><trkpt lat="42.1300677" lon="12.8818784"><ele>901.0</ele><time>2026-05-02T13:36:59.016Z</time></trkpt><trkpt lat="42.1300273" lon="12.8817644"><ele>902.0</ele><time>2026-05-02T13:37:00.008Z</time></trkpt><trkpt lat="42.1299814" lon="12.8816634"><ele>903.0</ele><time>2026-05-02T13:37:01.02Z</time></trkpt><trkpt lat="42.1299353" lon="12.8815592"><ele>904.0</ele><time>2026-05-02T13:37:02.022Z</time></trkpt><trkpt lat="42.129898" lon="12.8814765"><ele>905.0</ele><time>2026-05-02T13:37:03.015Z</time></trkpt><trkpt lat="42.1298599" lon="12.8813908"><ele>906.0</ele><time>2026-05-02T13:37:04.014Z</time></trkpt><trkpt lat="42.1298183" lon="12.8813093"><ele>906.0</ele><time>2026-05-02T13:37:05.01Z</time></trkpt><trkpt lat="42.1297649" lon="12.8812324"><ele>906.0</ele><time>2026-05-02T13:37:06.008Z</time></trkpt><trkpt lat="42.1297147" lon="12.8811567"><ele>906.0</ele><time>2026-05-02T13:37:07.011Z</time></trkpt><trkpt lat="42.1296586" lon="12.8810807"><ele>906.0</ele><time>2026-05-02T13:37:08.027Z</time></trkpt><trkpt lat="42.1295959" lon="12.8810107"><ele>906.0</ele><time>2026-05-02T13:37:09.012Z</time></trkpt><trkpt lat="42.1295406" lon="12.8809417"><ele>906.0</ele><time>2026-05-02T13:37:10.014Z</time></trkpt><trkpt lat="42.1294894" lon="12.880873"><ele>903.8333333333334</ele><time>2026-05-02T13:37:11.017Z</time></trkpt><trkpt lat="42.1294477" lon="12.8807882"><ele>901.6666666666667</ele><time>2026-05-02T13:37:12.006Z</time></trkpt><trkpt lat="42.1294074" lon="12.8807101"><ele>899.5</ele><time>2026-05-02T13:37:13.007Z</time></trkpt><trkpt lat="42.1293519" lon="12.880612"><ele>897.3333333333334</ele><time>2026-05-02T13:37:14.001Z</time></trkpt><trkpt lat="42.1292974" lon="12.8805026"><ele>895.1666666666667</ele><time>2026-05-02T13:37:15.001Z</time></trkpt><trkpt lat="42.1292397" lon="12.880378"><ele>893.0</ele><time>2026-05-02T13:37:16.007Z</time></trkpt><trkpt lat="42.1291812" lon="12.8802485"><ele>893.0</ele><time>2026-05-02T13:37:17.004Z</time></trkpt><trkpt lat="42.129114" lon="12.8801035"><ele>893.0</ele><time>2026-05-02T13:37:18.01Z</time></trkpt><trkpt lat="42.1290607" lon="12.8799562"><ele>893.0</ele><time>2026-05-02T13:37:19.012Z</time></trkpt><trkpt lat="42.1290028" lon="12.8798223"><ele>893.0</ele><time>2026-05-02T13:37:20.002Z</time></trkpt><trkpt lat="42.128946" lon="12.8796831"><ele>893.8</ele><time>2026-05-02T13:37:21.008Z</time></trkpt><trkpt lat="42.1289031" lon="12.8795347"><ele>894.5999999999999</ele><time>2026-05-02T13:37:22.017Z</time></trkpt><trkpt lat="42.1288711" lon="12.8793873"><ele>895.4000000000001</ele><time>2026-05-02T13:37:23.002Z</time></trkpt><trkpt lat="42.1288488" lon="12.8792666"><ele>896.2</ele><time>2026-05-02T13:37:24.016Z</time></trkpt><trkpt lat="42.1288329" lon="12.8791608"><ele>897.0</ele><time>2026-05-02T13:37:25.001Z</time></trkpt><trkpt lat="42.1288254" lon="12.8790492"><ele>897.0</ele><time>2026-05-02T13:37:26.011Z</time></trkpt><trkpt lat="42.1288207" lon="12.8789585"><ele>897.0</ele><time>2026-05-02T13:37:27.007Z</time></trkpt><trkpt lat="42.1288014" lon="12.8788666"><ele>897.0</ele><time>2026-05-02T13:37:28.002Z</time></trkpt><trkpt lat="42.1287677" lon="12.8787761"><ele>897.0</ele><time>2026-05-02T13:37:29.001Z</time></trkpt><trkpt lat="42.1287371" lon="12.8786643"><ele>897.0</ele><time>2026-05-02T13:37:30Z</time></trkpt><trkpt lat="42.1287105" lon="12.8785537"><ele>897.0</ele><time>2026-05-02T13:37:30.997Z</time></trkpt><trkpt lat="42.1286943" lon="12.8784363"><ele>895.6</ele><time>2026-05-02T13:37:31.997Z</time></trkpt><trkpt lat="42.1286856" lon="12.8783246"><ele>894.2</ele><time>2026-05-02T13:37:32.996Z</time></trkpt><trkpt lat="42.1286825" lon="12.8782046"><ele>892.8</ele><time>2026-05-02T13:37:33.998Z</time></trkpt><trkpt lat="42.1286951" lon="12.8780829"><ele>891.4</ele><time>2026-05-02T13:37:34.99Z</time></trkpt><trkpt lat="42.1287131" lon="12.8779545"><ele>890.0</ele><time>2026-05-02T13:37:35.995Z</time></trkpt><trkpt lat="42.1287453" lon="12.8778304"><ele>890.0</ele><time>2026-05-02T13:37:36.995Z</time></trkpt><trkpt lat="42.1287767" lon="12.8777158"><ele>890.0</ele><time>2026-05-02T13:37:38.009Z</time></trkpt><trkpt lat="42.1288161" lon="12.8776023"><ele>890.0</ele><time>2026-05-02T13:37:38.995Z</time></trkpt><trkpt lat="42.1288492" lon="12.8774883"><ele>890.0</ele><time>2026-05-02T13:37:39.994Z</time></trkpt><trkpt lat="42.1288924" lon="12.8773772"><ele>890.0</ele><time>2026-05-02T13:37:41Z</time></trkpt><trkpt lat="42.1289495" lon="12.8772778"><ele>890.6</ele><time>2026-05-02T13:37:42.002Z</time></trkpt><trkpt lat="42.129012" lon="12.8771909"><ele>891.2</ele><time>2026-05-02T13:37:42.991Z</time></trkpt><trkpt lat="42.1290797" lon="12.8771064"><ele>891.8</ele><time>2026-05-02T13:37:44.013Z</time></trkpt><trkpt lat="42.129158" lon="12.8770157"><ele>892.4</ele><time>2026-05-02T13:37:44.99Z</time></trkpt><trkpt lat="42.1292269" lon="12.8769209"><ele>893.0</ele><time>2026-05-02T13:37:45.998Z</time></trkpt><trkpt lat="42.1293065" lon="12.8768225"><ele>888.0</ele><time>2026-05-02T13:37:47.005Z</time></trkpt><trkpt lat="42.1293822" lon="12.876722"><ele>883.0</ele><time>2026-05-02T13:37:47.996Z</time></trkpt><trkpt lat="42.1294584" lon="12.8766369"><ele>878.0</ele><time>2026-05-02T13:37:49.003Z</time></trkpt><trkpt lat="42.1295363" lon="12.8765471"><ele>873.0</ele><time>2026-05-02T13:37:49.996Z</time></trkpt><trkpt lat="42.129615" lon="12.8764642"><ele>868.0</ele><time>2026-05-02T13:37:50.997Z</time></trkpt><trkpt lat="42.1296862" lon="12.8763869"><ele>867.9999999999999</ele><time>2026-05-02T13:37:51.995Z</time></trkpt><trkpt lat="42.1297435" lon="12.8763126"><ele>868.0</ele><time>2026-05-02T13:37:53Z</time></trkpt><trkpt lat="42.1298063" lon="12.876246"><ele>868.0</ele><time>2026-05-02T13:37:53.994Z</time></trkpt><trkpt lat="42.129857" lon="12.8761907"><ele>868.0</ele><time>2026-05-02T13:37:54.995Z</time></trkpt><trkpt lat="42.1299393" lon="12.8761468"><ele>867.9999999999999</ele><time>2026-05-02T13:37:55.992Z</time></trkpt><trkpt lat="42.1300234" lon="12.8761168"><ele>868.0</ele><time>2026-05-02T13:37:56.998Z</time></trkpt><trkpt lat="42.1301327" lon="12.8761077"><ele>862.3333333333333</ele><time>2026-05-02T13:37:57.988Z</time></trkpt><trkpt lat="42.1302153" lon="12.8761178"><ele>856.6666666666666</ele><time>2026-05-02T13:37:58.996Z</time></trkpt><trkpt lat="42.1302953" lon="12.8761295"><ele>851.0</ele><time>2026-05-02T13:37:59.993Z</time></trkpt><trkpt lat="42.1303786" lon="12.8761204"><ele>845.3333333333333</ele><time>2026-05-02T13:38:00.995Z</time></trkpt><trkpt lat="42.1304678" lon="12.8760908"><ele>839.6666666666666</ele><time>2026-05-02T13:38:02.003Z</time></trkpt><trkpt lat="42.1305572" lon="12.8760579"><ele>834.0</ele><time>2026-05-02T13:38:02.994Z</time></trkpt><trkpt lat="42.1306482" lon="12.8759896"><ele>833.0</ele><time>2026-05-02T13:38:04.08Z</time></trkpt><trkpt lat="42.1307321" lon="12.8759083"><ele>832.0</ele><time>2026-05-02T13:38:05.005Z</time></trkpt><trkpt lat="42.1308076" lon="12.875809"><ele>831.0</ele><time>2026-05-02T13:38:05.988Z</time></trkpt><trkpt lat="42.1308767" lon="12.8757131"><ele>830.0</ele><time>2026-05-02T13:38:07.165Z</time></trkpt><trkpt lat="42.1310323" lon="12.8755191"><ele>830.0</ele><time>2026-05-02T13:38:08.995Z</time></trkpt><trkpt lat="42.1310936" lon="12.8754322"><ele>830.0</ele><time>2026-05-02T13:38:10Z</time></trkpt><trkpt lat="42.1311629" lon="12.875339"><ele>830.0</ele><time>2026-05-02T13:38:11Z</time></trkpt><trkpt lat="42.1312415" lon="12.8752535"><ele>830.0</ele><time>2026-05-02T13:38:11.989Z</time></trkpt><trkpt lat="42.1313322" lon="12.8751844"><ele>830.0</ele><time>2026-05-02T13:38:13.005Z</time></trkpt><trkpt lat="42.1314359" lon="12.8751142"><ele>830.75</ele><time>2026-05-02T13:38:14.001Z</time></trkpt><trkpt lat="42.1315406" lon="12.8750484"><ele>831.5</ele><time>2026-05-02T13:38:14.994Z</time></trkpt><trkpt lat="42.1316596" lon="12.8749845"><ele>832.25</ele><time>2026-05-02T13:38:16Z</time></trkpt><trkpt lat="42.1317774" lon="12.8749334"><ele>833.0</ele><time>2026-05-02T13:38:16.999Z</time></trkpt><trkpt lat="42.131891" lon="12.8749067"><ele>833.0</ele><time>2026-05-02T13:38:18.003Z</time></trkpt><trkpt lat="42.1319997" lon="12.8748656"><ele>833.0</ele><time>2026-05-02T13:38:18.997Z</time></trkpt><trkpt lat="42.1321184" lon="12.874786"><ele>833.0</ele><time>2026-05-02T13:38:19.995Z</time></trkpt><trkpt lat="42.1322316" lon="12.874684"><ele>833.0</ele><time>2026-05-02T13:38:21.001Z</time></trkpt><trkpt lat="42.1323387" lon="12.8745876"><ele>826.5</ele><time>2026-05-02T13:38:22Z</time></trkpt><trkpt lat="42.1324503" lon="12.8745043"><ele>820.0</ele><time>2026-05-02T13:38:22.994Z</time></trkpt><trkpt lat="42.1325615" lon="12.8744495"><ele>813.5</ele><time>2026-05-02T13:38:24.008Z</time></trkpt><trkpt lat="42.1326831" lon="12.8744124"><ele>807.0</ele><time>2026-05-02T13:38:25.003Z</time></trkpt><trkpt lat="42.1327894" lon="12.8743558"><ele>807.0</ele><time>2026-05-02T13:38:25.995Z</time></trkpt><trkpt lat="42.1328866" lon="12.8742939"><ele>807.0</ele><time>2026-05-02T13:38:27.004Z</time></trkpt><trkpt lat="42.1329752" lon="12.8742055"><ele>807.0</ele><time>2026-05-02T13:38:28.002Z</time></trkpt><trkpt lat="42.1330548" lon="12.8741077"><ele>807.0</ele><time>2026-05-02T13:38:29.021Z</time></trkpt><trkpt lat="42.1331368" lon="12.8739932"><ele>807.0</ele><time>2026-05-02T13:38:30Z</time></trkpt><trkpt lat="42.1332185" lon="12.8738858"><ele>806.2</ele><time>2026-05-02T13:38:31.002Z</time></trkpt><trkpt lat="42.1333013" lon="12.8737839"><ele>805.4000000000001</ele><time>2026-05-02T13:38:31.988Z</time></trkpt><trkpt lat="42.1333673" lon="12.8736904"><ele>804.5999999999999</ele><time>2026-05-02T13:38:32.994Z</time></trkpt><trkpt lat="42.133445" lon="12.87359"><ele>803.8</ele><time>2026-05-02T13:38:33.991Z</time></trkpt><trkpt lat="42.1335354" lon="12.8734821"><ele>803.0</ele><time>2026-05-02T13:38:34.987Z</time></trkpt><trkpt lat="42.1336639" lon="12.8733898"><ele>803.6666666666667</ele><time>2026-05-02T13:38:35.983Z</time></trkpt><trkpt lat="42.1338046" lon="12.873287"><ele>804.3333333333333</ele><time>2026-05-02T13:38:36.992Z</time></trkpt><trkpt lat="42.1339816" lon="12.8732054"><ele>805.0</ele><time>2026-05-02T13:38:38.012Z</time></trkpt><trkpt lat="42.1341612" lon="12.8731644"><ele>805.0</ele><time>2026-05-02T13:38:38.99Z</time></trkpt><trkpt lat="42.1342934" lon="12.8730703"><ele>805.0</ele><time>2026-05-02T13:38:40.003Z</time></trkpt><trkpt lat="42.1343942" lon="12.8729829"><ele>805.0</ele><time>2026-05-02T13:38:40.986Z</time></trkpt><trkpt lat="42.1345035" lon="12.8729046"><ele>805.0</ele><time>2026-05-02T13:38:41.992Z</time></trkpt><trkpt lat="42.1346213" lon="12.8728819"><ele>805.0</ele><time>2026-05-02T13:38:42.988Z</time></trkpt><trkpt lat="42.1347686" lon="12.8728301"><ele>805.0</ele><time>2026-05-02T13:38:43.991Z</time></trkpt><trkpt lat="42.1348978" lon="12.8727667"><ele>805.0</ele><time>2026-05-02T13:38:44.99Z</time></trkpt><trkpt lat="42.1350396" lon="12.8727658"><ele>805.0</ele><time>2026-05-02T13:38:45.985Z</time></trkpt><trkpt lat="42.1351557" lon="12.8727465"><ele>802.75</ele><time>2026-05-02T13:38:46.994Z</time></trkpt><trkpt lat="42.1353043" lon="12.8727617"><ele>800.5</ele><time>2026-05-02T13:38:47.988Z</time></trkpt><trkpt lat="42.135441" lon="12.8727301"><ele>798.25</ele><time>2026-05-02T13:38:48.985Z</time></trkpt><trkpt lat="42.1355898" lon="12.8727154"><ele>796.0</ele><time>2026-05-02T13:38:49.995Z</time></trkpt><trkpt lat="42.1357373" lon="12.8726899"><ele>794.3333333333333</ele><time>2026-05-02T13:38:50.988Z</time></trkpt><trkpt lat="42.135911" lon="12.8726953"><ele>792.6666666666667</ele><time>2026-05-02T13:38:51.996Z</time></trkpt><trkpt lat="42.1360818" lon="12.8727009"><ele>791.0</ele><time>2026-05-02T13:38:52.994Z</time></trkpt><trkpt lat="42.1362467" lon="12.8726876"><ele>791.0</ele><time>2026-05-02T13:38:53.994Z</time></trkpt><trkpt lat="42.1364199" lon="12.8726737"><ele>791.0</ele><time>2026-05-02T13:38:54.994Z</time></trkpt><trkpt lat="42.1365697" lon="12.8726738"><ele>791.0</ele><time>2026-05-02T13:38:55.99Z</time></trkpt><trkpt lat="42.1366825" lon="12.8726949"><ele>791.0</ele><time>2026-05-02T13:38:56.983Z</time></trkpt><trkpt lat="42.1368106" lon="12.8726921"><ele>789.3333333333334</ele><time>2026-05-02T13:38:58.165Z</time></trkpt><trkpt lat="42.1370483" lon="12.8726753"><ele>787.6666666666667</ele><time>2026-05-02T13:38:59.993Z</time></trkpt><trkpt lat="42.1371868" lon="12.8726594"><ele>786.0</ele><time>2026-05-02T13:39:00.995Z</time></trkpt><trkpt lat="42.1372951" lon="12.8726303"><ele>787.4</ele><time>2026-05-02T13:39:01.999Z</time></trkpt><trkpt lat="42.1373932" lon="12.8725981"><ele>788.8</ele><time>2026-05-02T13:39:03.014Z</time></trkpt><trkpt lat="42.1374953" lon="12.8725654"><ele>790.1999999999999</ele><time>2026-05-02T13:39:04.023Z</time></trkpt><trkpt lat="42.1375965" lon="12.8725502"><ele>791.5999999999999</ele><time>2026-05-02T13:39:05.002Z</time></trkpt><trkpt lat="42.1376879" lon="12.8725264"><ele>793.0</ele><time>2026-05-02T13:39:05.997Z</time></trkpt><trkpt lat="42.1378142" lon="12.8724286"><ele>793.0</ele><time>2026-05-02T13:39:07.001Z</time></trkpt><trkpt lat="42.1379062" lon="12.8723175"><ele>793.0</ele><time>2026-05-02T13:39:08.026Z</time></trkpt><trkpt lat="42.1380073" lon="12.8722018"><ele>793.0</ele><time>2026-05-02T13:39:09Z</time></trkpt><trkpt lat="42.1381114" lon="12.8721034"><ele>793.0</ele><time>2026-05-02T13:39:10.012Z</time></trkpt><trkpt lat="42.1382013" lon="12.8719962"><ele>791.5999999999999</ele><time>2026-05-02T13:39:11.006Z</time></trkpt><trkpt lat="42.1382823" lon="12.8718851"><ele>790.1999999999999</ele><time>2026-05-02T13:39:12.002Z</time></trkpt><trkpt lat="42.138358" lon="12.8717858"><ele>788.8</ele><time>2026-05-02T13:39:13.009Z</time></trkpt><trkpt lat="42.138435" lon="12.8716791"><ele>787.4</ele><time>2026-05-02T13:39:14.012Z</time></trkpt><trkpt lat="42.1385198" lon="12.8715823"><ele>786.0</ele><time>2026-05-02T13:39:15.003Z</time></trkpt><trkpt lat="42.1385963" lon="12.8714977"><ele>786.0</ele><time>2026-05-02T13:39:16.01Z</time></trkpt><trkpt lat="42.138674" lon="12.8714089"><ele>786.0</ele><time>2026-05-02T13:39:17.006Z</time></trkpt><trkpt lat="42.1387441" lon="12.871299"><ele>786.0</ele><time>2026-05-02T13:39:18.014Z</time></trkpt><trkpt lat="42.1388138" lon="12.8711796"><ele>786.0</ele><time>2026-05-02T13:39:19.008Z</time></trkpt><trkpt lat="42.1388848" lon="12.8710663"><ele>786.0</ele><time>2026-05-02T13:39:20.007Z</time></trkpt><trkpt lat="42.138964" lon="12.8709633"><ele>784.1999999999999</ele><time>2026-05-02T13:39:21.013Z</time></trkpt><trkpt lat="42.1390504" lon="12.8708724"><ele>782.4</ele><time>2026-05-02T13:39:22.009Z</time></trkpt><trkpt lat="42.1391392" lon="12.8707902"><ele>780.6</ele><time>2026-05-02T13:39:23.017Z</time></trkpt><trkpt lat="42.1392189" lon="12.8707079"><ele>778.8</ele><time>2026-05-02T13:39:24.001Z</time></trkpt><trkpt lat="42.1392976" lon="12.870632"><ele>777.0</ele><time>2026-05-02T13:39:25.013Z</time></trkpt><trkpt lat="42.1393752" lon="12.8705394"><ele>777.0</ele><time>2026-05-02T13:39:26.012Z</time></trkpt><trkpt lat="42.139434" lon="12.870464"><ele>777.0</ele><time>2026-05-02T13:39:26.998Z</time></trkpt><trkpt lat="42.1394879" lon="12.8703886"><ele>777.0</ele><time>2026-05-02T13:39:28.002Z</time></trkpt><trkpt lat="42.1395885" lon="12.8702882"><ele>777.0</ele><time>2026-05-02T13:39:30.004Z</time></trkpt><trkpt lat="42.1397113" lon="12.8702195"><ele>777.0</ele><time>2026-05-02T13:39:31.997Z</time></trkpt><trkpt lat="42.1397874" lon="12.8702098"><ele>777.0</ele><time>2026-05-02T13:39:32.994Z</time></trkpt><trkpt lat="42.139882" lon="12.8702139"><ele>777.0</ele><time>2026-05-02T13:39:34.004Z</time></trkpt><trkpt lat="42.1399865" lon="12.8701994"><ele>777.0</ele><time>2026-05-02T13:39:34.988Z</time></trkpt><trkpt lat="42.1400845" lon="12.8701921"><ele>777.0</ele><time>2026-05-02T13:39:35.999Z</time></trkpt><trkpt lat="42.1401851" lon="12.8701953"><ele>777.0</ele><time>2026-05-02T13:39:37.001Z</time></trkpt><trkpt lat="42.1402931" lon="12.8702135"><ele>773.0</ele><time>2026-05-02T13:39:38.013Z</time></trkpt><trkpt lat="42.1404035" lon="12.8702353"><ele>769.0</ele><time>2026-05-02T13:39:38.994Z</time></trkpt><trkpt lat="42.1405219" lon="12.8702489"><ele>765.0</ele><time>2026-05-02T13:39:40.002Z</time></trkpt><trkpt lat="42.1406312" lon="12.8702714"><ele>761.0</ele><time>2026-05-02T13:39:41.002Z</time></trkpt><trkpt lat="42.1407275" lon="12.8702887"><ele>757.0</ele><time>2026-05-02T13:39:42.031Z</time></trkpt><trkpt lat="42.1408156" lon="12.870311"><ele>755.8333333333334</ele><time>2026-05-02T13:39:43.011Z</time></trkpt><trkpt lat="42.1408865" lon="12.8703253"><ele>754.6666666666667</ele><time>2026-05-02T13:39:44.006Z</time></trkpt><trkpt lat="42.1409521" lon="12.8703339"><ele>753.5</ele><time>2026-05-02T13:39:45.003Z</time></trkpt><trkpt lat="42.1410791" lon="12.8702949"><ele>752.3333333333334</ele><time>2026-05-02T13:39:47.009Z</time></trkpt><trkpt lat="42.1411562" lon="12.8702788"><ele>751.1666666666666</ele><time>2026-05-02T13:39:48.009Z</time></trkpt><trkpt lat="42.1412262" lon="12.870253"><ele>750.0</ele><time>2026-05-02T13:39:49.008Z</time></trkpt><trkpt lat="42.1412853" lon="12.8702028"><ele>750.0</ele><time>2026-05-02T13:39:50.01Z</time></trkpt><trkpt lat="42.141344" lon="12.8701338"><ele>750.0</ele><time>2026-05-02T13:39:50.999Z</time></trkpt><trkpt lat="42.1413991" lon="12.8700751"><ele>750.0</ele><time>2026-05-02T13:39:52.085Z</time></trkpt><trkpt lat="42.1414589" lon="12.870008"><ele>750.0</ele><time>2026-05-02T13:39:53.006Z</time></trkpt><trkpt lat="42.1415307" lon="12.8699109"><ele>750.0</ele><time>2026-05-02T13:39:54Z</time></trkpt><trkpt lat="42.1415914" lon="12.869805"><ele>750.0</ele><time>2026-05-02T13:39:55.031Z</time></trkpt><trkpt lat="42.1416463" lon="12.8696803"><ele>749.5</ele><time>2026-05-02T13:39:56.011Z</time></trkpt><trkpt lat="42.1417041" lon="12.8695463"><ele>749.0</ele><time>2026-05-02T13:39:57.008Z</time></trkpt><trkpt lat="42.1417599" lon="12.8694072"><ele>748.5</ele><time>2026-05-02T13:39:58.002Z</time></trkpt><trkpt lat="42.1418036" lon="12.8692375"><ele>748.0</ele><time>2026-05-02T13:39:58.994Z</time></trkpt><trkpt lat="42.1418469" lon="12.8690717"><ele>748.0</ele><time>2026-05-02T13:40:00.004Z</time></trkpt><trkpt lat="42.1418862" lon="12.8689027"><ele>748.0</ele><time>2026-05-02T13:40:00.999Z</time></trkpt><trkpt lat="42.1419223" lon="12.8687271"><ele>748.0</ele><time>2026-05-02T13:40:02.009Z</time></trkpt><trkpt lat="42.1419594" lon="12.8685516"><ele>748.0</ele><time>2026-05-02T13:40:03.007Z</time></trkpt><trkpt lat="42.1419912" lon="12.8683756"><ele>749.5</ele><time>2026-05-02T13:40:04.001Z</time></trkpt><trkpt lat="42.142029" lon="12.8682089"><ele>751.0</ele><time>2026-05-02T13:40:05.01Z</time></trkpt><trkpt lat="42.1420596" lon="12.8680521"><ele>752.5</ele><time>2026-05-02T13:40:06.012Z</time></trkpt><trkpt lat="42.1421011" lon="12.867893"><ele>754.0</ele><time>2026-05-02T13:40:06.998Z</time></trkpt><trkpt lat="42.1421463" lon="12.8677181"><ele>758.0</ele><time>2026-05-02T13:40:08.018Z</time></trkpt><trkpt lat="42.1421991" lon="12.8675393"><ele>762.0</ele><time>2026-05-02T13:40:08.994Z</time></trkpt><trkpt lat="42.142258" lon="12.8673683"><ele>766.0</ele><time>2026-05-02T13:40:10.007Z</time></trkpt><trkpt lat="42.1423263" lon="12.8672187"><ele>770.0</ele><time>2026-05-02T13:40:10.995Z</time></trkpt><trkpt lat="42.1424131" lon="12.8670647"><ele>761.3333333333334</ele><time>2026-05-02T13:40:12Z</time></trkpt><trkpt lat="42.1425332" lon="12.8668971"><ele>752.6666666666667</ele><time>2026-05-02T13:40:12.994Z</time></trkpt><trkpt lat="42.1426583" lon="12.866741"><ele>744.0</ele><time>2026-05-02T13:40:14.006Z</time></trkpt><trkpt lat="42.1427565" lon="12.8665769"><ele>744.0</ele><time>2026-05-02T13:40:14.988Z</time></trkpt><trkpt lat="42.1429104" lon="12.8664394"><ele>744.0</ele><time>2026-05-02T13:40:16.008Z</time></trkpt><trkpt lat="42.1430054" lon="12.8662828"><ele>744.0</ele><time>2026-05-02T13:40:16.993Z</time></trkpt><trkpt lat="42.1431173" lon="12.8661485"><ele>742.5</ele><time>2026-05-02T13:40:17.992Z</time></trkpt><trkpt lat="42.1432282" lon="12.8660671"><ele>741.0</ele><time>2026-05-02T13:40:19.002Z</time></trkpt><trkpt lat="42.1433535" lon="12.865975"><ele>739.5</ele><time>2026-05-02T13:40:20.002Z</time></trkpt><trkpt lat="42.1434529" lon="12.8658644"><ele>738.0</ele><time>2026-05-02T13:40:21.001Z</time></trkpt><trkpt lat="42.1435759" lon="12.8657528"><ele>738.0</ele><time>2026-05-02T13:40:22.005Z</time></trkpt><trkpt lat="42.1437091" lon="12.8656664"><ele>738.0</ele><time>2026-05-02T13:40:23.009Z</time></trkpt><trkpt lat="42.1438402" lon="12.8655544"><ele>738.0</ele><time>2026-05-02T13:40:23.999Z</time></trkpt><trkpt lat="42.1439568" lon="12.8654441"><ele>738.0</ele><time>2026-05-02T13:40:24.999Z</time></trkpt><trkpt lat="42.1440539" lon="12.8652944"><ele>736.5</ele><time>2026-05-02T13:40:26.003Z</time></trkpt><trkpt lat="42.1441828" lon="12.8652031"><ele>735.0</ele><time>2026-05-02T13:40:27.004Z</time></trkpt><trkpt lat="42.1443241" lon="12.865138"><ele>733.5</ele><time>2026-05-02T13:40:28.002Z</time></trkpt><trkpt lat="42.1444518" lon="12.8650326"><ele>732.0</ele><time>2026-05-02T13:40:29.001Z</time></trkpt><trkpt lat="42.1445637" lon="12.8649496"><ele>732.0</ele><time>2026-05-02T13:40:30.001Z</time></trkpt><trkpt lat="42.1446892" lon="12.8648473"><ele>732.0</ele><time>2026-05-02T13:40:31.009Z</time></trkpt><trkpt lat="42.1448127" lon="12.8647325"><ele>732.0</ele><time>2026-05-02T13:40:32.014Z</time></trkpt><trkpt lat="42.1449569" lon="12.8645971"><ele>729.0</ele><time>2026-05-02T13:40:33.018Z</time></trkpt><trkpt lat="42.1450899" lon="12.8644742"><ele>726.0</ele><time>2026-05-02T13:40:34.013Z</time></trkpt><trkpt lat="42.1452284" lon="12.8643689"><ele>723.0</ele><time>2026-05-02T13:40:35.019Z</time></trkpt><trkpt lat="42.1453429" lon="12.8642544"><ele>723.0</ele><time>2026-05-02T13:40:36.021Z</time></trkpt><trkpt lat="42.1454843" lon="12.8641323"><ele>723.0</ele><time>2026-05-02T13:40:37.028Z</time></trkpt><trkpt lat="42.1456361" lon="12.8640262"><ele>723.0</ele><time>2026-05-02T13:40:38.038Z</time></trkpt><trkpt lat="42.1457744" lon="12.8639071"><ele>719.3333333333334</ele><time>2026-05-02T13:40:39.019Z</time></trkpt><trkpt lat="42.1459381" lon="12.8637927"><ele>715.6666666666667</ele><time>2026-05-02T13:40:40.028Z</time></trkpt><trkpt lat="42.1460783" lon="12.8636686"><ele>712.0</ele><time>2026-05-02T13:40:41.022Z</time></trkpt><trkpt lat="42.1462136" lon="12.8635412"><ele>711.25</ele><time>2026-05-02T13:40:42.013Z</time></trkpt><trkpt lat="42.1463344" lon="12.8634315"><ele>710.5</ele><time>2026-05-02T13:40:43.015Z</time></trkpt><trkpt lat="42.1464552" lon="12.8633283"><ele>709.75</ele><time>2026-05-02T13:40:44.009Z</time></trkpt><trkpt lat="42.1465833" lon="12.8632207"><ele>709.0</ele><time>2026-05-02T13:40:45.015Z</time></trkpt><trkpt lat="42.1467124" lon="12.8631175"><ele>709.0</ele><time>2026-05-02T13:40:46.014Z</time></trkpt><trkpt lat="42.1468359" lon="12.8630023"><ele>709.0</ele><time>2026-05-02T13:40:47.005Z</time></trkpt><trkpt lat="42.1469424" lon="12.8629037"><ele>709.0</ele><time>2026-05-02T13:40:48.003Z</time></trkpt><trkpt lat="42.1470658" lon="12.8627988"><ele>709.0</ele><time>2026-05-02T13:40:49.007Z</time></trkpt><trkpt lat="42.1471765" lon="12.8626583"><ele>706.0</ele><time>2026-05-02T13:40:50.002Z</time></trkpt><trkpt lat="42.1472547" lon="12.8624857"><ele>703.0</ele><time>2026-05-02T13:40:50.995Z</time></trkpt><trkpt lat="42.147346" lon="12.8622711"><ele>700.0</ele><time>2026-05-02T13:40:52.005Z</time></trkpt><trkpt lat="42.1474069" lon="12.8620922"><ele>700.0</ele><time>2026-05-02T13:40:52.994Z</time></trkpt><trkpt lat="42.1475149" lon="12.8619599"><ele>700.0</ele><time>2026-05-02T13:40:53.998Z</time></trkpt><trkpt lat="42.1476192" lon="12.8618261"><ele>700.0</ele><time>2026-05-02T13:40:54.996Z</time></trkpt><trkpt lat="42.1477023" lon="12.8617057"><ele>700.0</ele><time>2026-05-02T13:40:55.989Z</time></trkpt><trkpt lat="42.1477672" lon="12.8615556"><ele>700.8</ele><time>2026-05-02T13:40:56.987Z</time></trkpt><trkpt lat="42.1478255" lon="12.861419"><ele>701.6</ele><time>2026-05-02T13:40:57.99Z</time></trkpt><trkpt lat="42.1478941" lon="12.861311"><ele>702.4000000000001</ele><time>2026-05-02T13:40:58.99Z</time></trkpt><trkpt lat="42.1479476" lon="12.8612414"><ele>703.2</ele><time>2026-05-02T13:40:59.979Z</time></trkpt><trkpt lat="42.1480088" lon="12.861202"><ele>704.0</ele><time>2026-05-02T13:41:00.993Z</time></trkpt><trkpt lat="42.1480954" lon="12.8611465"><ele>704.0</ele><time>2026-05-02T13:41:01.991Z</time></trkpt><trkpt lat="42.1482024" lon="12.8611492"><ele>704.0</ele><time>2026-05-02T13:41:02.989Z</time></trkpt><trkpt lat="42.148306" lon="12.8611413"><ele>704.0</ele><time>2026-05-02T13:41:03.989Z</time></trkpt><trkpt lat="42.1484164" lon="12.8611593"><ele>704.0</ele><time>2026-05-02T13:41:04.981Z</time></trkpt><trkpt lat="42.1485121" lon="12.861201"><ele>704.0</ele><time>2026-05-02T13:41:05.986Z</time></trkpt><trkpt lat="42.1485473" lon="12.8612744"><ele>700.2</ele><time>2026-05-02T13:41:06.996Z</time></trkpt><trkpt lat="42.1485982" lon="12.8613413"><ele>696.4000000000001</ele><time>2026-05-02T13:41:08.031Z</time></trkpt><trkpt lat="42.1486156" lon="12.8614471"><ele>692.6</ele><time>2026-05-02T13:41:09.018Z</time></trkpt><trkpt lat="42.1486084" lon="12.8616035"><ele>688.8</ele><time>2026-05-02T13:41:09.998Z</time></trkpt><trkpt lat="42.1485689" lon="12.8617683"><ele>685.0</ele><time>2026-05-02T13:41:10.996Z</time></trkpt><trkpt lat="42.1484733" lon="12.861935"><ele>682.0</ele><time>2026-05-02T13:41:12Z</time></trkpt><trkpt lat="42.1483838" lon="12.8621196"><ele>679.0</ele><time>2026-05-02T13:41:12.999Z</time></trkpt><trkpt lat="42.148288" lon="12.8622815"><ele>676.0</ele><time>2026-05-02T13:41:13.999Z</time></trkpt><trkpt lat="42.1482035" lon="12.862425"><ele>682.0</ele><time>2026-05-02T13:41:14.989Z</time></trkpt><trkpt lat="42.1481242" lon="12.8625699"><ele>688.0</ele><time>2026-05-02T13:41:15.997Z</time></trkpt><trkpt lat="42.1480373" lon="12.8627145"><ele>694.0</ele><time>2026-05-02T13:41:16.992Z</time></trkpt><trkpt lat="42.1479783" lon="12.8628862"><ele>700.0</ele><time>2026-05-02T13:41:17.986Z</time></trkpt><trkpt lat="42.1479509" lon="12.8630569"><ele>699.6</ele><time>2026-05-02T13:41:19.008Z</time></trkpt><trkpt lat="42.14793" lon="12.8632095"><ele>699.2</ele><time>2026-05-02T13:41:19.979Z</time></trkpt><trkpt lat="42.1479555" lon="12.8633594"><ele>698.8</ele><time>2026-05-02T13:41:20.988Z</time></trkpt><trkpt lat="42.1480014" lon="12.8634474"><ele>698.4</ele><time>2026-05-02T13:41:21.984Z</time></trkpt><trkpt lat="42.1480587" lon="12.8635127"><ele>698.0</ele><time>2026-05-02T13:41:22.982Z</time></trkpt><trkpt lat="42.1481744" lon="12.8635042"><ele>692.5</ele><time>2026-05-02T13:41:23.979Z</time></trkpt><trkpt lat="42.1482947" lon="12.8634801"><ele>687.0</ele><time>2026-05-02T13:41:25.011Z</time></trkpt><trkpt lat="42.1484131" lon="12.8633708"><ele>681.5</ele><time>2026-05-02T13:41:26.007Z</time></trkpt><trkpt lat="42.148518" lon="12.863225"><ele>676.0</ele><time>2026-05-02T13:41:26.982Z</time></trkpt><trkpt lat="42.1486297" lon="12.8630637"><ele>676.0</ele><time>2026-05-02T13:41:27.99Z</time></trkpt><trkpt lat="42.1487005" lon="12.8628697"><ele>676.0</ele><time>2026-05-02T13:41:29.001Z</time></trkpt><trkpt lat="42.1487991" lon="12.8626235"><ele>676.0</ele><time>2026-05-02T13:41:29.99Z</time></trkpt><trkpt lat="42.1488505" lon="12.8623993"><ele>676.0</ele><time>2026-05-02T13:41:30.989Z</time></trkpt><trkpt lat="42.1489445" lon="12.8622232"><ele>676.0</ele><time>2026-05-02T13:41:31.983Z</time></trkpt><trkpt lat="42.1490436" lon="12.8620566"><ele>676.0</ele><time>2026-05-02T13:41:32.989Z</time></trkpt><trkpt lat="42.1491758" lon="12.8619117"><ele>674.8</ele><time>2026-05-02T13:41:33.989Z</time></trkpt><trkpt lat="42.1492555" lon="12.8617935"><ele>673.5999999999999</ele><time>2026-05-02T13:41:34.986Z</time></trkpt><trkpt lat="42.1493348" lon="12.8616904"><ele>672.4</ele><time>2026-05-02T13:41:35.984Z</time></trkpt><trkpt lat="42.1494244" lon="12.8616116"><ele>671.2</ele><time>2026-05-02T13:41:36.988Z</time></trkpt><trkpt lat="42.1495275" lon="12.8615592"><ele>670.0</ele><time>2026-05-02T13:41:38.001Z</time></trkpt><trkpt lat="42.1496329" lon="12.8615794"><ele>670.0</ele><time>2026-05-02T13:41:38.987Z</time></trkpt><trkpt lat="42.1497536" lon="12.8616397"><ele>670.0</ele><time>2026-05-02T13:41:39.978Z</time></trkpt><trkpt lat="42.1498698" lon="12.861814"><ele>670.0</ele><time>2026-05-02T13:41:40.99Z</time></trkpt><trkpt lat="42.1499574" lon="12.8619619"><ele>670.0</ele><time>2026-05-02T13:41:41.986Z</time></trkpt><trkpt lat="42.1500238" lon="12.8620886"><ele>664.75</ele><time>2026-05-02T13:41:42.986Z</time></trkpt><trkpt lat="42.1500692" lon="12.8622187"><ele>659.5</ele><time>2026-05-02T13:41:43.989Z</time></trkpt><trkpt lat="42.1501132" lon="12.862419"><ele>654.25</ele><time>2026-05-02T13:41:44.989Z</time></trkpt><trkpt lat="42.1501625" lon="12.8625973"><ele>649.0</ele><time>2026-05-02T13:41:45.985Z</time></trkpt><trkpt lat="42.1501598" lon="12.8627676"><ele>647.6</ele><time>2026-05-02T13:41:47.003Z</time></trkpt><trkpt lat="42.1501518" lon="12.8628968"><ele>646.2</ele><time>2026-05-02T13:41:47.989Z</time></trkpt><trkpt lat="42.1501209" lon="12.8630385"><ele>644.8000000000001</ele><time>2026-05-02T13:41:48.988Z</time></trkpt><trkpt lat="42.1500723" lon="12.8631767"><ele>643.4000000000001</ele><time>2026-05-02T13:41:49.995Z</time></trkpt><trkpt lat="42.1500025" lon="12.8633234"><ele>642.0</ele><time>2026-05-02T13:41:50.995Z</time></trkpt><trkpt lat="42.1498988" lon="12.8634609"><ele>643.75</ele><time>2026-05-02T13:41:52.007Z</time></trkpt><trkpt lat="42.1497951" lon="12.8635925"><ele>645.5</ele><time>2026-05-02T13:41:53.01Z</time></trkpt><trkpt lat="42.149698" lon="12.8637363"><ele>647.25</ele><time>2026-05-02T13:41:54.002Z</time></trkpt><trkpt lat="42.1495905" lon="12.8638692"><ele>649.0</ele><time>2026-05-02T13:41:55Z</time></trkpt><trkpt lat="42.1494715" lon="12.8639916"><ele>649.0</ele><time>2026-05-02T13:41:56.004Z</time></trkpt><trkpt lat="42.1493048" lon="12.8641269"><ele>649.0</ele><time>2026-05-02T13:41:56.996Z</time></trkpt><trkpt lat="42.1491766" lon="12.8642551"><ele>649.0</ele><time>2026-05-02T13:41:58.001Z</time></trkpt><trkpt lat="42.1490708" lon="12.8643771"><ele>649.0</ele><time>2026-05-02T13:41:59.004Z</time></trkpt><trkpt lat="42.1489564" lon="12.8644987"><ele>649.0</ele><time>2026-05-02T13:42:00.004Z</time></trkpt><trkpt lat="42.148852" lon="12.864611"><ele>649.0</ele><time>2026-05-02T13:42:01Z</time></trkpt><trkpt lat="42.148767" lon="12.8646976"><ele>649.0</ele><time>2026-05-02T13:42:02.001Z</time></trkpt><trkpt lat="42.1486784" lon="12.8648053"><ele>649.0</ele><time>2026-05-02T13:42:03.007Z</time></trkpt><trkpt lat="42.1485979" lon="12.8649153"><ele>649.0</ele><time>2026-05-02T13:42:04.009Z</time></trkpt><trkpt lat="42.1485225" lon="12.8650275"><ele>649.0</ele><time>2026-05-02T13:42:05Z</time></trkpt><trkpt lat="42.148431" lon="12.8651429"><ele>649.0</ele><time>2026-05-02T13:42:06.015Z</time></trkpt><trkpt lat="42.1483186" lon="12.865259"><ele>649.25</ele><time>2026-05-02T13:42:07.003Z</time></trkpt><trkpt lat="42.1482239" lon="12.8654014"><ele>649.5</ele><time>2026-05-02T13:42:08.032Z</time></trkpt><trkpt lat="42.1481427" lon="12.8655315"><ele>649.75</ele><time>2026-05-02T13:42:08.997Z</time></trkpt><trkpt lat="42.1480666" lon="12.865647"><ele>650.0</ele><time>2026-05-02T13:42:10.008Z</time></trkpt><trkpt lat="42.1479546" lon="12.8657642"><ele>650.0</ele><time>2026-05-02T13:42:11.003Z</time></trkpt><trkpt lat="42.1478735" lon="12.8658572"><ele>650.0</ele><time>2026-05-02T13:42:12.001Z</time></trkpt><trkpt lat="42.1477849" lon="12.8659551"><ele>650.0</ele><time>2026-05-02T13:42:13.004Z</time></trkpt><trkpt lat="42.1476821" lon="12.8660702"><ele>650.0</ele><time>2026-05-02T13:42:14.003Z</time></trkpt><trkpt lat="42.1475954" lon="12.8661713"><ele>648.5</ele><time>2026-05-02T13:42:15.008Z</time></trkpt><trkpt lat="42.147507" lon="12.8662899"><ele>647.0</ele><time>2026-05-02T13:42:16.017Z</time></trkpt><trkpt lat="42.1474225" lon="12.8663876"><ele>645.5</ele><time>2026-05-02T13:42:17.008Z</time></trkpt><trkpt lat="42.1473245" lon="12.8664795"><ele>644.0</ele><time>2026-05-02T13:42:18.016Z</time></trkpt><trkpt lat="42.147222" lon="12.8665837"><ele>644.0</ele><time>2026-05-02T13:42:19.01Z</time></trkpt><trkpt lat="42.147119" lon="12.8666619"><ele>644.0</ele><time>2026-05-02T13:42:20.031Z</time></trkpt><trkpt lat="42.1470134" lon="12.8667671"><ele>644.0</ele><time>2026-05-02T13:42:21.005Z</time></trkpt><trkpt lat="42.1469019" lon="12.8668699"><ele>644.0</ele><time>2026-05-02T13:42:22.016Z</time></trkpt><trkpt lat="42.1468024" lon="12.8669928"><ele>641.25</ele><time>2026-05-02T13:42:23.006Z</time></trkpt><trkpt lat="42.1467227" lon="12.8671121"><ele>638.5</ele><time>2026-05-02T13:42:24.007Z</time></trkpt><trkpt lat="42.14664" lon="12.8672347"><ele>635.75</ele><time>2026-05-02T13:42:25.005Z</time></trkpt><trkpt lat="42.1465687" lon="12.8673551"><ele>633.0</ele><time>2026-05-02T13:42:26.011Z</time></trkpt><trkpt lat="42.1465108" lon="12.8674576"><ele>637.0</ele><time>2026-05-02T13:42:27.001Z</time></trkpt><trkpt lat="42.1464476" lon="12.867561"><ele>641.0</ele><time>2026-05-02T13:42:28.01Z</time></trkpt><trkpt lat="42.146404" lon="12.8676483"><ele>645.0</ele><time>2026-05-02T13:42:29.008Z</time></trkpt><trkpt lat="42.1463586" lon="12.8677277"><ele>649.0</ele><time>2026-05-02T13:42:29.999Z</time></trkpt><trkpt lat="42.1463008" lon="12.8678817"><ele>653.0</ele><time>2026-05-02T13:42:32.005Z</time></trkpt><trkpt lat="42.1462759" lon="12.8680463"><ele>653.0</ele><time>2026-05-02T13:42:34.091Z</time></trkpt><trkpt lat="42.14628" lon="12.8681818"><ele>653.0</ele><time>2026-05-02T13:42:36.05Z</time></trkpt><trkpt lat="42.146317" lon="12.8683241"><ele>653.0</ele><time>2026-05-02T13:42:38.022Z</time></trkpt><trkpt lat="42.1464093" lon="12.8684002"><ele>653.0</ele><time>2026-05-02T13:42:40.027Z</time></trkpt><trkpt lat="42.1465326" lon="12.8683826"><ele>653.0</ele><time>2026-05-02T13:42:42.031Z</time></trkpt><trkpt lat="42.1465984" lon="12.8683364"><ele>647.6</ele><time>2026-05-02T13:42:43.016Z</time></trkpt><trkpt lat="42.1466559" lon="12.8682715"><ele>642.1999999999999</ele><time>2026-05-02T13:42:44.003Z</time></trkpt><trkpt lat="42.1467292" lon="12.8681712"><ele>636.8</ele><time>2026-05-02T13:42:45.005Z</time></trkpt><trkpt lat="42.1467926" lon="12.8680503"><ele>631.4</ele><time>2026-05-02T13:42:46.003Z</time></trkpt><trkpt lat="42.1468803" lon="12.8679043"><ele>626.0</ele><time>2026-05-02T13:42:47.002Z</time></trkpt><trkpt lat="42.1469763" lon="12.8677641"><ele>626.0</ele><time>2026-05-02T13:42:48.007Z</time></trkpt><trkpt lat="42.1470772" lon="12.8676232"><ele>626.0</ele><time>2026-05-02T13:42:48.995Z</time></trkpt><trkpt lat="42.1472008" lon="12.8674913"><ele>626.0</ele><time>2026-05-02T13:42:50.007Z</time></trkpt><trkpt lat="42.1473201" lon="12.8673698"><ele>620.5</ele><time>2026-05-02T13:42:50.997Z</time></trkpt><trkpt lat="42.1474396" lon="12.8672874"><ele>615.0</ele><time>2026-05-02T13:42:52.243Z</time></trkpt><trkpt lat="42.1478058" lon="12.8671059"><ele>615.0</ele><time>2026-05-02T13:42:54.021Z</time></trkpt><trkpt lat="42.1479641" lon="12.8670187"><ele>615.0</ele><time>2026-05-02T13:42:55.004Z</time></trkpt><trkpt lat="42.148105" lon="12.8669328"><ele>615.0</ele><time>2026-05-02T13:42:55.999Z</time></trkpt><trkpt lat="42.1482585" lon="12.8668281"><ele>613.3333333333334</ele><time>2026-05-02T13:42:57.002Z</time></trkpt><trkpt lat="42.1484077" lon="12.8667501"><ele>611.6666666666667</ele><time>2026-05-02T13:42:58.001Z</time></trkpt><trkpt lat="42.1485498" lon="12.8666577"><ele>610.0</ele><time>2026-05-02T13:42:58.993Z</time></trkpt><trkpt lat="42.1486779" lon="12.8665623"><ele>610.0</ele><time>2026-05-02T13:42:59.999Z</time></trkpt><trkpt lat="42.1488214" lon="12.8664846"><ele>610.0</ele><time>2026-05-02T13:43:00.992Z</time></trkpt><trkpt lat="42.1489693" lon="12.8664069"><ele>610.0</ele><time>2026-05-02T13:43:02.005Z</time></trkpt><trkpt lat="42.1490929" lon="12.86634"><ele>610.0</ele><time>2026-05-02T13:43:02.999Z</time></trkpt><trkpt lat="42.1492269" lon="12.8662243"><ele>609.5</ele><time>2026-05-02T13:43:04.005Z</time></trkpt><trkpt lat="42.1493576" lon="12.8661161"><ele>609.0</ele><time>2026-05-02T13:43:05.008Z</time></trkpt><trkpt lat="42.1494552" lon="12.8660302"><ele>608.5</ele><time>2026-05-02T13:43:06.007Z</time></trkpt><trkpt lat="42.1495582" lon="12.8659421"><ele>608.0</ele><time>2026-05-02T13:43:07.012Z</time></trkpt><trkpt lat="42.1496551" lon="12.8658822"><ele>608.0</ele><time>2026-05-02T13:43:08.015Z</time></trkpt><trkpt lat="42.1497599" lon="12.8658022"><ele>608.0</ele><time>2026-05-02T13:43:09.011Z</time></trkpt><trkpt lat="42.1498647" lon="12.8657205"><ele>608.0</ele><time>2026-05-02T13:43:10.004Z</time></trkpt><trkpt lat="42.1499303" lon="12.8656509"><ele>608.0</ele><time>2026-05-02T13:43:11.011Z</time></trkpt><trkpt lat="42.1500096" lon="12.8655877"><ele>608.0</ele><time>2026-05-02T13:43:12.006Z</time></trkpt><trkpt lat="42.1500751" lon="12.8654958"><ele>608.0</ele><time>2026-05-02T13:43:13.023Z</time></trkpt><trkpt lat="42.1501441" lon="12.8653689"><ele>608.0</ele><time>2026-05-02T13:43:14Z</time></trkpt><trkpt lat="42.1502241" lon="12.8652122"><ele>608.0</ele><time>2026-05-02T13:43:15.002Z</time></trkpt><trkpt lat="42.1503212" lon="12.8650634"><ele>608.0</ele><time>2026-05-02T13:43:15.997Z</time></trkpt><trkpt lat="42.1504253" lon="12.8649121"><ele>608.0</ele><time>2026-05-02T13:43:17.021Z</time></trkpt><trkpt lat="42.1505536" lon="12.8647391"><ele>608.0</ele><time>2026-05-02T13:43:18.025Z</time></trkpt><trkpt lat="42.1506732" lon="12.8645963"><ele>608.0</ele><time>2026-05-02T13:43:19.012Z</time></trkpt><trkpt lat="42.1507473" lon="12.8644545"><ele>605.5</ele><time>2026-05-02T13:43:20.006Z</time></trkpt><trkpt lat="42.1508205" lon="12.8643221"><ele>603.0</ele><time>2026-05-02T13:43:20.985Z</time></trkpt><trkpt lat="42.1509014" lon="12.8641799"><ele>600.5</ele><time>2026-05-02T13:43:21.992Z</time></trkpt><trkpt lat="42.1509742" lon="12.8640664"><ele>598.0</ele><time>2026-05-02T13:43:22.998Z</time></trkpt><trkpt lat="42.1510713" lon="12.8639418"><ele>598.0</ele><time>2026-05-02T13:43:24.007Z</time></trkpt><trkpt lat="42.1511415" lon="12.8638164"><ele>598.0</ele><time>2026-05-02T13:43:24.989Z</time></trkpt><trkpt lat="42.1512214" lon="12.8636974"><ele>598.0</ele><time>2026-05-02T13:43:26.004Z</time></trkpt><trkpt lat="42.1512853" lon="12.8635652"><ele>598.0</ele><time>2026-05-02T13:43:26.985Z</time></trkpt><trkpt lat="42.1513498" lon="12.863435"><ele>596.0</ele><time>2026-05-02T13:43:27.997Z</time></trkpt><trkpt lat="42.1514387" lon="12.8633113"><ele>594.0</ele><time>2026-05-02T13:43:28.991Z</time></trkpt><trkpt lat="42.1515187" lon="12.8631945"><ele>592.0</ele><time>2026-05-02T13:43:29.987Z</time></trkpt><trkpt lat="42.151606" lon="12.8630879"><ele>590.0</ele><time>2026-05-02T13:43:31.066Z</time></trkpt><trkpt lat="42.1517042" lon="12.8629863"><ele>590.0</ele><time>2026-05-02T13:43:31.992Z</time></trkpt><trkpt lat="42.1518112" lon="12.8629028"><ele>590.0</ele><time>2026-05-02T13:43:33.021Z</time></trkpt><trkpt lat="42.1519125" lon="12.8628383"><ele>590.0</ele><time>2026-05-02T13:43:33.995Z</time></trkpt><trkpt lat="42.1520333" lon="12.8628254"><ele>590.0</ele><time>2026-05-02T13:43:34.991Z</time></trkpt><trkpt lat="42.1521717" lon="12.8628406"><ele>590.0</ele><time>2026-05-02T13:43:35.98Z</time></trkpt><trkpt lat="42.152308" lon="12.8628926"><ele>590.0</ele><time>2026-05-02T13:43:36.993Z</time></trkpt><trkpt lat="42.1524592" lon="12.8629968"><ele>590.0</ele><time>2026-05-02T13:43:37.982Z</time></trkpt><trkpt lat="42.1526089" lon="12.8631455"><ele>589.6666666666666</ele><time>2026-05-02T13:43:38.998Z</time></trkpt><trkpt lat="42.1527829" lon="12.8632401"><ele>589.3333333333334</ele><time>2026-05-02T13:43:39.995Z</time></trkpt><trkpt lat="42.1529783" lon="12.8633275"><ele>589.0</ele><time>2026-05-02T13:43:40.988Z</time></trkpt><trkpt lat="42.1530846" lon="12.8633635"><ele>589.75</ele><time>2026-05-02T13:43:41.988Z</time></trkpt><trkpt lat="42.1532093" lon="12.8634398"><ele>590.5</ele><time>2026-05-02T13:43:42.997Z</time></trkpt><trkpt lat="42.1533311" lon="12.8635753"><ele>591.25</ele><time>2026-05-02T13:43:43.986Z</time></trkpt><trkpt lat="42.1534502" lon="12.8635793"><ele>592.0</ele><time>2026-05-02T13:43:44.997Z</time></trkpt><trkpt lat="42.153586" lon="12.8635842"><ele>592.0</ele><time>2026-05-02T13:43:45.997Z</time></trkpt><trkpt lat="42.1537015" lon="12.8635209"><ele>592.0</ele><time>2026-05-02T13:43:46.996Z</time></trkpt><trkpt lat="42.1537628" lon="12.8634532"><ele>592.0</ele><time>2026-05-02T13:43:47.997Z</time></trkpt><trkpt lat="42.1536972" lon="12.8634342"><ele>592.0</ele><time>2026-05-02T13:43:59.999Z</time></trkpt><trkpt lat="42.1536423" lon="12.863381"><ele>592.0</ele><time>2026-05-02T13:44:07.999Z</time></trkpt><trkpt lat="42.1537175" lon="12.8633211"><ele>592.0</ele><time>2026-05-02T13:44:12.021Z</time></trkpt><trkpt lat="42.1537818" lon="12.8633022"><ele>592.0</ele><time>2026-05-02T13:44:18.001Z</time></trkpt><trkpt lat="42.1538773" lon="12.8632585"><ele>592.0</ele><time>2026-05-02T13:50:01.997Z</time></trkpt><trkpt lat="42.1539456" lon="12.8631916"><ele>592.0</ele><time>2026-05-02T13:50:02.995Z</time></trkpt><trkpt lat="42.1540265" lon="12.8630944"><ele>592.0</ele><time>2026-05-02T13:50:04.005Z</time></trkpt><trkpt lat="42.154164" lon="12.8629174"><ele>593.0</ele><time>2026-05-02T13:50:05Z</time></trkpt><trkpt lat="42.1544326" lon="12.8624519"><ele>594.0</ele><time>2026-05-02T13:50:07.004Z</time></trkpt><trkpt lat="42.154576" lon="12.862214"><ele>594.0</ele><time>2026-05-02T13:50:08.002Z</time></trkpt><trkpt lat="42.1546901" lon="12.8619892"><ele>594.0</ele><time>2026-05-02T13:50:09.017Z</time></trkpt><trkpt lat="42.1548089" lon="12.861798"><ele>594.0</ele><time>2026-05-02T13:50:10.001Z</time></trkpt><trkpt lat="42.1549208" lon="12.8616433"><ele>591.0</ele><time>2026-05-02T13:50:11Z</time></trkpt><trkpt lat="42.1550056" lon="12.8614881"><ele>588.0</ele><time>2026-05-02T13:50:11.996Z</time></trkpt><trkpt lat="42.1550829" lon="12.8613592"><ele>585.0</ele><time>2026-05-02T13:50:12.999Z</time></trkpt><trkpt lat="42.1551737" lon="12.8612194"><ele>582.0</ele><time>2026-05-02T13:50:13.997Z</time></trkpt><trkpt lat="42.1552451" lon="12.8610276"><ele>591.3333333333334</ele><time>2026-05-02T13:50:14.991Z</time></trkpt><trkpt lat="42.1553364" lon="12.8608718"><ele>600.6666666666667</ele><time>2026-05-02T13:50:16Z</time></trkpt><trkpt lat="42.1554239" lon="12.8607167"><ele>610.0</ele><time>2026-05-02T13:50:16.984Z</time></trkpt><trkpt lat="42.1555388" lon="12.8605585"><ele>610.0</ele><time>2026-05-02T13:50:18.002Z</time></trkpt><trkpt lat="42.1556542" lon="12.8603795"><ele>610.0</ele><time>2026-05-02T13:50:19.012Z</time></trkpt><trkpt lat="42.1557931" lon="12.8602248"><ele>610.0</ele><time>2026-05-02T13:50:20.001Z</time></trkpt><trkpt lat="42.155912" lon="12.860113"><ele>606.0</ele><time>2026-05-02T13:50:20.985Z</time></trkpt><trkpt lat="42.1560195" lon="12.8600017"><ele>602.0</ele><time>2026-05-02T13:50:22.002Z</time></trkpt><trkpt lat="42.1561128" lon="12.8598963"><ele>598.0</ele><time>2026-05-02T13:50:22.993Z</time></trkpt><trkpt lat="42.1562275" lon="12.8598056"><ele>594.0</ele><time>2026-05-02T13:50:23.997Z</time></trkpt><trkpt lat="42.156336" lon="12.8597304"><ele>594.0</ele><time>2026-05-02T13:50:24.998Z</time></trkpt><trkpt lat="42.1564021" lon="12.8596373"><ele>594.0</ele><time>2026-05-02T13:50:25.995Z</time></trkpt><trkpt lat="42.1565354" lon="12.8593688"><ele>594.0</ele><time>2026-05-02T13:50:28.016Z</time></trkpt><trkpt lat="42.1565763" lon="12.8592493"><ele>594.0</ele><time>2026-05-02T13:50:29.012Z</time></trkpt><trkpt lat="42.1566165" lon="12.8591375"><ele>590.8333333333334</ele><time>2026-05-02T13:50:30.03Z</time></trkpt><trkpt lat="42.1566427" lon="12.8590312"><ele>587.6666666666666</ele><time>2026-05-02T13:50:31.002Z</time></trkpt><trkpt lat="42.1566661" lon="12.858939"><ele>584.5</ele><time>2026-05-02T13:50:31.996Z</time></trkpt><trkpt lat="42.1566893" lon="12.8588576"><ele>581.3333333333333</ele><time>2026-05-02T13:50:33Z</time></trkpt><trkpt lat="42.1567333" lon="12.8587797"><ele>578.1666666666666</ele><time>2026-05-02T13:50:34.006Z</time></trkpt><trkpt lat="42.1567717" lon="12.858692"><ele>575.0</ele><time>2026-05-02T13:50:35.001Z</time></trkpt><trkpt lat="42.1568215" lon="12.8585797"><ele>579.75</ele><time>2026-05-02T13:50:36.002Z</time></trkpt><trkpt lat="42.1568746" lon="12.8584463"><ele>584.5</ele><time>2026-05-02T13:50:37.004Z</time></trkpt><trkpt lat="42.1569429" lon="12.8583174"><ele>589.25</ele><time>2026-05-02T13:50:37.998Z</time></trkpt><trkpt lat="42.1570056" lon="12.8581742"><ele>594.0</ele><time>2026-05-02T13:50:39.015Z</time></trkpt><trkpt lat="42.1570675" lon="12.8580235"><ele>594.0</ele><time>2026-05-02T13:50:39.995Z</time></trkpt><trkpt lat="42.1571376" lon="12.8578794"><ele>594.0</ele><time>2026-05-02T13:50:40.992Z</time></trkpt><trkpt lat="42.1572147" lon="12.8577441"><ele>594.0</ele><time>2026-05-02T13:50:42.003Z</time></trkpt><trkpt lat="42.1572958" lon="12.8576226"><ele>594.0</ele><time>2026-05-02T13:50:42.994Z</time></trkpt><trkpt lat="42.1573732" lon="12.8574964"><ele>598.75</ele><time>2026-05-02T13:50:44.002Z</time></trkpt><trkpt lat="42.157427" lon="12.8573602"><ele>603.5</ele><time>2026-05-02T13:50:45.007Z</time></trkpt><trkpt lat="42.1574779" lon="12.8571971"><ele>608.25</ele><time>2026-05-02T13:50:45.995Z</time></trkpt><trkpt lat="42.1575244" lon="12.8570295"><ele>613.0</ele><time>2026-05-02T13:50:47.001Z</time></trkpt><trkpt lat="42.1577217" lon="12.8566277"><ele>613.0</ele><time>2026-05-02T13:50:49.003Z</time></trkpt><trkpt lat="42.1578293" lon="12.8564174"><ele>613.0</ele><time>2026-05-02T13:50:49.999Z</time></trkpt><trkpt lat="42.157943" lon="12.8562208"><ele>613.0</ele><time>2026-05-02T13:50:51Z</time></trkpt><trkpt lat="42.158028" lon="12.8560524"><ele>621.25</ele><time>2026-05-02T13:50:51.996Z</time></trkpt><trkpt lat="42.1581224" lon="12.8558935"><ele>629.5</ele><time>2026-05-02T13:50:52.996Z</time></trkpt><trkpt lat="42.1581706" lon="12.8557338"><ele>637.75</ele><time>2026-05-02T13:50:53.985Z</time></trkpt><trkpt lat="42.1582171" lon="12.8555934"><ele>646.0</ele><time>2026-05-02T13:50:54.995Z</time></trkpt><trkpt lat="42.1583095" lon="12.855411"><ele>629.3333333333334</ele><time>2026-05-02T13:50:55.982Z</time></trkpt><trkpt lat="42.1584484" lon="12.8552643"><ele>612.6666666666666</ele><time>2026-05-02T13:50:56.988Z</time></trkpt><trkpt lat="42.1585552" lon="12.8550995"><ele>596.0</ele><time>2026-05-02T13:50:57.991Z</time></trkpt><trkpt lat="42.1587399" lon="12.8549834"><ele>596.0</ele><time>2026-05-02T13:50:59.015Z</time></trkpt><trkpt lat="42.158872" lon="12.8547551"><ele>596.0</ele><time>2026-05-02T13:51:00.015Z</time></trkpt><trkpt lat="42.1589856" lon="12.8545502"><ele>596.0</ele><time>2026-05-02T13:51:00.996Z</time></trkpt><trkpt lat="42.1590296" lon="12.8543486"><ele>581.3333333333333</ele><time>2026-05-02T13:51:01.987Z</time></trkpt><trkpt lat="42.1591329" lon="12.8541596"><ele>566.6666666666666</ele><time>2026-05-02T13:51:02.993Z</time></trkpt><trkpt lat="42.1591738" lon="12.8539993"><ele>552.0</ele><time>2026-05-02T13:51:03.995Z</time></trkpt><trkpt lat="42.1592707" lon="12.853833"><ele>552.0</ele><time>2026-05-02T13:51:04.991Z</time></trkpt><trkpt lat="42.1593242" lon="12.8536474"><ele>552.0</ele><time>2026-05-02T13:51:05.992Z</time></trkpt><trkpt lat="42.1593428" lon="12.853503"><ele>552.0</ele><time>2026-05-02T13:51:06.991Z</time></trkpt><trkpt lat="42.1593767" lon="12.8533929"><ele>552.0</ele><time>2026-05-02T13:51:07.998Z</time></trkpt><trkpt lat="42.1595193" lon="12.8531721"><ele>556.0</ele><time>2026-05-02T13:51:10.986Z</time></trkpt><trkpt lat="42.1595441" lon="12.8530569"><ele>560.0</ele><time>2026-05-02T13:51:11.988Z</time></trkpt><trkpt lat="42.1596387" lon="12.8529393"><ele>564.0</ele><time>2026-05-02T13:51:13.987Z</time></trkpt><trkpt lat="42.1596895" lon="12.8528522"><ele>568.0</ele><time>2026-05-02T13:51:14.985Z</time></trkpt><trkpt lat="42.1597466" lon="12.8527736"><ele>572.0</ele><time>2026-05-02T13:51:15.997Z</time></trkpt><trkpt lat="42.1597983" lon="12.8527095"><ele>572.0</ele><time>2026-05-02T13:51:16.993Z</time></trkpt><trkpt lat="42.159863" lon="12.8526619"><ele>572.0</ele><time>2026-05-02T13:51:18.994Z</time></trkpt><trkpt lat="42.1599429" lon="12.8527137"><ele>572.0</ele><time>2026-05-02T13:51:20.993Z</time></trkpt><trkpt lat="42.1600018" lon="12.852781"><ele>572.0</ele><time>2026-05-02T13:51:23Z</time></trkpt><trkpt lat="42.1600719" lon="12.8528365"><ele>572.0</ele><time>2026-05-02T13:51:24.998Z</time></trkpt><trkpt lat="42.1601383" lon="12.8528533"><ele>572.0</ele><time>2026-05-02T13:51:30.001Z</time></trkpt><trkpt lat="42.1599146" lon="12.852664"><ele>572.0</ele><time>2026-05-02T13:54:34.732Z</time></trkpt><trkpt lat="42.1598148" lon="12.8526441"><ele>572.0</ele><time>2026-05-02T13:54:35.745Z</time></trkpt><trkpt lat="42.1597293" lon="12.8526446"><ele>572.0</ele><time>2026-05-02T13:54:36.742Z</time></trkpt><trkpt lat="42.1596234" lon="12.8526404"><ele>572.0</ele><time>2026-05-02T13:54:37.745Z</time></trkpt><trkpt lat="42.1595073" lon="12.8526338"><ele>572.0</ele><time>2026-05-02T13:54:38.747Z</time></trkpt><trkpt lat="42.1593911" lon="12.8526363"><ele>572.0</ele><time>2026-05-02T13:54:39.751Z</time></trkpt><trkpt lat="42.1592845" lon="12.8526581"><ele>572.0</ele><time>2026-05-02T13:54:40.742Z</time></trkpt><trkpt lat="42.1591891" lon="12.8526598"><ele>572.0</ele><time>2026-05-02T13:54:41.753Z</time></trkpt><trkpt lat="42.1590977" lon="12.8526496"><ele>572.0</ele><time>2026-05-02T13:54:42.746Z</time></trkpt><trkpt lat="42.1590189" lon="12.8526334"><ele>572.0</ele><time>2026-05-02T13:54:43.751Z</time></trkpt><trkpt lat="42.1589383" lon="12.8526073"><ele>578.0</ele><time>2026-05-02T13:54:44.75Z</time></trkpt><trkpt lat="42.1588774" lon="12.852576"><ele>584.0</ele><time>2026-05-02T13:54:45.745Z</time></trkpt><trkpt lat="42.1587968" lon="12.8525386"><ele>590.0</ele><time>2026-05-02T13:54:48.75Z</time></trkpt><trkpt lat="42.1589478" lon="12.8525779"><ele>596.0</ele><time>2026-05-02T13:54:52.751Z</time></trkpt><trkpt lat="42.1590982" lon="12.8525611"><ele>596.0</ele><time>2026-05-02T13:54:56.746Z</time></trkpt><trkpt lat="42.1592642" lon="12.8525731"><ele>596.0</ele><time>2026-05-02T13:54:57.778Z</time></trkpt><trkpt lat="42.1594368" lon="12.8525787"><ele>596.0</ele><time>2026-05-02T13:54:58.742Z</time></trkpt><trkpt lat="42.159714" lon="12.8526147"><ele>596.0</ele><time>2026-05-02T13:54:59.756Z</time></trkpt><trkpt lat="42.1598453" lon="12.8526219"><ele>596.0</ele><time>2026-05-02T13:55:00.748Z</time></trkpt><trkpt lat="42.1599887" lon="12.8526347"><ele>596.0</ele><time>2026-05-02T13:55:02.758Z</time></trkpt><trkpt lat="42.1600226" lon="12.8525628"><ele>596.0</ele><time>2026-05-02T13:55:05.757Z</time></trkpt><trkpt lat="42.159972" lon="12.8526159"><ele>596.0</ele><time>2026-05-02T13:55:11.758Z</time></trkpt><trkpt lat="42.1598791" lon="12.8526902"><ele>596.0</ele><time>2026-05-02T13:55:14.773Z</time></trkpt><trkpt lat="42.1598099" lon="12.8527668"><ele>596.0</ele><time>2026-05-02T13:55:16.763Z</time></trkpt><trkpt lat="42.1597445" lon="12.8527646"><ele>596.0</ele><time>2026-05-02T13:55:18.761Z</time></trkpt><trkpt lat="42.1596778" lon="12.8527416"><ele>596.0</ele><time>2026-05-02T13:55:22.751Z</time></trkpt><trkpt lat="42.1597018" lon="12.8525799"><ele>596.0</ele><time>2026-05-02T13:55:25.752Z</time></trkpt><trkpt lat="42.1597427" lon="12.8524752"><ele>596.0</ele><time>2026-05-02T13:55:26.751Z</time></trkpt><trkpt lat="42.1597795" lon="12.8523453"><ele>596.0</ele><time>2026-05-02T13:55:27.916Z</time></trkpt><trkpt lat="42.159807" lon="12.8520268"><ele>596.0</ele><time>2026-05-02T13:55:29.743Z</time></trkpt><trkpt lat="42.1598415" lon="12.8518588"><ele>596.0</ele><time>2026-05-02T13:55:30.759Z</time></trkpt><trkpt lat="42.1598935" lon="12.8516638"><ele>587.5</ele><time>2026-05-02T13:55:31.756Z</time></trkpt><trkpt lat="42.159922" lon="12.8514844"><ele>579.0</ele><time>2026-05-02T13:55:32.754Z</time></trkpt><trkpt lat="42.159946" lon="12.8512995"><ele>570.5</ele><time>2026-05-02T13:55:33.753Z</time></trkpt><trkpt lat="42.1599726" lon="12.8511221"><ele>562.0</ele><time>2026-05-02T13:55:34.746Z</time></trkpt><trkpt lat="42.1599936" lon="12.8509577"><ele>562.25</ele><time>2026-05-02T13:55:35.754Z</time></trkpt><trkpt lat="42.1600121" lon="12.8507923"><ele>562.5</ele><time>2026-05-02T13:55:36.751Z</time></trkpt><trkpt lat="42.1600275" lon="12.8506292"><ele>562.75</ele><time>2026-05-02T13:55:37.746Z</time></trkpt><trkpt lat="42.1600414" lon="12.8504759"><ele>563.0</ele><time>2026-05-02T13:55:38.752Z</time></trkpt><trkpt lat="42.1600577" lon="12.8503314"><ele>563.0</ele><time>2026-05-02T13:55:39.744Z</time></trkpt><trkpt lat="42.1600942" lon="12.8501584"><ele>563.0</ele><time>2026-05-02T13:55:40.751Z</time></trkpt><trkpt lat="42.1601431" lon="12.8500008"><ele>563.0</ele><time>2026-05-02T13:55:41.747Z</time></trkpt><trkpt lat="42.1602073" lon="12.8498569"><ele>563.0</ele><time>2026-05-02T13:55:42.741Z</time></trkpt><trkpt lat="42.1602964" lon="12.8497171"><ele>566.6666666666666</ele><time>2026-05-02T13:55:43.736Z</time></trkpt><trkpt lat="42.1604519" lon="12.8495581"><ele>570.3333333333334</ele><time>2026-05-02T13:55:44.746Z</time></trkpt><trkpt lat="42.1606376" lon="12.8494563"><ele>574.0</ele><time>2026-05-02T13:55:45.74Z</time></trkpt><trkpt lat="42.1607811" lon="12.8493795"><ele>568.75</ele><time>2026-05-02T13:55:46.911Z</time></trkpt><trkpt lat="42.1609199" lon="12.8492523"><ele>563.5</ele><time>2026-05-02T13:55:47.745Z</time></trkpt><trkpt lat="42.1609816" lon="12.8491112"><ele>558.25</ele><time>2026-05-02T13:55:48.743Z</time></trkpt><trkpt lat="42.1610387" lon="12.8489686"><ele>553.0</ele><time>2026-05-02T13:55:49.763Z</time></trkpt><trkpt lat="42.1610877" lon="12.848818"><ele>553.0</ele><time>2026-05-02T13:55:50.754Z</time></trkpt><trkpt lat="42.161121" lon="12.8486614"><ele>553.0</ele><time>2026-05-02T13:55:51.751Z</time></trkpt><trkpt lat="42.1611812" lon="12.8485148"><ele>553.0</ele><time>2026-05-02T13:55:52.784Z</time></trkpt><trkpt lat="42.1612434" lon="12.8483605"><ele>553.0</ele><time>2026-05-02T13:55:53.747Z</time></trkpt><trkpt lat="42.1613003" lon="12.8482062"><ele>556.6666666666667</ele><time>2026-05-02T13:55:54.747Z</time></trkpt><trkpt lat="42.1613483" lon="12.8480386"><ele>560.3333333333334</ele><time>2026-05-02T13:55:55.754Z</time></trkpt><trkpt lat="42.1613692" lon="12.8478086"><ele>564.0</ele><time>2026-05-02T13:55:56.745Z</time></trkpt><trkpt lat="42.161384" lon="12.8476009"><ele>566.0</ele><time>2026-05-02T13:55:57.75Z</time></trkpt><trkpt lat="42.1614165" lon="12.847374"><ele>568.0</ele><time>2026-05-02T13:55:58.749Z</time></trkpt><trkpt lat="42.1614726" lon="12.8471681"><ele>570.0</ele><time>2026-05-02T13:55:59.779Z</time></trkpt><trkpt lat="42.1615356" lon="12.8469439"><ele>560.3333333333334</ele><time>2026-05-02T13:56:00.748Z</time></trkpt><trkpt lat="42.1616096" lon="12.8467063"><ele>550.6666666666667</ele><time>2026-05-02T13:56:01.744Z</time></trkpt><trkpt lat="42.1616951" lon="12.8464989"><ele>541.0</ele><time>2026-05-02T13:56:02.746Z</time></trkpt><trkpt lat="42.1617656" lon="12.8462985"><ele>541.0</ele><time>2026-05-02T13:56:03.747Z</time></trkpt><trkpt lat="42.1618421" lon="12.8461269"><ele>541.0</ele><time>2026-05-02T13:56:04.751Z</time></trkpt><trkpt lat="42.16184" lon="12.8459361"><ele>541.0</ele><time>2026-05-02T13:56:05.752Z</time></trkpt><trkpt lat="42.1618598" lon="12.845729"><ele>541.0</ele><time>2026-05-02T13:56:06.745Z</time></trkpt><trkpt lat="42.161854" lon="12.8455399"><ele>540.25</ele><time>2026-05-02T13:56:07.753Z</time></trkpt><trkpt lat="42.1618501" lon="12.8453611"><ele>539.5</ele><time>2026-05-02T13:56:08.74Z</time></trkpt><trkpt lat="42.161779" lon="12.8452108"><ele>538.75</ele><time>2026-05-02T13:56:09.755Z</time></trkpt><trkpt lat="42.1617388" lon="12.8450529"><ele>538.0</ele><time>2026-05-02T13:56:10.752Z</time></trkpt><trkpt lat="42.1617129" lon="12.8449252"><ele>536.8333333333334</ele><time>2026-05-02T13:56:11.74Z</time></trkpt><trkpt lat="42.1617647" lon="12.8448621"><ele>535.6666666666667</ele><time>2026-05-02T13:56:13.738Z</time></trkpt><trkpt lat="42.1618946" lon="12.8448778"><ele>534.5</ele><time>2026-05-02T13:56:16.744Z</time></trkpt><trkpt lat="42.161959" lon="12.8449168"><ele>533.3333333333334</ele><time>2026-05-02T13:56:17.736Z</time></trkpt><trkpt lat="42.1620241" lon="12.8449891"><ele>532.1666666666666</ele><time>2026-05-02T13:56:18.748Z</time></trkpt><trkpt lat="42.1620796" lon="12.845043"><ele>531.0</ele><time>2026-05-02T13:56:19.741Z</time></trkpt><trkpt lat="42.1621386" lon="12.8450763"><ele>531.0</ele><time>2026-05-02T13:56:20.743Z</time></trkpt><trkpt lat="42.1621998" lon="12.8451262"><ele>531.0</ele><time>2026-05-02T13:56:21.74Z</time></trkpt><trkpt lat="42.1622821" lon="12.8451427"><ele>531.0</ele><time>2026-05-02T13:56:22.735Z</time></trkpt><trkpt lat="42.1623644" lon="12.845105"><ele>531.0</ele><time>2026-05-02T13:56:23.747Z</time></trkpt><trkpt lat="42.1624599" lon="12.8450281"><ele>531.0</ele><time>2026-05-02T13:56:24.746Z</time></trkpt><trkpt lat="42.1625364" lon="12.8449358"><ele>530.1666666666666</ele><time>2026-05-02T13:56:25.742Z</time></trkpt><trkpt lat="42.1625914" lon="12.8448608"><ele>529.3333333333334</ele><time>2026-05-02T13:56:26.743Z</time></trkpt><trkpt lat="42.1626384" lon="12.8447106"><ele>528.5</ele><time>2026-05-02T13:56:28.744Z</time></trkpt><trkpt lat="42.1626496" lon="12.8445946"><ele>527.6666666666667</ele><time>2026-05-02T13:56:30.769Z</time></trkpt><trkpt lat="42.1626405" lon="12.8445024"><ele>526.8333333333334</ele><time>2026-05-02T13:56:31.747Z</time></trkpt><trkpt lat="42.1625962" lon="12.8444266"><ele>526.0</ele><time>2026-05-02T13:56:32.745Z</time></trkpt><trkpt lat="42.1625511" lon="12.8443176"><ele>524.75</ele><time>2026-05-02T13:56:33.748Z</time></trkpt><trkpt lat="42.1624639" lon="12.8442029"><ele>523.5</ele><time>2026-05-02T13:56:34.739Z</time></trkpt><trkpt lat="42.1623706" lon="12.8440951"><ele>522.25</ele><time>2026-05-02T13:56:35.746Z</time></trkpt><trkpt lat="42.1622902" lon="12.8439478"><ele>521.0</ele><time>2026-05-02T13:56:36.739Z</time></trkpt><trkpt lat="42.1621968" lon="12.8437961"><ele>521.0</ele><time>2026-05-02T13:56:37.74Z</time></trkpt><trkpt lat="42.1620855" lon="12.8436606"><ele>521.0</ele><time>2026-05-02T13:56:38.737Z</time></trkpt><trkpt lat="42.1619756" lon="12.8435283"><ele>521.0</ele><time>2026-05-02T13:56:39.739Z</time></trkpt><trkpt lat="42.1618588" lon="12.8433895"><ele>520.75</ele><time>2026-05-02T13:56:40.729Z</time></trkpt><trkpt lat="42.1617408" lon="12.8432706"><ele>520.5</ele><time>2026-05-02T13:56:41.743Z</time></trkpt><trkpt lat="42.1616364" lon="12.8431456"><ele>520.25</ele><time>2026-05-02T13:56:42.734Z</time></trkpt><trkpt lat="42.1615213" lon="12.8429993"><ele>520.0</ele><time>2026-05-02T13:56:43.737Z</time></trkpt><trkpt lat="42.1614198" lon="12.8428617"><ele>520.0</ele><time>2026-05-02T13:56:44.737Z</time></trkpt><trkpt lat="42.1613173" lon="12.8427432"><ele>520.0</ele><time>2026-05-02T13:56:45.826Z</time></trkpt><trkpt lat="42.1612274" lon="12.8426215"><ele>520.0</ele><time>2026-05-02T13:56:46.898Z</time></trkpt><trkpt lat="42.1611299" lon="12.8425074"><ele>520.0</ele><time>2026-05-02T13:56:47.908Z</time></trkpt><trkpt lat="42.1610315" lon="12.8424152"><ele>517.6666666666667</ele><time>2026-05-02T13:56:48.896Z</time></trkpt><trkpt lat="42.160852" lon="12.8422251"><ele>515.3333333333334</ele><time>2026-05-02T13:56:50.739Z</time></trkpt><trkpt lat="42.1607477" lon="12.8421062"><ele>513.0</ele><time>2026-05-02T13:56:51.737Z</time></trkpt><trkpt lat="42.1606439" lon="12.8420027"><ele>513.75</ele><time>2026-05-02T13:56:52.743Z</time></trkpt><trkpt lat="42.1605276" lon="12.8418973"><ele>514.5</ele><time>2026-05-02T13:56:53.745Z</time></trkpt><trkpt lat="42.1604218" lon="12.8417542"><ele>515.25</ele><time>2026-05-02T13:56:54.738Z</time></trkpt><trkpt lat="42.1603388" lon="12.841642"><ele>516.0</ele><time>2026-05-02T13:56:55.9Z</time></trkpt><trkpt lat="42.1602711" lon="12.8414937"><ele>516.0</ele><time>2026-05-02T13:56:56.893Z</time></trkpt><trkpt lat="42.1601956" lon="12.8413787"><ele>516.0</ele><time>2026-05-02T13:56:57.894Z</time></trkpt><trkpt lat="42.160136" lon="12.8412594"><ele>516.0</ele><time>2026-05-02T13:56:58.898Z</time></trkpt><trkpt lat="42.1600631" lon="12.8410185"><ele>516.0</ele><time>2026-05-02T13:57:00.749Z</time></trkpt><trkpt lat="42.1600257" lon="12.8408725"><ele>514.4</ele><time>2026-05-02T13:57:01.764Z</time></trkpt><trkpt lat="42.1599796" lon="12.8407327"><ele>512.8</ele><time>2026-05-02T13:57:02.749Z</time></trkpt><trkpt lat="42.1599502" lon="12.8405943"><ele>511.19999999999993</ele><time>2026-05-02T13:57:03.749Z</time></trkpt><trkpt lat="42.1599195" lon="12.8404703"><ele>509.59999999999997</ele><time>2026-05-02T13:57:04.749Z</time></trkpt><trkpt lat="42.1598888" lon="12.8403417"><ele>508.0</ele><time>2026-05-02T13:57:05.753Z</time></trkpt><trkpt lat="42.1598696" lon="12.8402087"><ele>510.5</ele><time>2026-05-02T13:57:06.755Z</time></trkpt><trkpt lat="42.15985" lon="12.8400482"><ele>513.0</ele><time>2026-05-02T13:57:07.748Z</time></trkpt><trkpt lat="42.1598049" lon="12.8398977"><ele>515.5</ele><time>2026-05-02T13:57:08.753Z</time></trkpt><trkpt lat="42.1597491" lon="12.8397675"><ele>518.0</ele><time>2026-05-02T13:57:09.744Z</time></trkpt><trkpt lat="42.1597119" lon="12.8396383"><ele>518.0</ele><time>2026-05-02T13:57:10.744Z</time></trkpt><trkpt lat="42.1596887" lon="12.8395123"><ele>518.0</ele><time>2026-05-02T13:57:11.74Z</time></trkpt><trkpt lat="42.159659" lon="12.8393878"><ele>518.0</ele><time>2026-05-02T13:57:12.755Z</time></trkpt><trkpt lat="42.1595897" lon="12.8392851"><ele>518.0</ele><time>2026-05-02T13:57:13.744Z</time></trkpt><trkpt lat="42.1595203" lon="12.8391792"><ele>518.0</ele><time>2026-05-02T13:57:14.74Z</time></trkpt><trkpt lat="42.1594634" lon="12.8390833"><ele>515.8</ele><time>2026-05-02T13:57:15.755Z</time></trkpt><trkpt lat="42.1594208" lon="12.8389799"><ele>513.5999999999999</ele><time>2026-05-02T13:57:16.748Z</time></trkpt><trkpt lat="42.1593636" lon="12.8388729"><ele>511.40000000000003</ele><time>2026-05-02T13:57:17.755Z</time></trkpt><trkpt lat="42.1593111" lon="12.8387594"><ele>509.20000000000005</ele><time>2026-05-02T13:57:18.75Z</time></trkpt><trkpt lat="42.1592485" lon="12.8386286"><ele>507.0</ele><time>2026-05-02T13:57:19.737Z</time></trkpt><trkpt lat="42.1591868" lon="12.8385026"><ele>506.40000000000003</ele><time>2026-05-02T13:57:20.749Z</time></trkpt><trkpt lat="42.1591188" lon="12.8383962"><ele>505.80000000000007</ele><time>2026-05-02T13:57:21.746Z</time></trkpt><trkpt lat="42.1590412" lon="12.8382767"><ele>505.2</ele><time>2026-05-02T13:57:22.749Z</time></trkpt><trkpt lat="42.1589723" lon="12.8381581"><ele>504.6</ele><time>2026-05-02T13:57:23.75Z</time></trkpt><trkpt lat="42.1588949" lon="12.8380549"><ele>504.0</ele><time>2026-05-02T13:57:24.757Z</time></trkpt><trkpt lat="42.1588218" lon="12.8379489"><ele>504.0</ele><time>2026-05-02T13:57:25.75Z</time></trkpt><trkpt lat="42.1587614" lon="12.8378466"><ele>504.0</ele><time>2026-05-02T13:57:26.75Z</time></trkpt><trkpt lat="42.1587141" lon="12.8377473"><ele>504.0</ele><time>2026-05-02T13:57:27.748Z</time></trkpt><trkpt lat="42.1586753" lon="12.8376289"><ele>504.0</ele><time>2026-05-02T13:57:28.741Z</time></trkpt><trkpt lat="42.1586389" lon="12.8375235"><ele>504.0</ele><time>2026-05-02T13:57:29.752Z</time></trkpt><trkpt lat="42.1586096" lon="12.8374319"><ele>504.0</ele><time>2026-05-02T13:57:30.753Z</time></trkpt><trkpt lat="42.1585645" lon="12.8373715"><ele>505.0</ele><time>2026-05-02T13:57:31.747Z</time></trkpt><trkpt lat="42.1584646" lon="12.8372688"><ele>506.0</ele><time>2026-05-02T13:57:33.75Z</time></trkpt><trkpt lat="42.1583829" lon="12.8372147"><ele>507.0</ele><time>2026-05-02T13:57:34.75Z</time></trkpt><trkpt lat="42.1583179" lon="12.8371385"><ele>508.0</ele><time>2026-05-02T13:57:35.736Z</time></trkpt><trkpt lat="42.1582575" lon="12.8370436"><ele>509.0</ele><time>2026-05-02T13:57:36.741Z</time></trkpt><trkpt lat="42.1581893" lon="12.8369136"><ele>506.75</ele><time>2026-05-02T13:57:37.733Z</time></trkpt><trkpt lat="42.1581127" lon="12.8367656"><ele>504.5</ele><time>2026-05-02T13:57:38.735Z</time></trkpt><trkpt lat="42.1580384" lon="12.8366161"><ele>502.25</ele><time>2026-05-02T13:57:39.747Z</time></trkpt><trkpt lat="42.1579602" lon="12.8364809"><ele>500.0</ele><time>2026-05-02T13:57:40.74Z</time></trkpt><trkpt lat="42.157866" lon="12.8363651"><ele>500.0</ele><time>2026-05-02T13:57:41.745Z</time></trkpt><trkpt lat="42.1577695" lon="12.8362594"><ele>500.0</ele><time>2026-05-02T13:57:42.748Z</time></trkpt><trkpt lat="42.157624" lon="12.8361921"><ele>500.0</ele><time>2026-05-02T13:57:43.738Z</time></trkpt><trkpt lat="42.1574727" lon="12.836128"><ele>500.0</ele><time>2026-05-02T13:57:44.739Z</time></trkpt><trkpt lat="42.157295" lon="12.8360616"><ele>500.5</ele><time>2026-05-02T13:57:45.737Z</time></trkpt><trkpt lat="42.1571384" lon="12.8359778"><ele>501.0</ele><time>2026-05-02T13:57:46.73Z</time></trkpt><trkpt lat="42.157019" lon="12.8358998"><ele>501.5</ele><time>2026-05-02T13:57:47.724Z</time></trkpt><trkpt lat="42.156891" lon="12.8358168"><ele>502.0</ele><time>2026-05-02T13:57:48.729Z</time></trkpt><trkpt lat="42.1567883" lon="12.8357465"><ele>502.0</ele><time>2026-05-02T13:57:49.742Z</time></trkpt><trkpt lat="42.1566698" lon="12.835695"><ele>502.0</ele><time>2026-05-02T13:57:50.736Z</time></trkpt><trkpt lat="42.1565257" lon="12.8356286"><ele>502.0</ele><time>2026-05-02T13:57:51.827Z</time></trkpt><trkpt lat="42.1564219" lon="12.8355869"><ele>502.0</ele><time>2026-05-02T13:57:52.743Z</time></trkpt><trkpt lat="42.1563131" lon="12.8355309"><ele>503.0</ele><time>2026-05-02T13:57:53.737Z</time></trkpt><trkpt lat="42.1562069" lon="12.8354555"><ele>504.0</ele><time>2026-05-02T13:57:54.744Z</time></trkpt><trkpt lat="42.1560781" lon="12.8353941"><ele>505.0</ele><time>2026-05-02T13:57:55.744Z</time></trkpt><trkpt lat="42.1559591" lon="12.8353281"><ele>506.0</ele><time>2026-05-02T13:57:56.738Z</time></trkpt><trkpt lat="42.1558356" lon="12.8352445"><ele>506.0</ele><time>2026-05-02T13:57:57.736Z</time></trkpt><trkpt lat="42.1557136" lon="12.8351618"><ele>506.0</ele><time>2026-05-02T13:57:58.737Z</time></trkpt><trkpt lat="42.1555725" lon="12.8350937"><ele>506.0</ele><time>2026-05-02T13:57:59.738Z</time></trkpt><trkpt lat="42.1554442" lon="12.8350156"><ele>506.0</ele><time>2026-05-02T13:58:00.743Z</time></trkpt><trkpt lat="42.1553246" lon="12.8349478"><ele>504.0</ele><time>2026-05-02T13:58:01.765Z</time></trkpt><trkpt lat="42.1552138" lon="12.8348885"><ele>502.0</ele><time>2026-05-02T13:58:02.757Z</time></trkpt><trkpt lat="42.1551216" lon="12.8348322"><ele>500.0</ele><time>2026-05-02T13:58:03.785Z</time></trkpt><trkpt lat="42.1550491" lon="12.834743"><ele>498.0</ele><time>2026-05-02T13:58:04.752Z</time></trkpt><trkpt lat="42.1549808" lon="12.8346471"><ele>496.0</ele><time>2026-05-02T13:58:05.735Z</time></trkpt><trkpt lat="42.1549177" lon="12.8345791"><ele>496.1666666666667</ele><time>2026-05-02T13:58:06.746Z</time></trkpt><trkpt lat="42.154854" lon="12.8345216"><ele>496.33333333333337</ele><time>2026-05-02T13:58:07.744Z</time></trkpt><trkpt lat="42.154774" lon="12.8344736"><ele>496.5</ele><time>2026-05-02T13:58:08.738Z</time></trkpt><trkpt lat="42.1546843" lon="12.8344337"><ele>496.66666666666663</ele><time>2026-05-02T13:58:09.822Z</time></trkpt><trkpt lat="42.1545935" lon="12.8344111"><ele>496.8333333333333</ele><time>2026-05-02T13:58:10.767Z</time></trkpt><trkpt lat="42.1545089" lon="12.8344062"><ele>497.0</ele><time>2026-05-02T13:58:11.751Z</time></trkpt><trkpt lat="42.1544265" lon="12.8344288"><ele>496.99999999999994</ele><time>2026-05-02T13:58:12.74Z</time></trkpt><trkpt lat="42.1543406" lon="12.8344541"><ele>497.0</ele><time>2026-05-02T13:58:13.751Z</time></trkpt><trkpt lat="42.1542591" lon="12.834461"><ele>497.0</ele><time>2026-05-02T13:58:14.753Z</time></trkpt><trkpt lat="42.1541773" lon="12.8344725"><ele>497.0</ele><time>2026-05-02T13:58:15.768Z</time></trkpt><trkpt lat="42.1540873" lon="12.834482"><ele>496.99999999999994</ele><time>2026-05-02T13:58:16.743Z</time></trkpt><trkpt lat="42.1539969" lon="12.8344846"><ele>497.0</ele><time>2026-05-02T13:58:17.748Z</time></trkpt><trkpt lat="42.1539204" lon="12.8345028"><ele>497.6</ele><time>2026-05-02T13:58:18.739Z</time></trkpt><trkpt lat="42.1538375" lon="12.83451"><ele>498.20000000000005</ele><time>2026-05-02T13:58:19.74Z</time></trkpt><trkpt lat="42.153727" lon="12.8344836"><ele>498.8</ele><time>2026-05-02T13:58:21.743Z</time></trkpt><trkpt lat="42.153594" lon="12.8344288"><ele>499.4</ele><time>2026-05-02T13:58:23.766Z</time></trkpt><trkpt lat="42.1535122" lon="12.8343837"><ele>500.0</ele><time>2026-05-02T13:58:24.742Z</time></trkpt><trkpt lat="42.153429" lon="12.8343284"><ele>497.75</ele><time>2026-05-02T13:58:25.741Z</time></trkpt><trkpt lat="42.1533294" lon="12.834259"><ele>495.5</ele><time>2026-05-02T13:58:26.733Z</time></trkpt><trkpt lat="42.1532222" lon="12.8341657"><ele>493.25</ele><time>2026-05-02T13:58:27.818Z</time></trkpt><trkpt lat="42.153112" lon="12.8341107"><ele>491.0</ele><time>2026-05-02T13:58:28.742Z</time></trkpt><trkpt lat="42.1530112" lon="12.8340289"><ele>491.0</ele><time>2026-05-02T13:58:29.734Z</time></trkpt><trkpt lat="42.1529077" lon="12.8339701"><ele>491.0</ele><time>2026-05-02T13:58:30.742Z</time></trkpt><trkpt lat="42.1528103" lon="12.8339003"><ele>491.0</ele><time>2026-05-02T13:58:31.738Z</time></trkpt><trkpt lat="42.1526884" lon="12.8338489"><ele>491.0</ele><time>2026-05-02T13:58:32.759Z</time></trkpt><trkpt lat="42.1525634" lon="12.8337885"><ele>491.0</ele><time>2026-05-02T13:58:33.75Z</time></trkpt><trkpt lat="42.1524558" lon="12.8337187"><ele>491.0</ele><time>2026-05-02T13:58:34.763Z</time></trkpt><trkpt lat="42.1523497" lon="12.8336662"><ele>491.0</ele><time>2026-05-02T13:58:35.736Z</time></trkpt><trkpt lat="42.1522613" lon="12.8336237"><ele>491.0</ele><time>2026-05-02T13:58:36.748Z</time></trkpt><trkpt lat="42.1521799" lon="12.833589"><ele>491.0</ele><time>2026-05-02T13:58:37.742Z</time></trkpt><trkpt lat="42.1520981" lon="12.8335485"><ele>490.20000000000005</ele><time>2026-05-02T13:58:38.764Z</time></trkpt><trkpt lat="42.1520004" lon="12.8334907"><ele>489.40000000000003</ele><time>2026-05-02T13:58:39.748Z</time></trkpt><trkpt lat="42.1519065" lon="12.8334329"><ele>488.6</ele><time>2026-05-02T13:58:40.745Z</time></trkpt><trkpt lat="42.1518164" lon="12.8333885"><ele>487.8</ele><time>2026-05-02T13:58:41.74Z</time></trkpt><trkpt lat="42.151722" lon="12.8333382"><ele>487.0</ele><time>2026-05-02T13:58:42.749Z</time></trkpt><trkpt lat="42.1516333" lon="12.83329"><ele>487.00000000000006</ele><time>2026-05-02T13:58:43.742Z</time></trkpt><trkpt lat="42.1515433" lon="12.8332249"><ele>487.0</ele><time>2026-05-02T13:58:44.73Z</time></trkpt><trkpt lat="42.1514417" lon="12.8331731"><ele>487.0</ele><time>2026-05-02T13:58:45.747Z</time></trkpt><trkpt lat="42.1513548" lon="12.8331286"><ele>487.0</ele><time>2026-05-02T13:58:46.742Z</time></trkpt><trkpt lat="42.1512853" lon="12.8330908"><ele>487.00000000000006</ele><time>2026-05-02T13:58:47.739Z</time></trkpt><trkpt lat="42.1512206" lon="12.8330687"><ele>487.0</ele><time>2026-05-02T13:58:48.741Z</time></trkpt><trkpt lat="42.1511579" lon="12.8330324"><ele>487.83333333333337</ele><time>2026-05-02T13:58:49.742Z</time></trkpt><trkpt lat="42.1510879" lon="12.8329935"><ele>488.6666666666667</ele><time>2026-05-02T13:58:50.737Z</time></trkpt><trkpt lat="42.1510117" lon="12.8329555"><ele>489.5</ele><time>2026-05-02T13:58:51.743Z</time></trkpt><trkpt lat="42.1509447" lon="12.8329214"><ele>490.33333333333337</ele><time>2026-05-02T13:58:52.741Z</time></trkpt><trkpt lat="42.1508785" lon="12.8328821"><ele>491.1666666666667</ele><time>2026-05-02T13:58:53.738Z</time></trkpt><trkpt lat="42.150803" lon="12.8328412"><ele>492.0</ele><time>2026-05-02T13:58:54.745Z</time></trkpt><trkpt lat="42.1507115" lon="12.8327921"><ele>491.0</ele><time>2026-05-02T13:58:55.742Z</time></trkpt><trkpt lat="42.1506258" lon="12.8327679"><ele>490.00000000000006</ele><time>2026-05-02T13:58:56.74Z</time></trkpt><trkpt lat="42.1505384" lon="12.8327264"><ele>489.00000000000006</ele><time>2026-05-02T13:58:57.741Z</time></trkpt><trkpt lat="42.1504569" lon="12.8326884"><ele>488.0</ele><time>2026-05-02T13:58:58.733Z</time></trkpt><trkpt lat="42.1503755" lon="12.8326171"><ele>487.0</ele><time>2026-05-02T13:58:59.735Z</time></trkpt><trkpt lat="42.1503013" lon="12.8325151"><ele>487.0</ele><time>2026-05-02T13:59:00.754Z</time></trkpt><trkpt lat="42.1502351" lon="12.8324219"><ele>487.0</ele><time>2026-05-02T13:59:01.736Z</time></trkpt><trkpt lat="42.1501613" lon="12.8323014"><ele>487.0</ele><time>2026-05-02T13:59:02.752Z</time></trkpt><trkpt lat="42.1500503" lon="12.83219"><ele>487.0</ele><time>2026-05-02T13:59:03.74Z</time></trkpt><trkpt lat="42.149945" lon="12.8320718"><ele>486.25</ele><time>2026-05-02T13:59:04.735Z</time></trkpt><trkpt lat="42.1498328" lon="12.8319644"><ele>485.5</ele><time>2026-05-02T13:59:05.76Z</time></trkpt><trkpt lat="42.149728" lon="12.8318411"><ele>484.75</ele><time>2026-05-02T13:59:06.738Z</time></trkpt><trkpt lat="42.1496399" lon="12.8317152"><ele>484.0</ele><time>2026-05-02T13:59:07.728Z</time></trkpt><trkpt lat="42.1495604" lon="12.8315903"><ele>484.0</ele><time>2026-05-02T13:59:08.742Z</time></trkpt><trkpt lat="42.1494727" lon="12.8314578"><ele>484.0</ele><time>2026-05-02T13:59:09.733Z</time></trkpt><trkpt lat="42.1493839" lon="12.8313409"><ele>484.0</ele><time>2026-05-02T13:59:10.741Z</time></trkpt><trkpt lat="42.1492979" lon="12.8312335"><ele>484.0</ele><time>2026-05-02T13:59:11.735Z</time></trkpt><trkpt lat="42.1492204" lon="12.8311459"><ele>484.0</ele><time>2026-05-02T13:59:12.735Z</time></trkpt><trkpt lat="42.149146" lon="12.8310814"><ele>484.0</ele><time>2026-05-02T13:59:13.738Z</time></trkpt><trkpt lat="42.149012" lon="12.8310171"><ele>484.0</ele><time>2026-05-02T13:59:15.541Z</time></trkpt><trkpt lat="42.1489413" lon="12.8310137"><ele>484.0</ele><time>2026-05-02T13:59:16.535Z</time></trkpt><trkpt lat="42.1488016" lon="12.8309754"><ele>484.0</ele><time>2026-05-02T13:59:18.431Z</time></trkpt><trkpt lat="42.1487222" lon="12.8309596"><ele>482.79999999999995</ele><time>2026-05-02T13:59:19.432Z</time></trkpt><trkpt lat="42.1486568" lon="12.8309533"><ele>481.59999999999997</ele><time>2026-05-02T13:59:20.421Z</time></trkpt><trkpt lat="42.1485662" lon="12.8309002"><ele>480.4</ele><time>2026-05-02T13:59:22.426Z</time></trkpt><trkpt lat="42.1484933" lon="12.8307685"><ele>479.2</ele><time>2026-05-02T13:59:24.431Z</time></trkpt><trkpt lat="42.1484387" lon="12.8306331"><ele>478.0</ele><time>2026-05-02T13:59:26.426Z</time></trkpt><trkpt lat="42.1483389" lon="12.8305454"><ele>478.0</ele><time>2026-05-02T13:59:28.429Z</time></trkpt><trkpt lat="42.148283" lon="12.8305043"><ele>477.99999999999994</ele><time>2026-05-02T13:59:29.43Z</time></trkpt><trkpt lat="42.1482109" lon="12.8305134"><ele>477.99999999999994</ele><time>2026-05-02T13:59:30.433Z</time></trkpt><trkpt lat="42.148114" lon="12.8305313"><ele>478.0</ele><time>2026-05-02T13:59:31.426Z</time></trkpt><trkpt lat="42.1480083" lon="12.8305609"><ele>478.0</ele><time>2026-05-02T13:59:32.429Z</time></trkpt><trkpt lat="42.1478893" lon="12.8305817"><ele>480.2</ele><time>2026-05-02T13:59:33.426Z</time></trkpt><trkpt lat="42.1477813" lon="12.8305662"><ele>482.4</ele><time>2026-05-02T13:59:34.439Z</time></trkpt><trkpt lat="42.1476775" lon="12.8305574"><ele>484.59999999999997</ele><time>2026-05-02T13:59:35.427Z</time></trkpt><trkpt lat="42.1475641" lon="12.8305537"><ele>486.79999999999995</ele><time>2026-05-02T13:59:36.456Z</time></trkpt><trkpt lat="42.1474524" lon="12.8305351"><ele>489.0</ele><time>2026-05-02T13:59:37.435Z</time></trkpt><trkpt lat="42.1473389" lon="12.8304967"><ele>490.0</ele><time>2026-05-02T13:59:38.429Z</time></trkpt><trkpt lat="42.1472345" lon="12.8304459"><ele>491.0</ele><time>2026-05-02T13:59:39.44Z</time></trkpt><trkpt lat="42.1471356" lon="12.8303883"><ele>492.0</ele><time>2026-05-02T13:59:40.443Z</time></trkpt><trkpt lat="42.1470442" lon="12.8303292"><ele>493.0</ele><time>2026-05-02T13:59:41.433Z</time></trkpt><trkpt lat="42.1469623" lon="12.8302522"><ele>494.0</ele><time>2026-05-02T13:59:42.442Z</time></trkpt><trkpt lat="42.1469127" lon="12.8301572"><ele>491.4</ele><time>2026-05-02T13:59:43.439Z</time></trkpt><trkpt lat="42.1468854" lon="12.8300312"><ele>488.79999999999995</ele><time>2026-05-02T13:59:44.435Z</time></trkpt><trkpt lat="42.1468782" lon="12.8298687"><ele>486.20000000000005</ele><time>2026-05-02T13:59:45.431Z</time></trkpt><trkpt lat="42.1468781" lon="12.8297183"><ele>483.6</ele><time>2026-05-02T13:59:46.439Z</time></trkpt><trkpt lat="42.1468802" lon="12.8295793"><ele>481.0</ele><time>2026-05-02T13:59:47.438Z</time></trkpt><trkpt lat="42.1468834" lon="12.8294422"><ele>480.8</ele><time>2026-05-02T13:59:48.444Z</time></trkpt><trkpt lat="42.1468906" lon="12.8292972"><ele>480.6</ele><time>2026-05-02T13:59:49.44Z</time></trkpt><trkpt lat="42.1469005" lon="12.8291585"><ele>480.4</ele><time>2026-05-02T13:59:50.438Z</time></trkpt><trkpt lat="42.1469376" lon="12.8290345"><ele>480.2</ele><time>2026-05-02T13:59:51.435Z</time></trkpt><trkpt lat="42.1469805" lon="12.8289045"><ele>480.0</ele><time>2026-05-02T13:59:52.437Z</time></trkpt><trkpt lat="42.1470272" lon="12.8287737"><ele>480.0</ele><time>2026-05-02T13:59:53.434Z</time></trkpt><trkpt lat="42.1470675" lon="12.8286472"><ele>480.0</ele><time>2026-05-02T13:59:54.433Z</time></trkpt><trkpt lat="42.1471007" lon="12.8285271"><ele>480.0</ele><time>2026-05-02T13:59:55.419Z</time></trkpt><trkpt lat="42.1471251" lon="12.828393"><ele>480.0</ele><time>2026-05-02T13:59:56.428Z</time></trkpt><trkpt lat="42.1471548" lon="12.8282572"><ele>480.0</ele><time>2026-05-02T13:59:57.498Z</time></trkpt><trkpt lat="42.1472056" lon="12.8281243"><ele>480.0</ele><time>2026-05-02T13:59:58.584Z</time></trkpt><trkpt lat="42.1472612" lon="12.8280038"><ele>480.0</ele><time>2026-05-02T13:59:59.577Z</time></trkpt><trkpt lat="42.1473148" lon="12.8278877"><ele>480.0</ele><time>2026-05-02T14:00:00.584Z</time></trkpt><trkpt lat="42.1473642" lon="12.8277641"><ele>480.0</ele><time>2026-05-02T14:00:01.582Z</time></trkpt><trkpt lat="42.1474002" lon="12.8276454"><ele>480.0</ele><time>2026-05-02T14:00:02.58Z</time></trkpt><trkpt lat="42.147432" lon="12.8275113"><ele>472.25</ele><time>2026-05-02T14:00:03.579Z</time></trkpt><trkpt lat="42.1475174" lon="12.8272493"><ele>464.5</ele><time>2026-05-02T14:00:05.581Z</time></trkpt><trkpt lat="42.1475442" lon="12.8271583"><ele>456.75</ele><time>2026-05-02T14:00:06.588Z</time></trkpt><trkpt lat="42.1475383" lon="12.8270643"><ele>449.0</ele><time>2026-05-02T14:00:07.6Z</time></trkpt><trkpt lat="42.1474789" lon="12.8269258"><ele>449.0</ele><time>2026-05-02T14:00:09.587Z</time></trkpt><trkpt lat="42.147415" lon="12.8268618"><ele>449.0</ele><time>2026-05-02T14:00:10.588Z</time></trkpt><trkpt lat="42.1473302" lon="12.8267948"><ele>449.0</ele><time>2026-05-02T14:00:11.577Z</time></trkpt><trkpt lat="42.1472372" lon="12.8267228"><ele>449.0</ele><time>2026-05-02T14:00:12.577Z</time></trkpt><trkpt lat="42.1471372" lon="12.8266189"><ele>449.0</ele><time>2026-05-02T14:00:13.578Z</time></trkpt><trkpt lat="42.1470327" lon="12.8265298"><ele>448.3333333333333</ele><time>2026-05-02T14:00:14.575Z</time></trkpt><trkpt lat="42.1468331" lon="12.8263423"><ele>447.66666666666663</ele><time>2026-05-02T14:00:16.422Z</time></trkpt><trkpt lat="42.1467384" lon="12.8262256"><ele>447.0</ele><time>2026-05-02T14:00:17.422Z</time></trkpt><trkpt lat="42.1466471" lon="12.8261068"><ele>447.0</ele><time>2026-05-02T14:00:18.437Z</time></trkpt><trkpt lat="42.1465626" lon="12.8259822"><ele>447.00000000000006</ele><time>2026-05-02T14:00:19.42Z</time></trkpt><trkpt lat="42.1464766" lon="12.8258765"><ele>447.00000000000006</ele><time>2026-05-02T14:00:20.412Z</time></trkpt><trkpt lat="42.1463894" lon="12.8257911"><ele>447.0</ele><time>2026-05-02T14:00:21.419Z</time></trkpt><trkpt lat="42.146337" lon="12.8257396"><ele>447.0</ele><time>2026-05-02T14:00:23.416Z</time></trkpt><trkpt lat="42.1462637" lon="12.8256396"><ele>444.20000000000005</ele><time>2026-05-02T14:00:26.416Z</time></trkpt><trkpt lat="42.146144" lon="12.8255354"><ele>441.40000000000003</ele><time>2026-05-02T14:00:28.421Z</time></trkpt><trkpt lat="42.146067" lon="12.8254734"><ele>438.59999999999997</ele><time>2026-05-02T14:00:29.419Z</time></trkpt><trkpt lat="42.145981" lon="12.8254281"><ele>435.79999999999995</ele><time>2026-05-02T14:00:30.414Z</time></trkpt><trkpt lat="42.145911" lon="12.8253791"><ele>433.0</ele><time>2026-05-02T14:00:31.323Z</time></trkpt><trkpt lat="42.1458374" lon="12.8253068"><ele>433.00000000000006</ele><time>2026-05-02T14:00:32.321Z</time></trkpt><trkpt lat="42.1457785" lon="12.8252274"><ele>433.0</ele><time>2026-05-02T14:00:33.331Z</time></trkpt><trkpt lat="42.1457198" lon="12.8251485"><ele>433.0</ele><time>2026-05-02T14:00:34.323Z</time></trkpt><trkpt lat="42.1456768" lon="12.8250755"><ele>433.0</ele><time>2026-05-02T14:00:35.327Z</time></trkpt><trkpt lat="42.1456328" lon="12.8250012"><ele>433.00000000000006</ele><time>2026-05-02T14:00:36.328Z</time></trkpt><trkpt lat="42.1455684" lon="12.8249154"><ele>433.0</ele><time>2026-05-02T14:00:37.332Z</time></trkpt><trkpt lat="42.145491" lon="12.8248186"><ele>431.0</ele><time>2026-05-02T14:00:38.361Z</time></trkpt><trkpt lat="42.1454084" lon="12.8247405"><ele>428.99999999999994</ele><time>2026-05-02T14:00:39.32Z</time></trkpt><trkpt lat="42.1453318" lon="12.8246482"><ele>427.0</ele><time>2026-05-02T14:00:40.322Z</time></trkpt><trkpt lat="42.1452487" lon="12.8245768"><ele>425.0</ele><time>2026-05-02T14:00:41.324Z</time></trkpt><trkpt lat="42.1451751" lon="12.8245153"><ele>423.0</ele><time>2026-05-02T14:00:42.33Z</time></trkpt><trkpt lat="42.1451014" lon="12.8244626"><ele>423.0</ele><time>2026-05-02T14:00:43.318Z</time></trkpt><trkpt lat="42.1450047" lon="12.8243594"><ele>423.0</ele><time>2026-05-02T14:00:45.327Z</time></trkpt><trkpt lat="42.144958" lon="12.8242962"><ele>423.0</ele><time>2026-05-02T14:00:46.337Z</time></trkpt><trkpt lat="42.1449216" lon="12.8242267"><ele>423.0</ele><time>2026-05-02T14:00:47.33Z</time></trkpt><trkpt lat="42.1448997" lon="12.8241379"><ele>423.0</ele><time>2026-05-02T14:00:48.329Z</time></trkpt><trkpt lat="42.1448807" lon="12.8240453"><ele>423.0</ele><time>2026-05-02T14:00:49.333Z</time></trkpt><trkpt lat="42.1448922" lon="12.8239061"><ele>421.79999999999995</ele><time>2026-05-02T14:00:51.329Z</time></trkpt><trkpt lat="42.1449079" lon="12.8237953"><ele>420.6</ele><time>2026-05-02T14:00:55.33Z</time></trkpt><trkpt lat="42.1447876" lon="12.8237246"><ele>419.4</ele><time>2026-05-02T14:00:57.322Z</time></trkpt><trkpt lat="42.1447033" lon="12.8236803"><ele>418.20000000000005</ele><time>2026-05-02T14:00:58.333Z</time></trkpt><trkpt lat="42.1446111" lon="12.8236278"><ele>417.0</ele><time>2026-05-02T14:00:59.314Z</time></trkpt><trkpt lat="42.1445207" lon="12.8235565"><ele>416.40000000000003</ele><time>2026-05-02T14:01:00.321Z</time></trkpt><trkpt lat="42.1444336" lon="12.823514"><ele>415.8</ele><time>2026-05-02T14:01:01.319Z</time></trkpt><trkpt lat="42.144339" lon="12.8234427"><ele>415.2</ele><time>2026-05-02T14:01:02.326Z</time></trkpt><trkpt lat="42.1442468" lon="12.823373"><ele>414.6</ele><time>2026-05-02T14:01:03.324Z</time></trkpt><trkpt lat="42.1441559" lon="12.8233133"><ele>414.0</ele><time>2026-05-02T14:01:04.324Z</time></trkpt><trkpt lat="42.1440538" lon="12.8232785"><ele>409.5</ele><time>2026-05-02T14:01:05.327Z</time></trkpt><trkpt lat="42.1439537" lon="12.8232882"><ele>405.0</ele><time>2026-05-02T14:01:06.314Z</time></trkpt><trkpt lat="42.1438254" lon="12.8233378"><ele>400.5</ele><time>2026-05-02T14:01:07.312Z</time></trkpt><trkpt lat="42.1436841" lon="12.8234076"><ele>396.0</ele><time>2026-05-02T14:01:08.321Z</time></trkpt><trkpt lat="42.1435513" lon="12.8235257"><ele>396.0</ele><time>2026-05-02T14:01:09.332Z</time></trkpt><trkpt lat="42.1434172" lon="12.8237429"><ele>396.0</ele><time>2026-05-02T14:01:10.323Z</time></trkpt><trkpt lat="42.1432924" lon="12.8239114"><ele>396.0</ele><time>2026-05-02T14:01:11.314Z</time></trkpt><trkpt lat="42.1431848" lon="12.8240623"><ele>395.25</ele><time>2026-05-02T14:01:12.326Z</time></trkpt><trkpt lat="42.1430944" lon="12.8241729"><ele>394.5</ele><time>2026-05-02T14:01:13.325Z</time></trkpt><trkpt lat="42.1429941" lon="12.8242845"><ele>393.75</ele><time>2026-05-02T14:01:14.325Z</time></trkpt><trkpt lat="42.1428672" lon="12.8243684"><ele>393.0</ele><time>2026-05-02T14:01:15.325Z</time></trkpt><trkpt lat="42.1427502" lon="12.8244481"><ele>393.0</ele><time>2026-05-02T14:01:16.326Z</time></trkpt><trkpt lat="42.1426499" lon="12.824501"><ele>393.0</ele><time>2026-05-02T14:01:17.324Z</time></trkpt><trkpt lat="42.1425279" lon="12.8245488"><ele>393.0</ele><time>2026-05-02T14:01:18.406Z</time></trkpt><trkpt lat="42.1423596" lon="12.8245744"><ele>393.0</ele><time>2026-05-02T14:01:19.33Z</time></trkpt><trkpt lat="42.1421967" lon="12.8245796"><ele>391.66666666666663</ele><time>2026-05-02T14:01:20.316Z</time></trkpt><trkpt lat="42.1420157" lon="12.8245522"><ele>390.3333333333333</ele><time>2026-05-02T14:01:21.319Z</time></trkpt><trkpt lat="42.1418577" lon="12.8245311"><ele>389.0</ele><time>2026-05-02T14:01:22.322Z</time></trkpt><trkpt lat="42.1417105" lon="12.8245446"><ele>389.0</ele><time>2026-05-02T14:01:23.32Z</time></trkpt><trkpt lat="42.1416013" lon="12.8245881"><ele>389.0</ele><time>2026-05-02T14:01:24.35Z</time></trkpt><trkpt lat="42.1415181" lon="12.8246576"><ele>389.0</ele><time>2026-05-02T14:01:25.35Z</time></trkpt><trkpt lat="42.1414505" lon="12.8247961"><ele>389.0</ele><time>2026-05-02T14:01:26.336Z</time></trkpt><trkpt lat="42.1414014" lon="12.8249794"><ele>390.25</ele><time>2026-05-02T14:01:27.325Z</time></trkpt><trkpt lat="42.1413725" lon="12.8251595"><ele>391.5</ele><time>2026-05-02T14:01:28.324Z</time></trkpt><trkpt lat="42.141312" lon="12.8253687"><ele>392.75</ele><time>2026-05-02T14:01:29.317Z</time></trkpt><trkpt lat="42.1412565" lon="12.8255357"><ele>394.0</ele><time>2026-05-02T14:01:30.322Z</time></trkpt><trkpt lat="42.1412009" lon="12.825696"><ele>394.0</ele><time>2026-05-02T14:01:31.316Z</time></trkpt><trkpt lat="42.141142" lon="12.8258398"><ele>394.0</ele><time>2026-05-02T14:01:32.309Z</time></trkpt><trkpt lat="42.1410744" lon="12.8259533"><ele>394.0</ele><time>2026-05-02T14:01:33.318Z</time></trkpt><trkpt lat="42.1410041" lon="12.826024"><ele>394.0</ele><time>2026-05-02T14:01:34.311Z</time></trkpt><trkpt lat="42.140925" lon="12.8260854"><ele>394.0</ele><time>2026-05-02T14:01:35.313Z</time></trkpt><trkpt lat="42.1408413" lon="12.8260937"><ele>395.0</ele><time>2026-05-02T14:01:36.323Z</time></trkpt><trkpt lat="42.1407439" lon="12.8260419"><ele>396.0</ele><time>2026-05-02T14:01:37.314Z</time></trkpt><trkpt lat="42.1406565" lon="12.8259801"><ele>397.0</ele><time>2026-05-02T14:01:38.31Z</time></trkpt><trkpt lat="42.1405907" lon="12.8258685"><ele>398.0</ele><time>2026-05-02T14:01:39.319Z</time></trkpt><trkpt lat="42.1405531" lon="12.8257438"><ele>399.0</ele><time>2026-05-02T14:01:40.332Z</time></trkpt><trkpt lat="42.1405337" lon="12.8255699"><ele>404.33333333333337</ele><time>2026-05-02T14:01:41.305Z</time></trkpt><trkpt lat="42.1405246" lon="12.825362"><ele>409.6666666666667</ele><time>2026-05-02T14:01:42.302Z</time></trkpt><trkpt lat="42.1405166" lon="12.8251542"><ele>415.0</ele><time>2026-05-02T14:01:43.307Z</time></trkpt><trkpt lat="42.1405372" lon="12.8249485"><ele>416.33333333333337</ele><time>2026-05-02T14:01:44.306Z</time></trkpt><trkpt lat="42.1405666" lon="12.8247265"><ele>417.66666666666663</ele><time>2026-05-02T14:01:45.319Z</time></trkpt><trkpt lat="42.1406399" lon="12.8244345"><ele>419.0</ele><time>2026-05-02T14:01:46.309Z</time></trkpt><trkpt lat="42.1406965" lon="12.82419"><ele>415.0</ele><time>2026-05-02T14:01:47.315Z</time></trkpt><trkpt lat="42.1408023" lon="12.8240236"><ele>411.0</ele><time>2026-05-02T14:01:48.309Z</time></trkpt><trkpt lat="42.1409001" lon="12.823846"><ele>407.0</ele><time>2026-05-02T14:01:49.309Z</time></trkpt><trkpt lat="42.1409663" lon="12.8236624"><ele>411.66666666666663</ele><time>2026-05-02T14:01:50.313Z</time></trkpt><trkpt lat="42.1409608" lon="12.8234087"><ele>416.33333333333337</ele><time>2026-05-02T14:01:51.316Z</time></trkpt><trkpt lat="42.140962" lon="12.8231605"><ele>421.0</ele><time>2026-05-02T14:01:52.311Z</time></trkpt><trkpt lat="42.1409912" lon="12.8228601"><ele>423.0</ele><time>2026-05-02T14:01:53.315Z</time></trkpt><trkpt lat="42.1410112" lon="12.8226177"><ele>425.0</ele><time>2026-05-02T14:01:54.315Z</time></trkpt><trkpt lat="42.1410524" lon="12.8223871"><ele>427.0</ele><time>2026-05-02T14:01:55.306Z</time></trkpt><trkpt lat="42.1410959" lon="12.8221076"><ele>427.0</ele><time>2026-05-02T14:01:56.314Z</time></trkpt><trkpt lat="42.1411456" lon="12.8218503"><ele>427.0</ele><time>2026-05-02T14:01:57.315Z</time></trkpt><trkpt lat="42.141192" lon="12.8216312"><ele>427.0</ele><time>2026-05-02T14:01:58.312Z</time></trkpt><trkpt lat="42.141256" lon="12.8214423"><ele>426.5</ele><time>2026-05-02T14:01:59.316Z</time></trkpt><trkpt lat="42.1413071" lon="12.8212781"><ele>426.0</ele><time>2026-05-02T14:02:00.313Z</time></trkpt><trkpt lat="42.1413696" lon="12.8211358"><ele>425.5</ele><time>2026-05-02T14:02:01.317Z</time></trkpt><trkpt lat="42.1414432" lon="12.8210041"><ele>425.0</ele><time>2026-05-02T14:02:02.315Z</time></trkpt><trkpt lat="42.1415492" lon="12.8208625"><ele>425.0</ele><time>2026-05-02T14:02:03.306Z</time></trkpt><trkpt lat="42.1416497" lon="12.8207117"><ele>425.0</ele><time>2026-05-02T14:02:04.312Z</time></trkpt><trkpt lat="42.1417485" lon="12.820556"><ele>425.0</ele><time>2026-05-02T14:02:05.31Z</time></trkpt><trkpt lat="42.1418359" lon="12.8204444"><ele>425.0</ele><time>2026-05-02T14:02:06.31Z</time></trkpt><trkpt lat="42.1418502" lon="12.8203287"><ele>425.0</ele><time>2026-05-02T14:02:07.311Z</time></trkpt><trkpt lat="42.1418486" lon="12.8201964"><ele>425.0</ele><time>2026-05-02T14:02:08.327Z</time></trkpt><trkpt lat="42.1418087" lon="12.8200893"><ele>425.0</ele><time>2026-05-02T14:02:09.312Z</time></trkpt><trkpt lat="42.1417378" lon="12.8199885"><ele>425.0</ele><time>2026-05-02T14:02:10.325Z</time></trkpt><trkpt lat="42.141638" lon="12.8198695"><ele>425.0</ele><time>2026-05-02T14:02:11.332Z</time></trkpt><trkpt lat="42.1415063" lon="12.8197093"><ele>426.0</ele><time>2026-05-02T14:02:12.307Z</time></trkpt><trkpt lat="42.1413263" lon="12.8195342"><ele>427.0</ele><time>2026-05-02T14:02:13.302Z</time></trkpt><trkpt lat="42.141143" lon="12.819358"><ele>428.0</ele><time>2026-05-02T14:02:14.314Z</time></trkpt><trkpt lat="42.1409868" lon="12.8191752"><ele>428.0</ele><time>2026-05-02T14:02:15.309Z</time></trkpt><trkpt lat="42.1408875" lon="12.8190117"><ele>428.0</ele><time>2026-05-02T14:02:16.315Z</time></trkpt><trkpt lat="42.1408258" lon="12.8188384"><ele>428.0</ele><time>2026-05-02T14:02:17.313Z</time></trkpt><trkpt lat="42.1407909" lon="12.8186784"><ele>428.0</ele><time>2026-05-02T14:02:18.304Z</time></trkpt><trkpt lat="42.1407541" lon="12.8185598"><ele>427.99999999999994</ele><time>2026-05-02T14:02:19.314Z</time></trkpt><trkpt lat="42.1407255" lon="12.8184494"><ele>428.0</ele><time>2026-05-02T14:02:20.308Z</time></trkpt><trkpt lat="42.1407207" lon="12.8183616"><ele>428.0</ele><time>2026-05-02T14:02:21.312Z</time></trkpt><trkpt lat="42.1407072" lon="12.8182706"><ele>428.0</ele><time>2026-05-02T14:02:22.309Z</time></trkpt><trkpt lat="42.1407114" lon="12.8180965"><ele>427.99999999999994</ele><time>2026-05-02T14:02:24.305Z</time></trkpt><trkpt lat="42.1407381" lon="12.8179797"><ele>428.0</ele><time>2026-05-02T14:02:25.311Z</time></trkpt><trkpt lat="42.1408041" lon="12.8178522"><ele>428.0</ele><time>2026-05-02T14:02:26.315Z</time></trkpt><trkpt lat="42.1409078" lon="12.8177204"><ele>428.0</ele><time>2026-05-02T14:02:27.31Z</time></trkpt><trkpt lat="42.1410018" lon="12.8175937"><ele>428.0</ele><time>2026-05-02T14:02:28.317Z</time></trkpt><trkpt lat="42.1410725" lon="12.817451"><ele>428.0</ele><time>2026-05-02T14:02:29.317Z</time></trkpt><trkpt lat="42.1411092" lon="12.8173007"><ele>427.4</ele><time>2026-05-02T14:02:30.308Z</time></trkpt><trkpt lat="42.1411265" lon="12.8171501"><ele>426.79999999999995</ele><time>2026-05-02T14:02:31.324Z</time></trkpt><trkpt lat="42.1411066" lon="12.817006"><ele>426.2</ele><time>2026-05-02T14:02:32.315Z</time></trkpt><trkpt lat="42.1410592" lon="12.8168979"><ele>425.6</ele><time>2026-05-02T14:02:33.329Z</time></trkpt><trkpt lat="42.1409787" lon="12.8168224"><ele>425.0</ele><time>2026-05-02T14:02:34.316Z</time></trkpt><trkpt lat="42.1408615" lon="12.8167864"><ele>425.0</ele><time>2026-05-02T14:02:35.323Z</time></trkpt><trkpt lat="42.1407279" lon="12.8167801"><ele>425.0</ele><time>2026-05-02T14:02:36.308Z</time></trkpt><trkpt lat="42.1405816" lon="12.8167831"><ele>425.0</ele><time>2026-05-02T14:02:37.314Z</time></trkpt><trkpt lat="42.1404306" lon="12.8168137"><ele>425.0</ele><time>2026-05-02T14:02:38.311Z</time></trkpt><trkpt lat="42.1402698" lon="12.8168459"><ele>432.0</ele><time>2026-05-02T14:02:39.309Z</time></trkpt><trkpt lat="42.1400372" lon="12.8169003"><ele>439.0</ele><time>2026-05-02T14:02:40.31Z</time></trkpt><trkpt lat="42.139836" lon="12.8169477"><ele>446.0</ele><time>2026-05-02T14:02:41.304Z</time></trkpt><trkpt lat="42.1396665" lon="12.8169841"><ele>448.0</ele><time>2026-05-02T14:02:42.32Z</time></trkpt><trkpt lat="42.1395273" lon="12.817015"><ele>450.0</ele><time>2026-05-02T14:02:43.304Z</time></trkpt><trkpt lat="42.1394446" lon="12.8170597"><ele>452.0</ele><time>2026-05-02T14:02:44.293Z</time></trkpt><trkpt lat="42.1393397" lon="12.8170286"><ele>454.0</ele><time>2026-05-02T14:02:45.297Z</time></trkpt><trkpt lat="42.1392468" lon="12.8169404"><ele>454.0</ele><time>2026-05-02T14:02:46.308Z</time></trkpt><trkpt lat="42.139186" lon="12.8168414"><ele>454.0</ele><time>2026-05-02T14:02:47.304Z</time></trkpt><trkpt lat="42.1391765" lon="12.8167091"><ele>454.0</ele><time>2026-05-02T14:02:48.3Z</time></trkpt><trkpt lat="42.1392164" lon="12.8165433"><ele>454.0</ele><time>2026-05-02T14:02:49.303Z</time></trkpt><trkpt lat="42.1393058" lon="12.8163817"><ele>453.0</ele><time>2026-05-02T14:02:50.296Z</time></trkpt><trkpt lat="42.1394158" lon="12.8162274"><ele>452.0</ele><time>2026-05-02T14:02:51.294Z</time></trkpt><trkpt lat="42.1395686" lon="12.8160745"><ele>451.0</ele><time>2026-05-02T14:02:52.302Z</time></trkpt><trkpt lat="42.1396785" lon="12.8159034"><ele>448.75</ele><time>2026-05-02T14:02:53.32Z</time></trkpt><trkpt lat="42.1397586" lon="12.8157268"><ele>446.5</ele><time>2026-05-02T14:02:54.295Z</time></trkpt><trkpt lat="42.1398343" lon="12.815547"><ele>444.25</ele><time>2026-05-02T14:02:55.298Z</time></trkpt><trkpt lat="42.1398665" lon="12.8154056"><ele>442.0</ele><time>2026-05-02T14:02:56.294Z</time></trkpt><trkpt lat="42.1398968" lon="12.8152782"><ele>445.40000000000003</ele><time>2026-05-02T14:02:57.3Z</time></trkpt><trkpt lat="42.1399089" lon="12.8151408"><ele>448.80000000000007</ele><time>2026-05-02T14:02:58.293Z</time></trkpt><trkpt lat="42.1398961" lon="12.8150051"><ele>452.2</ele><time>2026-05-02T14:02:59.294Z</time></trkpt><trkpt lat="42.1398892" lon="12.8148724"><ele>455.6</ele><time>2026-05-02T14:03:01.3Z</time></trkpt><trkpt lat="42.1398901" lon="12.8147365"><ele>459.0</ele><time>2026-05-02T14:03:03.306Z</time></trkpt><trkpt lat="42.1398886" lon="12.814637"><ele>468.5</ele><time>2026-05-02T14:03:04.3Z</time></trkpt><trkpt lat="42.1398831" lon="12.8144977"><ele>478.0</ele><time>2026-05-02T14:03:05.305Z</time></trkpt><trkpt lat="42.139862" lon="12.8143577"><ele>487.5</ele><time>2026-05-02T14:03:06.3Z</time></trkpt><trkpt lat="42.1398085" lon="12.8141942"><ele>497.0</ele><time>2026-05-02T14:03:07.301Z</time></trkpt><trkpt lat="42.1397398" lon="12.8140467"><ele>497.8333333333333</ele><time>2026-05-02T14:03:08.296Z</time></trkpt><trkpt lat="42.1396856" lon="12.8139459"><ele>498.66666666666663</ele><time>2026-05-02T14:03:09.294Z</time></trkpt><trkpt lat="42.1396369" lon="12.8138619"><ele>499.5</ele><time>2026-05-02T14:03:10.297Z</time></trkpt><trkpt lat="42.1395968" lon="12.8137933"><ele>500.33333333333337</ele><time>2026-05-02T14:03:11.302Z</time></trkpt><trkpt lat="42.139538" lon="12.8136973"><ele>501.1666666666667</ele><time>2026-05-02T14:03:12.299Z</time></trkpt><trkpt lat="42.1394821" lon="12.8135892"><ele>502.0</ele><time>2026-05-02T14:03:13.321Z</time></trkpt><trkpt lat="42.1394276" lon="12.8134924"><ele>504.6666666666667</ele><time>2026-05-02T14:03:14.307Z</time></trkpt><trkpt lat="42.1393563" lon="12.813413"><ele>507.33333333333337</ele><time>2026-05-02T14:03:15.308Z</time></trkpt><trkpt lat="42.139283" lon="12.813352"><ele>510.0</ele><time>2026-05-02T14:03:16.393Z</time></trkpt><trkpt lat="42.1392178" lon="12.8133041"><ele>512.6666666666666</ele><time>2026-05-02T14:03:17.305Z</time></trkpt><trkpt lat="42.1391652" lon="12.8132548"><ele>515.3333333333333</ele><time>2026-05-02T14:03:18.296Z</time></trkpt><trkpt lat="42.1390881" lon="12.8131892"><ele>518.0</ele><time>2026-05-02T14:03:19.306Z</time></trkpt><trkpt lat="42.139004" lon="12.8131262"><ele>518.0</ele><time>2026-05-02T14:03:20.301Z</time></trkpt><trkpt lat="42.1389109" lon="12.8130572"><ele>518.0</ele><time>2026-05-02T14:03:21.305Z</time></trkpt><trkpt lat="42.1388013" lon="12.8129839"><ele>518.0</ele><time>2026-05-02T14:03:22.301Z</time></trkpt><trkpt lat="42.1386948" lon="12.8129155"><ele>518.0</ele><time>2026-05-02T14:03:23.307Z</time></trkpt><trkpt lat="42.1385769" lon="12.8128556"><ele>518.0</ele><time>2026-05-02T14:03:24.309Z</time></trkpt><trkpt lat="42.1384638" lon="12.8127943"><ele>518.0</ele><time>2026-05-02T14:03:25.304Z</time></trkpt><trkpt lat="42.1383366" lon="12.8127485"><ele>518.0</ele><time>2026-05-02T14:03:26.305Z</time></trkpt><trkpt lat="42.1382069" lon="12.8127042"><ele>518.0</ele><time>2026-05-02T14:03:27.301Z</time></trkpt><trkpt lat="42.1380809" lon="12.8126712"><ele>519.0</ele><time>2026-05-02T14:03:28.301Z</time></trkpt><trkpt lat="42.13795" lon="12.8126444"><ele>520.0</ele><time>2026-05-02T14:03:29.295Z</time></trkpt><trkpt lat="42.1378205" lon="12.8126314"><ele>521.0</ele><time>2026-05-02T14:03:30.301Z</time></trkpt><trkpt lat="42.1377207" lon="12.8126278"><ele>522.0</ele><time>2026-05-02T14:03:31.295Z</time></trkpt><trkpt lat="42.1376246" lon="12.8126031"><ele>522.0</ele><time>2026-05-02T14:03:32.302Z</time></trkpt><trkpt lat="42.1375432" lon="12.8125563"><ele>522.0</ele><time>2026-05-02T14:03:33.312Z</time></trkpt><trkpt lat="42.1374764" lon="12.812466"><ele>522.0</ele><time>2026-05-02T14:03:34.318Z</time></trkpt><trkpt lat="42.1374158" lon="12.812344"><ele>522.0</ele><time>2026-05-02T14:03:35.317Z</time></trkpt><trkpt lat="42.1373545" lon="12.812172"><ele>522.0</ele><time>2026-05-02T14:03:36.312Z</time></trkpt><trkpt lat="42.1372945" lon="12.8120033"><ele>529.0</ele><time>2026-05-02T14:03:37.309Z</time></trkpt><trkpt lat="42.1372249" lon="12.8118191"><ele>536.0</ele><time>2026-05-02T14:03:38.311Z</time></trkpt><trkpt lat="42.1371732" lon="12.8115734"><ele>543.0</ele><time>2026-05-02T14:03:39.302Z</time></trkpt><trkpt lat="42.137108" lon="12.8114154"><ele>543.0</ele><time>2026-05-02T14:03:40.336Z</time></trkpt><trkpt lat="42.1370783" lon="12.8112593"><ele>543.0</ele><time>2026-05-02T14:03:41.308Z</time></trkpt><trkpt lat="42.1370527" lon="12.8111218"><ele>543.0</ele><time>2026-05-02T14:03:42.31Z</time></trkpt><trkpt lat="42.1370504" lon="12.8109648"><ele>543.0</ele><time>2026-05-02T14:03:43.314Z</time></trkpt><trkpt lat="42.1371143" lon="12.8107995"><ele>545.25</ele><time>2026-05-02T14:03:44.355Z</time></trkpt><trkpt lat="42.1371794" lon="12.8106196"><ele>547.5</ele><time>2026-05-02T14:03:45.302Z</time></trkpt><trkpt lat="42.1372381" lon="12.8104236"><ele>549.75</ele><time>2026-05-02T14:03:46.309Z</time></trkpt><trkpt lat="42.1372661" lon="12.8102501"><ele>552.0</ele><time>2026-05-02T14:03:47.294Z</time></trkpt><trkpt lat="42.1372834" lon="12.8101375"><ele>555.0</ele><time>2026-05-02T14:03:48.303Z</time></trkpt><trkpt lat="42.1373085" lon="12.8100355"><ele>558.0</ele><time>2026-05-02T14:03:49.304Z</time></trkpt><trkpt lat="42.1374029" lon="12.8098914"><ele>561.0</ele><time>2026-05-02T14:03:51.377Z</time></trkpt><trkpt lat="42.1375158" lon="12.8098082"><ele>564.0</ele><time>2026-05-02T14:03:52.547Z</time></trkpt><trkpt lat="42.1377447" lon="12.8096943"><ele>564.4</ele><time>2026-05-02T14:03:54.322Z</time></trkpt><trkpt lat="42.137835" lon="12.8096581"><ele>564.8</ele><time>2026-05-02T14:03:55.46Z</time></trkpt><trkpt lat="42.1379359" lon="12.8095947"><ele>565.2</ele><time>2026-05-02T14:03:56.465Z</time></trkpt><trkpt lat="42.1380207" lon="12.8094889"><ele>565.6</ele><time>2026-05-02T14:03:57.623Z</time></trkpt><trkpt lat="42.1381068" lon="12.8093764"><ele>566.0</ele><time>2026-05-02T14:03:58.626Z</time></trkpt><trkpt lat="42.1382041" lon="12.8092376"><ele>558.0</ele><time>2026-05-02T14:03:59.634Z</time></trkpt><trkpt lat="42.1383018" lon="12.8090884"><ele>550.0</ele><time>2026-05-02T14:04:00.634Z</time></trkpt><trkpt lat="42.1384303" lon="12.8089368"><ele>542.0</ele><time>2026-05-02T14:04:01.632Z</time></trkpt><trkpt lat="42.138505" lon="12.8086791"><ele>542.0</ele><time>2026-05-02T14:04:04.269Z</time></trkpt><trkpt lat="42.1384364" lon="12.8086474"><ele>542.0</ele><time>2026-05-02T14:04:05.423Z</time></trkpt><trkpt lat="42.1384403" lon="12.8085603"><ele>542.0</ele><time>2026-05-02T14:04:06.437Z</time></trkpt><trkpt lat="42.1384623" lon="12.8084409"><ele>542.0</ele><time>2026-05-02T14:04:07.425Z</time></trkpt><trkpt lat="42.1385333" lon="12.808355"><ele>542.0</ele><time>2026-05-02T14:04:08.425Z</time></trkpt><trkpt lat="42.1386173" lon="12.8082507"><ele>542.0</ele><time>2026-05-02T14:04:09.422Z</time></trkpt><trkpt lat="42.1387002" lon="12.8081209"><ele>547.75</ele><time>2026-05-02T14:04:10.43Z</time></trkpt><trkpt lat="42.138743" lon="12.8079996"><ele>553.5</ele><time>2026-05-02T14:04:11.423Z</time></trkpt><trkpt lat="42.1387835" lon="12.8078985"><ele>559.25</ele><time>2026-05-02T14:04:12.427Z</time></trkpt><trkpt lat="42.1388969" lon="12.8077528"><ele>565.0</ele><time>2026-05-02T14:04:14.422Z</time></trkpt><trkpt lat="42.1390136" lon="12.8075947"><ele>564.3333333333334</ele><time>2026-05-02T14:04:17.109Z</time></trkpt><trkpt lat="42.13906" lon="12.8075215"><ele>563.6666666666667</ele><time>2026-05-02T14:04:19.269Z</time></trkpt><trkpt lat="42.1389961" lon="12.8074463"><ele>563.0</ele><time>2026-05-02T14:04:22.102Z</time></trkpt><trkpt lat="42.1390348" lon="12.8073689"><ele>562.3333333333334</ele><time>2026-05-02T14:04:29.248Z</time></trkpt><trkpt lat="42.1389786" lon="12.8073292"><ele>561.6666666666666</ele><time>2026-05-02T14:04:47.117Z</time></trkpt><trkpt lat="42.1388884" lon="12.8073691"><ele>561.0</ele><time>2026-05-02T14:04:56.102Z</time></trkpt><trkpt lat="42.1388016" lon="12.8073914"><ele>563.2</ele><time>2026-05-02T14:04:58.108Z</time></trkpt><trkpt lat="42.1386804" lon="12.8074085"><ele>565.4000000000001</ele><time>2026-05-02T14:05:00.095Z</time></trkpt><trkpt lat="42.138702" lon="12.8075204"><ele>567.6</ele><time>2026-05-02T14:05:02.105Z</time></trkpt><trkpt lat="42.1386968" lon="12.8076292"><ele>569.8000000000001</ele><time>2026-05-02T14:05:05.095Z</time></trkpt><trkpt lat="42.138628" lon="12.8076315"><ele>572.0</ele><time>2026-05-02T14:05:09.102Z</time></trkpt><trkpt lat="42.1387039" lon="12.8075274"><ele>572.0</ele><time>2026-05-02T14:05:29.099Z</time></trkpt><trkpt lat="42.1387588" lon="12.8074284"><ele>572.0</ele><time>2026-05-02T14:05:31.094Z</time></trkpt><trkpt lat="42.1388057" lon="12.8073346"><ele>572.0</ele><time>2026-05-02T14:05:33.093Z</time></trkpt><trkpt lat="42.1388466" lon="12.8072157"><ele>572.0</ele><time>2026-05-02T14:05:36.097Z</time></trkpt><trkpt lat="42.1389244" lon="12.8070855"><ele>572.0</ele><time>2026-05-02T14:05:38.088Z</time></trkpt><trkpt lat="42.1389748" lon="12.807025"><ele>572.0</ele><time>2026-05-02T14:05:39.082Z</time></trkpt><trkpt lat="42.1390218" lon="12.8068059"><ele>572.0</ele><time>2026-05-02T14:05:42.094Z</time></trkpt><trkpt lat="42.1390046" lon="12.8066734"><ele>572.0</ele><time>2026-05-02T14:05:44.258Z</time></trkpt><trkpt lat="42.138996" lon="12.8064678"><ele>572.0</ele><time>2026-05-02T14:05:47.124Z</time></trkpt><trkpt lat="42.1390728" lon="12.8063308"><ele>572.0</ele><time>2026-05-02T14:05:49.263Z</time></trkpt><trkpt lat="42.1391426" lon="12.806243"><ele>572.0</ele><time>2026-05-02T14:05:50.264Z</time></trkpt><trkpt lat="42.1393102" lon="12.8060671"><ele>572.0</ele><time>2026-05-02T14:05:52.107Z</time></trkpt><trkpt lat="42.1393912" lon="12.8059476"><ele>572.0</ele><time>2026-05-02T14:05:53.103Z</time></trkpt><trkpt lat="42.1394809" lon="12.8058343"><ele>572.4</ele><time>2026-05-02T14:05:54.103Z</time></trkpt><trkpt lat="42.139565" lon="12.8057138"><ele>572.8000000000001</ele><time>2026-05-02T14:05:55.101Z</time></trkpt><trkpt lat="42.1396467" lon="12.8056181"><ele>573.2</ele><time>2026-05-02T14:05:56.102Z</time></trkpt><trkpt lat="42.1397188" lon="12.8055178"><ele>573.6</ele><time>2026-05-02T14:05:57.259Z</time></trkpt><trkpt lat="42.139804" lon="12.8054302"><ele>574.0</ele><time>2026-05-02T14:05:58.258Z</time></trkpt><trkpt lat="42.1398958" lon="12.8053512"><ele>574.0</ele><time>2026-05-02T14:05:59.414Z</time></trkpt><trkpt lat="42.1400711" lon="12.8052183"><ele>574.0</ele><time>2026-05-02T14:06:01.258Z</time></trkpt><trkpt lat="42.1401462" lon="12.8051553"><ele>574.0</ele><time>2026-05-02T14:06:02.26Z</time></trkpt><trkpt lat="42.1402237" lon="12.8050837"><ele>574.0</ele><time>2026-05-02T14:06:03.416Z</time></trkpt><trkpt lat="42.1402987" lon="12.8050171"><ele>570.4</ele><time>2026-05-02T14:06:04.417Z</time></trkpt><trkpt lat="42.140435" lon="12.8049032"><ele>566.8</ele><time>2026-05-02T14:06:06.259Z</time></trkpt><trkpt lat="42.1405073" lon="12.8048403"><ele>563.2</ele><time>2026-05-02T14:06:07.256Z</time></trkpt><trkpt lat="42.1405866" lon="12.804773"><ele>559.6</ele><time>2026-05-02T14:06:08.253Z</time></trkpt><trkpt lat="42.1406762" lon="12.8046898"><ele>556.0</ele><time>2026-05-02T14:06:09.255Z</time></trkpt><trkpt lat="42.1407632" lon="12.8046075"><ele>556.0</ele><time>2026-05-02T14:06:10.418Z</time></trkpt><trkpt lat="42.1409356" lon="12.8044565"><ele>556.0</ele><time>2026-05-02T14:06:12.341Z</time></trkpt><trkpt lat="42.141015" lon="12.8044279"><ele>556.0</ele><time>2026-05-02T14:06:13.287Z</time></trkpt><trkpt lat="42.1411793" lon="12.8043123"><ele>553.0</ele><time>2026-05-02T14:06:15.103Z</time></trkpt><trkpt lat="42.1412548" lon="12.804265"><ele>550.0</ele><time>2026-05-02T14:06:16.104Z</time></trkpt><trkpt lat="42.1413285" lon="12.8042296"><ele>547.0</ele><time>2026-05-02T14:06:17.098Z</time></trkpt><trkpt lat="42.1414173" lon="12.8042145"><ele>544.0</ele><time>2026-05-02T14:06:18.105Z</time></trkpt><trkpt lat="42.1415121" lon="12.8041982"><ele>541.0</ele><time>2026-05-02T14:06:19.139Z</time></trkpt><trkpt lat="42.1416091" lon="12.8041775"><ele>538.0</ele><time>2026-05-02T14:06:20.131Z</time></trkpt><trkpt lat="42.1416987" lon="12.8041438"><ele>537.0</ele><time>2026-05-02T14:06:21.096Z</time></trkpt><trkpt lat="42.1417785" lon="12.804091"><ele>536.0</ele><time>2026-05-02T14:06:22.114Z</time></trkpt><trkpt lat="42.1418522" lon="12.8040419"><ele>535.0</ele><time>2026-05-02T14:06:23.108Z</time></trkpt><trkpt lat="42.1419284" lon="12.8039862"><ele>534.0</ele><time>2026-05-02T14:06:24.121Z</time></trkpt><trkpt lat="42.1420047" lon="12.8039029"><ele>533.0</ele><time>2026-05-02T14:06:25.107Z</time></trkpt><trkpt lat="42.1420705" lon="12.803813"><ele>533.0</ele><time>2026-05-02T14:06:26.118Z</time></trkpt><trkpt lat="42.1421379" lon="12.8037335"><ele>533.0</ele><time>2026-05-02T14:06:27.117Z</time></trkpt><trkpt lat="42.142205" lon="12.8036515"><ele>533.0</ele><time>2026-05-02T14:06:28.116Z</time></trkpt><trkpt lat="42.1422657" lon="12.8035723"><ele>533.0</ele><time>2026-05-02T14:06:29.131Z</time></trkpt><trkpt lat="42.1423333" lon="12.8034736"><ele>533.0</ele><time>2026-05-02T14:06:31.108Z</time></trkpt><trkpt lat="42.1422677" lon="12.8034904"><ele>533.0</ele><time>2026-05-02T14:06:48.1Z</time></trkpt><trkpt lat="42.1422137" lon="12.8035363"><ele>533.0</ele><time>2026-05-02T14:08:33.004Z</time></trkpt><trkpt lat="42.1421649" lon="12.8035945"><ele>533.0</ele><time>2026-05-02T14:10:11.022Z</time></trkpt><trkpt lat="42.142186" lon="12.8035121"><ele>533.0</ele><time>2026-05-02T14:11:26.005Z</time></trkpt><trkpt lat="42.1422147" lon="12.8034143"><ele>533.0</ele><time>2026-05-02T14:12:24.008Z</time></trkpt><trkpt lat="42.1422215" lon="12.8035032"><ele>533.0</ele><time>2026-05-02T14:12:32.988Z</time></trkpt><trkpt lat="42.1421462" lon="12.803602"><ele>533.0</ele><time>2026-05-02T14:13:01.009Z</time></trkpt><trkpt lat="42.1420423" lon="12.8037226"><ele>533.0</ele><time>2026-05-02T14:13:02.995Z</time></trkpt><trkpt lat="42.1419773" lon="12.8037997"><ele>533.0</ele><time>2026-05-02T14:13:03.996Z</time></trkpt><trkpt lat="42.1419186" lon="12.80388"><ele>533.0</ele><time>2026-05-02T14:13:04.99Z</time></trkpt><trkpt lat="42.1418438" lon="12.8039576"><ele>533.0</ele><time>2026-05-02T14:13:05.996Z</time></trkpt><trkpt lat="42.1417761" lon="12.8040141"><ele>533.0</ele><time>2026-05-02T14:13:06.995Z</time></trkpt><trkpt lat="42.141675" lon="12.8040263"><ele>533.0</ele><time>2026-05-02T14:13:08.989Z</time></trkpt><trkpt lat="42.1416622" lon="12.8038928"><ele>533.0</ele><time>2026-05-02T14:13:10.984Z</time></trkpt><trkpt lat="42.141691" lon="12.8038166"><ele>533.0</ele><time>2026-05-02T14:13:11.985Z</time></trkpt><trkpt lat="42.1417241" lon="12.8037246"><ele>533.0</ele><time>2026-05-02T14:13:12.99Z</time></trkpt><trkpt lat="42.141757" lon="12.8036242"><ele>533.0</ele><time>2026-05-02T14:13:13.985Z</time></trkpt><trkpt lat="42.1417909" lon="12.803524"><ele>533.0</ele><time>2026-05-02T14:13:14.982Z</time></trkpt><trkpt lat="42.1418363" lon="12.8034168"><ele>533.0</ele><time>2026-05-02T14:13:16.058Z</time></trkpt><trkpt lat="42.1418936" lon="12.8033067"><ele>530.5</ele><time>2026-05-02T14:13:16.978Z</time></trkpt><trkpt lat="42.141949" lon="12.8031877"><ele>528.0</ele><time>2026-05-02T14:13:17.98Z</time></trkpt><trkpt lat="42.1420097" lon="12.8030814"><ele>525.5</ele><time>2026-05-02T14:13:19.145Z</time></trkpt><trkpt lat="42.1421105" lon="12.8028301"><ele>523.0</ele><time>2026-05-02T14:13:20.985Z</time></trkpt><trkpt lat="42.1421589" lon="12.8026566"><ele>519.6666666666667</ele><time>2026-05-02T14:13:21.985Z</time></trkpt><trkpt lat="42.1422044" lon="12.8024842"><ele>516.3333333333334</ele><time>2026-05-02T14:13:23.144Z</time></trkpt><trkpt lat="42.1422303" lon="12.8021153"><ele>513.0</ele><time>2026-05-02T14:13:24.984Z</time></trkpt><trkpt lat="42.142222" lon="12.8019165"><ele>511.33333333333337</ele><time>2026-05-02T14:13:25.989Z</time></trkpt><trkpt lat="42.1421963" lon="12.8017251"><ele>509.6666666666667</ele><time>2026-05-02T14:13:27.143Z</time></trkpt><trkpt lat="42.1421097" lon="12.8015232"><ele>508.0</ele><time>2026-05-02T14:13:27.982Z</time></trkpt><trkpt lat="42.1420341" lon="12.801334"><ele>508.0</ele><time>2026-05-02T14:13:29.142Z</time></trkpt><trkpt lat="42.1419475" lon="12.8011271"><ele>508.0</ele><time>2026-05-02T14:13:30.139Z</time></trkpt><trkpt lat="42.14184" lon="12.8006633"><ele>506.75</ele><time>2026-05-02T14:13:31.979Z</time></trkpt><trkpt lat="42.1417949" lon="12.8004662"><ele>505.5</ele><time>2026-05-02T14:13:32.978Z</time></trkpt><trkpt lat="42.1417692" lon="12.8002666"><ele>504.25</ele><time>2026-05-02T14:13:33.975Z</time></trkpt><trkpt lat="42.1417394" lon="12.8000849"><ele>503.0</ele><time>2026-05-02T14:13:34.978Z</time></trkpt><trkpt lat="42.1417106" lon="12.7998551"><ele>503.0</ele><time>2026-05-02T14:13:35.972Z</time></trkpt><trkpt lat="42.1416814" lon="12.7996132"><ele>503.0</ele><time>2026-05-02T14:13:36.98Z</time></trkpt><trkpt lat="42.1416538" lon="12.7993947"><ele>503.0</ele><time>2026-05-02T14:13:38.295Z</time></trkpt><trkpt lat="42.1416262" lon="12.7991689"><ele>503.5</ele><time>2026-05-02T14:13:39.299Z</time></trkpt><trkpt lat="42.1415634" lon="12.798575"><ele>504.0</ele><time>2026-05-02T14:13:41.298Z</time></trkpt><trkpt lat="42.1415409" lon="12.7983613"><ele>497.5</ele><time>2026-05-02T14:13:42.297Z</time></trkpt><trkpt lat="42.1415224" lon="12.7981619"><ele>491.0</ele><time>2026-05-02T14:13:43.296Z</time></trkpt><trkpt lat="42.141504" lon="12.7979969"><ele>484.5</ele><time>2026-05-02T14:13:44.299Z</time></trkpt><trkpt lat="42.1414814" lon="12.797807"><ele>478.0</ele><time>2026-05-02T14:13:45.093Z</time></trkpt><trkpt lat="42.1414574" lon="12.7976511"><ele>478.0</ele><time>2026-05-02T14:13:46.284Z</time></trkpt><trkpt lat="42.1414612" lon="12.7975024"><ele>478.0</ele><time>2026-05-02T14:13:47.306Z</time></trkpt><trkpt lat="42.1413795" lon="12.7970542"><ele>478.0</ele><time>2026-05-02T14:13:49.015Z</time></trkpt><trkpt lat="42.1414051" lon="12.7968985"><ele>478.0</ele><time>2026-05-02T14:13:49.985Z</time></trkpt><trkpt lat="42.1414703" lon="12.7966797"><ele>478.0</ele><time>2026-05-02T14:13:50.988Z</time></trkpt><trkpt lat="42.1415397" lon="12.7965393"><ele>478.0</ele><time>2026-05-02T14:13:51.998Z</time></trkpt><trkpt lat="42.1415726" lon="12.7963951"><ele>480.5</ele><time>2026-05-02T14:13:52.993Z</time></trkpt><trkpt lat="42.1415784" lon="12.7962282"><ele>483.0</ele><time>2026-05-02T14:13:53.999Z</time></trkpt><trkpt lat="42.1415494" lon="12.7960298"><ele>485.5</ele><time>2026-05-02T14:13:55Z</time></trkpt><trkpt lat="42.1414665" lon="12.7958333"><ele>488.0</ele><time>2026-05-02T14:13:55.999Z</time></trkpt><trkpt lat="42.1413593" lon="12.7956813"><ele>488.0</ele><time>2026-05-02T14:13:57.025Z</time></trkpt><trkpt lat="42.1412332" lon="12.7955201"><ele>488.0</ele><time>2026-05-02T14:13:57.996Z</time></trkpt><trkpt lat="42.1410952" lon="12.7953889"><ele>488.0</ele><time>2026-05-02T14:13:58.996Z</time></trkpt><trkpt lat="42.1409827" lon="12.7953016"><ele>488.0</ele><time>2026-05-02T14:14:00.001Z</time></trkpt><trkpt lat="42.1408196" lon="12.7952241"><ele>488.0</ele><time>2026-05-02T14:14:00.987Z</time></trkpt><trkpt lat="42.1406835" lon="12.795145"><ele>488.0</ele><time>2026-05-02T14:14:02.002Z</time></trkpt><trkpt lat="42.1405447" lon="12.7950533"><ele>486.0</ele><time>2026-05-02T14:14:03.006Z</time></trkpt><trkpt lat="42.1404011" lon="12.7949815"><ele>484.0</ele><time>2026-05-02T14:14:04.013Z</time></trkpt><trkpt lat="42.1402904" lon="12.7948604"><ele>482.0</ele><time>2026-05-02T14:14:05.012Z</time></trkpt><trkpt lat="42.1401618" lon="12.7947567"><ele>480.0</ele><time>2026-05-02T14:14:05.993Z</time></trkpt><trkpt lat="42.1400707" lon="12.7946177"><ele>480.0</ele><time>2026-05-02T14:14:06.997Z</time></trkpt><trkpt lat="42.1399907" lon="12.794479"><ele>480.0</ele><time>2026-05-02T14:14:07.99Z</time></trkpt><trkpt lat="42.1399044" lon="12.7943135"><ele>480.0</ele><time>2026-05-02T14:14:09.023Z</time></trkpt><trkpt lat="42.1398414" lon="12.7941805"><ele>480.0</ele><time>2026-05-02T14:14:09.992Z</time></trkpt><trkpt lat="42.1397869" lon="12.7940606"><ele>474.75</ele><time>2026-05-02T14:14:11.007Z</time></trkpt><trkpt lat="42.1397207" lon="12.7939199"><ele>469.5</ele><time>2026-05-02T14:14:11.989Z</time></trkpt><trkpt lat="42.1396567" lon="12.7937716"><ele>464.25</ele><time>2026-05-02T14:14:12.99Z</time></trkpt><trkpt lat="42.1395839" lon="12.7936729"><ele>459.0</ele><time>2026-05-02T14:14:13.988Z</time></trkpt><trkpt lat="42.1395437" lon="12.7935408"><ele>460.25</ele><time>2026-05-02T14:14:14.991Z</time></trkpt><trkpt lat="42.1395095" lon="12.7933864"><ele>461.5</ele><time>2026-05-02T14:14:15.996Z</time></trkpt><trkpt lat="42.1394888" lon="12.7932423"><ele>462.75</ele><time>2026-05-02T14:14:16.992Z</time></trkpt><trkpt lat="42.1394766" lon="12.7930699"><ele>464.0</ele><time>2026-05-02T14:14:17.985Z</time></trkpt><trkpt lat="42.1394595" lon="12.7928737"><ele>463.66666666666663</ele><time>2026-05-02T14:14:18.994Z</time></trkpt><trkpt lat="42.1394368" lon="12.7926573"><ele>463.33333333333337</ele><time>2026-05-02T14:14:19.998Z</time></trkpt><trkpt lat="42.1393668" lon="12.7924039"><ele>463.0</ele><time>2026-05-02T14:14:20.995Z</time></trkpt><trkpt lat="42.1392751" lon="12.7921659"><ele>463.0</ele><time>2026-05-02T14:14:21.998Z</time></trkpt><trkpt lat="42.1392246" lon="12.7919606"><ele>463.0</ele><time>2026-05-02T14:14:23.021Z</time></trkpt><trkpt lat="42.1391761" lon="12.791759"><ele>463.0</ele><time>2026-05-02T14:14:23.994Z</time></trkpt><trkpt lat="42.1391224" lon="12.7915748"><ele>462.75</ele><time>2026-05-02T14:14:25.021Z</time></trkpt><trkpt lat="42.1390761" lon="12.7914105"><ele>462.5</ele><time>2026-05-02T14:14:25.995Z</time></trkpt><trkpt lat="42.1390375" lon="12.791245"><ele>462.25</ele><time>2026-05-02T14:14:27.001Z</time></trkpt><trkpt lat="42.1390121" lon="12.7911041"><ele>462.0</ele><time>2026-05-02T14:14:28Z</time></trkpt><trkpt lat="42.1390082" lon="12.7909475"><ele>456.40000000000003</ele><time>2026-05-02T14:14:29.004Z</time></trkpt><trkpt lat="42.1390076" lon="12.790783"><ele>450.80000000000007</ele><time>2026-05-02T14:14:29.996Z</time></trkpt><trkpt lat="42.1390266" lon="12.7906893"><ele>445.2</ele><time>2026-05-02T14:14:30.994Z</time></trkpt><trkpt lat="42.1390237" lon="12.7905698"><ele>439.6</ele><time>2026-05-02T14:14:32.999Z</time></trkpt><trkpt lat="42.1389358" lon="12.7905693"><ele>434.0</ele><time>2026-05-02T14:14:35.013Z</time></trkpt><trkpt lat="42.1388539" lon="12.7906624"><ele>433.99999999999994</ele><time>2026-05-02T14:14:37.016Z</time></trkpt><trkpt lat="42.1388218" lon="12.7907428"><ele>434.0</ele><time>2026-05-02T14:14:38.004Z</time></trkpt><trkpt lat="42.1388052" lon="12.7908404"><ele>434.0</ele><time>2026-05-02T14:14:39.013Z</time></trkpt><trkpt lat="42.1387934" lon="12.7909474"><ele>434.0</ele><time>2026-05-02T14:14:40.006Z</time></trkpt><trkpt lat="42.1387826" lon="12.7910676"><ele>433.99999999999994</ele><time>2026-05-02T14:14:40.99Z</time></trkpt><trkpt lat="42.1387721" lon="12.7911983"><ele>434.0</ele><time>2026-05-02T14:14:42.005Z</time></trkpt><trkpt lat="42.1387641" lon="12.7913336"><ele>433.4</ele><time>2026-05-02T14:14:43.017Z</time></trkpt><trkpt lat="42.1387576" lon="12.7914534"><ele>432.79999999999995</ele><time>2026-05-02T14:14:43.999Z</time></trkpt><trkpt lat="42.1387527" lon="12.7915673"><ele>432.20000000000005</ele><time>2026-05-02T14:14:45.001Z</time></trkpt><trkpt lat="42.138755" lon="12.7916863"><ele>431.6</ele><time>2026-05-02T14:14:46Z</time></trkpt><trkpt lat="42.1387542" lon="12.7918146"><ele>431.0</ele><time>2026-05-02T14:14:46.998Z</time></trkpt><trkpt lat="42.1387525" lon="12.7919525"><ele>429.75</ele><time>2026-05-02T14:14:48Z</time></trkpt><trkpt lat="42.1387497" lon="12.7920951"><ele>428.5</ele><time>2026-05-02T14:14:48.988Z</time></trkpt><trkpt lat="42.1387442" lon="12.7922639"><ele>427.25</ele><time>2026-05-02T14:14:49.996Z</time></trkpt><trkpt lat="42.1387318" lon="12.7924488"><ele>426.0</ele><time>2026-05-02T14:14:50.986Z</time></trkpt><trkpt lat="42.1387098" lon="12.7926559"><ele>425.66666666666663</ele><time>2026-05-02T14:14:51.993Z</time></trkpt><trkpt lat="42.1386574" lon="12.7928888"><ele>425.3333333333333</ele><time>2026-05-02T14:14:52.986Z</time></trkpt><trkpt lat="42.1386106" lon="12.7930969"><ele>425.0</ele><time>2026-05-02T14:14:53.99Z</time></trkpt><trkpt lat="42.1385721" lon="12.7932718"><ele>425.0</ele><time>2026-05-02T14:14:54.991Z</time></trkpt><trkpt lat="42.1385309" lon="12.7934262"><ele>425.0</ele><time>2026-05-02T14:14:55.994Z</time></trkpt><trkpt lat="42.1385081" lon="12.7935789"><ele>425.0</ele><time>2026-05-02T14:14:57.001Z</time></trkpt><trkpt lat="42.1384871" lon="12.7937392"><ele>425.0</ele><time>2026-05-02T14:14:57.997Z</time></trkpt><trkpt lat="42.1384864" lon="12.7938833"><ele>424.5</ele><time>2026-05-02T14:14:58.995Z</time></trkpt><trkpt lat="42.1384785" lon="12.7940564"><ele>424.0</ele><time>2026-05-02T14:14:59.997Z</time></trkpt><trkpt lat="42.1384984" lon="12.7942414"><ele>423.5</ele><time>2026-05-02T14:15:00.98Z</time></trkpt><trkpt lat="42.1385269" lon="12.7943894"><ele>423.0</ele><time>2026-05-02T14:15:01.984Z</time></trkpt><trkpt lat="42.1385859" lon="12.794561"><ele>422.66666666666663</ele><time>2026-05-02T14:15:02.983Z</time></trkpt><trkpt lat="42.138632" lon="12.794729"><ele>422.3333333333333</ele><time>2026-05-02T14:15:03.975Z</time></trkpt><trkpt lat="42.1386966" lon="12.79491"><ele>422.0</ele><time>2026-05-02T14:15:04.983Z</time></trkpt><trkpt lat="42.1387763" lon="12.7951182"><ele>424.20000000000005</ele><time>2026-05-02T14:15:05.977Z</time></trkpt><trkpt lat="42.1388342" lon="12.7953174"><ele>426.4</ele><time>2026-05-02T14:15:06.978Z</time></trkpt><trkpt lat="42.1388189" lon="12.7954886"><ele>428.59999999999997</ele><time>2026-05-02T14:15:07.97Z</time></trkpt><trkpt lat="42.1388175" lon="12.7955902"><ele>430.79999999999995</ele><time>2026-05-02T14:15:09.966Z</time></trkpt><trkpt lat="42.1387956" lon="12.7956802"><ele>433.0</ele><time>2026-05-02T14:15:11.966Z</time></trkpt><trkpt lat="42.1387312" lon="12.79565"><ele>433.0</ele><time>2026-05-02T14:15:13.964Z</time></trkpt><trkpt lat="42.1387017" lon="12.7954766"><ele>433.0</ele><time>2026-05-02T14:15:16.045Z</time></trkpt><trkpt lat="42.1386701" lon="12.7953362"><ele>433.0</ele><time>2026-05-02T14:15:17.049Z</time></trkpt><trkpt lat="42.1386317" lon="12.7951809"><ele>433.0</ele><time>2026-05-02T14:15:17.989Z</time></trkpt><trkpt lat="42.138568" lon="12.7950448"><ele>430.79999999999995</ele><time>2026-05-02T14:15:18.964Z</time></trkpt><trkpt lat="42.1384898" lon="12.7949144"><ele>428.59999999999997</ele><time>2026-05-02T14:15:19.99Z</time></trkpt><trkpt lat="42.1384063" lon="12.794825"><ele>426.4</ele><time>2026-05-02T14:15:21.012Z</time></trkpt><trkpt lat="42.1383213" lon="12.7947351"><ele>424.20000000000005</ele><time>2026-05-02T14:15:21.993Z</time></trkpt><trkpt lat="42.138253" lon="12.7946321"><ele>422.0</ele><time>2026-05-02T14:15:22.984Z</time></trkpt><trkpt lat="42.1381889" lon="12.7945159"><ele>422.0</ele><time>2026-05-02T14:15:23.99Z</time></trkpt><trkpt lat="42.1381261" lon="12.7943923"><ele>422.0</ele><time>2026-05-02T14:15:24.962Z</time></trkpt><trkpt lat="42.1380827" lon="12.7942519"><ele>422.0</ele><time>2026-05-02T14:15:25.956Z</time></trkpt><trkpt lat="42.1380322" lon="12.79409"><ele>422.0</ele><time>2026-05-02T14:15:26.963Z</time></trkpt><trkpt lat="42.1379684" lon="12.7939241"><ele>422.0</ele><time>2026-05-02T14:15:27.966Z</time></trkpt><trkpt lat="42.1379062" lon="12.7937593"><ele>422.0</ele><time>2026-05-02T14:15:28.963Z</time></trkpt><trkpt lat="42.1378384" lon="12.7935842"><ele>422.0</ele><time>2026-05-02T14:15:29.96Z</time></trkpt><trkpt lat="42.1377606" lon="12.7933526"><ele>416.66666666666663</ele><time>2026-05-02T14:15:30.965Z</time></trkpt><trkpt lat="42.1376918" lon="12.7931124"><ele>411.33333333333337</ele><time>2026-05-02T14:15:31.961Z</time></trkpt><trkpt lat="42.1376407" lon="12.7929507"><ele>406.0</ele><time>2026-05-02T14:15:32.973Z</time></trkpt><trkpt lat="42.1376199" lon="12.7927781"><ele>403.5</ele><time>2026-05-02T14:15:34.038Z</time></trkpt><trkpt lat="42.1375767" lon="12.7926175"><ele>401.0</ele><time>2026-05-02T14:15:35.009Z</time></trkpt><trkpt lat="42.137505" lon="12.792441"><ele>398.5</ele><time>2026-05-02T14:15:35.987Z</time></trkpt><trkpt lat="42.1374813" lon="12.7922565"><ele>396.0</ele><time>2026-05-02T14:15:36.962Z</time></trkpt><trkpt lat="42.1374091" lon="12.7920937"><ele>397.25</ele><time>2026-05-02T14:15:37.958Z</time></trkpt><trkpt lat="42.1373034" lon="12.7919799"><ele>398.5</ele><time>2026-05-02T14:15:38.962Z</time></trkpt><trkpt lat="42.1371923" lon="12.7918719"><ele>399.75</ele><time>2026-05-02T14:15:39.962Z</time></trkpt><trkpt lat="42.1370972" lon="12.7917493"><ele>401.0</ele><time>2026-05-02T14:15:40.96Z</time></trkpt><trkpt lat="42.1369895" lon="12.7916143"><ele>401.0</ele><time>2026-05-02T14:15:41.965Z</time></trkpt><trkpt lat="42.1369004" lon="12.7914417"><ele>401.0</ele><time>2026-05-02T14:15:42.968Z</time></trkpt><trkpt lat="42.136826" lon="12.7912392"><ele>401.0</ele><time>2026-05-02T14:15:43.964Z</time></trkpt><trkpt lat="42.1367432" lon="12.7910483"><ele>402.0</ele><time>2026-05-02T14:15:44.969Z</time></trkpt><trkpt lat="42.1366559" lon="12.7908747"><ele>403.0</ele><time>2026-05-02T14:15:45.963Z</time></trkpt><trkpt lat="42.1365693" lon="12.790735"><ele>404.0</ele><time>2026-05-02T14:15:46.992Z</time></trkpt><trkpt lat="42.1365344" lon="12.7905697"><ele>405.0</ele><time>2026-05-02T14:15:47.965Z</time></trkpt><trkpt lat="42.1364736" lon="12.7904122"><ele>405.0</ele><time>2026-05-02T14:15:48.963Z</time></trkpt><trkpt lat="42.1364514" lon="12.7902243"><ele>405.0</ele><time>2026-05-02T14:15:49.967Z</time></trkpt><trkpt lat="42.1364048" lon="12.7901032"><ele>405.0</ele><time>2026-05-02T14:15:50.962Z</time></trkpt><trkpt lat="42.1363704" lon="12.7899469"><ele>405.0</ele><time>2026-05-02T14:15:52.045Z</time></trkpt><trkpt lat="42.1362979" lon="12.7897982"><ele>398.0</ele><time>2026-05-02T14:15:52.964Z</time></trkpt><trkpt lat="42.1362246" lon="12.7896294"><ele>391.0</ele><time>2026-05-02T14:15:53.968Z</time></trkpt><trkpt lat="42.136133" lon="12.7894261"><ele>384.0</ele><time>2026-05-02T14:15:54.964Z</time></trkpt><trkpt lat="42.1360325" lon="12.7892607"><ele>379.0</ele><time>2026-05-02T14:15:56.285Z</time></trkpt><trkpt lat="42.1358174" lon="12.7890173"><ele>374.0</ele><time>2026-05-02T14:15:57.988Z</time></trkpt><trkpt lat="42.1357281" lon="12.788891"><ele>369.0</ele><time>2026-05-02T14:15:58.979Z</time></trkpt><trkpt lat="42.1356449" lon="12.788762"><ele>367.0</ele><time>2026-05-02T14:16:00.131Z</time></trkpt><trkpt lat="42.1354684" lon="12.7885288"><ele>365.0</ele><time>2026-05-02T14:16:02.292Z</time></trkpt><trkpt lat="42.1352719" lon="12.7883282"><ele>362.75</ele><time>2026-05-02T14:16:04.001Z</time></trkpt><trkpt lat="42.1351751" lon="12.7882474"><ele>360.5</ele><time>2026-05-02T14:16:04.991Z</time></trkpt><trkpt lat="42.1350773" lon="12.788175"><ele>358.25</ele><time>2026-05-02T14:16:05.978Z</time></trkpt><trkpt lat="42.1349697" lon="12.788123"><ele>356.0</ele><time>2026-05-02T14:16:06.98Z</time></trkpt><trkpt lat="42.1348563" lon="12.7880636"><ele>353.5</ele><time>2026-05-02T14:16:07.994Z</time></trkpt><trkpt lat="42.1347399" lon="12.7880048"><ele>351.0</ele><time>2026-05-02T14:16:08.977Z</time></trkpt><trkpt lat="42.1346225" lon="12.7879631"><ele>348.5</ele><time>2026-05-02T14:16:09.978Z</time></trkpt><trkpt lat="42.1344968" lon="12.7879661"><ele>346.0</ele><time>2026-05-02T14:16:10.975Z</time></trkpt><trkpt lat="42.1343754" lon="12.7879913"><ele>346.0</ele><time>2026-05-02T14:16:11.976Z</time></trkpt><trkpt lat="42.1342507" lon="12.7880044"><ele>346.0</ele><time>2026-05-02T14:16:12.979Z</time></trkpt><trkpt lat="42.134126" lon="12.7880194"><ele>346.0</ele><time>2026-05-02T14:16:13.97Z</time></trkpt><trkpt lat="42.133993" lon="12.7880056"><ele>346.0</ele><time>2026-05-02T14:16:14.975Z</time></trkpt><trkpt lat="42.1338623" lon="12.7879741"><ele>343.4</ele><time>2026-05-02T14:16:15.973Z</time></trkpt><trkpt lat="42.1337579" lon="12.7879462"><ele>340.8</ele><time>2026-05-02T14:16:16.975Z</time></trkpt><trkpt lat="42.1336844" lon="12.7879094"><ele>338.2</ele><time>2026-05-02T14:16:17.977Z</time></trkpt><trkpt lat="42.1336322" lon="12.7878451"><ele>335.59999999999997</ele><time>2026-05-02T14:16:19.972Z</time></trkpt><trkpt lat="42.1336363" lon="12.7877249"><ele>333.0</ele><time>2026-05-02T14:16:21.976Z</time></trkpt><trkpt lat="42.1336406" lon="12.7875824"><ele>331.6666666666667</ele><time>2026-05-02T14:16:23.973Z</time></trkpt><trkpt lat="42.1335592" lon="12.7874875"><ele>330.3333333333333</ele><time>2026-05-02T14:16:25.976Z</time></trkpt><trkpt lat="42.1334843" lon="12.7874918"><ele>329.0</ele><time>2026-05-02T14:16:26.976Z</time></trkpt><trkpt lat="42.1334063" lon="12.7875107"><ele>327.66666666666663</ele><time>2026-05-02T14:16:27.966Z</time></trkpt><trkpt lat="42.1333289" lon="12.7875382"><ele>326.3333333333333</ele><time>2026-05-02T14:16:28.975Z</time></trkpt><trkpt lat="42.1332412" lon="12.7875444"><ele>325.0</ele><time>2026-05-02T14:16:29.975Z</time></trkpt><trkpt lat="42.1331518" lon="12.7875353"><ele>322.6</ele><time>2026-05-02T14:16:30.969Z</time></trkpt><trkpt lat="42.1330666" lon="12.7875033"><ele>320.2</ele><time>2026-05-02T14:16:31.976Z</time></trkpt><trkpt lat="42.1329909" lon="12.7874633"><ele>317.8</ele><time>2026-05-02T14:16:33.004Z</time></trkpt><trkpt lat="42.1329043" lon="12.7874197"><ele>315.4</ele><time>2026-05-02T14:16:33.977Z</time></trkpt><trkpt lat="42.1328115" lon="12.7874033"><ele>313.0</ele><time>2026-05-02T14:16:34.966Z</time></trkpt><trkpt lat="42.1327173" lon="12.7874176"><ele>313.0</ele><time>2026-05-02T14:16:35.982Z</time></trkpt><trkpt lat="42.13263" lon="12.7874295"><ele>313.0</ele><time>2026-05-02T14:16:36.971Z</time></trkpt><trkpt lat="42.1325357" lon="12.7874234"><ele>313.0</ele><time>2026-05-02T14:16:37.976Z</time></trkpt><trkpt lat="42.1324494" lon="12.7874127"><ele>313.0</ele><time>2026-05-02T14:16:38.972Z</time></trkpt><trkpt lat="42.1323661" lon="12.7873825"><ele>313.0</ele><time>2026-05-02T14:16:39.99Z</time></trkpt><trkpt lat="42.1322894" lon="12.7873512"><ele>313.0</ele><time>2026-05-02T14:16:40.996Z</time></trkpt><trkpt lat="42.1322151" lon="12.7873185"><ele>311.6</ele><time>2026-05-02T14:16:41.996Z</time></trkpt><trkpt lat="42.1321457" lon="12.7873241"><ele>310.20000000000005</ele><time>2026-05-02T14:16:42.972Z</time></trkpt><trkpt lat="42.1320682" lon="12.7874452"><ele>308.8</ele><time>2026-05-02T14:16:45.004Z</time></trkpt><trkpt lat="42.1320456" lon="12.7875561"><ele>307.40000000000003</ele><time>2026-05-02T14:16:46.002Z</time></trkpt><trkpt lat="42.1320183" lon="12.7876755"><ele>306.0</ele><time>2026-05-02T14:16:46.977Z</time></trkpt><trkpt lat="42.1319985" lon="12.7878186"><ele>306.0</ele><time>2026-05-02T14:16:47.992Z</time></trkpt><trkpt lat="42.1319744" lon="12.7879512"><ele>306.0</ele><time>2026-05-02T14:16:48.973Z</time></trkpt><trkpt lat="42.1319293" lon="12.7880942"><ele>306.0</ele><time>2026-05-02T14:16:49.981Z</time></trkpt><trkpt lat="42.1318678" lon="12.7882137"><ele>306.0</ele><time>2026-05-02T14:16:50.978Z</time></trkpt><trkpt lat="42.131808" lon="12.7882944"><ele>306.0</ele><time>2026-05-02T14:16:51.976Z</time></trkpt><trkpt lat="42.1317414" lon="12.7883533"><ele>306.0</ele><time>2026-05-02T14:16:52.976Z</time></trkpt><trkpt lat="42.1316651" lon="12.7883961"><ele>306.0</ele><time>2026-05-02T14:16:53.968Z</time></trkpt><trkpt lat="42.1315919" lon="12.7884251"><ele>306.0</ele><time>2026-05-02T14:16:54.972Z</time></trkpt><trkpt lat="42.1315299" lon="12.7883797"><ele>306.0</ele><time>2026-05-02T14:16:55.971Z</time></trkpt><trkpt lat="42.1314656" lon="12.7883209"><ele>306.0</ele><time>2026-05-02T14:16:56.964Z</time></trkpt><trkpt lat="42.1313913" lon="12.7882479"><ele>306.0</ele><time>2026-05-02T14:16:57.971Z</time></trkpt><trkpt lat="42.1313163" lon="12.7881771"><ele>307.40000000000003</ele><time>2026-05-02T14:16:58.983Z</time></trkpt><trkpt lat="42.1312434" lon="12.7880976"><ele>308.8</ele><time>2026-05-02T14:16:59.969Z</time></trkpt><trkpt lat="42.1311635" lon="12.7880452"><ele>310.20000000000005</ele><time>2026-05-02T14:17:00.967Z</time></trkpt><trkpt lat="42.131083" lon="12.787985"><ele>311.6</ele><time>2026-05-02T14:17:01.975Z</time></trkpt><trkpt lat="42.1310154" lon="12.7879035"><ele>313.0</ele><time>2026-05-02T14:17:02.963Z</time></trkpt><trkpt lat="42.1309342" lon="12.7878388"><ele>313.0</ele><time>2026-05-02T14:17:04.062Z</time></trkpt><trkpt lat="42.1308382" lon="12.7878217"><ele>313.0</ele><time>2026-05-02T14:17:05.001Z</time></trkpt><trkpt lat="42.1307449" lon="12.7878013"><ele>313.0</ele><time>2026-05-02T14:17:05.978Z</time></trkpt><trkpt lat="42.1306464" lon="12.7877297"><ele>313.0</ele><time>2026-05-02T14:17:06.994Z</time></trkpt><trkpt lat="42.1305591" lon="12.7876493"><ele>313.0</ele><time>2026-05-02T14:17:07.968Z</time></trkpt><trkpt lat="42.1304752" lon="12.7875599"><ele>314.2</ele><time>2026-05-02T14:17:08.968Z</time></trkpt><trkpt lat="42.1304153" lon="12.7874834"><ele>315.4</ele><time>2026-05-02T14:17:09.967Z</time></trkpt><trkpt lat="42.1303618" lon="12.7873884"><ele>316.59999999999997</ele><time>2026-05-02T14:17:10.97Z</time></trkpt><trkpt lat="42.1303265" lon="12.7872826"><ele>317.8</ele><time>2026-05-02T14:17:11.964Z</time></trkpt><trkpt lat="42.1302906" lon="12.7871608"><ele>319.0</ele><time>2026-05-02T14:17:12.971Z</time></trkpt><trkpt lat="42.1302613" lon="12.7870303"><ele>319.0</ele><time>2026-05-02T14:17:13.969Z</time></trkpt><trkpt lat="42.1302285" lon="12.7868782"><ele>319.0</ele><time>2026-05-02T14:17:14.966Z</time></trkpt><trkpt lat="42.1302001" lon="12.786727"><ele>319.0</ele><time>2026-05-02T14:17:15.983Z</time></trkpt><trkpt lat="42.130163" lon="12.786568"><ele>319.0</ele><time>2026-05-02T14:17:16.968Z</time></trkpt><trkpt lat="42.1301479" lon="12.7864434"><ele>318.2</ele><time>2026-05-02T14:17:17.968Z</time></trkpt><trkpt lat="42.1301333" lon="12.7863307"><ele>317.4</ele><time>2026-05-02T14:17:18.968Z</time></trkpt><trkpt lat="42.1301046" lon="12.7862114"><ele>316.6</ele><time>2026-05-02T14:17:19.966Z</time></trkpt><trkpt lat="42.130046" lon="12.7860609"><ele>315.8</ele><time>2026-05-02T14:17:20.969Z</time></trkpt><trkpt lat="42.1299767" lon="12.7859403"><ele>315.0</ele><time>2026-05-02T14:17:21.972Z</time></trkpt><trkpt lat="42.1299113" lon="12.7858132"><ele>316.0</ele><time>2026-05-02T14:17:22.971Z</time></trkpt><trkpt lat="42.1298372" lon="12.7856978"><ele>317.0</ele><time>2026-05-02T14:17:24.065Z</time></trkpt><trkpt lat="42.1297742" lon="12.7855975"><ele>318.0</ele><time>2026-05-02T14:17:24.996Z</time></trkpt><trkpt lat="42.1297154" lon="12.7855142"><ele>319.0</ele><time>2026-05-02T14:17:25.989Z</time></trkpt><trkpt lat="42.1296518" lon="12.7854608"><ele>320.0</ele><time>2026-05-02T14:17:26.975Z</time></trkpt><trkpt lat="42.1295778" lon="12.785438"><ele>321.0</ele><time>2026-05-02T14:17:27.969Z</time></trkpt><trkpt lat="42.1294935" lon="12.7854582"><ele>321.0</ele><time>2026-05-02T14:17:28.974Z</time></trkpt><trkpt lat="42.1293796" lon="12.7854945"><ele>321.0</ele><time>2026-05-02T14:17:29.972Z</time></trkpt><trkpt lat="42.1292433" lon="12.7855712"><ele>321.0</ele><time>2026-05-02T14:17:30.973Z</time></trkpt><trkpt lat="42.1291255" lon="12.7856438"><ele>321.0</ele><time>2026-05-02T14:17:31.972Z</time></trkpt><trkpt lat="42.1290098" lon="12.7856921"><ele>321.25</ele><time>2026-05-02T14:17:32.975Z</time></trkpt><trkpt lat="42.1288939" lon="12.7857061"><ele>321.5</ele><time>2026-05-02T14:17:33.973Z</time></trkpt><trkpt lat="42.1287604" lon="12.7857053"><ele>321.75</ele><time>2026-05-02T14:17:34.978Z</time></trkpt><trkpt lat="42.1286244" lon="12.7857083"><ele>322.0</ele><time>2026-05-02T14:17:35.982Z</time></trkpt><trkpt lat="42.1285072" lon="12.7857287"><ele>322.0</ele><time>2026-05-02T14:17:36.976Z</time></trkpt><trkpt lat="42.1284062" lon="12.7857402"><ele>322.0</ele><time>2026-05-02T14:17:37.974Z</time></trkpt><trkpt lat="42.1283052" lon="12.7857353"><ele>322.0</ele><time>2026-05-02T14:17:38.977Z</time></trkpt><trkpt lat="42.1282242" lon="12.78568"><ele>322.0</ele><time>2026-05-02T14:17:39.975Z</time></trkpt><trkpt lat="42.1281523" lon="12.7855842"><ele>322.0</ele><time>2026-05-02T14:17:40.971Z</time></trkpt><trkpt lat="42.1280897" lon="12.7854724"><ele>321.75</ele><time>2026-05-02T14:17:41.969Z</time></trkpt><trkpt lat="42.1280384" lon="12.7853367"><ele>321.5</ele><time>2026-05-02T14:17:42.976Z</time></trkpt><trkpt lat="42.1279888" lon="12.7851698"><ele>321.25</ele><time>2026-05-02T14:17:43.971Z</time></trkpt><trkpt lat="42.1279466" lon="12.7850007"><ele>321.0</ele><time>2026-05-02T14:17:44.969Z</time></trkpt><trkpt lat="42.1278831" lon="12.7848177"><ele>321.0</ele><time>2026-05-02T14:17:45.995Z</time></trkpt><trkpt lat="42.127823" lon="12.7846437"><ele>321.0</ele><time>2026-05-02T14:17:46.988Z</time></trkpt><trkpt lat="42.1277787" lon="12.7844354"><ele>321.0</ele><time>2026-05-02T14:17:47.969Z</time></trkpt><trkpt lat="42.1276959" lon="12.7842916"><ele>321.0</ele><time>2026-05-02T14:17:48.973Z</time></trkpt><trkpt lat="42.1276057" lon="12.7842021"><ele>321.8</ele><time>2026-05-02T14:17:50.001Z</time></trkpt><trkpt lat="42.1275834" lon="12.7841111"><ele>322.6</ele><time>2026-05-02T14:17:50.971Z</time></trkpt><trkpt lat="42.1275504" lon="12.7840233"><ele>323.4</ele><time>2026-05-02T14:17:51.975Z</time></trkpt><trkpt lat="42.127533" lon="12.7838721"><ele>324.2</ele><time>2026-05-02T14:17:52.973Z</time></trkpt><trkpt lat="42.1275482" lon="12.7836869"><ele>325.0</ele><time>2026-05-02T14:17:53.972Z</time></trkpt><trkpt lat="42.1275431" lon="12.7835164"><ele>324.3333333333333</ele><time>2026-05-02T14:17:54.972Z</time></trkpt><trkpt lat="42.1275312" lon="12.78334"><ele>323.6666666666667</ele><time>2026-05-02T14:17:55.975Z</time></trkpt><trkpt lat="42.1275187" lon="12.7831403"><ele>323.0</ele><time>2026-05-02T14:17:56.965Z</time></trkpt><trkpt lat="42.1274903" lon="12.7829047"><ele>321.0</ele><time>2026-05-02T14:17:57.982Z</time></trkpt><trkpt lat="42.1274591" lon="12.7826763"><ele>319.0</ele><time>2026-05-02T14:17:58.973Z</time></trkpt><trkpt lat="42.1274423" lon="12.7824844"><ele>317.0</ele><time>2026-05-02T14:17:59.981Z</time></trkpt><trkpt lat="42.1274237" lon="12.7823025"><ele>317.0</ele><time>2026-05-02T14:18:00.975Z</time></trkpt><trkpt lat="42.1273996" lon="12.7821339"><ele>317.0</ele><time>2026-05-02T14:18:01.969Z</time></trkpt><trkpt lat="42.1273861" lon="12.7820179"><ele>317.0</ele><time>2026-05-02T14:18:02.968Z</time></trkpt><trkpt lat="42.1273381" lon="12.7818703"><ele>317.0</ele><time>2026-05-02T14:18:04.007Z</time></trkpt><trkpt lat="42.1272184" lon="12.7817203"><ele>313.0</ele><time>2026-05-02T14:18:04.997Z</time></trkpt><trkpt lat="42.1270871" lon="12.7815984"><ele>309.0</ele><time>2026-05-02T14:18:05.973Z</time></trkpt><trkpt lat="42.1269653" lon="12.7814544"><ele>305.0</ele><time>2026-05-02T14:18:06.984Z</time></trkpt><trkpt lat="42.1268263" lon="12.7813233"><ele>305.0</ele><time>2026-05-02T14:18:07.974Z</time></trkpt><trkpt lat="42.1266923" lon="12.7811931"><ele>305.0</ele><time>2026-05-02T14:18:08.972Z</time></trkpt><trkpt lat="42.1265458" lon="12.7811096"><ele>305.0</ele><time>2026-05-02T14:18:09.977Z</time></trkpt><trkpt lat="42.1264106" lon="12.7810058"><ele>303.0</ele><time>2026-05-02T14:18:10.969Z</time></trkpt><trkpt lat="42.1263054" lon="12.7808906"><ele>301.0</ele><time>2026-05-02T14:18:11.967Z</time></trkpt><trkpt lat="42.1261703" lon="12.7807536"><ele>299.0</ele><time>2026-05-02T14:18:12.977Z</time></trkpt><trkpt lat="42.1260292" lon="12.7806293"><ele>299.0</ele><time>2026-05-02T14:18:13.968Z</time></trkpt><trkpt lat="42.1259559" lon="12.7805249"><ele>299.0</ele><time>2026-05-02T14:18:14.971Z</time></trkpt><trkpt lat="42.1258416" lon="12.7803769"><ele>299.0</ele><time>2026-05-02T14:18:15.984Z</time></trkpt><trkpt lat="42.1257384" lon="12.7802307"><ele>299.0</ele><time>2026-05-02T14:18:16.967Z</time></trkpt><trkpt lat="42.1256447" lon="12.7800775"><ele>296.25</ele><time>2026-05-02T14:18:17.973Z</time></trkpt><trkpt lat="42.1255164" lon="12.779963"><ele>293.5</ele><time>2026-05-02T14:18:18.971Z</time></trkpt><trkpt lat="42.1254552" lon="12.7798785"><ele>290.75</ele><time>2026-05-02T14:18:19.974Z</time></trkpt><trkpt lat="42.1253689" lon="12.7797946"><ele>288.0</ele><time>2026-05-02T14:18:20.963Z</time></trkpt><trkpt lat="42.1252682" lon="12.7797096"><ele>288.0</ele><time>2026-05-02T14:18:21.976Z</time></trkpt><trkpt lat="42.1251634" lon="12.779614"><ele>288.0</ele><time>2026-05-02T14:18:22.96Z</time></trkpt><trkpt lat="42.1251001" lon="12.779563"><ele>288.0</ele><time>2026-05-02T14:18:23.961Z</time></trkpt><trkpt lat="42.1249991" lon="12.7794671"><ele>288.0</ele><time>2026-05-02T14:18:24.962Z</time></trkpt><trkpt lat="42.124903" lon="12.7793982"><ele>288.0</ele><time>2026-05-02T14:18:25.971Z</time></trkpt><trkpt lat="42.1248271" lon="12.7793141"><ele>284.0</ele><time>2026-05-02T14:18:26.973Z</time></trkpt><trkpt lat="42.124759" lon="12.7792364"><ele>280.0</ele><time>2026-05-02T14:18:27.964Z</time></trkpt><trkpt lat="42.1246987" lon="12.7791466"><ele>276.0</ele><time>2026-05-02T14:18:28.978Z</time></trkpt><trkpt lat="42.1246586" lon="12.7790335"><ele>272.0</ele><time>2026-05-02T14:18:29.974Z</time></trkpt><trkpt lat="42.1246277" lon="12.7788604"><ele>268.0</ele><time>2026-05-02T14:18:30.976Z</time></trkpt><trkpt lat="42.1245937" lon="12.7786713"><ele>267.3333333333333</ele><time>2026-05-02T14:18:31.969Z</time></trkpt><trkpt lat="42.1245503" lon="12.7784623"><ele>266.6666666666667</ele><time>2026-05-02T14:18:32.967Z</time></trkpt><trkpt lat="42.1245205" lon="12.778209"><ele>266.0</ele><time>2026-05-02T14:18:34.049Z</time></trkpt><trkpt lat="42.1244767" lon="12.7779953"><ele>266.0</ele><time>2026-05-02T14:18:34.972Z</time></trkpt><trkpt lat="42.1244227" lon="12.7777947"><ele>266.0</ele><time>2026-05-02T14:18:35.965Z</time></trkpt><trkpt lat="42.1243628" lon="12.7775895"><ele>266.0</ele><time>2026-05-02T14:18:36.975Z</time></trkpt><trkpt lat="42.1242944" lon="12.7773853"><ele>264.6666666666667</ele><time>2026-05-02T14:18:37.979Z</time></trkpt><trkpt lat="42.1242325" lon="12.7771792"><ele>263.3333333333333</ele><time>2026-05-02T14:18:38.972Z</time></trkpt><trkpt lat="42.1241907" lon="12.7769811"><ele>262.0</ele><time>2026-05-02T14:18:39.978Z</time></trkpt><trkpt lat="42.1241618" lon="12.7767886"><ele>260.4</ele><time>2026-05-02T14:18:40.976Z</time></trkpt><trkpt lat="42.1241211" lon="12.7766277"><ele>258.79999999999995</ele><time>2026-05-02T14:18:41.972Z</time></trkpt><trkpt lat="42.1240872" lon="12.776481"><ele>257.2</ele><time>2026-05-02T14:18:42.981Z</time></trkpt><trkpt lat="42.1240693" lon="12.7763677"><ele>255.6</ele><time>2026-05-02T14:18:43.979Z</time></trkpt><trkpt lat="42.1240521" lon="12.7762779"><ele>254.0</ele><time>2026-05-02T14:18:44.972Z</time></trkpt><trkpt lat="42.1240128" lon="12.77614"><ele>251.50000000000003</ele><time>2026-05-02T14:18:46.971Z</time></trkpt><trkpt lat="42.1239458" lon="12.7761305"><ele>249.0</ele><time>2026-05-02T14:18:47.973Z</time></trkpt><trkpt lat="42.1238652" lon="12.776203"><ele>246.5</ele><time>2026-05-02T14:18:49.972Z</time></trkpt><trkpt lat="42.1238196" lon="12.7762787"><ele>244.0</ele><time>2026-05-02T14:18:50.981Z</time></trkpt><trkpt lat="42.1237695" lon="12.7763587"><ele>241.50000000000003</ele><time>2026-05-02T14:18:51.979Z</time></trkpt><trkpt lat="42.1237133" lon="12.7764493"><ele>239.0</ele><time>2026-05-02T14:18:52.968Z</time></trkpt><trkpt lat="42.1236571" lon="12.7765343"><ele>239.00000000000003</ele><time>2026-05-02T14:18:53.974Z</time></trkpt><trkpt lat="42.1235979" lon="12.7766184"><ele>239.0</ele><time>2026-05-02T14:18:54.975Z</time></trkpt><trkpt lat="42.1235262" lon="12.7766884"><ele>239.0</ele><time>2026-05-02T14:18:55.973Z</time></trkpt><trkpt lat="42.123438" lon="12.77674"><ele>239.0</ele><time>2026-05-02T14:18:56.973Z</time></trkpt><trkpt lat="42.1233513" lon="12.7767944"><ele>239.00000000000003</ele><time>2026-05-02T14:18:57.976Z</time></trkpt><trkpt lat="42.1232766" lon="12.776825"><ele>239.0</ele><time>2026-05-02T14:18:58.969Z</time></trkpt><trkpt lat="42.1232149" lon="12.7768632"><ele>240.16666666666669</ele><time>2026-05-02T14:18:59.971Z</time></trkpt><trkpt lat="42.1231684" lon="12.7769251"><ele>241.33333333333334</ele><time>2026-05-02T14:19:00.969Z</time></trkpt><trkpt lat="42.1231422" lon="12.7770046"><ele>242.5</ele><time>2026-05-02T14:19:01.965Z</time></trkpt><trkpt lat="42.1231241" lon="12.7771112"><ele>243.66666666666669</ele><time>2026-05-02T14:19:02.966Z</time></trkpt><trkpt lat="42.1231374" lon="12.7772224"><ele>244.83333333333334</ele><time>2026-05-02T14:19:03.971Z</time></trkpt><trkpt lat="42.1231375" lon="12.7773308"><ele>246.0</ele><time>2026-05-02T14:19:04.961Z</time></trkpt><trkpt lat="42.1231293" lon="12.7774363"><ele>246.0</ele><time>2026-05-02T14:19:05.966Z</time></trkpt><trkpt lat="42.1231036" lon="12.777516"><ele>246.0</ele><time>2026-05-02T14:19:07.977Z</time></trkpt><trkpt lat="42.1230452" lon="12.7774768"><ele>246.0</ele><time>2026-05-02T14:19:09.965Z</time></trkpt><trkpt lat="42.1230104" lon="12.7773635"><ele>246.0</ele><time>2026-05-02T14:19:10.993Z</time></trkpt><trkpt lat="42.1229667" lon="12.7772637"><ele>246.0</ele><time>2026-05-02T14:19:11.991Z</time></trkpt><trkpt lat="42.1229265" lon="12.7771546"><ele>246.0</ele><time>2026-05-02T14:19:12.994Z</time></trkpt><trkpt lat="42.1229072" lon="12.7770645"><ele>246.0</ele><time>2026-05-02T14:19:13.967Z</time></trkpt><trkpt lat="42.1228825" lon="12.7769054"><ele>246.0</ele><time>2026-05-02T14:19:15.967Z</time></trkpt><trkpt lat="42.12287" lon="12.7767092"><ele>246.0</ele><time>2026-05-02T14:19:17.973Z</time></trkpt><trkpt lat="42.1228559" lon="12.7765927"><ele>246.0</ele><time>2026-05-02T14:19:18.966Z</time></trkpt><trkpt lat="42.1228776" lon="12.7764664"><ele>245.33333333333334</ele><time>2026-05-02T14:19:20.965Z</time></trkpt><trkpt lat="42.1229049" lon="12.776375"><ele>244.66666666666669</ele><time>2026-05-02T14:19:22.97Z</time></trkpt><trkpt lat="42.1229151" lon="12.7762612"><ele>244.0</ele><time>2026-05-02T14:19:24.968Z</time></trkpt><trkpt lat="42.122916" lon="12.7761161"><ele>243.33333333333334</ele><time>2026-05-02T14:19:26.968Z</time></trkpt><trkpt lat="42.1229104" lon="12.7760127"><ele>242.66666666666669</ele><time>2026-05-02T14:19:27.96Z</time></trkpt><trkpt lat="42.1228916" lon="12.775909"><ele>242.0</ele><time>2026-05-02T14:19:29.05Z</time></trkpt><trkpt lat="42.1228763" lon="12.7758005"><ele>241.83333333333334</ele><time>2026-05-02T14:19:30.047Z</time></trkpt><trkpt lat="42.1228648" lon="12.7756778"><ele>241.66666666666669</ele><time>2026-05-02T14:19:30.985Z</time></trkpt><trkpt lat="42.12286" lon="12.7755746"><ele>241.5</ele><time>2026-05-02T14:19:31.977Z</time></trkpt><trkpt lat="42.1228575" lon="12.7754641"><ele>241.33333333333331</ele><time>2026-05-02T14:19:32.963Z</time></trkpt><trkpt lat="42.1228489" lon="12.7753463"><ele>241.16666666666666</ele><time>2026-05-02T14:19:33.965Z</time></trkpt><trkpt lat="42.1228445" lon="12.7752305"><ele>241.0</ele><time>2026-05-02T14:19:34.969Z</time></trkpt><trkpt lat="42.1228332" lon="12.7751144"><ele>240.66666666666666</ele><time>2026-05-02T14:19:35.968Z</time></trkpt><trkpt lat="42.1228252" lon="12.7750044"><ele>240.33333333333331</ele><time>2026-05-02T14:19:36.968Z</time></trkpt><trkpt lat="42.1228187" lon="12.7748875"><ele>240.0</ele><time>2026-05-02T14:19:37.97Z</time></trkpt><trkpt lat="42.1228023" lon="12.7747728"><ele>239.66666666666669</ele><time>2026-05-02T14:19:38.98Z</time></trkpt><trkpt lat="42.1227731" lon="12.7746451"><ele>239.33333333333334</ele><time>2026-05-02T14:19:39.964Z</time></trkpt><trkpt lat="42.1227377" lon="12.7745329"><ele>239.0</ele><time>2026-05-02T14:19:40.972Z</time></trkpt><trkpt lat="42.1227113" lon="12.7744365"><ele>238.39999999999998</ele><time>2026-05-02T14:19:41.967Z</time></trkpt><trkpt lat="42.1226844" lon="12.7743417"><ele>237.79999999999998</ele><time>2026-05-02T14:19:42.992Z</time></trkpt><trkpt lat="42.1226227" lon="12.7742503"><ele>237.20000000000002</ele><time>2026-05-02T14:19:43.996Z</time></trkpt><trkpt lat="42.1225471" lon="12.7741775"><ele>236.60000000000002</ele><time>2026-05-02T14:19:44.971Z</time></trkpt><trkpt lat="42.1224661" lon="12.7741052"><ele>236.0</ele><time>2026-05-02T14:19:45.971Z</time></trkpt><trkpt lat="42.1223801" lon="12.7740262"><ele>236.0</ele><time>2026-05-02T14:19:46.971Z</time></trkpt><trkpt lat="42.1222908" lon="12.7739451"><ele>236.00000000000003</ele><time>2026-05-02T14:19:48.053Z</time></trkpt><trkpt lat="42.1221991" lon="12.7738745"><ele>236.00000000000003</ele><time>2026-05-02T14:19:48.972Z</time></trkpt><trkpt lat="42.1221057" lon="12.773821"><ele>236.0</ele><time>2026-05-02T14:19:49.972Z</time></trkpt><trkpt lat="42.1220179" lon="12.7737601"><ele>236.0</ele><time>2026-05-02T14:19:50.97Z</time></trkpt><trkpt lat="42.1219148" lon="12.7736589"><ele>236.0</ele><time>2026-05-02T14:19:51.98Z</time></trkpt><trkpt lat="42.1218118" lon="12.7735438"><ele>236.0</ele><time>2026-05-02T14:19:53.133Z</time></trkpt><trkpt lat="42.1215859" lon="12.7733031"><ele>236.0</ele><time>2026-05-02T14:19:54.981Z</time></trkpt><trkpt lat="42.1214453" lon="12.7731679"><ele>236.25</ele><time>2026-05-02T14:19:55.974Z</time></trkpt><trkpt lat="42.1213268" lon="12.7730506"><ele>236.5</ele><time>2026-05-02T14:19:56.976Z</time></trkpt><trkpt lat="42.1211838" lon="12.7729601"><ele>236.75</ele><time>2026-05-02T14:19:57.968Z</time></trkpt><trkpt lat="42.1210762" lon="12.7729001"><ele>237.0</ele><time>2026-05-02T14:19:58.968Z</time></trkpt><trkpt lat="42.1209683" lon="12.7728463"><ele>237.0</ele><time>2026-05-02T14:19:59.974Z</time></trkpt><trkpt lat="42.1208614" lon="12.7727854"><ele>237.0</ele><time>2026-05-02T14:20:00.995Z</time></trkpt><trkpt lat="42.1207767" lon="12.7727446"><ele>237.0</ele><time>2026-05-02T14:20:01.996Z</time></trkpt><trkpt lat="42.1207087" lon="12.7727008"><ele>237.0</ele><time>2026-05-02T14:20:02.965Z</time></trkpt><trkpt lat="42.1206504" lon="12.7726625"><ele>237.0</ele><time>2026-05-02T14:20:04.054Z</time></trkpt><trkpt lat="42.1205421" lon="12.7726507"><ele>237.0</ele><time>2026-05-02T14:20:06.992Z</time></trkpt><trkpt lat="42.1204699" lon="12.7727216"><ele>237.0</ele><time>2026-05-02T14:20:09.019Z</time></trkpt><trkpt lat="42.1203786" lon="12.7727199"><ele>237.0</ele><time>2026-05-02T14:20:10.961Z</time></trkpt><trkpt lat="42.1203245" lon="12.7725689"><ele>237.0</ele><time>2026-05-02T14:20:13.126Z</time></trkpt><trkpt lat="42.1202653" lon="12.7722953"><ele>237.2</ele><time>2026-05-02T14:20:14.992Z</time></trkpt><trkpt lat="42.1202158" lon="12.7721481"><ele>237.39999999999998</ele><time>2026-05-02T14:20:15.965Z</time></trkpt><trkpt lat="42.120164" lon="12.7720142"><ele>237.60000000000002</ele><time>2026-05-02T14:20:16.988Z</time></trkpt><trkpt lat="42.1201391" lon="12.7719281"><ele>237.8</ele><time>2026-05-02T14:20:17.994Z</time></trkpt><trkpt lat="42.1201242" lon="12.7718402"><ele>238.0</ele><time>2026-05-02T14:20:20.971Z</time></trkpt><trkpt lat="42.1200383" lon="12.7719289"><ele>238.0</ele><time>2026-05-02T14:20:23.967Z</time></trkpt><trkpt lat="42.1199919" lon="12.7720337"><ele>238.0</ele><time>2026-05-02T14:20:24.991Z</time></trkpt><trkpt lat="42.1199253" lon="12.7721506"><ele>238.0</ele><time>2026-05-02T14:20:25.984Z</time></trkpt><trkpt lat="42.1197784" lon="12.7723434"><ele>238.0</ele><time>2026-05-02T14:20:27.985Z</time></trkpt><trkpt lat="42.1197" lon="12.7724463"><ele>242.60000000000002</ele><time>2026-05-02T14:20:28.956Z</time></trkpt><trkpt lat="42.1196362" lon="12.7725435"><ele>247.20000000000002</ele><time>2026-05-02T14:20:29.966Z</time></trkpt><trkpt lat="42.1195743" lon="12.7725879"><ele>251.8</ele><time>2026-05-02T14:20:30.963Z</time></trkpt><trkpt lat="42.1194981" lon="12.7726574"><ele>256.40000000000003</ele><time>2026-05-02T14:20:33.965Z</time></trkpt><trkpt lat="42.1194831" lon="12.7724704"><ele>261.0</ele><time>2026-05-02T14:20:36.968Z</time></trkpt><trkpt lat="42.1195207" lon="12.7723323"><ele>261.0</ele><time>2026-05-02T14:20:37.966Z</time></trkpt><trkpt lat="42.1195551" lon="12.7721879"><ele>261.0</ele><time>2026-05-02T14:20:38.973Z</time></trkpt><trkpt lat="42.1195825" lon="12.772038"><ele>261.0</ele><time>2026-05-02T14:20:39.984Z</time></trkpt><trkpt lat="42.1195905" lon="12.7718785"><ele>261.0</ele><time>2026-05-02T14:20:40.971Z</time></trkpt><trkpt lat="42.1195767" lon="12.7717258"><ele>261.25</ele><time>2026-05-02T14:20:41.963Z</time></trkpt><trkpt lat="42.1195632" lon="12.7715631"><ele>261.5</ele><time>2026-05-02T14:20:42.969Z</time></trkpt><trkpt lat="42.1195181" lon="12.7714038"><ele>261.75</ele><time>2026-05-02T14:20:43.965Z</time></trkpt><trkpt lat="42.1194426" lon="12.771252"><ele>262.0</ele><time>2026-05-02T14:20:44.966Z</time></trkpt><trkpt lat="42.1193472" lon="12.7711167"><ele>259.3333333333333</ele><time>2026-05-02T14:20:45.966Z</time></trkpt><trkpt lat="42.1192392" lon="12.7709781"><ele>256.6666666666667</ele><time>2026-05-02T14:20:46.967Z</time></trkpt><trkpt lat="42.1191221" lon="12.770841"><ele>254.0</ele><time>2026-05-02T14:20:47.962Z</time></trkpt><trkpt lat="42.1190057" lon="12.770657"><ele>258.0</ele><time>2026-05-02T14:20:48.964Z</time></trkpt><trkpt lat="42.1189003" lon="12.7704905"><ele>262.0</ele><time>2026-05-02T14:20:49.962Z</time></trkpt><trkpt lat="42.1188172" lon="12.7703565"><ele>266.0</ele><time>2026-05-02T14:20:50.966Z</time></trkpt><trkpt lat="42.118735" lon="12.7701831"><ele>270.0</ele><time>2026-05-02T14:20:51.961Z</time></trkpt><trkpt lat="42.118663" lon="12.770014"><ele>270.0</ele><time>2026-05-02T14:20:52.961Z</time></trkpt><trkpt lat="42.1186192" lon="12.7698226"><ele>270.0</ele><time>2026-05-02T14:20:53.969Z</time></trkpt><trkpt lat="42.1185625" lon="12.7696578"><ele>270.0</ele><time>2026-05-02T14:20:54.965Z</time></trkpt><trkpt lat="42.1184099" lon="12.769527"><ele>270.0</ele><time>2026-05-02T14:20:55.965Z</time></trkpt><trkpt lat="42.1182542" lon="12.7693889"><ele>270.0</ele><time>2026-05-02T14:20:56.965Z</time></trkpt><trkpt lat="42.1181275" lon="12.7692546"><ele>270.0</ele><time>2026-05-02T14:20:57.978Z</time></trkpt><trkpt lat="42.1180241" lon="12.769142"><ele>271.0</ele><time>2026-05-02T14:20:58.965Z</time></trkpt><trkpt lat="42.1179315" lon="12.7690318"><ele>272.0</ele><time>2026-05-02T14:20:59.965Z</time></trkpt><trkpt lat="42.117855" lon="12.768908"><ele>273.0</ele><time>2026-05-02T14:21:00.968Z</time></trkpt><trkpt lat="42.117771" lon="12.7688296"><ele>274.0</ele><time>2026-05-02T14:21:01.97Z</time></trkpt><trkpt lat="42.117679" lon="12.7687682"><ele>275.0</ele><time>2026-05-02T14:21:02.973Z</time></trkpt><trkpt lat="42.1175571" lon="12.768729"><ele>272.5</ele><time>2026-05-02T14:21:03.972Z</time></trkpt><trkpt lat="42.1173931" lon="12.7687074"><ele>270.0</ele><time>2026-05-02T14:21:04.971Z</time></trkpt><trkpt lat="42.1172697" lon="12.7687117"><ele>267.5</ele><time>2026-05-02T14:21:05.964Z</time></trkpt><trkpt lat="42.1171273" lon="12.7687091"><ele>265.0</ele><time>2026-05-02T14:21:06.977Z</time></trkpt><trkpt lat="42.1170254" lon="12.7687193"><ele>264.99999999999994</ele><time>2026-05-02T14:21:07.969Z</time></trkpt><trkpt lat="42.1169467" lon="12.768758"><ele>265.0</ele><time>2026-05-02T14:21:08.971Z</time></trkpt><trkpt lat="42.116887" lon="12.7688113"><ele>265.0</ele><time>2026-05-02T14:21:09.973Z</time></trkpt><trkpt lat="42.1168311" lon="12.7688633"><ele>265.0</ele><time>2026-05-02T14:21:10.972Z</time></trkpt><trkpt lat="42.1167806" lon="12.7689185"><ele>265.0</ele><time>2026-05-02T14:21:11.969Z</time></trkpt><trkpt lat="42.1167299" lon="12.7689911"><ele>264.99999999999994</ele><time>2026-05-02T14:21:12.967Z</time></trkpt><trkpt lat="42.1166778" lon="12.769073"><ele>265.0</ele><time>2026-05-02T14:21:13.969Z</time></trkpt><trkpt lat="42.1166325" lon="12.7691526"><ele>265.0</ele><time>2026-05-02T14:21:14.968Z</time></trkpt><trkpt lat="42.1165863" lon="12.7692428"><ele>265.0</ele><time>2026-05-02T14:21:15.972Z</time></trkpt><trkpt lat="42.1165428" lon="12.7693467"><ele>265.0</ele><time>2026-05-02T14:21:16.969Z</time></trkpt><trkpt lat="42.1165045" lon="12.7694471"><ele>265.0</ele><time>2026-05-02T14:21:17.97Z</time></trkpt><trkpt lat="42.1164827" lon="12.7695521"><ele>265.0</ele><time>2026-05-02T14:21:18.973Z</time></trkpt><trkpt lat="42.1164677" lon="12.7696568"><ele>265.0</ele><time>2026-05-02T14:21:19.969Z</time></trkpt><trkpt lat="42.1164681" lon="12.769762"><ele>266.4</ele><time>2026-05-02T14:21:20.978Z</time></trkpt><trkpt lat="42.1164872" lon="12.769868"><ele>267.8</ele><time>2026-05-02T14:21:21.965Z</time></trkpt><trkpt lat="42.1165229" lon="12.7699586"><ele>269.2</ele><time>2026-05-02T14:21:22.972Z</time></trkpt><trkpt lat="42.1165532" lon="12.7700566"><ele>270.6</ele><time>2026-05-02T14:21:23.968Z</time></trkpt><trkpt lat="42.1165712" lon="12.7702234"><ele>272.0</ele><time>2026-05-02T14:21:25.971Z</time></trkpt><trkpt lat="42.1165639" lon="12.7703447"><ele>272.0</ele><time>2026-05-02T14:21:26.968Z</time></trkpt><trkpt lat="42.1165444" lon="12.7705041"><ele>272.0</ele><time>2026-05-02T14:21:27.964Z</time></trkpt><trkpt lat="42.116514" lon="12.7706703"><ele>272.0</ele><time>2026-05-02T14:21:28.961Z</time></trkpt><trkpt lat="42.1164639" lon="12.7708411"><ele>272.0</ele><time>2026-05-02T14:21:29.966Z</time></trkpt><trkpt lat="42.1164153" lon="12.7710356"><ele>275.5</ele><time>2026-05-02T14:21:30.967Z</time></trkpt><trkpt lat="42.1163526" lon="12.7712075"><ele>279.0</ele><time>2026-05-02T14:21:31.971Z</time></trkpt><trkpt lat="42.1162856" lon="12.7713663"><ele>282.5</ele><time>2026-05-02T14:21:32.971Z</time></trkpt><trkpt lat="42.1162245" lon="12.7715186"><ele>286.0</ele><time>2026-05-02T14:21:33.967Z</time></trkpt><trkpt lat="42.1161952" lon="12.7716404"><ele>286.0</ele><time>2026-05-02T14:21:34.965Z</time></trkpt><trkpt lat="42.1161844" lon="12.7718069"><ele>286.0</ele><time>2026-05-02T14:21:35.985Z</time></trkpt><trkpt lat="42.1162281" lon="12.7719534"><ele>286.0</ele><time>2026-05-02T14:21:36.97Z</time></trkpt><trkpt lat="42.116297" lon="12.7721096"><ele>286.0</ele><time>2026-05-02T14:21:37.962Z</time></trkpt><trkpt lat="42.1163703" lon="12.772237"><ele>286.40000000000003</ele><time>2026-05-02T14:21:38.965Z</time></trkpt><trkpt lat="42.1164152" lon="12.7723674"><ele>286.8</ele><time>2026-05-02T14:21:39.96Z</time></trkpt><trkpt lat="42.1164464" lon="12.7725014"><ele>287.20000000000005</ele><time>2026-05-02T14:21:40.959Z</time></trkpt><trkpt lat="42.1164633" lon="12.7726116"><ele>287.6</ele><time>2026-05-02T14:21:41.966Z</time></trkpt><trkpt lat="42.1164457" lon="12.7727383"><ele>288.0</ele><time>2026-05-02T14:21:42.962Z</time></trkpt><trkpt lat="42.1163922" lon="12.7728505"><ele>288.0</ele><time>2026-05-02T14:21:43.962Z</time></trkpt><trkpt lat="42.1163104" lon="12.77292"><ele>288.0</ele><time>2026-05-02T14:21:44.964Z</time></trkpt><trkpt lat="42.116202" lon="12.7729649"><ele>288.0</ele><time>2026-05-02T14:21:45.966Z</time></trkpt><trkpt lat="42.1160491" lon="12.7729732"><ele>288.0</ele><time>2026-05-02T14:21:46.966Z</time></trkpt><trkpt lat="42.1159303" lon="12.7730012"><ele>288.0</ele><time>2026-05-02T14:21:47.972Z</time></trkpt><trkpt lat="42.1158165" lon="12.7730337"><ele>288.0</ele><time>2026-05-02T14:21:48.964Z</time></trkpt><trkpt lat="42.1156929" lon="12.7730432"><ele>288.0</ele><time>2026-05-02T14:21:49.975Z</time></trkpt><trkpt lat="42.1155502" lon="12.7730243"><ele>288.0</ele><time>2026-05-02T14:21:50.959Z</time></trkpt><trkpt lat="42.1154101" lon="12.7729945"><ele>287.5</ele><time>2026-05-02T14:21:51.979Z</time></trkpt><trkpt lat="42.115271" lon="12.7729665"><ele>287.0</ele><time>2026-05-02T14:21:52.968Z</time></trkpt><trkpt lat="42.1151314" lon="12.7729427"><ele>286.5</ele><time>2026-05-02T14:21:53.993Z</time></trkpt><trkpt lat="42.1150058" lon="12.7729148"><ele>286.0</ele><time>2026-05-02T14:21:54.987Z</time></trkpt><trkpt lat="42.1148776" lon="12.7728866"><ele>286.0</ele><time>2026-05-02T14:21:55.966Z</time></trkpt><trkpt lat="42.1147475" lon="12.7728734"><ele>286.0</ele><time>2026-05-02T14:21:56.966Z</time></trkpt><trkpt lat="42.1146156" lon="12.7728798"><ele>286.0</ele><time>2026-05-02T14:21:57.963Z</time></trkpt><trkpt lat="42.1144996" lon="12.7728944"><ele>286.0</ele><time>2026-05-02T14:21:58.964Z</time></trkpt><trkpt lat="42.1143599" lon="12.7729263"><ele>286.0</ele><time>2026-05-02T14:21:59.966Z</time></trkpt><trkpt lat="42.1142279" lon="12.7729931"><ele>286.0</ele><time>2026-05-02T14:22:00.961Z</time></trkpt><trkpt lat="42.1141137" lon="12.773062"><ele>286.0</ele><time>2026-05-02T14:22:01.973Z</time></trkpt><trkpt lat="42.114012" lon="12.7731271"><ele>286.0</ele><time>2026-05-02T14:22:02.967Z</time></trkpt><trkpt lat="42.1139099" lon="12.7731914"><ele>286.25</ele><time>2026-05-02T14:22:03.97Z</time></trkpt><trkpt lat="42.1137891" lon="12.773272"><ele>286.5</ele><time>2026-05-02T14:22:04.965Z</time></trkpt><trkpt lat="42.1136596" lon="12.7733774"><ele>286.75</ele><time>2026-05-02T14:22:05.968Z</time></trkpt><trkpt lat="42.1135456" lon="12.7735272"><ele>287.0</ele><time>2026-05-02T14:22:06.97Z</time></trkpt><trkpt lat="42.1134567" lon="12.7737002"><ele>287.0</ele><time>2026-05-02T14:22:07.969Z</time></trkpt><trkpt lat="42.1133347" lon="12.7738691"><ele>287.0</ele><time>2026-05-02T14:22:08.969Z</time></trkpt><trkpt lat="42.1132271" lon="12.7740311"><ele>287.0</ele><time>2026-05-02T14:22:09.966Z</time></trkpt><trkpt lat="42.1131195" lon="12.7742039"><ele>283.6666666666667</ele><time>2026-05-02T14:22:10.987Z</time></trkpt><trkpt lat="42.1130109" lon="12.7743525"><ele>280.3333333333333</ele><time>2026-05-02T14:22:11.966Z</time></trkpt><trkpt lat="42.112836" lon="12.7744948"><ele>277.0</ele><time>2026-05-02T14:22:12.969Z</time></trkpt><trkpt lat="42.1126352" lon="12.7745925"><ele>282.3333333333333</ele><time>2026-05-02T14:22:13.959Z</time></trkpt><trkpt lat="42.1124316" lon="12.7746283"><ele>287.6666666666667</ele><time>2026-05-02T14:22:14.961Z</time></trkpt><trkpt lat="42.1123034" lon="12.7745974"><ele>293.0</ele><time>2026-05-02T14:22:15.969Z</time></trkpt><trkpt lat="42.1121608" lon="12.7745754"><ele>293.0</ele><time>2026-05-02T14:22:16.965Z</time></trkpt><trkpt lat="42.1119846" lon="12.7745106"><ele>293.0</ele><time>2026-05-02T14:22:17.963Z</time></trkpt><trkpt lat="42.1118278" lon="12.7744935"><ele>293.0</ele><time>2026-05-02T14:22:18.968Z</time></trkpt><trkpt lat="42.111684" lon="12.7744428"><ele>293.25</ele><time>2026-05-02T14:22:19.963Z</time></trkpt><trkpt lat="42.1115576" lon="12.7744224"><ele>293.5</ele><time>2026-05-02T14:22:20.964Z</time></trkpt><trkpt lat="42.1114342" lon="12.7744425"><ele>293.75</ele><time>2026-05-02T14:22:21.969Z</time></trkpt><trkpt lat="42.1112739" lon="12.7744644"><ele>294.0</ele><time>2026-05-02T14:22:22.965Z</time></trkpt><trkpt lat="42.1111509" lon="12.7744576"><ele>294.0</ele><time>2026-05-02T14:22:23.964Z</time></trkpt><trkpt lat="42.1110106" lon="12.7744449"><ele>294.0</ele><time>2026-05-02T14:22:24.969Z</time></trkpt><trkpt lat="42.1108433" lon="12.7743892"><ele>294.0</ele><time>2026-05-02T14:22:25.968Z</time></trkpt><trkpt lat="42.1106968" lon="12.7742834"><ele>290.0</ele><time>2026-05-02T14:22:26.977Z</time></trkpt><trkpt lat="42.1105493" lon="12.7741741"><ele>286.0</ele><time>2026-05-02T14:22:27.972Z</time></trkpt><trkpt lat="42.110392" lon="12.7740854"><ele>282.0</ele><time>2026-05-02T14:22:28.972Z</time></trkpt><trkpt lat="42.1102144" lon="12.7740037"><ele>282.0</ele><time>2026-05-02T14:22:29.966Z</time></trkpt><trkpt lat="42.1100501" lon="12.7739307"><ele>282.0</ele><time>2026-05-02T14:22:30.979Z</time></trkpt><trkpt lat="42.1098932" lon="12.7738444"><ele>282.0</ele><time>2026-05-02T14:22:31.976Z</time></trkpt><trkpt lat="42.1097634" lon="12.7737478"><ele>280.6666666666667</ele><time>2026-05-02T14:22:32.969Z</time></trkpt><trkpt lat="42.1096384" lon="12.7736236"><ele>279.33333333333337</ele><time>2026-05-02T14:22:33.981Z</time></trkpt><trkpt lat="42.1095076" lon="12.7734637"><ele>278.0</ele><time>2026-05-02T14:22:34.969Z</time></trkpt><trkpt lat="42.1094038" lon="12.7732855"><ele>278.0</ele><time>2026-05-02T14:22:35.962Z</time></trkpt><trkpt lat="42.1093266" lon="12.7731201"><ele>278.0</ele><time>2026-05-02T14:22:36.976Z</time></trkpt><trkpt lat="42.1092604" lon="12.7729622"><ele>278.0</ele><time>2026-05-02T14:22:37.977Z</time></trkpt><trkpt lat="42.1091738" lon="12.7727685"><ele>278.0</ele><time>2026-05-02T14:22:38.977Z</time></trkpt><trkpt lat="42.1090509" lon="12.7725672"><ele>276.33333333333337</ele><time>2026-05-02T14:22:39.972Z</time></trkpt><trkpt lat="42.1089141" lon="12.7723829"><ele>274.6666666666667</ele><time>2026-05-02T14:22:40.971Z</time></trkpt><trkpt lat="42.1087825" lon="12.7722548"><ele>273.0</ele><time>2026-05-02T14:22:41.975Z</time></trkpt><trkpt lat="42.1086209" lon="12.7721545"><ele>273.0</ele><time>2026-05-02T14:22:42.968Z</time></trkpt><trkpt lat="42.1084323" lon="12.7720686"><ele>273.0</ele><time>2026-05-02T14:22:43.978Z</time></trkpt><trkpt lat="42.1082077" lon="12.7719805"><ele>273.0</ele><time>2026-05-02T14:22:44.979Z</time></trkpt><trkpt lat="42.1079814" lon="12.7719028"><ele>272.6666666666667</ele><time>2026-05-02T14:22:45.976Z</time></trkpt><trkpt lat="42.1077679" lon="12.7718785"><ele>272.33333333333337</ele><time>2026-05-02T14:22:46.974Z</time></trkpt><trkpt lat="42.1075633" lon="12.7718505"><ele>272.0</ele><time>2026-05-02T14:22:47.977Z</time></trkpt><trkpt lat="42.1073447" lon="12.771853"><ele>269.5</ele><time>2026-05-02T14:22:48.974Z</time></trkpt><trkpt lat="42.1071226" lon="12.7718846"><ele>267.0</ele><time>2026-05-02T14:22:49.972Z</time></trkpt><trkpt lat="42.1068964" lon="12.771898"><ele>267.0</ele><time>2026-05-02T14:22:50.972Z</time></trkpt><trkpt lat="42.1067002" lon="12.7719013"><ele>267.0</ele><time>2026-05-02T14:22:51.981Z</time></trkpt><trkpt lat="42.1065031" lon="12.7719337"><ele>267.0</ele><time>2026-05-02T14:22:52.971Z</time></trkpt><trkpt lat="42.1062945" lon="12.7719522"><ele>265.3333333333333</ele><time>2026-05-02T14:22:53.973Z</time></trkpt><trkpt lat="42.1061189" lon="12.7719657"><ele>263.66666666666663</ele><time>2026-05-02T14:22:54.973Z</time></trkpt><trkpt lat="42.1059447" lon="12.7719953"><ele>262.0</ele><time>2026-05-02T14:22:55.977Z</time></trkpt><trkpt lat="42.1057949" lon="12.7720383"><ele>258.0</ele><time>2026-05-02T14:22:56.973Z</time></trkpt><trkpt lat="42.1056531" lon="12.7721256"><ele>254.0</ele><time>2026-05-02T14:22:57.976Z</time></trkpt><trkpt lat="42.1055244" lon="12.7722582"><ele>250.0</ele><time>2026-05-02T14:22:58.972Z</time></trkpt><trkpt lat="42.1054061" lon="12.7724003"><ele>250.0</ele><time>2026-05-02T14:22:59.982Z</time></trkpt><trkpt lat="42.105307" lon="12.7725882"><ele>250.0</ele><time>2026-05-02T14:23:00.978Z</time></trkpt><trkpt lat="42.105212" lon="12.7727869"><ele>250.0</ele><time>2026-05-02T14:23:01.973Z</time></trkpt><trkpt lat="42.1051381" lon="12.7729815"><ele>251.0</ele><time>2026-05-02T14:23:02.981Z</time></trkpt><trkpt lat="42.1050415" lon="12.7731572"><ele>252.0</ele><time>2026-05-02T14:23:03.969Z</time></trkpt><trkpt lat="42.1049263" lon="12.7732864"><ele>253.0</ele><time>2026-05-02T14:23:04.978Z</time></trkpt><trkpt lat="42.104776" lon="12.7733742"><ele>253.0</ele><time>2026-05-02T14:23:05.978Z</time></trkpt><trkpt lat="42.1046065" lon="12.7733635"><ele>253.0</ele><time>2026-05-02T14:23:06.975Z</time></trkpt><trkpt lat="42.1044028" lon="12.7733739"><ele>253.0</ele><time>2026-05-02T14:23:07.975Z</time></trkpt><trkpt lat="42.1041925" lon="12.7734022"><ele>250.5</ele><time>2026-05-02T14:23:08.974Z</time></trkpt><trkpt lat="42.1039803" lon="12.7734572"><ele>248.0</ele><time>2026-05-02T14:23:09.971Z</time></trkpt><trkpt lat="42.1037534" lon="12.7735462"><ele>256.5</ele><time>2026-05-02T14:23:10.97Z</time></trkpt><trkpt lat="42.1035274" lon="12.7736274"><ele>265.0</ele><time>2026-05-02T14:23:11.97Z</time></trkpt><trkpt lat="42.1033165" lon="12.7737142"><ele>263.0</ele><time>2026-05-02T14:23:12.973Z</time></trkpt><trkpt lat="42.1031499" lon="12.7738298"><ele>261.0</ele><time>2026-05-02T14:23:13.972Z</time></trkpt><trkpt lat="42.1029867" lon="12.7739196"><ele>259.0</ele><time>2026-05-02T14:23:14.981Z</time></trkpt><trkpt lat="42.1027903" lon="12.7739491"><ele>259.0</ele><time>2026-05-02T14:23:15.968Z</time></trkpt><trkpt lat="42.1025754" lon="12.7739587"><ele>259.0</ele><time>2026-05-02T14:23:16.977Z</time></trkpt><trkpt lat="42.1023838" lon="12.7739872"><ele>259.0</ele><time>2026-05-02T14:23:17.97Z</time></trkpt><trkpt lat="42.1022098" lon="12.7740375"><ele>257.3333333333333</ele><time>2026-05-02T14:23:18.972Z</time></trkpt><trkpt lat="42.1020142" lon="12.7741231"><ele>255.66666666666669</ele><time>2026-05-02T14:23:19.974Z</time></trkpt><trkpt lat="42.1018255" lon="12.7742503"><ele>254.0</ele><time>2026-05-02T14:23:20.977Z</time></trkpt><trkpt lat="42.1016554" lon="12.7743796"><ele>255.66666666666669</ele><time>2026-05-02T14:23:21.975Z</time></trkpt><trkpt lat="42.1014915" lon="12.7744882"><ele>257.3333333333333</ele><time>2026-05-02T14:23:22.972Z</time></trkpt><trkpt lat="42.1013366" lon="12.7745748"><ele>259.0</ele><time>2026-05-02T14:23:23.974Z</time></trkpt><trkpt lat="42.1011778" lon="12.7746577"><ele>259.0</ele><time>2026-05-02T14:23:24.968Z</time></trkpt><trkpt lat="42.1010178" lon="12.7747403"><ele>259.0</ele><time>2026-05-02T14:23:25.98Z</time></trkpt><trkpt lat="42.1008771" lon="12.7748434"><ele>259.0</ele><time>2026-05-02T14:23:26.969Z</time></trkpt><trkpt lat="42.1007331" lon="12.7749752"><ele>261.5</ele><time>2026-05-02T14:23:27.974Z</time></trkpt><trkpt lat="42.1005451" lon="12.7751635"><ele>264.0</ele><time>2026-05-02T14:23:28.975Z</time></trkpt><trkpt lat="42.1003634" lon="12.7753483"><ele>264.0</ele><time>2026-05-02T14:23:29.975Z</time></trkpt><trkpt lat="42.1001579" lon="12.7755134"><ele>264.0</ele><time>2026-05-02T14:23:30.978Z</time></trkpt><trkpt lat="42.0999732" lon="12.7756908"><ele>265.5</ele><time>2026-05-02T14:23:31.977Z</time></trkpt><trkpt lat="42.0997415" lon="12.7758548"><ele>267.0</ele><time>2026-05-02T14:23:32.976Z</time></trkpt><trkpt lat="42.0995452" lon="12.7760227"><ele>267.0</ele><time>2026-05-02T14:23:33.974Z</time></trkpt><trkpt lat="42.0993488" lon="12.7761817"><ele>267.0</ele><time>2026-05-02T14:23:34.969Z</time></trkpt><trkpt lat="42.0991506" lon="12.776334"><ele>265.0</ele><time>2026-05-02T14:23:35.972Z</time></trkpt><trkpt lat="42.0989798" lon="12.7764591"><ele>263.0</ele><time>2026-05-02T14:23:36.973Z</time></trkpt><trkpt lat="42.0988084" lon="12.7765455"><ele>261.0</ele><time>2026-05-02T14:23:37.976Z</time></trkpt><trkpt lat="42.098636" lon="12.7766523"><ele>261.0</ele><time>2026-05-02T14:23:38.965Z</time></trkpt><trkpt lat="42.0984693" lon="12.7767274"><ele>261.0</ele><time>2026-05-02T14:23:39.982Z</time></trkpt><trkpt lat="42.0982839" lon="12.7767611"><ele>261.0</ele><time>2026-05-02T14:23:40.973Z</time></trkpt><trkpt lat="42.0981035" lon="12.7767631"><ele>259.3333333333333</ele><time>2026-05-02T14:23:41.971Z</time></trkpt><trkpt lat="42.0979279" lon="12.7767457"><ele>257.66666666666663</ele><time>2026-05-02T14:23:42.97Z</time></trkpt><trkpt lat="42.0977713" lon="12.7767327"><ele>256.0</ele><time>2026-05-02T14:23:43.97Z</time></trkpt><trkpt lat="42.0976278" lon="12.7767919"><ele>257.66666666666663</ele><time>2026-05-02T14:23:44.98Z</time></trkpt><trkpt lat="42.097479" lon="12.7769189"><ele>259.3333333333333</ele><time>2026-05-02T14:23:45.968Z</time></trkpt><trkpt lat="42.0973083" lon="12.7770559"><ele>261.0</ele><time>2026-05-02T14:23:46.967Z</time></trkpt><trkpt lat="42.0971591" lon="12.7771845"><ele>261.0</ele><time>2026-05-02T14:23:47.97Z</time></trkpt><trkpt lat="42.097008" lon="12.7773435"><ele>261.0</ele><time>2026-05-02T14:23:48.974Z</time></trkpt><trkpt lat="42.0968693" lon="12.777491"><ele>261.0</ele><time>2026-05-02T14:23:49.977Z</time></trkpt><trkpt lat="42.0967325" lon="12.777649"><ele>262.6666666666667</ele><time>2026-05-02T14:23:50.971Z</time></trkpt><trkpt lat="42.096599" lon="12.7777927"><ele>264.33333333333337</ele><time>2026-05-02T14:23:51.976Z</time></trkpt><trkpt lat="42.0964658" lon="12.7779162"><ele>266.0</ele><time>2026-05-02T14:23:52.968Z</time></trkpt><trkpt lat="42.0963279" lon="12.7780067"><ele>266.0</ele><time>2026-05-02T14:23:53.972Z</time></trkpt><trkpt lat="42.0961974" lon="12.7780536"><ele>266.0</ele><time>2026-05-02T14:23:54.971Z</time></trkpt><trkpt lat="42.0960574" lon="12.7780579"><ele>266.0</ele><time>2026-05-02T14:23:55.967Z</time></trkpt><trkpt lat="42.0959" lon="12.7780296"><ele>266.0</ele><time>2026-05-02T14:23:56.969Z</time></trkpt><trkpt lat="42.0957519" lon="12.7779482"><ele>265.6666666666667</ele><time>2026-05-02T14:23:57.985Z</time></trkpt><trkpt lat="42.0956063" lon="12.7778486"><ele>265.3333333333333</ele><time>2026-05-02T14:23:58.965Z</time></trkpt><trkpt lat="42.0954831" lon="12.777707"><ele>265.0</ele><time>2026-05-02T14:23:59.973Z</time></trkpt><trkpt lat="42.0953562" lon="12.7776038"><ele>265.0</ele><time>2026-05-02T14:24:00.976Z</time></trkpt><trkpt lat="42.0952324" lon="12.7774997"><ele>265.0</ele><time>2026-05-02T14:24:01.97Z</time></trkpt><trkpt lat="42.0951031" lon="12.7773728"><ele>265.0</ele><time>2026-05-02T14:24:02.976Z</time></trkpt><trkpt lat="42.0949692" lon="12.7772826"><ele>265.0</ele><time>2026-05-02T14:24:03.969Z</time></trkpt><trkpt lat="42.0948688" lon="12.777182"><ele>265.0</ele><time>2026-05-02T14:24:04.969Z</time></trkpt><trkpt lat="42.0947509" lon="12.7770612"><ele>265.0</ele><time>2026-05-02T14:24:05.973Z</time></trkpt><trkpt lat="42.0946579" lon="12.776928"><ele>265.0</ele><time>2026-05-02T14:24:06.965Z</time></trkpt><trkpt lat="42.0946011" lon="12.7767977"><ele>264.5</ele><time>2026-05-02T14:24:07.977Z</time></trkpt><trkpt lat="42.0945627" lon="12.7766384"><ele>264.0</ele><time>2026-05-02T14:24:08.974Z</time></trkpt><trkpt lat="42.0945317" lon="12.7764736"><ele>263.5</ele><time>2026-05-02T14:24:09.969Z</time></trkpt><trkpt lat="42.0945367" lon="12.7762486"><ele>263.0</ele><time>2026-05-02T14:24:10.973Z</time></trkpt><trkpt lat="42.0945826" lon="12.7760209"><ele>261.6666666666667</ele><time>2026-05-02T14:24:11.975Z</time></trkpt><trkpt lat="42.0946622" lon="12.7757718"><ele>260.3333333333333</ele><time>2026-05-02T14:24:12.969Z</time></trkpt><trkpt lat="42.0947306" lon="12.7755504"><ele>259.0</ele><time>2026-05-02T14:24:14.002Z</time></trkpt><trkpt lat="42.0947975" lon="12.7753509"><ele>256.66666666666663</ele><time>2026-05-02T14:24:14.975Z</time></trkpt><trkpt lat="42.0948287" lon="12.7751498"><ele>254.33333333333331</ele><time>2026-05-02T14:24:15.984Z</time></trkpt><trkpt lat="42.0948345" lon="12.7749357"><ele>252.0</ele><time>2026-05-02T14:24:16.983Z</time></trkpt><trkpt lat="42.0948066" lon="12.7747204"><ele>252.0</ele><time>2026-05-02T14:24:17.97Z</time></trkpt><trkpt lat="42.0947573" lon="12.7745412"><ele>252.0</ele><time>2026-05-02T14:24:18.979Z</time></trkpt><trkpt lat="42.0947328" lon="12.7743785"><ele>252.0</ele><time>2026-05-02T14:24:19.978Z</time></trkpt><trkpt lat="42.0947411" lon="12.7741912"><ele>252.0</ele><time>2026-05-02T14:24:20.974Z</time></trkpt><trkpt lat="42.0947663" lon="12.7739866"><ele>251.0</ele><time>2026-05-02T14:24:21.974Z</time></trkpt><trkpt lat="42.0948193" lon="12.7738042"><ele>250.0</ele><time>2026-05-02T14:24:22.982Z</time></trkpt><trkpt lat="42.0948557" lon="12.7736384"><ele>249.0</ele><time>2026-05-02T14:24:23.984Z</time></trkpt><trkpt lat="42.0948122" lon="12.7734909"><ele>248.0</ele><time>2026-05-02T14:24:24.979Z</time></trkpt><trkpt lat="42.094778" lon="12.7733756"><ele>248.0</ele><time>2026-05-02T14:24:25.984Z</time></trkpt><trkpt lat="42.0946957" lon="12.7732968"><ele>248.0</ele><time>2026-05-02T14:24:26.972Z</time></trkpt><trkpt lat="42.0945784" lon="12.7732196"><ele>248.0</ele><time>2026-05-02T14:24:27.979Z</time></trkpt><trkpt lat="42.0944493" lon="12.7731597"><ele>248.0</ele><time>2026-05-02T14:24:28.981Z</time></trkpt><trkpt lat="42.094301" lon="12.7730865"><ele>248.0</ele><time>2026-05-02T14:24:29.978Z</time></trkpt><trkpt lat="42.0941142" lon="12.7730325"><ele>248.0</ele><time>2026-05-02T14:24:30.98Z</time></trkpt><trkpt lat="42.0939907" lon="12.7729911"><ele>248.0</ele><time>2026-05-02T14:24:31.985Z</time></trkpt><trkpt lat="42.0938668" lon="12.7729793"><ele>248.0</ele><time>2026-05-02T14:24:32.974Z</time></trkpt><trkpt lat="42.0937308" lon="12.773044"><ele>250.66666666666669</ele><time>2026-05-02T14:24:33.976Z</time></trkpt><trkpt lat="42.0936004" lon="12.7731798"><ele>253.33333333333331</ele><time>2026-05-02T14:24:34.97Z</time></trkpt><trkpt lat="42.0934708" lon="12.7733445"><ele>256.0</ele><time>2026-05-02T14:24:35.97Z</time></trkpt><trkpt lat="42.0933373" lon="12.7735497"><ele>256.0</ele><time>2026-05-02T14:24:36.976Z</time></trkpt><trkpt lat="42.0932569" lon="12.7737446"><ele>256.0</ele><time>2026-05-02T14:24:37.974Z</time></trkpt><trkpt lat="42.0931633" lon="12.773923"><ele>256.0</ele><time>2026-05-02T14:24:38.969Z</time></trkpt><trkpt lat="42.0930538" lon="12.7741153"><ele>259.0</ele><time>2026-05-02T14:24:39.979Z</time></trkpt><trkpt lat="42.0929507" lon="12.7742824"><ele>262.0</ele><time>2026-05-02T14:24:40.978Z</time></trkpt><trkpt lat="42.092854" lon="12.7744403"><ele>265.0</ele><time>2026-05-02T14:24:41.973Z</time></trkpt><trkpt lat="42.0927587" lon="12.7746177"><ele>265.0</ele><time>2026-05-02T14:24:42.982Z</time></trkpt><trkpt lat="42.0926457" lon="12.7747945"><ele>265.0</ele><time>2026-05-02T14:24:43.973Z</time></trkpt><trkpt lat="42.092471" lon="12.7750057"><ele>265.0</ele><time>2026-05-02T14:24:44.974Z</time></trkpt><trkpt lat="42.0923155" lon="12.7751662"><ele>267.3333333333333</ele><time>2026-05-02T14:24:45.98Z</time></trkpt><trkpt lat="42.0921875" lon="12.7753183"><ele>269.6666666666667</ele><time>2026-05-02T14:24:46.99Z</time></trkpt><trkpt lat="42.0920766" lon="12.7754782"><ele>272.0</ele><time>2026-05-02T14:24:47.981Z</time></trkpt><trkpt lat="42.0919944" lon="12.7756121"><ele>272.0</ele><time>2026-05-02T14:24:48.982Z</time></trkpt><trkpt lat="42.0919173" lon="12.7757305"><ele>272.0</ele><time>2026-05-02T14:24:49.989Z</time></trkpt><trkpt lat="42.0918431" lon="12.7758317"><ele>272.0</ele><time>2026-05-02T14:24:50.981Z</time></trkpt><trkpt lat="42.0917304" lon="12.7759014"><ele>272.0</ele><time>2026-05-02T14:24:51.983Z</time></trkpt><trkpt lat="42.0916688" lon="12.7758476"><ele>272.0</ele><time>2026-05-02T14:24:52.977Z</time></trkpt><trkpt lat="42.091593" lon="12.7757342"><ele>274.25</ele><time>2026-05-02T14:24:54.006Z</time></trkpt><trkpt lat="42.0915027" lon="12.7756307"><ele>276.5</ele><time>2026-05-02T14:24:54.97Z</time></trkpt><trkpt lat="42.0914303" lon="12.7755383"><ele>278.75</ele><time>2026-05-02T14:24:55.974Z</time></trkpt><trkpt lat="42.0913458" lon="12.7754132"><ele>281.0</ele><time>2026-05-02T14:24:56.97Z</time></trkpt><trkpt lat="42.0912348" lon="12.7753079"><ele>280.75</ele><time>2026-05-02T14:24:57.966Z</time></trkpt><trkpt lat="42.0910976" lon="12.7751855"><ele>280.5</ele><time>2026-05-02T14:24:58.974Z</time></trkpt><trkpt lat="42.0909485" lon="12.7751033"><ele>280.25</ele><time>2026-05-02T14:24:59.973Z</time></trkpt><trkpt lat="42.0908432" lon="12.7750504"><ele>280.0</ele><time>2026-05-02T14:25:00.973Z</time></trkpt><trkpt lat="42.0907445" lon="12.7750042"><ele>279.66666666666663</ele><time>2026-05-02T14:25:01.977Z</time></trkpt><trkpt lat="42.0906773" lon="12.7749564"><ele>279.3333333333333</ele><time>2026-05-02T14:25:02.969Z</time></trkpt><trkpt lat="42.0906487" lon="12.7748771"><ele>279.0</ele><time>2026-05-02T14:25:03.974Z</time></trkpt><trkpt lat="42.0905728" lon="12.7748047"><ele>278.6666666666667</ele><time>2026-05-02T14:25:04.977Z</time></trkpt><trkpt lat="42.0905064" lon="12.7747681"><ele>278.33333333333337</ele><time>2026-05-02T14:25:05.976Z</time></trkpt><trkpt lat="42.0904227" lon="12.7747405"><ele>278.0</ele><time>2026-05-02T14:25:06.973Z</time></trkpt><trkpt lat="42.0903405" lon="12.7747225"><ele>278.0</ele><time>2026-05-02T14:25:07.978Z</time></trkpt><trkpt lat="42.0902549" lon="12.7747044"><ele>278.0</ele><time>2026-05-02T14:25:08.976Z</time></trkpt><trkpt lat="42.0901449" lon="12.7746851"><ele>278.0</ele><time>2026-05-02T14:25:09.994Z</time></trkpt><trkpt lat="42.0899997" lon="12.7746831"><ele>278.0</ele><time>2026-05-02T14:25:10.975Z</time></trkpt><trkpt lat="42.0898365" lon="12.7747235"><ele>275.33333333333337</ele><time>2026-05-02T14:25:12.019Z</time></trkpt><trkpt lat="42.089613" lon="12.7748212"><ele>272.6666666666667</ele><time>2026-05-02T14:25:13.003Z</time></trkpt><trkpt lat="42.0894353" lon="12.7749008"><ele>270.0</ele><time>2026-05-02T14:25:14.016Z</time></trkpt><trkpt lat="42.0892802" lon="12.7749647"><ele>270.0</ele><time>2026-05-02T14:25:14.977Z</time></trkpt><trkpt lat="42.0891021" lon="12.7750428"><ele>270.0</ele><time>2026-05-02T14:25:15.98Z</time></trkpt><trkpt lat="42.0889678" lon="12.7751103"><ele>270.0</ele><time>2026-05-02T14:25:16.983Z</time></trkpt><trkpt lat="42.0888118" lon="12.7751769"><ele>270.3333333333333</ele><time>2026-05-02T14:25:17.989Z</time></trkpt><trkpt lat="42.0886907" lon="12.7752835"><ele>270.66666666666663</ele><time>2026-05-02T14:25:18.989Z</time></trkpt><trkpt lat="42.0885539" lon="12.7754749"><ele>271.0</ele><time>2026-05-02T14:25:19.99Z</time></trkpt><trkpt lat="42.088438" lon="12.7756847"><ele>271.0</ele><time>2026-05-02T14:25:20.979Z</time></trkpt><trkpt lat="42.0883118" lon="12.7758526"><ele>271.0</ele><time>2026-05-02T14:25:21.987Z</time></trkpt><trkpt lat="42.0881919" lon="12.7759609"><ele>271.0</ele><time>2026-05-02T14:25:22.987Z</time></trkpt><trkpt lat="42.0880642" lon="12.7760199"><ele>271.66666666666663</ele><time>2026-05-02T14:25:23.981Z</time></trkpt><trkpt lat="42.0879274" lon="12.7760112"><ele>272.3333333333333</ele><time>2026-05-02T14:25:24.98Z</time></trkpt><trkpt lat="42.0877698" lon="12.7759697"><ele>273.0</ele><time>2026-05-02T14:25:25.98Z</time></trkpt><trkpt lat="42.0876239" lon="12.7758829"><ele>273.0</ele><time>2026-05-02T14:25:26.985Z</time></trkpt><trkpt lat="42.087484" lon="12.7757941"><ele>273.0</ele><time>2026-05-02T14:25:27.973Z</time></trkpt><trkpt lat="42.087342" lon="12.7757228"><ele>273.0</ele><time>2026-05-02T14:25:28.984Z</time></trkpt><trkpt lat="42.0871911" lon="12.7755956"><ele>275.3333333333333</ele><time>2026-05-02T14:25:29.979Z</time></trkpt><trkpt lat="42.0870503" lon="12.775459"><ele>277.66666666666663</ele><time>2026-05-02T14:25:30.979Z</time></trkpt><trkpt lat="42.0869325" lon="12.7753261"><ele>280.0</ele><time>2026-05-02T14:25:31.984Z</time></trkpt><trkpt lat="42.0868173" lon="12.7752465"><ele>279.0</ele><time>2026-05-02T14:25:32.979Z</time></trkpt><trkpt lat="42.0866703" lon="12.7751789"><ele>278.0</ele><time>2026-05-02T14:25:33.977Z</time></trkpt><trkpt lat="42.0865124" lon="12.7751193"><ele>277.0</ele><time>2026-05-02T14:25:34.975Z</time></trkpt><trkpt lat="42.0863711" lon="12.7750145"><ele>277.0</ele><time>2026-05-02T14:25:35.976Z</time></trkpt><trkpt lat="42.0862712" lon="12.7749"><ele>277.0</ele><time>2026-05-02T14:25:36.973Z</time></trkpt><trkpt lat="42.0861591" lon="12.7747784"><ele>277.0</ele><time>2026-05-02T14:25:37.973Z</time></trkpt><trkpt lat="42.0860884" lon="12.7746092"><ele>277.0</ele><time>2026-05-02T14:25:38.972Z</time></trkpt><trkpt lat="42.0860147" lon="12.7744141"><ele>275.0</ele><time>2026-05-02T14:25:39.967Z</time></trkpt><trkpt lat="42.0859347" lon="12.7742289"><ele>273.0</ele><time>2026-05-02T14:25:40.973Z</time></trkpt><trkpt lat="42.0858558" lon="12.7740801"><ele>271.0</ele><time>2026-05-02T14:25:41.977Z</time></trkpt><trkpt lat="42.085798" lon="12.7739659"><ele>269.0</ele><time>2026-05-02T14:25:42.98Z</time></trkpt><trkpt lat="42.085682" lon="12.7738879"><ele>267.33333333333337</ele><time>2026-05-02T14:25:43.977Z</time></trkpt><trkpt lat="42.0855356" lon="12.7738399"><ele>265.6666666666667</ele><time>2026-05-02T14:25:44.981Z</time></trkpt><trkpt lat="42.0853677" lon="12.7738001"><ele>264.0</ele><time>2026-05-02T14:25:45.974Z</time></trkpt><trkpt lat="42.0852008" lon="12.7737163"><ele>264.0</ele><time>2026-05-02T14:25:46.977Z</time></trkpt><trkpt lat="42.0850574" lon="12.7736391"><ele>264.0</ele><time>2026-05-02T14:25:47.971Z</time></trkpt><trkpt lat="42.0849105" lon="12.7735521"><ele>264.0</ele><time>2026-05-02T14:25:48.975Z</time></trkpt><trkpt lat="42.0847726" lon="12.7733994"><ele>262.6666666666667</ele><time>2026-05-02T14:25:49.971Z</time></trkpt><trkpt lat="42.0846212" lon="12.7732416"><ele>261.33333333333337</ele><time>2026-05-02T14:25:50.966Z</time></trkpt><trkpt lat="42.0844594" lon="12.7730862"><ele>260.0</ele><time>2026-05-02T14:25:51.965Z</time></trkpt><trkpt lat="42.0843006" lon="12.772929"><ele>260.0</ele><time>2026-05-02T14:25:52.97Z</time></trkpt><trkpt lat="42.0841579" lon="12.7727782"><ele>260.0</ele><time>2026-05-02T14:25:53.964Z</time></trkpt><trkpt lat="42.0840143" lon="12.7726344"><ele>260.0</ele><time>2026-05-02T14:25:54.97Z</time></trkpt><trkpt lat="42.0839139" lon="12.7724909"><ele>261.75</ele><time>2026-05-02T14:25:55.983Z</time></trkpt><trkpt lat="42.0838364" lon="12.7723688"><ele>263.5</ele><time>2026-05-02T14:25:56.976Z</time></trkpt><trkpt lat="42.0837543" lon="12.7722754"><ele>265.25</ele><time>2026-05-02T14:25:57.978Z</time></trkpt><trkpt lat="42.0836681" lon="12.7721903"><ele>267.0</ele><time>2026-05-02T14:25:58.976Z</time></trkpt><trkpt lat="42.0835806" lon="12.77205"><ele>267.0</ele><time>2026-05-02T14:25:59.977Z</time></trkpt><trkpt lat="42.0835567" lon="12.771895"><ele>267.0</ele><time>2026-05-02T14:26:00.974Z</time></trkpt><trkpt lat="42.0835729" lon="12.7717202"><ele>267.0</ele><time>2026-05-02T14:26:01.98Z</time></trkpt><trkpt lat="42.0836402" lon="12.771562"><ele>267.0</ele><time>2026-05-02T14:26:02.973Z</time></trkpt><trkpt lat="42.0837197" lon="12.77139"><ele>268.6666666666667</ele><time>2026-05-02T14:26:03.978Z</time></trkpt><trkpt lat="42.0838112" lon="12.7712211"><ele>270.33333333333337</ele><time>2026-05-02T14:26:04.974Z</time></trkpt><trkpt lat="42.0839505" lon="12.7710092"><ele>272.0</ele><time>2026-05-02T14:26:05.972Z</time></trkpt><trkpt lat="42.0840738" lon="12.7707804"><ele>267.0</ele><time>2026-05-02T14:26:06.977Z</time></trkpt><trkpt lat="42.0841302" lon="12.770597"><ele>262.0</ele><time>2026-05-02T14:26:07.977Z</time></trkpt><trkpt lat="42.0841595" lon="12.7702822"><ele>257.0</ele><time>2026-05-02T14:26:08.974Z</time></trkpt><trkpt lat="42.0841694" lon="12.7699861"><ele>256.33333333333337</ele><time>2026-05-02T14:26:09.971Z</time></trkpt><trkpt lat="42.0841613" lon="12.769709"><ele>255.66666666666669</ele><time>2026-05-02T14:26:10.973Z</time></trkpt><trkpt lat="42.0841599" lon="12.769496"><ele>255.0</ele><time>2026-05-02T14:26:11.977Z</time></trkpt><trkpt lat="42.084131" lon="12.7692458"><ele>255.0</ele><time>2026-05-02T14:26:12.97Z</time></trkpt><trkpt lat="42.0841137" lon="12.7690081"><ele>255.0</ele><time>2026-05-02T14:26:13.975Z</time></trkpt><trkpt lat="42.0841125" lon="12.7687685"><ele>255.0</ele><time>2026-05-02T14:26:14.969Z</time></trkpt><trkpt lat="42.0841415" lon="12.7685075"><ele>255.66666666666669</ele><time>2026-05-02T14:26:15.978Z</time></trkpt><trkpt lat="42.0841406" lon="12.7682715"><ele>256.33333333333337</ele><time>2026-05-02T14:26:17.003Z</time></trkpt><trkpt lat="42.0841584" lon="12.7680825"><ele>257.0</ele><time>2026-05-02T14:26:17.982Z</time></trkpt><trkpt lat="42.0841977" lon="12.7678426"><ele>260.0</ele><time>2026-05-02T14:26:18.98Z</time></trkpt><trkpt lat="42.0842395" lon="12.7675979"><ele>263.0</ele><time>2026-05-02T14:26:19.985Z</time></trkpt><trkpt lat="42.0843369" lon="12.7673604"><ele>266.0</ele><time>2026-05-02T14:26:21.007Z</time></trkpt><trkpt lat="42.0843916" lon="12.7671156"><ele>266.0</ele><time>2026-05-02T14:26:21.983Z</time></trkpt><trkpt lat="42.0844546" lon="12.7668921"><ele>266.0</ele><time>2026-05-02T14:26:22.977Z</time></trkpt><trkpt lat="42.0844729" lon="12.7666923"><ele>266.0</ele><time>2026-05-02T14:26:23.971Z</time></trkpt><trkpt lat="42.0845111" lon="12.7664706"><ele>268.0</ele><time>2026-05-02T14:26:24.98Z</time></trkpt><trkpt lat="42.0845264" lon="12.7662573"><ele>270.0</ele><time>2026-05-02T14:26:25.976Z</time></trkpt><trkpt lat="42.0845268" lon="12.7660382"><ele>272.0</ele><time>2026-05-02T14:26:26.973Z</time></trkpt><trkpt lat="42.0844857" lon="12.7658414"><ele>272.6666666666667</ele><time>2026-05-02T14:26:28.006Z</time></trkpt><trkpt lat="42.0844514" lon="12.7656262"><ele>273.3333333333333</ele><time>2026-05-02T14:26:28.978Z</time></trkpt><trkpt lat="42.0843786" lon="12.7654078"><ele>274.0</ele><time>2026-05-02T14:26:29.977Z</time></trkpt><trkpt lat="42.0842764" lon="12.7651746"><ele>272.66666666666663</ele><time>2026-05-02T14:26:30.984Z</time></trkpt><trkpt lat="42.0841815" lon="12.7649357"><ele>271.3333333333333</ele><time>2026-05-02T14:26:31.987Z</time></trkpt><trkpt lat="42.0841012" lon="12.7647373"><ele>270.0</ele><time>2026-05-02T14:26:32.986Z</time></trkpt><trkpt lat="42.0840022" lon="12.7645408"><ele>273.6666666666667</ele><time>2026-05-02T14:26:33.978Z</time></trkpt><trkpt lat="42.0838988" lon="12.76436"><ele>277.33333333333337</ele><time>2026-05-02T14:26:34.975Z</time></trkpt><trkpt lat="42.0837809" lon="12.764204"><ele>281.0</ele><time>2026-05-02T14:26:35.983Z</time></trkpt><trkpt lat="42.0836884" lon="12.7639969"><ele>281.0</ele><time>2026-05-02T14:26:36.982Z</time></trkpt><trkpt lat="42.0835927" lon="12.763838"><ele>281.0</ele><time>2026-05-02T14:26:37.974Z</time></trkpt><trkpt lat="42.083497" lon="12.7637489"><ele>281.0</ele><time>2026-05-02T14:26:38.982Z</time></trkpt><trkpt lat="42.0833563" lon="12.763688"><ele>281.0</ele><time>2026-05-02T14:26:39.987Z</time></trkpt><trkpt lat="42.0832207" lon="12.7636658"><ele>281.0</ele><time>2026-05-02T14:26:40.973Z</time></trkpt><trkpt lat="42.0830449" lon="12.7636425"><ele>281.0</ele><time>2026-05-02T14:26:42.002Z</time></trkpt><trkpt lat="42.0828706" lon="12.7635919"><ele>281.0</ele><time>2026-05-02T14:26:43.005Z</time></trkpt><trkpt lat="42.0826818" lon="12.7634611"><ele>281.0</ele><time>2026-05-02T14:26:44.006Z</time></trkpt><trkpt lat="42.0825286" lon="12.7632785"><ele>281.0</ele><time>2026-05-02T14:26:44.973Z</time></trkpt><trkpt lat="42.0823487" lon="12.7631218"><ele>281.0</ele><time>2026-05-02T14:26:45.976Z</time></trkpt><trkpt lat="42.0821943" lon="12.7629856"><ele>281.25</ele><time>2026-05-02T14:26:46.974Z</time></trkpt><trkpt lat="42.0820762" lon="12.7628803"><ele>281.5</ele><time>2026-05-02T14:26:47.983Z</time></trkpt><trkpt lat="42.0819581" lon="12.7627562"><ele>281.75</ele><time>2026-05-02T14:26:48.982Z</time></trkpt><trkpt lat="42.0818234" lon="12.7626464"><ele>282.0</ele><time>2026-05-02T14:26:49.982Z</time></trkpt><trkpt lat="42.0816987" lon="12.7625072"><ele>282.0</ele><time>2026-05-02T14:26:50.986Z</time></trkpt><trkpt lat="42.0815992" lon="12.7623666"><ele>282.0</ele><time>2026-05-02T14:26:51.98Z</time></trkpt><trkpt lat="42.0814887" lon="12.762256"><ele>282.0</ele><time>2026-05-02T14:26:52.99Z</time></trkpt><trkpt lat="42.0813754" lon="12.7621941"><ele>282.0</ele><time>2026-05-02T14:26:53.98Z</time></trkpt><trkpt lat="42.0812356" lon="12.7621684"><ele>282.3333333333333</ele><time>2026-05-02T14:26:54.978Z</time></trkpt><trkpt lat="42.0810672" lon="12.7622062"><ele>282.66666666666663</ele><time>2026-05-02T14:26:55.976Z</time></trkpt><trkpt lat="42.0808688" lon="12.7622758"><ele>283.0</ele><time>2026-05-02T14:26:56.986Z</time></trkpt><trkpt lat="42.0806649" lon="12.7623813"><ele>280.66666666666663</ele><time>2026-05-02T14:26:57.977Z</time></trkpt><trkpt lat="42.0804877" lon="12.7625035"><ele>278.3333333333333</ele><time>2026-05-02T14:26:58.981Z</time></trkpt><trkpt lat="42.0803146" lon="12.7626493"><ele>276.0</ele><time>2026-05-02T14:26:59.993Z</time></trkpt><trkpt lat="42.0801175" lon="12.7628167"><ele>279.0</ele><time>2026-05-02T14:27:00.988Z</time></trkpt><trkpt lat="42.0798968" lon="12.7630096"><ele>282.0</ele><time>2026-05-02T14:27:01.995Z</time></trkpt><trkpt lat="42.0796854" lon="12.7631383"><ele>282.0</ele><time>2026-05-02T14:27:02.988Z</time></trkpt><trkpt lat="42.0794877" lon="12.7632706"><ele>282.0</ele><time>2026-05-02T14:27:03.993Z</time></trkpt><trkpt lat="42.0792682" lon="12.7633984"><ele>283.5</ele><time>2026-05-02T14:27:04.995Z</time></trkpt><trkpt lat="42.0790482" lon="12.7635365"><ele>285.0</ele><time>2026-05-02T14:27:05.986Z</time></trkpt><trkpt lat="42.0788455" lon="12.7636888"><ele>285.0</ele><time>2026-05-02T14:27:06.997Z</time></trkpt><trkpt lat="42.0786391" lon="12.7638338"><ele>285.0</ele><time>2026-05-02T14:27:07.994Z</time></trkpt><trkpt lat="42.0784353" lon="12.7639981"><ele>283.0</ele><time>2026-05-02T14:27:08.994Z</time></trkpt><trkpt lat="42.0782244" lon="12.7641381"><ele>281.0</ele><time>2026-05-02T14:27:09.987Z</time></trkpt><trkpt lat="42.0780319" lon="12.764258"><ele>279.0</ele><time>2026-05-02T14:27:10.994Z</time></trkpt><trkpt lat="42.0778493" lon="12.7643733"><ele>281.6666666666667</ele><time>2026-05-02T14:27:11.989Z</time></trkpt><trkpt lat="42.0776802" lon="12.7644724"><ele>284.33333333333337</ele><time>2026-05-02T14:27:12.99Z</time></trkpt><trkpt lat="42.0775186" lon="12.7645571"><ele>287.0</ele><time>2026-05-02T14:27:13.994Z</time></trkpt><trkpt lat="42.0773673" lon="12.7646271"><ele>287.0</ele><time>2026-05-02T14:27:14.994Z</time></trkpt><trkpt lat="42.0772325" lon="12.7647032"><ele>287.0</ele><time>2026-05-02T14:27:15.987Z</time></trkpt><trkpt lat="42.0771088" lon="12.7648099"><ele>287.0</ele><time>2026-05-02T14:27:16.988Z</time></trkpt><trkpt lat="42.0770105" lon="12.7649783"><ele>287.0</ele><time>2026-05-02T14:27:18.005Z</time></trkpt><trkpt lat="42.0769319" lon="12.7651745"><ele>287.0</ele><time>2026-05-02T14:27:19.004Z</time></trkpt><trkpt lat="42.0768243" lon="12.765351"><ele>287.0</ele><time>2026-05-02T14:27:19.983Z</time></trkpt><trkpt lat="42.0767099" lon="12.7655121"><ele>289.0</ele><time>2026-05-02T14:27:20.974Z</time></trkpt><trkpt lat="42.0765872" lon="12.765604"><ele>291.0</ele><time>2026-05-02T14:27:21.982Z</time></trkpt><trkpt lat="42.0764595" lon="12.7656464"><ele>293.0</ele><time>2026-05-02T14:27:22.983Z</time></trkpt><trkpt lat="42.0763169" lon="12.7656157"><ele>295.0</ele><time>2026-05-02T14:27:23.975Z</time></trkpt><trkpt lat="42.0761752" lon="12.7654843"><ele>295.0</ele><time>2026-05-02T14:27:24.973Z</time></trkpt><trkpt lat="42.0760138" lon="12.7653189"><ele>295.0</ele><time>2026-05-02T14:27:25.974Z</time></trkpt><trkpt lat="42.0759016" lon="12.7651772"><ele>295.0</ele><time>2026-05-02T14:27:26.964Z</time></trkpt><trkpt lat="42.0757873" lon="12.7651274"><ele>296.0</ele><time>2026-05-02T14:27:27.973Z</time></trkpt><trkpt lat="42.0756401" lon="12.7651256"><ele>297.0</ele><time>2026-05-02T14:27:28.968Z</time></trkpt><trkpt lat="42.0754797" lon="12.7651729"><ele>298.0</ele><time>2026-05-02T14:27:29.971Z</time></trkpt><trkpt lat="42.0752915" lon="12.7652575"><ele>298.0</ele><time>2026-05-02T14:27:30.977Z</time></trkpt><trkpt lat="42.0751066" lon="12.765309"><ele>298.0</ele><time>2026-05-02T14:27:31.97Z</time></trkpt><trkpt lat="42.0749514" lon="12.7654148"><ele>298.0</ele><time>2026-05-02T14:27:32.984Z</time></trkpt><trkpt lat="42.0748121" lon="12.7654882"><ele>297.0</ele><time>2026-05-02T14:27:33.976Z</time></trkpt><trkpt lat="42.0746782" lon="12.7655506"><ele>296.0</ele><time>2026-05-02T14:27:34.974Z</time></trkpt><trkpt lat="42.0745255" lon="12.7655671"><ele>295.0</ele><time>2026-05-02T14:27:35.976Z</time></trkpt><trkpt lat="42.0743411" lon="12.7655574"><ele>295.0</ele><time>2026-05-02T14:27:36.975Z</time></trkpt><trkpt lat="42.0741481" lon="12.7655323"><ele>295.0</ele><time>2026-05-02T14:27:37.975Z</time></trkpt><trkpt lat="42.0739959" lon="12.7655295"><ele>295.0</ele><time>2026-05-02T14:27:38.976Z</time></trkpt><trkpt lat="42.0738254" lon="12.7655742"><ele>293.3333333333333</ele><time>2026-05-02T14:27:39.998Z</time></trkpt><trkpt lat="42.0736424" lon="12.7656088"><ele>291.6666666666667</ele><time>2026-05-02T14:27:41Z</time></trkpt><trkpt lat="42.0734724" lon="12.7656875"><ele>290.0</ele><time>2026-05-02T14:27:41.971Z</time></trkpt><trkpt lat="42.0732934" lon="12.7657609"><ele>289.0</ele><time>2026-05-02T14:27:42.977Z</time></trkpt><trkpt lat="42.0731176" lon="12.7658342"><ele>288.0</ele><time>2026-05-02T14:27:43.972Z</time></trkpt><trkpt lat="42.0729588" lon="12.7658943"><ele>287.0</ele><time>2026-05-02T14:27:44.972Z</time></trkpt><trkpt lat="42.0728134" lon="12.7659533"><ele>287.0</ele><time>2026-05-02T14:27:45.975Z</time></trkpt><trkpt lat="42.0726733" lon="12.7660207"><ele>287.0</ele><time>2026-05-02T14:27:46.977Z</time></trkpt><trkpt lat="42.0725251" lon="12.7660672"><ele>287.0</ele><time>2026-05-02T14:27:47.974Z</time></trkpt><trkpt lat="42.0723582" lon="12.7661278"><ele>289.6666666666667</ele><time>2026-05-02T14:27:48.97Z</time></trkpt><trkpt lat="42.0721793" lon="12.7662175"><ele>292.3333333333333</ele><time>2026-05-02T14:27:49.971Z</time></trkpt><trkpt lat="42.0720104" lon="12.7663005"><ele>295.0</ele><time>2026-05-02T14:27:50.977Z</time></trkpt><trkpt lat="42.071858" lon="12.7663565"><ele>295.0</ele><time>2026-05-02T14:27:51.97Z</time></trkpt><trkpt lat="42.0717281" lon="12.7664061"><ele>295.0</ele><time>2026-05-02T14:27:52.981Z</time></trkpt><trkpt lat="42.0716047" lon="12.7664128"><ele>295.0</ele><time>2026-05-02T14:27:53.971Z</time></trkpt><trkpt lat="42.0714889" lon="12.7664354"><ele>295.0</ele><time>2026-05-02T14:27:54.972Z</time></trkpt><trkpt lat="42.0713848" lon="12.7664634"><ele>296.2</ele><time>2026-05-02T14:27:55.966Z</time></trkpt><trkpt lat="42.0713047" lon="12.76649"><ele>297.4</ele><time>2026-05-02T14:27:56.969Z</time></trkpt><trkpt lat="42.0711844" lon="12.7665351"><ele>298.6</ele><time>2026-05-02T14:27:57.97Z</time></trkpt><trkpt lat="42.071096" lon="12.7664953"><ele>299.8</ele><time>2026-05-02T14:27:58.965Z</time></trkpt><trkpt lat="42.0709798" lon="12.7665023"><ele>301.0</ele><time>2026-05-02T14:27:59.97Z</time></trkpt><trkpt lat="42.0708669" lon="12.7664867"><ele>300.0</ele><time>2026-05-02T14:28:00.968Z</time></trkpt><trkpt lat="42.0707684" lon="12.7664444"><ele>299.0</ele><time>2026-05-02T14:28:01.968Z</time></trkpt><trkpt lat="42.0706791" lon="12.7664013"><ele>298.0</ele><time>2026-05-02T14:28:02.968Z</time></trkpt><trkpt lat="42.0706081" lon="12.7663904"><ele>297.0</ele><time>2026-05-02T14:28:03.966Z</time></trkpt><trkpt lat="42.0705483" lon="12.766418"><ele>296.0</ele><time>2026-05-02T14:28:04.969Z</time></trkpt><trkpt lat="42.0704858" lon="12.7664536"><ele>295.0</ele><time>2026-05-02T14:28:05.972Z</time></trkpt><trkpt lat="42.0704221" lon="12.7664718"><ele>295.0</ele><time>2026-05-02T14:28:06.968Z</time></trkpt><trkpt lat="42.0703467" lon="12.7664692"><ele>295.0</ele><time>2026-05-02T14:28:07.974Z</time></trkpt><trkpt lat="42.0702691" lon="12.7664652"><ele>295.0</ele><time>2026-05-02T14:28:08.967Z</time></trkpt><trkpt lat="42.0701664" lon="12.7664635"><ele>295.0</ele><time>2026-05-02T14:28:09.961Z</time></trkpt><trkpt lat="42.070059" lon="12.7664686"><ele>295.0</ele><time>2026-05-02T14:28:10.964Z</time></trkpt><trkpt lat="42.0699297" lon="12.7664692"><ele>295.66666666666663</ele><time>2026-05-02T14:28:11.96Z</time></trkpt><trkpt lat="42.0697742" lon="12.7664732"><ele>296.3333333333333</ele><time>2026-05-02T14:28:12.979Z</time></trkpt><trkpt lat="42.0695859" lon="12.7665012"><ele>297.0</ele><time>2026-05-02T14:28:13.963Z</time></trkpt><trkpt lat="42.0694276" lon="12.7665658"><ele>297.0</ele><time>2026-05-02T14:28:14.986Z</time></trkpt><trkpt lat="42.0693004" lon="12.7666056"><ele>297.0</ele><time>2026-05-02T14:28:15.958Z</time></trkpt><trkpt lat="42.0691869" lon="12.7666268"><ele>297.0</ele><time>2026-05-02T14:28:16.969Z</time></trkpt><trkpt lat="42.0690916" lon="12.7666356"><ele>297.0</ele><time>2026-05-02T14:28:17.981Z</time></trkpt><trkpt lat="42.0690133" lon="12.7666992"><ele>297.0</ele><time>2026-05-02T14:28:18.959Z</time></trkpt><trkpt lat="42.0689319" lon="12.7668423"><ele>297.0</ele><time>2026-05-02T14:28:19.964Z</time></trkpt><trkpt lat="42.0688443" lon="12.767006"><ele>297.0</ele><time>2026-05-02T14:28:20.965Z</time></trkpt><trkpt lat="42.0687598" lon="12.767175"><ele>297.0</ele><time>2026-05-02T14:28:21.956Z</time></trkpt><trkpt lat="42.0686861" lon="12.767358"><ele>297.0</ele><time>2026-05-02T14:28:22.974Z</time></trkpt><trkpt lat="42.0685975" lon="12.7674943"><ele>297.0</ele><time>2026-05-02T14:28:23.956Z</time></trkpt><trkpt lat="42.0685192" lon="12.7675484"><ele>297.0</ele><time>2026-05-02T14:28:24.96Z</time></trkpt><trkpt lat="42.0684149" lon="12.767626"><ele>297.0</ele><time>2026-05-02T14:28:26.967Z</time></trkpt><trkpt lat="42.0683531" lon="12.7676607"><ele>297.0</ele><time>2026-05-02T14:28:27.967Z</time></trkpt><trkpt lat="42.0682308" lon="12.7677574"><ele>298.0</ele><time>2026-05-02T14:28:28.971Z</time></trkpt><trkpt lat="42.0681528" lon="12.7678304"><ele>299.0</ele><time>2026-05-02T14:28:29.958Z</time></trkpt><trkpt lat="42.0680468" lon="12.7679301"><ele>300.0</ele><time>2026-05-02T14:28:30.98Z</time></trkpt><trkpt lat="42.0679411" lon="12.7680515"><ele>301.0</ele><time>2026-05-02T14:28:31.963Z</time></trkpt><trkpt lat="42.067842" lon="12.7681827"><ele>301.0</ele><time>2026-05-02T14:28:32.957Z</time></trkpt><trkpt lat="42.0677413" lon="12.7683349"><ele>301.0</ele><time>2026-05-02T14:28:33.967Z</time></trkpt><trkpt lat="42.0676491" lon="12.7684983"><ele>301.0</ele><time>2026-05-02T14:28:34.971Z</time></trkpt><trkpt lat="42.0675618" lon="12.7686381"><ele>301.0</ele><time>2026-05-02T14:28:35.964Z</time></trkpt><trkpt lat="42.0674645" lon="12.7687884"><ele>299.25</ele><time>2026-05-02T14:28:36.966Z</time></trkpt><trkpt lat="42.0673591" lon="12.7688799"><ele>297.5</ele><time>2026-05-02T14:28:37.972Z</time></trkpt><trkpt lat="42.0672594" lon="12.769"><ele>295.75</ele><time>2026-05-02T14:28:38.968Z</time></trkpt><trkpt lat="42.0671506" lon="12.7691077"><ele>294.0</ele><time>2026-05-02T14:28:39.966Z</time></trkpt><trkpt lat="42.067005" lon="12.7691982"><ele>294.0</ele><time>2026-05-02T14:28:40.963Z</time></trkpt><trkpt lat="42.0668828" lon="12.7692957"><ele>294.0</ele><time>2026-05-02T14:28:41.965Z</time></trkpt><trkpt lat="42.0667913" lon="12.7693591"><ele>294.0</ele><time>2026-05-02T14:28:42.968Z</time></trkpt><trkpt lat="42.0666758" lon="12.7694747"><ele>294.0</ele><time>2026-05-02T14:28:43.966Z</time></trkpt><trkpt lat="42.0665353" lon="12.7695159"><ele>292.0</ele><time>2026-05-02T14:28:44.96Z</time></trkpt><trkpt lat="42.0664162" lon="12.7695449"><ele>290.0</ele><time>2026-05-02T14:28:45.969Z</time></trkpt><trkpt lat="42.0662833" lon="12.7695901"><ele>288.0</ele><time>2026-05-02T14:28:46.966Z</time></trkpt><trkpt lat="42.0661426" lon="12.7696481"><ele>286.0</ele><time>2026-05-02T14:28:47.97Z</time></trkpt><trkpt lat="42.0660343" lon="12.7696913"><ele>286.0</ele><time>2026-05-02T14:28:48.968Z</time></trkpt><trkpt lat="42.0659206" lon="12.7697234"><ele>286.0</ele><time>2026-05-02T14:28:49.966Z</time></trkpt><trkpt lat="42.0658078" lon="12.7697649"><ele>286.0</ele><time>2026-05-02T14:28:50.97Z</time></trkpt><trkpt lat="42.0656975" lon="12.7698155"><ele>286.0</ele><time>2026-05-02T14:28:51.97Z</time></trkpt><trkpt lat="42.0655818" lon="12.7698814"><ele>284.5</ele><time>2026-05-02T14:28:52.967Z</time></trkpt><trkpt lat="42.0654615" lon="12.769947"><ele>283.0</ele><time>2026-05-02T14:28:53.973Z</time></trkpt><trkpt lat="42.0653424" lon="12.7700105"><ele>281.5</ele><time>2026-05-02T14:28:54.973Z</time></trkpt><trkpt lat="42.0652214" lon="12.7700822"><ele>280.0</ele><time>2026-05-02T14:28:55.965Z</time></trkpt><trkpt lat="42.065108" lon="12.7701441"><ele>280.0</ele><time>2026-05-02T14:28:56.97Z</time></trkpt><trkpt lat="42.0650073" lon="12.7701903"><ele>280.0</ele><time>2026-05-02T14:28:57.972Z</time></trkpt><trkpt lat="42.0649181" lon="12.7702304"><ele>280.0</ele><time>2026-05-02T14:28:58.968Z</time></trkpt><trkpt lat="42.0648397" lon="12.7702679"><ele>280.0</ele><time>2026-05-02T14:28:59.97Z</time></trkpt><trkpt lat="42.0647564" lon="12.7703058"><ele>280.0</ele><time>2026-05-02T14:29:00.969Z</time></trkpt><trkpt lat="42.0646773" lon="12.7703377"><ele>280.16666666666663</ele><time>2026-05-02T14:29:01.974Z</time></trkpt><trkpt lat="42.0646017" lon="12.770368"><ele>280.3333333333333</ele><time>2026-05-02T14:29:02.973Z</time></trkpt><trkpt lat="42.0645277" lon="12.7703968"><ele>280.5</ele><time>2026-05-02T14:29:03.975Z</time></trkpt><trkpt lat="42.0644554" lon="12.770422"><ele>280.6666666666667</ele><time>2026-05-02T14:29:04.968Z</time></trkpt><trkpt lat="42.0643749" lon="12.7704559"><ele>280.83333333333337</ele><time>2026-05-02T14:29:05.967Z</time></trkpt><trkpt lat="42.064297" lon="12.7704876"><ele>281.0</ele><time>2026-05-02T14:29:06.98Z</time></trkpt><trkpt lat="42.0642175" lon="12.7705189"><ele>281.0</ele><time>2026-05-02T14:29:07.991Z</time></trkpt><trkpt lat="42.0641367" lon="12.7705507"><ele>281.0</ele><time>2026-05-02T14:29:08.973Z</time></trkpt><trkpt lat="42.0640473" lon="12.7705817"><ele>281.0</ele><time>2026-05-02T14:29:09.971Z</time></trkpt><trkpt lat="42.0639504" lon="12.770626"><ele>281.0</ele><time>2026-05-02T14:29:10.964Z</time></trkpt><trkpt lat="42.0638546" lon="12.7706758"><ele>281.0</ele><time>2026-05-02T14:29:11.977Z</time></trkpt><trkpt lat="42.0637571" lon="12.7707185"><ele>280.33333333333337</ele><time>2026-05-02T14:29:12.968Z</time></trkpt><trkpt lat="42.0636668" lon="12.7707582"><ele>279.6666666666667</ele><time>2026-05-02T14:29:13.977Z</time></trkpt><trkpt lat="42.0635836" lon="12.770794"><ele>279.0</ele><time>2026-05-02T14:29:14.974Z</time></trkpt><trkpt lat="42.0635017" lon="12.7708289"><ele>278.3333333333333</ele><time>2026-05-02T14:29:15.976Z</time></trkpt><trkpt lat="42.063428" lon="12.7708564"><ele>277.66666666666663</ele><time>2026-05-02T14:29:16.978Z</time></trkpt><trkpt lat="42.0633632" lon="12.7708872"><ele>277.0</ele><time>2026-05-02T14:29:17.965Z</time></trkpt><trkpt lat="42.063257" lon="12.7708989"><ele>275.75</ele><time>2026-05-02T14:29:19.975Z</time></trkpt><trkpt lat="42.0631727" lon="12.7708325"><ele>274.5</ele><time>2026-05-02T14:29:21.972Z</time></trkpt><trkpt lat="42.0631197" lon="12.7707821"><ele>273.25</ele><time>2026-05-02T14:29:22.977Z</time></trkpt><trkpt lat="42.0630502" lon="12.7705912"><ele>272.0</ele><time>2026-05-02T14:29:24.97Z</time></trkpt><trkpt lat="42.063041" lon="12.7704089"><ele>270.33333333333337</ele><time>2026-05-02T14:29:25.972Z</time></trkpt><trkpt lat="42.0630398" lon="12.7701843"><ele>268.6666666666667</ele><time>2026-05-02T14:29:26.968Z</time></trkpt><trkpt lat="42.063035" lon="12.7699565"><ele>267.0</ele><time>2026-05-02T14:29:27.971Z</time></trkpt><trkpt lat="42.0630227" lon="12.7696928"><ele>267.0</ele><time>2026-05-02T14:29:28.972Z</time></trkpt><trkpt lat="42.0630382" lon="12.7693965"><ele>267.0</ele><time>2026-05-02T14:29:29.968Z</time></trkpt><trkpt lat="42.0630643" lon="12.7690168"><ele>265.5</ele><time>2026-05-02T14:29:30.972Z</time></trkpt><trkpt lat="42.0630733" lon="12.7686559"><ele>264.0</ele><time>2026-05-02T14:29:31.98Z</time></trkpt><trkpt lat="42.0630728" lon="12.7684033"><ele>263.6666666666667</ele><time>2026-05-02T14:29:32.978Z</time></trkpt><trkpt lat="42.0630615" lon="12.7681358"><ele>263.33333333333337</ele><time>2026-05-02T14:29:33.975Z</time></trkpt><trkpt lat="42.0630438" lon="12.7679184"><ele>263.0</ele><time>2026-05-02T14:29:34.972Z</time></trkpt><trkpt lat="42.0630252" lon="12.7676536"><ele>263.0</ele><time>2026-05-02T14:29:35.97Z</time></trkpt><trkpt lat="42.063008" lon="12.7674162"><ele>263.0</ele><time>2026-05-02T14:29:36.973Z</time></trkpt><trkpt lat="42.0629986" lon="12.7672747"><ele>263.0</ele><time>2026-05-02T14:29:37.981Z</time></trkpt><trkpt lat="42.063007" lon="12.7671424"><ele>263.0</ele><time>2026-05-02T14:29:38.98Z</time></trkpt><trkpt lat="42.062975" lon="12.7670493"><ele>263.0</ele><time>2026-05-02T14:29:39.977Z</time></trkpt><trkpt lat="42.0629031" lon="12.7669365"><ele>263.0</ele><time>2026-05-02T14:29:41.973Z</time></trkpt><trkpt lat="42.0628125" lon="12.7669168"><ele>263.0</ele><time>2026-05-02T14:29:42.977Z</time></trkpt><trkpt lat="42.0626834" lon="12.7669437"><ele>263.0</ele><time>2026-05-02T14:29:43.973Z</time></trkpt><trkpt lat="42.0625513" lon="12.7669955"><ele>261.6666666666667</ele><time>2026-05-02T14:29:44.968Z</time></trkpt><trkpt lat="42.0624179" lon="12.7670759"><ele>260.3333333333333</ele><time>2026-05-02T14:29:45.973Z</time></trkpt><trkpt lat="42.062275" lon="12.767215"><ele>259.0</ele><time>2026-05-02T14:29:46.978Z</time></trkpt><trkpt lat="42.0621005" lon="12.7673057"><ele>259.0</ele><time>2026-05-02T14:29:47.993Z</time></trkpt><trkpt lat="42.0619388" lon="12.7673702"><ele>259.0</ele><time>2026-05-02T14:29:48.972Z</time></trkpt><trkpt lat="42.0617798" lon="12.7674383"><ele>259.0</ele><time>2026-05-02T14:29:49.975Z</time></trkpt><trkpt lat="42.0616082" lon="12.7675221"><ele>257.25</ele><time>2026-05-02T14:29:50.997Z</time></trkpt><trkpt lat="42.0614726" lon="12.7675619"><ele>255.5</ele><time>2026-05-02T14:29:51.975Z</time></trkpt><trkpt lat="42.0613541" lon="12.7675653"><ele>253.75</ele><time>2026-05-02T14:29:52.967Z</time></trkpt><trkpt lat="42.0612332" lon="12.767529"><ele>252.0</ele><time>2026-05-02T14:29:53.967Z</time></trkpt><trkpt lat="42.0611202" lon="12.7675128"><ele>252.0</ele><time>2026-05-02T14:29:54.968Z</time></trkpt><trkpt lat="42.0610017" lon="12.7674305"><ele>252.0</ele><time>2026-05-02T14:29:55.971Z</time></trkpt><trkpt lat="42.0608645" lon="12.767344"><ele>252.0</ele><time>2026-05-02T14:29:56.977Z</time></trkpt><trkpt lat="42.0607365" lon="12.7672462"><ele>252.0</ele><time>2026-05-02T14:29:57.971Z</time></trkpt><trkpt lat="42.0606066" lon="12.7671449"><ele>250.75</ele><time>2026-05-02T14:29:59.016Z</time></trkpt><trkpt lat="42.0604835" lon="12.7670278"><ele>249.5</ele><time>2026-05-02T14:30:00.014Z</time></trkpt><trkpt lat="42.0603847" lon="12.7669331"><ele>248.25</ele><time>2026-05-02T14:30:00.968Z</time></trkpt><trkpt lat="42.0602666" lon="12.7668891"><ele>247.0</ele><time>2026-05-02T14:30:01.971Z</time></trkpt><trkpt lat="42.0601456" lon="12.7668701"><ele>247.0</ele><time>2026-05-02T14:30:02.966Z</time></trkpt><trkpt lat="42.0600075" lon="12.7668828"><ele>247.0</ele><time>2026-05-02T14:30:03.97Z</time></trkpt><trkpt lat="42.059848" lon="12.7669328"><ele>247.0</ele><time>2026-05-02T14:30:04.969Z</time></trkpt><trkpt lat="42.05967" lon="12.7670425"><ele>246.5</ele><time>2026-05-02T14:30:05.969Z</time></trkpt><trkpt lat="42.0594676" lon="12.7671586"><ele>246.0</ele><time>2026-05-02T14:30:06.971Z</time></trkpt><trkpt lat="42.0592711" lon="12.7673196"><ele>245.33333333333331</ele><time>2026-05-02T14:30:07.971Z</time></trkpt><trkpt lat="42.0590793" lon="12.7674958"><ele>244.66666666666666</ele><time>2026-05-02T14:30:08.969Z</time></trkpt><trkpt lat="42.0589165" lon="12.7676468"><ele>244.0</ele><time>2026-05-02T14:30:09.974Z</time></trkpt><trkpt lat="42.0587665" lon="12.7677878"><ele>245.66666666666666</ele><time>2026-05-02T14:30:10.972Z</time></trkpt><trkpt lat="42.0586141" lon="12.7678863"><ele>247.33333333333331</ele><time>2026-05-02T14:30:11.967Z</time></trkpt><trkpt lat="42.058469" lon="12.7680012"><ele>249.0</ele><time>2026-05-02T14:30:12.971Z</time></trkpt><trkpt lat="42.0583055" lon="12.7681162"><ele>247.66666666666669</ele><time>2026-05-02T14:30:13.97Z</time></trkpt><trkpt lat="42.0581181" lon="12.7682399"><ele>246.33333333333334</ele><time>2026-05-02T14:30:14.969Z</time></trkpt><trkpt lat="42.0579092" lon="12.768387"><ele>245.0</ele><time>2026-05-02T14:30:15.983Z</time></trkpt><trkpt lat="42.057741" lon="12.768493"><ele>245.33333333333334</ele><time>2026-05-02T14:30:16.997Z</time></trkpt><trkpt lat="42.0575714" lon="12.7686005"><ele>245.66666666666669</ele><time>2026-05-02T14:30:17.981Z</time></trkpt><trkpt lat="42.0573948" lon="12.7686919"><ele>246.0</ele><time>2026-05-02T14:30:18.973Z</time></trkpt><trkpt lat="42.0572213" lon="12.7687909"><ele>246.0</ele><time>2026-05-02T14:30:19.976Z</time></trkpt><trkpt lat="42.057046" lon="12.7689024"><ele>246.0</ele><time>2026-05-02T14:30:20.979Z</time></trkpt><trkpt lat="42.0568638" lon="12.7690372"><ele>246.0</ele><time>2026-05-02T14:30:21.98Z</time></trkpt><trkpt lat="42.0566941" lon="12.7691553"><ele>246.33333333333331</ele><time>2026-05-02T14:30:22.977Z</time></trkpt><trkpt lat="42.0565202" lon="12.7692563"><ele>246.66666666666666</ele><time>2026-05-02T14:30:23.977Z</time></trkpt><trkpt lat="42.0563483" lon="12.7693437"><ele>247.0</ele><time>2026-05-02T14:30:24.975Z</time></trkpt><trkpt lat="42.0561973" lon="12.7694261"><ele>247.0</ele><time>2026-05-02T14:30:25.979Z</time></trkpt><trkpt lat="42.0560625" lon="12.7695174"><ele>247.0</ele><time>2026-05-02T14:30:26.98Z</time></trkpt><trkpt lat="42.0559332" lon="12.7695914"><ele>247.0</ele><time>2026-05-02T14:30:27.977Z</time></trkpt><trkpt lat="42.0558024" lon="12.7697118"><ele>242.66666666666666</ele><time>2026-05-02T14:30:28.97Z</time></trkpt><trkpt lat="42.0556459" lon="12.7698419"><ele>238.33333333333331</ele><time>2026-05-02T14:30:29.968Z</time></trkpt><trkpt lat="42.055449" lon="12.769965"><ele>234.0</ele><time>2026-05-02T14:30:30.976Z</time></trkpt><trkpt lat="42.0552418" lon="12.77009"><ele>234.0</ele><time>2026-05-02T14:30:31.98Z</time></trkpt><trkpt lat="42.0550507" lon="12.7701886"><ele>234.0</ele><time>2026-05-02T14:30:32.971Z</time></trkpt><trkpt lat="42.0548706" lon="12.7702973"><ele>234.0</ele><time>2026-05-02T14:30:33.978Z</time></trkpt><trkpt lat="42.0546694" lon="12.7703735"><ele>236.0</ele><time>2026-05-02T14:30:34.972Z</time></trkpt><trkpt lat="42.0544845" lon="12.7704211"><ele>238.0</ele><time>2026-05-02T14:30:35.982Z</time></trkpt><trkpt lat="42.0542724" lon="12.7703621"><ele>240.0</ele><time>2026-05-02T14:30:36.972Z</time></trkpt><trkpt lat="42.0540874" lon="12.7702899"><ele>244.33333333333331</ele><time>2026-05-02T14:30:37.969Z</time></trkpt><trkpt lat="42.0539035" lon="12.7701902"><ele>248.66666666666666</ele><time>2026-05-02T14:30:38.975Z</time></trkpt><trkpt lat="42.0537438" lon="12.7700972"><ele>253.0</ele><time>2026-05-02T14:30:39.993Z</time></trkpt><trkpt lat="42.0535889" lon="12.7700159"><ele>253.0</ele><time>2026-05-02T14:30:40.996Z</time></trkpt><trkpt lat="42.0534443" lon="12.7699418"><ele>253.0</ele><time>2026-05-02T14:30:41.988Z</time></trkpt><trkpt lat="42.0533074" lon="12.7698871"><ele>253.0</ele><time>2026-05-02T14:30:42.97Z</time></trkpt><trkpt lat="42.0531573" lon="12.7698445"><ele>257.3333333333333</ele><time>2026-05-02T14:30:43.97Z</time></trkpt><trkpt lat="42.052997" lon="12.769799"><ele>261.6666666666667</ele><time>2026-05-02T14:30:44.976Z</time></trkpt><trkpt lat="42.0528122" lon="12.7697629"><ele>266.0</ele><time>2026-05-02T14:30:45.971Z</time></trkpt><trkpt lat="42.0526218" lon="12.7697187"><ele>266.0</ele><time>2026-05-02T14:30:46.974Z</time></trkpt><trkpt lat="42.0524321" lon="12.7696916"><ele>266.0</ele><time>2026-05-02T14:30:47.971Z</time></trkpt><trkpt lat="42.0522695" lon="12.769666"><ele>266.0</ele><time>2026-05-02T14:30:48.968Z</time></trkpt><trkpt lat="42.0521292" lon="12.7696191"><ele>266.0</ele><time>2026-05-02T14:30:49.964Z</time></trkpt><trkpt lat="42.0519929" lon="12.7695806"><ele>266.0</ele><time>2026-05-02T14:30:50.979Z</time></trkpt><trkpt lat="42.0518299" lon="12.7695273"><ele>266.0</ele><time>2026-05-02T14:30:52.05Z</time></trkpt><trkpt lat="42.0516532" lon="12.769473"><ele>265.6666666666667</ele><time>2026-05-02T14:30:52.978Z</time></trkpt><trkpt lat="42.0514635" lon="12.7693981"><ele>265.3333333333333</ele><time>2026-05-02T14:30:53.978Z</time></trkpt><trkpt lat="42.0512885" lon="12.7693514"><ele>265.0</ele><time>2026-05-02T14:30:54.996Z</time></trkpt><trkpt lat="42.0511424" lon="12.7692934"><ele>266.75</ele><time>2026-05-02T14:30:56.013Z</time></trkpt><trkpt lat="42.0510282" lon="12.7692326"><ele>268.5</ele><time>2026-05-02T14:30:57.014Z</time></trkpt><trkpt lat="42.0509163" lon="12.769164"><ele>270.25</ele><time>2026-05-02T14:30:57.977Z</time></trkpt><trkpt lat="42.0508153" lon="12.7690449"><ele>272.0</ele><time>2026-05-02T14:30:58.966Z</time></trkpt><trkpt lat="42.050743" lon="12.7689153"><ele>273.25</ele><time>2026-05-02T14:30:59.971Z</time></trkpt><trkpt lat="42.0506477" lon="12.7688176"><ele>274.5</ele><time>2026-05-02T14:31:00.967Z</time></trkpt><trkpt lat="42.0505452" lon="12.7686761"><ele>275.75</ele><time>2026-05-02T14:31:01.97Z</time></trkpt><trkpt lat="42.0504393" lon="12.7685472"><ele>277.0</ele><time>2026-05-02T14:31:02.976Z</time></trkpt><trkpt lat="42.050323" lon="12.7684821"><ele>274.75</ele><time>2026-05-02T14:31:03.97Z</time></trkpt><trkpt lat="42.0501723" lon="12.7684593"><ele>272.5</ele><time>2026-05-02T14:31:04.968Z</time></trkpt><trkpt lat="42.0500292" lon="12.7684559"><ele>270.25</ele><time>2026-05-02T14:31:05.964Z</time></trkpt><trkpt lat="42.0498836" lon="12.7683898"><ele>268.0</ele><time>2026-05-02T14:31:06.967Z</time></trkpt><trkpt lat="42.04974" lon="12.7682913"><ele>268.0</ele><time>2026-05-02T14:31:07.968Z</time></trkpt><trkpt lat="42.0495864" lon="12.768152"><ele>268.0</ele><time>2026-05-02T14:31:08.971Z</time></trkpt><trkpt lat="42.0494631" lon="12.767977"><ele>268.0</ele><time>2026-05-02T14:31:09.971Z</time></trkpt><trkpt lat="42.0493311" lon="12.7678028"><ele>264.3333333333333</ele><time>2026-05-02T14:31:10.97Z</time></trkpt><trkpt lat="42.0491817" lon="12.7676385"><ele>260.6666666666667</ele><time>2026-05-02T14:31:11.991Z</time></trkpt><trkpt lat="42.0489747" lon="12.7675168"><ele>257.0</ele><time>2026-05-02T14:31:12.969Z</time></trkpt><trkpt lat="42.0487584" lon="12.7673458"><ele>255.5</ele><time>2026-05-02T14:31:13.966Z</time></trkpt><trkpt lat="42.0485391" lon="12.7672078"><ele>254.0</ele><time>2026-05-02T14:31:14.999Z</time></trkpt><trkpt lat="42.048321" lon="12.7670759"><ele>255.33333333333334</ele><time>2026-05-02T14:31:15.97Z</time></trkpt><trkpt lat="42.0481795" lon="12.7669506"><ele>256.6666666666667</ele><time>2026-05-02T14:31:16.97Z</time></trkpt><trkpt lat="42.0479894" lon="12.7668519"><ele>258.0</ele><time>2026-05-02T14:31:17.969Z</time></trkpt><trkpt lat="42.0478458" lon="12.7667613"><ele>258.0</ele><time>2026-05-02T14:31:18.965Z</time></trkpt><trkpt lat="42.0477212" lon="12.7666515"><ele>258.0</ele><time>2026-05-02T14:31:19.959Z</time></trkpt><trkpt lat="42.0475845" lon="12.7665659"><ele>258.0</ele><time>2026-05-02T14:31:20.967Z</time></trkpt><trkpt lat="42.0474773" lon="12.7663968"><ele>257.25</ele><time>2026-05-02T14:31:21.964Z</time></trkpt><trkpt lat="42.0473843" lon="12.7662378"><ele>256.5</ele><time>2026-05-02T14:31:22.963Z</time></trkpt><trkpt lat="42.0472596" lon="12.7661102"><ele>255.75</ele><time>2026-05-02T14:31:23.965Z</time></trkpt><trkpt lat="42.047165" lon="12.7659881"><ele>255.0</ele><time>2026-05-02T14:31:24.97Z</time></trkpt><trkpt lat="42.047091" lon="12.7659006"><ele>257.0</ele><time>2026-05-02T14:31:25.969Z</time></trkpt><trkpt lat="42.0470312" lon="12.7657541"><ele>259.0</ele><time>2026-05-02T14:31:27.972Z</time></trkpt><trkpt lat="42.0469094" lon="12.7657204"><ele>261.0</ele><time>2026-05-02T14:31:28.98Z</time></trkpt><trkpt lat="42.046764" lon="12.7657272"><ele>263.0</ele><time>2026-05-02T14:31:29.972Z</time></trkpt><trkpt lat="42.0465829" lon="12.7657565"><ele>264.6666666666667</ele><time>2026-05-02T14:31:30.971Z</time></trkpt><trkpt lat="42.04639" lon="12.7657914"><ele>266.3333333333333</ele><time>2026-05-02T14:31:31.97Z</time></trkpt><trkpt lat="42.0462044" lon="12.7657996"><ele>268.0</ele><time>2026-05-02T14:31:32.964Z</time></trkpt><trkpt lat="42.0460337" lon="12.7657695"><ele>268.0</ele><time>2026-05-02T14:31:33.966Z</time></trkpt><trkpt lat="42.0459052" lon="12.765734"><ele>268.0</ele><time>2026-05-02T14:31:34.964Z</time></trkpt><trkpt lat="42.0458084" lon="12.7657595"><ele>268.0</ele><time>2026-05-02T14:31:35.97Z</time></trkpt><trkpt lat="42.0457432" lon="12.7658012"><ele>268.0</ele><time>2026-05-02T14:31:36.965Z</time></trkpt><trkpt lat="42.0456753" lon="12.7658143"><ele>268.0</ele><time>2026-05-02T14:31:37.973Z</time></trkpt><trkpt lat="42.0456126" lon="12.7658254"><ele>268.0</ele><time>2026-05-02T14:31:38.965Z</time></trkpt><trkpt lat="42.0455474" lon="12.7658744"><ele>267.66666666666663</ele><time>2026-05-02T14:31:40.97Z</time></trkpt><trkpt lat="42.045501" lon="12.7659356"><ele>267.3333333333333</ele><time>2026-05-02T14:31:42.971Z</time></trkpt><trkpt lat="42.0454468" lon="12.7659788"><ele>267.0</ele><time>2026-05-02T14:31:52.976Z</time></trkpt><trkpt lat="42.0455365" lon="12.765992"><ele>266.6666666666667</ele><time>2026-05-02T14:31:59.973Z</time></trkpt><trkpt lat="42.0456046" lon="12.7659263"><ele>266.33333333333337</ele><time>2026-05-02T14:32:02.975Z</time></trkpt><trkpt lat="42.0455914" lon="12.7658403"><ele>266.0</ele><time>2026-05-02T14:32:03.977Z</time></trkpt><trkpt lat="42.0455421" lon="12.7657154"><ele>266.0</ele><time>2026-05-02T14:32:04.97Z</time></trkpt><trkpt lat="42.045497" lon="12.7656076"><ele>266.0</ele><time>2026-05-02T14:32:05.975Z</time></trkpt><trkpt lat="42.0454318" lon="12.765532"><ele>266.0</ele><time>2026-05-02T14:32:06.97Z</time></trkpt><trkpt lat="42.0453333" lon="12.7654653"><ele>266.0</ele><time>2026-05-02T14:32:07.971Z</time></trkpt><trkpt lat="42.0452244" lon="12.7653892"><ele>266.0</ele><time>2026-05-02T14:32:08.979Z</time></trkpt><trkpt lat="42.0451019" lon="12.7652995"><ele>261.33333333333337</ele><time>2026-05-02T14:32:09.971Z</time></trkpt><trkpt lat="42.0449594" lon="12.7651973"><ele>256.6666666666667</ele><time>2026-05-02T14:32:10.967Z</time></trkpt><trkpt lat="42.0447748" lon="12.765005"><ele>252.0</ele><time>2026-05-02T14:32:11.978Z</time></trkpt><trkpt lat="42.044602" lon="12.7648518"><ele>251.66666666666669</ele><time>2026-05-02T14:32:12.996Z</time></trkpt><trkpt lat="42.0444128" lon="12.7647009"><ele>251.33333333333334</ele><time>2026-05-02T14:32:14.016Z</time></trkpt><trkpt lat="42.0442263" lon="12.7645948"><ele>251.0</ele><time>2026-05-02T14:32:14.994Z</time></trkpt><trkpt lat="42.0440464" lon="12.7645201"><ele>249.0</ele><time>2026-05-02T14:32:15.991Z</time></trkpt><trkpt lat="42.0438799" lon="12.7644214"><ele>247.0</ele><time>2026-05-02T14:32:16.975Z</time></trkpt><trkpt lat="42.0436833" lon="12.764319"><ele>245.0</ele><time>2026-05-02T14:32:17.975Z</time></trkpt><trkpt lat="42.0434974" lon="12.764202"><ele>245.0</ele><time>2026-05-02T14:32:18.974Z</time></trkpt><trkpt lat="42.0433182" lon="12.7640544"><ele>245.0</ele><time>2026-05-02T14:32:19.972Z</time></trkpt><trkpt lat="42.0431755" lon="12.7639366"><ele>245.0</ele><time>2026-05-02T14:32:20.981Z</time></trkpt><trkpt lat="42.0430549" lon="12.7638588"><ele>243.66666666666669</ele><time>2026-05-02T14:32:21.971Z</time></trkpt><trkpt lat="42.0429597" lon="12.7637933"><ele>242.33333333333334</ele><time>2026-05-02T14:32:22.97Z</time></trkpt><trkpt lat="42.0428908" lon="12.7637384"><ele>241.0</ele><time>2026-05-02T14:32:23.97Z</time></trkpt><trkpt lat="42.042807" lon="12.7636822"><ele>239.66666666666669</ele><time>2026-05-02T14:32:25.965Z</time></trkpt><trkpt lat="42.042741" lon="12.7636825"><ele>238.33333333333334</ele><time>2026-05-02T14:32:29Z</time></trkpt><trkpt lat="42.0426444" lon="12.763705"><ele>237.0</ele><time>2026-05-02T14:32:30.984Z</time></trkpt><trkpt lat="42.0425792" lon="12.7637458"><ele>237.0</ele><time>2026-05-02T14:32:31.988Z</time></trkpt><trkpt lat="42.0425202" lon="12.7638214"><ele>237.0</ele><time>2026-05-02T14:32:32.978Z</time></trkpt><trkpt lat="42.0424668" lon="12.7639463"><ele>237.0</ele><time>2026-05-02T14:32:33.97Z</time></trkpt><trkpt lat="42.0423945" lon="12.7641018"><ele>237.0</ele><time>2026-05-02T14:32:34.967Z</time></trkpt><trkpt lat="42.0423179" lon="12.7643121"><ele>234.33333333333331</ele><time>2026-05-02T14:32:35.972Z</time></trkpt><trkpt lat="42.0422226" lon="12.7645845"><ele>231.66666666666666</ele><time>2026-05-02T14:32:36.977Z</time></trkpt><trkpt lat="42.0421457" lon="12.7647819"><ele>229.0</ele><time>2026-05-02T14:32:37.979Z</time></trkpt><trkpt lat="42.0420655" lon="12.7649465"><ele>229.0</ele><time>2026-05-02T14:32:38.978Z</time></trkpt><trkpt lat="42.0419845" lon="12.7650843"><ele>229.0</ele><time>2026-05-02T14:32:39.975Z</time></trkpt><trkpt lat="42.0419002" lon="12.7651526"><ele>229.0</ele><time>2026-05-02T14:32:40.967Z</time></trkpt><trkpt lat="42.0416849" lon="12.765076"><ele>227.75</ele><time>2026-05-02T14:32:42.978Z</time></trkpt><trkpt lat="42.0415359" lon="12.7650251"><ele>226.5</ele><time>2026-05-02T14:32:43.974Z</time></trkpt><trkpt lat="42.0413835" lon="12.7649671"><ele>225.25</ele><time>2026-05-02T14:32:44.976Z</time></trkpt><trkpt lat="42.0412569" lon="12.7649352"><ele>224.0</ele><time>2026-05-02T14:32:45.972Z</time></trkpt><trkpt lat="42.0411365" lon="12.7649019"><ele>224.00000000000003</ele><time>2026-05-02T14:32:46.97Z</time></trkpt><trkpt lat="42.0410411" lon="12.7648534"><ele>224.0</ele><time>2026-05-02T14:32:47.975Z</time></trkpt><trkpt lat="42.0409655" lon="12.7648132"><ele>224.0</ele><time>2026-05-02T14:32:48.997Z</time></trkpt><trkpt lat="42.040891" lon="12.7647692"><ele>224.0</ele><time>2026-05-02T14:32:49.967Z</time></trkpt><trkpt lat="42.0408271" lon="12.7647426"><ele>224.00000000000003</ele><time>2026-05-02T14:32:50.973Z</time></trkpt><trkpt lat="42.0407619" lon="12.7647175"><ele>224.0</ele><time>2026-05-02T14:32:51.975Z</time></trkpt><trkpt lat="42.0406454" lon="12.7646746"><ele>223.16666666666669</ele><time>2026-05-02T14:32:53.97Z</time></trkpt><trkpt lat="42.0405691" lon="12.7646476"><ele>222.33333333333334</ele><time>2026-05-02T14:34:41.979Z</time></trkpt><trkpt lat="42.0405019" lon="12.7646505"><ele>221.5</ele><time>2026-05-02T14:34:42.978Z</time></trkpt><trkpt lat="42.0404099" lon="12.7646647"><ele>220.66666666666669</ele><time>2026-05-02T14:34:43.976Z</time></trkpt><trkpt lat="42.0403144" lon="12.7646848"><ele>219.83333333333334</ele><time>2026-05-02T14:34:44.983Z</time></trkpt><trkpt lat="42.0402192" lon="12.7647043"><ele>219.0</ele><time>2026-05-02T14:34:45.972Z</time></trkpt><trkpt lat="42.0400923" lon="12.7647271"><ele>217.5</ele><time>2026-05-02T14:34:47.017Z</time></trkpt><trkpt lat="42.0399621" lon="12.7647434"><ele>216.0</ele><time>2026-05-02T14:34:48.005Z</time></trkpt><trkpt lat="42.039838" lon="12.7647485"><ele>214.5</ele><time>2026-05-02T14:34:48.98Z</time></trkpt><trkpt lat="42.0397045" lon="12.7647181"><ele>213.0</ele><time>2026-05-02T14:34:50.001Z</time></trkpt><trkpt lat="42.0395601" lon="12.7646609"><ele>213.0</ele><time>2026-05-02T14:34:50.974Z</time></trkpt><trkpt lat="42.0394253" lon="12.7646285"><ele>213.0</ele><time>2026-05-02T14:34:51.996Z</time></trkpt><trkpt lat="42.0392896" lon="12.7646018"><ele>213.0</ele><time>2026-05-02T14:34:52.979Z</time></trkpt><trkpt lat="42.0391519" lon="12.7645582"><ele>213.0</ele><time>2026-05-02T14:34:53.976Z</time></trkpt><trkpt lat="42.0390313" lon="12.7644827"><ele>211.25</ele><time>2026-05-02T14:34:54.981Z</time></trkpt><trkpt lat="42.0389241" lon="12.7643898"><ele>209.5</ele><time>2026-05-02T14:34:55.986Z</time></trkpt><trkpt lat="42.0388217" lon="12.7643095"><ele>207.75</ele><time>2026-05-02T14:34:56.977Z</time></trkpt><trkpt lat="42.0386759" lon="12.764246"><ele>206.0</ele><time>2026-05-02T14:34:57.985Z</time></trkpt><trkpt lat="42.0384992" lon="12.7641717"><ele>205.25</ele><time>2026-05-02T14:34:58.982Z</time></trkpt><trkpt lat="42.038344" lon="12.764122"><ele>204.5</ele><time>2026-05-02T14:34:59.985Z</time></trkpt><trkpt lat="42.0382002" lon="12.764064"><ele>203.75</ele><time>2026-05-02T14:35:00.983Z</time></trkpt><trkpt lat="42.0380783" lon="12.7640016"><ele>203.0</ele><time>2026-05-02T14:35:01.993Z</time></trkpt><trkpt lat="42.03795" lon="12.763963"><ele>201.5</ele><time>2026-05-02T14:35:02.987Z</time></trkpt><trkpt lat="42.0378071" lon="12.7639152"><ele>200.0</ele><time>2026-05-02T14:35:03.994Z</time></trkpt><trkpt lat="42.0376865" lon="12.7638757"><ele>198.5</ele><time>2026-05-02T14:35:05.032Z</time></trkpt><trkpt lat="42.0375627" lon="12.7638349"><ele>197.0</ele><time>2026-05-02T14:35:06.01Z</time></trkpt><trkpt lat="42.0374332" lon="12.7637881"><ele>196.5</ele><time>2026-05-02T14:35:07.012Z</time></trkpt><trkpt lat="42.0372978" lon="12.7637408"><ele>196.0</ele><time>2026-05-02T14:35:07.987Z</time></trkpt><trkpt lat="42.0371703" lon="12.7637064"><ele>195.5</ele><time>2026-05-02T14:35:08.988Z</time></trkpt><trkpt lat="42.0370133" lon="12.763642"><ele>195.0</ele><time>2026-05-02T14:35:09.989Z</time></trkpt><trkpt lat="42.0368369" lon="12.7635835"><ele>195.0</ele><time>2026-05-02T14:35:10.989Z</time></trkpt><trkpt lat="42.0366541" lon="12.7635696"><ele>195.0</ele><time>2026-05-02T14:35:11.984Z</time></trkpt><trkpt lat="42.0364844" lon="12.7635581"><ele>195.0</ele><time>2026-05-02T14:35:12.989Z</time></trkpt><trkpt lat="42.0363011" lon="12.7635286"><ele>193.33333333333334</ele><time>2026-05-02T14:35:13.985Z</time></trkpt><trkpt lat="42.0361181" lon="12.7634972"><ele>191.66666666666669</ele><time>2026-05-02T14:35:14.981Z</time></trkpt><trkpt lat="42.0359251" lon="12.7634821"><ele>190.0</ele><time>2026-05-02T14:35:15.988Z</time></trkpt><trkpt lat="42.0357272" lon="12.7634821"><ele>188.66666666666669</ele><time>2026-05-02T14:35:16.985Z</time></trkpt><trkpt lat="42.0355423" lon="12.7634623"><ele>187.33333333333334</ele><time>2026-05-02T14:35:17.985Z</time></trkpt><trkpt lat="42.0353879" lon="12.7634629"><ele>186.0</ele><time>2026-05-02T14:35:18.991Z</time></trkpt><trkpt lat="42.0352318" lon="12.7634674"><ele>186.0</ele><time>2026-05-02T14:35:19.978Z</time></trkpt><trkpt lat="42.0350955" lon="12.7634784"><ele>186.0</ele><time>2026-05-02T14:35:20.986Z</time></trkpt><trkpt lat="42.0349574" lon="12.7634443"><ele>186.0</ele><time>2026-05-02T14:35:21.979Z</time></trkpt><trkpt lat="42.0348046" lon="12.7633818"><ele>186.0</ele><time>2026-05-02T14:35:22.982Z</time></trkpt><trkpt lat="42.0345374" lon="12.7632584"><ele>185.5</ele><time>2026-05-02T14:35:24.977Z</time></trkpt><trkpt lat="42.034421" lon="12.7632701"><ele>185.0</ele><time>2026-05-02T14:35:25.977Z</time></trkpt><trkpt lat="42.0342773" lon="12.7633389"><ele>184.5</ele><time>2026-05-02T14:35:26.974Z</time></trkpt><trkpt lat="42.0341654" lon="12.7634088"><ele>184.0</ele><time>2026-05-02T14:35:27.988Z</time></trkpt><trkpt lat="42.0340639" lon="12.7635294"><ele>182.75</ele><time>2026-05-02T14:35:28.963Z</time></trkpt><trkpt lat="42.0339666" lon="12.7636762"><ele>181.5</ele><time>2026-05-02T14:35:29.981Z</time></trkpt><trkpt lat="42.0338623" lon="12.7637745"><ele>180.25</ele><time>2026-05-02T14:35:30.977Z</time></trkpt><trkpt lat="42.0337769" lon="12.7638517"><ele>179.0</ele><time>2026-05-02T14:35:31.974Z</time></trkpt><trkpt lat="42.0336742" lon="12.7638832"><ele>179.0</ele><time>2026-05-02T14:35:32.976Z</time></trkpt><trkpt lat="42.0335555" lon="12.7638379"><ele>179.0</ele><time>2026-05-02T14:35:33.971Z</time></trkpt><trkpt lat="42.033415" lon="12.7637635"><ele>179.0</ele><time>2026-05-02T14:35:34.971Z</time></trkpt><trkpt lat="42.0332682" lon="12.7636139"><ele>178.0</ele><time>2026-05-02T14:35:35.976Z</time></trkpt><trkpt lat="42.0331244" lon="12.7634556"><ele>177.0</ele><time>2026-05-02T14:35:36.979Z</time></trkpt><trkpt lat="42.032996" lon="12.7633835"><ele>176.0</ele><time>2026-05-02T14:35:37.974Z</time></trkpt><trkpt lat="42.0328571" lon="12.7633372"><ele>176.0</ele><time>2026-05-02T14:35:38.975Z</time></trkpt><trkpt lat="42.0327167" lon="12.7632822"><ele>176.0</ele><time>2026-05-02T14:35:39.968Z</time></trkpt><trkpt lat="42.0325923" lon="12.7632413"><ele>176.0</ele><time>2026-05-02T14:35:40.994Z</time></trkpt><trkpt lat="42.0324646" lon="12.7632107"><ele>176.0</ele><time>2026-05-02T14:35:41.993Z</time></trkpt><trkpt lat="42.0323049" lon="12.7632101"><ele>175.0</ele><time>2026-05-02T14:35:42.988Z</time></trkpt><trkpt lat="42.0321497" lon="12.7632455"><ele>174.0</ele><time>2026-05-02T14:35:43.997Z</time></trkpt><trkpt lat="42.0320066" lon="12.7632473"><ele>173.0</ele><time>2026-05-02T14:35:44.988Z</time></trkpt><trkpt lat="42.0318666" lon="12.7632471"><ele>172.0</ele><time>2026-05-02T14:35:45.972Z</time></trkpt><trkpt lat="42.031755" lon="12.7631849"><ele>171.75</ele><time>2026-05-02T14:35:46.977Z</time></trkpt><trkpt lat="42.0316229" lon="12.7630771"><ele>171.5</ele><time>2026-05-02T14:35:47.972Z</time></trkpt><trkpt lat="42.0315252" lon="12.762953"><ele>171.25</ele><time>2026-05-02T14:35:48.975Z</time></trkpt><trkpt lat="42.0314505" lon="12.7628433"><ele>171.0</ele><time>2026-05-02T14:35:49.971Z</time></trkpt><trkpt lat="42.031375" lon="12.7627301"><ele>170.25</ele><time>2026-05-02T14:35:50.967Z</time></trkpt><trkpt lat="42.031318" lon="12.7625997"><ele>169.5</ele><time>2026-05-02T14:35:51.967Z</time></trkpt><trkpt lat="42.0312752" lon="12.7624366"><ele>168.75</ele><time>2026-05-02T14:35:52.971Z</time></trkpt><trkpt lat="42.0312456" lon="12.7622669"><ele>168.0</ele><time>2026-05-02T14:35:53.966Z</time></trkpt><trkpt lat="42.0312352" lon="12.7620878"><ele>168.0</ele><time>2026-05-02T14:35:54.967Z</time></trkpt><trkpt lat="42.0312091" lon="12.7619138"><ele>168.0</ele><time>2026-05-02T14:35:55.969Z</time></trkpt><trkpt lat="42.0311341" lon="12.7617252"><ele>168.0</ele><time>2026-05-02T14:35:56.972Z</time></trkpt><trkpt lat="42.0310235" lon="12.7615385"><ele>167.75</ele><time>2026-05-02T14:35:57.969Z</time></trkpt><trkpt lat="42.0309256" lon="12.7613935"><ele>167.5</ele><time>2026-05-02T14:35:58.995Z</time></trkpt><trkpt lat="42.0308455" lon="12.7612713"><ele>167.25</ele><time>2026-05-02T14:35:59.995Z</time></trkpt><trkpt lat="42.0307923" lon="12.7611441"><ele>167.0</ele><time>2026-05-02T14:36:00.983Z</time></trkpt><trkpt lat="42.0307537" lon="12.7609866"><ele>167.0</ele><time>2026-05-02T14:36:01.997Z</time></trkpt><trkpt lat="42.0307171" lon="12.7608405"><ele>167.0</ele><time>2026-05-02T14:36:03.007Z</time></trkpt><trkpt lat="42.0307083" lon="12.7606683"><ele>167.0</ele><time>2026-05-02T14:36:04Z</time></trkpt><trkpt lat="42.0307114" lon="12.7604575"><ele>167.0</ele><time>2026-05-02T14:36:04.971Z</time></trkpt><trkpt lat="42.0306901" lon="12.7601782"><ele>166.0</ele><time>2026-05-02T14:36:05.989Z</time></trkpt><trkpt lat="42.0307126" lon="12.7599302"><ele>165.0</ele><time>2026-05-02T14:36:06.997Z</time></trkpt><trkpt lat="42.0306783" lon="12.7596153"><ele>164.0</ele><time>2026-05-02T14:36:07.985Z</time></trkpt><trkpt lat="42.0306305" lon="12.7593216"><ele>164.0</ele><time>2026-05-02T14:36:08.965Z</time></trkpt><trkpt lat="42.0306075" lon="12.7590529"><ele>164.0</ele><time>2026-05-02T14:36:09.973Z</time></trkpt><trkpt lat="42.0305892" lon="12.7587926"><ele>164.0</ele><time>2026-05-02T14:36:10.972Z</time></trkpt><trkpt lat="42.0305599" lon="12.7585406"><ele>164.66666666666666</ele><time>2026-05-02T14:36:11.972Z</time></trkpt><trkpt lat="42.0305307" lon="12.7582781"><ele>165.33333333333334</ele><time>2026-05-02T14:36:12.975Z</time></trkpt><trkpt lat="42.0305605" lon="12.758043"><ele>166.0</ele><time>2026-05-02T14:36:13.978Z</time></trkpt><trkpt lat="42.0306181" lon="12.7578062"><ele>166.33333333333334</ele><time>2026-05-02T14:36:14.984Z</time></trkpt><trkpt lat="42.0307234" lon="12.757514"><ele>166.66666666666666</ele><time>2026-05-02T14:36:15.982Z</time></trkpt><trkpt lat="42.0307833" lon="12.7572495"><ele>167.0</ele><time>2026-05-02T14:36:17.005Z</time></trkpt><trkpt lat="42.0307876" lon="12.7570337"><ele>166.66666666666666</ele><time>2026-05-02T14:36:18.022Z</time></trkpt><trkpt lat="42.0308045" lon="12.756794"><ele>166.33333333333334</ele><time>2026-05-02T14:36:19.003Z</time></trkpt><trkpt lat="42.0308209" lon="12.7565943"><ele>166.0</ele><time>2026-05-02T14:36:19.997Z</time></trkpt><trkpt lat="42.0308514" lon="12.756405"><ele>162.66666666666669</ele><time>2026-05-02T14:36:20.997Z</time></trkpt><trkpt lat="42.0308682" lon="12.756168"><ele>159.33333333333334</ele><time>2026-05-02T14:36:21.975Z</time></trkpt><trkpt lat="42.0309007" lon="12.7559875"><ele>156.0</ele><time>2026-05-02T14:36:22.978Z</time></trkpt><trkpt lat="42.0309891" lon="12.7558036"><ele>155.66666666666666</ele><time>2026-05-02T14:36:23.998Z</time></trkpt><trkpt lat="42.0311118" lon="12.7555467"><ele>155.33333333333331</ele><time>2026-05-02T14:36:25.005Z</time></trkpt><trkpt lat="42.0312365" lon="12.7553345"><ele>155.0</ele><time>2026-05-02T14:36:25.977Z</time></trkpt><trkpt lat="42.0313431" lon="12.7551549"><ele>155.66666666666666</ele><time>2026-05-02T14:36:26.984Z</time></trkpt><trkpt lat="42.0314899" lon="12.7549714"><ele>156.33333333333334</ele><time>2026-05-02T14:36:27.98Z</time></trkpt><trkpt lat="42.0316315" lon="12.7548169"><ele>157.0</ele><time>2026-05-02T14:36:28.981Z</time></trkpt><trkpt lat="42.0317318" lon="12.7546696"><ele>155.5</ele><time>2026-05-02T14:36:29.971Z</time></trkpt><trkpt lat="42.0318233" lon="12.7545476"><ele>154.0</ele><time>2026-05-02T14:36:30.977Z</time></trkpt><trkpt lat="42.0318539" lon="12.7544127"><ele>152.5</ele><time>2026-05-02T14:36:31.983Z</time></trkpt><trkpt lat="42.0318393" lon="12.7542189"><ele>151.0</ele><time>2026-05-02T14:36:32.993Z</time></trkpt><trkpt lat="42.031803" lon="12.7540225"><ele>149.25</ele><time>2026-05-02T14:36:33.976Z</time></trkpt><trkpt lat="42.031815" lon="12.7538273"><ele>147.5</ele><time>2026-05-02T14:36:34.997Z</time></trkpt><trkpt lat="42.0318185" lon="12.7536363"><ele>145.75</ele><time>2026-05-02T14:36:35.983Z</time></trkpt><trkpt lat="42.031852" lon="12.7534567"><ele>144.0</ele><time>2026-05-02T14:36:36.989Z</time></trkpt><trkpt lat="42.031941" lon="12.7533034"><ele>144.0</ele><time>2026-05-02T14:36:37.988Z</time></trkpt><trkpt lat="42.0320027" lon="12.7531383"><ele>144.0</ele><time>2026-05-02T14:36:38.986Z</time></trkpt><trkpt lat="42.0320203" lon="12.7529933"><ele>144.0</ele><time>2026-05-02T14:36:39.987Z</time></trkpt><trkpt lat="42.0320413" lon="12.7527922"><ele>144.0</ele><time>2026-05-02T14:36:40.987Z</time></trkpt><trkpt lat="42.0320618" lon="12.7525969"><ele>144.25</ele><time>2026-05-02T14:36:41.988Z</time></trkpt><trkpt lat="42.0320914" lon="12.7523892"><ele>144.5</ele><time>2026-05-02T14:36:42.988Z</time></trkpt><trkpt lat="42.0321096" lon="12.7521704"><ele>144.75</ele><time>2026-05-02T14:36:43.974Z</time></trkpt><trkpt lat="42.0321115" lon="12.7519981"><ele>145.0</ele><time>2026-05-02T14:36:44.984Z</time></trkpt><trkpt lat="42.0321165" lon="12.7518096"><ele>143.0</ele><time>2026-05-02T14:36:45.979Z</time></trkpt><trkpt lat="42.0320845" lon="12.7516491"><ele>141.0</ele><time>2026-05-02T14:36:46.983Z</time></trkpt><trkpt lat="42.0320388" lon="12.7515246"><ele>139.0</ele><time>2026-05-02T14:36:47.978Z</time></trkpt><trkpt lat="42.0320252" lon="12.751438"><ele>137.0</ele><time>2026-05-02T14:36:48.971Z</time></trkpt><trkpt lat="42.0319896" lon="12.7512948"><ele>135.0</ele><time>2026-05-02T14:36:50.983Z</time></trkpt><trkpt lat="42.0319478" lon="12.7511459"><ele>135.0</ele><time>2026-05-02T14:36:52.998Z</time></trkpt><trkpt lat="42.0319069" lon="12.7510579"><ele>135.0</ele><time>2026-05-02T14:36:54.003Z</time></trkpt><trkpt lat="42.0318593" lon="12.7509691"><ele>135.0</ele><time>2026-05-02T14:36:54.999Z</time></trkpt><trkpt lat="42.0317777" lon="12.7509327"><ele>135.0</ele><time>2026-05-02T14:36:56.002Z</time></trkpt><trkpt lat="42.0316834" lon="12.7509368"><ele>135.0</ele><time>2026-05-02T14:36:57.005Z</time></trkpt><trkpt lat="42.0315929" lon="12.7509752"><ele>135.0</ele><time>2026-05-02T14:36:58.007Z</time></trkpt><trkpt lat="42.0315011" lon="12.7510792"><ele>137.33333333333334</ele><time>2026-05-02T14:36:59.006Z</time></trkpt><trkpt lat="42.0314006" lon="12.7511895"><ele>139.66666666666669</ele><time>2026-05-02T14:36:59.972Z</time></trkpt><trkpt lat="42.0312797" lon="12.7512972"><ele>142.0</ele><time>2026-05-02T14:37:00.982Z</time></trkpt><trkpt lat="42.0311163" lon="12.751399"><ele>142.0</ele><time>2026-05-02T14:37:01.982Z</time></trkpt><trkpt lat="42.0309123" lon="12.7514859"><ele>142.0</ele><time>2026-05-02T14:37:02.985Z</time></trkpt><trkpt lat="42.0307425" lon="12.7515383"><ele>142.0</ele><time>2026-05-02T14:37:03.978Z</time></trkpt><trkpt lat="42.0305714" lon="12.7515467"><ele>142.75</ele><time>2026-05-02T14:37:04.986Z</time></trkpt><trkpt lat="42.0304116" lon="12.7515695"><ele>143.5</ele><time>2026-05-02T14:37:05.985Z</time></trkpt><trkpt lat="42.0302694" lon="12.7515709"><ele>144.25</ele><time>2026-05-02T14:37:06.974Z</time></trkpt><trkpt lat="42.0301355" lon="12.7515561"><ele>145.0</ele><time>2026-05-02T14:37:07.979Z</time></trkpt><trkpt lat="42.0300182" lon="12.7515425"><ele>143.33333333333334</ele><time>2026-05-02T14:37:08.971Z</time></trkpt><trkpt lat="42.0298784" lon="12.7514878"><ele>141.66666666666666</ele><time>2026-05-02T14:37:09.983Z</time></trkpt><trkpt lat="42.0297113" lon="12.7514962"><ele>140.0</ele><time>2026-05-02T14:37:11.021Z</time></trkpt><trkpt lat="42.0295527" lon="12.7515066"><ele>140.0</ele><time>2026-05-02T14:37:11.996Z</time></trkpt><trkpt lat="42.0293994" lon="12.7515274"><ele>140.0</ele><time>2026-05-02T14:37:12.982Z</time></trkpt><trkpt lat="42.0292666" lon="12.751588"><ele>140.0</ele><time>2026-05-02T14:37:13.986Z</time></trkpt><trkpt lat="42.0291411" lon="12.7516381"><ele>140.0</ele><time>2026-05-02T14:37:14.986Z</time></trkpt><trkpt lat="42.0290222" lon="12.7516994"><ele>140.0</ele><time>2026-05-02T14:37:16.001Z</time></trkpt><trkpt lat="42.0289147" lon="12.751787"><ele>140.0</ele><time>2026-05-02T14:37:16.99Z</time></trkpt><trkpt lat="42.0287929" lon="12.7519325"><ele>140.0</ele><time>2026-05-02T14:37:17.997Z</time></trkpt><trkpt lat="42.0286451" lon="12.7520512"><ele>140.0</ele><time>2026-05-02T14:37:18.999Z</time></trkpt><trkpt lat="42.0285026" lon="12.7521685"><ele>140.0</ele><time>2026-05-02T14:37:19.988Z</time></trkpt><trkpt lat="42.0283849" lon="12.7522614"><ele>140.0</ele><time>2026-05-02T14:37:20.992Z</time></trkpt><trkpt lat="42.0282719" lon="12.7523622"><ele>140.0</ele><time>2026-05-02T14:37:21.991Z</time></trkpt><trkpt lat="42.0281213" lon="12.7524356"><ele>138.33333333333331</ele><time>2026-05-02T14:37:22.99Z</time></trkpt><trkpt lat="42.0279548" lon="12.7524784"><ele>136.66666666666666</ele><time>2026-05-02T14:37:23.986Z</time></trkpt><trkpt lat="42.0277807" lon="12.752511"><ele>135.0</ele><time>2026-05-02T14:37:24.998Z</time></trkpt><trkpt lat="42.0276137" lon="12.7525376"><ele>136.25</ele><time>2026-05-02T14:37:25.988Z</time></trkpt><trkpt lat="42.0274717" lon="12.7525678"><ele>137.5</ele><time>2026-05-02T14:37:26.993Z</time></trkpt><trkpt lat="42.0273465" lon="12.7526235"><ele>138.75</ele><time>2026-05-02T14:37:27.991Z</time></trkpt><trkpt lat="42.0272093" lon="12.752728"><ele>140.0</ele><time>2026-05-02T14:37:28.99Z</time></trkpt><trkpt lat="42.0270462" lon="12.7528638"><ele>140.0</ele><time>2026-05-02T14:37:29.987Z</time></trkpt><trkpt lat="42.0268787" lon="12.7530079"><ele>140.0</ele><time>2026-05-02T14:37:30.982Z</time></trkpt><trkpt lat="42.0267087" lon="12.7531237"><ele>140.0</ele><time>2026-05-02T14:37:31.99Z</time></trkpt><trkpt lat="42.0265499" lon="12.7532172"><ele>136.0</ele><time>2026-05-02T14:37:32.988Z</time></trkpt><trkpt lat="42.0263863" lon="12.753329"><ele>132.0</ele><time>2026-05-02T14:37:33.992Z</time></trkpt><trkpt lat="42.0262255" lon="12.7534223"><ele>128.0</ele><time>2026-05-02T14:37:34.986Z</time></trkpt><trkpt lat="42.0260612" lon="12.753495"><ele>129.33333333333331</ele><time>2026-05-02T14:37:35.988Z</time></trkpt><trkpt lat="42.0258917" lon="12.7535427"><ele>130.66666666666666</ele><time>2026-05-02T14:37:36.991Z</time></trkpt><trkpt lat="42.025704" lon="12.7536027"><ele>132.0</ele><time>2026-05-02T14:37:37.995Z</time></trkpt><trkpt lat="42.0255097" lon="12.753695"><ele>132.0</ele><time>2026-05-02T14:37:38.987Z</time></trkpt><trkpt lat="42.0253225" lon="12.7537834"><ele>132.0</ele><time>2026-05-02T14:37:39.999Z</time></trkpt><trkpt lat="42.0251265" lon="12.7538808"><ele>132.0</ele><time>2026-05-02T14:37:40.989Z</time></trkpt><trkpt lat="42.024941" lon="12.7539912"><ele>128.0</ele><time>2026-05-02T14:37:41.989Z</time></trkpt><trkpt lat="42.0247655" lon="12.754086"><ele>124.0</ele><time>2026-05-02T14:37:42.981Z</time></trkpt><trkpt lat="42.0246195" lon="12.7541798"><ele>120.0</ele><time>2026-05-02T14:37:43.983Z</time></trkpt><trkpt lat="42.0244594" lon="12.7542773"><ele>119.66666666666666</ele><time>2026-05-02T14:37:44.987Z</time></trkpt><trkpt lat="42.0243076" lon="12.754428"><ele>119.33333333333333</ele><time>2026-05-02T14:37:45.988Z</time></trkpt><trkpt lat="42.0241499" lon="12.7545577"><ele>119.0</ele><time>2026-05-02T14:37:46.998Z</time></trkpt><trkpt lat="42.0240021" lon="12.7546967"><ele>119.0</ele><time>2026-05-02T14:37:48.026Z</time></trkpt><trkpt lat="42.0238605" lon="12.7548284"><ele>119.0</ele><time>2026-05-02T14:37:49.026Z</time></trkpt><trkpt lat="42.0237211" lon="12.7549729"><ele>119.0</ele><time>2026-05-02T14:37:50.022Z</time></trkpt><trkpt lat="42.0235877" lon="12.7551018"><ele>118.0</ele><time>2026-05-02T14:37:51.004Z</time></trkpt><trkpt lat="42.0234493" lon="12.755228"><ele>117.0</ele><time>2026-05-02T14:37:51.986Z</time></trkpt><trkpt lat="42.0232833" lon="12.7553506"><ele>116.0</ele><time>2026-05-02T14:37:52.985Z</time></trkpt><trkpt lat="42.0231332" lon="12.7554618"><ele>116.0</ele><time>2026-05-02T14:37:53.98Z</time></trkpt><trkpt lat="42.0229695" lon="12.7555609"><ele>116.0</ele><time>2026-05-02T14:37:54.985Z</time></trkpt><trkpt lat="42.0228487" lon="12.7556736"><ele>116.0</ele><time>2026-05-02T14:37:55.987Z</time></trkpt><trkpt lat="42.0227349" lon="12.7557728"><ele>116.0</ele><time>2026-05-02T14:37:56.977Z</time></trkpt><trkpt lat="42.0225987" lon="12.75588"><ele>116.0</ele><time>2026-05-02T14:37:57.981Z</time></trkpt><trkpt lat="42.0224374" lon="12.7559849"><ele>116.0</ele><time>2026-05-02T14:37:58.986Z</time></trkpt><trkpt lat="42.0222646" lon="12.7561114"><ele>115.33333333333333</ele><time>2026-05-02T14:37:59.982Z</time></trkpt><trkpt lat="42.0220936" lon="12.7562574"><ele>114.66666666666666</ele><time>2026-05-02T14:38:00.985Z</time></trkpt><trkpt lat="42.0219044" lon="12.7564104"><ele>114.0</ele><time>2026-05-02T14:38:01.984Z</time></trkpt><trkpt lat="42.0217312" lon="12.7565328"><ele>114.0</ele><time>2026-05-02T14:38:02.992Z</time></trkpt><trkpt lat="42.0215658" lon="12.7566543"><ele>114.0</ele><time>2026-05-02T14:38:03.995Z</time></trkpt><trkpt lat="42.0213947" lon="12.756818"><ele>114.0</ele><time>2026-05-02T14:38:05.028Z</time></trkpt><trkpt lat="42.0212289" lon="12.7569791"><ele>114.0</ele><time>2026-05-02T14:38:06.009Z</time></trkpt><trkpt lat="42.0210731" lon="12.7571083"><ele>114.0</ele><time>2026-05-02T14:38:06.99Z</time></trkpt><trkpt lat="42.0209073" lon="12.7572483"><ele>114.0</ele><time>2026-05-02T14:38:07.985Z</time></trkpt><trkpt lat="42.0207206" lon="12.7574092"><ele>114.0</ele><time>2026-05-02T14:38:08.986Z</time></trkpt><trkpt lat="42.0205277" lon="12.7575691"><ele>114.0</ele><time>2026-05-02T14:38:09.99Z</time></trkpt><trkpt lat="42.0203709" lon="12.7577283"><ele>114.0</ele><time>2026-05-02T14:38:10.978Z</time></trkpt><trkpt lat="42.020209" lon="12.7578846"><ele>114.0</ele><time>2026-05-02T14:38:11.987Z</time></trkpt><trkpt lat="42.0200323" lon="12.7579965"><ele>114.0</ele><time>2026-05-02T14:38:12.98Z</time></trkpt><trkpt lat="42.0198982" lon="12.7581271"><ele>114.0</ele><time>2026-05-02T14:38:13.982Z</time></trkpt><trkpt lat="42.0197726" lon="12.7582735"><ele>113.33333333333334</ele><time>2026-05-02T14:38:14.977Z</time></trkpt><trkpt lat="42.0196534" lon="12.758417"><ele>112.66666666666667</ele><time>2026-05-02T14:38:15.979Z</time></trkpt><trkpt lat="42.0194887" lon="12.7584968"><ele>112.0</ele><time>2026-05-02T14:38:16.98Z</time></trkpt><trkpt lat="42.019311" lon="12.7585664"><ele>113.66666666666667</ele><time>2026-05-02T14:38:17.983Z</time></trkpt><trkpt lat="42.0191295" lon="12.758588"><ele>115.33333333333334</ele><time>2026-05-02T14:38:18.986Z</time></trkpt><trkpt lat="42.0189656" lon="12.7586377"><ele>117.0</ele><time>2026-05-02T14:38:19.982Z</time></trkpt><trkpt lat="42.0188227" lon="12.7587451"><ele>117.0</ele><time>2026-05-02T14:38:20.988Z</time></trkpt><trkpt lat="42.0186785" lon="12.7588618"><ele>117.0</ele><time>2026-05-02T14:38:21.982Z</time></trkpt><trkpt lat="42.0185403" lon="12.7589834"><ele>117.0</ele><time>2026-05-02T14:38:23.026Z</time></trkpt><trkpt lat="42.0184251" lon="12.7590924"><ele>117.0</ele><time>2026-05-02T14:38:24.026Z</time></trkpt><trkpt lat="42.0183209" lon="12.7591661"><ele>117.0</ele><time>2026-05-02T14:38:25.03Z</time></trkpt><trkpt lat="42.018173" lon="12.7592045"><ele>117.0</ele><time>2026-05-02T14:38:26.015Z</time></trkpt><trkpt lat="42.0180272" lon="12.7591774"><ele>117.0</ele><time>2026-05-02T14:38:27.002Z</time></trkpt><trkpt lat="42.0178648" lon="12.7591362"><ele>116.0</ele><time>2026-05-02T14:38:28.001Z</time></trkpt><trkpt lat="42.0177042" lon="12.7591178"><ele>115.0</ele><time>2026-05-02T14:38:29.003Z</time></trkpt><trkpt lat="42.0175546" lon="12.7591105"><ele>114.0</ele><time>2026-05-02T14:38:29.984Z</time></trkpt><trkpt lat="42.0174021" lon="12.7591222"><ele>114.25</ele><time>2026-05-02T14:38:31.001Z</time></trkpt><trkpt lat="42.0172479" lon="12.7591681"><ele>114.5</ele><time>2026-05-02T14:38:31.981Z</time></trkpt><trkpt lat="42.0171273" lon="12.7591887"><ele>114.75</ele><time>2026-05-02T14:38:33Z</time></trkpt><trkpt lat="42.0170116" lon="12.7592551"><ele>115.0</ele><time>2026-05-02T14:38:33.997Z</time></trkpt><trkpt lat="42.0169336" lon="12.7593968"><ele>115.0</ele><time>2026-05-02T14:38:35.009Z</time></trkpt><trkpt lat="42.0168469" lon="12.7595417"><ele>115.0</ele><time>2026-05-02T14:38:36.005Z</time></trkpt><trkpt lat="42.016736" lon="12.7596533"><ele>115.0</ele><time>2026-05-02T14:38:37.005Z</time></trkpt><trkpt lat="42.0166533" lon="12.7597039"><ele>115.0</ele><time>2026-05-02T14:38:37.983Z</time></trkpt><trkpt lat="42.0165345" lon="12.7597238"><ele>117.0</ele><time>2026-05-02T14:38:38.982Z</time></trkpt><trkpt lat="42.0164077" lon="12.7597255"><ele>119.0</ele><time>2026-05-02T14:38:39.976Z</time></trkpt><trkpt lat="42.0162588" lon="12.7596901"><ele>121.0</ele><time>2026-05-02T14:38:41.031Z</time></trkpt><trkpt lat="42.0160968" lon="12.7595833"><ele>121.0</ele><time>2026-05-02T14:38:41.978Z</time></trkpt><trkpt lat="42.0159605" lon="12.7594742"><ele>121.0</ele><time>2026-05-02T14:38:42.985Z</time></trkpt><trkpt lat="42.015836" lon="12.7593897"><ele>121.0</ele><time>2026-05-02T14:38:43.986Z</time></trkpt><trkpt lat="42.0157116" lon="12.7593348"><ele>121.0</ele><time>2026-05-02T14:38:44.983Z</time></trkpt><trkpt lat="42.0155668" lon="12.7592809"><ele>121.0</ele><time>2026-05-02T14:38:45.979Z</time></trkpt><trkpt lat="42.0154201" lon="12.7593074"><ele>121.0</ele><time>2026-05-02T14:38:46.982Z</time></trkpt><trkpt lat="42.0152796" lon="12.7593632"><ele>121.0</ele><time>2026-05-02T14:38:47.985Z</time></trkpt><trkpt lat="42.015127" lon="12.7594405"><ele>120.0</ele><time>2026-05-02T14:38:48.979Z</time></trkpt><trkpt lat="42.0149547" lon="12.7595268"><ele>119.0</ele><time>2026-05-02T14:38:49.984Z</time></trkpt><trkpt lat="42.0147733" lon="12.7595781"><ele>118.0</ele><time>2026-05-02T14:38:50.982Z</time></trkpt><trkpt lat="42.0146229" lon="12.7596303"><ele>118.0</ele><time>2026-05-02T14:38:51.981Z</time></trkpt><trkpt lat="42.0144897" lon="12.759674"><ele>118.0</ele><time>2026-05-02T14:38:52.981Z</time></trkpt><trkpt lat="42.0143501" lon="12.7596913"><ele>118.0</ele><time>2026-05-02T14:38:53.983Z</time></trkpt><trkpt lat="42.0141721" lon="12.7596905"><ele>118.66666666666667</ele><time>2026-05-02T14:38:54.979Z</time></trkpt><trkpt lat="42.0139911" lon="12.7596473"><ele>119.33333333333334</ele><time>2026-05-02T14:38:55.989Z</time></trkpt><trkpt lat="42.0138129" lon="12.7595499"><ele>120.0</ele><time>2026-05-02T14:38:56.988Z</time></trkpt><trkpt lat="42.0136446" lon="12.7594645"><ele>120.0</ele><time>2026-05-02T14:38:57.989Z</time></trkpt><trkpt lat="42.0134602" lon="12.7594015"><ele>120.0</ele><time>2026-05-02T14:38:59.031Z</time></trkpt><trkpt lat="42.0132795" lon="12.7593724"><ele>120.0</ele><time>2026-05-02T14:39:00.016Z</time></trkpt><trkpt lat="42.0131223" lon="12.7593483"><ele>121.33333333333334</ele><time>2026-05-02T14:39:00.976Z</time></trkpt><trkpt lat="42.0129663" lon="12.7593608"><ele>122.66666666666667</ele><time>2026-05-02T14:39:01.981Z</time></trkpt><trkpt lat="42.0128098" lon="12.7593951"><ele>124.0</ele><time>2026-05-02T14:39:02.977Z</time></trkpt><trkpt lat="42.0126753" lon="12.7594612"><ele>124.0</ele><time>2026-05-02T14:39:03.985Z</time></trkpt><trkpt lat="42.0125276" lon="12.7595223"><ele>124.0</ele><time>2026-05-02T14:39:04.986Z</time></trkpt><trkpt lat="42.0123768" lon="12.7595698"><ele>124.0</ele><time>2026-05-02T14:39:05.989Z</time></trkpt><trkpt lat="42.0122238" lon="12.7595445"><ele>123.33333333333334</ele><time>2026-05-02T14:39:06.988Z</time></trkpt><trkpt lat="42.0120767" lon="12.7595128"><ele>122.66666666666666</ele><time>2026-05-02T14:39:07.982Z</time></trkpt><trkpt lat="42.011915" lon="12.7594879"><ele>122.0</ele><time>2026-05-02T14:39:08.985Z</time></trkpt><trkpt lat="42.0117725" lon="12.7594523"><ele>120.5</ele><time>2026-05-02T14:39:09.987Z</time></trkpt><trkpt lat="42.0116426" lon="12.7594605"><ele>119.0</ele><time>2026-05-02T14:39:10.985Z</time></trkpt><trkpt lat="42.0115231" lon="12.7595092"><ele>117.5</ele><time>2026-05-02T14:39:11.986Z</time></trkpt><trkpt lat="42.0113805" lon="12.7595645"><ele>116.0</ele><time>2026-05-02T14:39:12.983Z</time></trkpt><trkpt lat="42.0112106" lon="12.7595784"><ele>116.0</ele><time>2026-05-02T14:39:13.977Z</time></trkpt><trkpt lat="42.0110259" lon="12.7595553"><ele>116.0</ele><time>2026-05-02T14:39:14.979Z</time></trkpt><trkpt lat="42.0108655" lon="12.7595428"><ele>116.0</ele><time>2026-05-02T14:39:15.985Z</time></trkpt><trkpt lat="42.0107215" lon="12.7595402"><ele>114.0</ele><time>2026-05-02T14:39:16.981Z</time></trkpt><trkpt lat="42.010573" lon="12.7595153"><ele>112.0</ele><time>2026-05-02T14:39:17.978Z</time></trkpt><trkpt lat="42.0104449" lon="12.7595167"><ele>110.0</ele><time>2026-05-02T14:39:19.008Z</time></trkpt><trkpt lat="42.0102992" lon="12.7595195"><ele>108.0</ele><time>2026-05-02T14:39:20.005Z</time></trkpt><trkpt lat="42.0101547" lon="12.7595432"><ele>108.0</ele><time>2026-05-02T14:39:21.003Z</time></trkpt><trkpt lat="42.0100117" lon="12.7596193"><ele>108.0</ele><time>2026-05-02T14:39:21.996Z</time></trkpt><trkpt lat="42.009878" lon="12.7597157"><ele>108.0</ele><time>2026-05-02T14:39:23.005Z</time></trkpt><trkpt lat="42.0097099" lon="12.7598505"><ele>108.0</ele><time>2026-05-02T14:39:24.002Z</time></trkpt><trkpt lat="42.0095575" lon="12.7599942"><ele>108.0</ele><time>2026-05-02T14:39:25Z</time></trkpt><trkpt lat="42.009398" lon="12.7600992"><ele>108.0</ele><time>2026-05-02T14:39:26.005Z</time></trkpt><trkpt lat="42.0092663" lon="12.7602206"><ele>109.0</ele><time>2026-05-02T14:39:26.979Z</time></trkpt><trkpt lat="42.0091442" lon="12.7603289"><ele>110.00000000000001</ele><time>2026-05-02T14:39:27.984Z</time></trkpt><trkpt lat="42.0090473" lon="12.7604107"><ele>111.00000000000001</ele><time>2026-05-02T14:39:28.984Z</time></trkpt><trkpt lat="42.0089737" lon="12.7604588"><ele>112.0</ele><time>2026-05-02T14:39:29.98Z</time></trkpt><trkpt lat="42.008891" lon="12.7604949"><ele>113.0</ele><time>2026-05-02T14:39:31.978Z</time></trkpt><trkpt lat="42.0087997" lon="12.7604596"><ele>113.0</ele><time>2026-05-02T14:39:33.977Z</time></trkpt><trkpt lat="42.0087321" lon="12.7603599"><ele>113.00000000000001</ele><time>2026-05-02T14:39:35.984Z</time></trkpt><trkpt lat="42.0086826" lon="12.7603043"><ele>113.00000000000001</ele><time>2026-05-02T14:39:36.979Z</time></trkpt><trkpt lat="42.0086084" lon="12.7602452"><ele>113.0</ele><time>2026-05-02T14:39:37.979Z</time></trkpt><trkpt lat="42.0085058" lon="12.7601546"><ele>113.0</ele><time>2026-05-02T14:39:38.98Z</time></trkpt><trkpt lat="42.0083849" lon="12.7600428"><ele>113.0</ele><time>2026-05-02T14:39:39.975Z</time></trkpt><trkpt lat="42.0082534" lon="12.759905"><ele>113.0</ele><time>2026-05-02T14:39:40.975Z</time></trkpt><trkpt lat="42.008117" lon="12.7597271"><ele>113.0</ele><time>2026-05-02T14:39:41.984Z</time></trkpt><trkpt lat="42.0079401" lon="12.7595463"><ele>108.5</ele><time>2026-05-02T14:39:42.975Z</time></trkpt><trkpt lat="42.0077812" lon="12.7593514"><ele>104.0</ele><time>2026-05-02T14:39:43.974Z</time></trkpt><trkpt lat="42.0076012" lon="12.7591268"><ele>106.5</ele><time>2026-05-02T14:39:44.98Z</time></trkpt><trkpt lat="42.0074359" lon="12.7589019"><ele>109.0</ele><time>2026-05-02T14:39:45.978Z</time></trkpt><trkpt lat="42.0072657" lon="12.7586966"><ele>106.66666666666667</ele><time>2026-05-02T14:39:46.972Z</time></trkpt><trkpt lat="42.0071176" lon="12.7585159"><ele>104.33333333333334</ele><time>2026-05-02T14:39:47.98Z</time></trkpt><trkpt lat="42.0069721" lon="12.7583317"><ele>102.0</ele><time>2026-05-02T14:39:48.979Z</time></trkpt><trkpt lat="42.0068279" lon="12.7581413"><ele>102.0</ele><time>2026-05-02T14:39:49.976Z</time></trkpt><trkpt lat="42.0066848" lon="12.757941"><ele>102.0</ele><time>2026-05-02T14:39:50.99Z</time></trkpt><trkpt lat="42.0065475" lon="12.757749"><ele>102.0</ele><time>2026-05-02T14:39:51.989Z</time></trkpt><trkpt lat="42.0063879" lon="12.7575536"><ele>102.5</ele><time>2026-05-02T14:39:52.98Z</time></trkpt><trkpt lat="42.0062077" lon="12.7573503"><ele>103.0</ele><time>2026-05-02T14:39:53.985Z</time></trkpt><trkpt lat="42.0060466" lon="12.75715"><ele>103.0</ele><time>2026-05-02T14:39:54.978Z</time></trkpt><trkpt lat="42.0058973" lon="12.7569591"><ele>103.0</ele><time>2026-05-02T14:39:55.983Z</time></trkpt><trkpt lat="42.0057578" lon="12.7567771"><ele>103.0</ele><time>2026-05-02T14:39:56.985Z</time></trkpt><trkpt lat="42.0056253" lon="12.7566124"><ele>102.0</ele><time>2026-05-02T14:39:57.985Z</time></trkpt><trkpt lat="42.0055042" lon="12.7564399"><ele>101.0</ele><time>2026-05-02T14:39:58.986Z</time></trkpt><trkpt lat="42.005387" lon="12.7562778"><ele>100.0</ele><time>2026-05-02T14:39:59.995Z</time></trkpt><trkpt lat="42.005262" lon="12.756104"><ele>100.33333333333334</ele><time>2026-05-02T14:40:00.979Z</time></trkpt><trkpt lat="42.0051228" lon="12.7559226"><ele>100.66666666666666</ele><time>2026-05-02T14:40:01.987Z</time></trkpt><trkpt lat="42.0049707" lon="12.7557367"><ele>101.0</ele><time>2026-05-02T14:40:02.98Z</time></trkpt><trkpt lat="42.0048071" lon="12.7555439"><ele>101.0</ele><time>2026-05-02T14:40:03.98Z</time></trkpt><trkpt lat="42.0046275" lon="12.7553366"><ele>101.0</ele><time>2026-05-02T14:40:04.981Z</time></trkpt><trkpt lat="42.0044709" lon="12.7551501"><ele>101.0</ele><time>2026-05-02T14:40:05.981Z</time></trkpt><trkpt lat="42.0043041" lon="12.7549766"><ele>99.0</ele><time>2026-05-02T14:40:06.979Z</time></trkpt><trkpt lat="42.0041348" lon="12.7547926"><ele>97.0</ele><time>2026-05-02T14:40:07.984Z</time></trkpt><trkpt lat="42.0039805" lon="12.7546408"><ele>95.0</ele><time>2026-05-02T14:40:08.983Z</time></trkpt><trkpt lat="42.0038283" lon="12.7544942"><ele>95.33333333333334</ele><time>2026-05-02T14:40:09.992Z</time></trkpt><trkpt lat="42.0036599" lon="12.754368"><ele>95.66666666666667</ele><time>2026-05-02T14:40:10.991Z</time></trkpt><trkpt lat="42.0035019" lon="12.7542432"><ele>96.0</ele><time>2026-05-02T14:40:11.988Z</time></trkpt><trkpt lat="42.003342" lon="12.7540981"><ele>95.0</ele><time>2026-05-02T14:40:12.993Z</time></trkpt><trkpt lat="42.0031907" lon="12.7539657"><ele>94.0</ele><time>2026-05-02T14:40:13.993Z</time></trkpt><trkpt lat="42.0030315" lon="12.7538189"><ele>93.0</ele><time>2026-05-02T14:40:14.988Z</time></trkpt><trkpt lat="42.002884" lon="12.7536641"><ele>92.0</ele><time>2026-05-02T14:40:15.986Z</time></trkpt><trkpt lat="42.0027702" lon="12.7534768"><ele>91.0</ele><time>2026-05-02T14:40:16.989Z</time></trkpt><trkpt lat="42.0026777" lon="12.7532679"><ele>90.0</ele><time>2026-05-02T14:40:17.983Z</time></trkpt><trkpt lat="42.0026049" lon="12.7530138"><ele>90.0</ele><time>2026-05-02T14:40:18.99Z</time></trkpt><trkpt lat="42.00254" lon="12.7527324"><ele>90.0</ele><time>2026-05-02T14:40:19.995Z</time></trkpt><trkpt lat="42.0024524" lon="12.7524836"><ele>90.0</ele><time>2026-05-02T14:40:20.987Z</time></trkpt><trkpt lat="42.0023615" lon="12.7522485"><ele>90.0</ele><time>2026-05-02T14:40:21.985Z</time></trkpt><trkpt lat="42.0022671" lon="12.7520015"><ele>90.0</ele><time>2026-05-02T14:40:22.993Z</time></trkpt><trkpt lat="42.0021494" lon="12.751778"><ele>90.0</ele><time>2026-05-02T14:40:23.984Z</time></trkpt><trkpt lat="42.0020185" lon="12.7515493"><ele>89.5</ele><time>2026-05-02T14:40:24.99Z</time></trkpt><trkpt lat="42.0018622" lon="12.7513338"><ele>89.0</ele><time>2026-05-02T14:40:25.985Z</time></trkpt><trkpt lat="42.0016675" lon="12.7511135"><ele>89.5</ele><time>2026-05-02T14:40:26.994Z</time></trkpt><trkpt lat="42.0014827" lon="12.7509011"><ele>90.0</ele><time>2026-05-02T14:40:28.001Z</time></trkpt><trkpt lat="42.0012884" lon="12.7506932"><ele>90.0</ele><time>2026-05-02T14:40:28.997Z</time></trkpt><trkpt lat="42.0010781" lon="12.7504851"><ele>90.0</ele><time>2026-05-02T14:40:29.997Z</time></trkpt><trkpt lat="42.0008591" lon="12.7502507"><ele>90.0</ele><time>2026-05-02T14:40:30.995Z</time></trkpt><trkpt lat="42.0006536" lon="12.7500435"><ele>90.0</ele><time>2026-05-02T14:40:31.994Z</time></trkpt><trkpt lat="42.0004661" lon="12.74984"><ele>90.0</ele><time>2026-05-02T14:40:32.997Z</time></trkpt><trkpt lat="42.0002847" lon="12.7496364"><ele>90.0</ele><time>2026-05-02T14:40:33.993Z</time></trkpt><trkpt lat="42.0000842" lon="12.7494138"><ele>90.0</ele><time>2026-05-02T14:40:34.995Z</time></trkpt><trkpt lat="41.9998686" lon="12.7491813"><ele>90.0</ele><time>2026-05-02T14:40:35.987Z</time></trkpt><trkpt lat="41.9996492" lon="12.748948"><ele>90.0</ele><time>2026-05-02T14:40:36.99Z</time></trkpt><trkpt lat="41.9994301" lon="12.7487217"><ele>90.0</ele><time>2026-05-02T14:40:37.985Z</time></trkpt><trkpt lat="41.999224" lon="12.7485179"><ele>90.5</ele><time>2026-05-02T14:40:38.985Z</time></trkpt><trkpt lat="41.999025" lon="12.7483091"><ele>91.0</ele><time>2026-05-02T14:40:39.991Z</time></trkpt><trkpt lat="41.9988327" lon="12.7481072"><ele>91.0</ele><time>2026-05-02T14:40:40.989Z</time></trkpt><trkpt lat="41.9986652" lon="12.7479242"><ele>91.0</ele><time>2026-05-02T14:40:41.985Z</time></trkpt><trkpt lat="41.9985124" lon="12.7477331"><ele>91.0</ele><time>2026-05-02T14:40:42.989Z</time></trkpt><trkpt lat="41.9983632" lon="12.7475728"><ele>91.0</ele><time>2026-05-02T14:40:43.99Z</time></trkpt><trkpt lat="41.998216" lon="12.7474272"><ele>91.0</ele><time>2026-05-02T14:40:44.994Z</time></trkpt><trkpt lat="41.9980736" lon="12.7473077"><ele>91.0</ele><time>2026-05-02T14:40:45.988Z</time></trkpt><trkpt lat="41.9979445" lon="12.7471903"><ele>91.0</ele><time>2026-05-02T14:40:46.985Z</time></trkpt><trkpt lat="41.9978002" lon="12.7470624"><ele>91.0</ele><time>2026-05-02T14:40:47.985Z</time></trkpt><trkpt lat="41.9976444" lon="12.7469404"><ele>91.0</ele><time>2026-05-02T14:40:48.979Z</time></trkpt><trkpt lat="41.9974591" lon="12.7468376"><ele>91.66666666666666</ele><time>2026-05-02T14:40:49.982Z</time></trkpt><trkpt lat="41.9972687" lon="12.7467412"><ele>92.33333333333333</ele><time>2026-05-02T14:40:50.988Z</time></trkpt><trkpt lat="41.9970756" lon="12.746681"><ele>93.0</ele><time>2026-05-02T14:40:51.988Z</time></trkpt><trkpt lat="41.996873" lon="12.7466497"><ele>92.33333333333333</ele><time>2026-05-02T14:40:52.983Z</time></trkpt><trkpt lat="41.9966682" lon="12.7466349"><ele>91.66666666666666</ele><time>2026-05-02T14:40:53.979Z</time></trkpt><trkpt lat="41.9964289" lon="12.7466165"><ele>91.0</ele><time>2026-05-02T14:40:54.992Z</time></trkpt><trkpt lat="41.996175" lon="12.7465981"><ele>91.0</ele><time>2026-05-02T14:40:55.984Z</time></trkpt><trkpt lat="41.9959043" lon="12.7466031"><ele>91.0</ele><time>2026-05-02T14:40:56.992Z</time></trkpt><trkpt lat="41.9956377" lon="12.7466165"><ele>90.5</ele><time>2026-05-02T14:40:57.988Z</time></trkpt><trkpt lat="41.9953703" lon="12.7466229"><ele>90.0</ele><time>2026-05-02T14:40:58.989Z</time></trkpt><trkpt lat="41.9951126" lon="12.7466191"><ele>89.0</ele><time>2026-05-02T14:40:59.991Z</time></trkpt><trkpt lat="41.9948689" lon="12.746625"><ele>88.0</ele><time>2026-05-02T14:41:00.985Z</time></trkpt><trkpt lat="41.994645" lon="12.7466147"><ele>88.0</ele><time>2026-05-02T14:41:01.989Z</time></trkpt><trkpt lat="41.9944054" lon="12.7466011"><ele>88.0</ele><time>2026-05-02T14:41:02.999Z</time></trkpt><trkpt lat="41.9941663" lon="12.7466084"><ele>88.0</ele><time>2026-05-02T14:41:03.988Z</time></trkpt><trkpt lat="41.9939352" lon="12.7466146"><ele>88.0</ele><time>2026-05-02T14:41:04.99Z</time></trkpt><trkpt lat="41.9936767" lon="12.7466244"><ele>88.0</ele><time>2026-05-02T14:41:05.988Z</time></trkpt><trkpt lat="41.993419" lon="12.7466346"><ele>88.0</ele><time>2026-05-02T14:41:06.987Z</time></trkpt><trkpt lat="41.9931594" lon="12.7466094"><ele>89.0</ele><time>2026-05-02T14:41:07.988Z</time></trkpt><trkpt lat="41.9929283" lon="12.7466008"><ele>90.0</ele><time>2026-05-02T14:41:08.995Z</time></trkpt><trkpt lat="41.9927079" lon="12.7465917"><ele>89.0</ele><time>2026-05-02T14:41:09.991Z</time></trkpt><trkpt lat="41.9924807" lon="12.7465878"><ele>88.0</ele><time>2026-05-02T14:41:10.997Z</time></trkpt><trkpt lat="41.9922537" lon="12.746595"><ele>88.0</ele><time>2026-05-02T14:41:11.983Z</time></trkpt><trkpt lat="41.9920298" lon="12.7465976"><ele>88.0</ele><time>2026-05-02T14:41:12.987Z</time></trkpt><trkpt lat="41.9917977" lon="12.7466026"><ele>87.0</ele><time>2026-05-02T14:41:13.99Z</time></trkpt><trkpt lat="41.9915562" lon="12.7465968"><ele>86.0</ele><time>2026-05-02T14:41:14.995Z</time></trkpt><trkpt lat="41.9913042" lon="12.7466027"><ele>86.0</ele><time>2026-05-02T14:41:15.989Z</time></trkpt><trkpt lat="41.9910402" lon="12.746603"><ele>86.0</ele><time>2026-05-02T14:41:16.991Z</time></trkpt><trkpt lat="41.9907718" lon="12.7466194"><ele>85.0</ele><time>2026-05-02T14:41:17.991Z</time></trkpt><trkpt lat="41.9905114" lon="12.7466065"><ele>84.0</ele><time>2026-05-02T14:41:18.989Z</time></trkpt><trkpt lat="41.9902564" lon="12.746592"><ele>84.0</ele><time>2026-05-02T14:41:19.983Z</time></trkpt><trkpt lat="41.9900162" lon="12.7465811"><ele>84.0</ele><time>2026-05-02T14:41:20.986Z</time></trkpt><trkpt lat="41.9897923" lon="12.7465765"><ele>83.33333333333333</ele><time>2026-05-02T14:41:21.983Z</time></trkpt><trkpt lat="41.9895825" lon="12.7465799"><ele>82.66666666666666</ele><time>2026-05-02T14:41:22.992Z</time></trkpt><trkpt lat="41.9893439" lon="12.7465668"><ele>82.0</ele><time>2026-05-02T14:41:23.983Z</time></trkpt><trkpt lat="41.9891117" lon="12.7465381"><ele>81.0</ele><time>2026-05-02T14:41:24.992Z</time></trkpt><trkpt lat="41.9888857" lon="12.7465435"><ele>80.0</ele><time>2026-05-02T14:41:25.989Z</time></trkpt><trkpt lat="41.9886576" lon="12.7465536"><ele>80.0</ele><time>2026-05-02T14:41:26.984Z</time></trkpt><trkpt lat="41.988422" lon="12.7465706"><ele>80.0</ele><time>2026-05-02T14:41:27.991Z</time></trkpt><trkpt lat="41.9881584" lon="12.7466006"><ele>79.0</ele><time>2026-05-02T14:41:28.988Z</time></trkpt><trkpt lat="41.9878805" lon="12.7466358"><ele>78.0</ele><time>2026-05-02T14:41:29.989Z</time></trkpt><trkpt lat="41.9876145" lon="12.7466689"><ele>76.5</ele><time>2026-05-02T14:41:30.99Z</time></trkpt><trkpt lat="41.9873479" lon="12.746694"><ele>75.0</ele><time>2026-05-02T14:41:31.995Z</time></trkpt><trkpt lat="41.987096" lon="12.7467315"><ele>75.0</ele><time>2026-05-02T14:41:32.988Z</time></trkpt><trkpt lat="41.9868419" lon="12.7467881"><ele>75.0</ele><time>2026-05-02T14:41:33.997Z</time></trkpt><trkpt lat="41.9865964" lon="12.746856"><ele>75.5</ele><time>2026-05-02T14:41:34.995Z</time></trkpt><trkpt lat="41.9863293" lon="12.746911"><ele>76.0</ele><time>2026-05-02T14:41:35.989Z</time></trkpt><trkpt lat="41.9860633" lon="12.7469982"><ele>75.0</ele><time>2026-05-02T14:41:36.99Z</time></trkpt><trkpt lat="41.9857783" lon="12.7470997"><ele>74.0</ele><time>2026-05-02T14:41:37.991Z</time></trkpt><trkpt lat="41.9855024" lon="12.747184"><ele>74.0</ele><time>2026-05-02T14:41:38.99Z</time></trkpt><trkpt lat="41.9852462" lon="12.7473103"><ele>74.0</ele><time>2026-05-02T14:41:39.99Z</time></trkpt><trkpt lat="41.9850025" lon="12.7474095"><ele>73.5</ele><time>2026-05-02T14:41:40.99Z</time></trkpt><trkpt lat="41.9847548" lon="12.7475217"><ele>73.0</ele><time>2026-05-02T14:41:41.982Z</time></trkpt><trkpt lat="41.9844955" lon="12.7476332"><ele>73.0</ele><time>2026-05-02T14:41:42.991Z</time></trkpt><trkpt lat="41.9842389" lon="12.7477365"><ele>73.0</ele><time>2026-05-02T14:41:44.005Z</time></trkpt><trkpt lat="41.9839798" lon="12.7478448"><ele>73.0</ele><time>2026-05-02T14:41:44.984Z</time></trkpt><trkpt lat="41.9837318" lon="12.7479644"><ele>73.0</ele><time>2026-05-02T14:41:46.005Z</time></trkpt><trkpt lat="41.9834961" lon="12.7480776"><ele>71.5</ele><time>2026-05-02T14:41:47.017Z</time></trkpt><trkpt lat="41.9832495" lon="12.7481601"><ele>70.0</ele><time>2026-05-02T14:41:47.984Z</time></trkpt><trkpt lat="41.9830166" lon="12.7482643"><ele>70.0</ele><time>2026-05-02T14:41:49.014Z</time></trkpt><trkpt lat="41.982779" lon="12.7483823"><ele>70.0</ele><time>2026-05-02T14:41:49.987Z</time></trkpt><trkpt lat="41.982527" lon="12.7484746"><ele>71.5</ele><time>2026-05-02T14:41:50.984Z</time></trkpt><trkpt lat="41.9822766" lon="12.7486181"><ele>73.0</ele><time>2026-05-02T14:41:51.991Z</time></trkpt><trkpt lat="41.982033" lon="12.7487245"><ele>73.0</ele><time>2026-05-02T14:41:52.991Z</time></trkpt><trkpt lat="41.981789" lon="12.7487646"><ele>73.0</ele><time>2026-05-02T14:41:53.987Z</time></trkpt><trkpt lat="41.9815819" lon="12.7488844"><ele>73.0</ele><time>2026-05-02T14:41:54.992Z</time></trkpt><trkpt lat="41.9813654" lon="12.7489814"><ele>73.0</ele><time>2026-05-02T14:41:55.991Z</time></trkpt><trkpt lat="41.9811439" lon="12.7490795"><ele>73.0</ele><time>2026-05-02T14:41:57Z</time></trkpt><trkpt lat="41.9809149" lon="12.749181"><ele>73.0</ele><time>2026-05-02T14:41:57.99Z</time></trkpt><trkpt lat="41.980659" lon="12.749257"><ele>72.5</ele><time>2026-05-02T14:41:58.994Z</time></trkpt><trkpt lat="41.980415" lon="12.7493641"><ele>72.0</ele><time>2026-05-02T14:41:59.992Z</time></trkpt><trkpt lat="41.9801763" lon="12.7494784"><ele>73.0</ele><time>2026-05-02T14:42:00.994Z</time></trkpt><trkpt lat="41.9799251" lon="12.7495672"><ele>74.0</ele><time>2026-05-02T14:42:01.985Z</time></trkpt><trkpt lat="41.9797042" lon="12.7496663"><ele>74.0</ele><time>2026-05-02T14:42:02.996Z</time></trkpt><trkpt lat="41.9794821" lon="12.7497742"><ele>74.0</ele><time>2026-05-02T14:42:03.992Z</time></trkpt><trkpt lat="41.979245" lon="12.7498594"><ele>73.66666666666667</ele><time>2026-05-02T14:42:04.995Z</time></trkpt><trkpt lat="41.9790193" lon="12.7499439"><ele>73.33333333333333</ele><time>2026-05-02T14:42:05.99Z</time></trkpt><trkpt lat="41.9788176" lon="12.7500308"><ele>73.0</ele><time>2026-05-02T14:42:06.997Z</time></trkpt><trkpt lat="41.9786305" lon="12.7501174"><ele>73.0</ele><time>2026-05-02T14:42:07.985Z</time></trkpt><trkpt lat="41.9784528" lon="12.7501919"><ele>73.0</ele><time>2026-05-02T14:42:08.993Z</time></trkpt><trkpt lat="41.9782889" lon="12.7502668"><ele>73.0</ele><time>2026-05-02T14:42:09.988Z</time></trkpt><trkpt lat="41.9781414" lon="12.7503386"><ele>73.0</ele><time>2026-05-02T14:42:10.992Z</time></trkpt><trkpt lat="41.9779911" lon="12.750389"><ele>73.0</ele><time>2026-05-02T14:42:11.991Z</time></trkpt><trkpt lat="41.9778557" lon="12.750434"><ele>73.0</ele><time>2026-05-02T14:42:12.996Z</time></trkpt><trkpt lat="41.977727" lon="12.750457"><ele>73.0</ele><time>2026-05-02T14:42:13.992Z</time></trkpt><trkpt lat="41.9776131" lon="12.7504772"><ele>73.0</ele><time>2026-05-02T14:42:14.995Z</time></trkpt><trkpt lat="41.9775105" lon="12.7504817"><ele>73.0</ele><time>2026-05-02T14:42:15.994Z</time></trkpt><trkpt lat="41.9774253" lon="12.7504666"><ele>73.0</ele><time>2026-05-02T14:42:16.991Z</time></trkpt><trkpt lat="41.9773417" lon="12.7504092"><ele>73.0</ele><time>2026-05-02T14:42:17.989Z</time></trkpt><trkpt lat="41.9772783" lon="12.7503116"><ele>73.0</ele><time>2026-05-02T14:42:18.997Z</time></trkpt><trkpt lat="41.9772367" lon="12.7501749"><ele>73.0</ele><time>2026-05-02T14:42:19.984Z</time></trkpt><trkpt lat="41.9772222" lon="12.7500569"><ele>73.0</ele><time>2026-05-02T14:42:20.99Z</time></trkpt><trkpt lat="41.9772433" lon="12.7499424"><ele>73.0</ele><time>2026-05-02T14:42:21.986Z</time></trkpt><trkpt lat="41.9772951" lon="12.7497915"><ele>73.0</ele><time>2026-05-02T14:42:22.989Z</time></trkpt><trkpt lat="41.9773526" lon="12.7496006"><ele>73.0</ele><time>2026-05-02T14:42:23.985Z</time></trkpt><trkpt lat="41.9774086" lon="12.7494167"><ele>73.0</ele><time>2026-05-02T14:42:24.993Z</time></trkpt><trkpt lat="41.9774541" lon="12.749225"><ele>73.0</ele><time>2026-05-02T14:42:25.992Z</time></trkpt><trkpt lat="41.9775035" lon="12.7489975"><ele>71.66666666666666</ele><time>2026-05-02T14:42:26.989Z</time></trkpt><trkpt lat="41.977551" lon="12.7487381"><ele>70.33333333333333</ele><time>2026-05-02T14:42:27.995Z</time></trkpt><trkpt lat="41.9775924" lon="12.748478"><ele>69.0</ele><time>2026-05-02T14:42:28.994Z</time></trkpt><trkpt lat="41.9776055" lon="12.7482046"><ele>67.5</ele><time>2026-05-02T14:42:29.989Z</time></trkpt><trkpt lat="41.9775859" lon="12.7479063"><ele>66.0</ele><time>2026-05-02T14:42:30.989Z</time></trkpt><trkpt lat="41.9775456" lon="12.7475916"><ele>67.0</ele><time>2026-05-02T14:42:31.987Z</time></trkpt><trkpt lat="41.977512" lon="12.7472978"><ele>68.0</ele><time>2026-05-02T14:42:32.995Z</time></trkpt><trkpt lat="41.9774674" lon="12.7470204"><ele>69.0</ele><time>2026-05-02T14:42:33.991Z</time></trkpt><trkpt lat="41.9774273" lon="12.7467486"><ele>69.66666666666667</ele><time>2026-05-02T14:42:34.991Z</time></trkpt><trkpt lat="41.9773975" lon="12.7464922"><ele>70.33333333333334</ele><time>2026-05-02T14:42:35.992Z</time></trkpt><trkpt lat="41.9773833" lon="12.7462533"><ele>71.0</ele><time>2026-05-02T14:42:36.984Z</time></trkpt><trkpt lat="41.9773788" lon="12.7459972"><ele>71.66666666666667</ele><time>2026-05-02T14:42:37.988Z</time></trkpt><trkpt lat="41.9773993" lon="12.7457418"><ele>72.33333333333333</ele><time>2026-05-02T14:42:38.982Z</time></trkpt><trkpt lat="41.9774363" lon="12.745443"><ele>73.0</ele><time>2026-05-02T14:42:39.986Z</time></trkpt><trkpt lat="41.977506" lon="12.7451491"><ele>72.0</ele><time>2026-05-02T14:42:40.988Z</time></trkpt><trkpt lat="41.9775836" lon="12.7448489"><ele>71.0</ele><time>2026-05-02T14:42:41.988Z</time></trkpt><trkpt lat="41.9776623" lon="12.7445369"><ele>70.5</ele><time>2026-05-02T14:42:42.992Z</time></trkpt><trkpt lat="41.9777624" lon="12.7442363"><ele>70.0</ele><time>2026-05-02T14:42:43.979Z</time></trkpt><trkpt lat="41.9778419" lon="12.7439568"><ele>70.0</ele><time>2026-05-02T14:42:44.992Z</time></trkpt><trkpt lat="41.9779171" lon="12.7436649"><ele>70.0</ele><time>2026-05-02T14:42:45.996Z</time></trkpt><trkpt lat="41.9779819" lon="12.7433706"><ele>68.66666666666666</ele><time>2026-05-02T14:42:47.002Z</time></trkpt><trkpt lat="41.9780552" lon="12.7431189"><ele>67.33333333333333</ele><time>2026-05-02T14:42:47.99Z</time></trkpt><trkpt lat="41.9781261" lon="12.7428601"><ele>66.0</ele><time>2026-05-02T14:42:48.992Z</time></trkpt><trkpt lat="41.9781903" lon="12.7425952"><ele>66.0</ele><time>2026-05-02T14:42:49.995Z</time></trkpt><trkpt lat="41.9782597" lon="12.7423288"><ele>66.0</ele><time>2026-05-02T14:42:50.988Z</time></trkpt><trkpt lat="41.978323" lon="12.7421061"><ele>66.0</ele><time>2026-05-02T14:42:51.987Z</time></trkpt><trkpt lat="41.9783895" lon="12.741868"><ele>67.0</ele><time>2026-05-02T14:42:53Z</time></trkpt><trkpt lat="41.9784581" lon="12.7416297"><ele>68.0</ele><time>2026-05-02T14:42:53.99Z</time></trkpt><trkpt lat="41.9785175" lon="12.7413798"><ele>69.0</ele><time>2026-05-02T14:42:54.999Z</time></trkpt><trkpt lat="41.9785989" lon="12.7411188"><ele>71.0</ele><time>2026-05-02T14:42:55.99Z</time></trkpt><trkpt lat="41.9787078" lon="12.7408433"><ele>73.0</ele><time>2026-05-02T14:42:56.995Z</time></trkpt><trkpt lat="41.9788384" lon="12.7405643"><ele>73.0</ele><time>2026-05-02T14:42:57.989Z</time></trkpt><trkpt lat="41.9789976" lon="12.7402795"><ele>73.0</ele><time>2026-05-02T14:42:58.984Z</time></trkpt><trkpt lat="41.9791664" lon="12.7400199"><ele>73.0</ele><time>2026-05-02T14:42:59.992Z</time></trkpt><trkpt lat="41.9793561" lon="12.7397683"><ele>73.0</ele><time>2026-05-02T14:43:00.988Z</time></trkpt><trkpt lat="41.9795512" lon="12.7395568"><ele>72.5</ele><time>2026-05-02T14:43:01.993Z</time></trkpt><trkpt lat="41.9797536" lon="12.73932"><ele>72.0</ele><time>2026-05-02T14:43:02.99Z</time></trkpt><trkpt lat="41.9799507" lon="12.7390528"><ele>72.0</ele><time>2026-05-02T14:43:04.001Z</time></trkpt><trkpt lat="41.9801496" lon="12.7387838"><ele>72.0</ele><time>2026-05-02T14:43:04.996Z</time></trkpt><trkpt lat="41.9803266" lon="12.7385476"><ele>72.5</ele><time>2026-05-02T14:43:05.999Z</time></trkpt><trkpt lat="41.9805028" lon="12.7383146"><ele>73.0</ele><time>2026-05-02T14:43:06.996Z</time></trkpt><trkpt lat="41.9806965" lon="12.7380732"><ele>73.5</ele><time>2026-05-02T14:43:07.999Z</time></trkpt><trkpt lat="41.9808719" lon="12.7378276"><ele>74.0</ele><time>2026-05-02T14:43:09.007Z</time></trkpt><trkpt lat="41.9810342" lon="12.7375684"><ele>74.0</ele><time>2026-05-02T14:43:10Z</time></trkpt><trkpt lat="41.9811902" lon="12.7372874"><ele>74.0</ele><time>2026-05-02T14:43:10.998Z</time></trkpt><trkpt lat="41.9813514" lon="12.736992"><ele>74.0</ele><time>2026-05-02T14:43:11.996Z</time></trkpt><trkpt lat="41.9815007" lon="12.736687"><ele>74.0</ele><time>2026-05-02T14:43:13Z</time></trkpt><trkpt lat="41.9816551" lon="12.736391"><ele>74.0</ele><time>2026-05-02T14:43:13.998Z</time></trkpt><trkpt lat="41.9818011" lon="12.736112"><ele>74.0</ele><time>2026-05-02T14:43:14.999Z</time></trkpt><trkpt lat="41.981926" lon="12.7358048"><ele>75.0</ele><time>2026-05-02T14:43:15.993Z</time></trkpt><trkpt lat="41.9820299" lon="12.7354961"><ele>76.0</ele><time>2026-05-02T14:43:16.99Z</time></trkpt><trkpt lat="41.9821069" lon="12.7352084"><ele>76.0</ele><time>2026-05-02T14:43:17.997Z</time></trkpt><trkpt lat="41.9821592" lon="12.7349207"><ele>76.0</ele><time>2026-05-02T14:43:18.997Z</time></trkpt><trkpt lat="41.9822103" lon="12.7346363"><ele>76.0</ele><time>2026-05-02T14:43:19.99Z</time></trkpt><trkpt lat="41.9822542" lon="12.7343681"><ele>75.0</ele><time>2026-05-02T14:43:20.992Z</time></trkpt><trkpt lat="41.9822871" lon="12.7340909"><ele>74.0</ele><time>2026-05-02T14:43:21.992Z</time></trkpt><trkpt lat="41.9823019" lon="12.7338371"><ele>73.0</ele><time>2026-05-02T14:43:22.991Z</time></trkpt><trkpt lat="41.9823101" lon="12.7336074"><ele>73.5</ele><time>2026-05-02T14:43:23.994Z</time></trkpt><trkpt lat="41.982326" lon="12.7333999"><ele>74.0</ele><time>2026-05-02T14:43:24.997Z</time></trkpt><trkpt lat="41.9823439" lon="12.7332059"><ele>74.5</ele><time>2026-05-02T14:43:25.994Z</time></trkpt><trkpt lat="41.982359" lon="12.7330216"><ele>75.0</ele><time>2026-05-02T14:43:27.006Z</time></trkpt><trkpt lat="41.9823756" lon="12.7328446"><ele>75.0</ele><time>2026-05-02T14:43:27.993Z</time></trkpt><trkpt lat="41.9823919" lon="12.7326974"><ele>75.0</ele><time>2026-05-02T14:43:28.992Z</time></trkpt><trkpt lat="41.9824069" lon="12.7325156"><ele>75.0</ele><time>2026-05-02T14:43:29.997Z</time></trkpt><trkpt lat="41.9824192" lon="12.7323033"><ele>75.0</ele><time>2026-05-02T14:43:30.995Z</time></trkpt><trkpt lat="41.9824359" lon="12.7321234"><ele>75.0</ele><time>2026-05-02T14:43:31.995Z</time></trkpt><trkpt lat="41.9824415" lon="12.7319758"><ele>75.0</ele><time>2026-05-02T14:43:32.997Z</time></trkpt><trkpt lat="41.9824544" lon="12.731805"><ele>75.0</ele><time>2026-05-02T14:43:34Z</time></trkpt><trkpt lat="41.9824618" lon="12.7316403"><ele>75.0</ele><time>2026-05-02T14:43:34.997Z</time></trkpt><trkpt lat="41.9824717" lon="12.7314946"><ele>75.0</ele><time>2026-05-02T14:43:35.998Z</time></trkpt><trkpt lat="41.9824792" lon="12.7313659"><ele>75.0</ele><time>2026-05-02T14:43:36.999Z</time></trkpt><trkpt lat="41.9825007" lon="12.7312616"><ele>75.0</ele><time>2026-05-02T14:43:37.99Z</time></trkpt><trkpt lat="41.9825573" lon="12.7311797"><ele>75.0</ele><time>2026-05-02T14:43:38.998Z</time></trkpt><trkpt lat="41.9826067" lon="12.7310834"><ele>75.0</ele><time>2026-05-02T14:43:39.998Z</time></trkpt><trkpt lat="41.9826717" lon="12.7310082"><ele>75.0</ele><time>2026-05-02T14:43:40.991Z</time></trkpt><trkpt lat="41.9827624" lon="12.7309533"><ele>75.8</ele><time>2026-05-02T14:43:41.997Z</time></trkpt><trkpt lat="41.982844" lon="12.7308957"><ele>76.6</ele><time>2026-05-02T14:43:42.993Z</time></trkpt><trkpt lat="41.9829066" lon="12.7308089"><ele>77.4</ele><time>2026-05-02T14:43:43.992Z</time></trkpt><trkpt lat="41.9829594" lon="12.7307004"><ele>78.2</ele><time>2026-05-02T14:43:44.996Z</time></trkpt><trkpt lat="41.9829861" lon="12.7305661"><ele>79.0</ele><time>2026-05-02T14:43:46.004Z</time></trkpt><trkpt lat="41.9829943" lon="12.7304237"><ele>79.0</ele><time>2026-05-02T14:43:46.992Z</time></trkpt><trkpt lat="41.9829877" lon="12.7302853"><ele>79.0</ele><time>2026-05-02T14:43:47.995Z</time></trkpt><trkpt lat="41.9829589" lon="12.7301622"><ele>79.0</ele><time>2026-05-02T14:43:48.997Z</time></trkpt><trkpt lat="41.9829001" lon="12.7300581"><ele>79.0</ele><time>2026-05-02T14:43:49.991Z</time></trkpt><trkpt lat="41.982808" lon="12.7299849"><ele>79.0</ele><time>2026-05-02T14:43:50.992Z</time></trkpt><trkpt lat="41.9826979" lon="12.7299616"><ele>78.8</ele><time>2026-05-02T14:43:51.994Z</time></trkpt><trkpt lat="41.9825938" lon="12.7299916"><ele>78.60000000000001</ele><time>2026-05-02T14:43:52.99Z</time></trkpt><trkpt lat="41.9824844" lon="12.7300464"><ele>78.4</ele><time>2026-05-02T14:43:53.995Z</time></trkpt><trkpt lat="41.9823851" lon="12.7301203"><ele>78.2</ele><time>2026-05-02T14:43:54.991Z</time></trkpt><trkpt lat="41.9822978" lon="12.7301677"><ele>78.0</ele><time>2026-05-02T14:43:55.998Z</time></trkpt><trkpt lat="41.9822087" lon="12.7301739"><ele>77.0</ele><time>2026-05-02T14:43:56.991Z</time></trkpt><trkpt lat="41.9821209" lon="12.7301451"><ele>76.0</ele><time>2026-05-02T14:43:57.994Z</time></trkpt><trkpt lat="41.9820213" lon="12.7300709"><ele>75.0</ele><time>2026-05-02T14:43:58.991Z</time></trkpt><trkpt lat="41.9819054" lon="12.7299594"><ele>74.0</ele><time>2026-05-02T14:44:00.001Z</time></trkpt><trkpt lat="41.9817681" lon="12.7298114"><ele>73.0</ele><time>2026-05-02T14:44:00.99Z</time></trkpt><trkpt lat="41.9815937" lon="12.7295956"><ele>72.0</ele><time>2026-05-02T14:44:01.998Z</time></trkpt><trkpt lat="41.9814238" lon="12.7294004"><ele>73.0</ele><time>2026-05-02T14:44:03.001Z</time></trkpt><trkpt lat="41.9812326" lon="12.7292697"><ele>74.0</ele><time>2026-05-02T14:44:04.004Z</time></trkpt><trkpt lat="41.9810229" lon="12.7291962"><ele>75.0</ele><time>2026-05-02T14:44:05.006Z</time></trkpt><trkpt lat="41.9808058" lon="12.7291526"><ele>75.0</ele><time>2026-05-02T14:44:06.006Z</time></trkpt><trkpt lat="41.9805671" lon="12.7291583"><ele>75.0</ele><time>2026-05-02T14:44:07.002Z</time></trkpt><trkpt lat="41.9803173" lon="12.7291881"><ele>75.0</ele><time>2026-05-02T14:44:07.996Z</time></trkpt><trkpt lat="41.9800759" lon="12.7292355"><ele>75.0</ele><time>2026-05-02T14:44:08.996Z</time></trkpt><trkpt lat="41.9798372" lon="12.7293245"><ele>74.0</ele><time>2026-05-02T14:44:09.991Z</time></trkpt><trkpt lat="41.9795899" lon="12.7293922"><ele>73.0</ele><time>2026-05-02T14:44:11.002Z</time></trkpt><trkpt lat="41.9793574" lon="12.7294294"><ele>73.5</ele><time>2026-05-02T14:44:12.005Z</time></trkpt><trkpt lat="41.9791336" lon="12.7294632"><ele>74.0</ele><time>2026-05-02T14:44:13Z</time></trkpt><trkpt lat="41.9788994" lon="12.7294729"><ele>74.0</ele><time>2026-05-02T14:44:14.008Z</time></trkpt><trkpt lat="41.9786519" lon="12.7294486"><ele>74.0</ele><time>2026-05-02T14:44:14.999Z</time></trkpt><trkpt lat="41.9784189" lon="12.7294249"><ele>73.0</ele><time>2026-05-02T14:44:16.004Z</time></trkpt><trkpt lat="41.9781904" lon="12.729385"><ele>72.0</ele><time>2026-05-02T14:44:17.007Z</time></trkpt><trkpt lat="41.9779688" lon="12.7293312"><ele>72.0</ele><time>2026-05-02T14:44:18.003Z</time></trkpt><trkpt lat="41.9777454" lon="12.7292535"><ele>72.0</ele><time>2026-05-02T14:44:19.004Z</time></trkpt><trkpt lat="41.9775231" lon="12.7291531"><ele>72.0</ele><time>2026-05-02T14:44:20.012Z</time></trkpt><trkpt lat="41.9772939" lon="12.7290576"><ele>72.0</ele><time>2026-05-02T14:44:21.005Z</time></trkpt><trkpt lat="41.9770561" lon="12.7289618"><ele>72.0</ele><time>2026-05-02T14:44:22.007Z</time></trkpt><trkpt lat="41.9768146" lon="12.7288729"><ele>72.0</ele><time>2026-05-02T14:44:23Z</time></trkpt><trkpt lat="41.9765741" lon="12.7287834"><ele>72.5</ele><time>2026-05-02T14:44:24.003Z</time></trkpt><trkpt lat="41.9763472" lon="12.7286946"><ele>73.0</ele><time>2026-05-02T14:44:25.004Z</time></trkpt><trkpt lat="41.9761263" lon="12.7286124"><ele>73.0</ele><time>2026-05-02T14:44:26.006Z</time></trkpt><trkpt lat="41.975899" lon="12.7285413"><ele>73.0</ele><time>2026-05-02T14:44:27.002Z</time></trkpt><trkpt lat="41.9756767" lon="12.7284819"><ele>73.0</ele><time>2026-05-02T14:44:28.003Z</time></trkpt><trkpt lat="41.9754573" lon="12.7284842"><ele>73.0</ele><time>2026-05-02T14:44:29.002Z</time></trkpt><trkpt lat="41.975224" lon="12.7285029"><ele>73.0</ele><time>2026-05-02T14:44:30.006Z</time></trkpt><trkpt lat="41.9749784" lon="12.7285573"><ele>73.0</ele><time>2026-05-02T14:44:31Z</time></trkpt><trkpt lat="41.9747534" lon="12.7286318"><ele>73.5</ele><time>2026-05-02T14:44:32.004Z</time></trkpt><trkpt lat="41.974527" lon="12.7287135"><ele>74.0</ele><time>2026-05-02T14:44:33.005Z</time></trkpt><trkpt lat="41.9742898" lon="12.728768"><ele>73.0</ele><time>2026-05-02T14:44:34.006Z</time></trkpt><trkpt lat="41.9740398" lon="12.728792"><ele>72.0</ele><time>2026-05-02T14:44:35.001Z</time></trkpt><trkpt lat="41.9737927" lon="12.7287874"><ele>72.0</ele><time>2026-05-02T14:44:36.003Z</time></trkpt><trkpt lat="41.9735401" lon="12.7287993"><ele>72.0</ele><time>2026-05-02T14:44:37Z</time></trkpt><trkpt lat="41.973271" lon="12.7288027"><ele>72.0</ele><time>2026-05-02T14:44:38Z</time></trkpt><trkpt lat="41.9729959" lon="12.7288096"><ele>72.0</ele><time>2026-05-02T14:44:39.002Z</time></trkpt><trkpt lat="41.9727013" lon="12.7288076"><ele>72.0</ele><time>2026-05-02T14:44:39.996Z</time></trkpt><trkpt lat="41.9724388" lon="12.7288387"><ele>72.0</ele><time>2026-05-02T14:44:40.995Z</time></trkpt><trkpt lat="41.972193" lon="12.72887"><ele>72.0</ele><time>2026-05-02T14:44:42.002Z</time></trkpt><trkpt lat="41.9719608" lon="12.7288967"><ele>72.0</ele><time>2026-05-02T14:44:42.998Z</time></trkpt><trkpt lat="41.9717621" lon="12.7289228"><ele>72.0</ele><time>2026-05-02T14:44:43.995Z</time></trkpt><trkpt lat="41.9715977" lon="12.7289443"><ele>71.75</ele><time>2026-05-02T14:44:44.991Z</time></trkpt><trkpt lat="41.9714484" lon="12.7289629"><ele>71.5</ele><time>2026-05-02T14:44:46.006Z</time></trkpt><trkpt lat="41.9712994" lon="12.7289557"><ele>71.25</ele><time>2026-05-02T14:44:47.002Z</time></trkpt><trkpt lat="41.9711671" lon="12.7289505"><ele>71.0</ele><time>2026-05-02T14:44:48.008Z</time></trkpt><trkpt lat="41.9710507" lon="12.7289408"><ele>71.0</ele><time>2026-05-02T14:44:48.998Z</time></trkpt><trkpt lat="41.9709555" lon="12.7289216"><ele>71.0</ele><time>2026-05-02T14:44:49.997Z</time></trkpt><trkpt lat="41.9708646" lon="12.7288604"><ele>71.0</ele><time>2026-05-02T14:44:51.002Z</time></trkpt><trkpt lat="41.9708074" lon="12.7288025"><ele>71.0</ele><time>2026-05-02T14:44:51.997Z</time></trkpt><trkpt lat="41.9707834" lon="12.7287238"><ele>71.0</ele><time>2026-05-02T14:44:52.998Z</time></trkpt><trkpt lat="41.9707966" lon="12.7286138"><ele>71.0</ele><time>2026-05-02T14:44:53.999Z</time></trkpt><trkpt lat="41.9708503" lon="12.7284895"><ele>70.66666666666667</ele><time>2026-05-02T14:44:54.996Z</time></trkpt><trkpt lat="41.9709616" lon="12.7283567"><ele>70.33333333333333</ele><time>2026-05-02T14:44:55.985Z</time></trkpt><trkpt lat="41.9711406" lon="12.7282043"><ele>70.0</ele><time>2026-05-02T14:44:56.991Z</time></trkpt><trkpt lat="41.9712965" lon="12.7280392"><ele>70.0</ele><time>2026-05-02T14:44:57.985Z</time></trkpt><trkpt lat="41.971438" lon="12.7278657"><ele>70.0</ele><time>2026-05-02T14:44:58.993Z</time></trkpt><trkpt lat="41.9715929" lon="12.7276998"><ele>70.0</ele><time>2026-05-02T14:44:59.995Z</time></trkpt><trkpt lat="41.9717319" lon="12.7275246"><ele>70.33333333333333</ele><time>2026-05-02T14:45:00.991Z</time></trkpt><trkpt lat="41.9718614" lon="12.7273665"><ele>70.66666666666667</ele><time>2026-05-02T14:45:01.996Z</time></trkpt><trkpt lat="41.9719686" lon="12.7272293"><ele>71.0</ele><time>2026-05-02T14:45:02.996Z</time></trkpt><trkpt lat="41.9720819" lon="12.7271028"><ele>71.0</ele><time>2026-05-02T14:45:03.992Z</time></trkpt><trkpt lat="41.9721426" lon="12.726965"><ele>71.0</ele><time>2026-05-02T14:45:05Z</time></trkpt><trkpt lat="41.9721671" lon="12.7267982"><ele>71.0</ele><time>2026-05-02T14:45:05.992Z</time></trkpt><trkpt lat="41.9721714" lon="12.7265861"><ele>71.0</ele><time>2026-05-02T14:45:07.003Z</time></trkpt><trkpt lat="41.9721638" lon="12.7263351"><ele>71.0</ele><time>2026-05-02T14:45:07.996Z</time></trkpt><trkpt lat="41.9721695" lon="12.7260722"><ele>71.0</ele><time>2026-05-02T14:45:09.004Z</time></trkpt><trkpt lat="41.9721694" lon="12.725813"><ele>71.0</ele><time>2026-05-02T14:45:10Z</time></trkpt><trkpt lat="41.9721681" lon="12.725566"><ele>71.0</ele><time>2026-05-02T14:45:11.005Z</time></trkpt><trkpt lat="41.9721697" lon="12.7252795"><ele>71.0</ele><time>2026-05-02T14:45:11.994Z</time></trkpt><trkpt lat="41.9721764" lon="12.7249583"><ele>70.5</ele><time>2026-05-02T14:45:13.001Z</time></trkpt><trkpt lat="41.9721757" lon="12.7246177"><ele>70.0</ele><time>2026-05-02T14:45:13.995Z</time></trkpt><trkpt lat="41.9721737" lon="12.7242716"><ele>70.0</ele><time>2026-05-02T14:45:15.008Z</time></trkpt><trkpt lat="41.9721701" lon="12.7239578"><ele>70.0</ele><time>2026-05-02T14:45:16.005Z</time></trkpt><trkpt lat="41.9721738" lon="12.7236565"><ele>70.33333333333333</ele><time>2026-05-02T14:45:17.005Z</time></trkpt><trkpt lat="41.9721851" lon="12.7233863"><ele>70.66666666666667</ele><time>2026-05-02T14:45:18.003Z</time></trkpt><trkpt lat="41.9721911" lon="12.7231063"><ele>71.0</ele><time>2026-05-02T14:45:19.007Z</time></trkpt><trkpt lat="41.9722007" lon="12.7228312"><ele>70.5</ele><time>2026-05-02T14:45:20.004Z</time></trkpt><trkpt lat="41.9722059" lon="12.722541"><ele>70.0</ele><time>2026-05-02T14:45:21.005Z</time></trkpt><trkpt lat="41.9722074" lon="12.7222177"><ele>68.5</ele><time>2026-05-02T14:45:22.003Z</time></trkpt><trkpt lat="41.9722224" lon="12.72187"><ele>67.0</ele><time>2026-05-02T14:45:23.004Z</time></trkpt><trkpt lat="41.9722362" lon="12.7215027"><ele>67.0</ele><time>2026-05-02T14:45:24.001Z</time></trkpt><trkpt lat="41.9722471" lon="12.7211524"><ele>67.0</ele><time>2026-05-02T14:45:25.006Z</time></trkpt><trkpt lat="41.9722435" lon="12.7208003"><ele>67.0</ele><time>2026-05-02T14:45:26.003Z</time></trkpt><trkpt lat="41.9722439" lon="12.7204333"><ele>67.0</ele><time>2026-05-02T14:45:27.006Z</time></trkpt><trkpt lat="41.9722333" lon="12.7201017"><ele>67.0</ele><time>2026-05-02T14:45:28Z</time></trkpt><trkpt lat="41.9722397" lon="12.7197816"><ele>67.0</ele><time>2026-05-02T14:45:28.999Z</time></trkpt><trkpt lat="41.9722373" lon="12.7194936"><ele>67.66666666666666</ele><time>2026-05-02T14:45:30.003Z</time></trkpt><trkpt lat="41.9722402" lon="12.719236"><ele>68.33333333333333</ele><time>2026-05-02T14:45:31.001Z</time></trkpt><trkpt lat="41.9722559" lon="12.7189793"><ele>69.0</ele><time>2026-05-02T14:45:32.009Z</time></trkpt><trkpt lat="41.9722725" lon="12.7187395"><ele>69.33333333333333</ele><time>2026-05-02T14:45:33.009Z</time></trkpt><trkpt lat="41.9722704" lon="12.7185061"><ele>69.66666666666666</ele><time>2026-05-02T14:45:34.008Z</time></trkpt><trkpt lat="41.9722733" lon="12.7182786"><ele>70.0</ele><time>2026-05-02T14:45:34.997Z</time></trkpt><trkpt lat="41.9722774" lon="12.7180074"><ele>70.0</ele><time>2026-05-02T14:45:36.007Z</time></trkpt><trkpt lat="41.9722909" lon="12.7177072"><ele>70.0</ele><time>2026-05-02T14:45:37Z</time></trkpt><trkpt lat="41.9722922" lon="12.7174522"><ele>70.0</ele><time>2026-05-02T14:45:37.996Z</time></trkpt><trkpt lat="41.9722937" lon="12.7171889"><ele>70.0</ele><time>2026-05-02T14:45:39.004Z</time></trkpt><trkpt lat="41.9722995" lon="12.7169428"><ele>70.0</ele><time>2026-05-02T14:45:40Z</time></trkpt><trkpt lat="41.9723049" lon="12.7166898"><ele>70.0</ele><time>2026-05-02T14:45:40.995Z</time></trkpt><trkpt lat="41.9723037" lon="12.7164651"><ele>71.33333333333333</ele><time>2026-05-02T14:45:41.995Z</time></trkpt><trkpt lat="41.9723077" lon="12.7162597"><ele>72.66666666666667</ele><time>2026-05-02T14:45:43.002Z</time></trkpt><trkpt lat="41.9723267" lon="12.7160456"><ele>74.0</ele><time>2026-05-02T14:45:43.996Z</time></trkpt><trkpt lat="41.9723141" lon="12.7158471"><ele>74.25</ele><time>2026-05-02T14:45:44.99Z</time></trkpt><trkpt lat="41.9722736" lon="12.7156761"><ele>74.5</ele><time>2026-05-02T14:45:45.991Z</time></trkpt><trkpt lat="41.972242" lon="12.7155082"><ele>74.75</ele><time>2026-05-02T14:45:46.986Z</time></trkpt><trkpt lat="41.9721978" lon="12.7153707"><ele>75.0</ele><time>2026-05-02T14:45:47.998Z</time></trkpt><trkpt lat="41.9721693" lon="12.7152351"><ele>76.0</ele><time>2026-05-02T14:45:48.997Z</time></trkpt><trkpt lat="41.9721298" lon="12.7151173"><ele>77.0</ele><time>2026-05-02T14:45:49.995Z</time></trkpt><trkpt lat="41.9720884" lon="12.7150088"><ele>78.0</ele><time>2026-05-02T14:45:50.991Z</time></trkpt><trkpt lat="41.9720254" lon="12.7149433"><ele>79.0</ele><time>2026-05-02T14:45:51.992Z</time></trkpt><trkpt lat="41.9719608" lon="12.7148964"><ele>80.0</ele><time>2026-05-02T14:45:53.991Z</time></trkpt><trkpt lat="41.9718637" lon="12.7147969"><ele>80.0</ele><time>2026-05-02T14:45:58.016Z</time></trkpt><trkpt lat="41.9718075" lon="12.714731"><ele>80.0</ele><time>2026-05-02T14:46:00.012Z</time></trkpt><trkpt lat="41.9718305" lon="12.7146316"><ele>80.0</ele><time>2026-05-02T14:46:01.991Z</time></trkpt><trkpt lat="41.971821" lon="12.7144974"><ele>80.0</ele><time>2026-05-02T14:46:03.988Z</time></trkpt><trkpt lat="41.9717164" lon="12.7144395"><ele>80.0</ele><time>2026-05-02T14:46:05.992Z</time></trkpt><trkpt lat="41.971647" lon="12.7144152"><ele>80.0</ele><time>2026-05-02T14:46:06.995Z</time></trkpt><trkpt lat="41.9715664" lon="12.7143418"><ele>80.5</ele><time>2026-05-02T14:46:07.996Z</time></trkpt><trkpt lat="41.9714745" lon="12.7142365"><ele>81.0</ele><time>2026-05-02T14:46:08.999Z</time></trkpt><trkpt lat="41.9713798" lon="12.7141252"><ele>81.5</ele><time>2026-05-02T14:46:09.995Z</time></trkpt><trkpt lat="41.9712932" lon="12.7140126"><ele>82.0</ele><time>2026-05-02T14:46:10.992Z</time></trkpt><trkpt lat="41.9712167" lon="12.7139063"><ele>82.0</ele><time>2026-05-02T14:46:11.99Z</time></trkpt><trkpt lat="41.9711483" lon="12.7138024"><ele>82.0</ele><time>2026-05-02T14:46:12.994Z</time></trkpt><trkpt lat="41.9710785" lon="12.7136963"><ele>82.0</ele><time>2026-05-02T14:46:13.999Z</time></trkpt><trkpt lat="41.9710116" lon="12.7136003"><ele>82.0</ele><time>2026-05-02T14:46:15.003Z</time></trkpt><trkpt lat="41.9708903" lon="12.7134181"><ele>81.66666666666666</ele><time>2026-05-02T14:46:16.995Z</time></trkpt><trkpt lat="41.9708351" lon="12.7133413"><ele>81.33333333333333</ele><time>2026-05-02T14:46:17.995Z</time></trkpt><trkpt lat="41.9707856" lon="12.7132801"><ele>81.0</ele><time>2026-05-02T14:46:18.994Z</time></trkpt><trkpt lat="41.9707369" lon="12.713226"><ele>80.66666666666667</ele><time>2026-05-02T14:46:19.996Z</time></trkpt><trkpt lat="41.9706889" lon="12.7131665"><ele>80.33333333333334</ele><time>2026-05-02T14:46:20.991Z</time></trkpt><trkpt lat="41.9705976" lon="12.7130255"><ele>80.0</ele><time>2026-05-02T14:46:22.997Z</time></trkpt><trkpt lat="41.9705368" lon="12.7129415"><ele>80.0</ele><time>2026-05-02T14:46:24.008Z</time></trkpt><trkpt lat="41.9704828" lon="12.7128621"><ele>80.0</ele><time>2026-05-02T14:46:24.995Z</time></trkpt><trkpt lat="41.9704327" lon="12.7127832"><ele>80.0</ele><time>2026-05-02T14:46:25.99Z</time></trkpt><trkpt lat="41.9703919" lon="12.712715"><ele>80.0</ele><time>2026-05-02T14:46:26.998Z</time></trkpt><trkpt lat="41.9703383" lon="12.7126236"><ele>80.0</ele><time>2026-05-02T14:46:28.993Z</time></trkpt><trkpt lat="41.9702842" lon="12.7125439"><ele>80.0</ele><time>2026-05-02T14:46:32.018Z</time></trkpt><trkpt lat="41.9702387" lon="12.7124812"><ele>79.8</ele><time>2026-05-02T14:46:33.993Z</time></trkpt><trkpt lat="41.9701503" lon="12.7123791"><ele>79.6</ele><time>2026-05-02T14:46:35.993Z</time></trkpt><trkpt lat="41.9700696" lon="12.7122517"><ele>79.4</ele><time>2026-05-02T14:46:37.992Z</time></trkpt><trkpt lat="41.9700115" lon="12.7121651"><ele>79.2</ele><time>2026-05-02T14:46:38.992Z</time></trkpt><trkpt lat="41.9699539" lon="12.7120819"><ele>79.0</ele><time>2026-05-02T14:46:39.997Z</time></trkpt><trkpt lat="41.9698958" lon="12.7119981"><ele>79.0</ele><time>2026-05-02T14:46:40.995Z</time></trkpt><trkpt lat="41.9698313" lon="12.7119029"><ele>79.0</ele><time>2026-05-02T14:46:41.999Z</time></trkpt><trkpt lat="41.9697508" lon="12.7117838"><ele>79.0</ele><time>2026-05-02T14:46:42.995Z</time></trkpt><trkpt lat="41.9696485" lon="12.7116378"><ele>79.0</ele><time>2026-05-02T14:46:43.994Z</time></trkpt><trkpt lat="41.9695147" lon="12.7114397"><ele>79.0</ele><time>2026-05-02T14:46:44.992Z</time></trkpt><trkpt lat="41.969388" lon="12.7112736"><ele>79.0</ele><time>2026-05-02T14:46:46.005Z</time></trkpt><trkpt lat="41.9692832" lon="12.7111258"><ele>79.0</ele><time>2026-05-02T14:46:46.987Z</time></trkpt><trkpt lat="41.9691899" lon="12.7109992"><ele>79.0</ele><time>2026-05-02T14:46:48.004Z</time></trkpt><trkpt lat="41.9690971" lon="12.7108802"><ele>79.0</ele><time>2026-05-02T14:46:48.99Z</time></trkpt><trkpt lat="41.969007" lon="12.7107719"><ele>79.0</ele><time>2026-05-02T14:46:50.001Z</time></trkpt><trkpt lat="41.968918" lon="12.7106656"><ele>79.0</ele><time>2026-05-02T14:46:50.992Z</time></trkpt><trkpt lat="41.968835" lon="12.7105434"><ele>79.0</ele><time>2026-05-02T14:46:52Z</time></trkpt><trkpt lat="41.9687438" lon="12.710414"><ele>79.0</ele><time>2026-05-02T14:46:52.997Z</time></trkpt><trkpt lat="41.9686606" lon="12.7102991"><ele>79.0</ele><time>2026-05-02T14:46:54.007Z</time></trkpt><trkpt lat="41.9685852" lon="12.7101918"><ele>79.0</ele><time>2026-05-02T14:46:54.998Z</time></trkpt><trkpt lat="41.9685112" lon="12.7100787"><ele>79.0</ele><time>2026-05-02T14:46:56.006Z</time></trkpt><trkpt lat="41.9684365" lon="12.7099534"><ele>79.0</ele><time>2026-05-02T14:46:56.991Z</time></trkpt><trkpt lat="41.968336" lon="12.709812"><ele>79.0</ele><time>2026-05-02T14:46:57.998Z</time></trkpt><trkpt lat="41.9682028" lon="12.709634"><ele>77.0</ele><time>2026-05-02T14:46:59.001Z</time></trkpt><trkpt lat="41.9680367" lon="12.7094197"><ele>75.0</ele><time>2026-05-02T14:47:00.002Z</time></trkpt><trkpt lat="41.9678701" lon="12.7091988"><ele>75.0</ele><time>2026-05-02T14:47:01.004Z</time></trkpt><trkpt lat="41.9677196" lon="12.7089923"><ele>75.0</ele><time>2026-05-02T14:47:01.999Z</time></trkpt><trkpt lat="41.9675425" lon="12.7087582"><ele>73.5</ele><time>2026-05-02T14:47:02.997Z</time></trkpt><trkpt lat="41.9673546" lon="12.7085103"><ele>72.0</ele><time>2026-05-02T14:47:04.006Z</time></trkpt><trkpt lat="41.9671648" lon="12.7082567"><ele>72.0</ele><time>2026-05-02T14:47:04.996Z</time></trkpt><trkpt lat="41.9670033" lon="12.7080161"><ele>72.0</ele><time>2026-05-02T14:47:05.997Z</time></trkpt><trkpt lat="41.9668623" lon="12.7077967"><ele>72.0</ele><time>2026-05-02T14:47:06.995Z</time></trkpt><trkpt lat="41.9667176" lon="12.7075879"><ele>72.0</ele><time>2026-05-02T14:47:07.997Z</time></trkpt><trkpt lat="41.9665817" lon="12.7073844"><ele>72.0</ele><time>2026-05-02T14:47:09.003Z</time></trkpt><trkpt lat="41.9664297" lon="12.7071718"><ele>72.0</ele><time>2026-05-02T14:47:09.998Z</time></trkpt><trkpt lat="41.9662637" lon="12.7069531"><ele>72.0</ele><time>2026-05-02T14:47:11Z</time></trkpt><trkpt lat="41.9660848" lon="12.7067147"><ele>73.5</ele><time>2026-05-02T14:47:11.993Z</time></trkpt><trkpt lat="41.9659126" lon="12.7064719"><ele>75.0</ele><time>2026-05-02T14:47:13.003Z</time></trkpt><trkpt lat="41.9657565" lon="12.7062319"><ele>75.66666666666667</ele><time>2026-05-02T14:47:13.997Z</time></trkpt><trkpt lat="41.965616" lon="12.7060247"><ele>76.33333333333334</ele><time>2026-05-02T14:47:15Z</time></trkpt><trkpt lat="41.9654805" lon="12.7058338"><ele>77.0</ele><time>2026-05-02T14:47:16.009Z</time></trkpt><trkpt lat="41.9653569" lon="12.70564"><ele>77.0</ele><time>2026-05-02T14:47:17.001Z</time></trkpt><trkpt lat="41.9652326" lon="12.7054553"><ele>77.0</ele><time>2026-05-02T14:47:18.014Z</time></trkpt><trkpt lat="41.9650894" lon="12.7052652"><ele>77.0</ele><time>2026-05-02T14:47:19.005Z</time></trkpt><trkpt lat="41.9649636" lon="12.7050878"><ele>77.0</ele><time>2026-05-02T14:47:20Z</time></trkpt><trkpt lat="41.9648394" lon="12.7049177"><ele>77.0</ele><time>2026-05-02T14:47:21.011Z</time></trkpt><trkpt lat="41.9647109" lon="12.7047284"><ele>77.0</ele><time>2026-05-02T14:47:22.007Z</time></trkpt><trkpt lat="41.9645757" lon="12.704545"><ele>76.66666666666667</ele><time>2026-05-02T14:47:23.018Z</time></trkpt><trkpt lat="41.9644314" lon="12.7043609"><ele>76.33333333333333</ele><time>2026-05-02T14:47:24.007Z</time></trkpt><trkpt lat="41.9642938" lon="12.704186"><ele>76.0</ele><time>2026-05-02T14:47:25.009Z</time></trkpt><trkpt lat="41.964155" lon="12.7039986"><ele>76.0</ele><time>2026-05-02T14:47:26Z</time></trkpt><trkpt lat="41.964032" lon="12.7038151"><ele>76.0</ele><time>2026-05-02T14:47:27.008Z</time></trkpt><trkpt lat="41.9639208" lon="12.7036511"><ele>76.0</ele><time>2026-05-02T14:47:28.005Z</time></trkpt><trkpt lat="41.9638071" lon="12.7034852"><ele>77.0</ele><time>2026-05-02T14:47:29.001Z</time></trkpt><trkpt lat="41.9636833" lon="12.7033071"><ele>78.0</ele><time>2026-05-02T14:47:30.016Z</time></trkpt><trkpt lat="41.9635619" lon="12.7031327"><ele>79.0</ele><time>2026-05-02T14:47:31.012Z</time></trkpt><trkpt lat="41.9634332" lon="12.7029581"><ele>76.33333333333333</ele><time>2026-05-02T14:47:32.003Z</time></trkpt><trkpt lat="41.9633153" lon="12.702786"><ele>73.66666666666667</ele><time>2026-05-02T14:47:33.014Z</time></trkpt><trkpt lat="41.9632083" lon="12.7026426"><ele>71.0</ele><time>2026-05-02T14:47:34.02Z</time></trkpt><trkpt lat="41.9631059" lon="12.7024995"><ele>71.0</ele><time>2026-05-02T14:47:35.013Z</time></trkpt><trkpt lat="41.9629956" lon="12.702348"><ele>71.0</ele><time>2026-05-02T14:47:36.019Z</time></trkpt><trkpt lat="41.9628791" lon="12.7022012"><ele>71.0</ele><time>2026-05-02T14:47:37.017Z</time></trkpt><trkpt lat="41.9627648" lon="12.7020409"><ele>71.5</ele><time>2026-05-02T14:47:38.014Z</time></trkpt><trkpt lat="41.9626618" lon="12.7018999"><ele>72.0</ele><time>2026-05-02T14:47:39.031Z</time></trkpt><trkpt lat="41.9625598" lon="12.7017512"><ele>72.5</ele><time>2026-05-02T14:47:40.023Z</time></trkpt><trkpt lat="41.9624581" lon="12.7016053"><ele>73.0</ele><time>2026-05-02T14:47:41.011Z</time></trkpt><trkpt lat="41.9623703" lon="12.701466"><ele>71.66666666666666</ele><time>2026-05-02T14:47:42.012Z</time></trkpt><trkpt lat="41.9622852" lon="12.7013217"><ele>70.33333333333333</ele><time>2026-05-02T14:47:43.005Z</time></trkpt><trkpt lat="41.962171" lon="12.7011683"><ele>69.0</ele><time>2026-05-02T14:47:44.013Z</time></trkpt><trkpt lat="41.9620565" lon="12.7010123"><ele>69.0</ele><time>2026-05-02T14:47:45.005Z</time></trkpt><trkpt lat="41.9619462" lon="12.7008449"><ele>69.0</ele><time>2026-05-02T14:47:46.012Z</time></trkpt><trkpt lat="41.9618096" lon="12.7006704"><ele>69.0</ele><time>2026-05-02T14:47:47.013Z</time></trkpt><trkpt lat="41.9616799" lon="12.7005207"><ele>69.0</ele><time>2026-05-02T14:47:48.019Z</time></trkpt><trkpt lat="41.9615616" lon="12.7003693"><ele>69.0</ele><time>2026-05-02T14:47:49.01Z</time></trkpt><trkpt lat="41.9614492" lon="12.7002215"><ele>69.0</ele><time>2026-05-02T14:47:50.016Z</time></trkpt><trkpt lat="41.9613234" lon="12.7000551"><ele>69.0</ele><time>2026-05-02T14:47:51.014Z</time></trkpt><trkpt lat="41.9612027" lon="12.6998912"><ele>69.0</ele><time>2026-05-02T14:47:52.016Z</time></trkpt><trkpt lat="41.9610951" lon="12.6997245"><ele>69.0</ele><time>2026-05-02T14:47:53.017Z</time></trkpt><trkpt lat="41.9609883" lon="12.6995953"><ele>69.0</ele><time>2026-05-02T14:47:54.01Z</time></trkpt><trkpt lat="41.9608959" lon="12.699465"><ele>69.0</ele><time>2026-05-02T14:47:55.008Z</time></trkpt><trkpt lat="41.960802" lon="12.699337"><ele>69.0</ele><time>2026-05-02T14:47:56.001Z</time></trkpt><trkpt lat="41.9606658" lon="12.6991739"><ele>68.33333333333333</ele><time>2026-05-02T14:47:57Z</time></trkpt><trkpt lat="41.9605354" lon="12.6989528"><ele>67.66666666666666</ele><time>2026-05-02T14:47:58.006Z</time></trkpt><trkpt lat="41.960398" lon="12.6987673"><ele>67.0</ele><time>2026-05-02T14:47:59.007Z</time></trkpt><trkpt lat="41.9602854" lon="12.6985913"><ele>66.66666666666666</ele><time>2026-05-02T14:48:00.008Z</time></trkpt><trkpt lat="41.9601576" lon="12.6984199"><ele>66.33333333333333</ele><time>2026-05-02T14:48:01.013Z</time></trkpt><trkpt lat="41.9600136" lon="12.6982302"><ele>66.0</ele><time>2026-05-02T14:48:02.008Z</time></trkpt><trkpt lat="41.9599101" lon="12.6980638"><ele>66.0</ele><time>2026-05-02T14:48:03.011Z</time></trkpt><trkpt lat="41.9598326" lon="12.6979172"><ele>66.0</ele><time>2026-05-02T14:48:04.008Z</time></trkpt><trkpt lat="41.959744" lon="12.6977816"><ele>66.0</ele><time>2026-05-02T14:48:05.006Z</time></trkpt><trkpt lat="41.9596483" lon="12.6976616"><ele>66.0</ele><time>2026-05-02T14:48:06.008Z</time></trkpt><trkpt lat="41.9595704" lon="12.6975351"><ele>65.66666666666667</ele><time>2026-05-02T14:48:07.009Z</time></trkpt><trkpt lat="41.9594739" lon="12.6973854"><ele>65.33333333333334</ele><time>2026-05-02T14:48:08.01Z</time></trkpt><trkpt lat="41.959353" lon="12.6972039"><ele>65.0</ele><time>2026-05-02T14:48:08.998Z</time></trkpt><trkpt lat="41.9592148" lon="12.6970236"><ele>65.0</ele><time>2026-05-02T14:48:10.013Z</time></trkpt><trkpt lat="41.9590914" lon="12.696865"><ele>65.0</ele><time>2026-05-02T14:48:11.007Z</time></trkpt><trkpt lat="41.9589444" lon="12.696685"><ele>65.0</ele><time>2026-05-02T14:48:12.01Z</time></trkpt><trkpt lat="41.9588221" lon="12.6965051"><ele>65.0</ele><time>2026-05-02T14:48:13.01Z</time></trkpt><trkpt lat="41.9587137" lon="12.6963548"><ele>65.0</ele><time>2026-05-02T14:48:14.013Z</time></trkpt><trkpt lat="41.9585781" lon="12.6961941"><ele>65.0</ele><time>2026-05-02T14:48:15Z</time></trkpt><trkpt lat="41.9584289" lon="12.6960414"><ele>64.0</ele><time>2026-05-02T14:48:16.008Z</time></trkpt><trkpt lat="41.9582442" lon="12.6959129"><ele>63.0</ele><time>2026-05-02T14:48:17.003Z</time></trkpt><trkpt lat="41.9580385" lon="12.6957924"><ele>62.0</ele><time>2026-05-02T14:48:18.002Z</time></trkpt><trkpt lat="41.9578256" lon="12.6956603"><ele>62.0</ele><time>2026-05-02T14:48:19.012Z</time></trkpt><trkpt lat="41.957635" lon="12.6955392"><ele>62.0</ele><time>2026-05-02T14:48:20.001Z</time></trkpt><trkpt lat="41.9574605" lon="12.6954211"><ele>62.0</ele><time>2026-05-02T14:48:21.011Z</time></trkpt><trkpt lat="41.9573039" lon="12.6953399"><ele>61.66666666666667</ele><time>2026-05-02T14:48:22.009Z</time></trkpt><trkpt lat="41.9571399" lon="12.695233"><ele>61.33333333333333</ele><time>2026-05-02T14:48:23.002Z</time></trkpt><trkpt lat="41.9569729" lon="12.6951094"><ele>61.0</ele><time>2026-05-02T14:48:24.012Z</time></trkpt><trkpt lat="41.956788" lon="12.6949731"><ele>60.666666666666664</ele><time>2026-05-02T14:48:24.995Z</time></trkpt><trkpt lat="41.9565911" lon="12.694843"><ele>60.33333333333333</ele><time>2026-05-02T14:48:26Z</time></trkpt><trkpt lat="41.9563829" lon="12.6947212"><ele>60.0</ele><time>2026-05-02T14:48:27.015Z</time></trkpt><trkpt lat="41.9561638" lon="12.6945775"><ele>60.0</ele><time>2026-05-02T14:48:28.005Z</time></trkpt><trkpt lat="41.9559387" lon="12.6944289"><ele>60.0</ele><time>2026-05-02T14:48:29.013Z</time></trkpt><trkpt lat="41.9557044" lon="12.6942679"><ele>57.5</ele><time>2026-05-02T14:48:30.01Z</time></trkpt><trkpt lat="41.9554661" lon="12.6941161"><ele>55.0</ele><time>2026-05-02T14:48:31.007Z</time></trkpt><trkpt lat="41.9552276" lon="12.693969"><ele>55.0</ele><time>2026-05-02T14:48:31.999Z</time></trkpt><trkpt lat="41.9549993" lon="12.693832"><ele>55.0</ele><time>2026-05-02T14:48:33.008Z</time></trkpt><trkpt lat="41.9547901" lon="12.6936854"><ele>54.0</ele><time>2026-05-02T14:48:34.008Z</time></trkpt><trkpt lat="41.9545805" lon="12.6935483"><ele>53.0</ele><time>2026-05-02T14:48:35.012Z</time></trkpt><trkpt lat="41.9543734" lon="12.6934295"><ele>52.5</ele><time>2026-05-02T14:48:36.008Z</time></trkpt><trkpt lat="41.9541458" lon="12.6932759"><ele>52.0</ele><time>2026-05-02T14:48:37.006Z</time></trkpt><trkpt lat="41.9539172" lon="12.693124"><ele>52.0</ele><time>2026-05-02T14:48:38.006Z</time></trkpt><trkpt lat="41.9536991" lon="12.6929844"><ele>52.0</ele><time>2026-05-02T14:48:39.005Z</time></trkpt><trkpt lat="41.9534868" lon="12.6928619"><ele>53.666666666666664</ele><time>2026-05-02T14:48:40.003Z</time></trkpt><trkpt lat="41.9533" lon="12.6927407"><ele>55.33333333333333</ele><time>2026-05-02T14:48:41.01Z</time></trkpt><trkpt lat="41.9531205" lon="12.6926376"><ele>57.0</ele><time>2026-05-02T14:48:42.003Z</time></trkpt><trkpt lat="41.9529607" lon="12.6925198"><ele>57.0</ele><time>2026-05-02T14:48:43.007Z</time></trkpt><trkpt lat="41.9528089" lon="12.6924075"><ele>57.0</ele><time>2026-05-02T14:48:44.006Z</time></trkpt><trkpt lat="41.9526648" lon="12.6923167"><ele>57.0</ele><time>2026-05-02T14:48:45.006Z</time></trkpt><trkpt lat="41.952535" lon="12.6922103"><ele>56.0</ele><time>2026-05-02T14:48:46.009Z</time></trkpt><trkpt lat="41.9524024" lon="12.6921291"><ele>55.0</ele><time>2026-05-02T14:48:47.008Z</time></trkpt><trkpt lat="41.9521555" lon="12.6919618"><ele>54.0</ele><time>2026-05-02T14:48:49.006Z</time></trkpt><trkpt lat="41.9520736" lon="12.6918677"><ele>53.666666666666664</ele><time>2026-05-02T14:48:50Z</time></trkpt><trkpt lat="41.952004" lon="12.6917747"><ele>53.33333333333333</ele><time>2026-05-02T14:48:51.009Z</time></trkpt><trkpt lat="41.9519492" lon="12.6917006"><ele>53.0</ele><time>2026-05-02T14:48:52.003Z</time></trkpt><trkpt lat="41.951924" lon="12.6916208"><ele>52.666666666666664</ele><time>2026-05-02T14:48:54.003Z</time></trkpt><trkpt lat="41.9519099" lon="12.69151"><ele>52.33333333333333</ele><time>2026-05-02T14:48:56.005Z</time></trkpt><trkpt lat="41.9518977" lon="12.6913838"><ele>52.0</ele><time>2026-05-02T14:48:58.008Z</time></trkpt><trkpt lat="41.9518863" lon="12.6912967"><ele>52.0</ele><time>2026-05-02T14:48:59.003Z</time></trkpt><trkpt lat="41.9518808" lon="12.6911551"><ele>52.0</ele><time>2026-05-02T14:49:00.005Z</time></trkpt><trkpt lat="41.9518928" lon="12.6909668"><ele>52.0</ele><time>2026-05-02T14:49:00.995Z</time></trkpt><trkpt lat="41.9519145" lon="12.6907544"><ele>52.0</ele><time>2026-05-02T14:49:02.004Z</time></trkpt><trkpt lat="41.9519389" lon="12.6904696"><ele>52.666666666666664</ele><time>2026-05-02T14:49:03.005Z</time></trkpt><trkpt lat="41.9519407" lon="12.690235"><ele>53.33333333333333</ele><time>2026-05-02T14:49:03.999Z</time></trkpt><trkpt lat="41.951935" lon="12.690028"><ele>54.0</ele><time>2026-05-02T14:49:05.003Z</time></trkpt><trkpt lat="41.9519325" lon="12.6897914"><ele>54.0</ele><time>2026-05-02T14:49:05.998Z</time></trkpt><trkpt lat="41.9519259" lon="12.6895681"><ele>54.0</ele><time>2026-05-02T14:49:07.011Z</time></trkpt><trkpt lat="41.9519273" lon="12.6893137"><ele>54.0</ele><time>2026-05-02T14:49:08.009Z</time></trkpt><trkpt lat="41.9519243" lon="12.6890636"><ele>53.66666666666667</ele><time>2026-05-02T14:49:09.009Z</time></trkpt><trkpt lat="41.9519124" lon="12.6888001"><ele>53.333333333333336</ele><time>2026-05-02T14:49:10.002Z</time></trkpt><trkpt lat="41.9519088" lon="12.6885496"><ele>53.0</ele><time>2026-05-02T14:49:11.012Z</time></trkpt><trkpt lat="41.9519059" lon="12.6883079"><ele>53.0</ele><time>2026-05-02T14:49:12.002Z</time></trkpt><trkpt lat="41.9518853" lon="12.6880666"><ele>53.0</ele><time>2026-05-02T14:49:13.006Z</time></trkpt><trkpt lat="41.9518553" lon="12.6878254"><ele>53.0</ele><time>2026-05-02T14:49:14.003Z</time></trkpt><trkpt lat="41.9518064" lon="12.6875653"><ele>53.0</ele><time>2026-05-02T14:49:15.002Z</time></trkpt><trkpt lat="41.951727" lon="12.6873266"><ele>53.0</ele><time>2026-05-02T14:49:16.008Z</time></trkpt><trkpt lat="41.9516346" lon="12.6870995"><ele>53.0</ele><time>2026-05-02T14:49:17.007Z</time></trkpt><trkpt lat="41.9515407" lon="12.6869211"><ele>52.0</ele><time>2026-05-02T14:49:18.01Z</time></trkpt><trkpt lat="41.9514496" lon="12.6867646"><ele>51.0</ele><time>2026-05-02T14:49:19.011Z</time></trkpt><trkpt lat="41.9513569" lon="12.6866124"><ele>50.0</ele><time>2026-05-02T14:49:20.009Z</time></trkpt><trkpt lat="41.9512691" lon="12.6864591"><ele>49.0</ele><time>2026-05-02T14:49:21.004Z</time></trkpt><trkpt lat="41.9511731" lon="12.6863498"><ele>49.0</ele><time>2026-05-02T14:49:22.007Z</time></trkpt><trkpt lat="41.951084" lon="12.6862181"><ele>49.0</ele><time>2026-05-02T14:49:23.003Z</time></trkpt><trkpt lat="41.9509932" lon="12.6860857"><ele>49.0</ele><time>2026-05-02T14:49:24Z</time></trkpt><trkpt lat="41.9508839" lon="12.6859266"><ele>49.0</ele><time>2026-05-02T14:49:25.01Z</time></trkpt><trkpt lat="41.9507468" lon="12.6857236"><ele>50.33333333333333</ele><time>2026-05-02T14:49:26.004Z</time></trkpt><trkpt lat="41.9506251" lon="12.6855346"><ele>51.66666666666667</ele><time>2026-05-02T14:49:26.998Z</time></trkpt><trkpt lat="41.9505246" lon="12.6853356"><ele>53.0</ele><time>2026-05-02T14:49:28.001Z</time></trkpt><trkpt lat="41.9504502" lon="12.6851369"><ele>54.25</ele><time>2026-05-02T14:49:29.012Z</time></trkpt><trkpt lat="41.9503813" lon="12.6849761"><ele>55.5</ele><time>2026-05-02T14:49:30.005Z</time></trkpt><trkpt lat="41.9503072" lon="12.6848193"><ele>56.75</ele><time>2026-05-02T14:49:30.999Z</time></trkpt><trkpt lat="41.9502541" lon="12.684649"><ele>58.0</ele><time>2026-05-02T14:49:32.003Z</time></trkpt><trkpt lat="41.9502176" lon="12.6844676"><ele>60.33333333333333</ele><time>2026-05-02T14:49:33.005Z</time></trkpt><trkpt lat="41.9501868" lon="12.6842489"><ele>62.66666666666667</ele><time>2026-05-02T14:49:34.004Z</time></trkpt><trkpt lat="41.9501531" lon="12.6839984"><ele>65.0</ele><time>2026-05-02T14:49:35.001Z</time></trkpt><trkpt lat="41.9500987" lon="12.6837417"><ele>64.66666666666667</ele><time>2026-05-02T14:49:36.001Z</time></trkpt><trkpt lat="41.9500774" lon="12.6834885"><ele>64.33333333333333</ele><time>2026-05-02T14:49:36.999Z</time></trkpt><trkpt lat="41.9500261" lon="12.6832185"><ele>64.0</ele><time>2026-05-02T14:49:37.993Z</time></trkpt><trkpt lat="41.9499716" lon="12.6829499"><ele>64.0</ele><time>2026-05-02T14:49:38.995Z</time></trkpt><trkpt lat="41.9499123" lon="12.6827391"><ele>64.0</ele><time>2026-05-02T14:49:39.999Z</time></trkpt><trkpt lat="41.9498729" lon="12.6824867"><ele>64.0</ele><time>2026-05-02T14:49:41.005Z</time></trkpt><trkpt lat="41.9498518" lon="12.6822515"><ele>64.0</ele><time>2026-05-02T14:49:41.998Z</time></trkpt><trkpt lat="41.9497919" lon="12.682012"><ele>64.0</ele><time>2026-05-02T14:49:42.998Z</time></trkpt><trkpt lat="41.9497507" lon="12.6818206"><ele>64.0</ele><time>2026-05-02T14:49:44.004Z</time></trkpt><trkpt lat="41.9496908" lon="12.6816222"><ele>63.666666666666664</ele><time>2026-05-02T14:49:45.007Z</time></trkpt><trkpt lat="41.949626" lon="12.68142"><ele>63.33333333333333</ele><time>2026-05-02T14:49:46Z</time></trkpt><trkpt lat="41.9495557" lon="12.6811767"><ele>63.0</ele><time>2026-05-02T14:49:47.003Z</time></trkpt><trkpt lat="41.9494803" lon="12.680932"><ele>62.66666666666667</ele><time>2026-05-02T14:49:48.003Z</time></trkpt><trkpt lat="41.9494274" lon="12.680726"><ele>62.333333333333336</ele><time>2026-05-02T14:49:49.006Z</time></trkpt><trkpt lat="41.949355" lon="12.680538"><ele>62.0</ele><time>2026-05-02T14:49:50Z</time></trkpt><trkpt lat="41.9492869" lon="12.6803721"><ele>61.25</ele><time>2026-05-02T14:49:51Z</time></trkpt><trkpt lat="41.9492253" lon="12.6802092"><ele>60.5</ele><time>2026-05-02T14:49:52.008Z</time></trkpt><trkpt lat="41.9491689" lon="12.6800664"><ele>59.75</ele><time>2026-05-02T14:49:53.003Z</time></trkpt><trkpt lat="41.9491095" lon="12.679922"><ele>59.0</ele><time>2026-05-02T14:49:54.003Z</time></trkpt><trkpt lat="41.9490534" lon="12.6797957"><ele>59.0</ele><time>2026-05-02T14:49:55.009Z</time></trkpt><trkpt lat="41.948994" lon="12.6796338"><ele>59.0</ele><time>2026-05-02T14:49:56.004Z</time></trkpt><trkpt lat="41.9489369" lon="12.6794802"><ele>59.0</ele><time>2026-05-02T14:49:57.016Z</time></trkpt><trkpt lat="41.9488807" lon="12.6793265"><ele>59.0</ele><time>2026-05-02T14:49:58.004Z</time></trkpt><trkpt lat="41.9488197" lon="12.6791552"><ele>57.66666666666667</ele><time>2026-05-02T14:49:59.003Z</time></trkpt><trkpt lat="41.9487373" lon="12.6789415"><ele>56.33333333333333</ele><time>2026-05-02T14:50:00.006Z</time></trkpt><trkpt lat="41.9486453" lon="12.6787306"><ele>55.0</ele><time>2026-05-02T14:50:01.003Z</time></trkpt><trkpt lat="41.9485789" lon="12.6785299"><ele>54.75</ele><time>2026-05-02T14:50:01.993Z</time></trkpt><trkpt lat="41.9485279" lon="12.678349"><ele>54.5</ele><time>2026-05-02T14:50:03Z</time></trkpt><trkpt lat="41.9484884" lon="12.678182"><ele>54.25</ele><time>2026-05-02T14:50:03.999Z</time></trkpt><trkpt lat="41.9484317" lon="12.6780241"><ele>54.0</ele><time>2026-05-02T14:50:05.008Z</time></trkpt><trkpt lat="41.94836" lon="12.6778804"><ele>54.25</ele><time>2026-05-02T14:50:06.006Z</time></trkpt><trkpt lat="41.9482836" lon="12.6777196"><ele>54.5</ele><time>2026-05-02T14:50:06.999Z</time></trkpt><trkpt lat="41.948208" lon="12.6775756"><ele>54.75</ele><time>2026-05-02T14:50:08.006Z</time></trkpt><trkpt lat="41.9481384" lon="12.677403"><ele>55.0</ele><time>2026-05-02T14:50:09.009Z</time></trkpt><trkpt lat="41.9480818" lon="12.6772242"><ele>55.0</ele><time>2026-05-02T14:50:10.006Z</time></trkpt><trkpt lat="41.948016" lon="12.6770408"><ele>55.0</ele><time>2026-05-02T14:50:11.004Z</time></trkpt><trkpt lat="41.9479535" lon="12.6768806"><ele>55.0</ele><time>2026-05-02T14:50:12.011Z</time></trkpt><trkpt lat="41.9478923" lon="12.6767253"><ele>55.0</ele><time>2026-05-02T14:50:13.003Z</time></trkpt><trkpt lat="41.9478328" lon="12.6765527"><ele>57.25</ele><time>2026-05-02T14:50:14.006Z</time></trkpt><trkpt lat="41.9477695" lon="12.6763886"><ele>59.5</ele><time>2026-05-02T14:50:15.004Z</time></trkpt><trkpt lat="41.9477032" lon="12.676244"><ele>61.75</ele><time>2026-05-02T14:50:15.989Z</time></trkpt><trkpt lat="41.94765" lon="12.6760992"><ele>64.0</ele><time>2026-05-02T14:50:16.996Z</time></trkpt><trkpt lat="41.9475646" lon="12.6759393"><ele>64.33333333333333</ele><time>2026-05-02T14:50:17.995Z</time></trkpt><trkpt lat="41.9474803" lon="12.6757227"><ele>64.66666666666667</ele><time>2026-05-02T14:50:18.99Z</time></trkpt><trkpt lat="41.9474021" lon="12.6755137"><ele>65.0</ele><time>2026-05-02T14:50:19.993Z</time></trkpt><trkpt lat="41.9473332" lon="12.6753188"><ele>65.0</ele><time>2026-05-02T14:50:20.997Z</time></trkpt><trkpt lat="41.9472869" lon="12.6751468"><ele>65.0</ele><time>2026-05-02T14:50:22.001Z</time></trkpt><trkpt lat="41.9472305" lon="12.6749823"><ele>65.0</ele><time>2026-05-02T14:50:23Z</time></trkpt><trkpt lat="41.9471855" lon="12.6747825"><ele>65.0</ele><time>2026-05-02T14:50:24.004Z</time></trkpt><trkpt lat="41.9471587" lon="12.6745798"><ele>64.0</ele><time>2026-05-02T14:50:25.004Z</time></trkpt><trkpt lat="41.9471739" lon="12.6743972"><ele>63.0</ele><time>2026-05-02T14:50:26.005Z</time></trkpt><trkpt lat="41.9471918" lon="12.6742056"><ele>62.0</ele><time>2026-05-02T14:50:27.001Z</time></trkpt><trkpt lat="41.9471754" lon="12.673979"><ele>62.0</ele><time>2026-05-02T14:50:27.998Z</time></trkpt><trkpt lat="41.9471741" lon="12.6737121"><ele>62.0</ele><time>2026-05-02T14:50:29.005Z</time></trkpt><trkpt lat="41.9471677" lon="12.6734618"><ele>62.0</ele><time>2026-05-02T14:50:30.005Z</time></trkpt><trkpt lat="41.9471769" lon="12.6732435"><ele>61.75</ele><time>2026-05-02T14:50:31.007Z</time></trkpt><trkpt lat="41.9471814" lon="12.6730464"><ele>61.5</ele><time>2026-05-02T14:50:32.004Z</time></trkpt><trkpt lat="41.9471939" lon="12.6728629"><ele>61.25</ele><time>2026-05-02T14:50:33.004Z</time></trkpt><trkpt lat="41.9472049" lon="12.6727195"><ele>61.0</ele><time>2026-05-02T14:50:34.004Z</time></trkpt><trkpt lat="41.9472175" lon="12.6726103"><ele>60.99999999999999</ele><time>2026-05-02T14:50:35.005Z</time></trkpt><trkpt lat="41.9472428" lon="12.6725206"><ele>61.0</ele><time>2026-05-02T14:50:35.997Z</time></trkpt><trkpt lat="41.9472976" lon="12.6724335"><ele>61.0</ele><time>2026-05-02T14:50:37.003Z</time></trkpt><trkpt lat="41.9473543" lon="12.6723808"><ele>61.0</ele><time>2026-05-02T14:50:38.007Z</time></trkpt><trkpt lat="41.9473806" lon="12.6722681"><ele>60.99999999999999</ele><time>2026-05-02T14:50:38.993Z</time></trkpt><trkpt lat="41.9473872" lon="12.6721266"><ele>61.0</ele><time>2026-05-02T14:50:40.004Z</time></trkpt><trkpt lat="41.947348" lon="12.6720191"><ele>61.8</ele><time>2026-05-02T14:50:41.003Z</time></trkpt><trkpt lat="41.9473078" lon="12.6719042"><ele>62.599999999999994</ele><time>2026-05-02T14:50:41.999Z</time></trkpt><trkpt lat="41.9472484" lon="12.6717872"><ele>63.4</ele><time>2026-05-02T14:50:43.006Z</time></trkpt><trkpt lat="41.9471945" lon="12.6716537"><ele>64.2</ele><time>2026-05-02T14:50:44.004Z</time></trkpt><trkpt lat="41.9471623" lon="12.6714967"><ele>65.0</ele><time>2026-05-02T14:50:45Z</time></trkpt><trkpt lat="41.9471487" lon="12.671328"><ele>65.0</ele><time>2026-05-02T14:50:46.013Z</time></trkpt><trkpt lat="41.9471518" lon="12.6711504"><ele>65.0</ele><time>2026-05-02T14:50:47.009Z</time></trkpt><trkpt lat="41.9471573" lon="12.6709732"><ele>65.0</ele><time>2026-05-02T14:50:48.008Z</time></trkpt><trkpt lat="41.9471576" lon="12.6708034"><ele>65.0</ele><time>2026-05-02T14:50:49.01Z</time></trkpt><trkpt lat="41.9471546" lon="12.6706226"><ele>65.5</ele><time>2026-05-02T14:50:50.004Z</time></trkpt><trkpt lat="41.9471417" lon="12.6704497"><ele>66.0</ele><time>2026-05-02T14:50:51.006Z</time></trkpt><trkpt lat="41.947117" lon="12.6702761"><ele>66.5</ele><time>2026-05-02T14:50:52.009Z</time></trkpt><trkpt lat="41.94708" lon="12.6700946"><ele>67.0</ele><time>2026-05-02T14:50:53.007Z</time></trkpt><trkpt lat="41.9470266" lon="12.6699079"><ele>67.0</ele><time>2026-05-02T14:50:54.001Z</time></trkpt><trkpt lat="41.946968" lon="12.669658"><ele>67.0</ele><time>2026-05-02T14:50:55.001Z</time></trkpt><trkpt lat="41.9468852" lon="12.6694345"><ele>67.0</ele><time>2026-05-02T14:50:56.005Z</time></trkpt><trkpt lat="41.9468046" lon="12.6692375"><ele>66.0</ele><time>2026-05-02T14:50:57.011Z</time></trkpt><trkpt lat="41.9467164" lon="12.6690488"><ele>65.0</ele><time>2026-05-02T14:50:58.006Z</time></trkpt><trkpt lat="41.9466496" lon="12.6688878"><ele>64.0</ele><time>2026-05-02T14:50:59.004Z</time></trkpt><trkpt lat="41.9465718" lon="12.6687121"><ele>63.0</ele><time>2026-05-02T14:51:00.003Z</time></trkpt><trkpt lat="41.9464803" lon="12.6685259"><ele>62.0</ele><time>2026-05-02T14:51:01.006Z</time></trkpt><trkpt lat="41.9464079" lon="12.6683504"><ele>61.0</ele><time>2026-05-02T14:51:02.009Z</time></trkpt><trkpt lat="41.9463286" lon="12.6681802"><ele>61.0</ele><time>2026-05-02T14:51:03.005Z</time></trkpt><trkpt lat="41.9462621" lon="12.6679945"><ele>61.0</ele><time>2026-05-02T14:51:04.003Z</time></trkpt><trkpt lat="41.9462022" lon="12.6677945"><ele>61.0</ele><time>2026-05-02T14:51:05.002Z</time></trkpt><trkpt lat="41.9461393" lon="12.6676005"><ele>60.33333333333333</ele><time>2026-05-02T14:51:06.003Z</time></trkpt><trkpt lat="41.9460738" lon="12.6674147"><ele>59.66666666666667</ele><time>2026-05-02T14:51:06.995Z</time></trkpt><trkpt lat="41.9459865" lon="12.6672265"><ele>59.0</ele><time>2026-05-02T14:51:08.001Z</time></trkpt><trkpt lat="41.9459283" lon="12.6670579"><ele>59.0</ele><time>2026-05-02T14:51:09.008Z</time></trkpt><trkpt lat="41.9458642" lon="12.6668506"><ele>59.0</ele><time>2026-05-02T14:51:10.002Z</time></trkpt><trkpt lat="41.9458077" lon="12.6666351"><ele>59.0</ele><time>2026-05-02T14:51:11.004Z</time></trkpt><trkpt lat="41.9457393" lon="12.6664155"><ele>59.0</ele><time>2026-05-02T14:51:12.007Z</time></trkpt><trkpt lat="41.9456745" lon="12.6661832"><ele>59.0</ele><time>2026-05-02T14:51:13.005Z</time></trkpt><trkpt lat="41.9456148" lon="12.6659304"><ele>59.0</ele><time>2026-05-02T14:51:14.003Z</time></trkpt><trkpt lat="41.9455576" lon="12.665672"><ele>60.0</ele><time>2026-05-02T14:51:15.01Z</time></trkpt><trkpt lat="41.9454963" lon="12.6653931"><ele>61.0</ele><time>2026-05-02T14:51:16.003Z</time></trkpt><trkpt lat="41.9454435" lon="12.6651044"><ele>62.0</ele><time>2026-05-02T14:51:17.009Z</time></trkpt><trkpt lat="41.9453819" lon="12.6647768"><ele>63.0</ele><time>2026-05-02T14:51:18.005Z</time></trkpt><trkpt lat="41.945317" lon="12.6644582"><ele>64.0</ele><time>2026-05-02T14:51:18.998Z</time></trkpt><trkpt lat="41.9452537" lon="12.6641702"><ele>64.33333333333333</ele><time>2026-05-02T14:51:20.005Z</time></trkpt><trkpt lat="41.9451863" lon="12.6638986"><ele>64.66666666666667</ele><time>2026-05-02T14:51:21.005Z</time></trkpt><trkpt lat="41.945107" lon="12.6636375"><ele>65.0</ele><time>2026-05-02T14:51:22.003Z</time></trkpt><trkpt lat="41.9450137" lon="12.6634001"><ele>65.0</ele><time>2026-05-02T14:51:23.008Z</time></trkpt><trkpt lat="41.9449106" lon="12.6631071"><ele>65.0</ele><time>2026-05-02T14:51:24.008Z</time></trkpt><trkpt lat="41.9447888" lon="12.662823"><ele>65.66666666666667</ele><time>2026-05-02T14:51:25.004Z</time></trkpt><trkpt lat="41.9446663" lon="12.6625942"><ele>66.33333333333333</ele><time>2026-05-02T14:51:26.007Z</time></trkpt><trkpt lat="41.9445447" lon="12.6623754"><ele>67.0</ele><time>2026-05-02T14:51:27.011Z</time></trkpt><trkpt lat="41.9444312" lon="12.6621714"><ele>67.33333333333333</ele><time>2026-05-02T14:51:28.002Z</time></trkpt><trkpt lat="41.9443438" lon="12.6619406"><ele>67.66666666666667</ele><time>2026-05-02T14:51:29.005Z</time></trkpt><trkpt lat="41.9442443" lon="12.6616746"><ele>68.0</ele><time>2026-05-02T14:51:29.997Z</time></trkpt><trkpt lat="41.944154" lon="12.6614392"><ele>68.0</ele><time>2026-05-02T14:51:30.997Z</time></trkpt><trkpt lat="41.9440776" lon="12.6612051"><ele>68.0</ele><time>2026-05-02T14:51:31.998Z</time></trkpt><trkpt lat="41.9439987" lon="12.6609612"><ele>68.0</ele><time>2026-05-02T14:51:33.002Z</time></trkpt><trkpt lat="41.9439071" lon="12.6607389"><ele>68.0</ele><time>2026-05-02T14:51:34.003Z</time></trkpt><trkpt lat="41.9438248" lon="12.6605337"><ele>68.0</ele><time>2026-05-02T14:51:35.008Z</time></trkpt><trkpt lat="41.943743" lon="12.660324"><ele>68.0</ele><time>2026-05-02T14:51:36.003Z</time></trkpt><trkpt lat="41.9436757" lon="12.6601498"><ele>68.0</ele><time>2026-05-02T14:51:37.003Z</time></trkpt><trkpt lat="41.9436183" lon="12.6599748"><ele>68.0</ele><time>2026-05-02T14:51:38.007Z</time></trkpt><trkpt lat="41.9435596" lon="12.6598063"><ele>68.0</ele><time>2026-05-02T14:51:39.006Z</time></trkpt><trkpt lat="41.9435186" lon="12.6596442"><ele>68.0</ele><time>2026-05-02T14:51:40.008Z</time></trkpt><trkpt lat="41.9434818" lon="12.6594898"><ele>67.5</ele><time>2026-05-02T14:51:41.011Z</time></trkpt><trkpt lat="41.9434502" lon="12.6593325"><ele>67.0</ele><time>2026-05-02T14:51:42.006Z</time></trkpt><trkpt lat="41.9434185" lon="12.6591464"><ele>66.5</ele><time>2026-05-02T14:51:43.008Z</time></trkpt><trkpt lat="41.9433639" lon="12.6589497"><ele>66.0</ele><time>2026-05-02T14:51:44.005Z</time></trkpt><trkpt lat="41.9433167" lon="12.6587651"><ele>64.0</ele><time>2026-05-02T14:51:45.006Z</time></trkpt><trkpt lat="41.9432768" lon="12.6586086"><ele>62.0</ele><time>2026-05-02T14:51:46.004Z</time></trkpt><trkpt lat="41.9432251" lon="12.6584279"><ele>60.0</ele><time>2026-05-02T14:51:47.013Z</time></trkpt><trkpt lat="41.9431684" lon="12.6582665"><ele>58.0</ele><time>2026-05-02T14:51:48.011Z</time></trkpt><trkpt lat="41.9431247" lon="12.6580946"><ele>58.0</ele><time>2026-05-02T14:51:49.004Z</time></trkpt><trkpt lat="41.9430606" lon="12.6579347"><ele>58.0</ele><time>2026-05-02T14:51:50.007Z</time></trkpt><trkpt lat="41.9430026" lon="12.6577962"><ele>58.0</ele><time>2026-05-02T14:51:51.007Z</time></trkpt><trkpt lat="41.9429529" lon="12.657648"><ele>58.0</ele><time>2026-05-02T14:51:52.004Z</time></trkpt><trkpt lat="41.9429171" lon="12.6575102"><ele>58.0</ele><time>2026-05-02T14:51:53.001Z</time></trkpt><trkpt lat="41.9428715" lon="12.6573644"><ele>58.0</ele><time>2026-05-02T14:51:53.999Z</time></trkpt><trkpt lat="41.9428337" lon="12.6572102"><ele>58.0</ele><time>2026-05-02T14:51:54.999Z</time></trkpt><trkpt lat="41.9427974" lon="12.657067"><ele>58.0</ele><time>2026-05-02T14:51:55.996Z</time></trkpt><trkpt lat="41.9427599" lon="12.6569365"><ele>58.4</ele><time>2026-05-02T14:51:56.999Z</time></trkpt><trkpt lat="41.9427251" lon="12.6568168"><ele>58.8</ele><time>2026-05-02T14:51:58.009Z</time></trkpt><trkpt lat="41.9426982" lon="12.656709"><ele>59.2</ele><time>2026-05-02T14:51:59.002Z</time></trkpt><trkpt lat="41.9426671" lon="12.6565986"><ele>59.6</ele><time>2026-05-02T14:52:00.004Z</time></trkpt><trkpt lat="41.9426211" lon="12.6564846"><ele>60.0</ele><time>2026-05-02T14:52:01.003Z</time></trkpt><trkpt lat="41.9425691" lon="12.6563718"><ele>60.0</ele><time>2026-05-02T14:52:01.996Z</time></trkpt><trkpt lat="41.9425249" lon="12.6562497"><ele>60.0</ele><time>2026-05-02T14:52:02.996Z</time></trkpt><trkpt lat="41.9424965" lon="12.6561207"><ele>60.0</ele><time>2026-05-02T14:52:03.995Z</time></trkpt><trkpt lat="41.9424717" lon="12.655983"><ele>60.0</ele><time>2026-05-02T14:52:04.995Z</time></trkpt><trkpt lat="41.9424526" lon="12.6558508"><ele>60.0</ele><time>2026-05-02T14:52:05.994Z</time></trkpt><trkpt lat="41.9424294" lon="12.6557314"><ele>60.0</ele><time>2026-05-02T14:52:06.991Z</time></trkpt><trkpt lat="41.9423885" lon="12.655625"><ele>60.0</ele><time>2026-05-02T14:52:07.996Z</time></trkpt><trkpt lat="41.9423068" lon="12.6555437"><ele>60.0</ele><time>2026-05-02T14:52:09Z</time></trkpt><trkpt lat="41.9421959" lon="12.6555155"><ele>60.0</ele><time>2026-05-02T14:52:10.006Z</time></trkpt><trkpt lat="41.9420705" lon="12.6555481"><ele>60.0</ele><time>2026-05-02T14:52:11.008Z</time></trkpt><trkpt lat="41.9419495" lon="12.6556208"><ele>60.0</ele><time>2026-05-02T14:52:12Z</time></trkpt><trkpt lat="41.9418429" lon="12.6556876"><ele>60.0</ele><time>2026-05-02T14:52:13.011Z</time></trkpt><trkpt lat="41.9417244" lon="12.6557015"><ele>60.0</ele><time>2026-05-02T14:52:14.007Z</time></trkpt><trkpt lat="41.9415751" lon="12.6556716"><ele>60.0</ele><time>2026-05-02T14:52:14.999Z</time></trkpt><trkpt lat="41.9413646" lon="12.6556063"><ele>58.66666666666667</ele><time>2026-05-02T14:52:16.006Z</time></trkpt><trkpt lat="41.9411582" lon="12.6555802"><ele>57.333333333333336</ele><time>2026-05-02T14:52:17.001Z</time></trkpt><trkpt lat="41.9409593" lon="12.6555379"><ele>56.0</ele><time>2026-05-02T14:52:18.005Z</time></trkpt><trkpt lat="41.9407501" lon="12.6554676"><ele>55.0</ele><time>2026-05-02T14:52:19.002Z</time></trkpt><trkpt lat="41.9405277" lon="12.6554133"><ele>54.0</ele><time>2026-05-02T14:52:19.995Z</time></trkpt><trkpt lat="41.9403153" lon="12.6553595"><ele>53.0</ele><time>2026-05-02T14:52:21.002Z</time></trkpt><trkpt lat="41.9401191" lon="12.655312"><ele>54.0</ele><time>2026-05-02T14:52:22.001Z</time></trkpt><trkpt lat="41.9399369" lon="12.6552657"><ele>55.0</ele><time>2026-05-02T14:52:22.998Z</time></trkpt><trkpt lat="41.9397555" lon="12.6552171"><ele>56.0</ele><time>2026-05-02T14:52:24.006Z</time></trkpt><trkpt lat="41.9395912" lon="12.6551862"><ele>56.0</ele><time>2026-05-02T14:52:24.998Z</time></trkpt><trkpt lat="41.9394126" lon="12.6551432"><ele>56.0</ele><time>2026-05-02T14:52:26.002Z</time></trkpt><trkpt lat="41.9392167" lon="12.6550837"><ele>56.0</ele><time>2026-05-02T14:52:27.002Z</time></trkpt><trkpt lat="41.9390476" lon="12.6550372"><ele>55.333333333333336</ele><time>2026-05-02T14:52:28Z</time></trkpt><trkpt lat="41.938891" lon="12.6550094"><ele>54.66666666666667</ele><time>2026-05-02T14:52:29.005Z</time></trkpt><trkpt lat="41.9387399" lon="12.6549675"><ele>54.0</ele><time>2026-05-02T14:52:29.996Z</time></trkpt><trkpt lat="41.9385999" lon="12.6549283"><ele>54.0</ele><time>2026-05-02T14:52:31.008Z</time></trkpt><trkpt lat="41.9384504" lon="12.6548936"><ele>54.0</ele><time>2026-05-02T14:52:31.994Z</time></trkpt><trkpt lat="41.9382861" lon="12.6548586"><ele>54.0</ele><time>2026-05-02T14:52:32.999Z</time></trkpt><trkpt lat="41.9380811" lon="12.6548054"><ele>53.0</ele><time>2026-05-02T14:52:34.001Z</time></trkpt><trkpt lat="41.937899" lon="12.6547639"><ele>52.0</ele><time>2026-05-02T14:52:34.996Z</time></trkpt><trkpt lat="41.9377289" lon="12.6547277"><ele>51.0</ele><time>2026-05-02T14:52:36.009Z</time></trkpt><trkpt lat="41.9375642" lon="12.6546937"><ele>50.0</ele><time>2026-05-02T14:52:37.002Z</time></trkpt><trkpt lat="41.9373941" lon="12.6546588"><ele>49.0</ele><time>2026-05-02T14:52:38.007Z</time></trkpt><trkpt lat="41.9372187" lon="12.6546216"><ele>48.0</ele><time>2026-05-02T14:52:39.008Z</time></trkpt><trkpt lat="41.9370222" lon="12.654581"><ele>48.0</ele><time>2026-05-02T14:52:40.004Z</time></trkpt><trkpt lat="41.9368091" lon="12.6545337"><ele>48.0</ele><time>2026-05-02T14:52:41.007Z</time></trkpt><trkpt lat="41.9365977" lon="12.6544741"><ele>48.0</ele><time>2026-05-02T14:52:42.001Z</time></trkpt><trkpt lat="41.9363739" lon="12.6544013"><ele>47.333333333333336</ele><time>2026-05-02T14:52:42.996Z</time></trkpt><trkpt lat="41.9361795" lon="12.6543708"><ele>46.66666666666667</ele><time>2026-05-02T14:52:44Z</time></trkpt><trkpt lat="41.9359912" lon="12.6543336"><ele>46.0</ele><time>2026-05-02T14:52:45.004Z</time></trkpt><trkpt lat="41.9357949" lon="12.6543117"><ele>45.66666666666667</ele><time>2026-05-02T14:52:46.004Z</time></trkpt><trkpt lat="41.9355833" lon="12.6543055"><ele>45.333333333333336</ele><time>2026-05-02T14:52:46.998Z</time></trkpt><trkpt lat="41.9353769" lon="12.6543294"><ele>45.0</ele><time>2026-05-02T14:52:48.007Z</time></trkpt><trkpt lat="41.9351921" lon="12.6543298"><ele>45.333333333333336</ele><time>2026-05-02T14:52:49.006Z</time></trkpt><trkpt lat="41.9350002" lon="12.6543417"><ele>45.66666666666667</ele><time>2026-05-02T14:52:49.998Z</time></trkpt><trkpt lat="41.9348091" lon="12.6543339"><ele>46.0</ele><time>2026-05-02T14:52:50.993Z</time></trkpt><trkpt lat="41.9346455" lon="12.6543259"><ele>46.0</ele><time>2026-05-02T14:52:51.995Z</time></trkpt><trkpt lat="41.9345169" lon="12.6543788"><ele>46.0</ele><time>2026-05-02T14:52:52.991Z</time></trkpt><trkpt lat="41.9343974" lon="12.6544634"><ele>46.0</ele><time>2026-05-02T14:52:53.989Z</time></trkpt><trkpt lat="41.9342875" lon="12.6545712"><ele>46.0</ele><time>2026-05-02T14:52:54.992Z</time></trkpt><trkpt lat="41.934191" lon="12.6546862"><ele>46.333333333333336</ele><time>2026-05-02T14:52:55.996Z</time></trkpt><trkpt lat="41.9340643" lon="12.6547711"><ele>46.666666666666664</ele><time>2026-05-02T14:52:56.994Z</time></trkpt><trkpt lat="41.9339012" lon="12.654808"><ele>47.0</ele><time>2026-05-02T14:52:57.989Z</time></trkpt><trkpt lat="41.93374" lon="12.6548049"><ele>47.0</ele><time>2026-05-02T14:52:58.991Z</time></trkpt><trkpt lat="41.9335911" lon="12.6547525"><ele>47.0</ele><time>2026-05-02T14:52:59.994Z</time></trkpt><trkpt lat="41.9334656" lon="12.6547122"><ele>47.0</ele><time>2026-05-02T14:53:00.996Z</time></trkpt><trkpt lat="41.9333263" lon="12.6547175"><ele>47.0</ele><time>2026-05-02T14:53:02Z</time></trkpt><trkpt lat="41.9331614" lon="12.6547941"><ele>47.0</ele><time>2026-05-02T14:53:02.994Z</time></trkpt><trkpt lat="41.9329973" lon="12.6548982"><ele>47.0</ele><time>2026-05-02T14:53:04.004Z</time></trkpt><trkpt lat="41.9328514" lon="12.6550366"><ele>47.0</ele><time>2026-05-02T14:53:05.006Z</time></trkpt><trkpt lat="41.9327353" lon="12.6551952"><ele>48.25</ele><time>2026-05-02T14:53:06.007Z</time></trkpt><trkpt lat="41.9326354" lon="12.6553465"><ele>49.5</ele><time>2026-05-02T14:53:06.988Z</time></trkpt><trkpt lat="41.9325637" lon="12.6554857"><ele>50.75</ele><time>2026-05-02T14:53:07.999Z</time></trkpt><trkpt lat="41.9324799" lon="12.6556356"><ele>52.0</ele><time>2026-05-02T14:53:08.987Z</time></trkpt><trkpt lat="41.9323722" lon="12.6557951"><ele>52.0</ele><time>2026-05-02T14:53:09.993Z</time></trkpt><trkpt lat="41.932177" lon="12.6558639"><ele>52.0</ele><time>2026-05-02T14:53:10.993Z</time></trkpt><trkpt lat="41.931918" lon="12.6558741"><ele>50.0</ele><time>2026-05-02T14:53:11.986Z</time></trkpt><trkpt lat="41.9317044" lon="12.6558295"><ele>48.0</ele><time>2026-05-02T14:53:12.994Z</time></trkpt><trkpt lat="41.9315243" lon="12.6558273"><ele>46.0</ele><time>2026-05-02T14:53:13.992Z</time></trkpt><trkpt lat="41.9313891" lon="12.6558499"><ele>46.0</ele><time>2026-05-02T14:53:14.99Z</time></trkpt><trkpt lat="41.9312707" lon="12.6558962"><ele>46.0</ele><time>2026-05-02T14:53:15.987Z</time></trkpt><trkpt lat="41.9311841" lon="12.6560144"><ele>46.0</ele><time>2026-05-02T14:53:17.004Z</time></trkpt><trkpt lat="41.9311304" lon="12.6561727"><ele>46.0</ele><time>2026-05-02T14:53:18.007Z</time></trkpt><trkpt lat="41.9310945" lon="12.6563345"><ele>46.5</ele><time>2026-05-02T14:53:19.005Z</time></trkpt><trkpt lat="41.931096" lon="12.6565102"><ele>47.0</ele><time>2026-05-02T14:53:20.01Z</time></trkpt><trkpt lat="41.9311393" lon="12.6567188"><ele>47.5</ele><time>2026-05-02T14:53:21.004Z</time></trkpt><trkpt lat="41.931175" lon="12.6569041"><ele>48.0</ele><time>2026-05-02T14:53:22.006Z</time></trkpt><trkpt lat="41.9312082" lon="12.6570841"><ele>48.0</ele><time>2026-05-02T14:53:23.003Z</time></trkpt><trkpt lat="41.9312368" lon="12.6572433"><ele>48.0</ele><time>2026-05-02T14:53:24Z</time></trkpt><trkpt lat="41.9312556" lon="12.6573891"><ele>48.0</ele><time>2026-05-02T14:53:25.003Z</time></trkpt><trkpt lat="41.9312756" lon="12.6575357"><ele>48.0</ele><time>2026-05-02T14:53:26.004Z</time></trkpt><trkpt lat="41.9312957" lon="12.6576859"><ele>48.0</ele><time>2026-05-02T14:53:27.003Z</time></trkpt><trkpt lat="41.9313182" lon="12.6578454"><ele>48.0</ele><time>2026-05-02T14:53:28.009Z</time></trkpt><trkpt lat="41.9313449" lon="12.6580163"><ele>48.0</ele><time>2026-05-02T14:53:29.001Z</time></trkpt><trkpt lat="41.9313874" lon="12.6581908"><ele>48.0</ele><time>2026-05-02T14:53:30Z</time></trkpt><trkpt lat="41.9314647" lon="12.658395"><ele>48.0</ele><time>2026-05-02T14:53:30.998Z</time></trkpt><trkpt lat="41.9315641" lon="12.6585737"><ele>48.0</ele><time>2026-05-02T14:53:31.999Z</time></trkpt><trkpt lat="41.9316473" lon="12.6587448"><ele>48.0</ele><time>2026-05-02T14:53:32.992Z</time></trkpt><trkpt lat="41.9317318" lon="12.6588989"><ele>49.0</ele><time>2026-05-02T14:53:33.995Z</time></trkpt><trkpt lat="41.9318113" lon="12.6590532"><ele>50.0</ele><time>2026-05-02T14:53:35.004Z</time></trkpt><trkpt lat="41.9318685" lon="12.6592241"><ele>51.0</ele><time>2026-05-02T14:53:35.997Z</time></trkpt><trkpt lat="41.9319271" lon="12.6594133"><ele>52.0</ele><time>2026-05-02T14:53:36.998Z</time></trkpt><trkpt lat="41.931959" lon="12.6596065"><ele>52.0</ele><time>2026-05-02T14:53:37.987Z</time></trkpt><trkpt lat="41.9320005" lon="12.6598129"><ele>52.0</ele><time>2026-05-02T14:53:38.994Z</time></trkpt><trkpt lat="41.932027" lon="12.660024"><ele>52.0</ele><time>2026-05-02T14:53:39.992Z</time></trkpt><trkpt lat="41.9320366" lon="12.6602452"><ele>51.666666666666664</ele><time>2026-05-02T14:53:40.998Z</time></trkpt><trkpt lat="41.9320136" lon="12.6604793"><ele>51.33333333333333</ele><time>2026-05-02T14:53:41.989Z</time></trkpt><trkpt lat="41.931986" lon="12.660699"><ele>51.0</ele><time>2026-05-02T14:53:42.998Z</time></trkpt><trkpt lat="41.9319105" lon="12.6609027"><ele>51.0</ele><time>2026-05-02T14:53:44.004Z</time></trkpt><trkpt lat="41.9318671" lon="12.6611093"><ele>51.0</ele><time>2026-05-02T14:53:45.004Z</time></trkpt><trkpt lat="41.9318256" lon="12.6613175"><ele>51.0</ele><time>2026-05-02T14:53:46.014Z</time></trkpt><trkpt lat="41.9317867" lon="12.6615094"><ele>50.66666666666667</ele><time>2026-05-02T14:53:47.007Z</time></trkpt><trkpt lat="41.9317504" lon="12.6616863"><ele>50.333333333333336</ele><time>2026-05-02T14:53:48.006Z</time></trkpt><trkpt lat="41.9317137" lon="12.6618889"><ele>50.0</ele><time>2026-05-02T14:53:49.003Z</time></trkpt><trkpt lat="41.9316713" lon="12.6621017"><ele>48.0</ele><time>2026-05-02T14:53:50.006Z</time></trkpt><trkpt lat="41.9316331" lon="12.6622761"><ele>46.0</ele><time>2026-05-02T14:53:51.007Z</time></trkpt><trkpt lat="41.9315887" lon="12.6624379"><ele>44.0</ele><time>2026-05-02T14:53:52.006Z</time></trkpt><trkpt lat="41.9315338" lon="12.6626119"><ele>42.0</ele><time>2026-05-02T14:53:53.002Z</time></trkpt><trkpt lat="41.9314738" lon="12.6628072"><ele>42.0</ele><time>2026-05-02T14:53:54.006Z</time></trkpt><trkpt lat="41.9314098" lon="12.6630051"><ele>42.0</ele><time>2026-05-02T14:53:55.004Z</time></trkpt><trkpt lat="41.9313308" lon="12.6632138"><ele>42.0</ele><time>2026-05-02T14:53:56.001Z</time></trkpt><trkpt lat="41.9312516" lon="12.6634164"><ele>42.0</ele><time>2026-05-02T14:53:57.004Z</time></trkpt><trkpt lat="41.9311727" lon="12.6635824"><ele>42.0</ele><time>2026-05-02T14:53:58.005Z</time></trkpt><trkpt lat="41.9310934" lon="12.6637359"><ele>42.0</ele><time>2026-05-02T14:53:59.007Z</time></trkpt><trkpt lat="41.9310103" lon="12.6638883"><ele>42.0</ele><time>2026-05-02T14:54:00.002Z</time></trkpt><trkpt lat="41.9309352" lon="12.664063"><ele>39.333333333333336</ele><time>2026-05-02T14:54:01Z</time></trkpt><trkpt lat="41.9308585" lon="12.6642342"><ele>36.66666666666667</ele><time>2026-05-02T14:54:01.995Z</time></trkpt><trkpt lat="41.9307623" lon="12.6643956"><ele>34.0</ele><time>2026-05-02T14:54:03.005Z</time></trkpt><trkpt lat="41.9306624" lon="12.664545"><ele>33.5</ele><time>2026-05-02T14:54:04.004Z</time></trkpt><trkpt lat="41.9305738" lon="12.6646932"><ele>33.0</ele><time>2026-05-02T14:54:05.003Z</time></trkpt><trkpt lat="41.9304941" lon="12.6648447"><ele>32.5</ele><time>2026-05-02T14:54:06.002Z</time></trkpt><trkpt lat="41.930399" lon="12.6650283"><ele>32.0</ele><time>2026-05-02T14:54:06.995Z</time></trkpt><trkpt lat="41.9302979" lon="12.6652008"><ele>32.0</ele><time>2026-05-02T14:54:08.001Z</time></trkpt><trkpt lat="41.9301787" lon="12.6653914"><ele>32.0</ele><time>2026-05-02T14:54:09.008Z</time></trkpt><trkpt lat="41.9300602" lon="12.6655678"><ele>32.0</ele><time>2026-05-02T14:54:10Z</time></trkpt><trkpt lat="41.9299521" lon="12.665724"><ele>31.5</ele><time>2026-05-02T14:54:11.002Z</time></trkpt><trkpt lat="41.9298606" lon="12.6658606"><ele>31.0</ele><time>2026-05-02T14:54:12.003Z</time></trkpt><trkpt lat="41.9297786" lon="12.6659909"><ele>30.5</ele><time>2026-05-02T14:54:13.007Z</time></trkpt><trkpt lat="41.9297001" lon="12.6661097"><ele>30.0</ele><time>2026-05-02T14:54:14.005Z</time></trkpt><trkpt lat="41.9296138" lon="12.6662335"><ele>29.0</ele><time>2026-05-02T14:54:15.004Z</time></trkpt><trkpt lat="41.9295334" lon="12.6663707"><ele>28.0</ele><time>2026-05-02T14:54:16.002Z</time></trkpt><trkpt lat="41.9294402" lon="12.6665553"><ele>27.0</ele><time>2026-05-02T14:54:16.997Z</time></trkpt><trkpt lat="41.9293357" lon="12.6667493"><ele>27.666666666666664</ele><time>2026-05-02T14:54:18.008Z</time></trkpt><trkpt lat="41.9292115" lon="12.6669367"><ele>28.333333333333332</ele><time>2026-05-02T14:54:19.001Z</time></trkpt><trkpt lat="41.929103" lon="12.6671112"><ele>29.0</ele><time>2026-05-02T14:54:19.998Z</time></trkpt><trkpt lat="41.9289929" lon="12.6672768"><ele>29.75</ele><time>2026-05-02T14:54:21.003Z</time></trkpt><trkpt lat="41.9289155" lon="12.6674502"><ele>30.5</ele><time>2026-05-02T14:54:22.001Z</time></trkpt><trkpt lat="41.9288391" lon="12.6676242"><ele>31.25</ele><time>2026-05-02T14:54:22.995Z</time></trkpt><trkpt lat="41.9287555" lon="12.6677672"><ele>32.0</ele><time>2026-05-02T14:54:24.004Z</time></trkpt><trkpt lat="41.9286676" lon="12.667904"><ele>32.5</ele><time>2026-05-02T14:54:25.006Z</time></trkpt><trkpt lat="41.9285652" lon="12.6680204"><ele>33.0</ele><time>2026-05-02T14:54:26.002Z</time></trkpt><trkpt lat="41.9284409" lon="12.6680899"><ele>33.5</ele><time>2026-05-02T14:54:27.003Z</time></trkpt><trkpt lat="41.9283147" lon="12.6681344"><ele>34.0</ele><time>2026-05-02T14:54:27.996Z</time></trkpt><trkpt lat="41.928188" lon="12.6681488"><ele>34.0</ele><time>2026-05-02T14:54:29.004Z</time></trkpt><trkpt lat="41.9280649" lon="12.6681407"><ele>34.0</ele><time>2026-05-02T14:54:30.005Z</time></trkpt><trkpt lat="41.9279404" lon="12.6681294"><ele>34.0</ele><time>2026-05-02T14:54:31.01Z</time></trkpt><trkpt lat="41.9278289" lon="12.6680814"><ele>34.0</ele><time>2026-05-02T14:54:32.002Z</time></trkpt><trkpt lat="41.9277099" lon="12.6680119"><ele>34.0</ele><time>2026-05-02T14:54:33.006Z</time></trkpt><trkpt lat="41.927609" lon="12.6679288"><ele>34.0</ele><time>2026-05-02T14:54:34.011Z</time></trkpt><trkpt lat="41.9275114" lon="12.6678361"><ele>34.0</ele><time>2026-05-02T14:54:35.007Z</time></trkpt><trkpt lat="41.9274148" lon="12.6677262"><ele>34.0</ele><time>2026-05-02T14:54:35.997Z</time></trkpt><trkpt lat="41.9273051" lon="12.6675951"><ele>32.333333333333336</ele><time>2026-05-02T14:54:37.006Z</time></trkpt><trkpt lat="41.9271841" lon="12.6674272"><ele>30.666666666666664</ele><time>2026-05-02T14:54:38.004Z</time></trkpt><trkpt lat="41.9270679" lon="12.6672493"><ele>29.0</ele><time>2026-05-02T14:54:39.008Z</time></trkpt><trkpt lat="41.9269614" lon="12.6671132"><ele>29.0</ele><time>2026-05-02T14:54:39.995Z</time></trkpt><trkpt lat="41.9268668" lon="12.6670002"><ele>29.0</ele><time>2026-05-02T14:54:41.003Z</time></trkpt><trkpt lat="41.9267613" lon="12.6668763"><ele>29.0</ele><time>2026-05-02T14:54:41.999Z</time></trkpt><trkpt lat="41.9266581" lon="12.666761"><ele>29.0</ele><time>2026-05-02T14:54:43.006Z</time></trkpt><trkpt lat="41.9265684" lon="12.6666429"><ele>29.799999999999997</ele><time>2026-05-02T14:54:43.999Z</time></trkpt><trkpt lat="41.9264795" lon="12.666554"><ele>30.599999999999998</ele><time>2026-05-02T14:54:45Z</time></trkpt><trkpt lat="41.9263754" lon="12.6665016"><ele>31.4</ele><time>2026-05-02T14:54:46.017Z</time></trkpt><trkpt lat="41.9262646" lon="12.6664861"><ele>32.199999999999996</ele><time>2026-05-02T14:54:47.007Z</time></trkpt><trkpt lat="41.926153" lon="12.6665026"><ele>33.0</ele><time>2026-05-02T14:54:48.005Z</time></trkpt><trkpt lat="41.9260515" lon="12.6665607"><ele>33.0</ele><time>2026-05-02T14:54:49.008Z</time></trkpt><trkpt lat="41.9259627" lon="12.6666614"><ele>33.0</ele><time>2026-05-02T14:54:50.006Z</time></trkpt><trkpt lat="41.9258876" lon="12.6667773"><ele>33.0</ele><time>2026-05-02T14:54:51.013Z</time></trkpt><trkpt lat="41.9258301" lon="12.6669119"><ele>33.0</ele><time>2026-05-02T14:54:52.003Z</time></trkpt><trkpt lat="41.9257794" lon="12.66705"><ele>34.5</ele><time>2026-05-02T14:54:53.004Z</time></trkpt><trkpt lat="41.9257398" lon="12.6671749"><ele>36.0</ele><time>2026-05-02T14:54:54Z</time></trkpt><trkpt lat="41.9257024" lon="12.6672923"><ele>37.5</ele><time>2026-05-02T14:54:55.005Z</time></trkpt><trkpt lat="41.9256596" lon="12.6673884"><ele>39.0</ele><time>2026-05-02T14:54:55.996Z</time></trkpt><trkpt lat="41.9256096" lon="12.6674573"><ele>40.5</ele><time>2026-05-02T14:54:56.991Z</time></trkpt><trkpt lat="41.925547" lon="12.6674987"><ele>42.0</ele><time>2026-05-02T14:54:57.992Z</time></trkpt><trkpt lat="41.9254755" lon="12.6674994"><ele>42.0</ele><time>2026-05-02T14:54:58.987Z</time></trkpt><trkpt lat="41.9253913" lon="12.6674609"><ele>42.0</ele><time>2026-05-02T14:54:59.99Z</time></trkpt><trkpt lat="41.9253164" lon="12.6674127"><ele>42.0</ele><time>2026-05-02T14:55:00.988Z</time></trkpt><trkpt lat="41.9252405" lon="12.6673684"><ele>42.0</ele><time>2026-05-02T14:55:01.984Z</time></trkpt><trkpt lat="41.9251639" lon="12.6673278"><ele>42.0</ele><time>2026-05-02T14:55:02.993Z</time></trkpt><trkpt lat="41.9250871" lon="12.667317"><ele>42.0</ele><time>2026-05-02T14:55:03.988Z</time></trkpt><trkpt lat="41.9250059" lon="12.667334"><ele>42.5</ele><time>2026-05-02T14:55:04.989Z</time></trkpt><trkpt lat="41.9249325" lon="12.6673806"><ele>43.0</ele><time>2026-05-02T14:55:05.998Z</time></trkpt><trkpt lat="41.9248655" lon="12.6674396"><ele>43.5</ele><time>2026-05-02T14:55:06.997Z</time></trkpt><trkpt lat="41.9248026" lon="12.6675192"><ele>44.0</ele><time>2026-05-02T14:55:07.996Z</time></trkpt><trkpt lat="41.9247378" lon="12.6675955"><ele>44.5</ele><time>2026-05-02T14:55:08.994Z</time></trkpt><trkpt lat="41.9246791" lon="12.6676655"><ele>45.0</ele><time>2026-05-02T14:55:09.993Z</time></trkpt><trkpt lat="41.9246323" lon="12.6677298"><ele>45.0</ele><time>2026-05-02T14:55:10.99Z</time></trkpt><trkpt lat="41.9246102" lon="12.6678118"><ele>45.0</ele><time>2026-05-02T14:55:11.994Z</time></trkpt><trkpt lat="41.9245935" lon="12.6679204"><ele>45.0</ele><time>2026-05-02T14:55:13.997Z</time></trkpt><trkpt lat="41.9245833" lon="12.6680526"><ele>45.0</ele><time>2026-05-02T14:55:17Z</time></trkpt><trkpt lat="41.9245414" lon="12.6681578"><ele>45.0</ele><time>2026-05-02T14:55:20.999Z</time></trkpt><trkpt lat="41.9244735" lon="12.6683219"><ele>45.0</ele><time>2026-05-02T14:55:23.003Z</time></trkpt><trkpt lat="41.9244148" lon="12.668442"><ele>45.0</ele><time>2026-05-02T14:55:23.997Z</time></trkpt><trkpt lat="41.9243539" lon="12.6685707"><ele>45.0</ele><time>2026-05-02T14:55:24.986Z</time></trkpt><trkpt lat="41.924299" lon="12.6686764"><ele>45.0</ele><time>2026-05-02T14:55:25.994Z</time></trkpt><trkpt lat="41.9242473" lon="12.6687629"><ele>45.0</ele><time>2026-05-02T14:55:26.987Z</time></trkpt><trkpt lat="41.924202" lon="12.6688382"><ele>45.166666666666664</ele><time>2026-05-02T14:55:27.988Z</time></trkpt><trkpt lat="41.9241322" lon="12.6689339"><ele>45.333333333333336</ele><time>2026-05-02T14:55:29.991Z</time></trkpt><trkpt lat="41.9240667" lon="12.6689993"><ele>45.5</ele><time>2026-05-02T14:55:32.995Z</time></trkpt><trkpt lat="41.9239676" lon="12.6690108"><ele>45.66666666666667</ele><time>2026-05-02T14:55:36Z</time></trkpt><trkpt lat="41.9238959" lon="12.6689607"><ele>45.833333333333336</ele><time>2026-05-02T14:55:38.996Z</time></trkpt><trkpt lat="41.9238345" lon="12.6689107"><ele>46.0</ele><time>2026-05-02T14:55:41.009Z</time></trkpt><trkpt lat="41.9237956" lon="12.6688244"><ele>46.0</ele><time>2026-05-02T14:55:44.006Z</time></trkpt><trkpt lat="41.9238173" lon="12.6687027"><ele>46.0</ele><time>2026-05-02T14:55:47.001Z</time></trkpt><trkpt lat="41.9238857" lon="12.6685973"><ele>46.0</ele><time>2026-05-02T14:55:49.005Z</time></trkpt><trkpt lat="41.9239195" lon="12.6685185"><ele>46.0</ele><time>2026-05-02T14:55:49.994Z</time></trkpt><trkpt lat="41.9239308" lon="12.6684286"><ele>46.0</ele><time>2026-05-02T14:55:51.003Z</time></trkpt><trkpt lat="41.9239221" lon="12.6683155"><ele>46.0</ele><time>2026-05-02T14:55:52Z</time></trkpt><trkpt lat="41.9238926" lon="12.6682027"><ele>44.75</ele><time>2026-05-02T14:55:52.991Z</time></trkpt><trkpt lat="41.9238208" lon="12.6681048"><ele>43.5</ele><time>2026-05-02T14:55:53.993Z</time></trkpt><trkpt lat="41.9237265" lon="12.6680251"><ele>42.25</ele><time>2026-05-02T14:55:55.001Z</time></trkpt><trkpt lat="41.9236082" lon="12.6679718"><ele>41.0</ele><time>2026-05-02T14:55:56.005Z</time></trkpt><trkpt lat="41.9234949" lon="12.6679297"><ele>39.25</ele><time>2026-05-02T14:55:57.005Z</time></trkpt><trkpt lat="41.9233765" lon="12.6678783"><ele>37.5</ele><time>2026-05-02T14:55:58.005Z</time></trkpt><trkpt lat="41.9232487" lon="12.6678128"><ele>35.75</ele><time>2026-05-02T14:55:59.007Z</time></trkpt><trkpt lat="41.9231083" lon="12.6677469"><ele>34.0</ele><time>2026-05-02T14:56:00.007Z</time></trkpt><trkpt lat="41.922963" lon="12.6676718"><ele>34.0</ele><time>2026-05-02T14:56:01.002Z</time></trkpt><trkpt lat="41.9228545" lon="12.6676095"><ele>34.0</ele><time>2026-05-02T14:56:02.004Z</time></trkpt><trkpt lat="41.9227554" lon="12.667568"><ele>34.0</ele><time>2026-05-02T14:56:03.008Z</time></trkpt><trkpt lat="41.9226625" lon="12.6675167"><ele>34.0</ele><time>2026-05-02T14:56:04.015Z</time></trkpt><trkpt lat="41.9225755" lon="12.6674713"><ele>34.0</ele><time>2026-05-02T14:56:05.012Z</time></trkpt><trkpt lat="41.922506" lon="12.6674269"><ele>34.2</ele><time>2026-05-02T14:56:06.01Z</time></trkpt><trkpt lat="41.9224358" lon="12.6673484"><ele>34.4</ele><time>2026-05-02T14:56:07.007Z</time></trkpt><trkpt lat="41.9223719" lon="12.6672484"><ele>34.6</ele><time>2026-05-02T14:56:08.007Z</time></trkpt><trkpt lat="41.9223188" lon="12.6671263"><ele>34.8</ele><time>2026-05-02T14:56:08.998Z</time></trkpt><trkpt lat="41.9222828" lon="12.6669912"><ele>35.0</ele><time>2026-05-02T14:56:10.011Z</time></trkpt><trkpt lat="41.9222673" lon="12.666839"><ele>35.0</ele><time>2026-05-02T14:56:10.993Z</time></trkpt><trkpt lat="41.9222701" lon="12.6666755"><ele>35.0</ele><time>2026-05-02T14:56:12.002Z</time></trkpt><trkpt lat="41.9222857" lon="12.6665159"><ele>35.0</ele><time>2026-05-02T14:56:13Z</time></trkpt><trkpt lat="41.9223106" lon="12.6663724"><ele>35.0</ele><time>2026-05-02T14:56:14.006Z</time></trkpt><trkpt lat="41.9223351" lon="12.6662462"><ele>35.0</ele><time>2026-05-02T14:56:15.014Z</time></trkpt><trkpt lat="41.9223578" lon="12.6661101"><ele>35.0</ele><time>2026-05-02T14:56:16.013Z</time></trkpt><trkpt lat="41.9223617" lon="12.6659693"><ele>35.0</ele><time>2026-05-02T14:56:17.01Z</time></trkpt><trkpt lat="41.9223379" lon="12.6658465"><ele>35.0</ele><time>2026-05-02T14:56:18.011Z</time></trkpt><trkpt lat="41.9222906" lon="12.6657203"><ele>35.0</ele><time>2026-05-02T14:56:19.01Z</time></trkpt><trkpt lat="41.9222233" lon="12.6656014"><ele>35.0</ele><time>2026-05-02T14:56:20.014Z</time></trkpt><trkpt lat="41.9221424" lon="12.6654836"><ele>35.0</ele><time>2026-05-02T14:56:21.013Z</time></trkpt><trkpt lat="41.9220513" lon="12.6653536"><ele>35.0</ele><time>2026-05-02T14:56:22.011Z</time></trkpt><trkpt lat="41.9219719" lon="12.6652151"><ele>35.0</ele><time>2026-05-02T14:56:23.007Z</time></trkpt><trkpt lat="41.9219047" lon="12.6650792"><ele>35.0</ele><time>2026-05-02T14:56:24.015Z</time></trkpt><trkpt lat="41.9218536" lon="12.6649322"><ele>34.0</ele><time>2026-05-02T14:56:25.009Z</time></trkpt><trkpt lat="41.9218194" lon="12.664767"><ele>33.0</ele><time>2026-05-02T14:56:26.002Z</time></trkpt><trkpt lat="41.9218051" lon="12.6645936"><ele>32.0</ele><time>2026-05-02T14:56:27.007Z</time></trkpt><trkpt lat="41.9218011" lon="12.664418"><ele>31.0</ele><time>2026-05-02T14:56:28.003Z</time></trkpt><trkpt lat="41.9218055" lon="12.6642508"><ele>30.0</ele><time>2026-05-02T14:56:29Z</time></trkpt><trkpt lat="41.9218032" lon="12.6640857"><ele>29.0</ele><time>2026-05-02T14:56:30.012Z</time></trkpt><trkpt lat="41.9217949" lon="12.6639323"><ele>28.0</ele><time>2026-05-02T14:56:31.014Z</time></trkpt><trkpt lat="41.9217738" lon="12.663769"><ele>27.0</ele><time>2026-05-02T14:56:32.007Z</time></trkpt><trkpt lat="41.9217409" lon="12.6636148"><ele>28.200000000000003</ele><time>2026-05-02T14:56:33.006Z</time></trkpt><trkpt lat="41.921705" lon="12.6634689"><ele>29.400000000000002</ele><time>2026-05-02T14:56:34Z</time></trkpt><trkpt lat="41.921666" lon="12.6633302"><ele>30.599999999999998</ele><time>2026-05-02T14:56:35.012Z</time></trkpt><trkpt lat="41.921627" lon="12.6631969"><ele>31.799999999999997</ele><time>2026-05-02T14:56:36.009Z</time></trkpt><trkpt lat="41.9215966" lon="12.6630849"><ele>33.0</ele><time>2026-05-02T14:56:37.005Z</time></trkpt><trkpt lat="41.9215664" lon="12.6629888"><ele>33.0</ele><time>2026-05-02T14:56:38.012Z</time></trkpt><trkpt lat="41.9215368" lon="12.6629022"><ele>33.0</ele><time>2026-05-02T14:56:39.002Z</time></trkpt><trkpt lat="41.9214797" lon="12.6627641"><ele>33.0</ele><time>2026-05-02T14:56:40.995Z</time></trkpt><trkpt lat="41.9214169" lon="12.6626082"><ele>33.0</ele><time>2026-05-02T14:56:43.003Z</time></trkpt><trkpt lat="41.9213814" lon="12.6625246"><ele>33.0</ele><time>2026-05-02T14:56:44.004Z</time></trkpt><trkpt lat="41.9213077" lon="12.6623928"><ele>32.333333333333336</ele><time>2026-05-02T14:56:46.007Z</time></trkpt><trkpt lat="41.9212562" lon="12.6623055"><ele>31.666666666666664</ele><time>2026-05-02T14:56:48.016Z</time></trkpt><trkpt lat="41.9212157" lon="12.6622376"><ele>31.0</ele><time>2026-05-02T14:56:50.008Z</time></trkpt><trkpt lat="41.9211742" lon="12.6621373"><ele>30.333333333333332</ele><time>2026-05-02T14:56:52.013Z</time></trkpt><trkpt lat="41.921136" lon="12.6620353"><ele>29.666666666666664</ele><time>2026-05-02T14:56:52.999Z</time></trkpt><trkpt lat="41.9210984" lon="12.6619108"><ele>29.0</ele><time>2026-05-02T14:56:54.007Z</time></trkpt><trkpt lat="41.9210863" lon="12.6618231"><ele>28.799999999999997</ele><time>2026-05-02T14:56:54.998Z</time></trkpt><trkpt lat="41.9210488" lon="12.6616627"><ele>28.599999999999998</ele><time>2026-05-02T14:56:57.013Z</time></trkpt><trkpt lat="41.921005" lon="12.6615243"><ele>28.4</ele><time>2026-05-02T14:56:59.021Z</time></trkpt><trkpt lat="41.9209818" lon="12.6614399"><ele>28.2</ele><time>2026-05-02T14:57:00.011Z</time></trkpt><trkpt lat="41.9209533" lon="12.6613422"><ele>28.0</ele><time>2026-05-02T14:57:01.01Z</time></trkpt><trkpt lat="41.920918" lon="12.6612253"><ele>28.666666666666668</ele><time>2026-05-02T14:57:02.013Z</time></trkpt><trkpt lat="41.9208637" lon="12.6610633"><ele>29.333333333333336</ele><time>2026-05-02T14:57:03.001Z</time></trkpt><trkpt lat="41.9208001" lon="12.6608711"><ele>30.0</ele><time>2026-05-02T14:57:04.015Z</time></trkpt><trkpt lat="41.9207258" lon="12.6606446"><ele>30.0</ele><time>2026-05-02T14:57:05.014Z</time></trkpt><trkpt lat="41.9206614" lon="12.6603907"><ele>30.0</ele><time>2026-05-02T14:57:06.005Z</time></trkpt><trkpt lat="41.9205724" lon="12.6601342"><ele>30.0</ele><time>2026-05-02T14:57:07.002Z</time></trkpt><trkpt lat="41.920497" lon="12.6598972"><ele>29.333333333333336</ele><time>2026-05-02T14:57:08.004Z</time></trkpt><trkpt lat="41.9204306" lon="12.6596562"><ele>28.666666666666668</ele><time>2026-05-02T14:57:09.014Z</time></trkpt><trkpt lat="41.9203518" lon="12.6594002"><ele>28.0</ele><time>2026-05-02T14:57:10.004Z</time></trkpt><trkpt lat="41.920266" lon="12.6591293"><ele>27.666666666666668</ele><time>2026-05-02T14:57:11.013Z</time></trkpt><trkpt lat="41.9201912" lon="12.6588978"><ele>27.333333333333336</ele><time>2026-05-02T14:57:12.009Z</time></trkpt><trkpt lat="41.9201167" lon="12.6586779"><ele>27.0</ele><time>2026-05-02T14:57:13.014Z</time></trkpt><trkpt lat="41.920044" lon="12.6584241"><ele>27.666666666666664</ele><time>2026-05-02T14:57:14.014Z</time></trkpt><trkpt lat="41.9199689" lon="12.6581691"><ele>28.333333333333332</ele><time>2026-05-02T14:57:15.017Z</time></trkpt><trkpt lat="41.9198994" lon="12.6579201"><ele>29.0</ele><time>2026-05-02T14:57:16.017Z</time></trkpt><trkpt lat="41.9198359" lon="12.6576778"><ele>29.0</ele><time>2026-05-02T14:57:17.006Z</time></trkpt><trkpt lat="41.9197897" lon="12.6574443"><ele>29.0</ele><time>2026-05-02T14:57:18.013Z</time></trkpt><trkpt lat="41.9197415" lon="12.6571978"><ele>29.0</ele><time>2026-05-02T14:57:19.01Z</time></trkpt><trkpt lat="41.919703" lon="12.6569514"><ele>28.666666666666664</ele><time>2026-05-02T14:57:20.004Z</time></trkpt><trkpt lat="41.9196785" lon="12.6567122"><ele>28.333333333333336</ele><time>2026-05-02T14:57:21.004Z</time></trkpt><trkpt lat="41.9196508" lon="12.6564756"><ele>28.0</ele><time>2026-05-02T14:57:22.012Z</time></trkpt><trkpt lat="41.9196217" lon="12.6562255"><ele>28.666666666666668</ele><time>2026-05-02T14:57:23.001Z</time></trkpt><trkpt lat="41.9196098" lon="12.6559875"><ele>29.333333333333336</ele><time>2026-05-02T14:57:23.993Z</time></trkpt><trkpt lat="41.9195925" lon="12.6557114"><ele>30.0</ele><time>2026-05-02T14:57:25Z</time></trkpt><trkpt lat="41.9195333" lon="12.6554169"><ele>33.5</ele><time>2026-05-02T14:57:25.995Z</time></trkpt><trkpt lat="41.919447" lon="12.6550538"><ele>37.0</ele><time>2026-05-02T14:57:26.987Z</time></trkpt><trkpt lat="41.9193707" lon="12.6548235"><ele>37.0</ele><time>2026-05-02T14:57:28.004Z</time></trkpt><trkpt lat="41.9193224" lon="12.6544745"><ele>37.0</ele><time>2026-05-02T14:57:28.996Z</time></trkpt><trkpt lat="41.9193078" lon="12.654254"><ele>37.0</ele><time>2026-05-02T14:57:30.002Z</time></trkpt><trkpt lat="41.9192681" lon="12.6540344"><ele>37.66666666666667</ele><time>2026-05-02T14:57:31.005Z</time></trkpt><trkpt lat="41.9192125" lon="12.6538098"><ele>38.333333333333336</ele><time>2026-05-02T14:57:32.003Z</time></trkpt><trkpt lat="41.9191341" lon="12.6535793"><ele>39.0</ele><time>2026-05-02T14:57:33.006Z</time></trkpt><trkpt lat="41.9190454" lon="12.6533738"><ele>39.0</ele><time>2026-05-02T14:57:34.006Z</time></trkpt><trkpt lat="41.9189461" lon="12.6532053"><ele>39.0</ele><time>2026-05-02T14:57:35.01Z</time></trkpt><trkpt lat="41.9188404" lon="12.6530443"><ele>39.0</ele><time>2026-05-02T14:57:36.006Z</time></trkpt><trkpt lat="41.918745" lon="12.6529018"><ele>39.0</ele><time>2026-05-02T14:57:37Z</time></trkpt><trkpt lat="41.9186119" lon="12.6528126"><ele>39.0</ele><time>2026-05-02T14:57:37.992Z</time></trkpt><trkpt lat="41.9184736" lon="12.6527007"><ele>39.0</ele><time>2026-05-02T14:57:38.977Z</time></trkpt><trkpt lat="41.9183093" lon="12.6525828"><ele>39.333333333333336</ele><time>2026-05-02T14:57:39.977Z</time></trkpt><trkpt lat="41.9180857" lon="12.652517"><ele>39.66666666666667</ele><time>2026-05-02T14:57:40.984Z</time></trkpt><trkpt lat="41.9178975" lon="12.6524284"><ele>40.0</ele><time>2026-05-02T14:57:42.001Z</time></trkpt><trkpt lat="41.9176984" lon="12.65239"><ele>41.0</ele><time>2026-05-02T14:57:43.009Z</time></trkpt><trkpt lat="41.9175111" lon="12.6523371"><ele>42.0</ele><time>2026-05-02T14:57:44.013Z</time></trkpt><trkpt lat="41.917367" lon="12.652284"><ele>43.0</ele><time>2026-05-02T14:57:45.012Z</time></trkpt><trkpt lat="41.9172197" lon="12.6522432"><ele>43.0</ele><time>2026-05-02T14:57:46.018Z</time></trkpt><trkpt lat="41.9170523" lon="12.6521886"><ele>43.0</ele><time>2026-05-02T14:57:47.02Z</time></trkpt><trkpt lat="41.9168623" lon="12.652138"><ele>43.0</ele><time>2026-05-02T14:57:48.022Z</time></trkpt><trkpt lat="41.9166669" lon="12.6520666"><ele>43.0</ele><time>2026-05-02T14:57:49.014Z</time></trkpt><trkpt lat="41.9164831" lon="12.6519703"><ele>43.0</ele><time>2026-05-02T14:57:50.016Z</time></trkpt><trkpt lat="41.916298" lon="12.6518631"><ele>43.0</ele><time>2026-05-02T14:57:51.016Z</time></trkpt><trkpt lat="41.9160936" lon="12.6517233"><ele>46.333333333333336</ele><time>2026-05-02T14:57:52.017Z</time></trkpt><trkpt lat="41.9159017" lon="12.6515629"><ele>49.66666666666667</ele><time>2026-05-02T14:57:53.021Z</time></trkpt><trkpt lat="41.9157375" lon="12.6514277"><ele>53.0</ele><time>2026-05-02T14:57:54.017Z</time></trkpt><trkpt lat="41.9155811" lon="12.6512894"><ele>53.0</ele><time>2026-05-02T14:57:55.028Z</time></trkpt><trkpt lat="41.9154461" lon="12.6511303"><ele>53.0</ele><time>2026-05-02T14:57:56.01Z</time></trkpt><trkpt lat="41.9153235" lon="12.6509813"><ele>53.0</ele><time>2026-05-02T14:57:57.008Z</time></trkpt><trkpt lat="41.9152249" lon="12.6508626"><ele>53.599999999999994</ele><time>2026-05-02T14:57:58.019Z</time></trkpt><trkpt lat="41.9151349" lon="12.6507585"><ele>54.199999999999996</ele><time>2026-05-02T14:57:59.008Z</time></trkpt><trkpt lat="41.9150541" lon="12.6506875"><ele>54.8</ele><time>2026-05-02T14:58:00.008Z</time></trkpt><trkpt lat="41.9149862" lon="12.6506385"><ele>55.4</ele><time>2026-05-02T14:58:01.014Z</time></trkpt><trkpt lat="41.9149232" lon="12.6506147"><ele>56.0</ele><time>2026-05-02T14:58:02.014Z</time></trkpt><trkpt lat="41.914804" lon="12.6504893"><ele>56.0</ele><time>2026-05-02T14:58:04.02Z</time></trkpt><trkpt lat="41.9147288" lon="12.6504133"><ele>55.99999999999999</ele><time>2026-05-02T14:58:05.018Z</time></trkpt><trkpt lat="41.9146408" lon="12.650391"><ele>55.99999999999999</ele><time>2026-05-02T14:58:06.003Z</time></trkpt><trkpt lat="41.91455" lon="12.6503854"><ele>56.0</ele><time>2026-05-02T14:58:07.013Z</time></trkpt><trkpt lat="41.9144688" lon="12.650356"><ele>56.0</ele><time>2026-05-02T14:58:08.016Z</time></trkpt><trkpt lat="41.9143872" lon="12.6502825"><ele>54.4</ele><time>2026-05-02T14:58:09.018Z</time></trkpt><trkpt lat="41.9142961" lon="12.650211"><ele>52.8</ele><time>2026-05-02T14:58:10.011Z</time></trkpt><trkpt lat="41.914199" lon="12.6501617"><ele>51.199999999999996</ele><time>2026-05-02T14:58:11.012Z</time></trkpt><trkpt lat="41.9140904" lon="12.6501232"><ele>49.599999999999994</ele><time>2026-05-02T14:58:12.016Z</time></trkpt><trkpt lat="41.91397" lon="12.6500777"><ele>48.0</ele><time>2026-05-02T14:58:13.009Z</time></trkpt><trkpt lat="41.913846" lon="12.6500245"><ele>48.0</ele><time>2026-05-02T14:58:14.01Z</time></trkpt><trkpt lat="41.9137356" lon="12.649977"><ele>48.0</ele><time>2026-05-02T14:58:15.021Z</time></trkpt><trkpt lat="41.9136307" lon="12.6499313"><ele>48.0</ele><time>2026-05-02T14:58:16.017Z</time></trkpt><trkpt lat="41.9135326" lon="12.6498812"><ele>48.0</ele><time>2026-05-02T14:58:17.018Z</time></trkpt><trkpt lat="41.9134446" lon="12.6498295"><ele>48.0</ele><time>2026-05-02T14:58:18.012Z</time></trkpt><trkpt lat="41.9133578" lon="12.6497721"><ele>48.5</ele><time>2026-05-02T14:58:19.013Z</time></trkpt><trkpt lat="41.9132737" lon="12.6497117"><ele>49.0</ele><time>2026-05-02T14:58:20.012Z</time></trkpt><trkpt lat="41.9131914" lon="12.6496609"><ele>49.5</ele><time>2026-05-02T14:58:21.007Z</time></trkpt><trkpt lat="41.9131148" lon="12.6496191"><ele>50.0</ele><time>2026-05-02T14:58:22.01Z</time></trkpt><trkpt lat="41.9130504" lon="12.64958"><ele>50.5</ele><time>2026-05-02T14:58:23.012Z</time></trkpt><trkpt lat="41.9129799" lon="12.6495445"><ele>51.0</ele><time>2026-05-02T14:58:24.013Z</time></trkpt><trkpt lat="41.9128896" lon="12.6495"><ele>50.333333333333336</ele><time>2026-05-02T14:58:25.007Z</time></trkpt><trkpt lat="41.9128089" lon="12.6494486"><ele>49.666666666666664</ele><time>2026-05-02T14:58:26.011Z</time></trkpt><trkpt lat="41.9127444" lon="12.6494035"><ele>49.0</ele><time>2026-05-02T14:58:27.018Z</time></trkpt><trkpt lat="41.9126527" lon="12.6493609"><ele>48.33333333333333</ele><time>2026-05-02T14:58:29.021Z</time></trkpt><trkpt lat="41.912588" lon="12.6493181"><ele>47.666666666666664</ele><time>2026-05-02T14:58:32.015Z</time></trkpt><trkpt lat="41.9125355" lon="12.6492112"><ele>47.0</ele><time>2026-05-02T14:58:34.023Z</time></trkpt><trkpt lat="41.9124546" lon="12.6490645"><ele>47.0</ele><time>2026-05-02T14:58:36.016Z</time></trkpt><trkpt lat="41.9123941" lon="12.6489481"><ele>47.0</ele><time>2026-05-02T14:58:37.015Z</time></trkpt><trkpt lat="41.9123543" lon="12.6488062"><ele>47.0</ele><time>2026-05-02T14:58:38.007Z</time></trkpt><trkpt lat="41.9123164" lon="12.6486797"><ele>47.0</ele><time>2026-05-02T14:58:39.016Z</time></trkpt><trkpt lat="41.9122564" lon="12.648576"><ele>47.0</ele><time>2026-05-02T14:58:40.01Z</time></trkpt><trkpt lat="41.912182" lon="12.6484671"><ele>46.0</ele><time>2026-05-02T14:58:41.019Z</time></trkpt><trkpt lat="41.9121022" lon="12.6483413"><ele>45.0</ele><time>2026-05-02T14:58:42.02Z</time></trkpt><trkpt lat="41.9120215" lon="12.6482"><ele>44.0</ele><time>2026-05-02T14:58:43.019Z</time></trkpt><trkpt lat="41.9119485" lon="12.6480632"><ele>43.0</ele><time>2026-05-02T14:58:44.007Z</time></trkpt><trkpt lat="41.9118695" lon="12.647907"><ele>41.75</ele><time>2026-05-02T14:58:45.021Z</time></trkpt><trkpt lat="41.911776" lon="12.6477514"><ele>40.5</ele><time>2026-05-02T14:58:46.021Z</time></trkpt><trkpt lat="41.9117099" lon="12.64761"><ele>39.25</ele><time>2026-05-02T14:58:47.01Z</time></trkpt><trkpt lat="41.9116805" lon="12.647496"><ele>38.0</ele><time>2026-05-02T14:58:48.017Z</time></trkpt><trkpt lat="41.9116551" lon="12.6473688"><ele>41.75</ele><time>2026-05-02T14:58:49.014Z</time></trkpt><trkpt lat="41.9116294" lon="12.6472456"><ele>45.5</ele><time>2026-05-02T14:58:50.012Z</time></trkpt><trkpt lat="41.911597" lon="12.6471017"><ele>49.25</ele><time>2026-05-02T14:58:51.012Z</time></trkpt><trkpt lat="41.9115632" lon="12.6469303"><ele>53.0</ele><time>2026-05-02T14:58:52.013Z</time></trkpt><trkpt lat="41.9115344" lon="12.6467544"><ele>53.5</ele><time>2026-05-02T14:58:53.006Z</time></trkpt><trkpt lat="41.9115093" lon="12.6465636"><ele>54.0</ele><time>2026-05-02T14:58:54.009Z</time></trkpt><trkpt lat="41.9114967" lon="12.646383"><ele>54.5</ele><time>2026-05-02T14:58:55.018Z</time></trkpt><trkpt lat="41.9114911" lon="12.6462359"><ele>55.0</ele><time>2026-05-02T14:58:56.018Z</time></trkpt><trkpt lat="41.9115007" lon="12.6460981"><ele>55.0</ele><time>2026-05-02T14:58:57.022Z</time></trkpt><trkpt lat="41.9114875" lon="12.6459774"><ele>55.0</ele><time>2026-05-02T14:58:58.023Z</time></trkpt><trkpt lat="41.9114818" lon="12.6458546"><ele>55.0</ele><time>2026-05-02T14:58:59.019Z</time></trkpt><trkpt lat="41.9114744" lon="12.645696"><ele>55.0</ele><time>2026-05-02T14:59:00.02Z</time></trkpt><trkpt lat="41.9114714" lon="12.6455403"><ele>55.0</ele><time>2026-05-02T14:59:01.015Z</time></trkpt><trkpt lat="41.9114706" lon="12.6453778"><ele>54.25</ele><time>2026-05-02T14:59:02.018Z</time></trkpt><trkpt lat="41.9114703" lon="12.6451963"><ele>53.5</ele><time>2026-05-02T14:59:03.026Z</time></trkpt><trkpt lat="41.911472" lon="12.6450269"><ele>52.75</ele><time>2026-05-02T14:59:04.013Z</time></trkpt><trkpt lat="41.9114691" lon="12.6448525"><ele>52.0</ele><time>2026-05-02T14:59:05.014Z</time></trkpt><trkpt lat="41.9114704" lon="12.644661"><ele>50.666666666666664</ele><time>2026-05-02T14:59:06.017Z</time></trkpt><trkpt lat="41.9115076" lon="12.64443"><ele>49.33333333333333</ele><time>2026-05-02T14:59:07.009Z</time></trkpt><trkpt lat="41.9115178" lon="12.6442279"><ele>48.0</ele><time>2026-05-02T14:59:08.014Z</time></trkpt><trkpt lat="41.9115269" lon="12.6440315"><ele>48.0</ele><time>2026-05-02T14:59:09.02Z</time></trkpt><trkpt lat="41.9115268" lon="12.6438482"><ele>48.0</ele><time>2026-05-02T14:59:10.012Z</time></trkpt><trkpt lat="41.9115357" lon="12.6437"><ele>48.0</ele><time>2026-05-02T14:59:11.016Z</time></trkpt><trkpt lat="41.9115378" lon="12.6435303"><ele>48.0</ele><time>2026-05-02T14:59:12.01Z</time></trkpt><trkpt lat="41.9115414" lon="12.6433563"><ele>47.5</ele><time>2026-05-02T14:59:13.015Z</time></trkpt><trkpt lat="41.9115588" lon="12.6431656"><ele>47.0</ele><time>2026-05-02T14:59:14.019Z</time></trkpt><trkpt lat="41.9115757" lon="12.6429988"><ele>46.5</ele><time>2026-05-02T14:59:15.017Z</time></trkpt><trkpt lat="41.91158" lon="12.6428621"><ele>46.0</ele><time>2026-05-02T14:59:16.02Z</time></trkpt><trkpt lat="41.9115856" lon="12.6427246"><ele>45.199999999999996</ele><time>2026-05-02T14:59:17.024Z</time></trkpt><trkpt lat="41.9116008" lon="12.6425955"><ele>44.4</ele><time>2026-05-02T14:59:18.023Z</time></trkpt><trkpt lat="41.9116208" lon="12.6424771"><ele>43.6</ele><time>2026-05-02T14:59:19.021Z</time></trkpt><trkpt lat="41.9116429" lon="12.6423498"><ele>42.8</ele><time>2026-05-02T14:59:20.013Z</time></trkpt><trkpt lat="41.9116564" lon="12.642232"><ele>42.0</ele><time>2026-05-02T14:59:21.029Z</time></trkpt><trkpt lat="41.9116726" lon="12.6420956"><ele>40.75</ele><time>2026-05-02T14:59:22.019Z</time></trkpt><trkpt lat="41.911683" lon="12.6419356"><ele>39.5</ele><time>2026-05-02T14:59:23.022Z</time></trkpt><trkpt lat="41.9116929" lon="12.6417765"><ele>38.25</ele><time>2026-05-02T14:59:24.022Z</time></trkpt><trkpt lat="41.9116991" lon="12.6416231"><ele>37.0</ele><time>2026-05-02T14:59:25.014Z</time></trkpt><trkpt lat="41.9116954" lon="12.6414674"><ele>37.0</ele><time>2026-05-02T14:59:26.012Z</time></trkpt><trkpt lat="41.9116906" lon="12.6413084"><ele>37.0</ele><time>2026-05-02T14:59:27.014Z</time></trkpt><trkpt lat="41.9116795" lon="12.641146"><ele>37.0</ele><time>2026-05-02T14:59:28.017Z</time></trkpt><trkpt lat="41.911666" lon="12.6409886"><ele>37.0</ele><time>2026-05-02T14:59:29.011Z</time></trkpt><trkpt lat="41.9116399" lon="12.6408292"><ele>37.0</ele><time>2026-05-02T14:59:30.011Z</time></trkpt><trkpt lat="41.9116036" lon="12.6406788"><ele>37.0</ele><time>2026-05-02T14:59:31.018Z</time></trkpt><trkpt lat="41.9115502" lon="12.6405264"><ele>37.0</ele><time>2026-05-02T14:59:32.014Z</time></trkpt><trkpt lat="41.9114936" lon="12.6403755"><ele>37.0</ele><time>2026-05-02T14:59:33.009Z</time></trkpt><trkpt lat="41.9114346" lon="12.6402392"><ele>36.2</ele><time>2026-05-02T14:59:34.011Z</time></trkpt><trkpt lat="41.9113813" lon="12.6401409"><ele>35.400000000000006</ele><time>2026-05-02T14:59:35.014Z</time></trkpt><trkpt lat="41.9113429" lon="12.6400582"><ele>34.599999999999994</ele><time>2026-05-02T14:59:36.01Z</time></trkpt><trkpt lat="41.9113249" lon="12.6399742"><ele>33.8</ele><time>2026-05-02T14:59:37Z</time></trkpt><trkpt lat="41.9113298" lon="12.6398719"><ele>33.0</ele><time>2026-05-02T14:59:38.013Z</time></trkpt><trkpt lat="41.9113202" lon="12.6396733"><ele>33.0</ele><time>2026-05-02T14:59:40.013Z</time></trkpt><trkpt lat="41.911262" lon="12.6396046"><ele>33.0</ele><time>2026-05-02T14:59:41.014Z</time></trkpt><trkpt lat="41.9111785" lon="12.6395483"><ele>33.0</ele><time>2026-05-02T14:59:42.017Z</time></trkpt><trkpt lat="41.9110934" lon="12.6395015"><ele>33.0</ele><time>2026-05-02T14:59:43.015Z</time></trkpt><trkpt lat="41.9110252" lon="12.6394361"><ele>33.0</ele><time>2026-05-02T14:59:44.015Z</time></trkpt><trkpt lat="41.9109675" lon="12.6393202"><ele>32.75</ele><time>2026-05-02T14:59:45.008Z</time></trkpt><trkpt lat="41.910921" lon="12.6391617"><ele>32.5</ele><time>2026-05-02T14:59:46.016Z</time></trkpt><trkpt lat="41.910895" lon="12.639007"><ele>32.25</ele><time>2026-05-02T14:59:47.017Z</time></trkpt><trkpt lat="41.910875" lon="12.6388566"><ele>32.0</ele><time>2026-05-02T14:59:48.009Z</time></trkpt><trkpt lat="41.9108679" lon="12.6387145"><ele>32.25</ele><time>2026-05-02T14:59:49.006Z</time></trkpt><trkpt lat="41.9108621" lon="12.6385591"><ele>32.5</ele><time>2026-05-02T14:59:50.01Z</time></trkpt><trkpt lat="41.91086" lon="12.6383849"><ele>32.75</ele><time>2026-05-02T14:59:51.006Z</time></trkpt><trkpt lat="41.9108653" lon="12.638206"><ele>33.0</ele><time>2026-05-02T14:59:52.008Z</time></trkpt><trkpt lat="41.9108807" lon="12.6380248"><ele>32.75</ele><time>2026-05-02T14:59:53.017Z</time></trkpt><trkpt lat="41.9109084" lon="12.6378438"><ele>32.5</ele><time>2026-05-02T14:59:54.009Z</time></trkpt><trkpt lat="41.9109282" lon="12.6376605"><ele>32.25</ele><time>2026-05-02T14:59:55Z</time></trkpt><trkpt lat="41.9109551" lon="12.6374913"><ele>32.0</ele><time>2026-05-02T14:59:56.003Z</time></trkpt><trkpt lat="41.9109372" lon="12.6373342"><ele>32.25</ele><time>2026-05-02T14:59:57.008Z</time></trkpt><trkpt lat="41.9109069" lon="12.637177"><ele>32.5</ele><time>2026-05-02T14:59:58.012Z</time></trkpt><trkpt lat="41.9108582" lon="12.6370092"><ele>32.75</ele><time>2026-05-02T14:59:59.023Z</time></trkpt><trkpt lat="41.9107972" lon="12.6368081"><ele>33.0</ele><time>2026-05-02T15:00:00.01Z</time></trkpt><trkpt lat="41.9107508" lon="12.636614"><ele>33.0</ele><time>2026-05-02T15:00:01.006Z</time></trkpt><trkpt lat="41.9106969" lon="12.636436"><ele>33.0</ele><time>2026-05-02T15:00:02.01Z</time></trkpt><trkpt lat="41.9106502" lon="12.6362538"><ele>33.0</ele><time>2026-05-02T15:00:03.011Z</time></trkpt><trkpt lat="41.9106112" lon="12.6360412"><ele>33.0</ele><time>2026-05-02T15:00:04.01Z</time></trkpt><trkpt lat="41.9105925" lon="12.6358184"><ele>33.333333333333336</ele><time>2026-05-02T15:00:05.009Z</time></trkpt><trkpt lat="41.9105632" lon="12.6356025"><ele>33.66666666666667</ele><time>2026-05-02T15:00:06.015Z</time></trkpt><trkpt lat="41.910537" lon="12.6354187"><ele>34.0</ele><time>2026-05-02T15:00:07.016Z</time></trkpt><trkpt lat="41.9105243" lon="12.6352167"><ele>34.333333333333336</ele><time>2026-05-02T15:00:08.012Z</time></trkpt><trkpt lat="41.9105031" lon="12.6349901"><ele>34.666666666666664</ele><time>2026-05-02T15:00:09.003Z</time></trkpt><trkpt lat="41.9104774" lon="12.6347474"><ele>35.0</ele><time>2026-05-02T15:00:10.007Z</time></trkpt><trkpt lat="41.910471" lon="12.6345293"><ele>34.0</ele><time>2026-05-02T15:00:10.988Z</time></trkpt><trkpt lat="41.9105236" lon="12.6343276"><ele>33.0</ele><time>2026-05-02T15:00:12.016Z</time></trkpt><trkpt lat="41.9105554" lon="12.6341024"><ele>32.0</ele><time>2026-05-02T15:00:13.002Z</time></trkpt><trkpt lat="41.9105522" lon="12.6339297"><ele>32.0</ele><time>2026-05-02T15:00:14.016Z</time></trkpt><trkpt lat="41.9105384" lon="12.6337445"><ele>32.0</ele><time>2026-05-02T15:00:15.019Z</time></trkpt><trkpt lat="41.9105063" lon="12.6335808"><ele>32.0</ele><time>2026-05-02T15:00:16.017Z</time></trkpt><trkpt lat="41.9104479" lon="12.633397"><ele>32.0</ele><time>2026-05-02T15:00:17.008Z</time></trkpt><trkpt lat="41.9103715" lon="12.6332067"><ele>33.0</ele><time>2026-05-02T15:00:18.012Z</time></trkpt><trkpt lat="41.9102932" lon="12.6330152"><ele>34.0</ele><time>2026-05-02T15:00:19.037Z</time></trkpt><trkpt lat="41.9102358" lon="12.6328378"><ele>35.0</ele><time>2026-05-02T15:00:20.013Z</time></trkpt><trkpt lat="41.9101625" lon="12.6326637"><ele>35.0</ele><time>2026-05-02T15:00:21.021Z</time></trkpt><trkpt lat="41.9100948" lon="12.6324954"><ele>35.0</ele><time>2026-05-02T15:00:22.022Z</time></trkpt><trkpt lat="41.9100185" lon="12.6323264"><ele>35.0</ele><time>2026-05-02T15:00:23.02Z</time></trkpt><trkpt lat="41.9099346" lon="12.632158"><ele>35.0</ele><time>2026-05-02T15:00:24.017Z</time></trkpt><trkpt lat="41.9098553" lon="12.6319558"><ele>34.33333333333333</ele><time>2026-05-02T15:00:25.011Z</time></trkpt><trkpt lat="41.9097853" lon="12.6317357"><ele>33.666666666666664</ele><time>2026-05-02T15:00:26.009Z</time></trkpt><trkpt lat="41.9097059" lon="12.6314783"><ele>33.0</ele><time>2026-05-02T15:00:27.01Z</time></trkpt><trkpt lat="41.9096382" lon="12.6312106"><ele>33.333333333333336</ele><time>2026-05-02T15:00:28.012Z</time></trkpt><trkpt lat="41.9095617" lon="12.6309482"><ele>33.66666666666667</ele><time>2026-05-02T15:00:29.008Z</time></trkpt><trkpt lat="41.9094861" lon="12.6306451"><ele>34.0</ele><time>2026-05-02T15:00:30.014Z</time></trkpt><trkpt lat="41.9094016" lon="12.6303157"><ele>34.0</ele><time>2026-05-02T15:00:31.015Z</time></trkpt><trkpt lat="41.9093261" lon="12.6299677"><ele>34.0</ele><time>2026-05-02T15:00:32.016Z</time></trkpt><trkpt lat="41.9092514" lon="12.6296361"><ele>35.66666666666667</ele><time>2026-05-02T15:00:33.004Z</time></trkpt><trkpt lat="41.9091809" lon="12.6293558"><ele>37.333333333333336</ele><time>2026-05-02T15:00:34.016Z</time></trkpt><trkpt lat="41.9091183" lon="12.629088"><ele>39.0</ele><time>2026-05-02T15:00:35.014Z</time></trkpt><trkpt lat="41.9090674" lon="12.6288319"><ele>40.0</ele><time>2026-05-02T15:00:36.015Z</time></trkpt><trkpt lat="41.9090068" lon="12.6285921"><ele>41.0</ele><time>2026-05-02T15:00:37.013Z</time></trkpt><trkpt lat="41.9089269" lon="12.6283739"><ele>42.0</ele><time>2026-05-02T15:00:38.01Z</time></trkpt><trkpt lat="41.9088263" lon="12.6281593"><ele>42.0</ele><time>2026-05-02T15:00:39.015Z</time></trkpt><trkpt lat="41.9086903" lon="12.6279595"><ele>42.0</ele><time>2026-05-02T15:00:40.01Z</time></trkpt><trkpt lat="41.9085043" lon="12.6278041"><ele>42.0</ele><time>2026-05-02T15:00:41.014Z</time></trkpt><trkpt lat="41.9083444" lon="12.6276907"><ele>42.0</ele><time>2026-05-02T15:00:42.01Z</time></trkpt><trkpt lat="41.908225" lon="12.6275647"><ele>42.0</ele><time>2026-05-02T15:00:43.013Z</time></trkpt><trkpt lat="41.9081236" lon="12.6274149"><ele>42.0</ele><time>2026-05-02T15:00:44.007Z</time></trkpt><trkpt lat="41.9080519" lon="12.6272629"><ele>42.0</ele><time>2026-05-02T15:00:45.013Z</time></trkpt><trkpt lat="41.9079831" lon="12.627079"><ele>43.0</ele><time>2026-05-02T15:00:46.009Z</time></trkpt><trkpt lat="41.9079157" lon="12.6268923"><ele>44.0</ele><time>2026-05-02T15:00:47.014Z</time></trkpt><trkpt lat="41.9078465" lon="12.6267294"><ele>45.0</ele><time>2026-05-02T15:00:48.015Z</time></trkpt><trkpt lat="41.9077908" lon="12.6265769"><ele>46.0</ele><time>2026-05-02T15:00:49.006Z</time></trkpt><trkpt lat="41.9077157" lon="12.6264152"><ele>46.0</ele><time>2026-05-02T15:00:50.006Z</time></trkpt><trkpt lat="41.9076451" lon="12.6262486"><ele>46.0</ele><time>2026-05-02T15:00:51.02Z</time></trkpt><trkpt lat="41.9075774" lon="12.6260828"><ele>46.0</ele><time>2026-05-02T15:00:52.017Z</time></trkpt><trkpt lat="41.9075232" lon="12.6259223"><ele>46.0</ele><time>2026-05-02T15:00:53.005Z</time></trkpt><trkpt lat="41.9074651" lon="12.6257595"><ele>46.75</ele><time>2026-05-02T15:00:54.015Z</time></trkpt><trkpt lat="41.9074159" lon="12.6256097"><ele>47.5</ele><time>2026-05-02T15:00:55.017Z</time></trkpt><trkpt lat="41.9073589" lon="12.6254241"><ele>48.25</ele><time>2026-05-02T15:00:56.009Z</time></trkpt><trkpt lat="41.9073123" lon="12.6252153"><ele>49.0</ele><time>2026-05-02T15:00:57.01Z</time></trkpt><trkpt lat="41.9072834" lon="12.62501"><ele>49.0</ele><time>2026-05-02T15:00:58.011Z</time></trkpt><trkpt lat="41.9072623" lon="12.624831"><ele>49.0</ele><time>2026-05-02T15:00:59.017Z</time></trkpt><trkpt lat="41.9072439" lon="12.624673"><ele>49.0</ele><time>2026-05-02T15:01:00.015Z</time></trkpt><trkpt lat="41.907227" lon="12.6245139"><ele>49.0</ele><time>2026-05-02T15:01:01.019Z</time></trkpt><trkpt lat="41.9072128" lon="12.6243583"><ele>49.5</ele><time>2026-05-02T15:01:02.019Z</time></trkpt><trkpt lat="41.9072013" lon="12.6241877"><ele>50.0</ele><time>2026-05-02T15:01:03.018Z</time></trkpt><trkpt lat="41.9071793" lon="12.6239956"><ele>50.5</ele><time>2026-05-02T15:01:04.014Z</time></trkpt><trkpt lat="41.9071472" lon="12.6238145"><ele>51.0</ele><time>2026-05-02T15:01:05.02Z</time></trkpt><trkpt lat="41.9071268" lon="12.623587"><ele>51.33333333333333</ele><time>2026-05-02T15:01:06.003Z</time></trkpt><trkpt lat="41.9070892" lon="12.6233228"><ele>51.666666666666664</ele><time>2026-05-02T15:01:07.016Z</time></trkpt><trkpt lat="41.9070615" lon="12.6230658"><ele>52.0</ele><time>2026-05-02T15:01:08.003Z</time></trkpt><trkpt lat="41.907042" lon="12.6228649"><ele>52.0</ele><time>2026-05-02T15:01:09.006Z</time></trkpt><trkpt lat="41.9070176" lon="12.6226869"><ele>52.0</ele><time>2026-05-02T15:01:10.01Z</time></trkpt><trkpt lat="41.9069888" lon="12.6225433"><ele>52.0</ele><time>2026-05-02T15:01:11.014Z</time></trkpt><trkpt lat="41.9069612" lon="12.622391"><ele>52.0</ele><time>2026-05-02T15:01:12.014Z</time></trkpt><trkpt lat="41.9069295" lon="12.6222258"><ele>52.0</ele><time>2026-05-02T15:01:13.022Z</time></trkpt><trkpt lat="41.906889" lon="12.6220473"><ele>52.0</ele><time>2026-05-02T15:01:14.002Z</time></trkpt><trkpt lat="41.9068731" lon="12.6218213"><ele>52.0</ele><time>2026-05-02T15:01:15.005Z</time></trkpt><trkpt lat="41.9068689" lon="12.6215604"><ele>52.666666666666664</ele><time>2026-05-02T15:01:16.018Z</time></trkpt><trkpt lat="41.9068448" lon="12.621247"><ele>53.33333333333333</ele><time>2026-05-02T15:01:17.012Z</time></trkpt><trkpt lat="41.9068235" lon="12.6209643"><ele>54.0</ele><time>2026-05-02T15:01:18.004Z</time></trkpt><trkpt lat="41.9067776" lon="12.6207185"><ele>54.0</ele><time>2026-05-02T15:01:19.009Z</time></trkpt><trkpt lat="41.906715" lon="12.6204898"><ele>54.0</ele><time>2026-05-02T15:01:20.009Z</time></trkpt><trkpt lat="41.9066427" lon="12.6202807"><ele>54.0</ele><time>2026-05-02T15:01:21.02Z</time></trkpt><trkpt lat="41.9065259" lon="12.6200905"><ele>52.33333333333333</ele><time>2026-05-02T15:01:22.011Z</time></trkpt><trkpt lat="41.9064017" lon="12.6198935"><ele>50.666666666666664</ele><time>2026-05-02T15:01:23.013Z</time></trkpt><trkpt lat="41.9062599" lon="12.6196894"><ele>49.0</ele><time>2026-05-02T15:01:24.014Z</time></trkpt><trkpt lat="41.9061129" lon="12.6194643"><ele>49.0</ele><time>2026-05-02T15:01:25.008Z</time></trkpt><trkpt lat="41.9059688" lon="12.6192059"><ele>49.0</ele><time>2026-05-02T15:01:26.006Z</time></trkpt><trkpt lat="41.9058439" lon="12.6189883"><ele>49.0</ele><time>2026-05-02T15:01:27.007Z</time></trkpt><trkpt lat="41.9057336" lon="12.6187731"><ele>49.33333333333333</ele><time>2026-05-02T15:01:28.005Z</time></trkpt><trkpt lat="41.9056077" lon="12.6185991"><ele>49.66666666666667</ele><time>2026-05-02T15:01:29.018Z</time></trkpt><trkpt lat="41.9054756" lon="12.6184342"><ele>50.0</ele><time>2026-05-02T15:01:30.029Z</time></trkpt><trkpt lat="41.9053451" lon="12.6182799"><ele>50.0</ele><time>2026-05-02T15:01:31.033Z</time></trkpt><trkpt lat="41.905223" lon="12.6181345"><ele>50.0</ele><time>2026-05-02T15:01:32.009Z</time></trkpt><trkpt lat="41.905099" lon="12.6179767"><ele>50.0</ele><time>2026-05-02T15:01:33.009Z</time></trkpt><trkpt lat="41.9049594" lon="12.617801"><ele>48.333333333333336</ele><time>2026-05-02T15:01:34.01Z</time></trkpt><trkpt lat="41.9048475" lon="12.6176002"><ele>46.66666666666667</ele><time>2026-05-02T15:01:35.001Z</time></trkpt><trkpt lat="41.9047236" lon="12.6173713"><ele>45.0</ele><time>2026-05-02T15:01:35.998Z</time></trkpt><trkpt lat="41.9046081" lon="12.6171134"><ele>43.333333333333336</ele><time>2026-05-02T15:01:37.005Z</time></trkpt><trkpt lat="41.9045061" lon="12.6168935"><ele>41.66666666666667</ele><time>2026-05-02T15:01:38.003Z</time></trkpt><trkpt lat="41.9044148" lon="12.6166792"><ele>40.0</ele><time>2026-05-02T15:01:39.004Z</time></trkpt><trkpt lat="41.9043303" lon="12.6164631"><ele>40.0</ele><time>2026-05-02T15:01:40Z</time></trkpt><trkpt lat="41.9042746" lon="12.616283"><ele>40.0</ele><time>2026-05-02T15:01:40.995Z</time></trkpt><trkpt lat="41.9042176" lon="12.6161191"><ele>40.0</ele><time>2026-05-02T15:01:42.012Z</time></trkpt><trkpt lat="41.904191" lon="12.6159031"><ele>40.0</ele><time>2026-05-02T15:01:43.001Z</time></trkpt><trkpt lat="41.9041664" lon="12.6157018"><ele>39.333333333333336</ele><time>2026-05-02T15:01:44.004Z</time></trkpt><trkpt lat="41.9041631" lon="12.6154914"><ele>38.666666666666664</ele><time>2026-05-02T15:01:44.998Z</time></trkpt><trkpt lat="41.9041536" lon="12.6152393"><ele>38.0</ele><time>2026-05-02T15:01:45.99Z</time></trkpt><trkpt lat="41.9041596" lon="12.6149786"><ele>38.33333333333333</ele><time>2026-05-02T15:01:47Z</time></trkpt><trkpt lat="41.9042218" lon="12.6147259"><ele>38.666666666666664</ele><time>2026-05-02T15:01:47.997Z</time></trkpt><trkpt lat="41.9042682" lon="12.6144882"><ele>39.0</ele><time>2026-05-02T15:01:49.019Z</time></trkpt><trkpt lat="41.9042869" lon="12.6142604"><ele>39.0</ele><time>2026-05-02T15:01:50.002Z</time></trkpt><trkpt lat="41.9043092" lon="12.6140525"><ele>39.0</ele><time>2026-05-02T15:01:51.004Z</time></trkpt><trkpt lat="41.9043057" lon="12.6138763"><ele>39.0</ele><time>2026-05-02T15:01:52.028Z</time></trkpt><trkpt lat="41.904291" lon="12.6137605"><ele>39.0</ele><time>2026-05-02T15:01:53.027Z</time></trkpt><trkpt lat="41.9042415" lon="12.6135958"><ele>37.666666666666664</ele><time>2026-05-02T15:01:54.015Z</time></trkpt><trkpt lat="41.9041866" lon="12.6133861"><ele>36.33333333333333</ele><time>2026-05-02T15:01:55.003Z</time></trkpt><trkpt lat="41.9041435" lon="12.6131753"><ele>35.0</ele><time>2026-05-02T15:01:55.998Z</time></trkpt><trkpt lat="41.9041186" lon="12.6129888"><ele>35.0</ele><time>2026-05-02T15:01:56.996Z</time></trkpt><trkpt lat="41.9041259" lon="12.6128038"><ele>35.0</ele><time>2026-05-02T15:01:58.004Z</time></trkpt><trkpt lat="41.9041427" lon="12.6126221"><ele>35.0</ele><time>2026-05-02T15:01:59.007Z</time></trkpt><trkpt lat="41.9041882" lon="12.6124361"><ele>35.0</ele><time>2026-05-02T15:01:59.999Z</time></trkpt><trkpt lat="41.9042779" lon="12.6122297"><ele>35.33333333333333</ele><time>2026-05-02T15:02:01.002Z</time></trkpt><trkpt lat="41.9043839" lon="12.6119919"><ele>35.666666666666664</ele><time>2026-05-02T15:02:02.008Z</time></trkpt><trkpt lat="41.9044621" lon="12.6117549"><ele>36.0</ele><time>2026-05-02T15:02:03.006Z</time></trkpt><trkpt lat="41.9045495" lon="12.6115493"><ele>35.5</ele><time>2026-05-02T15:02:04.021Z</time></trkpt><trkpt lat="41.9045986" lon="12.6113539"><ele>35.0</ele><time>2026-05-02T15:02:05.014Z</time></trkpt><trkpt lat="41.9046711" lon="12.6112149"><ele>34.5</ele><time>2026-05-02T15:02:06.008Z</time></trkpt><trkpt lat="41.9047058" lon="12.6110622"><ele>34.0</ele><time>2026-05-02T15:02:07.012Z</time></trkpt><trkpt lat="41.9047284" lon="12.6109227"><ele>33.8</ele><time>2026-05-02T15:02:08.018Z</time></trkpt><trkpt lat="41.9047325" lon="12.6107603"><ele>33.599999999999994</ele><time>2026-05-02T15:02:09.013Z</time></trkpt><trkpt lat="41.9047636" lon="12.6106336"><ele>33.4</ele><time>2026-05-02T15:02:10.011Z</time></trkpt><trkpt lat="41.904801" lon="12.6105035"><ele>33.199999999999996</ele><time>2026-05-02T15:02:11.012Z</time></trkpt><trkpt lat="41.9048306" lon="12.6104055"><ele>33.0</ele><time>2026-05-02T15:02:12.004Z</time></trkpt><trkpt lat="41.9048554" lon="12.6102684"><ele>33.0</ele><time>2026-05-02T15:02:13.005Z</time></trkpt><trkpt lat="41.9048935" lon="12.6101265"><ele>33.0</ele><time>2026-05-02T15:02:14.009Z</time></trkpt><trkpt lat="41.9049429" lon="12.6099684"><ele>33.0</ele><time>2026-05-02T15:02:15.001Z</time></trkpt><trkpt lat="41.9050086" lon="12.6098091"><ele>33.0</ele><time>2026-05-02T15:02:16.013Z</time></trkpt><trkpt lat="41.9050823" lon="12.6096493"><ele>33.0</ele><time>2026-05-02T15:02:17.004Z</time></trkpt><trkpt lat="41.9050853" lon="12.6094647"><ele>33.0</ele><time>2026-05-02T15:02:18.009Z</time></trkpt><trkpt lat="41.9050818" lon="12.6092237"><ele>33.0</ele><time>2026-05-02T15:02:19.002Z</time></trkpt><trkpt lat="41.9050571" lon="12.6089664"><ele>33.0</ele><time>2026-05-02T15:02:20.002Z</time></trkpt><trkpt lat="41.9050554" lon="12.6087398"><ele>33.0</ele><time>2026-05-02T15:02:20.999Z</time></trkpt><trkpt lat="41.9050352" lon="12.6085245"><ele>33.0</ele><time>2026-05-02T15:02:22.008Z</time></trkpt><trkpt lat="41.9050168" lon="12.6083298"><ele>32.333333333333336</ele><time>2026-05-02T15:02:23.01Z</time></trkpt><trkpt lat="41.9050003" lon="12.6081283"><ele>31.666666666666668</ele><time>2026-05-02T15:02:24.002Z</time></trkpt><trkpt lat="41.9049764" lon="12.6079158"><ele>31.0</ele><time>2026-05-02T15:02:25.009Z</time></trkpt><trkpt lat="41.9049601" lon="12.6076961"><ele>31.0</ele><time>2026-05-02T15:02:26.012Z</time></trkpt><trkpt lat="41.9049466" lon="12.607494"><ele>31.0</ele><time>2026-05-02T15:02:27.005Z</time></trkpt><trkpt lat="41.904938" lon="12.6073066"><ele>31.0</ele><time>2026-05-02T15:02:28.014Z</time></trkpt><trkpt lat="41.9049226" lon="12.6071392"><ele>31.0</ele><time>2026-05-02T15:02:29.008Z</time></trkpt><trkpt lat="41.9049224" lon="12.6069911"><ele>30.6</ele><time>2026-05-02T15:02:30Z</time></trkpt><trkpt lat="41.9049203" lon="12.6068587"><ele>30.200000000000003</ele><time>2026-05-02T15:02:31.015Z</time></trkpt><trkpt lat="41.9049107" lon="12.6067432"><ele>29.799999999999997</ele><time>2026-05-02T15:02:32.011Z</time></trkpt><trkpt lat="41.9048916" lon="12.606618"><ele>29.4</ele><time>2026-05-02T15:02:33.018Z</time></trkpt><trkpt lat="41.9049014" lon="12.6064719"><ele>29.0</ele><time>2026-05-02T15:02:34.016Z</time></trkpt><trkpt lat="41.9048823" lon="12.6063196"><ele>29.0</ele><time>2026-05-02T15:02:35.018Z</time></trkpt><trkpt lat="41.9048737" lon="12.6061718"><ele>29.0</ele><time>2026-05-02T15:02:36.019Z</time></trkpt><trkpt lat="41.9048722" lon="12.606006"><ele>29.0</ele><time>2026-05-02T15:02:37.007Z</time></trkpt><trkpt lat="41.9048671" lon="12.6058261"><ele>29.0</ele><time>2026-05-02T15:02:38.003Z</time></trkpt><trkpt lat="41.9048696" lon="12.6056474"><ele>30.666666666666664</ele><time>2026-05-02T15:02:39.009Z</time></trkpt><trkpt lat="41.9048843" lon="12.6054736"><ele>32.333333333333336</ele><time>2026-05-02T15:02:40.159Z</time></trkpt><trkpt lat="41.9049" lon="12.6050707"><ele>34.0</ele><time>2026-05-02T15:02:42.011Z</time></trkpt><trkpt lat="41.9049019" lon="12.6048861"><ele>34.0</ele><time>2026-05-02T15:02:43.011Z</time></trkpt><trkpt lat="41.9049017" lon="12.6047338"><ele>34.0</ele><time>2026-05-02T15:02:44.007Z</time></trkpt><trkpt lat="41.9049021" lon="12.6046181"><ele>34.0</ele><time>2026-05-02T15:02:45.008Z</time></trkpt><trkpt lat="41.9049079" lon="12.6045212"><ele>34.0</ele><time>2026-05-02T15:02:46.009Z</time></trkpt><trkpt lat="41.9049423" lon="12.6043242"><ele>34.0</ele><time>2026-05-02T15:02:48.016Z</time></trkpt><trkpt lat="41.9049397" lon="12.6042018"><ele>33.5</ele><time>2026-05-02T15:02:49.013Z</time></trkpt><trkpt lat="41.9049344" lon="12.604077"><ele>33.0</ele><time>2026-05-02T15:02:50.019Z</time></trkpt><trkpt lat="41.904926" lon="12.6039598"><ele>32.5</ele><time>2026-05-02T15:02:51.018Z</time></trkpt><trkpt lat="41.9049252" lon="12.6038381"><ele>32.0</ele><time>2026-05-02T15:02:52.011Z</time></trkpt><trkpt lat="41.9049243" lon="12.6037236"><ele>31.500000000000004</ele><time>2026-05-02T15:02:53.014Z</time></trkpt><trkpt lat="41.9049253" lon="12.6036229"><ele>31.0</ele><time>2026-05-02T15:02:54.018Z</time></trkpt><trkpt lat="41.9049161" lon="12.6035263"><ele>30.833333333333336</ele><time>2026-05-02T15:02:55.021Z</time></trkpt><trkpt lat="41.9049132" lon="12.6034355"><ele>30.666666666666668</ele><time>2026-05-02T15:02:56.019Z</time></trkpt><trkpt lat="41.9049106" lon="12.6033374"><ele>30.5</ele><time>2026-05-02T15:02:57.013Z</time></trkpt><trkpt lat="41.9049134" lon="12.6032249"><ele>30.333333333333336</ele><time>2026-05-02T15:02:58.021Z</time></trkpt><trkpt lat="41.9049158" lon="12.603119"><ele>30.166666666666668</ele><time>2026-05-02T15:02:59.018Z</time></trkpt><trkpt lat="41.9049197" lon="12.6030237"><ele>30.0</ele><time>2026-05-02T15:03:00.015Z</time></trkpt><trkpt lat="41.904923" lon="12.6029127"><ele>30.0</ele><time>2026-05-02T15:03:01.014Z</time></trkpt><trkpt lat="41.9049282" lon="12.6027964"><ele>30.0</ele><time>2026-05-02T15:03:02.019Z</time></trkpt><trkpt lat="41.9049243" lon="12.6026833"><ele>30.0</ele><time>2026-05-02T15:03:03.004Z</time></trkpt><trkpt lat="41.9049283" lon="12.6025713"><ele>30.0</ele><time>2026-05-02T15:03:04.013Z</time></trkpt><trkpt lat="41.9049304" lon="12.6024676"><ele>30.0</ele><time>2026-05-02T15:03:05.011Z</time></trkpt><trkpt lat="41.9049224" lon="12.6022982"><ele>30.0</ele><time>2026-05-02T15:03:07.015Z</time></trkpt><trkpt lat="41.9049174" lon="12.6021917"><ele>30.0</ele><time>2026-05-02T15:03:08.01Z</time></trkpt><trkpt lat="41.904918" lon="12.6020625"><ele>30.0</ele><time>2026-05-02T15:03:09.001Z</time></trkpt><trkpt lat="41.90492" lon="12.6019151"><ele>30.0</ele><time>2026-05-02T15:03:10.011Z</time></trkpt><trkpt lat="41.9049231" lon="12.6017708"><ele>30.0</ele><time>2026-05-02T15:03:11.011Z</time></trkpt><trkpt lat="41.9049253" lon="12.6016271"><ele>30.0</ele><time>2026-05-02T15:03:12.009Z</time></trkpt><trkpt lat="41.9049255" lon="12.6015076"><ele>30.0</ele><time>2026-05-02T15:03:13.013Z</time></trkpt><trkpt lat="41.9049285" lon="12.6014113"><ele>30.0</ele><time>2026-05-02T15:03:14.01Z</time></trkpt><trkpt lat="41.9048544" lon="12.601304"><ele>30.0</ele><time>2026-05-02T15:03:16.007Z</time></trkpt><trkpt lat="41.9047854" lon="12.6013152"><ele>30.0</ele><time>2026-05-02T15:03:17.012Z</time></trkpt><trkpt lat="41.9047159" lon="12.6013753"><ele>30.0</ele><time>2026-05-02T15:03:18.002Z</time></trkpt><trkpt lat="41.9046409" lon="12.6014977"><ele>30.0</ele><time>2026-05-02T15:03:18.992Z</time></trkpt><trkpt lat="41.9045625" lon="12.6016383"><ele>30.0</ele><time>2026-05-02T15:03:20.012Z</time></trkpt><trkpt lat="41.9044705" lon="12.6018006"><ele>30.0</ele><time>2026-05-02T15:03:21.009Z</time></trkpt><trkpt lat="41.9043266" lon="12.6019736"><ele>30.666666666666664</ele><time>2026-05-02T15:03:22.013Z</time></trkpt><trkpt lat="41.9041533" lon="12.6021359"><ele>31.333333333333332</ele><time>2026-05-02T15:03:23.008Z</time></trkpt><trkpt lat="41.9039473" lon="12.6022437"><ele>32.0</ele><time>2026-05-02T15:03:24.007Z</time></trkpt><trkpt lat="41.9037559" lon="12.6023531"><ele>32.0</ele><time>2026-05-02T15:03:25.012Z</time></trkpt><trkpt lat="41.9035631" lon="12.6024362"><ele>32.0</ele><time>2026-05-02T15:03:26.012Z</time></trkpt><trkpt lat="41.9033835" lon="12.6025551"><ele>32.0</ele><time>2026-05-02T15:03:27.017Z</time></trkpt><trkpt lat="41.9031782" lon="12.6026802"><ele>34.0</ele><time>2026-05-02T15:03:28.007Z</time></trkpt><trkpt lat="41.9029496" lon="12.6028204"><ele>36.0</ele><time>2026-05-02T15:03:29.014Z</time></trkpt><trkpt lat="41.9027337" lon="12.6029591"><ele>35.0</ele><time>2026-05-02T15:03:30.015Z</time></trkpt><trkpt lat="41.9025438" lon="12.6030787"><ele>34.0</ele><time>2026-05-02T15:03:31.015Z</time></trkpt><trkpt lat="41.9023645" lon="12.6031645"><ele>33.0</ele><time>2026-05-02T15:03:32.013Z</time></trkpt><trkpt lat="41.9021704" lon="12.6032373"><ele>33.0</ele><time>2026-05-02T15:03:33.012Z</time></trkpt><trkpt lat="41.9019542" lon="12.6033247"><ele>33.0</ele><time>2026-05-02T15:03:34.017Z</time></trkpt><trkpt lat="41.9017462" lon="12.6034125"><ele>33.0</ele><time>2026-05-02T15:03:35.017Z</time></trkpt><trkpt lat="41.9015279" lon="12.6034993"><ele>34.0</ele><time>2026-05-02T15:03:36.009Z</time></trkpt><trkpt lat="41.9013108" lon="12.6035682"><ele>35.0</ele><time>2026-05-02T15:03:37.015Z</time></trkpt><trkpt lat="41.9010801" lon="12.6036356"><ele>35.5</ele><time>2026-05-02T15:03:38.02Z</time></trkpt><trkpt lat="41.900831" lon="12.6036858"><ele>36.0</ele><time>2026-05-02T15:03:39.006Z</time></trkpt><trkpt lat="41.9005858" lon="12.6036918"><ele>36.0</ele><time>2026-05-02T15:03:40.012Z</time></trkpt><trkpt lat="41.9003547" lon="12.6036875"><ele>36.0</ele><time>2026-05-02T15:03:41.005Z</time></trkpt><trkpt lat="41.9001442" lon="12.6036788"><ele>36.0</ele><time>2026-05-02T15:03:42.007Z</time></trkpt><trkpt lat="41.8999449" lon="12.6037035"><ele>36.0</ele><time>2026-05-02T15:03:43.007Z</time></trkpt><trkpt lat="41.8997176" lon="12.6037211"><ele>36.0</ele><time>2026-05-02T15:03:44.004Z</time></trkpt><trkpt lat="41.8994989" lon="12.6037626"><ele>36.0</ele><time>2026-05-02T15:03:45.004Z</time></trkpt><trkpt lat="41.8992412" lon="12.6038207"><ele>36.0</ele><time>2026-05-02T15:03:46.003Z</time></trkpt><trkpt lat="41.8989864" lon="12.6038651"><ele>36.0</ele><time>2026-05-02T15:03:47.014Z</time></trkpt><trkpt lat="41.8987359" lon="12.6038647"><ele>36.0</ele><time>2026-05-02T15:03:48.016Z</time></trkpt><trkpt lat="41.8985041" lon="12.6038815"><ele>36.0</ele><time>2026-05-02T15:03:49.01Z</time></trkpt><trkpt lat="41.898274" lon="12.6038846"><ele>36.666666666666664</ele><time>2026-05-02T15:03:50.014Z</time></trkpt><trkpt lat="41.8980564" lon="12.6038965"><ele>37.33333333333333</ele><time>2026-05-02T15:03:51.008Z</time></trkpt><trkpt lat="41.8978544" lon="12.6039004"><ele>38.0</ele><time>2026-05-02T15:03:52.024Z</time></trkpt><trkpt lat="41.897639" lon="12.603912"><ele>38.0</ele><time>2026-05-02T15:03:53.015Z</time></trkpt><trkpt lat="41.8974113" lon="12.6039391"><ele>38.0</ele><time>2026-05-02T15:03:54.001Z</time></trkpt><trkpt lat="41.8971655" lon="12.6039755"><ele>38.0</ele><time>2026-05-02T15:03:55.006Z</time></trkpt><trkpt lat="41.8969196" lon="12.6040023"><ele>38.0</ele><time>2026-05-02T15:03:56.012Z</time></trkpt><trkpt lat="41.8966885" lon="12.6040344"><ele>38.33333333333333</ele><time>2026-05-02T15:03:57.001Z</time></trkpt><trkpt lat="41.8964715" lon="12.6040519"><ele>38.666666666666664</ele><time>2026-05-02T15:03:58.003Z</time></trkpt><trkpt lat="41.8962597" lon="12.6040426"><ele>39.0</ele><time>2026-05-02T15:03:59.005Z</time></trkpt><trkpt lat="41.8960609" lon="12.6040464"><ele>38.333333333333336</ele><time>2026-05-02T15:04:00.001Z</time></trkpt><trkpt lat="41.8958595" lon="12.6040444"><ele>37.66666666666667</ele><time>2026-05-02T15:04:01.009Z</time></trkpt><trkpt lat="41.8956604" lon="12.6040112"><ele>37.0</ele><time>2026-05-02T15:04:02.006Z</time></trkpt><trkpt lat="41.8954563" lon="12.6039882"><ele>37.0</ele><time>2026-05-02T15:04:03.004Z</time></trkpt><trkpt lat="41.8952811" lon="12.6039579"><ele>37.0</ele><time>2026-05-02T15:04:04.007Z</time></trkpt><trkpt lat="41.8951116" lon="12.6039186"><ele>37.0</ele><time>2026-05-02T15:04:05.013Z</time></trkpt><trkpt lat="41.8949298" lon="12.6038824"><ele>37.333333333333336</ele><time>2026-05-02T15:04:06.012Z</time></trkpt><trkpt lat="41.8947709" lon="12.6038318"><ele>37.666666666666664</ele><time>2026-05-02T15:04:07.007Z</time></trkpt><trkpt lat="41.8946013" lon="12.6037903"><ele>38.0</ele><time>2026-05-02T15:04:08.018Z</time></trkpt><trkpt lat="41.8944283" lon="12.6037363"><ele>38.0</ele><time>2026-05-02T15:04:09.028Z</time></trkpt><trkpt lat="41.8942672" lon="12.603649"><ele>38.0</ele><time>2026-05-02T15:04:10.021Z</time></trkpt><trkpt lat="41.8940946" lon="12.6035662"><ele>38.0</ele><time>2026-05-02T15:04:11.015Z</time></trkpt><trkpt lat="41.8939103" lon="12.6035019"><ele>38.0</ele><time>2026-05-02T15:04:12.015Z</time></trkpt><trkpt lat="41.8937491" lon="12.6034372"><ele>38.0</ele><time>2026-05-02T15:04:13.013Z</time></trkpt><trkpt lat="41.8935953" lon="12.6033647"><ele>38.0</ele><time>2026-05-02T15:04:14.013Z</time></trkpt><trkpt lat="41.8934714" lon="12.6032876"><ele>37.4</ele><time>2026-05-02T15:04:15.016Z</time></trkpt><trkpt lat="41.8933874" lon="12.6032451"><ele>36.8</ele><time>2026-05-02T15:04:16.015Z</time></trkpt><trkpt lat="41.8933294" lon="12.6032076"><ele>36.2</ele><time>2026-05-02T15:04:17.005Z</time></trkpt><trkpt lat="41.8932461" lon="12.6031729"><ele>35.6</ele><time>2026-05-02T15:04:19.01Z</time></trkpt><trkpt lat="41.893103" lon="12.6031512"><ele>35.0</ele><time>2026-05-02T15:04:21.016Z</time></trkpt><trkpt lat="41.8930177" lon="12.6031534"><ele>35.0</ele><time>2026-05-02T15:04:22.014Z</time></trkpt><trkpt lat="41.892938" lon="12.6031731"><ele>35.0</ele><time>2026-05-02T15:04:23.006Z</time></trkpt><trkpt lat="41.8928648" lon="12.6032272"><ele>35.0</ele><time>2026-05-02T15:04:24.017Z</time></trkpt><trkpt lat="41.8927977" lon="12.6032951"><ele>35.0</ele><time>2026-05-02T15:04:25.016Z</time></trkpt><trkpt lat="41.8927275" lon="12.6033409"><ele>35.0</ele><time>2026-05-02T15:04:26.02Z</time></trkpt><trkpt lat="41.8926531" lon="12.6033451"><ele>35.0</ele><time>2026-05-02T15:04:27.015Z</time></trkpt><trkpt lat="41.8925848" lon="12.6033024"><ele>35.5</ele><time>2026-05-02T15:04:28.021Z</time></trkpt><trkpt lat="41.8925196" lon="12.6032195"><ele>36.0</ele><time>2026-05-02T15:04:29.018Z</time></trkpt><trkpt lat="41.8924453" lon="12.6030903"><ele>36.5</ele><time>2026-05-02T15:04:30.001Z</time></trkpt><trkpt lat="41.8923434" lon="12.6029438"><ele>37.0</ele><time>2026-05-02T15:04:31.015Z</time></trkpt><trkpt lat="41.8921797" lon="12.6027747"><ele>37.0</ele><time>2026-05-02T15:04:32.008Z</time></trkpt><trkpt lat="41.8920006" lon="12.6026221"><ele>37.0</ele><time>2026-05-02T15:04:33.013Z</time></trkpt><trkpt lat="41.891815" lon="12.6024522"><ele>37.0</ele><time>2026-05-02T15:04:34.012Z</time></trkpt><trkpt lat="41.8916413" lon="12.6022612"><ele>37.0</ele><time>2026-05-02T15:04:35.016Z</time></trkpt><trkpt lat="41.8914607" lon="12.6020765"><ele>37.0</ele><time>2026-05-02T15:04:36.016Z</time></trkpt><trkpt lat="41.891287" lon="12.601909"><ele>37.0</ele><time>2026-05-02T15:04:37.011Z</time></trkpt><trkpt lat="41.8911244" lon="12.601739"><ele>37.0</ele><time>2026-05-02T15:04:38.017Z</time></trkpt><trkpt lat="41.890967" lon="12.6015826"><ele>37.0</ele><time>2026-05-02T15:04:39.019Z</time></trkpt><trkpt lat="41.8908072" lon="12.601401"><ele>37.0</ele><time>2026-05-02T15:04:40.019Z</time></trkpt><trkpt lat="41.8906701" lon="12.6011984"><ele>39.333333333333336</ele><time>2026-05-02T15:04:41.022Z</time></trkpt><trkpt lat="41.8905557" lon="12.6009951"><ele>41.666666666666664</ele><time>2026-05-02T15:04:42.011Z</time></trkpt><trkpt lat="41.8904587" lon="12.6007559"><ele>44.0</ele><time>2026-05-02T15:04:43.004Z</time></trkpt><trkpt lat="41.8903917" lon="12.6005241"><ele>44.33333333333333</ele><time>2026-05-02T15:04:44.004Z</time></trkpt><trkpt lat="41.8903457" lon="12.6002875"><ele>44.666666666666664</ele><time>2026-05-02T15:04:45.003Z</time></trkpt><trkpt lat="41.8903158" lon="12.6000615"><ele>45.0</ele><time>2026-05-02T15:04:46.001Z</time></trkpt><trkpt lat="41.8903132" lon="12.5998131"><ele>45.0</ele><time>2026-05-02T15:04:47.011Z</time></trkpt><trkpt lat="41.8903372" lon="12.5995586"><ele>45.0</ele><time>2026-05-02T15:04:48.001Z</time></trkpt><trkpt lat="41.890356" lon="12.5992593"><ele>45.0</ele><time>2026-05-02T15:04:49Z</time></trkpt><trkpt lat="41.8903718" lon="12.5989292"><ele>43.5</ele><time>2026-05-02T15:04:50.002Z</time></trkpt><trkpt lat="41.8903898" lon="12.5985702"><ele>42.0</ele><time>2026-05-02T15:04:51.005Z</time></trkpt><trkpt lat="41.8903997" lon="12.5982285"><ele>42.0</ele><time>2026-05-02T15:04:52.006Z</time></trkpt><trkpt lat="41.8904055" lon="12.5979194"><ele>42.0</ele><time>2026-05-02T15:04:53Z</time></trkpt><trkpt lat="41.8904126" lon="12.5975785"><ele>42.0</ele><time>2026-05-02T15:04:53.997Z</time></trkpt><trkpt lat="41.8904298" lon="12.5972377"><ele>42.0</ele><time>2026-05-02T15:04:54.999Z</time></trkpt><trkpt lat="41.8904483" lon="12.596894"><ele>42.0</ele><time>2026-05-02T15:04:56.004Z</time></trkpt><trkpt lat="41.8904646" lon="12.5965353"><ele>42.0</ele><time>2026-05-02T15:04:57.01Z</time></trkpt><trkpt lat="41.8904747" lon="12.5961797"><ele>42.0</ele><time>2026-05-02T15:04:58.003Z</time></trkpt><trkpt lat="41.8904888" lon="12.5958529"><ele>42.0</ele><time>2026-05-02T15:04:59.004Z</time></trkpt><trkpt lat="41.8905004" lon="12.595543"><ele>42.5</ele><time>2026-05-02T15:05:00.008Z</time></trkpt><trkpt lat="41.8905152" lon="12.5952405"><ele>43.0</ele><time>2026-05-02T15:05:01.004Z</time></trkpt><trkpt lat="41.8905329" lon="12.594921"><ele>43.0</ele><time>2026-05-02T15:05:02.004Z</time></trkpt><trkpt lat="41.8905462" lon="12.5946032"><ele>43.0</ele><time>2026-05-02T15:05:03.009Z</time></trkpt><trkpt lat="41.8905659" lon="12.5942981"><ele>42.5</ele><time>2026-05-02T15:05:04.006Z</time></trkpt><trkpt lat="41.8905821" lon="12.5939998"><ele>42.0</ele><time>2026-05-02T15:05:05.006Z</time></trkpt><trkpt lat="41.8905967" lon="12.593675"><ele>43.0</ele><time>2026-05-02T15:05:06.023Z</time></trkpt><trkpt lat="41.8906065" lon="12.5933152"><ele>44.0</ele><time>2026-05-02T15:05:07Z</time></trkpt><trkpt lat="41.8906131" lon="12.5929945"><ele>43.33333333333333</ele><time>2026-05-02T15:05:07.997Z</time></trkpt><trkpt lat="41.8906267" lon="12.5927028"><ele>42.666666666666664</ele><time>2026-05-02T15:05:09.006Z</time></trkpt><trkpt lat="41.8906512" lon="12.5924395"><ele>42.0</ele><time>2026-05-02T15:05:10.013Z</time></trkpt><trkpt lat="41.8906743" lon="12.5921683"><ele>41.75</ele><time>2026-05-02T15:05:10.99Z</time></trkpt><trkpt lat="41.8906857" lon="12.5919479"><ele>41.5</ele><time>2026-05-02T15:05:12Z</time></trkpt><trkpt lat="41.8906873" lon="12.5917346"><ele>41.25</ele><time>2026-05-02T15:05:13.004Z</time></trkpt><trkpt lat="41.8906897" lon="12.5915686"><ele>41.0</ele><time>2026-05-02T15:05:14Z</time></trkpt><trkpt lat="41.8906978" lon="12.5914334"><ele>41.0</ele><time>2026-05-02T15:05:14.999Z</time></trkpt><trkpt lat="41.8907162" lon="12.5912997"><ele>41.0</ele><time>2026-05-02T15:05:16.005Z</time></trkpt><trkpt lat="41.89075" lon="12.5911836"><ele>41.0</ele><time>2026-05-02T15:05:16.997Z</time></trkpt><trkpt lat="41.8907885" lon="12.5910992"><ele>41.0</ele><time>2026-05-02T15:05:18.009Z</time></trkpt><trkpt lat="41.89084" lon="12.5910364"><ele>41.0</ele><time>2026-05-02T15:05:19.004Z</time></trkpt><trkpt lat="41.8908746" lon="12.5909388"><ele>41.0</ele><time>2026-05-02T15:05:19.996Z</time></trkpt><trkpt lat="41.8908831" lon="12.5908275"><ele>40.599999999999994</ele><time>2026-05-02T15:05:20.999Z</time></trkpt><trkpt lat="41.8908478" lon="12.5907269"><ele>40.199999999999996</ele><time>2026-05-02T15:05:22.01Z</time></trkpt><trkpt lat="41.8907601" lon="12.5906635"><ele>39.8</ele><time>2026-05-02T15:05:23.004Z</time></trkpt><trkpt lat="41.8906473" lon="12.5906552"><ele>39.4</ele><time>2026-05-02T15:05:24.007Z</time></trkpt><trkpt lat="41.8905321" lon="12.5907209"><ele>39.0</ele><time>2026-05-02T15:05:25.002Z</time></trkpt><trkpt lat="41.8904118" lon="12.5908104"><ele>39.0</ele><time>2026-05-02T15:05:26.006Z</time></trkpt><trkpt lat="41.8902836" lon="12.5908674"><ele>39.0</ele><time>2026-05-02T15:05:27.007Z</time></trkpt><trkpt lat="41.8901562" lon="12.5908748"><ele>39.0</ele><time>2026-05-02T15:05:28Z</time></trkpt><trkpt lat="41.8900079" lon="12.5908548"><ele>39.0</ele><time>2026-05-02T15:05:28.999Z</time></trkpt><trkpt lat="41.8897651" lon="12.5908293"><ele>39.333333333333336</ele><time>2026-05-02T15:05:29.997Z</time></trkpt><trkpt lat="41.8895332" lon="12.5908137"><ele>39.66666666666667</ele><time>2026-05-02T15:05:31.003Z</time></trkpt><trkpt lat="41.8893406" lon="12.5908037"><ele>40.0</ele><time>2026-05-02T15:05:32.005Z</time></trkpt><trkpt lat="41.8891494" lon="12.5907909"><ele>41.333333333333336</ele><time>2026-05-02T15:05:32.998Z</time></trkpt><trkpt lat="41.8889481" lon="12.5907679"><ele>42.666666666666664</ele><time>2026-05-02T15:05:33.995Z</time></trkpt><trkpt lat="41.8887506" lon="12.5907604"><ele>44.0</ele><time>2026-05-02T15:05:35Z</time></trkpt><trkpt lat="41.8885613" lon="12.5907567"><ele>44.33333333333333</ele><time>2026-05-02T15:05:35.997Z</time></trkpt><trkpt lat="41.8883823" lon="12.5907521"><ele>44.666666666666664</ele><time>2026-05-02T15:05:36.993Z</time></trkpt><trkpt lat="41.8882241" lon="12.5907295"><ele>45.0</ele><time>2026-05-02T15:05:37.997Z</time></trkpt><trkpt lat="41.8880522" lon="12.5907063"><ele>45.0</ele><time>2026-05-02T15:05:39Z</time></trkpt><trkpt lat="41.8878743" lon="12.5906887"><ele>45.0</ele><time>2026-05-02T15:05:39.996Z</time></trkpt><trkpt lat="41.8876959" lon="12.5906649"><ele>45.0</ele><time>2026-05-02T15:05:40.993Z</time></trkpt><trkpt lat="41.88752" lon="12.5906524"><ele>44.333333333333336</ele><time>2026-05-02T15:05:41.996Z</time></trkpt><trkpt lat="41.8873498" lon="12.5906401"><ele>43.66666666666667</ele><time>2026-05-02T15:05:42.999Z</time></trkpt><trkpt lat="41.88716" lon="12.5906314"><ele>43.0</ele><time>2026-05-02T15:05:44.018Z</time></trkpt><trkpt lat="41.886992" lon="12.590623"><ele>43.0</ele><time>2026-05-02T15:05:44.993Z</time></trkpt><trkpt lat="41.8868424" lon="12.5905897"><ele>43.0</ele><time>2026-05-02T15:05:45.991Z</time></trkpt><trkpt lat="41.8866789" lon="12.5905876"><ele>43.0</ele><time>2026-05-02T15:05:46.995Z</time></trkpt><trkpt lat="41.8865188" lon="12.5905639"><ele>43.75</ele><time>2026-05-02T15:05:48.01Z</time></trkpt><trkpt lat="41.8863663" lon="12.5905603"><ele>44.5</ele><time>2026-05-02T15:05:49Z</time></trkpt><trkpt lat="41.8862192" lon="12.5905746"><ele>45.25</ele><time>2026-05-02T15:05:49.997Z</time></trkpt><trkpt lat="41.886082" lon="12.5906249"><ele>46.0</ele><time>2026-05-02T15:05:51.011Z</time></trkpt><trkpt lat="41.8859345" lon="12.5907409"><ele>46.0</ele><time>2026-05-02T15:05:52.003Z</time></trkpt><trkpt lat="41.885795" lon="12.5908143"><ele>46.0</ele><time>2026-05-02T15:05:53.007Z</time></trkpt><trkpt lat="41.885663" lon="12.5908919"><ele>46.0</ele><time>2026-05-02T15:05:54.002Z</time></trkpt><trkpt lat="41.885544" lon="12.5909751"><ele>46.0</ele><time>2026-05-02T15:05:55.006Z</time></trkpt><trkpt lat="41.8854023" lon="12.5910686"><ele>46.0</ele><time>2026-05-02T15:05:56.016Z</time></trkpt><trkpt lat="41.8852524" lon="12.5911378"><ele>46.0</ele><time>2026-05-02T15:05:57.006Z</time></trkpt><trkpt lat="41.8851107" lon="12.5911916"><ele>46.0</ele><time>2026-05-02T15:05:58.007Z</time></trkpt><trkpt lat="41.8849751" lon="12.5912432"><ele>46.0</ele><time>2026-05-02T15:05:59.008Z</time></trkpt><trkpt lat="41.8848471" lon="12.5913071"><ele>45.5</ele><time>2026-05-02T15:06:00.027Z</time></trkpt><trkpt lat="41.8847429" lon="12.5913732"><ele>45.0</ele><time>2026-05-02T15:06:01.024Z</time></trkpt><trkpt lat="41.8846434" lon="12.5914718"><ele>44.5</ele><time>2026-05-02T15:06:02.024Z</time></trkpt><trkpt lat="41.8845515" lon="12.5915988"><ele>44.0</ele><time>2026-05-02T15:06:03.006Z</time></trkpt><trkpt lat="41.8844815" lon="12.5917749"><ele>44.0</ele><time>2026-05-02T15:06:04.009Z</time></trkpt><trkpt lat="41.8844189" lon="12.591973"><ele>44.0</ele><time>2026-05-02T15:06:05.005Z</time></trkpt><trkpt lat="41.8843777" lon="12.5922017"><ele>44.0</ele><time>2026-05-02T15:06:06.005Z</time></trkpt><trkpt lat="41.8843378" lon="12.5923936"><ele>44.5</ele><time>2026-05-02T15:06:07.005Z</time></trkpt><trkpt lat="41.8842984" lon="12.5925651"><ele>45.0</ele><time>2026-05-02T15:06:08.001Z</time></trkpt><trkpt lat="41.8842436" lon="12.5927191"><ele>45.5</ele><time>2026-05-02T15:06:09.003Z</time></trkpt><trkpt lat="41.884187" lon="12.5928452"><ele>46.0</ele><time>2026-05-02T15:06:09.996Z</time></trkpt><trkpt lat="41.8841173" lon="12.5929454"><ele>45.0</ele><time>2026-05-02T15:06:10.999Z</time></trkpt><trkpt lat="41.8840326" lon="12.5930307"><ele>44.0</ele><time>2026-05-02T15:06:12.005Z</time></trkpt><trkpt lat="41.8839363" lon="12.5931019"><ele>43.0</ele><time>2026-05-02T15:06:13.003Z</time></trkpt><trkpt lat="41.8838404" lon="12.593144"><ele>42.0</ele><time>2026-05-02T15:06:13.996Z</time></trkpt><trkpt lat="41.8837368" lon="12.593156"><ele>41.0</ele><time>2026-05-02T15:06:14.998Z</time></trkpt><trkpt lat="41.8836255" lon="12.5931452"><ele>41.0</ele><time>2026-05-02T15:06:15.998Z</time></trkpt><trkpt lat="41.8835193" lon="12.5931001"><ele>41.0</ele><time>2026-05-02T15:06:16.994Z</time></trkpt><trkpt lat="41.8834012" lon="12.5930386"><ele>41.0</ele><time>2026-05-02T15:06:17.999Z</time></trkpt><trkpt lat="41.8832684" lon="12.5929471"><ele>41.0</ele><time>2026-05-02T15:06:18.99Z</time></trkpt><trkpt lat="41.8831138" lon="12.5928268"><ele>42.666666666666664</ele><time>2026-05-02T15:06:19.99Z</time></trkpt><trkpt lat="41.8829735" lon="12.5927278"><ele>44.333333333333336</ele><time>2026-05-02T15:06:20.991Z</time></trkpt><trkpt lat="41.8828365" lon="12.592622"><ele>46.0</ele><time>2026-05-02T15:06:21.996Z</time></trkpt><trkpt lat="41.8827101" lon="12.5925298"><ele>44.75</ele><time>2026-05-02T15:06:22.991Z</time></trkpt><trkpt lat="41.8825831" lon="12.5924666"><ele>43.5</ele><time>2026-05-02T15:06:23.996Z</time></trkpt><trkpt lat="41.8824557" lon="12.5923641"><ele>42.25</ele><time>2026-05-02T15:06:24.993Z</time></trkpt><trkpt lat="41.8823292" lon="12.5922815"><ele>41.0</ele><time>2026-05-02T15:06:25.991Z</time></trkpt><trkpt lat="41.8822239" lon="12.592212"><ele>41.0</ele><time>2026-05-02T15:06:27.001Z</time></trkpt><trkpt lat="41.8821309" lon="12.5921337"><ele>41.0</ele><time>2026-05-02T15:06:27.995Z</time></trkpt><trkpt lat="41.8820002" lon="12.5920233"><ele>41.0</ele><time>2026-05-02T15:06:29.003Z</time></trkpt><trkpt lat="41.8818456" lon="12.5919209"><ele>41.0</ele><time>2026-05-02T15:06:29.996Z</time></trkpt><trkpt lat="41.8816913" lon="12.5918481"><ele>38.666666666666664</ele><time>2026-05-02T15:06:31.01Z</time></trkpt><trkpt lat="41.8815276" lon="12.5917862"><ele>36.333333333333336</ele><time>2026-05-02T15:06:31.992Z</time></trkpt><trkpt lat="41.8813585" lon="12.591725"><ele>34.0</ele><time>2026-05-02T15:06:33.003Z</time></trkpt><trkpt lat="41.8811999" lon="12.5916893"><ele>34.0</ele><time>2026-05-02T15:06:33.998Z</time></trkpt><trkpt lat="41.8810528" lon="12.5916531"><ele>34.0</ele><time>2026-05-02T15:06:35.001Z</time></trkpt><trkpt lat="41.8809035" lon="12.5916183"><ele>34.0</ele><time>2026-05-02T15:06:36.006Z</time></trkpt><trkpt lat="41.8807458" lon="12.5915945"><ele>36.0</ele><time>2026-05-02T15:06:36.997Z</time></trkpt><trkpt lat="41.880565" lon="12.5915722"><ele>38.0</ele><time>2026-05-02T15:06:37.997Z</time></trkpt><trkpt lat="41.8803871" lon="12.5915278"><ele>40.0</ele><time>2026-05-02T15:06:39Z</time></trkpt><trkpt lat="41.8802294" lon="12.5914644"><ele>39.0</ele><time>2026-05-02T15:06:40.005Z</time></trkpt><trkpt lat="41.8800776" lon="12.5913902"><ele>38.0</ele><time>2026-05-02T15:06:40.996Z</time></trkpt><trkpt lat="41.8799338" lon="12.5913124"><ele>37.0</ele><time>2026-05-02T15:06:42.006Z</time></trkpt><trkpt lat="41.8797804" lon="12.5912084"><ele>38.66666666666667</ele><time>2026-05-02T15:06:43.007Z</time></trkpt><trkpt lat="41.8796134" lon="12.5911096"><ele>40.333333333333336</ele><time>2026-05-02T15:06:44.004Z</time></trkpt><trkpt lat="41.8794531" lon="12.5910147"><ele>42.0</ele><time>2026-05-02T15:06:44.997Z</time></trkpt><trkpt lat="41.8792938" lon="12.5908928"><ele>41.333333333333336</ele><time>2026-05-02T15:06:46.009Z</time></trkpt><trkpt lat="41.8791294" lon="12.5907757"><ele>40.66666666666667</ele><time>2026-05-02T15:06:47.001Z</time></trkpt><trkpt lat="41.8789593" lon="12.5906813"><ele>40.0</ele><time>2026-05-02T15:06:48.007Z</time></trkpt><trkpt lat="41.878794" lon="12.5905856"><ele>40.0</ele><time>2026-05-02T15:06:49.004Z</time></trkpt><trkpt lat="41.8786439" lon="12.5904818"><ele>40.0</ele><time>2026-05-02T15:06:50.002Z</time></trkpt><trkpt lat="41.8784914" lon="12.5903709"><ele>40.0</ele><time>2026-05-02T15:06:51.009Z</time></trkpt><trkpt lat="41.8783375" lon="12.5902632"><ele>41.333333333333336</ele><time>2026-05-02T15:06:52.004Z</time></trkpt><trkpt lat="41.8781891" lon="12.5901508"><ele>42.666666666666664</ele><time>2026-05-02T15:06:52.994Z</time></trkpt><trkpt lat="41.87807" lon="12.590024"><ele>44.0</ele><time>2026-05-02T15:06:54.004Z</time></trkpt><trkpt lat="41.8779496" lon="12.5898648"><ele>44.0</ele><time>2026-05-02T15:06:55.006Z</time></trkpt><trkpt lat="41.8778415" lon="12.5896899"><ele>44.0</ele><time>2026-05-02T15:06:56.006Z</time></trkpt><trkpt lat="41.8777248" lon="12.5895213"><ele>44.0</ele><time>2026-05-02T15:06:57.008Z</time></trkpt><trkpt lat="41.8776097" lon="12.5893898"><ele>44.25</ele><time>2026-05-02T15:06:58.009Z</time></trkpt><trkpt lat="41.8775192" lon="12.5892932"><ele>44.5</ele><time>2026-05-02T15:06:59.01Z</time></trkpt><trkpt lat="41.8774264" lon="12.5891957"><ele>44.75</ele><time>2026-05-02T15:07:00.011Z</time></trkpt><trkpt lat="41.8773207" lon="12.5891117"><ele>45.0</ele><time>2026-05-02T15:07:01.003Z</time></trkpt><trkpt lat="41.8772068" lon="12.5890249"><ele>45.0</ele><time>2026-05-02T15:07:02.008Z</time></trkpt><trkpt lat="41.8771046" lon="12.5889523"><ele>45.0</ele><time>2026-05-02T15:07:03.002Z</time></trkpt><trkpt lat="41.8770073" lon="12.5888898"><ele>45.0</ele><time>2026-05-02T15:07:03.999Z</time></trkpt><trkpt lat="41.8768988" lon="12.588801"><ele>45.0</ele><time>2026-05-02T15:07:05.005Z</time></trkpt><trkpt lat="41.8767929" lon="12.5887375"><ele>46.0</ele><time>2026-05-02T15:07:06.003Z</time></trkpt><trkpt lat="41.8767014" lon="12.5886706"><ele>47.0</ele><time>2026-05-02T15:07:07.002Z</time></trkpt><trkpt lat="41.87661" lon="12.5886045"><ele>48.0</ele><time>2026-05-02T15:07:07.996Z</time></trkpt><trkpt lat="41.8765144" lon="12.5885362"><ele>49.0</ele><time>2026-05-02T15:07:09.01Z</time></trkpt><trkpt lat="41.8764148" lon="12.5884635"><ele>50.0</ele><time>2026-05-02T15:07:10.005Z</time></trkpt><trkpt lat="41.8763175" lon="12.5883928"><ele>50.00000000000001</ele><time>2026-05-02T15:07:11.028Z</time></trkpt><trkpt lat="41.8762352" lon="12.5883322"><ele>50.0</ele><time>2026-05-02T15:07:11.998Z</time></trkpt><trkpt lat="41.8761614" lon="12.588285"><ele>50.0</ele><time>2026-05-02T15:07:13Z</time></trkpt><trkpt lat="41.8760949" lon="12.5882444"><ele>50.0</ele><time>2026-05-02T15:07:13.997Z</time></trkpt><trkpt lat="41.8760358" lon="12.5882115"><ele>50.00000000000001</ele><time>2026-05-02T15:07:14.997Z</time></trkpt><trkpt lat="41.8759704" lon="12.5881036"><ele>50.0</ele><time>2026-05-02T15:07:16.992Z</time></trkpt><trkpt lat="41.8759891" lon="12.5880135"><ele>50.0</ele><time>2026-05-02T15:07:17.991Z</time></trkpt><trkpt lat="41.8760472" lon="12.587871"><ele>50.0</ele><time>2026-05-02T15:07:18.996Z</time></trkpt><trkpt lat="41.8761411" lon="12.5877234"><ele>50.0</ele><time>2026-05-02T15:07:19.995Z</time></trkpt><trkpt lat="41.8762434" lon="12.5875185"><ele>50.0</ele><time>2026-05-02T15:07:20.988Z</time></trkpt><trkpt lat="41.8763369" lon="12.5873437"><ele>49.8</ele><time>2026-05-02T15:07:22Z</time></trkpt><trkpt lat="41.8764206" lon="12.5872039"><ele>49.6</ele><time>2026-05-02T15:07:22.995Z</time></trkpt><trkpt lat="41.8764764" lon="12.5870894"><ele>49.400000000000006</ele><time>2026-05-02T15:07:23.988Z</time></trkpt><trkpt lat="41.8765373" lon="12.5870103"><ele>49.2</ele><time>2026-05-02T15:07:25Z</time></trkpt><trkpt lat="41.8765877" lon="12.5868795"><ele>49.0</ele><time>2026-05-02T15:07:26.006Z</time></trkpt><trkpt lat="41.8766264" lon="12.5867254"><ele>49.0</ele><time>2026-05-02T15:07:27.013Z</time></trkpt><trkpt lat="41.8766761" lon="12.5865896"><ele>49.0</ele><time>2026-05-02T15:07:28.002Z</time></trkpt><trkpt lat="41.8767262" lon="12.5864551"><ele>49.0</ele><time>2026-05-02T15:07:29.002Z</time></trkpt><trkpt lat="41.8767785" lon="12.5863384"><ele>49.0</ele><time>2026-05-02T15:07:30.004Z</time></trkpt><trkpt lat="41.8768344" lon="12.5862318"><ele>49.0</ele><time>2026-05-02T15:07:31.002Z</time></trkpt><trkpt lat="41.8768875" lon="12.5861137"><ele>48.6</ele><time>2026-05-02T15:07:32.001Z</time></trkpt><trkpt lat="41.8769337" lon="12.5859924"><ele>48.2</ele><time>2026-05-02T15:07:33.004Z</time></trkpt><trkpt lat="41.8769854" lon="12.5858702"><ele>47.800000000000004</ele><time>2026-05-02T15:07:34.008Z</time></trkpt><trkpt lat="41.8770403" lon="12.5857424"><ele>47.400000000000006</ele><time>2026-05-02T15:07:35.012Z</time></trkpt><trkpt lat="41.8770918" lon="12.5856228"><ele>47.0</ele><time>2026-05-02T15:07:36.005Z</time></trkpt><trkpt lat="41.8771473" lon="12.5855169"><ele>47.0</ele><time>2026-05-02T15:07:37.006Z</time></trkpt><trkpt lat="41.877217" lon="12.5854092"><ele>47.0</ele><time>2026-05-02T15:07:38.009Z</time></trkpt><trkpt lat="41.8772964" lon="12.5853225"><ele>47.0</ele><time>2026-05-02T15:07:39.003Z</time></trkpt><trkpt lat="41.8773991" lon="12.5852596"><ele>47.0</ele><time>2026-05-02T15:07:40.005Z</time></trkpt><trkpt lat="41.8775147" lon="12.585192"><ele>47.0</ele><time>2026-05-02T15:07:41.01Z</time></trkpt><trkpt lat="41.8776336" lon="12.5851103"><ele>47.0</ele><time>2026-05-02T15:07:42.003Z</time></trkpt><trkpt lat="41.877774" lon="12.5850067"><ele>47.0</ele><time>2026-05-02T15:07:43.002Z</time></trkpt><trkpt lat="41.8779628" lon="12.5848815"><ele>47.0</ele><time>2026-05-02T15:07:44.001Z</time></trkpt><trkpt lat="41.8781364" lon="12.5848189"><ele>47.0</ele><time>2026-05-02T15:07:45.005Z</time></trkpt><trkpt lat="41.8782843" lon="12.584765"><ele>47.0</ele><time>2026-05-02T15:07:45.998Z</time></trkpt><trkpt lat="41.8783997" lon="12.5846969"><ele>47.0</ele><time>2026-05-02T15:07:47.001Z</time></trkpt><trkpt lat="41.8785125" lon="12.5846238"><ele>47.0</ele><time>2026-05-02T15:07:48.013Z</time></trkpt><trkpt lat="41.8786027" lon="12.5845434"><ele>47.33333333333333</ele><time>2026-05-02T15:07:49.005Z</time></trkpt><trkpt lat="41.8786852" lon="12.5844723"><ele>47.666666666666664</ele><time>2026-05-02T15:07:50.007Z</time></trkpt><trkpt lat="41.8787625" lon="12.5844368"><ele>48.0</ele><time>2026-05-02T15:07:51.005Z</time></trkpt><trkpt lat="41.8788417" lon="12.5844188"><ele>48.33333333333333</ele><time>2026-05-02T15:07:52.011Z</time></trkpt><trkpt lat="41.8789081" lon="12.5844"><ele>48.666666666666664</ele><time>2026-05-02T15:07:53.002Z</time></trkpt><trkpt lat="41.8789492" lon="12.5843232"><ele>49.0</ele><time>2026-05-02T15:07:54.01Z</time></trkpt><trkpt lat="41.8789768" lon="12.5842391"><ele>49.0</ele><time>2026-05-02T15:07:55.012Z</time></trkpt><trkpt lat="41.8789796" lon="12.5841264"><ele>49.0</ele><time>2026-05-02T15:07:56.013Z</time></trkpt><trkpt lat="41.8789594" lon="12.583982"><ele>49.0</ele><time>2026-05-02T15:07:57.015Z</time></trkpt><trkpt lat="41.8789392" lon="12.5838159"><ele>49.0</ele><time>2026-05-02T15:07:58.007Z</time></trkpt><trkpt lat="41.8789215" lon="12.5836713"><ele>49.0</ele><time>2026-05-02T15:07:59.012Z</time></trkpt><trkpt lat="41.8789145" lon="12.5835489"><ele>48.6</ele><time>2026-05-02T15:08:00.022Z</time></trkpt><trkpt lat="41.87891" lon="12.5834244"><ele>48.2</ele><time>2026-05-02T15:08:01.01Z</time></trkpt><trkpt lat="41.8789117" lon="12.5832919"><ele>47.800000000000004</ele><time>2026-05-02T15:08:02.012Z</time></trkpt><trkpt lat="41.8789109" lon="12.5831545"><ele>47.400000000000006</ele><time>2026-05-02T15:08:03.012Z</time></trkpt><trkpt lat="41.878912" lon="12.583025"><ele>47.0</ele><time>2026-05-02T15:08:04.018Z</time></trkpt><trkpt lat="41.8789086" lon="12.5828989"><ele>46.2</ele><time>2026-05-02T15:08:05.025Z</time></trkpt><trkpt lat="41.8789092" lon="12.5827767"><ele>45.400000000000006</ele><time>2026-05-02T15:08:06.005Z</time></trkpt><trkpt lat="41.8789059" lon="12.5826567"><ele>44.599999999999994</ele><time>2026-05-02T15:08:07.013Z</time></trkpt><trkpt lat="41.8789045" lon="12.5825094"><ele>43.8</ele><time>2026-05-02T15:08:08.011Z</time></trkpt><trkpt lat="41.8788985" lon="12.5823624"><ele>43.0</ele><time>2026-05-02T15:08:09.003Z</time></trkpt><trkpt lat="41.8788975" lon="12.5822322"><ele>43.0</ele><time>2026-05-02T15:08:10.012Z</time></trkpt><trkpt lat="41.8788949" lon="12.5821178"><ele>43.0</ele><time>2026-05-02T15:08:11.001Z</time></trkpt><trkpt lat="41.8788864" lon="12.5820186"><ele>43.0</ele><time>2026-05-02T15:08:11.995Z</time></trkpt><trkpt lat="41.8789095" lon="12.581887"><ele>43.0</ele><time>2026-05-02T15:08:14.002Z</time></trkpt><trkpt lat="41.8790081" lon="12.5818348"><ele>43.0</ele><time>2026-05-02T15:08:16Z</time></trkpt><trkpt lat="41.8790973" lon="12.5818268"><ele>42.66666666666667</ele><time>2026-05-02T15:08:17.003Z</time></trkpt><trkpt lat="41.8791986" lon="12.5818291"><ele>42.333333333333336</ele><time>2026-05-02T15:08:18.007Z</time></trkpt><trkpt lat="41.8792879" lon="12.5818375"><ele>42.0</ele><time>2026-05-02T15:08:18.998Z</time></trkpt><trkpt lat="41.8793707" lon="12.5818402"><ele>41.666666666666664</ele><time>2026-05-02T15:08:20.007Z</time></trkpt><trkpt lat="41.8794386" lon="12.5818103"><ele>41.33333333333333</ele><time>2026-05-02T15:08:21.004Z</time></trkpt><trkpt lat="41.8794809" lon="12.581738"><ele>41.0</ele><time>2026-05-02T15:08:22.005Z</time></trkpt><trkpt lat="41.8794989" lon="12.5816141"><ele>40.75</ele><time>2026-05-02T15:08:23.002Z</time></trkpt><trkpt lat="41.8795047" lon="12.581459"><ele>40.5</ele><time>2026-05-02T15:08:23.991Z</time></trkpt><trkpt lat="41.8795068" lon="12.5812883"><ele>40.25</ele><time>2026-05-02T15:08:25.005Z</time></trkpt><trkpt lat="41.8795059" lon="12.5811031"><ele>40.0</ele><time>2026-05-02T15:08:25.997Z</time></trkpt><trkpt lat="41.879517" lon="12.5809164"><ele>40.0</ele><time>2026-05-02T15:08:26.999Z</time></trkpt><trkpt lat="41.879537" lon="12.5807017"><ele>40.0</ele><time>2026-05-02T15:08:27.999Z</time></trkpt><trkpt lat="41.8795218" lon="12.5804908"><ele>40.0</ele><time>2026-05-02T15:08:29.005Z</time></trkpt><trkpt lat="41.8795284" lon="12.580336"><ele>40.0</ele><time>2026-05-02T15:08:29.996Z</time></trkpt><trkpt lat="41.8794831" lon="12.5801942"><ele>41.4</ele><time>2026-05-02T15:08:30.995Z</time></trkpt><trkpt lat="41.8794687" lon="12.5800579"><ele>42.8</ele><time>2026-05-02T15:08:31.998Z</time></trkpt><trkpt lat="41.8794514" lon="12.5799225"><ele>44.2</ele><time>2026-05-02T15:08:33.008Z</time></trkpt><trkpt lat="41.8794474" lon="12.5797898"><ele>45.6</ele><time>2026-05-02T15:08:34.006Z</time></trkpt><trkpt lat="41.8794216" lon="12.5796326"><ele>47.0</ele><time>2026-05-02T15:08:35.016Z</time></trkpt><trkpt lat="41.8794082" lon="12.5794803"><ele>47.0</ele><time>2026-05-02T15:08:36.005Z</time></trkpt><trkpt lat="41.8793899" lon="12.5793477"><ele>47.0</ele><time>2026-05-02T15:08:37.009Z</time></trkpt><trkpt lat="41.8793704" lon="12.5792312"><ele>47.0</ele><time>2026-05-02T15:08:38.008Z</time></trkpt><trkpt lat="41.8793547" lon="12.5791251"><ele>47.0</ele><time>2026-05-02T15:08:39.009Z</time></trkpt><trkpt lat="41.87934" lon="12.5790259"><ele>47.0</ele><time>2026-05-02T15:08:40.004Z</time></trkpt><trkpt lat="41.8793329" lon="12.5789272"><ele>47.0</ele><time>2026-05-02T15:08:41.011Z</time></trkpt><trkpt lat="41.8793258" lon="12.5788132"><ele>47.0</ele><time>2026-05-02T15:08:42.004Z</time></trkpt><trkpt lat="41.8793154" lon="12.578687"><ele>47.0</ele><time>2026-05-02T15:08:43.014Z</time></trkpt><trkpt lat="41.8793021" lon="12.5785741"><ele>47.0</ele><time>2026-05-02T15:08:44.012Z</time></trkpt><trkpt lat="41.8792836" lon="12.5784704"><ele>47.0</ele><time>2026-05-02T15:08:45.012Z</time></trkpt><trkpt lat="41.8792724" lon="12.5783772"><ele>47.0</ele><time>2026-05-02T15:08:46.013Z</time></trkpt><trkpt lat="41.8792625" lon="12.5782905"><ele>47.0</ele><time>2026-05-02T15:08:47.015Z</time></trkpt><trkpt lat="41.8792486" lon="12.5782011"><ele>47.8</ele><time>2026-05-02T15:08:48.007Z</time></trkpt><trkpt lat="41.8792273" lon="12.5780493"><ele>48.6</ele><time>2026-05-02T15:08:50.009Z</time></trkpt><trkpt lat="41.8792085" lon="12.577968"><ele>49.4</ele><time>2026-05-02T15:08:56.005Z</time></trkpt><trkpt lat="41.8791465" lon="12.5778504"><ele>50.199999999999996</ele><time>2026-05-02T15:09:00.014Z</time></trkpt><trkpt lat="41.8791178" lon="12.5776781"><ele>51.0</ele><time>2026-05-02T15:09:02.006Z</time></trkpt><trkpt lat="41.8791018" lon="12.5775551"><ele>51.0</ele><time>2026-05-02T15:09:03.004Z</time></trkpt><trkpt lat="41.8790813" lon="12.5774257"><ele>51.0</ele><time>2026-05-02T15:09:04.003Z</time></trkpt><trkpt lat="41.8790581" lon="12.5772498"><ele>51.0</ele><time>2026-05-02T15:09:05.005Z</time></trkpt><trkpt lat="41.8790387" lon="12.5770963"><ele>51.0</ele><time>2026-05-02T15:09:06Z</time></trkpt><trkpt lat="41.8790203" lon="12.5769523"><ele>50.199999999999996</ele><time>2026-05-02T15:09:07.006Z</time></trkpt><trkpt lat="41.8789957" lon="12.5768221"><ele>49.4</ele><time>2026-05-02T15:09:08.003Z</time></trkpt><trkpt lat="41.878977" lon="12.5767011"><ele>48.6</ele><time>2026-05-02T15:09:09.003Z</time></trkpt><trkpt lat="41.8789422" lon="12.5766103"><ele>47.8</ele><time>2026-05-02T15:09:10.014Z</time></trkpt><trkpt lat="41.8788839" lon="12.5765612"><ele>47.0</ele><time>2026-05-02T15:09:10.996Z</time></trkpt><trkpt lat="41.8787663" lon="12.5765509"><ele>47.0</ele><time>2026-05-02T15:09:13.008Z</time></trkpt><trkpt lat="41.8787025" lon="12.5765852"><ele>47.0</ele><time>2026-05-02T15:09:14.011Z</time></trkpt><trkpt lat="41.8786081" lon="12.5766281"><ele>47.0</ele><time>2026-05-02T15:09:15.014Z</time></trkpt><trkpt lat="41.878501" lon="12.5766731"><ele>47.0</ele><time>2026-05-02T15:09:16.012Z</time></trkpt><trkpt lat="41.8784088" lon="12.576722"><ele>47.0</ele><time>2026-05-02T15:09:17.006Z</time></trkpt><trkpt lat="41.8783118" lon="12.5767677"><ele>47.666666666666664</ele><time>2026-05-02T15:09:18.008Z</time></trkpt><trkpt lat="41.8782306" lon="12.5768028"><ele>48.33333333333333</ele><time>2026-05-02T15:09:18.99Z</time></trkpt><trkpt lat="41.8781365" lon="12.5768217"><ele>49.0</ele><time>2026-05-02T15:09:19.994Z</time></trkpt><trkpt lat="41.8780542" lon="12.5768505"><ele>49.666666666666664</ele><time>2026-05-02T15:09:21.004Z</time></trkpt><trkpt lat="41.8779697" lon="12.576882"><ele>50.333333333333336</ele><time>2026-05-02T15:09:22.001Z</time></trkpt><trkpt lat="41.8778936" lon="12.576914"><ele>51.0</ele><time>2026-05-02T15:09:23.008Z</time></trkpt><trkpt lat="41.8778225" lon="12.5769339"><ele>51.0</ele><time>2026-05-02T15:09:24.002Z</time></trkpt><trkpt lat="41.8777507" lon="12.5769561"><ele>51.0</ele><time>2026-05-02T15:09:24.998Z</time></trkpt><trkpt lat="41.8776674" lon="12.5769494"><ele>51.0</ele><time>2026-05-02T15:09:29Z</time></trkpt><trkpt lat="41.8775852" lon="12.5769578"><ele>51.0</ele><time>2026-05-02T15:09:32.005Z</time></trkpt><trkpt lat="41.8775128" lon="12.5769879"><ele>51.0</ele><time>2026-05-02T15:09:35.004Z</time></trkpt><trkpt lat="41.8774982" lon="12.5770747"><ele>51.0</ele><time>2026-05-02T15:10:52.004Z</time></trkpt><trkpt lat="41.8775328" lon="12.57691"><ele>51.0</ele><time>2026-05-02T15:12:00.001Z</time></trkpt><trkpt lat="41.8773549" lon="12.576985"><ele>51.0</ele><time>2026-05-02T15:12:16.962Z</time></trkpt><trkpt lat="41.8774546" lon="12.5771044"><ele>51.0</ele><time>2026-05-02T15:12:18.961Z</time></trkpt><trkpt lat="41.8775781" lon="12.5771552"><ele>51.0</ele><time>2026-05-02T15:12:19.962Z</time></trkpt><trkpt lat="41.8776936" lon="12.5771867"><ele>51.66666666666667</ele><time>2026-05-02T15:12:20.957Z</time></trkpt><trkpt lat="41.877859" lon="12.5772068"><ele>52.333333333333336</ele><time>2026-05-02T15:12:21.956Z</time></trkpt><trkpt lat="41.877692" lon="12.5772003"><ele>53.0</ele><time>2026-05-02T15:12:23.958Z</time></trkpt><trkpt lat="41.8774684" lon="12.5771463"><ele>51.0</ele><time>2026-05-02T15:12:24.956Z</time></trkpt><trkpt lat="41.8786073" lon="12.5770898"><ele>53.0</ele><time>2026-05-02T15:12:26.938Z</time></trkpt><trkpt lat="41.8772463" lon="12.5771553"><ele>53.0</ele><time>2026-05-02T15:12:28.955Z</time></trkpt><trkpt lat="41.8773313" lon="12.577152"><ele>53.0</ele><time>2026-05-02T15:12:31.955Z</time></trkpt><trkpt lat="41.8768401" lon="12.5771944"><ele>53.0</ele><time>2026-05-02T15:12:32.953Z</time></trkpt><trkpt lat="41.8769441" lon="12.5771941"><ele>53.0</ele><time>2026-05-02T15:12:35.979Z</time></trkpt><trkpt lat="41.877044" lon="12.5771835"><ele>53.0</ele><time>2026-05-02T15:12:37.982Z</time></trkpt><trkpt lat="41.8771174" lon="12.577159"><ele>53.0</ele><time>2026-05-02T15:12:38.987Z</time></trkpt><trkpt lat="41.8772017" lon="12.5771401"><ele>53.0</ele><time>2026-05-02T15:12:39.983Z</time></trkpt><trkpt lat="41.8775151" lon="12.576896"><ele>52.0</ele><time>2026-05-02T15:13:04.975Z</time></trkpt><trkpt lat="41.8771046" lon="12.5768673"><ele>51.0</ele><time>2026-05-02T15:15:23.98Z</time></trkpt><trkpt lat="41.8775274" lon="12.5769089"><ele>51.0</ele><time>2026-05-02T15:17:37.984Z</time></trkpt></trkseg></trk></gpx>